<?xml version='1.0' encoding='UTF-8'?><gpx version="1.1" creator="JPX - https://github.com/jenetics/jpx" xmlns="http://www.topografix.com/GPX/1/1"><trk><trkseg><trkpt lat="45.6308921" lon="8.910561"><ele>233.0</ele><time>2026-04-11T05:58:12.766Z</time></trkpt><trkpt lat="45.6306967" lon="8.9105717"><ele>233.0</ele><time>2026-04-11T05:58:20.95Z</time></trkpt><trkpt lat="45.6306267" lon="8.9106167"><ele>233.0</ele><time>2026-04-11T05:58:21.95Z</time></trkpt><trkpt lat="45.630535" lon="8.9106767"><ele>233.0</ele><time>2026-04-11T05:58:22.95Z</time></trkpt><trkpt lat="45.63045" lon="8.9107317"><ele>233.0</ele><time>2026-04-11T05:58:23.95Z</time></trkpt><trkpt lat="45.6303617" lon="8.91078"><ele>233.0</ele><time>2026-04-11T05:58:24.95Z</time></trkpt><trkpt lat="45.6302667" lon="8.910835"><ele>233.0</ele><time>2026-04-11T05:58:25.95Z</time></trkpt><trkpt lat="45.6301667" lon="8.9108983"><ele>233.0</ele><time>2026-04-11T05:58:26.95Z</time></trkpt><trkpt lat="45.6300583" lon="8.9109617"><ele>233.0</ele><time>2026-04-11T05:58:27.95Z</time></trkpt><trkpt lat="45.629835" lon="8.911095"><ele>232.75</ele><time>2026-04-11T05:58:29.95Z</time></trkpt><trkpt lat="45.62973" lon="8.9111567"><ele>232.5</ele><time>2026-04-11T05:58:30.95Z</time></trkpt><trkpt lat="45.629625" lon="8.9112217"><ele>232.25</ele><time>2026-04-11T05:58:31.95Z</time></trkpt><trkpt lat="45.6295283" lon="8.9112733"><ele>232.0</ele><time>2026-04-11T05:58:32.95Z</time></trkpt><trkpt lat="45.629345" lon="8.9113517"><ele>231.99999999999997</ele><time>2026-04-11T05:58:34.95Z</time></trkpt><trkpt lat="45.6292667" lon="8.9113617"><ele>232.0</ele><time>2026-04-11T05:58:35.95Z</time></trkpt><trkpt lat="45.6291817" lon="8.9113383"><ele>232.0</ele><time>2026-04-11T05:58:36.95Z</time></trkpt><trkpt lat="45.6290967" lon="8.9113167"><ele>232.0</ele><time>2026-04-11T05:58:37.95Z</time></trkpt><trkpt lat="45.6290267" lon="8.9113267"><ele>231.99999999999997</ele><time>2026-04-11T05:58:38.95Z</time></trkpt><trkpt lat="45.6289533" lon="8.911375"><ele>232.0</ele><time>2026-04-11T05:58:39.95Z</time></trkpt><trkpt lat="45.6288933" lon="8.91145"><ele>232.0</ele><time>2026-04-11T05:58:40.95Z</time></trkpt><trkpt lat="45.6288317" lon="8.9115483"><ele>232.0</ele><time>2026-04-11T05:58:41.95Z</time></trkpt><trkpt lat="45.62877" lon="8.91166"><ele>232.0</ele><time>2026-04-11T05:58:42.949Z</time></trkpt><trkpt lat="45.6286867" lon="8.911755"><ele>232.0</ele><time>2026-04-11T05:58:43.95Z</time></trkpt><trkpt lat="45.6285917" lon="8.9118317"><ele>232.0</ele><time>2026-04-11T05:58:44.95Z</time></trkpt><trkpt lat="45.6284867" lon="8.9119033"><ele>232.5</ele><time>2026-04-11T05:58:45.95Z</time></trkpt><trkpt lat="45.628385" lon="8.91197"><ele>233.0</ele><time>2026-04-11T05:58:46.95Z</time></trkpt><trkpt lat="45.6282583" lon="8.9120417"><ele>233.5</ele><time>2026-04-11T05:58:47.95Z</time></trkpt><trkpt lat="45.6281433" lon="8.9121183"><ele>234.0</ele><time>2026-04-11T05:58:48.95Z</time></trkpt><trkpt lat="45.6280283" lon="8.9121917"><ele>234.0</ele><time>2026-04-11T05:58:49.95Z</time></trkpt><trkpt lat="45.62791" lon="8.912265"><ele>234.0</ele><time>2026-04-11T05:58:50.95Z</time></trkpt><trkpt lat="45.6277967" lon="8.9123417"><ele>234.0</ele><time>2026-04-11T05:58:51.95Z</time></trkpt><trkpt lat="45.6276783" lon="8.9124283"><ele>234.0</ele><time>2026-04-11T05:58:52.95Z</time></trkpt><trkpt lat="45.627555" lon="8.91251"><ele>233.25</ele><time>2026-04-11T05:58:53.95Z</time></trkpt><trkpt lat="45.6274233" lon="8.9125983"><ele>232.5</ele><time>2026-04-11T05:58:54.95Z</time></trkpt><trkpt lat="45.6272933" lon="8.912695"><ele>231.75</ele><time>2026-04-11T05:58:55.95Z</time></trkpt><trkpt lat="45.627165" lon="8.9128"><ele>231.0</ele><time>2026-04-11T05:58:56.95Z</time></trkpt><trkpt lat="45.6270367" lon="8.912895"><ele>230.25</ele><time>2026-04-11T05:58:57.95Z</time></trkpt><trkpt lat="45.6269017" lon="8.9129883"><ele>229.5</ele><time>2026-04-11T05:58:58.95Z</time></trkpt><trkpt lat="45.626765" lon="8.9130883"><ele>228.75</ele><time>2026-04-11T05:58:59.95Z</time></trkpt><trkpt lat="45.626645" lon="8.9131933"><ele>228.0</ele><time>2026-04-11T05:59:00.949Z</time></trkpt><trkpt lat="45.626525" lon="8.9132783"><ele>228.0</ele><time>2026-04-11T05:59:01.95Z</time></trkpt><trkpt lat="45.6264217" lon="8.9133567"><ele>228.0</ele><time>2026-04-11T05:59:02.95Z</time></trkpt><trkpt lat="45.626315" lon="8.91341"><ele>228.0</ele><time>2026-04-11T05:59:03.95Z</time></trkpt><trkpt lat="45.6262217" lon="8.9134767"><ele>228.0</ele><time>2026-04-11T05:59:04.95Z</time></trkpt><trkpt lat="45.62613" lon="8.9135467"><ele>228.0</ele><time>2026-04-11T05:59:05.95Z</time></trkpt><trkpt lat="45.62606" lon="8.9136033"><ele>227.83333333333334</ele><time>2026-04-11T05:59:06.95Z</time></trkpt><trkpt lat="45.6259983" lon="8.9136467"><ele>227.66666666666669</ele><time>2026-04-11T05:59:07.949Z</time></trkpt><trkpt lat="45.6259217" lon="8.9136983"><ele>227.5</ele><time>2026-04-11T05:59:09.95Z</time></trkpt><trkpt lat="45.62586" lon="8.9137383"><ele>227.33333333333334</ele><time>2026-04-11T05:59:12.95Z</time></trkpt><trkpt lat="45.6257833" lon="8.91381"><ele>227.16666666666669</ele><time>2026-04-11T05:59:23.95Z</time></trkpt><trkpt lat="45.6257233" lon="8.9138567"><ele>227.0</ele><time>2026-04-11T05:59:24.95Z</time></trkpt><trkpt lat="45.6256517" lon="8.913905"><ele>227.0</ele><time>2026-04-11T05:59:25.95Z</time></trkpt><trkpt lat="45.6255683" lon="8.9139533"><ele>227.0</ele><time>2026-04-11T05:59:26.95Z</time></trkpt><trkpt lat="45.6254783" lon="8.9139883"><ele>227.0</ele><time>2026-04-11T05:59:27.949Z</time></trkpt><trkpt lat="45.6253783" lon="8.91403"><ele>227.0</ele><time>2026-04-11T05:59:28.95Z</time></trkpt><trkpt lat="45.6252667" lon="8.9140683"><ele>227.0</ele><time>2026-04-11T05:59:29.949Z</time></trkpt><trkpt lat="45.6251467" lon="8.914105"><ele>226.75</ele><time>2026-04-11T05:59:30.95Z</time></trkpt><trkpt lat="45.62503" lon="8.9141417"><ele>226.5</ele><time>2026-04-11T05:59:31.95Z</time></trkpt><trkpt lat="45.624905" lon="8.9141817"><ele>226.25</ele><time>2026-04-11T05:59:32.95Z</time></trkpt><trkpt lat="45.6247767" lon="8.9142183"><ele>226.0</ele><time>2026-04-11T05:59:33.95Z</time></trkpt><trkpt lat="45.6246467" lon="8.9142533"><ele>226.75</ele><time>2026-04-11T05:59:34.95Z</time></trkpt><trkpt lat="45.624505" lon="8.9142833"><ele>227.5</ele><time>2026-04-11T05:59:35.95Z</time></trkpt><trkpt lat="45.624365" lon="8.9142933"><ele>228.25</ele><time>2026-04-11T05:59:36.95Z</time></trkpt><trkpt lat="45.624225" lon="8.91427"><ele>229.0</ele><time>2026-04-11T05:59:37.95Z</time></trkpt><trkpt lat="45.624075" lon="8.9142417"><ele>228.5</ele><time>2026-04-11T05:59:38.95Z</time></trkpt><trkpt lat="45.6239333" lon="8.914175"><ele>228.0</ele><time>2026-04-11T05:59:39.95Z</time></trkpt><trkpt lat="45.623805" lon="8.914085"><ele>227.5</ele><time>2026-04-11T05:59:40.95Z</time></trkpt><trkpt lat="45.6236817" lon="8.91397"><ele>227.0</ele><time>2026-04-11T05:59:41.95Z</time></trkpt><trkpt lat="45.6235717" lon="8.9138333"><ele>226.33333333333334</ele><time>2026-04-11T05:59:42.95Z</time></trkpt><trkpt lat="45.6234633" lon="8.9136883"><ele>225.66666666666669</ele><time>2026-04-11T05:59:43.95Z</time></trkpt><trkpt lat="45.62336" lon="8.91353"><ele>225.0</ele><time>2026-04-11T05:59:44.949Z</time></trkpt><trkpt lat="45.62325" lon="8.91338"><ele>225.0</ele><time>2026-04-11T05:59:45.949Z</time></trkpt><trkpt lat="45.6231383" lon="8.9132333"><ele>225.0</ele><time>2026-04-11T05:59:46.948Z</time></trkpt><trkpt lat="45.6230217" lon="8.9130733"><ele>225.0</ele><time>2026-04-11T05:59:47.949Z</time></trkpt><trkpt lat="45.6229117" lon="8.9129017"><ele>224.33333333333331</ele><time>2026-04-11T05:59:48.949Z</time></trkpt><trkpt lat="45.622795" lon="8.9127417"><ele>223.66666666666666</ele><time>2026-04-11T05:59:49.949Z</time></trkpt><trkpt lat="45.6226767" lon="8.912585"><ele>223.0</ele><time>2026-04-11T05:59:50.949Z</time></trkpt><trkpt lat="45.622565" lon="8.912425"><ele>223.0</ele><time>2026-04-11T05:59:51.949Z</time></trkpt><trkpt lat="45.6224617" lon="8.9122717"><ele>223.0</ele><time>2026-04-11T05:59:52.949Z</time></trkpt><trkpt lat="45.6223533" lon="8.9121167"><ele>223.0</ele><time>2026-04-11T05:59:53.949Z</time></trkpt><trkpt lat="45.6222383" lon="8.9119633"><ele>223.0</ele><time>2026-04-11T05:59:54.948Z</time></trkpt><trkpt lat="45.6221267" lon="8.9118133"><ele>223.0</ele><time>2026-04-11T05:59:55.949Z</time></trkpt><trkpt lat="45.622005" lon="8.9116467"><ele>223.0</ele><time>2026-04-11T05:59:56.949Z</time></trkpt><trkpt lat="45.6218883" lon="8.91149"><ele>223.25</ele><time>2026-04-11T05:59:57.949Z</time></trkpt><trkpt lat="45.6217867" lon="8.9113483"><ele>223.5</ele><time>2026-04-11T05:59:58.949Z</time></trkpt><trkpt lat="45.621705" lon="8.91123"><ele>223.75</ele><time>2026-04-11T05:59:59.949Z</time></trkpt><trkpt lat="45.6216217" lon="8.9111167"><ele>224.0</ele><time>2026-04-11T06:00:00.949Z</time></trkpt><trkpt lat="45.6215467" lon="8.91101"><ele>224.2</ele><time>2026-04-11T06:00:01.949Z</time></trkpt><trkpt lat="45.621485" lon="8.9108983"><ele>224.39999999999998</ele><time>2026-04-11T06:00:02.949Z</time></trkpt><trkpt lat="45.62143" lon="8.9107817"><ele>224.6</ele><time>2026-04-11T06:00:03.949Z</time></trkpt><trkpt lat="45.6213817" lon="8.9106667"><ele>224.8</ele><time>2026-04-11T06:00:04.949Z</time></trkpt><trkpt lat="45.62133" lon="8.91057"><ele>225.0</ele><time>2026-04-11T06:00:05.949Z</time></trkpt><trkpt lat="45.621285" lon="8.9104867"><ele>225.0</ele><time>2026-04-11T06:00:06.948Z</time></trkpt><trkpt lat="45.6212333" lon="8.9104317"><ele>225.0</ele><time>2026-04-11T06:00:07.949Z</time></trkpt><trkpt lat="45.6211083" lon="8.9104533"><ele>225.0</ele><time>2026-04-11T06:00:09.949Z</time></trkpt><trkpt lat="45.621055" lon="8.910535"><ele>225.0</ele><time>2026-04-11T06:00:10.949Z</time></trkpt><trkpt lat="45.6210033" lon="8.910655"><ele>225.0</ele><time>2026-04-11T06:00:11.949Z</time></trkpt><trkpt lat="45.6209617" lon="8.9107917"><ele>224.25</ele><time>2026-04-11T06:00:12.949Z</time></trkpt><trkpt lat="45.6209217" lon="8.9109367"><ele>223.5</ele><time>2026-04-11T06:00:13.949Z</time></trkpt><trkpt lat="45.62087" lon="8.91108"><ele>222.75</ele><time>2026-04-11T06:00:14.949Z</time></trkpt><trkpt lat="45.6208017" lon="8.911235"><ele>222.0</ele><time>2026-04-11T06:00:15.949Z</time></trkpt><trkpt lat="45.62072" lon="8.91139"><ele>222.0</ele><time>2026-04-11T06:00:16.949Z</time></trkpt><trkpt lat="45.6206283" lon="8.9115467"><ele>222.0</ele><time>2026-04-11T06:00:17.949Z</time></trkpt><trkpt lat="45.6205417" lon="8.9117083"><ele>222.0</ele><time>2026-04-11T06:00:18.949Z</time></trkpt><trkpt lat="45.6204517" lon="8.911865"><ele>222.0</ele><time>2026-04-11T06:00:19.949Z</time></trkpt><trkpt lat="45.6203483" lon="8.9120267"><ele>222.0</ele><time>2026-04-11T06:00:20.949Z</time></trkpt><trkpt lat="45.6202617" lon="8.9122067"><ele>222.0</ele><time>2026-04-11T06:00:21.949Z</time></trkpt><trkpt lat="45.6201817" lon="8.9124033"><ele>222.0</ele><time>2026-04-11T06:00:22.949Z</time></trkpt><trkpt lat="45.6201083" lon="8.9126"><ele>222.25</ele><time>2026-04-11T06:00:23.949Z</time></trkpt><trkpt lat="45.6200483" lon="8.9127883"><ele>222.5</ele><time>2026-04-11T06:00:24.949Z</time></trkpt><trkpt lat="45.6199967" lon="8.91298"><ele>222.75</ele><time>2026-04-11T06:00:25.949Z</time></trkpt><trkpt lat="45.6199533" lon="8.913185"><ele>223.0</ele><time>2026-04-11T06:00:26.949Z</time></trkpt><trkpt lat="45.6199167" lon="8.91341"><ele>223.0</ele><time>2026-04-11T06:00:27.949Z</time></trkpt><trkpt lat="45.6198967" lon="8.9136483"><ele>223.0</ele><time>2026-04-11T06:00:28.949Z</time></trkpt><trkpt lat="45.6198933" lon="8.91389"><ele>223.0</ele><time>2026-04-11T06:00:29.949Z</time></trkpt><trkpt lat="45.6199" lon="8.9141417"><ele>222.66666666666666</ele><time>2026-04-11T06:00:30.949Z</time></trkpt><trkpt lat="45.6199167" lon="8.9143783"><ele>222.33333333333331</ele><time>2026-04-11T06:00:31.949Z</time></trkpt><trkpt lat="45.619935" lon="8.9146083"><ele>222.0</ele><time>2026-04-11T06:00:32.949Z</time></trkpt><trkpt lat="45.619945" lon="8.9148267"><ele>222.0</ele><time>2026-04-11T06:00:33.949Z</time></trkpt><trkpt lat="45.6199633" lon="8.9150333"><ele>222.0</ele><time>2026-04-11T06:00:34.949Z</time></trkpt><trkpt lat="45.619985" lon="8.91524"><ele>222.0</ele><time>2026-04-11T06:00:35.949Z</time></trkpt><trkpt lat="45.620005" lon="8.9154533"><ele>222.0</ele><time>2026-04-11T06:00:36.949Z</time></trkpt><trkpt lat="45.62002" lon="8.9156633"><ele>222.0</ele><time>2026-04-11T06:00:37.949Z</time></trkpt><trkpt lat="45.6200367" lon="8.91588"><ele>222.0</ele><time>2026-04-11T06:00:38.949Z</time></trkpt><trkpt lat="45.620055" lon="8.916095"><ele>222.0</ele><time>2026-04-11T06:00:39.949Z</time></trkpt><trkpt lat="45.6200733" lon="8.9163117"><ele>223.66666666666669</ele><time>2026-04-11T06:00:40.949Z</time></trkpt><trkpt lat="45.6200883" lon="8.9165217"><ele>225.33333333333334</ele><time>2026-04-11T06:00:41.949Z</time></trkpt><trkpt lat="45.6201183" lon="8.9167433"><ele>227.0</ele><time>2026-04-11T06:00:42.949Z</time></trkpt><trkpt lat="45.6201467" lon="8.9169633"><ele>228.0</ele><time>2026-04-11T06:00:43.949Z</time></trkpt><trkpt lat="45.6201717" lon="8.91719"><ele>229.0</ele><time>2026-04-11T06:00:44.949Z</time></trkpt><trkpt lat="45.620195" lon="8.9174183"><ele>230.0</ele><time>2026-04-11T06:00:45.949Z</time></trkpt><trkpt lat="45.620215" lon="8.91766"><ele>231.0</ele><time>2026-04-11T06:00:46.949Z</time></trkpt><trkpt lat="45.62023" lon="8.9178967"><ele>232.0</ele><time>2026-04-11T06:00:47.949Z</time></trkpt><trkpt lat="45.6202433" lon="8.9181383"><ele>233.0</ele><time>2026-04-11T06:00:48.949Z</time></trkpt><trkpt lat="45.6202583" lon="8.9183817"><ele>233.0</ele><time>2026-04-11T06:00:49.949Z</time></trkpt><trkpt lat="45.6202667" lon="8.91861"><ele>233.0</ele><time>2026-04-11T06:00:50.948Z</time></trkpt><trkpt lat="45.6202767" lon="8.9188317"><ele>233.0</ele><time>2026-04-11T06:00:51.949Z</time></trkpt><trkpt lat="45.620295" lon="8.91907"><ele>232.66666666666669</ele><time>2026-04-11T06:00:52.949Z</time></trkpt><trkpt lat="45.62031" lon="8.919305"><ele>232.33333333333331</ele><time>2026-04-11T06:00:53.949Z</time></trkpt><trkpt lat="45.6203367" lon="8.919535"><ele>232.0</ele><time>2026-04-11T06:00:54.949Z</time></trkpt><trkpt lat="45.6203567" lon="8.9197767"><ele>232.0</ele><time>2026-04-11T06:00:55.949Z</time></trkpt><trkpt lat="45.6203767" lon="8.9200133"><ele>232.0</ele><time>2026-04-11T06:00:56.949Z</time></trkpt><trkpt lat="45.6203933" lon="8.920265"><ele>232.0</ele><time>2026-04-11T06:00:57.949Z</time></trkpt><trkpt lat="45.6204217" lon="8.9205033"><ele>231.66666666666666</ele><time>2026-04-11T06:00:58.949Z</time></trkpt><trkpt lat="45.6204333" lon="8.9207433"><ele>231.33333333333331</ele><time>2026-04-11T06:00:59.949Z</time></trkpt><trkpt lat="45.620445" lon="8.921"><ele>231.0</ele><time>2026-04-11T06:01:00.949Z</time></trkpt><trkpt lat="45.6204683" lon="8.9212583"><ele>231.66666666666669</ele><time>2026-04-11T06:01:01.949Z</time></trkpt><trkpt lat="45.620495" lon="8.9215233"><ele>232.33333333333334</ele><time>2026-04-11T06:01:02.949Z</time></trkpt><trkpt lat="45.62052" lon="8.92178"><ele>233.0</ele><time>2026-04-11T06:01:03.949Z</time></trkpt><trkpt lat="45.6205317" lon="8.922035"><ele>233.0</ele><time>2026-04-11T06:01:04.949Z</time></trkpt><trkpt lat="45.6205617" lon="8.9222917"><ele>233.0</ele><time>2026-04-11T06:01:05.949Z</time></trkpt><trkpt lat="45.6206033" lon="8.9225433"><ele>233.0</ele><time>2026-04-11T06:01:06.949Z</time></trkpt><trkpt lat="45.6206567" lon="8.922775"><ele>232.75</ele><time>2026-04-11T06:01:07.949Z</time></trkpt><trkpt lat="45.6207133" lon="8.9229867"><ele>232.5</ele><time>2026-04-11T06:01:08.949Z</time></trkpt><trkpt lat="45.620765" lon="8.92316"><ele>232.25</ele><time>2026-04-11T06:01:09.949Z</time></trkpt><trkpt lat="45.62082" lon="8.9233317"><ele>232.0</ele><time>2026-04-11T06:01:10.949Z</time></trkpt><trkpt lat="45.6208717" lon="8.92347"><ele>232.0</ele><time>2026-04-11T06:01:11.949Z</time></trkpt><trkpt lat="45.620915" lon="8.9236117"><ele>232.0</ele><time>2026-04-11T06:01:12.949Z</time></trkpt><trkpt lat="45.620945" lon="8.923735"><ele>232.0</ele><time>2026-04-11T06:01:13.949Z</time></trkpt><trkpt lat="45.620965" lon="8.9238617"><ele>232.0</ele><time>2026-04-11T06:01:14.949Z</time></trkpt><trkpt lat="45.620975" lon="8.923985"><ele>232.0</ele><time>2026-04-11T06:01:15.949Z</time></trkpt><trkpt lat="45.62099" lon="8.9241017"><ele>231.99999999999997</ele><time>2026-04-11T06:01:16.949Z</time></trkpt><trkpt lat="45.62103" lon="8.9241983"><ele>232.0</ele><time>2026-04-11T06:01:17.949Z</time></trkpt><trkpt lat="45.621095" lon="8.924255"><ele>232.0</ele><time>2026-04-11T06:01:18.949Z</time></trkpt><trkpt lat="45.6211767" lon="8.9242767"><ele>232.0</ele><time>2026-04-11T06:01:19.949Z</time></trkpt><trkpt lat="45.6212717" lon="8.9242983"><ele>231.99999999999997</ele><time>2026-04-11T06:01:20.948Z</time></trkpt><trkpt lat="45.6213783" lon="8.924335"><ele>232.0</ele><time>2026-04-11T06:01:21.949Z</time></trkpt><trkpt lat="45.62146" lon="8.9243983"><ele>232.5</ele><time>2026-04-11T06:01:22.949Z</time></trkpt><trkpt lat="45.6215233" lon="8.9245033"><ele>233.0</ele><time>2026-04-11T06:01:23.949Z</time></trkpt><trkpt lat="45.6215867" lon="8.9246333"><ele>233.5</ele><time>2026-04-11T06:01:24.949Z</time></trkpt><trkpt lat="45.62165" lon="8.9247983"><ele>234.0</ele><time>2026-04-11T06:01:25.949Z</time></trkpt><trkpt lat="45.6217067" lon="8.924965"><ele>234.25</ele><time>2026-04-11T06:01:26.949Z</time></trkpt><trkpt lat="45.6217517" lon="8.9251533"><ele>234.5</ele><time>2026-04-11T06:01:27.949Z</time></trkpt><trkpt lat="45.6218" lon="8.92535"><ele>234.75</ele><time>2026-04-11T06:01:28.949Z</time></trkpt><trkpt lat="45.621825" lon="8.92555"><ele>235.0</ele><time>2026-04-11T06:01:29.949Z</time></trkpt><trkpt lat="45.6218417" lon="8.92575"><ele>233.5</ele><time>2026-04-11T06:01:30.949Z</time></trkpt><trkpt lat="45.62185" lon="8.9259567"><ele>232.0</ele><time>2026-04-11T06:01:31.949Z</time></trkpt><trkpt lat="45.6218433" lon="8.92616"><ele>230.5</ele><time>2026-04-11T06:01:32.949Z</time></trkpt><trkpt lat="45.621815" lon="8.9263683"><ele>229.0</ele><time>2026-04-11T06:01:33.948Z</time></trkpt><trkpt lat="45.6217667" lon="8.926595"><ele>230.0</ele><time>2026-04-11T06:01:34.948Z</time></trkpt><trkpt lat="45.6216983" lon="8.9268117"><ele>231.0</ele><time>2026-04-11T06:01:35.949Z</time></trkpt><trkpt lat="45.6216117" lon="8.9270183"><ele>232.0</ele><time>2026-04-11T06:01:36.949Z</time></trkpt><trkpt lat="45.6215083" lon="8.927215"><ele>232.0</ele><time>2026-04-11T06:01:37.949Z</time></trkpt><trkpt lat="45.6213833" lon="8.9273933"><ele>232.0</ele><time>2026-04-11T06:01:38.949Z</time></trkpt><trkpt lat="45.62125" lon="8.9275467"><ele>232.0</ele><time>2026-04-11T06:01:39.949Z</time></trkpt><trkpt lat="45.6211083" lon="8.927685"><ele>232.33333333333331</ele><time>2026-04-11T06:01:40.948Z</time></trkpt><trkpt lat="45.6209683" lon="8.9278117"><ele>232.66666666666669</ele><time>2026-04-11T06:01:41.949Z</time></trkpt><trkpt lat="45.6208283" lon="8.9279317"><ele>233.0</ele><time>2026-04-11T06:01:42.949Z</time></trkpt><trkpt lat="45.6206733" lon="8.9280383"><ele>233.0</ele><time>2026-04-11T06:01:43.949Z</time></trkpt><trkpt lat="45.6205117" lon="8.9281217"><ele>233.0</ele><time>2026-04-11T06:01:44.949Z</time></trkpt><trkpt lat="45.620355" lon="8.9282183"><ele>233.0</ele><time>2026-04-11T06:01:45.948Z</time></trkpt><trkpt lat="45.6202" lon="8.9283183"><ele>232.66666666666669</ele><time>2026-04-11T06:01:46.949Z</time></trkpt><trkpt lat="45.62005" lon="8.928425"><ele>232.33333333333331</ele><time>2026-04-11T06:01:47.949Z</time></trkpt><trkpt lat="45.619905" lon="8.9285117"><ele>232.0</ele><time>2026-04-11T06:01:48.949Z</time></trkpt><trkpt lat="45.61975" lon="8.92862"><ele>232.0</ele><time>2026-04-11T06:01:49.949Z</time></trkpt><trkpt lat="45.6196133" lon="8.9287383"><ele>232.0</ele><time>2026-04-11T06:01:50.949Z</time></trkpt><trkpt lat="45.6194733" lon="8.9288517"><ele>232.0</ele><time>2026-04-11T06:01:51.949Z</time></trkpt><trkpt lat="45.619335" lon="8.9289733"><ele>232.66666666666666</ele><time>2026-04-11T06:01:52.949Z</time></trkpt><trkpt lat="45.61921" lon="8.929105"><ele>233.33333333333331</ele><time>2026-04-11T06:01:53.948Z</time></trkpt><trkpt lat="45.6190683" lon="8.9293817"><ele>234.0</ele><time>2026-04-11T06:01:54.949Z</time></trkpt><trkpt lat="45.619" lon="8.9296583"><ele>234.0</ele><time>2026-04-11T06:01:55.948Z</time></trkpt><trkpt lat="45.6189267" lon="8.92992"><ele>234.0</ele><time>2026-04-11T06:01:56.949Z</time></trkpt><trkpt lat="45.618895" lon="8.9301967"><ele>234.0</ele><time>2026-04-11T06:01:57.949Z</time></trkpt><trkpt lat="45.6188267" lon="8.9304267"><ele>234.0</ele><time>2026-04-11T06:01:58.948Z</time></trkpt><trkpt lat="45.6188017" lon="8.9306767"><ele>234.0</ele><time>2026-04-11T06:01:59.949Z</time></trkpt><trkpt lat="45.6187367" lon="8.93093"><ele>234.0</ele><time>2026-04-11T06:02:00.949Z</time></trkpt><trkpt lat="45.6186617" lon="8.93117"><ele>235.0</ele><time>2026-04-11T06:02:01.949Z</time></trkpt><trkpt lat="45.6185783" lon="8.9314333"><ele>236.0</ele><time>2026-04-11T06:02:02.949Z</time></trkpt><trkpt lat="45.618485" lon="8.9316867"><ele>237.0</ele><time>2026-04-11T06:02:03.949Z</time></trkpt><trkpt lat="45.618385" lon="8.9319117"><ele>238.0</ele><time>2026-04-11T06:02:04.949Z</time></trkpt><trkpt lat="45.61829" lon="8.932105"><ele>239.0</ele><time>2026-04-11T06:02:05.949Z</time></trkpt><trkpt lat="45.6181667" lon="8.932305"><ele>240.0</ele><time>2026-04-11T06:02:06.949Z</time></trkpt><trkpt lat="45.6180517" lon="8.9324817"><ele>239.0</ele><time>2026-04-11T06:02:07.949Z</time></trkpt><trkpt lat="45.617925" lon="8.9326433"><ele>238.0</ele><time>2026-04-11T06:02:08.949Z</time></trkpt><trkpt lat="45.617795" lon="8.9327717"><ele>237.0</ele><time>2026-04-11T06:02:09.949Z</time></trkpt><trkpt lat="45.6176767" lon="8.9329017"><ele>235.75</ele><time>2026-04-11T06:02:10.949Z</time></trkpt><trkpt lat="45.6175517" lon="8.93301"><ele>234.5</ele><time>2026-04-11T06:02:11.949Z</time></trkpt><trkpt lat="45.6174467" lon="8.9331033"><ele>233.25</ele><time>2026-04-11T06:02:12.948Z</time></trkpt><trkpt lat="45.61736" lon="8.9331983"><ele>232.0</ele><time>2026-04-11T06:02:13.949Z</time></trkpt><trkpt lat="45.617275" lon="8.933285"><ele>232.0</ele><time>2026-04-11T06:02:14.949Z</time></trkpt><trkpt lat="45.6171833" lon="8.9333617"><ele>232.0</ele><time>2026-04-11T06:02:15.948Z</time></trkpt><trkpt lat="45.6170967" lon="8.9334133"><ele>232.0</ele><time>2026-04-11T06:02:16.949Z</time></trkpt><trkpt lat="45.617005" lon="8.9334533"><ele>232.0</ele><time>2026-04-11T06:02:17.949Z</time></trkpt><trkpt lat="45.6169133" lon="8.9334983"><ele>232.0</ele><time>2026-04-11T06:02:18.948Z</time></trkpt><trkpt lat="45.6168267" lon="8.93357"><ele>230.25</ele><time>2026-04-11T06:02:19.948Z</time></trkpt><trkpt lat="45.616755" lon="8.9336533"><ele>228.5</ele><time>2026-04-11T06:02:20.949Z</time></trkpt><trkpt lat="45.6166933" lon="8.9337783"><ele>226.75</ele><time>2026-04-11T06:02:21.949Z</time></trkpt><trkpt lat="45.6166117" lon="8.93392"><ele>225.0</ele><time>2026-04-11T06:02:22.949Z</time></trkpt><trkpt lat="45.6165267" lon="8.9340633"><ele>225.0</ele><time>2026-04-11T06:02:23.949Z</time></trkpt><trkpt lat="45.61642" lon="8.9342"><ele>225.0</ele><time>2026-04-11T06:02:24.949Z</time></trkpt><trkpt lat="45.616305" lon="8.9343517"><ele>225.0</ele><time>2026-04-11T06:02:25.949Z</time></trkpt><trkpt lat="45.6161933" lon="8.93452"><ele>224.66666666666669</ele><time>2026-04-11T06:02:26.949Z</time></trkpt><trkpt lat="45.616075" lon="8.934665"><ele>224.33333333333334</ele><time>2026-04-11T06:02:27.949Z</time></trkpt><trkpt lat="45.61597" lon="8.9348117"><ele>224.0</ele><time>2026-04-11T06:02:28.949Z</time></trkpt><trkpt lat="45.615865" lon="8.9349683"><ele>223.75</ele><time>2026-04-11T06:02:29.949Z</time></trkpt><trkpt lat="45.6157667" lon="8.9351083"><ele>223.5</ele><time>2026-04-11T06:02:30.949Z</time></trkpt><trkpt lat="45.6156717" lon="8.9352417"><ele>223.25</ele><time>2026-04-11T06:02:31.949Z</time></trkpt><trkpt lat="45.6155867" lon="8.9353483"><ele>223.0</ele><time>2026-04-11T06:02:32.949Z</time></trkpt><trkpt lat="45.6155167" lon="8.9354383"><ele>222.99999999999997</ele><time>2026-04-11T06:02:33.949Z</time></trkpt><trkpt lat="45.6154483" lon="8.9355117"><ele>223.0</ele><time>2026-04-11T06:02:34.949Z</time></trkpt><trkpt lat="45.615385" lon="8.935565"><ele>223.0</ele><time>2026-04-11T06:02:35.949Z</time></trkpt><trkpt lat="45.6153167" lon="8.9356233"><ele>223.0</ele><time>2026-04-11T06:02:36.949Z</time></trkpt><trkpt lat="45.6152533" lon="8.9356883"><ele>222.99999999999997</ele><time>2026-04-11T06:02:37.949Z</time></trkpt><trkpt lat="45.615195" lon="8.9357783"><ele>223.0</ele><time>2026-04-11T06:02:38.949Z</time></trkpt><trkpt lat="45.615105" lon="8.935875"><ele>223.5</ele><time>2026-04-11T06:02:39.949Z</time></trkpt><trkpt lat="45.615005" lon="8.9359717"><ele>224.0</ele><time>2026-04-11T06:02:40.949Z</time></trkpt><trkpt lat="45.6148983" lon="8.9360917"><ele>224.5</ele><time>2026-04-11T06:02:41.949Z</time></trkpt><trkpt lat="45.6147767" lon="8.9362067"><ele>225.0</ele><time>2026-04-11T06:02:42.949Z</time></trkpt><trkpt lat="45.6146533" lon="8.9363167"><ele>225.0</ele><time>2026-04-11T06:02:43.948Z</time></trkpt><trkpt lat="45.6145217" lon="8.936415"><ele>225.0</ele><time>2026-04-11T06:02:44.948Z</time></trkpt><trkpt lat="45.614395" lon="8.9365083"><ele>225.0</ele><time>2026-04-11T06:02:45.948Z</time></trkpt><trkpt lat="45.6142667" lon="8.93661"><ele>225.0</ele><time>2026-04-11T06:02:46.948Z</time></trkpt><trkpt lat="45.6141417" lon="8.9367233"><ele>226.0</ele><time>2026-04-11T06:02:47.949Z</time></trkpt><trkpt lat="45.6140117" lon="8.936845"><ele>227.0</ele><time>2026-04-11T06:02:48.949Z</time></trkpt><trkpt lat="45.613875" lon="8.9369317"><ele>228.0</ele><time>2026-04-11T06:02:49.949Z</time></trkpt><trkpt lat="45.613735" lon="8.9369883"><ele>226.33333333333331</ele><time>2026-04-11T06:02:50.949Z</time></trkpt><trkpt lat="45.6135883" lon="8.9370417"><ele>224.66666666666666</ele><time>2026-04-11T06:02:51.949Z</time></trkpt><trkpt lat="45.6134333" lon="8.937085"><ele>223.0</ele><time>2026-04-11T06:02:52.949Z</time></trkpt><trkpt lat="45.6132783" lon="8.9371233"><ele>223.0</ele><time>2026-04-11T06:02:53.948Z</time></trkpt><trkpt lat="45.6131117" lon="8.9371717"><ele>223.0</ele><time>2026-04-11T06:02:54.949Z</time></trkpt><trkpt lat="45.6129533" lon="8.93723"><ele>223.0</ele><time>2026-04-11T06:02:55.949Z</time></trkpt><trkpt lat="45.6127917" lon="8.937285"><ele>222.75</ele><time>2026-04-11T06:02:56.949Z</time></trkpt><trkpt lat="45.6126367" lon="8.9373417"><ele>222.5</ele><time>2026-04-11T06:02:57.949Z</time></trkpt><trkpt lat="45.6124933" lon="8.937385"><ele>222.25</ele><time>2026-04-11T06:02:58.949Z</time></trkpt><trkpt lat="45.6123667" lon="8.937425"><ele>222.0</ele><time>2026-04-11T06:02:59.949Z</time></trkpt><trkpt lat="45.6122283" lon="8.937455"><ele>222.0</ele><time>2026-04-11T06:03:00.949Z</time></trkpt><trkpt lat="45.6120983" lon="8.9374883"><ele>222.0</ele><time>2026-04-11T06:03:01.949Z</time></trkpt><trkpt lat="45.6119667" lon="8.9375183"><ele>222.0</ele><time>2026-04-11T06:03:02.949Z</time></trkpt><trkpt lat="45.6118317" lon="8.9375483"><ele>222.0</ele><time>2026-04-11T06:03:03.949Z</time></trkpt><trkpt lat="45.6117017" lon="8.9375783"><ele>222.0</ele><time>2026-04-11T06:03:04.949Z</time></trkpt><trkpt lat="45.61158" lon="8.93761"><ele>222.0</ele><time>2026-04-11T06:03:05.949Z</time></trkpt><trkpt lat="45.6114683" lon="8.9376267"><ele>222.0</ele><time>2026-04-11T06:03:06.949Z</time></trkpt><trkpt lat="45.6113733" lon="8.93764"><ele>222.0</ele><time>2026-04-11T06:03:07.949Z</time></trkpt><trkpt lat="45.61128" lon="8.9376433"><ele>222.0</ele><time>2026-04-11T06:03:08.949Z</time></trkpt><trkpt lat="45.6111917" lon="8.9376067"><ele>221.8</ele><time>2026-04-11T06:03:09.949Z</time></trkpt><trkpt lat="45.6111117" lon="8.9375483"><ele>221.6</ele><time>2026-04-11T06:03:10.949Z</time></trkpt><trkpt lat="45.61103" lon="8.937465"><ele>221.40000000000003</ele><time>2026-04-11T06:03:11.949Z</time></trkpt><trkpt lat="45.6109567" lon="8.937325"><ele>221.20000000000002</ele><time>2026-04-11T06:03:12.949Z</time></trkpt><trkpt lat="45.61091" lon="8.9371617"><ele>221.0</ele><time>2026-04-11T06:03:13.949Z</time></trkpt><trkpt lat="45.6108633" lon="8.936985"><ele>221.0</ele><time>2026-04-11T06:03:14.949Z</time></trkpt><trkpt lat="45.61083" lon="8.9368"><ele>221.0</ele><time>2026-04-11T06:03:15.949Z</time></trkpt><trkpt lat="45.61081" lon="8.9365967"><ele>221.0</ele><time>2026-04-11T06:03:16.949Z</time></trkpt><trkpt lat="45.61078" lon="8.9363933"><ele>221.0</ele><time>2026-04-11T06:03:17.949Z</time></trkpt><trkpt lat="45.61076" lon="8.9361783"><ele>221.33333333333334</ele><time>2026-04-11T06:03:18.949Z</time></trkpt><trkpt lat="45.6107417" lon="8.9359483"><ele>221.66666666666669</ele><time>2026-04-11T06:03:19.949Z</time></trkpt><trkpt lat="45.6107183" lon="8.9357133"><ele>222.0</ele><time>2026-04-11T06:03:20.949Z</time></trkpt><trkpt lat="45.61069" lon="8.9354883"><ele>222.33333333333331</ele><time>2026-04-11T06:03:21.949Z</time></trkpt><trkpt lat="45.6106583" lon="8.9352667"><ele>222.66666666666666</ele><time>2026-04-11T06:03:22.949Z</time></trkpt><trkpt lat="45.610635" lon="8.9350617"><ele>223.0</ele><time>2026-04-11T06:03:23.949Z</time></trkpt><trkpt lat="45.610605" lon="8.9348567"><ele>223.25</ele><time>2026-04-11T06:03:24.949Z</time></trkpt><trkpt lat="45.610575" lon="8.93464"><ele>223.5</ele><time>2026-04-11T06:03:25.949Z</time></trkpt><trkpt lat="45.610555" lon="8.934435"><ele>223.75</ele><time>2026-04-11T06:03:26.949Z</time></trkpt><trkpt lat="45.6105317" lon="8.934225"><ele>224.0</ele><time>2026-04-11T06:03:27.949Z</time></trkpt><trkpt lat="45.610515" lon="8.9340317"><ele>224.0</ele><time>2026-04-11T06:03:28.949Z</time></trkpt><trkpt lat="45.610495" lon="8.933845"><ele>224.0</ele><time>2026-04-11T06:03:29.949Z</time></trkpt><trkpt lat="45.6104733" lon="8.9336733"><ele>224.0</ele><time>2026-04-11T06:03:30.949Z</time></trkpt><trkpt lat="45.6104533" lon="8.933505"><ele>224.0</ele><time>2026-04-11T06:03:31.949Z</time></trkpt><trkpt lat="45.610445" lon="8.9333433"><ele>223.79999999999998</ele><time>2026-04-11T06:03:32.949Z</time></trkpt><trkpt lat="45.6104467" lon="8.9332017"><ele>223.59999999999997</ele><time>2026-04-11T06:03:33.949Z</time></trkpt><trkpt lat="45.6104633" lon="8.93307"><ele>223.4</ele><time>2026-04-11T06:03:34.948Z</time></trkpt><trkpt lat="45.6104917" lon="8.9329333"><ele>223.2</ele><time>2026-04-11T06:03:35.949Z</time></trkpt><trkpt lat="45.610505" lon="8.9327917"><ele>223.0</ele><time>2026-04-11T06:03:36.949Z</time></trkpt><trkpt lat="45.6104917" lon="8.9326517"><ele>222.75</ele><time>2026-04-11T06:03:37.949Z</time></trkpt><trkpt lat="45.6104433" lon="8.9325067"><ele>222.5</ele><time>2026-04-11T06:03:38.949Z</time></trkpt><trkpt lat="45.6103917" lon="8.9323533"><ele>222.25</ele><time>2026-04-11T06:03:39.949Z</time></trkpt><trkpt lat="45.6103383" lon="8.9321983"><ele>222.0</ele><time>2026-04-11T06:03:40.949Z</time></trkpt><trkpt lat="45.6102917" lon="8.9319967"><ele>220.33333333333331</ele><time>2026-04-11T06:03:41.949Z</time></trkpt><trkpt lat="45.6102467" lon="8.931775"><ele>218.66666666666666</ele><time>2026-04-11T06:03:42.949Z</time></trkpt><trkpt lat="45.6102117" lon="8.93155"><ele>217.0</ele><time>2026-04-11T06:03:43.949Z</time></trkpt><trkpt lat="45.6101833" lon="8.931335"><ele>216.33333333333331</ele><time>2026-04-11T06:03:44.949Z</time></trkpt><trkpt lat="45.6101667" lon="8.9311117"><ele>215.66666666666669</ele><time>2026-04-11T06:03:45.949Z</time></trkpt><trkpt lat="45.61014" lon="8.9308867"><ele>215.0</ele><time>2026-04-11T06:03:46.949Z</time></trkpt><trkpt lat="45.6101033" lon="8.9306633"><ele>214.0</ele><time>2026-04-11T06:03:47.949Z</time></trkpt><trkpt lat="45.6100783" lon="8.9304283"><ele>213.0</ele><time>2026-04-11T06:03:48.949Z</time></trkpt><trkpt lat="45.6100467" lon="8.93019"><ele>212.0</ele><time>2026-04-11T06:03:49.949Z</time></trkpt><trkpt lat="45.6100067" lon="8.9299467"><ele>211.0</ele><time>2026-04-11T06:03:50.946Z</time></trkpt><trkpt lat="45.6099733" lon="8.92971"><ele>210.0</ele><time>2026-04-11T06:03:51.949Z</time></trkpt><trkpt lat="45.6099333" lon="8.9294733"><ele>209.0</ele><time>2026-04-11T06:03:52.948Z</time></trkpt><trkpt lat="45.609905" lon="8.9292283"><ele>208.66666666666669</ele><time>2026-04-11T06:03:53.949Z</time></trkpt><trkpt lat="45.6098783" lon="8.928985"><ele>208.33333333333331</ele><time>2026-04-11T06:03:54.949Z</time></trkpt><trkpt lat="45.6098517" lon="8.92874"><ele>208.0</ele><time>2026-04-11T06:03:55.949Z</time></trkpt><trkpt lat="45.6098183" lon="8.9284883"><ele>208.33333333333331</ele><time>2026-04-11T06:03:56.949Z</time></trkpt><trkpt lat="45.6097917" lon="8.9282267"><ele>208.66666666666669</ele><time>2026-04-11T06:03:57.949Z</time></trkpt><trkpt lat="45.60976" lon="8.927965"><ele>209.0</ele><time>2026-04-11T06:03:58.949Z</time></trkpt><trkpt lat="45.60973" lon="8.9277133"><ele>209.0</ele><time>2026-04-11T06:03:59.948Z</time></trkpt><trkpt lat="45.6097033" lon="8.92748"><ele>209.0</ele><time>2026-04-11T06:04:00.949Z</time></trkpt><trkpt lat="45.6096783" lon="8.927255"><ele>209.0</ele><time>2026-04-11T06:04:01.949Z</time></trkpt><trkpt lat="45.609655" lon="8.927045"><ele>209.0</ele><time>2026-04-11T06:04:02.949Z</time></trkpt><trkpt lat="45.6096467" lon="8.92685"><ele>209.0</ele><time>2026-04-11T06:04:03.949Z</time></trkpt><trkpt lat="45.60963" lon="8.9266583"><ele>209.0</ele><time>2026-04-11T06:04:04.949Z</time></trkpt><trkpt lat="45.6096217" lon="8.9264783"><ele>209.0</ele><time>2026-04-11T06:04:05.949Z</time></trkpt><trkpt lat="45.6096183" lon="8.9263033"><ele>208.79999999999998</ele><time>2026-04-11T06:04:06.949Z</time></trkpt><trkpt lat="45.6096167" lon="8.92615"><ele>208.6</ele><time>2026-04-11T06:04:07.949Z</time></trkpt><trkpt lat="45.6096167" lon="8.9260217"><ele>208.4</ele><time>2026-04-11T06:04:08.949Z</time></trkpt><trkpt lat="45.6095983" lon="8.92591"><ele>208.2</ele><time>2026-04-11T06:04:09.948Z</time></trkpt><trkpt lat="45.6095133" lon="8.9257883"><ele>208.0</ele><time>2026-04-11T06:04:11.949Z</time></trkpt><trkpt lat="45.6093883" lon="8.9258317"><ele>208.0</ele><time>2026-04-11T06:04:13.949Z</time></trkpt><trkpt lat="45.6093317" lon="8.9259267"><ele>208.0</ele><time>2026-04-11T06:04:14.949Z</time></trkpt><trkpt lat="45.609295" lon="8.92605"><ele>208.0</ele><time>2026-04-11T06:04:15.949Z</time></trkpt><trkpt lat="45.609305" lon="8.9261783"><ele>208.0</ele><time>2026-04-11T06:04:16.949Z</time></trkpt><trkpt lat="45.6093633" lon="8.92631"><ele>208.0</ele><time>2026-04-11T06:04:17.949Z</time></trkpt><trkpt lat="45.6094417" lon="8.9264433"><ele>208.0</ele><time>2026-04-11T06:04:18.949Z</time></trkpt><trkpt lat="45.6095067" lon="8.9265817"><ele>208.0</ele><time>2026-04-11T06:04:19.949Z</time></trkpt><trkpt lat="45.6095517" lon="8.9267367"><ele>208.0</ele><time>2026-04-11T06:04:20.949Z</time></trkpt><trkpt lat="45.6095883" lon="8.92692"><ele>208.0</ele><time>2026-04-11T06:04:21.949Z</time></trkpt><trkpt lat="45.6096117" lon="8.92711"><ele>208.25</ele><time>2026-04-11T06:04:22.949Z</time></trkpt><trkpt lat="45.60963" lon="8.9273133"><ele>208.5</ele><time>2026-04-11T06:04:23.949Z</time></trkpt><trkpt lat="45.6096517" lon="8.9275267"><ele>208.75</ele><time>2026-04-11T06:04:24.949Z</time></trkpt><trkpt lat="45.6096733" lon="8.9277433"><ele>209.0</ele><time>2026-04-11T06:04:25.949Z</time></trkpt><trkpt lat="45.6096883" lon="8.92795"><ele>209.0</ele><time>2026-04-11T06:04:26.949Z</time></trkpt><trkpt lat="45.609705" lon="8.9281417"><ele>209.0</ele><time>2026-04-11T06:04:27.949Z</time></trkpt><trkpt lat="45.609725" lon="8.9283167"><ele>209.0</ele><time>2026-04-11T06:04:28.949Z</time></trkpt><trkpt lat="45.6097367" lon="8.92848"><ele>209.0</ele><time>2026-04-11T06:04:29.949Z</time></trkpt><trkpt lat="45.6097333" lon="8.92863"><ele>209.0</ele><time>2026-04-11T06:04:30.949Z</time></trkpt><trkpt lat="45.6097133" lon="8.928785"><ele>209.0</ele><time>2026-04-11T06:04:31.949Z</time></trkpt><trkpt lat="45.60968" lon="8.9289517"><ele>209.0</ele><time>2026-04-11T06:04:32.949Z</time></trkpt><trkpt lat="45.6096317" lon="8.9291317"><ele>209.0</ele><time>2026-04-11T06:04:33.949Z</time></trkpt><trkpt lat="45.6095617" lon="8.9293183"><ele>209.0</ele><time>2026-04-11T06:04:34.949Z</time></trkpt><trkpt lat="45.609485" lon="8.9295117"><ele>209.0</ele><time>2026-04-11T06:04:35.949Z</time></trkpt><trkpt lat="45.60939" lon="8.929715"><ele>209.0</ele><time>2026-04-11T06:04:36.949Z</time></trkpt><trkpt lat="45.6093017" lon="8.9299233"><ele>209.33333333333334</ele><time>2026-04-11T06:04:37.949Z</time></trkpt><trkpt lat="45.6092017" lon="8.9301467"><ele>209.66666666666669</ele><time>2026-04-11T06:04:38.949Z</time></trkpt><trkpt lat="45.6091" lon="8.930355"><ele>210.0</ele><time>2026-04-11T06:04:39.949Z</time></trkpt><trkpt lat="45.609015" lon="8.9305733"><ele>210.0</ele><time>2026-04-11T06:04:40.949Z</time></trkpt><trkpt lat="45.608925" lon="8.9307983"><ele>210.0</ele><time>2026-04-11T06:04:41.949Z</time></trkpt><trkpt lat="45.6088283" lon="8.9310267"><ele>210.0</ele><time>2026-04-11T06:04:42.949Z</time></trkpt><trkpt lat="45.6087367" lon="8.9312617"><ele>210.0</ele><time>2026-04-11T06:04:43.949Z</time></trkpt><trkpt lat="45.60864" lon="8.93151"><ele>210.0</ele><time>2026-04-11T06:04:44.949Z</time></trkpt><trkpt lat="45.6085583" lon="8.9317467"><ele>210.0</ele><time>2026-04-11T06:04:45.949Z</time></trkpt><trkpt lat="45.6084733" lon="8.93199"><ele>210.0</ele><time>2026-04-11T06:04:46.949Z</time></trkpt><trkpt lat="45.6083667" lon="8.932255"><ele>210.0</ele><time>2026-04-11T06:04:47.949Z</time></trkpt><trkpt lat="45.6082517" lon="8.93253"><ele>210.0</ele><time>2026-04-11T06:04:48.949Z</time></trkpt><trkpt lat="45.60815" lon="8.9328183"><ele>212.0</ele><time>2026-04-11T06:04:49.949Z</time></trkpt><trkpt lat="45.6080317" lon="8.9331017"><ele>214.0</ele><time>2026-04-11T06:04:50.949Z</time></trkpt><trkpt lat="45.607915" lon="8.933395"><ele>215.0</ele><time>2026-04-11T06:04:51.949Z</time></trkpt><trkpt lat="45.607795" lon="8.93369"><ele>216.0</ele><time>2026-04-11T06:04:52.949Z</time></trkpt><trkpt lat="45.6076683" lon="8.9339867"><ele>215.5</ele><time>2026-04-11T06:04:53.949Z</time></trkpt><trkpt lat="45.60754" lon="8.9342883"><ele>215.0</ele><time>2026-04-11T06:04:54.949Z</time></trkpt><trkpt lat="45.6074133" lon="8.93459"><ele>215.0</ele><time>2026-04-11T06:04:55.948Z</time></trkpt><trkpt lat="45.607285" lon="8.934895"><ele>215.0</ele><time>2026-04-11T06:04:56.949Z</time></trkpt><trkpt lat="45.6071517" lon="8.9352117"><ele>216.0</ele><time>2026-04-11T06:04:57.949Z</time></trkpt><trkpt lat="45.6070367" lon="8.9355217"><ele>217.0</ele><time>2026-04-11T06:04:58.949Z</time></trkpt><trkpt lat="45.6068917" lon="8.9358467"><ele>219.0</ele><time>2026-04-11T06:04:59.949Z</time></trkpt><trkpt lat="45.606765" lon="8.9361683"><ele>221.0</ele><time>2026-04-11T06:05:00.949Z</time></trkpt><trkpt lat="45.6066233" lon="8.9364867"><ele>218.0</ele><time>2026-04-11T06:05:01.949Z</time></trkpt><trkpt lat="45.6064867" lon="8.9368167"><ele>215.0</ele><time>2026-04-11T06:05:02.948Z</time></trkpt><trkpt lat="45.606345" lon="8.93714"><ele>215.0</ele><time>2026-04-11T06:05:03.949Z</time></trkpt><trkpt lat="45.6061983" lon="8.9374633"><ele>215.0</ele><time>2026-04-11T06:05:04.949Z</time></trkpt><trkpt lat="45.6060633" lon="8.9377983"><ele>215.5</ele><time>2026-04-11T06:05:05.949Z</time></trkpt><trkpt lat="45.60593" lon="8.938135"><ele>216.0</ele><time>2026-04-11T06:05:06.949Z</time></trkpt><trkpt lat="45.6057683" lon="8.9384433"><ele>216.0</ele><time>2026-04-11T06:05:07.949Z</time></trkpt><trkpt lat="45.6056717" lon="8.9387733"><ele>216.0</ele><time>2026-04-11T06:05:08.949Z</time></trkpt><trkpt lat="45.6055383" lon="8.9391183"><ele>216.0</ele><time>2026-04-11T06:05:09.949Z</time></trkpt><trkpt lat="45.605395" lon="8.9394717"><ele>216.0</ele><time>2026-04-11T06:05:10.948Z</time></trkpt><trkpt lat="45.6052417" lon="8.9397817"><ele>216.0</ele><time>2026-04-11T06:05:11.949Z</time></trkpt><trkpt lat="45.6051" lon="8.9401033"><ele>216.0</ele><time>2026-04-11T06:05:12.949Z</time></trkpt><trkpt lat="45.6049633" lon="8.94044"><ele>216.0</ele><time>2026-04-11T06:05:13.949Z</time></trkpt><trkpt lat="45.6048267" lon="8.940755"><ele>216.0</ele><time>2026-04-11T06:05:14.949Z</time></trkpt><trkpt lat="45.6046933" lon="8.941085"><ele>215.0</ele><time>2026-04-11T06:05:15.949Z</time></trkpt><trkpt lat="45.6045583" lon="8.9414317"><ele>214.0</ele><time>2026-04-11T06:05:16.948Z</time></trkpt><trkpt lat="45.60441" lon="8.9417583"><ele>214.0</ele><time>2026-04-11T06:05:17.949Z</time></trkpt><trkpt lat="45.6042683" lon="8.9421117"><ele>214.0</ele><time>2026-04-11T06:05:18.949Z</time></trkpt><trkpt lat="45.6041067" lon="8.94242"><ele>214.5</ele><time>2026-04-11T06:05:19.949Z</time></trkpt><trkpt lat="45.60397" lon="8.942785"><ele>215.0</ele><time>2026-04-11T06:05:20.949Z</time></trkpt><trkpt lat="45.60382" lon="8.9431283"><ele>215.0</ele><time>2026-04-11T06:05:21.949Z</time></trkpt><trkpt lat="45.603685" lon="8.9434517"><ele>215.0</ele><time>2026-04-11T06:05:22.949Z</time></trkpt><trkpt lat="45.6035533" lon="8.94377"><ele>215.0</ele><time>2026-04-11T06:05:23.949Z</time></trkpt><trkpt lat="45.60342" lon="8.9440833"><ele>215.0</ele><time>2026-04-11T06:05:24.949Z</time></trkpt><trkpt lat="45.6033133" lon="8.9444217"><ele>215.0</ele><time>2026-04-11T06:05:25.949Z</time></trkpt><trkpt lat="45.6031617" lon="8.9447333"><ele>215.0</ele><time>2026-04-11T06:05:26.949Z</time></trkpt><trkpt lat="45.6030183" lon="8.9450467"><ele>215.0</ele><time>2026-04-11T06:05:27.949Z</time></trkpt><trkpt lat="45.6028883" lon="8.9453833"><ele>215.0</ele><time>2026-04-11T06:05:28.949Z</time></trkpt><trkpt lat="45.6027483" lon="8.94572"><ele>214.5</ele><time>2026-04-11T06:05:29.949Z</time></trkpt><trkpt lat="45.6026133" lon="8.9460633"><ele>214.0</ele><time>2026-04-11T06:05:30.949Z</time></trkpt><trkpt lat="45.602475" lon="8.9464217"><ele>214.0</ele><time>2026-04-11T06:05:31.949Z</time></trkpt><trkpt lat="45.6023367" lon="8.94675"><ele>214.0</ele><time>2026-04-11T06:05:32.949Z</time></trkpt><trkpt lat="45.6021817" lon="8.9470533"><ele>214.0</ele><time>2026-04-11T06:05:33.949Z</time></trkpt><trkpt lat="45.6020283" lon="8.94741"><ele>214.0</ele><time>2026-04-11T06:05:34.949Z</time></trkpt><trkpt lat="45.6018933" lon="8.94775"><ele>211.5</ele><time>2026-04-11T06:05:35.949Z</time></trkpt><trkpt lat="45.6017567" lon="8.9480933"><ele>209.0</ele><time>2026-04-11T06:05:36.949Z</time></trkpt><trkpt lat="45.6015983" lon="8.9484383"><ele>209.0</ele><time>2026-04-11T06:05:37.948Z</time></trkpt><trkpt lat="45.6014633" lon="8.9487967"><ele>209.0</ele><time>2026-04-11T06:05:38.949Z</time></trkpt><trkpt lat="45.601325" lon="8.949145"><ele>209.5</ele><time>2026-04-11T06:05:39.948Z</time></trkpt><trkpt lat="45.6011933" lon="8.9494917"><ele>210.0</ele><time>2026-04-11T06:05:40.948Z</time></trkpt><trkpt lat="45.6010367" lon="8.9498533"><ele>210.0</ele><time>2026-04-11T06:05:41.949Z</time></trkpt><trkpt lat="45.6009067" lon="8.9502033"><ele>210.0</ele><time>2026-04-11T06:05:42.949Z</time></trkpt><trkpt lat="45.6007667" lon="8.9505133"><ele>210.0</ele><time>2026-04-11T06:05:43.949Z</time></trkpt><trkpt lat="45.6006167" lon="8.9508633"><ele>210.0</ele><time>2026-04-11T06:05:44.949Z</time></trkpt><trkpt lat="45.60048" lon="8.951225"><ele>210.0</ele><time>2026-04-11T06:05:45.949Z</time></trkpt><trkpt lat="45.6003333" lon="8.9515717"><ele>210.0</ele><time>2026-04-11T06:05:46.949Z</time></trkpt><trkpt lat="45.60018" lon="8.9519183"><ele>210.0</ele><time>2026-04-11T06:05:47.949Z</time></trkpt><trkpt lat="45.6000367" lon="8.9522567"><ele>210.0</ele><time>2026-04-11T06:05:48.949Z</time></trkpt><trkpt lat="45.5998883" lon="8.9525867"><ele>209.0</ele><time>2026-04-11T06:05:49.949Z</time></trkpt><trkpt lat="45.5997433" lon="8.9529267"><ele>208.0</ele><time>2026-04-11T06:05:50.949Z</time></trkpt><trkpt lat="45.5996017" lon="8.9532617"><ele>208.0</ele><time>2026-04-11T06:05:51.949Z</time></trkpt><trkpt lat="45.5994567" lon="8.9536"><ele>208.0</ele><time>2026-04-11T06:05:52.949Z</time></trkpt><trkpt lat="45.5993183" lon="8.953945"><ele>208.5</ele><time>2026-04-11T06:05:53.949Z</time></trkpt><trkpt lat="45.5991783" lon="8.9542817"><ele>209.0</ele><time>2026-04-11T06:05:54.949Z</time></trkpt><trkpt lat="45.5990333" lon="8.9546233"><ele>209.0</ele><time>2026-04-11T06:05:55.949Z</time></trkpt><trkpt lat="45.5988917" lon="8.954965"><ele>209.0</ele><time>2026-04-11T06:05:56.948Z</time></trkpt><trkpt lat="45.598745" lon="8.9553083"><ele>208.5</ele><time>2026-04-11T06:05:57.949Z</time></trkpt><trkpt lat="45.5986083" lon="8.95565"><ele>208.0</ele><time>2026-04-11T06:05:58.948Z</time></trkpt><trkpt lat="45.59846" lon="8.9559817"><ele>207.5</ele><time>2026-04-11T06:05:59.949Z</time></trkpt><trkpt lat="45.5983133" lon="8.9563267"><ele>207.0</ele><time>2026-04-11T06:06:00.949Z</time></trkpt><trkpt lat="45.59816" lon="8.9566583"><ele>207.5</ele><time>2026-04-11T06:06:01.948Z</time></trkpt><trkpt lat="45.598015" lon="8.9570083"><ele>208.0</ele><time>2026-04-11T06:06:02.949Z</time></trkpt><trkpt lat="45.5978733" lon="8.9573583"><ele>207.5</ele><time>2026-04-11T06:06:03.949Z</time></trkpt><trkpt lat="45.59773" lon="8.9577033"><ele>207.0</ele><time>2026-04-11T06:06:04.949Z</time></trkpt><trkpt lat="45.5975917" lon="8.9580483"><ele>207.0</ele><time>2026-04-11T06:06:05.949Z</time></trkpt><trkpt lat="45.5974517" lon="8.9584"><ele>207.0</ele><time>2026-04-11T06:06:06.949Z</time></trkpt><trkpt lat="45.5973183" lon="8.95875"><ele>207.0</ele><time>2026-04-11T06:06:07.949Z</time></trkpt><trkpt lat="45.5971633" lon="8.959095"><ele>207.0</ele><time>2026-04-11T06:06:08.949Z</time></trkpt><trkpt lat="45.5970133" lon="8.959435"><ele>207.0</ele><time>2026-04-11T06:06:09.949Z</time></trkpt><trkpt lat="45.59687" lon="8.9597817"><ele>207.0</ele><time>2026-04-11T06:06:10.949Z</time></trkpt><trkpt lat="45.5967233" lon="8.9601283"><ele>207.0</ele><time>2026-04-11T06:06:11.949Z</time></trkpt><trkpt lat="45.59657" lon="8.9604817"><ele>207.0</ele><time>2026-04-11T06:06:12.949Z</time></trkpt><trkpt lat="45.5964283" lon="8.9608283"><ele>207.0</ele><time>2026-04-11T06:06:13.949Z</time></trkpt><trkpt lat="45.5963017" lon="8.9611683"><ele>207.0</ele><time>2026-04-11T06:06:14.949Z</time></trkpt><trkpt lat="45.5961583" lon="8.9615067"><ele>206.0</ele><time>2026-04-11T06:06:15.949Z</time></trkpt><trkpt lat="45.5960267" lon="8.9618783"><ele>205.0</ele><time>2026-04-11T06:06:16.949Z</time></trkpt><trkpt lat="45.5959033" lon="8.9621833"><ele>205.5</ele><time>2026-04-11T06:06:17.949Z</time></trkpt><trkpt lat="45.5957317" lon="8.96256"><ele>206.0</ele><time>2026-04-11T06:06:18.949Z</time></trkpt><trkpt lat="45.5955783" lon="8.9629133"><ele>206.0</ele><time>2026-04-11T06:06:19.948Z</time></trkpt><trkpt lat="45.595425" lon="8.9632433"><ele>206.0</ele><time>2026-04-11T06:06:20.949Z</time></trkpt><trkpt lat="45.5952617" lon="8.9635833"><ele>205.5</ele><time>2026-04-11T06:06:21.949Z</time></trkpt><trkpt lat="45.5951067" lon="8.96393"><ele>205.0</ele><time>2026-04-11T06:06:22.949Z</time></trkpt><trkpt lat="45.59496" lon="8.9642783"><ele>205.0</ele><time>2026-04-11T06:06:23.949Z</time></trkpt><trkpt lat="45.5948067" lon="8.964625"><ele>205.0</ele><time>2026-04-11T06:06:24.949Z</time></trkpt><trkpt lat="45.5946633" lon="8.9649783"><ele>205.0</ele><time>2026-04-11T06:06:25.949Z</time></trkpt><trkpt lat="45.5945083" lon="8.9653283"><ele>205.0</ele><time>2026-04-11T06:06:26.948Z</time></trkpt><trkpt lat="45.5943567" lon="8.9656733"><ele>205.0</ele><time>2026-04-11T06:06:27.948Z</time></trkpt><trkpt lat="45.5942017" lon="8.9660217"><ele>205.0</ele><time>2026-04-11T06:06:28.949Z</time></trkpt><trkpt lat="45.5940633" lon="8.9663733"><ele>204.5</ele><time>2026-04-11T06:06:29.949Z</time></trkpt><trkpt lat="45.59391" lon="8.966715"><ele>204.0</ele><time>2026-04-11T06:06:30.949Z</time></trkpt><trkpt lat="45.5937717" lon="8.9670683"><ele>204.0</ele><time>2026-04-11T06:06:31.949Z</time></trkpt><trkpt lat="45.59362" lon="8.9674067"><ele>204.0</ele><time>2026-04-11T06:06:32.949Z</time></trkpt><trkpt lat="45.59348" lon="8.967745"><ele>204.0</ele><time>2026-04-11T06:06:33.949Z</time></trkpt><trkpt lat="45.593335" lon="8.968085"><ele>204.0</ele><time>2026-04-11T06:06:34.949Z</time></trkpt><trkpt lat="45.593195" lon="8.96844"><ele>203.5</ele><time>2026-04-11T06:06:35.949Z</time></trkpt><trkpt lat="45.5930533" lon="8.9687917"><ele>203.0</ele><time>2026-04-11T06:06:36.949Z</time></trkpt><trkpt lat="45.592895" lon="8.9691583"><ele>201.5</ele><time>2026-04-11T06:06:37.949Z</time></trkpt><trkpt lat="45.5927483" lon="8.9694883"><ele>200.0</ele><time>2026-04-11T06:06:38.948Z</time></trkpt><trkpt lat="45.5925617" lon="8.96981"><ele>201.5</ele><time>2026-04-11T06:06:39.949Z</time></trkpt><trkpt lat="45.5924017" lon="8.9701733"><ele>203.0</ele><time>2026-04-11T06:06:40.948Z</time></trkpt><trkpt lat="45.5923" lon="8.9705067"><ele>203.0</ele><time>2026-04-11T06:06:41.949Z</time></trkpt><trkpt lat="45.59216" lon="8.970855"><ele>203.0</ele><time>2026-04-11T06:06:42.948Z</time></trkpt><trkpt lat="45.5920033" lon="8.971205"><ele>200.5</ele><time>2026-04-11T06:06:43.949Z</time></trkpt><trkpt lat="45.5918567" lon="8.9715633"><ele>198.0</ele><time>2026-04-11T06:06:44.949Z</time></trkpt><trkpt lat="45.5917133" lon="8.971925"><ele>198.0</ele><time>2026-04-11T06:06:45.949Z</time></trkpt><trkpt lat="45.59157" lon="8.972275"><ele>198.0</ele><time>2026-04-11T06:06:46.949Z</time></trkpt><trkpt lat="45.5914233" lon="8.9726217"><ele>197.5</ele><time>2026-04-11T06:06:47.949Z</time></trkpt><trkpt lat="45.5912833" lon="8.972955"><ele>197.0</ele><time>2026-04-11T06:06:48.949Z</time></trkpt><trkpt lat="45.59114" lon="8.973305"><ele>200.0</ele><time>2026-04-11T06:06:49.948Z</time></trkpt><trkpt lat="45.590995" lon="8.97366"><ele>203.0</ele><time>2026-04-11T06:06:50.947Z</time></trkpt><trkpt lat="45.5908467" lon="8.9740033"><ele>200.0</ele><time>2026-04-11T06:06:51.948Z</time></trkpt><trkpt lat="45.590705" lon="8.9743433"><ele>197.0</ele><time>2026-04-11T06:06:52.948Z</time></trkpt><trkpt lat="45.5905633" lon="8.9746867"><ele>197.0</ele><time>2026-04-11T06:06:53.948Z</time></trkpt><trkpt lat="45.5904167" lon="8.97502"><ele>197.0</ele><time>2026-04-11T06:06:54.948Z</time></trkpt><trkpt lat="45.590275" lon="8.9753533"><ele>197.0</ele><time>2026-04-11T06:06:55.947Z</time></trkpt><trkpt lat="45.5901483" lon="8.97569"><ele>197.0</ele><time>2026-04-11T06:06:56.948Z</time></trkpt><trkpt lat="45.5900133" lon="8.97602"><ele>197.0</ele><time>2026-04-11T06:06:57.948Z</time></trkpt><trkpt lat="45.5898767" lon="8.976345"><ele>197.0</ele><time>2026-04-11T06:06:58.948Z</time></trkpt><trkpt lat="45.5897383" lon="8.9766517"><ele>198.5</ele><time>2026-04-11T06:06:59.948Z</time></trkpt><trkpt lat="45.5896217" lon="8.9769967"><ele>200.0</ele><time>2026-04-11T06:07:00.948Z</time></trkpt><trkpt lat="45.5894633" lon="8.977355"><ele>199.0</ele><time>2026-04-11T06:07:01.948Z</time></trkpt><trkpt lat="45.589335" lon="8.9776883"><ele>198.0</ele><time>2026-04-11T06:07:02.948Z</time></trkpt><trkpt lat="45.5892083" lon="8.9780333"><ele>196.5</ele><time>2026-04-11T06:07:03.948Z</time></trkpt><trkpt lat="45.5890633" lon="8.9783717"><ele>195.0</ele><time>2026-04-11T06:07:04.948Z</time></trkpt><trkpt lat="45.588915" lon="8.9787017"><ele>195.0</ele><time>2026-04-11T06:07:05.948Z</time></trkpt><trkpt lat="45.5887683" lon="8.97904"><ele>195.0</ele><time>2026-04-11T06:07:06.947Z</time></trkpt><trkpt lat="45.5886317" lon="8.9793817"><ele>195.5</ele><time>2026-04-11T06:07:07.947Z</time></trkpt><trkpt lat="45.5884817" lon="8.9797183"><ele>196.0</ele><time>2026-04-11T06:07:08.948Z</time></trkpt><trkpt lat="45.5883067" lon="8.9800683"><ele>196.0</ele><time>2026-04-11T06:07:09.948Z</time></trkpt><trkpt lat="45.5881667" lon="8.9804167"><ele>196.0</ele><time>2026-04-11T06:07:10.948Z</time></trkpt><trkpt lat="45.588025" lon="8.9807667"><ele>195.0</ele><time>2026-04-11T06:07:11.948Z</time></trkpt><trkpt lat="45.5878833" lon="8.9811167"><ele>194.0</ele><time>2026-04-11T06:07:12.948Z</time></trkpt><trkpt lat="45.5877433" lon="8.9814683"><ele>193.0</ele><time>2026-04-11T06:07:13.948Z</time></trkpt><trkpt lat="45.5876033" lon="8.9818117"><ele>192.0</ele><time>2026-04-11T06:07:14.948Z</time></trkpt><trkpt lat="45.5874567" lon="8.9821567"><ele>192.0</ele><time>2026-04-11T06:07:15.948Z</time></trkpt><trkpt lat="45.5873" lon="8.9825067"><ele>192.0</ele><time>2026-04-11T06:07:16.947Z</time></trkpt><trkpt lat="45.587155" lon="8.9828633"><ele>193.0</ele><time>2026-04-11T06:07:17.948Z</time></trkpt><trkpt lat="45.58701" lon="8.983215"><ele>194.0</ele><time>2026-04-11T06:07:18.948Z</time></trkpt><trkpt lat="45.5868633" lon="8.983565"><ele>194.5</ele><time>2026-04-11T06:07:19.948Z</time></trkpt><trkpt lat="45.58672" lon="8.9839217"><ele>195.0</ele><time>2026-04-11T06:07:20.948Z</time></trkpt><trkpt lat="45.5865733" lon="8.98428"><ele>195.0</ele><time>2026-04-11T06:07:21.948Z</time></trkpt><trkpt lat="45.58643" lon="8.9846317"><ele>195.0</ele><time>2026-04-11T06:07:22.948Z</time></trkpt><trkpt lat="45.586285" lon="8.9849817"><ele>194.5</ele><time>2026-04-11T06:07:23.948Z</time></trkpt><trkpt lat="45.586135" lon="8.985325"><ele>194.0</ele><time>2026-04-11T06:07:24.948Z</time></trkpt><trkpt lat="45.5859683" lon="8.9856783"><ele>194.0</ele><time>2026-04-11T06:07:25.948Z</time></trkpt><trkpt lat="45.585835" lon="8.98601"><ele>194.0</ele><time>2026-04-11T06:07:26.948Z</time></trkpt><trkpt lat="45.5856733" lon="8.98637"><ele>192.5</ele><time>2026-04-11T06:07:27.948Z</time></trkpt><trkpt lat="45.5855217" lon="8.9867283"><ele>191.0</ele><time>2026-04-11T06:07:28.948Z</time></trkpt><trkpt lat="45.5853783" lon="8.98709"><ele>191.5</ele><time>2026-04-11T06:07:29.948Z</time></trkpt><trkpt lat="45.5852333" lon="8.987445"><ele>192.0</ele><time>2026-04-11T06:07:30.948Z</time></trkpt><trkpt lat="45.5850917" lon="8.9878017"><ele>192.5</ele><time>2026-04-11T06:07:31.948Z</time></trkpt><trkpt lat="45.5849483" lon="8.98816"><ele>193.0</ele><time>2026-04-11T06:07:32.948Z</time></trkpt><trkpt lat="45.584805" lon="8.9885167"><ele>193.5</ele><time>2026-04-11T06:07:33.948Z</time></trkpt><trkpt lat="45.5846633" lon="8.9888783"><ele>194.0</ele><time>2026-04-11T06:07:34.948Z</time></trkpt><trkpt lat="45.58452" lon="8.989245"><ele>194.0</ele><time>2026-04-11T06:07:35.948Z</time></trkpt><trkpt lat="45.584365" lon="8.9896133"><ele>194.0</ele><time>2026-04-11T06:07:36.948Z</time></trkpt><trkpt lat="45.584215" lon="8.9899783"><ele>194.0</ele><time>2026-04-11T06:07:37.948Z</time></trkpt><trkpt lat="45.58406" lon="8.9903467"><ele>194.0</ele><time>2026-04-11T06:07:38.947Z</time></trkpt><trkpt lat="45.58391" lon="8.9907133"><ele>193.0</ele><time>2026-04-11T06:07:39.948Z</time></trkpt><trkpt lat="45.5837567" lon="8.9910817"><ele>192.0</ele><time>2026-04-11T06:07:40.947Z</time></trkpt><trkpt lat="45.5836017" lon="8.99145"><ele>192.0</ele><time>2026-04-11T06:07:41.948Z</time></trkpt><trkpt lat="45.583455" lon="8.9918117"><ele>192.0</ele><time>2026-04-11T06:07:42.948Z</time></trkpt><trkpt lat="45.5833017" lon="8.9921883"><ele>191.5</ele><time>2026-04-11T06:07:43.948Z</time></trkpt><trkpt lat="45.583145" lon="8.992555"><ele>191.0</ele><time>2026-04-11T06:07:44.948Z</time></trkpt><trkpt lat="45.5829767" lon="8.992925"><ele>190.5</ele><time>2026-04-11T06:07:45.948Z</time></trkpt><trkpt lat="45.5828133" lon="8.9932917"><ele>190.0</ele><time>2026-04-11T06:07:46.948Z</time></trkpt><trkpt lat="45.5826633" lon="8.9936583"><ele>188.5</ele><time>2026-04-11T06:07:47.948Z</time></trkpt><trkpt lat="45.5824983" lon="8.9940433"><ele>187.0</ele><time>2026-04-11T06:07:48.948Z</time></trkpt><trkpt lat="45.5823383" lon="8.994425"><ele>187.0</ele><time>2026-04-11T06:07:49.948Z</time></trkpt><trkpt lat="45.5821767" lon="8.994805"><ele>187.0</ele><time>2026-04-11T06:07:50.948Z</time></trkpt><trkpt lat="45.5820167" lon="8.99518"><ele>187.0</ele><time>2026-04-11T06:07:51.948Z</time></trkpt><trkpt lat="45.5818483" lon="8.995545"><ele>187.0</ele><time>2026-04-11T06:07:52.948Z</time></trkpt><trkpt lat="45.5816883" lon="8.99591"><ele>187.0</ele><time>2026-04-11T06:07:53.948Z</time></trkpt><trkpt lat="45.58153" lon="8.9962833"><ele>187.0</ele><time>2026-04-11T06:07:54.948Z</time></trkpt><trkpt lat="45.5813733" lon="8.9966583"><ele>188.5</ele><time>2026-04-11T06:07:55.947Z</time></trkpt><trkpt lat="45.5812067" lon="8.9970383"><ele>190.0</ele><time>2026-04-11T06:07:56.948Z</time></trkpt><trkpt lat="45.5810433" lon="8.99742"><ele>191.0</ele><time>2026-04-11T06:07:57.947Z</time></trkpt><trkpt lat="45.580885" lon="8.9977967"><ele>192.0</ele><time>2026-04-11T06:07:58.948Z</time></trkpt><trkpt lat="45.5807283" lon="8.9981833"><ele>193.0</ele><time>2026-04-11T06:07:59.948Z</time></trkpt><trkpt lat="45.58057" lon="8.9985633"><ele>194.0</ele><time>2026-04-11T06:08:00.948Z</time></trkpt><trkpt lat="45.5804067" lon="8.9989333"><ele>192.0</ele><time>2026-04-11T06:08:01.948Z</time></trkpt><trkpt lat="45.58025" lon="8.9993067"><ele>190.0</ele><time>2026-04-11T06:08:02.948Z</time></trkpt><trkpt lat="45.5800883" lon="8.9996783"><ele>190.0</ele><time>2026-04-11T06:08:03.947Z</time></trkpt><trkpt lat="45.5799233" lon="9.0000583"><ele>190.0</ele><time>2026-04-11T06:08:04.947Z</time></trkpt><trkpt lat="45.5797683" lon="9.0004333"><ele>190.0</ele><time>2026-04-11T06:08:05.948Z</time></trkpt><trkpt lat="45.579605" lon="9.0008"><ele>190.0</ele><time>2026-04-11T06:08:06.948Z</time></trkpt><trkpt lat="45.57944" lon="9.0011667"><ele>189.5</ele><time>2026-04-11T06:08:07.948Z</time></trkpt><trkpt lat="45.57928" lon="9.0015333"><ele>189.0</ele><time>2026-04-11T06:08:08.948Z</time></trkpt><trkpt lat="45.5791083" lon="9.0019033"><ele>188.0</ele><time>2026-04-11T06:08:09.948Z</time></trkpt><trkpt lat="45.5789283" lon="9.0022717"><ele>187.0</ele><time>2026-04-11T06:08:10.948Z</time></trkpt><trkpt lat="45.5787667" lon="9.0026367"><ele>185.5</ele><time>2026-04-11T06:08:11.948Z</time></trkpt><trkpt lat="45.5785717" lon="9.0030033"><ele>184.0</ele><time>2026-04-11T06:08:12.948Z</time></trkpt><trkpt lat="45.5783967" lon="9.003365"><ele>184.0</ele><time>2026-04-11T06:08:13.948Z</time></trkpt><trkpt lat="45.5782083" lon="9.0037217"><ele>184.0</ele><time>2026-04-11T06:08:14.947Z</time></trkpt><trkpt lat="45.5780217" lon="9.0040767"><ele>184.0</ele><time>2026-04-11T06:08:15.947Z</time></trkpt><trkpt lat="45.57783" lon="9.0044283"><ele>184.0</ele><time>2026-04-11T06:08:16.948Z</time></trkpt><trkpt lat="45.5776433" lon="9.0047867"><ele>183.5</ele><time>2026-04-11T06:08:17.948Z</time></trkpt><trkpt lat="45.5774567" lon="9.0051433"><ele>183.0</ele><time>2026-04-11T06:08:18.948Z</time></trkpt><trkpt lat="45.5772617" lon="9.0055"><ele>183.5</ele><time>2026-04-11T06:08:19.948Z</time></trkpt><trkpt lat="45.5770683" lon="9.0058533"><ele>184.0</ele><time>2026-04-11T06:08:20.948Z</time></trkpt><trkpt lat="45.57687" lon="9.00622"><ele>184.0</ele><time>2026-04-11T06:08:21.948Z</time></trkpt><trkpt lat="45.576675" lon="9.0065883"><ele>184.0</ele><time>2026-04-11T06:08:22.948Z</time></trkpt><trkpt lat="45.5764817" lon="9.0069617"><ele>184.5</ele><time>2026-04-11T06:08:23.948Z</time></trkpt><trkpt lat="45.576285" lon="9.0073267"><ele>185.0</ele><time>2026-04-11T06:08:24.948Z</time></trkpt><trkpt lat="45.5760833" lon="9.0076833"><ele>185.0</ele><time>2026-04-11T06:08:25.948Z</time></trkpt><trkpt lat="45.57588" lon="9.0080483"><ele>185.0</ele><time>2026-04-11T06:08:26.948Z</time></trkpt><trkpt lat="45.5756883" lon="9.0084217"><ele>184.5</ele><time>2026-04-11T06:08:27.948Z</time></trkpt><trkpt lat="45.5755" lon="9.0087967"><ele>184.0</ele><time>2026-04-11T06:08:28.948Z</time></trkpt><trkpt lat="45.5753" lon="9.00915"><ele>183.0</ele><time>2026-04-11T06:08:29.948Z</time></trkpt><trkpt lat="45.5751117" lon="9.0095217"><ele>182.0</ele><time>2026-04-11T06:08:30.948Z</time></trkpt><trkpt lat="45.5749133" lon="9.0098833"><ele>181.5</ele><time>2026-04-11T06:08:31.948Z</time></trkpt><trkpt lat="45.574715" lon="9.01024"><ele>181.0</ele><time>2026-04-11T06:08:32.948Z</time></trkpt><trkpt lat="45.57453" lon="9.010605"><ele>180.5</ele><time>2026-04-11T06:08:33.948Z</time></trkpt><trkpt lat="45.574335" lon="9.0109667"><ele>180.0</ele><time>2026-04-11T06:08:34.948Z</time></trkpt><trkpt lat="45.5741417" lon="9.011325"><ele>179.0</ele><time>2026-04-11T06:08:35.948Z</time></trkpt><trkpt lat="45.5739583" lon="9.0116933"><ele>178.0</ele><time>2026-04-11T06:08:36.948Z</time></trkpt><trkpt lat="45.57376" lon="9.0120583"><ele>178.5</ele><time>2026-04-11T06:08:37.948Z</time></trkpt><trkpt lat="45.573565" lon="9.01242"><ele>179.0</ele><time>2026-04-11T06:08:38.948Z</time></trkpt><trkpt lat="45.5733667" lon="9.0127833"><ele>179.0</ele><time>2026-04-11T06:08:39.947Z</time></trkpt><trkpt lat="45.57317" lon="9.0131517"><ele>179.0</ele><time>2026-04-11T06:08:40.948Z</time></trkpt><trkpt lat="45.5729867" lon="9.0135267"><ele>179.5</ele><time>2026-04-11T06:08:41.948Z</time></trkpt><trkpt lat="45.5727967" lon="9.0138967"><ele>180.0</ele><time>2026-04-11T06:08:42.948Z</time></trkpt><trkpt lat="45.572605" lon="9.0142683"><ele>180.5</ele><time>2026-04-11T06:08:43.948Z</time></trkpt><trkpt lat="45.5724167" lon="9.0146383"><ele>181.0</ele><time>2026-04-11T06:08:44.948Z</time></trkpt><trkpt lat="45.572225" lon="9.0150017"><ele>181.0</ele><time>2026-04-11T06:08:45.948Z</time></trkpt><trkpt lat="45.5720367" lon="9.015365"><ele>181.0</ele><time>2026-04-11T06:08:46.948Z</time></trkpt><trkpt lat="45.57185" lon="9.0157283"><ele>181.5</ele><time>2026-04-11T06:08:47.948Z</time></trkpt><trkpt lat="45.5716483" lon="9.0160917"><ele>182.0</ele><time>2026-04-11T06:08:48.948Z</time></trkpt><trkpt lat="45.5714583" lon="9.0164583"><ele>181.5</ele><time>2026-04-11T06:08:49.948Z</time></trkpt><trkpt lat="45.571255" lon="9.0168267"><ele>181.0</ele><time>2026-04-11T06:08:50.948Z</time></trkpt><trkpt lat="45.571055" lon="9.0171867"><ele>180.5</ele><time>2026-04-11T06:08:51.948Z</time></trkpt><trkpt lat="45.57086" lon="9.0175483"><ele>180.0</ele><time>2026-04-11T06:08:52.947Z</time></trkpt><trkpt lat="45.5706567" lon="9.0178967"><ele>180.0</ele><time>2026-04-11T06:08:53.948Z</time></trkpt><trkpt lat="45.5704567" lon="9.018255"><ele>180.0</ele><time>2026-04-11T06:08:54.948Z</time></trkpt><trkpt lat="45.57025" lon="9.018615"><ele>180.0</ele><time>2026-04-11T06:08:55.948Z</time></trkpt><trkpt lat="45.57005" lon="9.01898"><ele>180.0</ele><time>2026-04-11T06:08:56.948Z</time></trkpt><trkpt lat="45.5698433" lon="9.0193383"><ele>180.0</ele><time>2026-04-11T06:08:57.948Z</time></trkpt><trkpt lat="45.5696417" lon="9.0196933"><ele>180.0</ele><time>2026-04-11T06:08:58.948Z</time></trkpt><trkpt lat="45.56944" lon="9.0200417"><ele>180.0</ele><time>2026-04-11T06:08:59.948Z</time></trkpt><trkpt lat="45.5692367" lon="9.0203983"><ele>180.0</ele><time>2026-04-11T06:09:00.948Z</time></trkpt><trkpt lat="45.56905" lon="9.02074"><ele>180.5</ele><time>2026-04-11T06:09:01.948Z</time></trkpt><trkpt lat="45.5689" lon="9.0211033"><ele>181.0</ele><time>2026-04-11T06:09:02.948Z</time></trkpt><trkpt lat="45.5687133" lon="9.0214467"><ele>179.5</ele><time>2026-04-11T06:09:03.948Z</time></trkpt><trkpt lat="45.5685283" lon="9.0217933"><ele>178.0</ele><time>2026-04-11T06:09:04.948Z</time></trkpt><trkpt lat="45.5683383" lon="9.0221517"><ele>177.5</ele><time>2026-04-11T06:09:05.947Z</time></trkpt><trkpt lat="45.5681417" lon="9.0225083"><ele>177.0</ele><time>2026-04-11T06:09:06.948Z</time></trkpt><trkpt lat="45.5679617" lon="9.0228517"><ele>177.0</ele><time>2026-04-11T06:09:07.948Z</time></trkpt><trkpt lat="45.5677917" lon="9.0231667"><ele>177.0</ele><time>2026-04-11T06:09:08.948Z</time></trkpt><trkpt lat="45.5676167" lon="9.02349"><ele>177.0</ele><time>2026-04-11T06:09:09.948Z</time></trkpt><trkpt lat="45.567455" lon="9.0238133"><ele>177.0</ele><time>2026-04-11T06:09:10.948Z</time></trkpt><trkpt lat="45.5672867" lon="9.024125"><ele>176.5</ele><time>2026-04-11T06:09:11.948Z</time></trkpt><trkpt lat="45.5671067" lon="9.024435"><ele>176.0</ele><time>2026-04-11T06:09:12.948Z</time></trkpt><trkpt lat="45.5669283" lon="9.0248067"><ele>176.0</ele><time>2026-04-11T06:09:13.948Z</time></trkpt><trkpt lat="45.566755" lon="9.0251317"><ele>176.0</ele><time>2026-04-11T06:09:14.948Z</time></trkpt><trkpt lat="45.5665833" lon="9.0254667"><ele>176.0</ele><time>2026-04-11T06:09:15.948Z</time></trkpt><trkpt lat="45.566395" lon="9.0257683"><ele>176.0</ele><time>2026-04-11T06:09:16.948Z</time></trkpt><trkpt lat="45.5662117" lon="9.026145"><ele>175.0</ele><time>2026-04-11T06:09:17.948Z</time></trkpt><trkpt lat="45.56604" lon="9.026495"><ele>174.0</ele><time>2026-04-11T06:09:18.948Z</time></trkpt><trkpt lat="45.565855" lon="9.0268133"><ele>174.0</ele><time>2026-04-11T06:09:19.947Z</time></trkpt><trkpt lat="45.5656833" lon="9.0271333"><ele>174.0</ele><time>2026-04-11T06:09:20.948Z</time></trkpt><trkpt lat="45.5655183" lon="9.0274483"><ele>174.0</ele><time>2026-04-11T06:09:21.948Z</time></trkpt><trkpt lat="45.5653367" lon="9.0277717"><ele>174.0</ele><time>2026-04-11T06:09:22.948Z</time></trkpt><trkpt lat="45.5651633" lon="9.0281017"><ele>174.5</ele><time>2026-04-11T06:09:23.948Z</time></trkpt><trkpt lat="45.5649883" lon="9.028425"><ele>175.0</ele><time>2026-04-11T06:09:24.948Z</time></trkpt><trkpt lat="45.56484" lon="9.028755"><ele>175.0</ele><time>2026-04-11T06:09:25.948Z</time></trkpt><trkpt lat="45.564685" lon="9.0290683"><ele>175.0</ele><time>2026-04-11T06:09:26.948Z</time></trkpt><trkpt lat="45.5645117" lon="9.0293867"><ele>175.0</ele><time>2026-04-11T06:09:27.947Z</time></trkpt><trkpt lat="45.5643267" lon="9.0296983"><ele>175.0</ele><time>2026-04-11T06:09:28.948Z</time></trkpt><trkpt lat="45.56415" lon="9.0300083"><ele>174.0</ele><time>2026-04-11T06:09:29.948Z</time></trkpt><trkpt lat="45.56398" lon="9.0303217"><ele>173.0</ele><time>2026-04-11T06:09:30.947Z</time></trkpt><trkpt lat="45.5638533" lon="9.0306333"><ele>173.5</ele><time>2026-04-11T06:09:31.948Z</time></trkpt><trkpt lat="45.5636917" lon="9.0309433"><ele>174.0</ele><time>2026-04-11T06:09:32.948Z</time></trkpt><trkpt lat="45.56352" lon="9.0312567"><ele>174.0</ele><time>2026-04-11T06:09:33.948Z</time></trkpt><trkpt lat="45.563335" lon="9.0315617"><ele>174.0</ele><time>2026-04-11T06:09:34.948Z</time></trkpt><trkpt lat="45.5631867" lon="9.0318717"><ele>173.5</ele><time>2026-04-11T06:09:35.948Z</time></trkpt><trkpt lat="45.563015" lon="9.0321917"><ele>173.0</ele><time>2026-04-11T06:09:36.948Z</time></trkpt><trkpt lat="45.5628217" lon="9.032535"><ele>172.5</ele><time>2026-04-11T06:09:37.948Z</time></trkpt><trkpt lat="45.5626233" lon="9.032875"><ele>172.0</ele><time>2026-04-11T06:09:38.948Z</time></trkpt><trkpt lat="45.5624617" lon="9.0332033"><ele>171.5</ele><time>2026-04-11T06:09:39.948Z</time></trkpt><trkpt lat="45.5623033" lon="9.0335267"><ele>171.0</ele><time>2026-04-11T06:09:40.948Z</time></trkpt><trkpt lat="45.5621467" lon="9.033835"><ele>171.0</ele><time>2026-04-11T06:09:41.948Z</time></trkpt><trkpt lat="45.5619783" lon="9.0341833"><ele>171.0</ele><time>2026-04-11T06:09:42.948Z</time></trkpt><trkpt lat="45.5618083" lon="9.034535"><ele>171.0</ele><time>2026-04-11T06:09:43.948Z</time></trkpt><trkpt lat="45.561605" lon="9.0349083"><ele>171.0</ele><time>2026-04-11T06:09:44.948Z</time></trkpt><trkpt lat="45.5614317" lon="9.035275"><ele>171.0</ele><time>2026-04-11T06:09:45.948Z</time></trkpt><trkpt lat="45.56125" lon="9.03564"><ele>171.0</ele><time>2026-04-11T06:09:46.948Z</time></trkpt><trkpt lat="45.5610567" lon="9.036"><ele>170.5</ele><time>2026-04-11T06:09:47.948Z</time></trkpt><trkpt lat="45.560855" lon="9.03635"><ele>170.0</ele><time>2026-04-11T06:09:48.948Z</time></trkpt><trkpt lat="45.56065" lon="9.0367133"><ele>170.0</ele><time>2026-04-11T06:09:49.948Z</time></trkpt><trkpt lat="45.5604433" lon="9.0370733"><ele>170.0</ele><time>2026-04-11T06:09:50.948Z</time></trkpt><trkpt lat="45.5602367" lon="9.0374483"><ele>170.0</ele><time>2026-04-11T06:09:51.948Z</time></trkpt><trkpt lat="45.56003" lon="9.0378133"><ele>170.0</ele><time>2026-04-11T06:09:52.948Z</time></trkpt><trkpt lat="45.5598433" lon="9.0381617"><ele>170.0</ele><time>2026-04-11T06:09:53.947Z</time></trkpt><trkpt lat="45.559665" lon="9.0385117"><ele>170.0</ele><time>2026-04-11T06:09:54.948Z</time></trkpt><trkpt lat="45.559475" lon="9.0388717"><ele>169.5</ele><time>2026-04-11T06:09:55.947Z</time></trkpt><trkpt lat="45.5592883" lon="9.0392417"><ele>169.0</ele><time>2026-04-11T06:09:56.948Z</time></trkpt><trkpt lat="45.5591" lon="9.039595"><ele>169.0</ele><time>2026-04-11T06:09:57.948Z</time></trkpt><trkpt lat="45.5589" lon="9.0399483"><ele>169.0</ele><time>2026-04-11T06:09:58.947Z</time></trkpt><trkpt lat="45.55871" lon="9.040295"><ele>169.0</ele><time>2026-04-11T06:09:59.936Z</time></trkpt><trkpt lat="45.55853" lon="9.0406533"><ele>169.0</ele><time>2026-04-11T06:10:00.948Z</time></trkpt><trkpt lat="45.5583467" lon="9.0410083"><ele>168.0</ele><time>2026-04-11T06:10:01.948Z</time></trkpt><trkpt lat="45.55816" lon="9.0413567"><ele>167.0</ele><time>2026-04-11T06:10:02.948Z</time></trkpt><trkpt lat="45.5579833" lon="9.0416617"><ele>166.5</ele><time>2026-04-11T06:10:03.948Z</time></trkpt><trkpt lat="45.5578" lon="9.0420117"><ele>166.0</ele><time>2026-04-11T06:10:04.948Z</time></trkpt><trkpt lat="45.5576083" lon="9.0423567"><ele>167.0</ele><time>2026-04-11T06:10:05.947Z</time></trkpt><trkpt lat="45.557415" lon="9.0426983"><ele>168.0</ele><time>2026-04-11T06:10:06.948Z</time></trkpt><trkpt lat="45.557225" lon="9.0430383"><ele>167.0</ele><time>2026-04-11T06:10:07.948Z</time></trkpt><trkpt lat="45.5570333" lon="9.0434117"><ele>166.0</ele><time>2026-04-11T06:10:08.948Z</time></trkpt><trkpt lat="45.556825" lon="9.043755"><ele>166.0</ele><time>2026-04-11T06:10:09.948Z</time></trkpt><trkpt lat="45.5566433" lon="9.0440683"><ele>166.0</ele><time>2026-04-11T06:10:10.948Z</time></trkpt><trkpt lat="45.5564533" lon="9.0444117"><ele>166.0</ele><time>2026-04-11T06:10:11.947Z</time></trkpt><trkpt lat="45.55626" lon="9.0447517"><ele>166.0</ele><time>2026-04-11T06:10:12.948Z</time></trkpt><trkpt lat="45.5560767" lon="9.0450967"><ele>165.0</ele><time>2026-04-11T06:10:13.947Z</time></trkpt><trkpt lat="45.5558917" lon="9.045435"><ele>164.0</ele><time>2026-04-11T06:10:14.948Z</time></trkpt><trkpt lat="45.55571" lon="9.0457733"><ele>163.5</ele><time>2026-04-11T06:10:15.948Z</time></trkpt><trkpt lat="45.5555383" lon="9.0460967"><ele>163.0</ele><time>2026-04-11T06:10:16.947Z</time></trkpt><trkpt lat="45.5553633" lon="9.04642"><ele>164.0</ele><time>2026-04-11T06:10:17.947Z</time></trkpt><trkpt lat="45.5552" lon="9.0467317"><ele>165.0</ele><time>2026-04-11T06:10:18.948Z</time></trkpt><trkpt lat="45.555025" lon="9.047055"><ele>165.0</ele><time>2026-04-11T06:10:19.948Z</time></trkpt><trkpt lat="45.5548467" lon="9.047345"><ele>165.0</ele><time>2026-04-11T06:10:20.948Z</time></trkpt><trkpt lat="45.5546717" lon="9.0476633"><ele>165.0</ele><time>2026-04-11T06:10:21.948Z</time></trkpt><trkpt lat="45.5545067" lon="9.0480017"><ele>165.0</ele><time>2026-04-11T06:10:22.948Z</time></trkpt><trkpt lat="45.554345" lon="9.04834"><ele>165.0</ele><time>2026-04-11T06:10:23.948Z</time></trkpt><trkpt lat="45.554165" lon="9.0486583"><ele>165.0</ele><time>2026-04-11T06:10:24.948Z</time></trkpt><trkpt lat="45.5539917" lon="9.0489933"><ele>164.5</ele><time>2026-04-11T06:10:25.948Z</time></trkpt><trkpt lat="45.5538217" lon="9.04932"><ele>164.0</ele><time>2026-04-11T06:10:26.948Z</time></trkpt><trkpt lat="45.5536283" lon="9.0496383"><ele>164.5</ele><time>2026-04-11T06:10:27.948Z</time></trkpt><trkpt lat="45.55344" lon="9.04996"><ele>165.0</ele><time>2026-04-11T06:10:28.948Z</time></trkpt><trkpt lat="45.5532867" lon="9.0502633"><ele>165.0</ele><time>2026-04-11T06:10:29.948Z</time></trkpt><trkpt lat="45.55314" lon="9.050565"><ele>165.0</ele><time>2026-04-11T06:10:30.948Z</time></trkpt><trkpt lat="45.5530033" lon="9.0508417"><ele>164.0</ele><time>2026-04-11T06:10:31.948Z</time></trkpt><trkpt lat="45.5528567" lon="9.05115"><ele>163.0</ele><time>2026-04-11T06:10:32.947Z</time></trkpt><trkpt lat="45.5527333" lon="9.0514333"><ele>163.0</ele><time>2026-04-11T06:10:33.948Z</time></trkpt><trkpt lat="45.5525917" lon="9.0517117"><ele>163.0</ele><time>2026-04-11T06:10:34.948Z</time></trkpt><trkpt lat="45.5524517" lon="9.051995"><ele>163.0</ele><time>2026-04-11T06:10:35.948Z</time></trkpt><trkpt lat="45.5522883" lon="9.0522767"><ele>163.0</ele><time>2026-04-11T06:10:36.948Z</time></trkpt><trkpt lat="45.552155" lon="9.0525583"><ele>164.5</ele><time>2026-04-11T06:10:37.947Z</time></trkpt><trkpt lat="45.552005" lon="9.05284"><ele>166.0</ele><time>2026-04-11T06:10:38.948Z</time></trkpt><trkpt lat="45.551845" lon="9.0531267"><ele>165.0</ele><time>2026-04-11T06:10:39.948Z</time></trkpt><trkpt lat="45.5516833" lon="9.0534083"><ele>164.0</ele><time>2026-04-11T06:10:40.948Z</time></trkpt><trkpt lat="45.5515267" lon="9.0536733"><ele>164.0</ele><time>2026-04-11T06:10:41.948Z</time></trkpt><trkpt lat="45.5513633" lon="9.0539417"><ele>164.0</ele><time>2026-04-11T06:10:42.947Z</time></trkpt><trkpt lat="45.551215" lon="9.0542017"><ele>164.0</ele><time>2026-04-11T06:10:43.948Z</time></trkpt><trkpt lat="45.5510733" lon="9.0544633"><ele>164.0</ele><time>2026-04-11T06:10:44.948Z</time></trkpt><trkpt lat="45.550935" lon="9.0547167"><ele>164.33333333333331</ele><time>2026-04-11T06:10:45.948Z</time></trkpt><trkpt lat="45.5508167" lon="9.0549683"><ele>164.66666666666666</ele><time>2026-04-11T06:10:46.948Z</time></trkpt><trkpt lat="45.55068" lon="9.0552317"><ele>165.0</ele><time>2026-04-11T06:10:47.948Z</time></trkpt><trkpt lat="45.5505467" lon="9.0554867"><ele>165.0</ele><time>2026-04-11T06:10:48.948Z</time></trkpt><trkpt lat="45.55041" lon="9.0557283"><ele>165.0</ele><time>2026-04-11T06:10:49.948Z</time></trkpt><trkpt lat="45.5502583" lon="9.055975"><ele>165.0</ele><time>2026-04-11T06:10:50.948Z</time></trkpt><trkpt lat="45.5501067" lon="9.05622"><ele>165.0</ele><time>2026-04-11T06:10:51.948Z</time></trkpt><trkpt lat="45.549985" lon="9.05648"><ele>165.0</ele><time>2026-04-11T06:10:52.948Z</time></trkpt><trkpt lat="45.549875" lon="9.05668"><ele>165.0</ele><time>2026-04-11T06:10:53.948Z</time></trkpt><trkpt lat="45.549695" lon="9.0569367"><ele>164.0</ele><time>2026-04-11T06:10:54.948Z</time></trkpt><trkpt lat="45.5495183" lon="9.0571533"><ele>163.0</ele><time>2026-04-11T06:10:55.948Z</time></trkpt><trkpt lat="45.5493933" lon="9.0573267"><ele>162.0</ele><time>2026-04-11T06:10:56.948Z</time></trkpt><trkpt lat="45.5492467" lon="9.057515"><ele>162.0</ele><time>2026-04-11T06:10:57.948Z</time></trkpt><trkpt lat="45.5490867" lon="9.0577017"><ele>162.0</ele><time>2026-04-11T06:10:58.947Z</time></trkpt><trkpt lat="45.54892" lon="9.0578933"><ele>162.0</ele><time>2026-04-11T06:10:59.948Z</time></trkpt><trkpt lat="45.5487583" lon="9.0580683"><ele>162.0</ele><time>2026-04-11T06:11:00.948Z</time></trkpt><trkpt lat="45.5485983" lon="9.0582467"><ele>162.0</ele><time>2026-04-11T06:11:01.948Z</time></trkpt><trkpt lat="45.54844" lon="9.05844"><ele>162.0</ele><time>2026-04-11T06:11:02.948Z</time></trkpt><trkpt lat="45.5482917" lon="9.0586517"><ele>162.0</ele><time>2026-04-11T06:11:03.948Z</time></trkpt><trkpt lat="45.548165" lon="9.0588717"><ele>162.0</ele><time>2026-04-11T06:11:04.948Z</time></trkpt><trkpt lat="45.5480483" lon="9.059085"><ele>162.0</ele><time>2026-04-11T06:11:05.948Z</time></trkpt><trkpt lat="45.5479417" lon="9.0592883"><ele>162.0</ele><time>2026-04-11T06:11:06.947Z</time></trkpt><trkpt lat="45.5478383" lon="9.0594783"><ele>162.0</ele><time>2026-04-11T06:11:07.948Z</time></trkpt><trkpt lat="45.5477383" lon="9.05966"><ele>162.0</ele><time>2026-04-11T06:11:08.947Z</time></trkpt><trkpt lat="45.547625" lon="9.0598267"><ele>161.66666666666666</ele><time>2026-04-11T06:11:09.948Z</time></trkpt><trkpt lat="45.54751" lon="9.0599783"><ele>161.33333333333331</ele><time>2026-04-11T06:11:10.948Z</time></trkpt><trkpt lat="45.5473933" lon="9.060125"><ele>161.0</ele><time>2026-04-11T06:11:11.948Z</time></trkpt><trkpt lat="45.5472667" lon="9.06026"><ele>161.0</ele><time>2026-04-11T06:11:12.948Z</time></trkpt><trkpt lat="45.547115" lon="9.06037"><ele>161.0</ele><time>2026-04-11T06:11:13.948Z</time></trkpt><trkpt lat="45.54695" lon="9.0604433"><ele>161.0</ele><time>2026-04-11T06:11:14.948Z</time></trkpt><trkpt lat="45.5467683" lon="9.0604867"><ele>161.0</ele><time>2026-04-11T06:11:15.948Z</time></trkpt><trkpt lat="45.5465783" lon="9.0605083"><ele>161.0</ele><time>2026-04-11T06:11:16.948Z</time></trkpt><trkpt lat="45.5463917" lon="9.0605183"><ele>161.0</ele><time>2026-04-11T06:11:17.948Z</time></trkpt><trkpt lat="45.5462067" lon="9.0605067"><ele>161.0</ele><time>2026-04-11T06:11:18.947Z</time></trkpt><trkpt lat="45.5460233" lon="9.0604883"><ele>161.0</ele><time>2026-04-11T06:11:19.948Z</time></trkpt><trkpt lat="45.5458517" lon="9.060425"><ele>161.0</ele><time>2026-04-11T06:11:20.948Z</time></trkpt><trkpt lat="45.5456883" lon="9.0603383"><ele>161.0</ele><time>2026-04-11T06:11:21.948Z</time></trkpt><trkpt lat="45.5455333" lon="9.0602283"><ele>161.0</ele><time>2026-04-11T06:11:22.948Z</time></trkpt><trkpt lat="45.545375" lon="9.06011"><ele>161.0</ele><time>2026-04-11T06:11:23.948Z</time></trkpt><trkpt lat="45.5452217" lon="9.0599917"><ele>160.0</ele><time>2026-04-11T06:11:24.948Z</time></trkpt><trkpt lat="45.5450717" lon="9.0598667"><ele>159.0</ele><time>2026-04-11T06:11:25.948Z</time></trkpt><trkpt lat="45.5449183" lon="9.0597533"><ele>158.0</ele><time>2026-04-11T06:11:26.947Z</time></trkpt><trkpt lat="45.5447617" lon="9.0596417"><ele>158.0</ele><time>2026-04-11T06:11:27.948Z</time></trkpt><trkpt lat="45.54459" lon="9.0595317"><ele>158.0</ele><time>2026-04-11T06:11:28.948Z</time></trkpt><trkpt lat="45.5444383" lon="9.05942"><ele>158.0</ele><time>2026-04-11T06:11:29.947Z</time></trkpt><trkpt lat="45.5442767" lon="9.059315"><ele>158.66666666666666</ele><time>2026-04-11T06:11:30.948Z</time></trkpt><trkpt lat="45.5441033" lon="9.05921"><ele>159.33333333333334</ele><time>2026-04-11T06:11:31.948Z</time></trkpt><trkpt lat="45.543935" lon="9.05911"><ele>160.0</ele><time>2026-04-11T06:11:32.948Z</time></trkpt><trkpt lat="45.5437567" lon="9.0590117"><ele>161.33333333333334</ele><time>2026-04-11T06:11:33.948Z</time></trkpt><trkpt lat="45.5435767" lon="9.0589233"><ele>162.66666666666666</ele><time>2026-04-11T06:11:34.948Z</time></trkpt><trkpt lat="45.5434017" lon="9.0588167"><ele>164.0</ele><time>2026-04-11T06:11:35.948Z</time></trkpt><trkpt lat="45.54322" lon="9.0587183"><ele>164.0</ele><time>2026-04-11T06:11:36.948Z</time></trkpt><trkpt lat="45.5430533" lon="9.05862"><ele>164.0</ele><time>2026-04-11T06:11:37.948Z</time></trkpt><trkpt lat="45.5429" lon="9.05852"><ele>164.0</ele><time>2026-04-11T06:11:38.948Z</time></trkpt><trkpt lat="45.5427583" lon="9.05844"><ele>163.5</ele><time>2026-04-11T06:11:39.948Z</time></trkpt><trkpt lat="45.5426183" lon="9.0583617"><ele>163.0</ele><time>2026-04-11T06:11:40.947Z</time></trkpt><trkpt lat="45.54248" lon="9.058295"><ele>162.5</ele><time>2026-04-11T06:11:41.948Z</time></trkpt><trkpt lat="45.5423383" lon="9.0582233"><ele>162.0</ele><time>2026-04-11T06:11:42.948Z</time></trkpt><trkpt lat="45.542195" lon="9.0581583"><ele>162.0</ele><time>2026-04-11T06:11:43.948Z</time></trkpt><trkpt lat="45.5420633" lon="9.058105"><ele>162.0</ele><time>2026-04-11T06:11:44.948Z</time></trkpt><trkpt lat="45.541945" lon="9.05805"><ele>162.0</ele><time>2026-04-11T06:11:45.948Z</time></trkpt><trkpt lat="45.5418233" lon="9.0580083"><ele>162.0</ele><time>2026-04-11T06:11:46.948Z</time></trkpt><trkpt lat="45.5417" lon="9.0579633"><ele>162.0</ele><time>2026-04-11T06:11:47.948Z</time></trkpt><trkpt lat="45.5415933" lon="9.0579267"><ele>162.0</ele><time>2026-04-11T06:11:48.948Z</time></trkpt><trkpt lat="45.54148" lon="9.05789"><ele>162.0</ele><time>2026-04-11T06:11:49.948Z</time></trkpt><trkpt lat="45.54138" lon="9.0578617"><ele>162.0</ele><time>2026-04-11T06:11:50.947Z</time></trkpt><trkpt lat="45.5413" lon="9.057835"><ele>162.0</ele><time>2026-04-11T06:11:51.948Z</time></trkpt><trkpt lat="45.5412317" lon="9.0578167"><ele>161.6</ele><time>2026-04-11T06:11:52.947Z</time></trkpt><trkpt lat="45.5411667" lon="9.057805"><ele>161.2</ele><time>2026-04-11T06:11:53.948Z</time></trkpt><trkpt lat="45.5410967" lon="9.057785"><ele>160.8</ele><time>2026-04-11T06:11:54.948Z</time></trkpt><trkpt lat="45.541015" lon="9.0577783"><ele>160.4</ele><time>2026-04-11T06:11:55.948Z</time></trkpt><trkpt lat="45.540905" lon="9.057765"><ele>160.0</ele><time>2026-04-11T06:11:56.948Z</time></trkpt><trkpt lat="45.540765" lon="9.0577817"><ele>160.0</ele><time>2026-04-11T06:11:57.948Z</time></trkpt><trkpt lat="45.540625" lon="9.0578283"><ele>160.0</ele><time>2026-04-11T06:11:58.948Z</time></trkpt><trkpt lat="45.54048" lon="9.057895"><ele>160.0</ele><time>2026-04-11T06:11:59.948Z</time></trkpt><trkpt lat="45.5403383" lon="9.0579617"><ele>160.0</ele><time>2026-04-11T06:12:00.948Z</time></trkpt><trkpt lat="45.540195" lon="9.0580217"><ele>159.33333333333334</ele><time>2026-04-11T06:12:01.948Z</time></trkpt><trkpt lat="45.54005" lon="9.0580733"><ele>158.66666666666666</ele><time>2026-04-11T06:12:02.947Z</time></trkpt><trkpt lat="45.5398967" lon="9.058115"><ele>158.0</ele><time>2026-04-11T06:12:03.948Z</time></trkpt><trkpt lat="45.539735" lon="9.0581483"><ele>158.0</ele><time>2026-04-11T06:12:04.948Z</time></trkpt><trkpt lat="45.5395783" lon="9.0581733"><ele>158.0</ele><time>2026-04-11T06:12:05.948Z</time></trkpt><trkpt lat="45.5394017" lon="9.0581617"><ele>158.0</ele><time>2026-04-11T06:12:06.948Z</time></trkpt><trkpt lat="45.5392183" lon="9.058165"><ele>157.66666666666666</ele><time>2026-04-11T06:12:07.948Z</time></trkpt><trkpt lat="45.53904" lon="9.0581817"><ele>157.33333333333334</ele><time>2026-04-11T06:12:08.948Z</time></trkpt><trkpt lat="45.5388617" lon="9.058195"><ele>157.0</ele><time>2026-04-11T06:12:09.948Z</time></trkpt><trkpt lat="45.5386933" lon="9.0582117"><ele>157.0</ele><time>2026-04-11T06:12:10.948Z</time></trkpt><trkpt lat="45.53853" lon="9.058225"><ele>157.0</ele><time>2026-04-11T06:12:11.948Z</time></trkpt><trkpt lat="45.5383667" lon="9.0582467"><ele>157.0</ele><time>2026-04-11T06:12:12.948Z</time></trkpt><trkpt lat="45.5381933" lon="9.0582733"><ele>157.0</ele><time>2026-04-11T06:12:13.948Z</time></trkpt><trkpt lat="45.53802" lon="9.0583033"><ele>157.0</ele><time>2026-04-11T06:12:14.948Z</time></trkpt><trkpt lat="45.53784" lon="9.0583483"><ele>157.0</ele><time>2026-04-11T06:12:15.948Z</time></trkpt><trkpt lat="45.53766" lon="9.0583967"><ele>156.66666666666669</ele><time>2026-04-11T06:12:16.948Z</time></trkpt><trkpt lat="45.53746" lon="9.058475"><ele>156.33333333333334</ele><time>2026-04-11T06:12:17.948Z</time></trkpt><trkpt lat="45.5372583" lon="9.0585517"><ele>156.0</ele><time>2026-04-11T06:12:18.948Z</time></trkpt><trkpt lat="45.5370533" lon="9.0586383"><ele>156.0</ele><time>2026-04-11T06:12:19.948Z</time></trkpt><trkpt lat="45.5368667" lon="9.0587267"><ele>156.0</ele><time>2026-04-11T06:12:20.948Z</time></trkpt><trkpt lat="45.5366717" lon="9.0588133"><ele>156.0</ele><time>2026-04-11T06:12:21.947Z</time></trkpt><trkpt lat="45.536475" lon="9.0589083"><ele>156.0</ele><time>2026-04-11T06:12:22.948Z</time></trkpt><trkpt lat="45.5362617" lon="9.0590017"><ele>156.0</ele><time>2026-04-11T06:12:23.948Z</time></trkpt><trkpt lat="45.5360533" lon="9.0591033"><ele>156.0</ele><time>2026-04-11T06:12:24.948Z</time></trkpt><trkpt lat="45.53585" lon="9.0592067"><ele>156.33333333333334</ele><time>2026-04-11T06:12:25.948Z</time></trkpt><trkpt lat="45.5356483" lon="9.0593133"><ele>156.66666666666669</ele><time>2026-04-11T06:12:26.948Z</time></trkpt><trkpt lat="45.5354283" lon="9.0594167"><ele>157.0</ele><time>2026-04-11T06:12:27.948Z</time></trkpt><trkpt lat="45.535205" lon="9.05952"><ele>155.5</ele><time>2026-04-11T06:12:28.948Z</time></trkpt><trkpt lat="45.5349817" lon="9.05963"><ele>154.0</ele><time>2026-04-11T06:12:29.948Z</time></trkpt><trkpt lat="45.53476" lon="9.0597367"><ele>153.5</ele><time>2026-04-11T06:12:30.948Z</time></trkpt><trkpt lat="45.5345367" lon="9.059835"><ele>153.0</ele><time>2026-04-11T06:12:31.948Z</time></trkpt><trkpt lat="45.5343133" lon="9.0599333"><ele>154.0</ele><time>2026-04-11T06:12:32.948Z</time></trkpt><trkpt lat="45.53408" lon="9.0600133"><ele>155.0</ele><time>2026-04-11T06:12:33.948Z</time></trkpt><trkpt lat="45.53384" lon="9.0600917"><ele>155.5</ele><time>2026-04-11T06:12:34.948Z</time></trkpt><trkpt lat="45.5336067" lon="9.06016"><ele>156.0</ele><time>2026-04-11T06:12:35.948Z</time></trkpt><trkpt lat="45.5333517" lon="9.0602233"><ele>156.0</ele><time>2026-04-11T06:12:36.948Z</time></trkpt><trkpt lat="45.5331133" lon="9.0602733"><ele>156.0</ele><time>2026-04-11T06:12:37.948Z</time></trkpt><trkpt lat="45.5328767" lon="9.0603067"><ele>156.0</ele><time>2026-04-11T06:12:38.948Z</time></trkpt><trkpt lat="45.53263" lon="9.0603567"><ele>156.0</ele><time>2026-04-11T06:12:39.948Z</time></trkpt><trkpt lat="45.5323767" lon="9.0603883"><ele>156.0</ele><time>2026-04-11T06:12:40.948Z</time></trkpt><trkpt lat="45.5321367" lon="9.0604183"><ele>156.0</ele><time>2026-04-11T06:12:41.947Z</time></trkpt><trkpt lat="45.5318783" lon="9.06044"><ele>157.0</ele><time>2026-04-11T06:12:42.948Z</time></trkpt><trkpt lat="45.5316317" lon="9.0603983"><ele>158.0</ele><time>2026-04-11T06:12:43.948Z</time></trkpt><trkpt lat="45.5313833" lon="9.0604583"><ele>156.0</ele><time>2026-04-11T06:12:44.948Z</time></trkpt><trkpt lat="45.5311367" lon="9.060495"><ele>154.0</ele><time>2026-04-11T06:12:45.948Z</time></trkpt><trkpt lat="45.5308733" lon="9.060545"><ele>154.0</ele><time>2026-04-11T06:12:46.948Z</time></trkpt><trkpt lat="45.5306083" lon="9.0605983"><ele>154.0</ele><time>2026-04-11T06:12:47.948Z</time></trkpt><trkpt lat="45.53035" lon="9.06064"><ele>155.0</ele><time>2026-04-11T06:12:48.948Z</time></trkpt><trkpt lat="45.530095" lon="9.0606767"><ele>156.0</ele><time>2026-04-11T06:12:49.948Z</time></trkpt><trkpt lat="45.5298383" lon="9.060715"><ele>156.0</ele><time>2026-04-11T06:12:50.948Z</time></trkpt><trkpt lat="45.5296" lon="9.060765"><ele>156.0</ele><time>2026-04-11T06:12:51.948Z</time></trkpt><trkpt lat="45.52936" lon="9.06078"><ele>155.0</ele><time>2026-04-11T06:12:52.948Z</time></trkpt><trkpt lat="45.5290983" lon="9.0608033"><ele>154.0</ele><time>2026-04-11T06:12:53.946Z</time></trkpt><trkpt lat="45.5288383" lon="9.0608417"><ele>155.0</ele><time>2026-04-11T06:12:54.947Z</time></trkpt><trkpt lat="45.5285667" lon="9.0608717"><ele>156.0</ele><time>2026-04-11T06:12:55.947Z</time></trkpt><trkpt lat="45.5283083" lon="9.060895"><ele>156.0</ele><time>2026-04-11T06:12:56.947Z</time></trkpt><trkpt lat="45.528045" lon="9.0609183"><ele>156.0</ele><time>2026-04-11T06:12:57.947Z</time></trkpt><trkpt lat="45.527785" lon="9.0609467"><ele>154.5</ele><time>2026-04-11T06:12:58.947Z</time></trkpt><trkpt lat="45.5275317" lon="9.0609717"><ele>153.0</ele><time>2026-04-11T06:12:59.947Z</time></trkpt><trkpt lat="45.527275" lon="9.0610017"><ele>154.5</ele><time>2026-04-11T06:13:00.947Z</time></trkpt><trkpt lat="45.5270117" lon="9.0609983"><ele>156.0</ele><time>2026-04-11T06:13:01.947Z</time></trkpt><trkpt lat="45.5267433" lon="9.0610033"><ele>156.0</ele><time>2026-04-11T06:13:02.947Z</time></trkpt><trkpt lat="45.526485" lon="9.0609783"><ele>156.0</ele><time>2026-04-11T06:13:03.947Z</time></trkpt><trkpt lat="45.5262317" lon="9.06096"><ele>155.0</ele><time>2026-04-11T06:13:04.947Z</time></trkpt><trkpt lat="45.52599" lon="9.0609533"><ele>154.0</ele><time>2026-04-11T06:13:05.947Z</time></trkpt><trkpt lat="45.5257317" lon="9.06091"><ele>154.0</ele><time>2026-04-11T06:13:06.946Z</time></trkpt><trkpt lat="45.525475" lon="9.0608283"><ele>154.0</ele><time>2026-04-11T06:13:07.947Z</time></trkpt><trkpt lat="45.5252167" lon="9.0607467"><ele>152.5</ele><time>2026-04-11T06:13:08.947Z</time></trkpt><trkpt lat="45.5249567" lon="9.0606467"><ele>151.0</ele><time>2026-04-11T06:13:09.947Z</time></trkpt><trkpt lat="45.5247033" lon="9.060555"><ele>151.5</ele><time>2026-04-11T06:13:10.946Z</time></trkpt><trkpt lat="45.52446" lon="9.0604467"><ele>152.0</ele><time>2026-04-11T06:13:11.947Z</time></trkpt><trkpt lat="45.524195" lon="9.0603567"><ele>152.0</ele><time>2026-04-11T06:13:12.947Z</time></trkpt><trkpt lat="45.5239333" lon="9.0602567"><ele>152.0</ele><time>2026-04-11T06:13:13.947Z</time></trkpt><trkpt lat="45.5236717" lon="9.0601617"><ele>153.0</ele><time>2026-04-11T06:13:14.947Z</time></trkpt><trkpt lat="45.5234183" lon="9.0600633"><ele>154.0</ele><time>2026-04-11T06:13:15.947Z</time></trkpt><trkpt lat="45.5231433" lon="9.0599533"><ele>152.5</ele><time>2026-04-11T06:13:16.947Z</time></trkpt><trkpt lat="45.5228767" lon="9.0598633"><ele>151.0</ele><time>2026-04-11T06:13:17.947Z</time></trkpt><trkpt lat="45.5226117" lon="9.0597617"><ele>151.0</ele><time>2026-04-11T06:13:18.947Z</time></trkpt><trkpt lat="45.5223417" lon="9.059655"><ele>151.0</ele><time>2026-04-11T06:13:19.946Z</time></trkpt><trkpt lat="45.522075" lon="9.0595567"><ele>150.0</ele><time>2026-04-11T06:13:20.947Z</time></trkpt><trkpt lat="45.5218033" lon="9.059455"><ele>149.0</ele><time>2026-04-11T06:13:21.947Z</time></trkpt><trkpt lat="45.5215417" lon="9.0593467"><ele>149.0</ele><time>2026-04-11T06:13:22.947Z</time></trkpt><trkpt lat="45.52128" lon="9.0592567"><ele>149.0</ele><time>2026-04-11T06:13:23.946Z</time></trkpt><trkpt lat="45.5210117" lon="9.059175"><ele>148.5</ele><time>2026-04-11T06:13:24.947Z</time></trkpt><trkpt lat="45.52074" lon="9.0591"><ele>148.0</ele><time>2026-04-11T06:13:25.947Z</time></trkpt><trkpt lat="45.5204667" lon="9.0590283"><ele>148.5</ele><time>2026-04-11T06:13:26.947Z</time></trkpt><trkpt lat="45.5201933" lon="9.0589817"><ele>149.0</ele><time>2026-04-11T06:13:27.946Z</time></trkpt><trkpt lat="45.5199183" lon="9.05895"><ele>149.0</ele><time>2026-04-11T06:13:28.947Z</time></trkpt><trkpt lat="45.519655" lon="9.05893"><ele>149.0</ele><time>2026-04-11T06:13:29.947Z</time></trkpt><trkpt lat="45.51938" lon="9.0589283"><ele>149.0</ele><time>2026-04-11T06:13:30.947Z</time></trkpt><trkpt lat="45.5191083" lon="9.058925"><ele>149.0</ele><time>2026-04-11T06:13:31.947Z</time></trkpt><trkpt lat="45.5188217" lon="9.0589617"><ele>147.0</ele><time>2026-04-11T06:13:32.947Z</time></trkpt><trkpt lat="45.5185317" lon="9.0589967"><ele>145.0</ele><time>2026-04-11T06:13:33.947Z</time></trkpt><trkpt lat="45.5182467" lon="9.05906"><ele>145.5</ele><time>2026-04-11T06:13:34.946Z</time></trkpt><trkpt lat="45.517975" lon="9.05915"><ele>146.0</ele><time>2026-04-11T06:13:35.947Z</time></trkpt><trkpt lat="45.5177" lon="9.0592433"><ele>146.0</ele><time>2026-04-11T06:13:36.947Z</time></trkpt><trkpt lat="45.51744" lon="9.05937"><ele>146.0</ele><time>2026-04-11T06:13:37.947Z</time></trkpt><trkpt lat="45.5171767" lon="9.0595417"><ele>146.0</ele><time>2026-04-11T06:13:38.947Z</time></trkpt><trkpt lat="45.5169317" lon="9.0596983"><ele>146.0</ele><time>2026-04-11T06:13:39.947Z</time></trkpt><trkpt lat="45.5166817" lon="9.0598817"><ele>147.5</ele><time>2026-04-11T06:13:40.947Z</time></trkpt><trkpt lat="45.5164583" lon="9.0601233"><ele>149.0</ele><time>2026-04-11T06:13:41.947Z</time></trkpt><trkpt lat="45.5162333" lon="9.0602817"><ele>149.5</ele><time>2026-04-11T06:13:42.947Z</time></trkpt><trkpt lat="45.5160117" lon="9.0604733"><ele>150.0</ele><time>2026-04-11T06:13:43.947Z</time></trkpt><trkpt lat="45.51579" lon="9.0607217"><ele>150.0</ele><time>2026-04-11T06:13:44.946Z</time></trkpt><trkpt lat="45.5155517" lon="9.0609583"><ele>150.0</ele><time>2026-04-11T06:13:45.947Z</time></trkpt><trkpt lat="45.5153417" lon="9.06124"><ele>150.0</ele><time>2026-04-11T06:13:46.947Z</time></trkpt><trkpt lat="45.515155" lon="9.0615217"><ele>150.0</ele><time>2026-04-11T06:13:47.947Z</time></trkpt><trkpt lat="45.5149633" lon="9.061865"><ele>149.0</ele><time>2026-04-11T06:13:48.947Z</time></trkpt><trkpt lat="45.514755" lon="9.0621967"><ele>148.0</ele><time>2026-04-11T06:13:49.946Z</time></trkpt><trkpt lat="45.5145433" lon="9.06248"><ele>147.5</ele><time>2026-04-11T06:13:50.947Z</time></trkpt><trkpt lat="45.5143167" lon="9.062735"><ele>147.0</ele><time>2026-04-11T06:13:51.946Z</time></trkpt><trkpt lat="45.5140917" lon="9.062975"><ele>147.0</ele><time>2026-04-11T06:13:52.947Z</time></trkpt><trkpt lat="45.51385" lon="9.0631883"><ele>147.0</ele><time>2026-04-11T06:13:53.947Z</time></trkpt><trkpt lat="45.5136083" lon="9.0633817"><ele>147.0</ele><time>2026-04-11T06:13:54.947Z</time></trkpt><trkpt lat="45.5133533" lon="9.0635467"><ele>147.0</ele><time>2026-04-11T06:13:55.947Z</time></trkpt><trkpt lat="45.5131017" lon="9.063695"><ele>147.0</ele><time>2026-04-11T06:13:56.947Z</time></trkpt><trkpt lat="45.512825" lon="9.06382"><ele>147.0</ele><time>2026-04-11T06:13:57.947Z</time></trkpt><trkpt lat="45.5125467" lon="9.06392"><ele>147.0</ele><time>2026-04-11T06:13:58.947Z</time></trkpt><trkpt lat="45.51227" lon="9.0640117"><ele>147.0</ele><time>2026-04-11T06:13:59.947Z</time></trkpt><trkpt lat="45.5119867" lon="9.064085"><ele>147.0</ele><time>2026-04-11T06:14:00.947Z</time></trkpt><trkpt lat="45.511705" lon="9.06412"><ele>147.0</ele><time>2026-04-11T06:14:01.947Z</time></trkpt><trkpt lat="45.5114183" lon="9.0641283"><ele>147.0</ele><time>2026-04-11T06:14:02.947Z</time></trkpt><trkpt lat="45.5111317" lon="9.0641083"><ele>147.0</ele><time>2026-04-11T06:14:03.947Z</time></trkpt><trkpt lat="45.5108433" lon="9.06406"><ele>147.0</ele><time>2026-04-11T06:14:04.947Z</time></trkpt><trkpt lat="45.510555" lon="9.0639883"><ele>147.0</ele><time>2026-04-11T06:14:05.947Z</time></trkpt><trkpt lat="45.51027" lon="9.0639"><ele>145.0</ele><time>2026-04-11T06:14:06.947Z</time></trkpt><trkpt lat="45.5099733" lon="9.0638067"><ele>143.0</ele><time>2026-04-11T06:14:07.946Z</time></trkpt><trkpt lat="45.5096783" lon="9.0637383"><ele>144.5</ele><time>2026-04-11T06:14:08.947Z</time></trkpt><trkpt lat="45.5093783" lon="9.06369"><ele>146.0</ele><time>2026-04-11T06:14:09.946Z</time></trkpt><trkpt lat="45.5090867" lon="9.063635"><ele>146.0</ele><time>2026-04-11T06:14:10.947Z</time></trkpt><trkpt lat="45.5087867" lon="9.06359"><ele>146.0</ele><time>2026-04-11T06:14:11.947Z</time></trkpt><trkpt lat="45.508505" lon="9.0635767"><ele>146.0</ele><time>2026-04-11T06:14:12.947Z</time></trkpt><trkpt lat="45.5082233" lon="9.0635833"><ele>146.0</ele><time>2026-04-11T06:14:13.947Z</time></trkpt><trkpt lat="45.50792" lon="9.06364"><ele>144.5</ele><time>2026-04-11T06:14:14.947Z</time></trkpt><trkpt lat="45.5076267" lon="9.0637133"><ele>143.0</ele><time>2026-04-11T06:14:15.947Z</time></trkpt><trkpt lat="45.5073533" lon="9.06384"><ele>143.0</ele><time>2026-04-11T06:14:16.947Z</time></trkpt><trkpt lat="45.507065" lon="9.0639417"><ele>143.0</ele><time>2026-04-11T06:14:17.946Z</time></trkpt><trkpt lat="45.5067883" lon="9.0640517"><ele>142.5</ele><time>2026-04-11T06:14:18.947Z</time></trkpt><trkpt lat="45.5065133" lon="9.0641617"><ele>142.0</ele><time>2026-04-11T06:14:19.946Z</time></trkpt><trkpt lat="45.50624" lon="9.0642983"><ele>143.0</ele><time>2026-04-11T06:14:20.947Z</time></trkpt><trkpt lat="45.5059767" lon="9.0644467"><ele>144.0</ele><time>2026-04-11T06:14:21.947Z</time></trkpt><trkpt lat="45.5056917" lon="9.064605"><ele>141.0</ele><time>2026-04-11T06:14:22.947Z</time></trkpt><trkpt lat="45.5054" lon="9.0647567"><ele>138.0</ele><time>2026-04-11T06:14:23.947Z</time></trkpt><trkpt lat="45.5051" lon="9.06491"><ele>138.5</ele><time>2026-04-11T06:14:24.947Z</time></trkpt><trkpt lat="45.5047867" lon="9.065065"><ele>139.0</ele><time>2026-04-11T06:14:25.947Z</time></trkpt><trkpt lat="45.504475" lon="9.0652117"><ele>139.0</ele><time>2026-04-11T06:14:26.947Z</time></trkpt><trkpt lat="45.5041583" lon="9.065355"><ele>139.0</ele><time>2026-04-11T06:14:27.947Z</time></trkpt><trkpt lat="45.5038467" lon="9.0654967"><ele>140.5</ele><time>2026-04-11T06:14:28.946Z</time></trkpt><trkpt lat="45.50354" lon="9.0656183"><ele>142.0</ele><time>2026-04-11T06:14:29.947Z</time></trkpt><trkpt lat="45.5032367" lon="9.065745"><ele>141.5</ele><time>2026-04-11T06:14:30.947Z</time></trkpt><trkpt lat="45.50294" lon="9.06587"><ele>141.0</ele><time>2026-04-11T06:14:31.947Z</time></trkpt><trkpt lat="45.5026633" lon="9.0659833"><ele>141.0</ele><time>2026-04-11T06:14:32.947Z</time></trkpt><trkpt lat="45.5023767" lon="9.0661"><ele>141.0</ele><time>2026-04-11T06:14:33.947Z</time></trkpt><trkpt lat="45.50207" lon="9.0662217"><ele>139.5</ele><time>2026-04-11T06:14:34.947Z</time></trkpt><trkpt lat="45.501765" lon="9.0663383"><ele>138.0</ele><time>2026-04-11T06:14:35.947Z</time></trkpt><trkpt lat="45.5014717" lon="9.0664383"><ele>137.5</ele><time>2026-04-11T06:14:36.947Z</time></trkpt><trkpt lat="45.5011767" lon="9.0665267"><ele>137.0</ele><time>2026-04-11T06:14:37.947Z</time></trkpt><trkpt lat="45.50088" lon="9.0666017"><ele>137.0</ele><time>2026-04-11T06:14:38.947Z</time></trkpt><trkpt lat="45.5005933" lon="9.0666783"><ele>137.0</ele><time>2026-04-11T06:14:39.947Z</time></trkpt><trkpt lat="45.50031" lon="9.0667333"><ele>137.5</ele><time>2026-04-11T06:14:40.947Z</time></trkpt><trkpt lat="45.500015" lon="9.066755"><ele>138.0</ele><time>2026-04-11T06:14:41.947Z</time></trkpt><trkpt lat="45.4997083" lon="9.0667733"><ele>136.5</ele><time>2026-04-11T06:14:42.947Z</time></trkpt><trkpt lat="45.4994083" lon="9.0667767"><ele>135.0</ele><time>2026-04-11T06:14:43.947Z</time></trkpt><trkpt lat="45.4990983" lon="9.066765"><ele>135.0</ele><time>2026-04-11T06:14:44.947Z</time></trkpt><trkpt lat="45.498795" lon="9.0667633"><ele>135.0</ele><time>2026-04-11T06:14:45.947Z</time></trkpt><trkpt lat="45.4984967" lon="9.0667517"><ele>135.5</ele><time>2026-04-11T06:14:46.947Z</time></trkpt><trkpt lat="45.4982017" lon="9.066735"><ele>136.0</ele><time>2026-04-11T06:14:47.947Z</time></trkpt><trkpt lat="45.4979217" lon="9.0667"><ele>136.5</ele><time>2026-04-11T06:14:48.947Z</time></trkpt><trkpt lat="45.497635" lon="9.0666833"><ele>137.0</ele><time>2026-04-11T06:14:49.947Z</time></trkpt><trkpt lat="45.4973333" lon="9.06669"><ele>137.0</ele><time>2026-04-11T06:14:50.947Z</time></trkpt><trkpt lat="45.49702" lon="9.0666883"><ele>137.0</ele><time>2026-04-11T06:14:51.947Z</time></trkpt><trkpt lat="45.49672" lon="9.06668"><ele>137.0</ele><time>2026-04-11T06:14:52.947Z</time></trkpt><trkpt lat="45.496415" lon="9.0666717"><ele>137.0</ele><time>2026-04-11T06:14:53.947Z</time></trkpt><trkpt lat="45.49612" lon="9.06666"><ele>136.5</ele><time>2026-04-11T06:14:54.947Z</time></trkpt><trkpt lat="45.495815" lon="9.06664"><ele>136.0</ele><time>2026-04-11T06:14:55.947Z</time></trkpt><trkpt lat="45.4955033" lon="9.06663"><ele>135.5</ele><time>2026-04-11T06:14:56.947Z</time></trkpt><trkpt lat="45.4951867" lon="9.0666267"><ele>135.0</ele><time>2026-04-11T06:14:57.947Z</time></trkpt><trkpt lat="45.4948517" lon="9.0666133"><ele>135.0</ele><time>2026-04-11T06:14:58.947Z</time></trkpt><trkpt lat="45.4945083" lon="9.0666"><ele>135.0</ele><time>2026-04-11T06:14:59.947Z</time></trkpt><trkpt lat="45.4941633" lon="9.0665833"><ele>135.0</ele><time>2026-04-11T06:15:00.947Z</time></trkpt><trkpt lat="45.49382" lon="9.06656"><ele>135.0</ele><time>2026-04-11T06:15:01.947Z</time></trkpt><trkpt lat="45.493465" lon="9.0665367"><ele>135.5</ele><time>2026-04-11T06:15:02.947Z</time></trkpt><trkpt lat="45.49312" lon="9.0665167"><ele>136.0</ele><time>2026-04-11T06:15:03.946Z</time></trkpt><trkpt lat="45.4927917" lon="9.0664983"><ele>134.0</ele><time>2026-04-11T06:15:04.947Z</time></trkpt><trkpt lat="45.4924833" lon="9.0664867"><ele>132.0</ele><time>2026-04-11T06:15:05.946Z</time></trkpt><trkpt lat="45.4922033" lon="9.066475"><ele>133.0</ele><time>2026-04-11T06:15:06.947Z</time></trkpt><trkpt lat="45.4919383" lon="9.0664633"><ele>134.0</ele><time>2026-04-11T06:15:07.946Z</time></trkpt><trkpt lat="45.4916733" lon="9.066445"><ele>134.0</ele><time>2026-04-11T06:15:08.947Z</time></trkpt><trkpt lat="45.4914283" lon="9.0664433"><ele>134.0</ele><time>2026-04-11T06:15:09.946Z</time></trkpt><trkpt lat="45.4911933" lon="9.0664433"><ele>134.0</ele><time>2026-04-11T06:15:10.947Z</time></trkpt><trkpt lat="45.4909567" lon="9.0664533"><ele>134.0</ele><time>2026-04-11T06:15:11.947Z</time></trkpt><trkpt lat="45.4907117" lon="9.0664617"><ele>134.0</ele><time>2026-04-11T06:15:12.947Z</time></trkpt><trkpt lat="45.4904717" lon="9.066475"><ele>134.0</ele><time>2026-04-11T06:15:13.947Z</time></trkpt><trkpt lat="45.4902333" lon="9.0664933"><ele>134.0</ele><time>2026-04-11T06:15:14.946Z</time></trkpt><trkpt lat="45.49" lon="9.066515"><ele>134.0</ele><time>2026-04-11T06:15:15.947Z</time></trkpt><trkpt lat="45.489775" lon="9.06655"><ele>135.0</ele><time>2026-04-11T06:15:16.947Z</time></trkpt><trkpt lat="45.4895483" lon="9.0666017"><ele>136.0</ele><time>2026-04-11T06:15:17.947Z</time></trkpt><trkpt lat="45.48932" lon="9.066655"><ele>136.0</ele><time>2026-04-11T06:15:18.947Z</time></trkpt><trkpt lat="45.4890983" lon="9.066705"><ele>136.0</ele><time>2026-04-11T06:15:19.947Z</time></trkpt><trkpt lat="45.4888733" lon="9.0667767"><ele>136.0</ele><time>2026-04-11T06:15:20.947Z</time></trkpt><trkpt lat="45.488665" lon="9.0668567"><ele>136.0</ele><time>2026-04-11T06:15:21.947Z</time></trkpt><trkpt lat="45.4884367" lon="9.06694"><ele>136.0</ele><time>2026-04-11T06:15:22.947Z</time></trkpt><trkpt lat="45.4882033" lon="9.0670267"><ele>136.0</ele><time>2026-04-11T06:15:23.947Z</time></trkpt><trkpt lat="45.48797" lon="9.0671267"><ele>135.0</ele><time>2026-04-11T06:15:24.947Z</time></trkpt><trkpt lat="45.4877433" lon="9.0672267"><ele>134.0</ele><time>2026-04-11T06:15:25.946Z</time></trkpt><trkpt lat="45.4875083" lon="9.0673417"><ele>134.0</ele><time>2026-04-11T06:15:26.947Z</time></trkpt><trkpt lat="45.4872783" lon="9.0674667"><ele>134.0</ele><time>2026-04-11T06:15:27.947Z</time></trkpt><trkpt lat="45.4870433" lon="9.0675933"><ele>134.0</ele><time>2026-04-11T06:15:28.946Z</time></trkpt><trkpt lat="45.4868217" lon="9.067735"><ele>134.0</ele><time>2026-04-11T06:15:29.947Z</time></trkpt><trkpt lat="45.4866033" lon="9.0678717"><ele>134.0</ele><time>2026-04-11T06:15:30.946Z</time></trkpt><trkpt lat="45.4863817" lon="9.0680167"><ele>134.0</ele><time>2026-04-11T06:15:31.947Z</time></trkpt><trkpt lat="45.4861833" lon="9.06817"><ele>133.0</ele><time>2026-04-11T06:15:32.947Z</time></trkpt><trkpt lat="45.48596" lon="9.0683217"><ele>132.0</ele><time>2026-04-11T06:15:33.947Z</time></trkpt><trkpt lat="45.48575" lon="9.0684833"><ele>132.0</ele><time>2026-04-11T06:15:34.947Z</time></trkpt><trkpt lat="45.4855467" lon="9.0686617"><ele>132.0</ele><time>2026-04-11T06:15:35.947Z</time></trkpt><trkpt lat="45.48534" lon="9.06884"><ele>131.5</ele><time>2026-04-11T06:15:36.947Z</time></trkpt><trkpt lat="45.48515" lon="9.0690283"><ele>131.0</ele><time>2026-04-11T06:15:37.947Z</time></trkpt><trkpt lat="45.4849517" lon="9.0692033"><ele>131.0</ele><time>2026-04-11T06:15:38.947Z</time></trkpt><trkpt lat="45.4847533" lon="9.069395"><ele>131.0</ele><time>2026-04-11T06:15:39.947Z</time></trkpt><trkpt lat="45.4845767" lon="9.06957"><ele>131.0</ele><time>2026-04-11T06:15:40.947Z</time></trkpt><trkpt lat="45.4843767" lon="9.0697417"><ele>131.0</ele><time>2026-04-11T06:15:41.946Z</time></trkpt><trkpt lat="45.4841883" lon="9.069925"><ele>130.0</ele><time>2026-04-11T06:15:42.946Z</time></trkpt><trkpt lat="45.484005" lon="9.07011"><ele>129.0</ele><time>2026-04-11T06:15:43.946Z</time></trkpt><trkpt lat="45.4838133" lon="9.0703033"><ele>129.0</ele><time>2026-04-11T06:15:44.947Z</time></trkpt><trkpt lat="45.4836133" lon="9.07051"><ele>129.0</ele><time>2026-04-11T06:15:45.947Z</time></trkpt><trkpt lat="45.4834033" lon="9.0707317"><ele>130.0</ele><time>2026-04-11T06:15:46.947Z</time></trkpt><trkpt lat="45.4831833" lon="9.07096"><ele>131.0</ele><time>2026-04-11T06:15:47.947Z</time></trkpt><trkpt lat="45.4829467" lon="9.07119"><ele>130.5</ele><time>2026-04-11T06:15:48.947Z</time></trkpt><trkpt lat="45.4827133" lon="9.0714167"><ele>130.0</ele><time>2026-04-11T06:15:49.947Z</time></trkpt><trkpt lat="45.4824733" lon="9.07166"><ele>130.0</ele><time>2026-04-11T06:15:50.947Z</time></trkpt><trkpt lat="45.4822267" lon="9.0718917"><ele>130.0</ele><time>2026-04-11T06:15:51.947Z</time></trkpt><trkpt lat="45.4819583" lon="9.07213"><ele>130.0</ele><time>2026-04-11T06:15:52.947Z</time></trkpt><trkpt lat="45.4817133" lon="9.072365"><ele>130.0</ele><time>2026-04-11T06:15:53.947Z</time></trkpt><trkpt lat="45.48147" lon="9.0726017"><ele>129.5</ele><time>2026-04-11T06:15:54.947Z</time></trkpt><trkpt lat="45.4812233" lon="9.0728367"><ele>129.0</ele><time>2026-04-11T06:15:55.947Z</time></trkpt><trkpt lat="45.48098" lon="9.0730717"><ele>129.0</ele><time>2026-04-11T06:15:56.947Z</time></trkpt><trkpt lat="45.480735" lon="9.07331"><ele>129.0</ele><time>2026-04-11T06:15:57.946Z</time></trkpt><trkpt lat="45.4804917" lon="9.0735433"><ele>130.5</ele><time>2026-04-11T06:15:58.947Z</time></trkpt><trkpt lat="45.48025" lon="9.0737717"><ele>132.0</ele><time>2026-04-11T06:15:59.947Z</time></trkpt><trkpt lat="45.4799967" lon="9.0740017"><ele>133.0</ele><time>2026-04-11T06:16:00.947Z</time></trkpt><trkpt lat="45.4797683" lon="9.074225"><ele>134.0</ele><time>2026-04-11T06:16:01.947Z</time></trkpt><trkpt lat="45.4795333" lon="9.074445"><ele>134.0</ele><time>2026-04-11T06:16:02.947Z</time></trkpt><trkpt lat="45.4793083" lon="9.0746767"><ele>134.0</ele><time>2026-04-11T06:16:03.946Z</time></trkpt><trkpt lat="45.479075" lon="9.0748867"><ele>133.0</ele><time>2026-04-11T06:16:04.946Z</time></trkpt><trkpt lat="45.4788483" lon="9.0751117"><ele>132.0</ele><time>2026-04-11T06:16:05.946Z</time></trkpt><trkpt lat="45.4786133" lon="9.0753383"><ele>132.0</ele><time>2026-04-11T06:16:06.947Z</time></trkpt><trkpt lat="45.4783767" lon="9.0755767"><ele>132.0</ele><time>2026-04-11T06:16:07.946Z</time></trkpt><trkpt lat="45.4781433" lon="9.07579"><ele>131.5</ele><time>2026-04-11T06:16:08.947Z</time></trkpt><trkpt lat="45.4779167" lon="9.076005"><ele>131.0</ele><time>2026-04-11T06:16:09.947Z</time></trkpt><trkpt lat="45.4776917" lon="9.0762283"><ele>131.0</ele><time>2026-04-11T06:16:10.947Z</time></trkpt><trkpt lat="45.4774583" lon="9.0764517"><ele>131.0</ele><time>2026-04-11T06:16:11.947Z</time></trkpt><trkpt lat="45.4772167" lon="9.07669"><ele>130.5</ele><time>2026-04-11T06:16:12.947Z</time></trkpt><trkpt lat="45.4769767" lon="9.07692"><ele>130.0</ele><time>2026-04-11T06:16:13.947Z</time></trkpt><trkpt lat="45.4767367" lon="9.0771383"><ele>130.0</ele><time>2026-04-11T06:16:14.947Z</time></trkpt><trkpt lat="45.476495" lon="9.0773583"><ele>130.0</ele><time>2026-04-11T06:16:15.947Z</time></trkpt><trkpt lat="45.47626" lon="9.0775683"><ele>130.5</ele><time>2026-04-11T06:16:16.947Z</time></trkpt><trkpt lat="45.4760167" lon="9.0777883"><ele>131.0</ele><time>2026-04-11T06:16:17.947Z</time></trkpt><trkpt lat="45.4757833" lon="9.0780133"><ele>131.0</ele><time>2026-04-11T06:16:18.947Z</time></trkpt><trkpt lat="45.4755517" lon="9.0782217"><ele>131.0</ele><time>2026-04-11T06:16:19.947Z</time></trkpt><trkpt lat="45.4753267" lon="9.0784167"><ele>131.5</ele><time>2026-04-11T06:16:20.946Z</time></trkpt><trkpt lat="45.4751083" lon="9.0785983"><ele>132.0</ele><time>2026-04-11T06:16:21.947Z</time></trkpt><trkpt lat="45.474895" lon="9.0787717"><ele>132.0</ele><time>2026-04-11T06:16:22.947Z</time></trkpt><trkpt lat="45.4746883" lon="9.078915"><ele>132.0</ele><time>2026-04-11T06:16:23.947Z</time></trkpt><trkpt lat="45.4744783" lon="9.0790383"><ele>131.0</ele><time>2026-04-11T06:16:24.947Z</time></trkpt><trkpt lat="45.4742533" lon="9.0791683"><ele>130.0</ele><time>2026-04-11T06:16:25.946Z</time></trkpt><trkpt lat="45.4740183" lon="9.07927"><ele>130.0</ele><time>2026-04-11T06:16:26.947Z</time></trkpt><trkpt lat="45.4737867" lon="9.07937"><ele>130.0</ele><time>2026-04-11T06:16:27.947Z</time></trkpt><trkpt lat="45.47353" lon="9.07945"><ele>130.0</ele><time>2026-04-11T06:16:28.947Z</time></trkpt><trkpt lat="45.4732817" lon="9.0795117"><ele>130.0</ele><time>2026-04-11T06:16:29.946Z</time></trkpt><trkpt lat="45.473035" lon="9.0795617"><ele>129.0</ele><time>2026-04-11T06:16:30.947Z</time></trkpt><trkpt lat="45.4727883" lon="9.0795917"><ele>128.0</ele><time>2026-04-11T06:16:31.947Z</time></trkpt><trkpt lat="45.472545" lon="9.0796067"><ele>128.0</ele><time>2026-04-11T06:16:32.947Z</time></trkpt><trkpt lat="45.47231" lon="9.079625"><ele>128.0</ele><time>2026-04-11T06:16:33.947Z</time></trkpt><trkpt lat="45.4720767" lon="9.0796033"><ele>128.0</ele><time>2026-04-11T06:16:34.947Z</time></trkpt><trkpt lat="45.4718367" lon="9.0795683"><ele>128.0</ele><time>2026-04-11T06:16:35.947Z</time></trkpt><trkpt lat="45.4716067" lon="9.0795167"><ele>128.0</ele><time>2026-04-11T06:16:36.947Z</time></trkpt><trkpt lat="45.47137" lon="9.0794617"><ele>128.0</ele><time>2026-04-11T06:16:37.947Z</time></trkpt><trkpt lat="45.4711417" lon="9.079395"><ele>128.0</ele><time>2026-04-11T06:16:38.947Z</time></trkpt><trkpt lat="45.4709017" lon="9.07929"><ele>128.0</ele><time>2026-04-11T06:16:39.947Z</time></trkpt><trkpt lat="45.470655" lon="9.07917"><ele>128.0</ele><time>2026-04-11T06:16:40.947Z</time></trkpt><trkpt lat="45.4704267" lon="9.0790533"><ele>128.0</ele><time>2026-04-11T06:16:41.947Z</time></trkpt><trkpt lat="45.4701817" lon="9.0789233"><ele>128.0</ele><time>2026-04-11T06:16:42.947Z</time></trkpt><trkpt lat="45.469945" lon="9.078795"><ele>128.0</ele><time>2026-04-11T06:16:43.947Z</time></trkpt><trkpt lat="45.4696933" lon="9.0786517"><ele>129.0</ele><time>2026-04-11T06:16:44.947Z</time></trkpt><trkpt lat="45.469465" lon="9.07851"><ele>130.0</ele><time>2026-04-11T06:16:45.946Z</time></trkpt><trkpt lat="45.46924" lon="9.0783817"><ele>130.0</ele><time>2026-04-11T06:16:46.947Z</time></trkpt><trkpt lat="45.4689767" lon="9.0782717"><ele>130.0</ele><time>2026-04-11T06:16:47.947Z</time></trkpt><trkpt lat="45.4687733" lon="9.0781383"><ele>128.5</ele><time>2026-04-11T06:16:48.947Z</time></trkpt><trkpt lat="45.4685617" lon="9.0780167"><ele>127.0</ele><time>2026-04-11T06:16:49.946Z</time></trkpt><trkpt lat="45.468355" lon="9.077885"><ele>127.0</ele><time>2026-04-11T06:16:50.947Z</time></trkpt><trkpt lat="45.4681467" lon="9.07775"><ele>127.0</ele><time>2026-04-11T06:16:51.947Z</time></trkpt><trkpt lat="45.4679283" lon="9.0776167"><ele>126.5</ele><time>2026-04-11T06:16:52.946Z</time></trkpt><trkpt lat="45.46771" lon="9.077485"><ele>126.0</ele><time>2026-04-11T06:16:53.947Z</time></trkpt><trkpt lat="45.46749" lon="9.077355"><ele>126.0</ele><time>2026-04-11T06:16:54.947Z</time></trkpt><trkpt lat="45.4672767" lon="9.077225"><ele>126.0</ele><time>2026-04-11T06:16:55.947Z</time></trkpt><trkpt lat="45.4670617" lon="9.0771017"><ele>127.0</ele><time>2026-04-11T06:16:56.947Z</time></trkpt><trkpt lat="45.4668483" lon="9.0769817"><ele>128.0</ele><time>2026-04-11T06:16:57.946Z</time></trkpt><trkpt lat="45.4666333" lon="9.0768717"><ele>128.0</ele><time>2026-04-11T06:16:58.946Z</time></trkpt><trkpt lat="45.4664133" lon="9.0767467"><ele>128.0</ele><time>2026-04-11T06:16:59.947Z</time></trkpt><trkpt lat="45.4661917" lon="9.0766217"><ele>127.5</ele><time>2026-04-11T06:17:00.947Z</time></trkpt><trkpt lat="45.4659633" lon="9.0765133"><ele>127.0</ele><time>2026-04-11T06:17:01.946Z</time></trkpt><trkpt lat="45.46573" lon="9.0764183"><ele>127.0</ele><time>2026-04-11T06:17:02.947Z</time></trkpt><trkpt lat="45.4654967" lon="9.0763333"><ele>127.0</ele><time>2026-04-11T06:17:03.947Z</time></trkpt><trkpt lat="45.4652617" lon="9.07626"><ele>128.5</ele><time>2026-04-11T06:17:04.947Z</time></trkpt><trkpt lat="45.465025" lon="9.0761967"><ele>130.0</ele><time>2026-04-11T06:17:05.947Z</time></trkpt><trkpt lat="45.4647833" lon="9.07614"><ele>130.0</ele><time>2026-04-11T06:17:06.947Z</time></trkpt><trkpt lat="45.4645433" lon="9.0760983"><ele>130.0</ele><time>2026-04-11T06:17:07.947Z</time></trkpt><trkpt lat="45.4643133" lon="9.07606"><ele>130.0</ele><time>2026-04-11T06:17:08.947Z</time></trkpt><trkpt lat="45.4640767" lon="9.07603"><ele>130.0</ele><time>2026-04-11T06:17:09.947Z</time></trkpt><trkpt lat="45.46384" lon="9.0760067"><ele>129.5</ele><time>2026-04-11T06:17:10.947Z</time></trkpt><trkpt lat="45.4635733" lon="9.075985"><ele>129.0</ele><time>2026-04-11T06:17:11.947Z</time></trkpt><trkpt lat="45.4633533" lon="9.0760233"><ele>129.0</ele><time>2026-04-11T06:17:12.947Z</time></trkpt><trkpt lat="45.4631117" lon="9.076055"><ele>129.0</ele><time>2026-04-11T06:17:13.947Z</time></trkpt><trkpt lat="45.4628817" lon="9.0760983"><ele>128.0</ele><time>2026-04-11T06:17:14.947Z</time></trkpt><trkpt lat="45.462645" lon="9.076145"><ele>127.0</ele><time>2026-04-11T06:17:15.947Z</time></trkpt><trkpt lat="45.4624133" lon="9.0762"><ele>127.0</ele><time>2026-04-11T06:17:16.947Z</time></trkpt><trkpt lat="45.4621717" lon="9.0762667"><ele>127.0</ele><time>2026-04-11T06:17:17.946Z</time></trkpt><trkpt lat="45.4619267" lon="9.076345"><ele>126.5</ele><time>2026-04-11T06:17:18.947Z</time></trkpt><trkpt lat="45.4616483" lon="9.0764217"><ele>126.0</ele><time>2026-04-11T06:17:19.947Z</time></trkpt><trkpt lat="45.4613917" lon="9.0764867"><ele>125.5</ele><time>2026-04-11T06:17:20.946Z</time></trkpt><trkpt lat="45.4611233" lon="9.0765817"><ele>125.0</ele><time>2026-04-11T06:17:21.947Z</time></trkpt><trkpt lat="45.4608533" lon="9.0766583"><ele>126.0</ele><time>2026-04-11T06:17:22.946Z</time></trkpt><trkpt lat="45.4605767" lon="9.0767367"><ele>127.0</ele><time>2026-04-11T06:17:23.947Z</time></trkpt><trkpt lat="45.4602933" lon="9.0768117"><ele>127.0</ele><time>2026-04-11T06:17:24.947Z</time></trkpt><trkpt lat="45.460005" lon="9.0768833"><ele>127.0</ele><time>2026-04-11T06:17:25.947Z</time></trkpt><trkpt lat="45.4597233" lon="9.0769767"><ele>127.0</ele><time>2026-04-11T06:17:26.947Z</time></trkpt><trkpt lat="45.45943" lon="9.077045"><ele>127.0</ele><time>2026-04-11T06:17:27.947Z</time></trkpt><trkpt lat="45.45913" lon="9.0771117"><ele>127.0</ele><time>2026-04-11T06:17:28.947Z</time></trkpt><trkpt lat="45.4588267" lon="9.077175"><ele>127.0</ele><time>2026-04-11T06:17:29.947Z</time></trkpt><trkpt lat="45.458525" lon="9.0772317"><ele>127.5</ele><time>2026-04-11T06:17:30.947Z</time></trkpt><trkpt lat="45.458225" lon="9.0772867"><ele>128.0</ele><time>2026-04-11T06:17:31.947Z</time></trkpt><trkpt lat="45.4579267" lon="9.07733"><ele>126.0</ele><time>2026-04-11T06:17:32.947Z</time></trkpt><trkpt lat="45.4576317" lon="9.0773617"><ele>124.0</ele><time>2026-04-11T06:17:33.947Z</time></trkpt><trkpt lat="45.4573383" lon="9.0773783"><ele>123.5</ele><time>2026-04-11T06:17:34.947Z</time></trkpt><trkpt lat="45.4570433" lon="9.07738"><ele>123.0</ele><time>2026-04-11T06:17:35.947Z</time></trkpt><trkpt lat="45.4567533" lon="9.0773733"><ele>123.0</ele><time>2026-04-11T06:17:36.947Z</time></trkpt><trkpt lat="45.4564633" lon="9.077355"><ele>123.0</ele><time>2026-04-11T06:17:37.947Z</time></trkpt><trkpt lat="45.456165" lon="9.0773117"><ele>123.0</ele><time>2026-04-11T06:17:38.947Z</time></trkpt><trkpt lat="45.4558783" lon="9.077265"><ele>123.0</ele><time>2026-04-11T06:17:39.947Z</time></trkpt><trkpt lat="45.4555967" lon="9.0772133"><ele>122.5</ele><time>2026-04-11T06:17:40.947Z</time></trkpt><trkpt lat="45.45531" lon="9.0771333"><ele>122.0</ele><time>2026-04-11T06:17:41.947Z</time></trkpt><trkpt lat="45.4550283" lon="9.0770533"><ele>122.0</ele><time>2026-04-11T06:17:42.947Z</time></trkpt><trkpt lat="45.4547817" lon="9.0769633"><ele>122.0</ele><time>2026-04-11T06:17:43.947Z</time></trkpt><trkpt lat="45.454485" lon="9.0768967"><ele>122.5</ele><time>2026-04-11T06:17:44.947Z</time></trkpt><trkpt lat="45.4541983" lon="9.0768233"><ele>123.0</ele><time>2026-04-11T06:17:45.946Z</time></trkpt><trkpt lat="45.4539017" lon="9.076745"><ele>123.0</ele><time>2026-04-11T06:17:46.946Z</time></trkpt><trkpt lat="45.453595" lon="9.0766567"><ele>123.0</ele><time>2026-04-11T06:17:47.946Z</time></trkpt><trkpt lat="45.4532933" lon="9.0765667"><ele>122.5</ele><time>2026-04-11T06:17:48.946Z</time></trkpt><trkpt lat="45.4529883" lon="9.0764733"><ele>122.0</ele><time>2026-04-11T06:17:49.947Z</time></trkpt><trkpt lat="45.4526767" lon="9.0763767"><ele>122.0</ele><time>2026-04-11T06:17:50.947Z</time></trkpt><trkpt lat="45.452365" lon="9.0762867"><ele>122.0</ele><time>2026-04-11T06:17:51.947Z</time></trkpt><trkpt lat="45.4520517" lon="9.076195"><ele>122.0</ele><time>2026-04-11T06:17:52.947Z</time></trkpt><trkpt lat="45.4517383" lon="9.0760983"><ele>122.0</ele><time>2026-04-11T06:17:53.947Z</time></trkpt><trkpt lat="45.4514233" lon="9.0760017"><ele>122.0</ele><time>2026-04-11T06:17:54.947Z</time></trkpt><trkpt lat="45.4511083" lon="9.075905"><ele>122.0</ele><time>2026-04-11T06:17:55.947Z</time></trkpt><trkpt lat="45.4507917" lon="9.0758167"><ele>122.0</ele><time>2026-04-11T06:17:56.947Z</time></trkpt><trkpt lat="45.450475" lon="9.0757167"><ele>122.0</ele><time>2026-04-11T06:17:57.947Z</time></trkpt><trkpt lat="45.4501567" lon="9.075625"><ele>122.0</ele><time>2026-04-11T06:17:58.947Z</time></trkpt><trkpt lat="45.44984" lon="9.0755267"><ele>122.0</ele><time>2026-04-11T06:17:59.947Z</time></trkpt><trkpt lat="45.449525" lon="9.075435"><ele>122.0</ele><time>2026-04-11T06:18:00.947Z</time></trkpt><trkpt lat="45.4492133" lon="9.07534"><ele>122.0</ele><time>2026-04-11T06:18:01.947Z</time></trkpt><trkpt lat="45.448895" lon="9.0752383"><ele>121.5</ele><time>2026-04-11T06:18:02.946Z</time></trkpt><trkpt lat="45.4485717" lon="9.0751367"><ele>121.0</ele><time>2026-04-11T06:18:03.947Z</time></trkpt><trkpt lat="45.4482517" lon="9.0750333"><ele>120.5</ele><time>2026-04-11T06:18:04.947Z</time></trkpt><trkpt lat="45.44793" lon="9.0749333"><ele>120.0</ele><time>2026-04-11T06:18:05.947Z</time></trkpt><trkpt lat="45.4476183" lon="9.074835"><ele>120.0</ele><time>2026-04-11T06:18:06.947Z</time></trkpt><trkpt lat="45.4473017" lon="9.0747433"><ele>120.0</ele><time>2026-04-11T06:18:07.947Z</time></trkpt><trkpt lat="45.4469833" lon="9.07465"><ele>120.5</ele><time>2026-04-11T06:18:08.947Z</time></trkpt><trkpt lat="45.4466683" lon="9.07455"><ele>121.0</ele><time>2026-04-11T06:18:09.947Z</time></trkpt><trkpt lat="45.446345" lon="9.0744517"><ele>121.5</ele><time>2026-04-11T06:18:10.947Z</time></trkpt><trkpt lat="45.4460283" lon="9.0743567"><ele>122.0</ele><time>2026-04-11T06:18:11.947Z</time></trkpt><trkpt lat="45.4457133" lon="9.0742633"><ele>122.0</ele><time>2026-04-11T06:18:12.947Z</time></trkpt><trkpt lat="45.4454017" lon="9.074175"><ele>122.0</ele><time>2026-04-11T06:18:13.947Z</time></trkpt><trkpt lat="45.4450817" lon="9.0740883"><ele>122.0</ele><time>2026-04-11T06:18:14.947Z</time></trkpt><trkpt lat="45.44477" lon="9.0740133"><ele>122.0</ele><time>2026-04-11T06:18:15.947Z</time></trkpt><trkpt lat="45.44446" lon="9.0739433"><ele>121.5</ele><time>2026-04-11T06:18:16.947Z</time></trkpt><trkpt lat="45.4441517" lon="9.07388"><ele>121.0</ele><time>2026-04-11T06:18:17.946Z</time></trkpt><trkpt lat="45.4438433" lon="9.0738267"><ele>120.0</ele><time>2026-04-11T06:18:18.946Z</time></trkpt><trkpt lat="45.4435417" lon="9.0737833"><ele>119.0</ele><time>2026-04-11T06:18:19.946Z</time></trkpt><trkpt lat="45.4432333" lon="9.073745"><ele>117.5</ele><time>2026-04-11T06:18:20.946Z</time></trkpt><trkpt lat="45.442935" lon="9.073715"><ele>116.0</ele><time>2026-04-11T06:18:21.946Z</time></trkpt><trkpt lat="45.4426333" lon="9.0736883"><ele>116.0</ele><time>2026-04-11T06:18:22.946Z</time></trkpt><trkpt lat="45.44233" lon="9.0736667"><ele>116.0</ele><time>2026-04-11T06:18:23.946Z</time></trkpt><trkpt lat="45.4420283" lon="9.0736633"><ele>118.5</ele><time>2026-04-11T06:18:24.945Z</time></trkpt><trkpt lat="45.4417317" lon="9.0736583"><ele>121.0</ele><time>2026-04-11T06:18:25.946Z</time></trkpt><trkpt lat="45.4414367" lon="9.073665"><ele>120.0</ele><time>2026-04-11T06:18:26.946Z</time></trkpt><trkpt lat="45.4411467" lon="9.07368"><ele>119.0</ele><time>2026-04-11T06:18:27.946Z</time></trkpt><trkpt lat="45.44085" lon="9.0737033"><ele>119.0</ele><time>2026-04-11T06:18:28.946Z</time></trkpt><trkpt lat="45.440555" lon="9.0737267"><ele>119.0</ele><time>2026-04-11T06:18:29.946Z</time></trkpt><trkpt lat="45.4402633" lon="9.0737633"><ele>118.5</ele><time>2026-04-11T06:18:30.946Z</time></trkpt><trkpt lat="45.43997" lon="9.073795"><ele>118.0</ele><time>2026-04-11T06:18:31.946Z</time></trkpt><trkpt lat="45.43967" lon="9.07382"><ele>117.0</ele><time>2026-04-11T06:18:32.946Z</time></trkpt><trkpt lat="45.439375" lon="9.0738483"><ele>116.0</ele><time>2026-04-11T06:18:33.946Z</time></trkpt><trkpt lat="45.43908" lon="9.0738717"><ele>116.5</ele><time>2026-04-11T06:18:34.946Z</time></trkpt><trkpt lat="45.4387833" lon="9.0739"><ele>117.0</ele><time>2026-04-11T06:18:35.946Z</time></trkpt><trkpt lat="45.438485" lon="9.07392"><ele>117.0</ele><time>2026-04-11T06:18:36.946Z</time></trkpt><trkpt lat="45.4381917" lon="9.073945"><ele>117.0</ele><time>2026-04-11T06:18:37.946Z</time></trkpt><trkpt lat="45.4378967" lon="9.0739783"><ele>116.5</ele><time>2026-04-11T06:18:38.946Z</time></trkpt><trkpt lat="45.4376033" lon="9.0740117"><ele>116.0</ele><time>2026-04-11T06:18:39.946Z</time></trkpt><trkpt lat="45.43731" lon="9.074035"><ele>117.0</ele><time>2026-04-11T06:18:40.946Z</time></trkpt><trkpt lat="45.43702" lon="9.0740633"><ele>118.0</ele><time>2026-04-11T06:18:41.946Z</time></trkpt><trkpt lat="45.4367267" lon="9.07409"><ele>118.0</ele><time>2026-04-11T06:18:42.946Z</time></trkpt><trkpt lat="45.43643" lon="9.0741183"><ele>118.0</ele><time>2026-04-11T06:18:43.946Z</time></trkpt><trkpt lat="45.4361417" lon="9.0741483"><ele>118.0</ele><time>2026-04-11T06:18:44.946Z</time></trkpt><trkpt lat="45.435855" lon="9.0742"><ele>118.0</ele><time>2026-04-11T06:18:45.945Z</time></trkpt><trkpt lat="45.4355733" lon="9.07423"><ele>118.0</ele><time>2026-04-11T06:18:46.946Z</time></trkpt><trkpt lat="45.4352783" lon="9.07427"><ele>118.0</ele><time>2026-04-11T06:18:47.946Z</time></trkpt><trkpt lat="45.4349817" lon="9.0743083"><ele>118.0</ele><time>2026-04-11T06:18:48.946Z</time></trkpt><trkpt lat="45.4346983" lon="9.074345"><ele>118.0</ele><time>2026-04-11T06:18:49.946Z</time></trkpt><trkpt lat="45.4344167" lon="9.07438"><ele>117.5</ele><time>2026-04-11T06:18:50.945Z</time></trkpt><trkpt lat="45.4341283" lon="9.07442"><ele>117.0</ele><time>2026-04-11T06:18:51.946Z</time></trkpt><trkpt lat="45.433845" lon="9.0744617"><ele>117.5</ele><time>2026-04-11T06:18:52.946Z</time></trkpt><trkpt lat="45.4335517" lon="9.0745033"><ele>118.0</ele><time>2026-04-11T06:18:53.946Z</time></trkpt><trkpt lat="45.4332617" lon="9.0745467"><ele>118.0</ele><time>2026-04-11T06:18:54.946Z</time></trkpt><trkpt lat="45.432975" lon="9.0745767"><ele>118.0</ele><time>2026-04-11T06:18:55.946Z</time></trkpt><trkpt lat="45.4326767" lon="9.07462"><ele>117.0</ele><time>2026-04-11T06:18:56.946Z</time></trkpt><trkpt lat="45.4323867" lon="9.07467"><ele>116.0</ele><time>2026-04-11T06:18:57.946Z</time></trkpt><trkpt lat="45.4320967" lon="9.0747317"><ele>116.0</ele><time>2026-04-11T06:18:58.946Z</time></trkpt><trkpt lat="45.4318117" lon="9.0748017"><ele>116.0</ele><time>2026-04-11T06:18:59.946Z</time></trkpt><trkpt lat="45.431525" lon="9.07488"><ele>116.0</ele><time>2026-04-11T06:19:00.946Z</time></trkpt><trkpt lat="45.4312433" lon="9.0749667"><ele>116.0</ele><time>2026-04-11T06:19:01.946Z</time></trkpt><trkpt lat="45.4309583" lon="9.07506"><ele>116.0</ele><time>2026-04-11T06:19:02.946Z</time></trkpt><trkpt lat="45.4306783" lon="9.0751667"><ele>116.0</ele><time>2026-04-11T06:19:03.946Z</time></trkpt><trkpt lat="45.4303967" lon="9.0752717"><ele>116.5</ele><time>2026-04-11T06:19:04.946Z</time></trkpt><trkpt lat="45.430115" lon="9.0753867"><ele>117.0</ele><time>2026-04-11T06:19:05.945Z</time></trkpt><trkpt lat="45.4298367" lon="9.0755117"><ele>117.0</ele><time>2026-04-11T06:19:06.946Z</time></trkpt><trkpt lat="45.429565" lon="9.07564"><ele>117.0</ele><time>2026-04-11T06:19:07.946Z</time></trkpt><trkpt lat="45.4292917" lon="9.0757817"><ele>117.5</ele><time>2026-04-11T06:19:08.946Z</time></trkpt><trkpt lat="45.4290267" lon="9.0759267"><ele>118.0</ele><time>2026-04-11T06:19:09.946Z</time></trkpt><trkpt lat="45.428765" lon="9.0760783"><ele>116.5</ele><time>2026-04-11T06:19:10.945Z</time></trkpt><trkpt lat="45.4284983" lon="9.0762383"><ele>115.0</ele><time>2026-04-11T06:19:11.946Z</time></trkpt><trkpt lat="45.4282317" lon="9.0764083"><ele>114.5</ele><time>2026-04-11T06:19:12.946Z</time></trkpt><trkpt lat="45.42796" lon="9.0765683"><ele>114.0</ele><time>2026-04-11T06:19:13.946Z</time></trkpt><trkpt lat="45.4276983" lon="9.0767383"><ele>116.5</ele><time>2026-04-11T06:19:14.946Z</time></trkpt><trkpt lat="45.4274383" lon="9.0769117"><ele>119.0</ele><time>2026-04-11T06:19:15.946Z</time></trkpt><trkpt lat="45.4271767" lon="9.077075"><ele>119.0</ele><time>2026-04-11T06:19:16.945Z</time></trkpt><trkpt lat="45.42691" lon="9.0772367"><ele>119.0</ele><time>2026-04-11T06:19:17.946Z</time></trkpt><trkpt lat="45.426645" lon="9.0774017"><ele>119.5</ele><time>2026-04-11T06:19:18.946Z</time></trkpt><trkpt lat="45.42638" lon="9.077565"><ele>120.0</ele><time>2026-04-11T06:19:19.946Z</time></trkpt><trkpt lat="45.4261167" lon="9.077735"><ele>119.0</ele><time>2026-04-11T06:19:20.946Z</time></trkpt><trkpt lat="45.4258517" lon="9.077895"><ele>118.0</ele><time>2026-04-11T06:19:21.946Z</time></trkpt><trkpt lat="45.425585" lon="9.07806"><ele>118.0</ele><time>2026-04-11T06:19:22.946Z</time></trkpt><trkpt lat="45.4253233" lon="9.078225"><ele>118.0</ele><time>2026-04-11T06:19:23.946Z</time></trkpt><trkpt lat="45.4250683" lon="9.07839"><ele>118.5</ele><time>2026-04-11T06:19:24.946Z</time></trkpt><trkpt lat="45.4248317" lon="9.07853"><ele>119.0</ele><time>2026-04-11T06:19:25.946Z</time></trkpt><trkpt lat="45.4246083" lon="9.0786633"><ele>117.0</ele><time>2026-04-11T06:19:26.946Z</time></trkpt><trkpt lat="45.4243833" lon="9.0787667"><ele>115.0</ele><time>2026-04-11T06:19:27.945Z</time></trkpt><trkpt lat="45.4241683" lon="9.0788917"><ele>115.0</ele><time>2026-04-11T06:19:28.946Z</time></trkpt><trkpt lat="45.423955" lon="9.0790517"><ele>115.0</ele><time>2026-04-11T06:19:29.946Z</time></trkpt><trkpt lat="45.4237367" lon="9.0791833"><ele>114.0</ele><time>2026-04-11T06:19:30.946Z</time></trkpt><trkpt lat="45.4235233" lon="9.0793333"><ele>113.0</ele><time>2026-04-11T06:19:31.946Z</time></trkpt><trkpt lat="45.4233217" lon="9.0794883"><ele>113.0</ele><time>2026-04-11T06:19:32.945Z</time></trkpt><trkpt lat="45.423085" lon="9.0796183"><ele>113.0</ele><time>2026-04-11T06:19:33.946Z</time></trkpt><trkpt lat="45.422855" lon="9.0797483"><ele>114.5</ele><time>2026-04-11T06:19:34.946Z</time></trkpt><trkpt lat="45.4226333" lon="9.0798933"><ele>116.0</ele><time>2026-04-11T06:19:35.946Z</time></trkpt><trkpt lat="45.4224067" lon="9.08003"><ele>116.0</ele><time>2026-04-11T06:19:36.946Z</time></trkpt><trkpt lat="45.4221817" lon="9.0801633"><ele>116.0</ele><time>2026-04-11T06:19:37.946Z</time></trkpt><trkpt lat="45.4219383" lon="9.0802933"><ele>116.5</ele><time>2026-04-11T06:19:38.946Z</time></trkpt><trkpt lat="45.421735" lon="9.0804167"><ele>117.0</ele><time>2026-04-11T06:19:39.946Z</time></trkpt><trkpt lat="45.4215217" lon="9.08055"><ele>117.0</ele><time>2026-04-11T06:19:40.946Z</time></trkpt><trkpt lat="45.42132" lon="9.08069"><ele>117.0</ele><time>2026-04-11T06:19:41.945Z</time></trkpt><trkpt lat="45.4211017" lon="9.0808233"><ele>116.5</ele><time>2026-04-11T06:19:42.946Z</time></trkpt><trkpt lat="45.4209" lon="9.0809817"><ele>116.0</ele><time>2026-04-11T06:19:43.946Z</time></trkpt><trkpt lat="45.4206933" lon="9.08113"><ele>116.0</ele><time>2026-04-11T06:19:44.946Z</time></trkpt><trkpt lat="45.4204833" lon="9.08129"><ele>116.0</ele><time>2026-04-11T06:19:45.946Z</time></trkpt><trkpt lat="45.4202733" lon="9.0814683"><ele>115.0</ele><time>2026-04-11T06:19:46.946Z</time></trkpt><trkpt lat="45.4200633" lon="9.0816533"><ele>114.0</ele><time>2026-04-11T06:19:47.946Z</time></trkpt><trkpt lat="45.419855" lon="9.0818417"><ele>113.0</ele><time>2026-04-11T06:19:48.946Z</time></trkpt><trkpt lat="45.4196483" lon="9.082045"><ele>112.0</ele><time>2026-04-11T06:19:49.946Z</time></trkpt><trkpt lat="45.4194367" lon="9.082235"><ele>112.0</ele><time>2026-04-11T06:19:50.946Z</time></trkpt><trkpt lat="45.41922" lon="9.0824583"><ele>112.0</ele><time>2026-04-11T06:19:51.946Z</time></trkpt><trkpt lat="45.4190167" lon="9.08268"><ele>112.0</ele><time>2026-04-11T06:19:52.946Z</time></trkpt><trkpt lat="45.41882" lon="9.0829133"><ele>112.0</ele><time>2026-04-11T06:19:53.946Z</time></trkpt><trkpt lat="45.4186283" lon="9.0831517"><ele>113.0</ele><time>2026-04-11T06:19:54.946Z</time></trkpt><trkpt lat="45.4184217" lon="9.0834133"><ele>114.0</ele><time>2026-04-11T06:19:55.945Z</time></trkpt><trkpt lat="45.4182233" lon="9.0836733"><ele>114.0</ele><time>2026-04-11T06:19:56.946Z</time></trkpt><trkpt lat="45.418035" lon="9.0839367"><ele>114.0</ele><time>2026-04-11T06:19:57.946Z</time></trkpt><trkpt lat="45.4178583" lon="9.0842083"><ele>114.0</ele><time>2026-04-11T06:19:58.946Z</time></trkpt><trkpt lat="45.4176817" lon="9.084485"><ele>114.0</ele><time>2026-04-11T06:19:59.946Z</time></trkpt><trkpt lat="45.4174983" lon="9.0847567"><ele>112.5</ele><time>2026-04-11T06:20:00.946Z</time></trkpt><trkpt lat="45.4173133" lon="9.0850317"><ele>111.0</ele><time>2026-04-11T06:20:01.945Z</time></trkpt><trkpt lat="45.417185" lon="9.0853283"><ele>112.5</ele><time>2026-04-11T06:20:02.946Z</time></trkpt><trkpt lat="45.4170317" lon="9.08562"><ele>114.0</ele><time>2026-04-11T06:20:03.945Z</time></trkpt><trkpt lat="45.416885" lon="9.0859267"><ele>114.0</ele><time>2026-04-11T06:20:04.946Z</time></trkpt><trkpt lat="45.4167367" lon="9.0862383"><ele>114.0</ele><time>2026-04-11T06:20:05.946Z</time></trkpt><trkpt lat="45.416605" lon="9.0865483"><ele>113.5</ele><time>2026-04-11T06:20:06.946Z</time></trkpt><trkpt lat="45.41647" lon="9.0868617"><ele>113.0</ele><time>2026-04-11T06:20:07.946Z</time></trkpt><trkpt lat="45.4163633" lon="9.08714"><ele>113.0</ele><time>2026-04-11T06:20:08.946Z</time></trkpt><trkpt lat="45.416265" lon="9.087415"><ele>113.0</ele><time>2026-04-11T06:20:09.946Z</time></trkpt><trkpt lat="45.416165" lon="9.0876933"><ele>113.0</ele><time>2026-04-11T06:20:10.946Z</time></trkpt><trkpt lat="45.4160667" lon="9.0879717"><ele>113.0</ele><time>2026-04-11T06:20:11.946Z</time></trkpt><trkpt lat="45.41597" lon="9.0882633"><ele>113.0</ele><time>2026-04-11T06:20:12.946Z</time></trkpt><trkpt lat="45.4158717" lon="9.0885633"><ele>113.0</ele><time>2026-04-11T06:20:13.946Z</time></trkpt><trkpt lat="45.4157917" lon="9.0888617"><ele>113.0</ele><time>2026-04-11T06:20:14.946Z</time></trkpt><trkpt lat="45.4157067" lon="9.0891533"><ele>113.0</ele><time>2026-04-11T06:20:15.946Z</time></trkpt><trkpt lat="45.4156133" lon="9.0894567"><ele>111.5</ele><time>2026-04-11T06:20:16.946Z</time></trkpt><trkpt lat="45.4155233" lon="9.0897667"><ele>110.0</ele><time>2026-04-11T06:20:17.946Z</time></trkpt><trkpt lat="45.4154333" lon="9.0900783"><ele>110.0</ele><time>2026-04-11T06:20:18.946Z</time></trkpt><trkpt lat="45.4153467" lon="9.090385"><ele>110.0</ele><time>2026-04-11T06:20:19.945Z</time></trkpt><trkpt lat="45.415255" lon="9.0907067"><ele>109.0</ele><time>2026-04-11T06:20:20.946Z</time></trkpt><trkpt lat="45.4151617" lon="9.091015"><ele>108.0</ele><time>2026-04-11T06:20:21.946Z</time></trkpt><trkpt lat="45.41507" lon="9.0913417"><ele>109.0</ele><time>2026-04-11T06:20:22.946Z</time></trkpt><trkpt lat="45.4149683" lon="9.0916817"><ele>110.0</ele><time>2026-04-11T06:20:23.946Z</time></trkpt><trkpt lat="45.4148733" lon="9.0919967"><ele>110.0</ele><time>2026-04-11T06:20:24.946Z</time></trkpt><trkpt lat="45.4147733" lon="9.0923283"><ele>110.0</ele><time>2026-04-11T06:20:25.946Z</time></trkpt><trkpt lat="45.4146633" lon="9.09268"><ele>110.0</ele><time>2026-04-11T06:20:26.946Z</time></trkpt><trkpt lat="45.4145483" lon="9.0930383"><ele>110.0</ele><time>2026-04-11T06:20:27.946Z</time></trkpt><trkpt lat="45.4144483" lon="9.093415"><ele>110.0</ele><time>2026-04-11T06:20:28.945Z</time></trkpt><trkpt lat="45.4143483" lon="9.0937567"><ele>110.0</ele><time>2026-04-11T06:20:29.946Z</time></trkpt><trkpt lat="45.41426" lon="9.0940833"><ele>110.0</ele><time>2026-04-11T06:20:30.946Z</time></trkpt><trkpt lat="45.4141667" lon="9.094405"><ele>110.0</ele><time>2026-04-11T06:20:31.946Z</time></trkpt><trkpt lat="45.41407" lon="9.09473"><ele>109.5</ele><time>2026-04-11T06:20:32.946Z</time></trkpt><trkpt lat="45.4139817" lon="9.0950533"><ele>109.0</ele><time>2026-04-11T06:20:33.946Z</time></trkpt><trkpt lat="45.4138817" lon="9.0953833"><ele>110.5</ele><time>2026-04-11T06:20:34.946Z</time></trkpt><trkpt lat="45.41378" lon="9.095725"><ele>112.0</ele><time>2026-04-11T06:20:35.946Z</time></trkpt><trkpt lat="45.4136817" lon="9.0960667"><ele>112.0</ele><time>2026-04-11T06:20:36.946Z</time></trkpt><trkpt lat="45.4135883" lon="9.0964117"><ele>112.0</ele><time>2026-04-11T06:20:37.946Z</time></trkpt><trkpt lat="45.4134883" lon="9.0967517"><ele>112.0</ele><time>2026-04-11T06:20:38.945Z</time></trkpt><trkpt lat="45.4133967" lon="9.0970683"><ele>112.0</ele><time>2026-04-11T06:20:39.945Z</time></trkpt><trkpt lat="45.4133067" lon="9.0973867"><ele>112.0</ele><time>2026-04-11T06:20:40.946Z</time></trkpt><trkpt lat="45.4132233" lon="9.0977283"><ele>112.0</ele><time>2026-04-11T06:20:41.946Z</time></trkpt><trkpt lat="45.41311" lon="9.0980583"><ele>111.5</ele><time>2026-04-11T06:20:42.946Z</time></trkpt><trkpt lat="45.4129217" lon="9.098455"><ele>111.0</ele><time>2026-04-11T06:20:43.946Z</time></trkpt><trkpt lat="45.4128067" lon="9.0987917"><ele>111.0</ele><time>2026-04-11T06:20:44.946Z</time></trkpt><trkpt lat="45.4127283" lon="9.0991"><ele>111.0</ele><time>2026-04-11T06:20:45.946Z</time></trkpt><trkpt lat="45.412675" lon="9.0993967"><ele>111.0</ele><time>2026-04-11T06:20:46.946Z</time></trkpt><trkpt lat="45.41261" lon="9.0996983"><ele>110.0</ele><time>2026-04-11T06:20:47.946Z</time></trkpt><trkpt lat="45.4125467" lon="9.1000083"><ele>109.0</ele><time>2026-04-11T06:20:48.946Z</time></trkpt><trkpt lat="45.4124667" lon="9.10031"><ele>109.0</ele><time>2026-04-11T06:20:49.946Z</time></trkpt><trkpt lat="45.412385" lon="9.1006067"><ele>109.0</ele><time>2026-04-11T06:20:50.945Z</time></trkpt><trkpt lat="45.4123" lon="9.100905"><ele>109.33333333333334</ele><time>2026-04-11T06:20:51.946Z</time></trkpt><trkpt lat="45.4122217" lon="9.1011883"><ele>109.66666666666666</ele><time>2026-04-11T06:20:52.945Z</time></trkpt><trkpt lat="45.4121383" lon="9.101485"><ele>110.0</ele><time>2026-04-11T06:20:53.946Z</time></trkpt><trkpt lat="45.4120667" lon="9.1017633"><ele>110.0</ele><time>2026-04-11T06:20:54.945Z</time></trkpt><trkpt lat="45.4119767" lon="9.10201"><ele>110.0</ele><time>2026-04-11T06:20:55.946Z</time></trkpt><trkpt lat="45.4118917" lon="9.102295"><ele>110.0</ele><time>2026-04-11T06:20:56.946Z</time></trkpt><trkpt lat="45.411815" lon="9.10258"><ele>110.0</ele><time>2026-04-11T06:20:57.946Z</time></trkpt><trkpt lat="45.4117433" lon="9.102865"><ele>110.0</ele><time>2026-04-11T06:20:58.946Z</time></trkpt><trkpt lat="45.411665" lon="9.1031367"><ele>110.0</ele><time>2026-04-11T06:20:59.945Z</time></trkpt><trkpt lat="45.4115867" lon="9.10341"><ele>110.0</ele><time>2026-04-11T06:21:00.946Z</time></trkpt><trkpt lat="45.4114933" lon="9.1036933"><ele>110.0</ele><time>2026-04-11T06:21:01.946Z</time></trkpt><trkpt lat="45.4114" lon="9.103985"><ele>110.0</ele><time>2026-04-11T06:21:02.946Z</time></trkpt><trkpt lat="45.411305" lon="9.1042617"><ele>109.66666666666666</ele><time>2026-04-11T06:21:03.946Z</time></trkpt><trkpt lat="45.4112083" lon="9.10454"><ele>109.33333333333334</ele><time>2026-04-11T06:21:04.946Z</time></trkpt><trkpt lat="45.4111067" lon="9.104815"><ele>109.0</ele><time>2026-04-11T06:21:05.946Z</time></trkpt><trkpt lat="45.411005" lon="9.10509"><ele>109.0</ele><time>2026-04-11T06:21:06.945Z</time></trkpt><trkpt lat="45.410895" lon="9.1053683"><ele>109.0</ele><time>2026-04-11T06:21:07.946Z</time></trkpt><trkpt lat="45.410775" lon="9.1056383"><ele>109.0</ele><time>2026-04-11T06:21:08.946Z</time></trkpt><trkpt lat="45.41066" lon="9.10591"><ele>109.33333333333334</ele><time>2026-04-11T06:21:09.946Z</time></trkpt><trkpt lat="45.410545" lon="9.1061817"><ele>109.66666666666666</ele><time>2026-04-11T06:21:10.946Z</time></trkpt><trkpt lat="45.4104283" lon="9.1064567"><ele>110.0</ele><time>2026-04-11T06:21:11.946Z</time></trkpt><trkpt lat="45.4103083" lon="9.1067333"><ele>110.0</ele><time>2026-04-11T06:21:12.946Z</time></trkpt><trkpt lat="45.41018" lon="9.106995"><ele>110.0</ele><time>2026-04-11T06:21:13.946Z</time></trkpt><trkpt lat="45.41005" lon="9.1072517"><ele>110.0</ele><time>2026-04-11T06:21:14.946Z</time></trkpt><trkpt lat="45.409925" lon="9.1075117"><ele>110.0</ele><time>2026-04-11T06:21:15.946Z</time></trkpt><trkpt lat="45.4097933" lon="9.10777"><ele>110.0</ele><time>2026-04-11T06:21:16.946Z</time></trkpt><trkpt lat="45.4096583" lon="9.10803"><ele>109.5</ele><time>2026-04-11T06:21:17.946Z</time></trkpt><trkpt lat="45.409515" lon="9.1082733"><ele>109.0</ele><time>2026-04-11T06:21:18.946Z</time></trkpt><trkpt lat="45.40937" lon="9.108525"><ele>109.0</ele><time>2026-04-11T06:21:19.946Z</time></trkpt><trkpt lat="45.4092217" lon="9.10878"><ele>109.0</ele><time>2026-04-11T06:21:20.946Z</time></trkpt><trkpt lat="45.4090683" lon="9.10904"><ele>109.0</ele><time>2026-04-11T06:21:21.946Z</time></trkpt><trkpt lat="45.40892" lon="9.109305"><ele>109.0</ele><time>2026-04-11T06:21:22.946Z</time></trkpt><trkpt lat="45.4087717" lon="9.1095617"><ele>109.0</ele><time>2026-04-11T06:21:23.946Z</time></trkpt><trkpt lat="45.4086233" lon="9.1098233"><ele>109.0</ele><time>2026-04-11T06:21:24.946Z</time></trkpt><trkpt lat="45.408475" lon="9.1100883"><ele>109.0</ele><time>2026-04-11T06:21:25.946Z</time></trkpt><trkpt lat="45.4083217" lon="9.110365"><ele>109.0</ele><time>2026-04-11T06:21:26.946Z</time></trkpt><trkpt lat="45.4081633" lon="9.110645"><ele>109.0</ele><time>2026-04-11T06:21:27.946Z</time></trkpt><trkpt lat="45.4080083" lon="9.1109167"><ele>109.0</ele><time>2026-04-11T06:21:28.946Z</time></trkpt><trkpt lat="45.4078533" lon="9.1111933"><ele>109.0</ele><time>2026-04-11T06:21:29.946Z</time></trkpt><trkpt lat="45.407695" lon="9.1114567"><ele>109.0</ele><time>2026-04-11T06:21:30.946Z</time></trkpt><trkpt lat="45.407545" lon="9.1117167"><ele>109.0</ele><time>2026-04-11T06:21:31.946Z</time></trkpt><trkpt lat="45.4074033" lon="9.1119683"><ele>109.0</ele><time>2026-04-11T06:21:32.946Z</time></trkpt><trkpt lat="45.4072633" lon="9.1122217"><ele>110.5</ele><time>2026-04-11T06:21:33.946Z</time></trkpt><trkpt lat="45.40712" lon="9.112475"><ele>112.0</ele><time>2026-04-11T06:21:34.946Z</time></trkpt><trkpt lat="45.40697" lon="9.1127467"><ele>112.0</ele><time>2026-04-11T06:21:35.945Z</time></trkpt><trkpt lat="45.4068033" lon="9.1130233"><ele>112.0</ele><time>2026-04-11T06:21:36.946Z</time></trkpt><trkpt lat="45.406655" lon="9.1133017"><ele>110.5</ele><time>2026-04-11T06:21:37.946Z</time></trkpt><trkpt lat="45.406495" lon="9.1136017"><ele>109.0</ele><time>2026-04-11T06:21:38.946Z</time></trkpt><trkpt lat="45.4063167" lon="9.113935"><ele>108.0</ele><time>2026-04-11T06:21:39.946Z</time></trkpt><trkpt lat="45.4061467" lon="9.1142433"><ele>107.0</ele><time>2026-04-11T06:21:40.946Z</time></trkpt><trkpt lat="45.4059583" lon="9.11458"><ele>107.5</ele><time>2026-04-11T06:21:41.946Z</time></trkpt><trkpt lat="45.4057717" lon="9.1149133"><ele>108.0</ele><time>2026-04-11T06:21:42.946Z</time></trkpt><trkpt lat="45.40558" lon="9.1152367"><ele>108.0</ele><time>2026-04-11T06:21:43.946Z</time></trkpt><trkpt lat="45.4053883" lon="9.115565"><ele>108.0</ele><time>2026-04-11T06:21:44.945Z</time></trkpt><trkpt lat="45.4051967" lon="9.1158833"><ele>108.0</ele><time>2026-04-11T06:21:45.946Z</time></trkpt><trkpt lat="45.4050017" lon="9.11621"><ele>108.0</ele><time>2026-04-11T06:21:46.946Z</time></trkpt><trkpt lat="45.4048217" lon="9.11653"><ele>108.5</ele><time>2026-04-11T06:21:47.946Z</time></trkpt><trkpt lat="45.4046333" lon="9.1168567"><ele>109.0</ele><time>2026-04-11T06:21:48.946Z</time></trkpt><trkpt lat="45.4044417" lon="9.1171833"><ele>109.0</ele><time>2026-04-11T06:21:49.946Z</time></trkpt><trkpt lat="45.404255" lon="9.1175067"><ele>109.0</ele><time>2026-04-11T06:21:50.946Z</time></trkpt><trkpt lat="45.4040667" lon="9.11783"><ele>109.0</ele><time>2026-04-11T06:21:51.946Z</time></trkpt><trkpt lat="45.40388" lon="9.11815"><ele>109.0</ele><time>2026-04-11T06:21:52.946Z</time></trkpt><trkpt lat="45.4036867" lon="9.1184633"><ele>109.0</ele><time>2026-04-11T06:21:53.945Z</time></trkpt><trkpt lat="45.403495" lon="9.11878"><ele>109.0</ele><time>2026-04-11T06:21:54.946Z</time></trkpt><trkpt lat="45.4033067" lon="9.1191017"><ele>109.0</ele><time>2026-04-11T06:21:55.946Z</time></trkpt><trkpt lat="45.403135" lon="9.1194117"><ele>109.0</ele><time>2026-04-11T06:21:56.946Z</time></trkpt><trkpt lat="45.4029583" lon="9.11971"><ele>108.5</ele><time>2026-04-11T06:21:57.946Z</time></trkpt><trkpt lat="45.4027867" lon="9.1200117"><ele>108.0</ele><time>2026-04-11T06:21:58.945Z</time></trkpt><trkpt lat="45.4026183" lon="9.120315"><ele>108.0</ele><time>2026-04-11T06:21:59.946Z</time></trkpt><trkpt lat="45.402455" lon="9.120605"><ele>108.0</ele><time>2026-04-11T06:22:00.946Z</time></trkpt><trkpt lat="45.40229" lon="9.1209"><ele>107.5</ele><time>2026-04-11T06:22:01.945Z</time></trkpt><trkpt lat="45.4021333" lon="9.1211883"><ele>107.0</ele><time>2026-04-11T06:22:02.946Z</time></trkpt><trkpt lat="45.4019717" lon="9.121455"><ele>107.0</ele><time>2026-04-11T06:22:03.946Z</time></trkpt><trkpt lat="45.4018117" lon="9.121735"><ele>107.0</ele><time>2026-04-11T06:22:04.946Z</time></trkpt><trkpt lat="45.401655" lon="9.1220117"><ele>107.0</ele><time>2026-04-11T06:22:05.946Z</time></trkpt><trkpt lat="45.4014933" lon="9.1223067"><ele>107.0</ele><time>2026-04-11T06:22:06.946Z</time></trkpt><trkpt lat="45.4013333" lon="9.1226083"><ele>108.0</ele><time>2026-04-11T06:22:07.946Z</time></trkpt><trkpt lat="45.4011683" lon="9.1229033"><ele>109.0</ele><time>2026-04-11T06:22:08.946Z</time></trkpt><trkpt lat="45.4010133" lon="9.1232133"><ele>109.0</ele><time>2026-04-11T06:22:09.946Z</time></trkpt><trkpt lat="45.4008583" lon="9.12351"><ele>109.0</ele><time>2026-04-11T06:22:10.946Z</time></trkpt><trkpt lat="45.4007083" lon="9.1238067"><ele>109.5</ele><time>2026-04-11T06:22:11.946Z</time></trkpt><trkpt lat="45.4005617" lon="9.1241017"><ele>110.0</ele><time>2026-04-11T06:22:12.945Z</time></trkpt><trkpt lat="45.4004183" lon="9.1244233"><ele>109.0</ele><time>2026-04-11T06:22:13.945Z</time></trkpt><trkpt lat="45.4002817" lon="9.1246967"><ele>108.0</ele><time>2026-04-11T06:22:14.946Z</time></trkpt><trkpt lat="45.4001817" lon="9.1249417"><ele>107.0</ele><time>2026-04-11T06:22:15.946Z</time></trkpt><trkpt lat="45.4000567" lon="9.1252267"><ele>107.0</ele><time>2026-04-11T06:22:16.946Z</time></trkpt><trkpt lat="45.3999167" lon="9.1255617"><ele>107.0</ele><time>2026-04-11T06:22:17.946Z</time></trkpt><trkpt lat="45.3997783" lon="9.1258933"><ele>106.0</ele><time>2026-04-11T06:22:18.946Z</time></trkpt><trkpt lat="45.3996367" lon="9.1262233"><ele>105.0</ele><time>2026-04-11T06:22:19.946Z</time></trkpt><trkpt lat="45.3995183" lon="9.1265533"><ele>105.0</ele><time>2026-04-11T06:22:20.946Z</time></trkpt><trkpt lat="45.3994117" lon="9.126865"><ele>105.0</ele><time>2026-04-11T06:22:21.946Z</time></trkpt><trkpt lat="45.3993033" lon="9.127185"><ele>106.5</ele><time>2026-04-11T06:22:22.945Z</time></trkpt><trkpt lat="45.399195" lon="9.12749"><ele>108.0</ele><time>2026-04-11T06:22:23.946Z</time></trkpt><trkpt lat="45.3990833" lon="9.1278083"><ele>108.0</ele><time>2026-04-11T06:22:24.946Z</time></trkpt><trkpt lat="45.3989833" lon="9.1281233"><ele>108.0</ele><time>2026-04-11T06:22:25.946Z</time></trkpt><trkpt lat="45.3988883" lon="9.1284567"><ele>108.0</ele><time>2026-04-11T06:22:26.946Z</time></trkpt><trkpt lat="45.3987967" lon="9.128785"><ele>108.0</ele><time>2026-04-11T06:22:27.946Z</time></trkpt><trkpt lat="45.3987067" lon="9.1291183"><ele>107.5</ele><time>2026-04-11T06:22:28.946Z</time></trkpt><trkpt lat="45.3986133" lon="9.129455"><ele>107.0</ele><time>2026-04-11T06:22:29.946Z</time></trkpt><trkpt lat="45.3985133" lon="9.1298133"><ele>106.5</ele><time>2026-04-11T06:22:30.946Z</time></trkpt><trkpt lat="45.39844" lon="9.1301383"><ele>106.0</ele><time>2026-04-11T06:22:31.945Z</time></trkpt><trkpt lat="45.3983617" lon="9.1304683"><ele>107.0</ele><time>2026-04-11T06:22:32.946Z</time></trkpt><trkpt lat="45.3982867" lon="9.1308083"><ele>108.0</ele><time>2026-04-11T06:22:33.946Z</time></trkpt><trkpt lat="45.39822" lon="9.1311517"><ele>108.0</ele><time>2026-04-11T06:22:34.946Z</time></trkpt><trkpt lat="45.3981483" lon="9.1314983"><ele>108.0</ele><time>2026-04-11T06:22:35.946Z</time></trkpt><trkpt lat="45.3980767" lon="9.1318517"><ele>107.5</ele><time>2026-04-11T06:22:36.946Z</time></trkpt><trkpt lat="45.3980067" lon="9.132205"><ele>107.0</ele><time>2026-04-11T06:22:37.946Z</time></trkpt><trkpt lat="45.3979383" lon="9.1325617"><ele>107.0</ele><time>2026-04-11T06:22:38.945Z</time></trkpt><trkpt lat="45.39787" lon="9.1329133"><ele>107.0</ele><time>2026-04-11T06:22:39.946Z</time></trkpt><trkpt lat="45.397795" lon="9.1332433"><ele>107.0</ele><time>2026-04-11T06:22:40.946Z</time></trkpt><trkpt lat="45.397715" lon="9.1336017"><ele>107.0</ele><time>2026-04-11T06:22:41.946Z</time></trkpt><trkpt lat="45.3976317" lon="9.1339567"><ele>106.0</ele><time>2026-04-11T06:22:42.946Z</time></trkpt><trkpt lat="45.397535" lon="9.1343483"><ele>105.0</ele><time>2026-04-11T06:22:43.946Z</time></trkpt><trkpt lat="45.3974517" lon="9.13471"><ele>105.0</ele><time>2026-04-11T06:22:44.946Z</time></trkpt><trkpt lat="45.39737" lon="9.1350733"><ele>105.0</ele><time>2026-04-11T06:22:45.946Z</time></trkpt><trkpt lat="45.39729" lon="9.1354233"><ele>106.0</ele><time>2026-04-11T06:22:46.946Z</time></trkpt><trkpt lat="45.3972067" lon="9.135775"><ele>107.0</ele><time>2026-04-11T06:22:47.946Z</time></trkpt><trkpt lat="45.3971183" lon="9.1361233"><ele>104.5</ele><time>2026-04-11T06:22:48.946Z</time></trkpt><trkpt lat="45.397015" lon="9.1364633"><ele>102.0</ele><time>2026-04-11T06:22:49.946Z</time></trkpt><trkpt lat="45.3969067" lon="9.136805"><ele>102.0</ele><time>2026-04-11T06:22:50.945Z</time></trkpt><trkpt lat="45.39679" lon="9.13714"><ele>102.0</ele><time>2026-04-11T06:22:51.946Z</time></trkpt><trkpt lat="45.3966817" lon="9.1374683"><ele>103.0</ele><time>2026-04-11T06:22:52.946Z</time></trkpt><trkpt lat="45.39657" lon="9.1378"><ele>104.0</ele><time>2026-04-11T06:22:53.946Z</time></trkpt><trkpt lat="45.396455" lon="9.138125"><ele>105.0</ele><time>2026-04-11T06:22:54.946Z</time></trkpt><trkpt lat="45.3963383" lon="9.1384533"><ele>106.0</ele><time>2026-04-11T06:22:55.946Z</time></trkpt><trkpt lat="45.3962283" lon="9.1387783"><ele>106.0</ele><time>2026-04-11T06:22:56.946Z</time></trkpt><trkpt lat="45.3961117" lon="9.1391"><ele>106.0</ele><time>2026-04-11T06:22:57.946Z</time></trkpt><trkpt lat="45.396" lon="9.13942"><ele>106.0</ele><time>2026-04-11T06:22:58.946Z</time></trkpt><trkpt lat="45.3958867" lon="9.13974"><ele>106.0</ele><time>2026-04-11T06:22:59.946Z</time></trkpt><trkpt lat="45.3957683" lon="9.14005"><ele>108.5</ele><time>2026-04-11T06:23:00.946Z</time></trkpt><trkpt lat="45.3956583" lon="9.14037"><ele>111.0</ele><time>2026-04-11T06:23:01.946Z</time></trkpt><trkpt lat="45.39555" lon="9.1406883"><ele>108.0</ele><time>2026-04-11T06:23:02.946Z</time></trkpt><trkpt lat="45.3954367" lon="9.1410117"><ele>105.0</ele><time>2026-04-11T06:23:03.946Z</time></trkpt><trkpt lat="45.3953217" lon="9.141345"><ele>105.0</ele><time>2026-04-11T06:23:04.946Z</time></trkpt><trkpt lat="45.3952067" lon="9.1416667"><ele>105.0</ele><time>2026-04-11T06:23:05.946Z</time></trkpt><trkpt lat="45.3950917" lon="9.141985"><ele>105.0</ele><time>2026-04-11T06:23:06.946Z</time></trkpt><trkpt lat="45.3949783" lon="9.142315"><ele>105.0</ele><time>2026-04-11T06:23:07.945Z</time></trkpt><trkpt lat="45.3948567" lon="9.1426383"><ele>105.5</ele><time>2026-04-11T06:23:08.946Z</time></trkpt><trkpt lat="45.394745" lon="9.1429583"><ele>106.0</ele><time>2026-04-11T06:23:09.946Z</time></trkpt><trkpt lat="45.3946333" lon="9.1432817"><ele>106.5</ele><time>2026-04-11T06:23:10.946Z</time></trkpt><trkpt lat="45.394525" lon="9.1436083"><ele>107.0</ele><time>2026-04-11T06:23:11.946Z</time></trkpt><trkpt lat="45.3944117" lon="9.143935"><ele>107.0</ele><time>2026-04-11T06:23:12.946Z</time></trkpt><trkpt lat="45.3943017" lon="9.14427"><ele>107.0</ele><time>2026-04-11T06:23:13.946Z</time></trkpt><trkpt lat="45.394185" lon="9.1445983"><ele>106.0</ele><time>2026-04-11T06:23:14.946Z</time></trkpt><trkpt lat="45.3940617" lon="9.144935"><ele>105.0</ele><time>2026-04-11T06:23:15.946Z</time></trkpt><trkpt lat="45.393945" lon="9.14526"><ele>105.0</ele><time>2026-04-11T06:23:16.946Z</time></trkpt><trkpt lat="45.393825" lon="9.1455933"><ele>105.0</ele><time>2026-04-11T06:23:17.946Z</time></trkpt><trkpt lat="45.393715" lon="9.145935"><ele>105.0</ele><time>2026-04-11T06:23:18.946Z</time></trkpt><trkpt lat="45.3936067" lon="9.1462817"><ele>105.0</ele><time>2026-04-11T06:23:19.946Z</time></trkpt><trkpt lat="45.39349" lon="9.146625"><ele>106.5</ele><time>2026-04-11T06:23:20.945Z</time></trkpt><trkpt lat="45.393375" lon="9.1469683"><ele>108.0</ele><time>2026-04-11T06:23:21.946Z</time></trkpt><trkpt lat="45.3932633" lon="9.1473"><ele>107.5</ele><time>2026-04-11T06:23:22.946Z</time></trkpt><trkpt lat="45.3931433" lon="9.1476333"><ele>107.0</ele><time>2026-04-11T06:23:23.946Z</time></trkpt><trkpt lat="45.3930267" lon="9.1479617"><ele>108.5</ele><time>2026-04-11T06:23:24.946Z</time></trkpt><trkpt lat="45.3929083" lon="9.1482983"><ele>110.0</ele><time>2026-04-11T06:23:25.946Z</time></trkpt><trkpt lat="45.39279" lon="9.1486283"><ele>110.0</ele><time>2026-04-11T06:23:26.946Z</time></trkpt><trkpt lat="45.3926683" lon="9.148965"><ele>110.0</ele><time>2026-04-11T06:23:27.946Z</time></trkpt><trkpt lat="45.39255" lon="9.1492833"><ele>108.5</ele><time>2026-04-11T06:23:28.946Z</time></trkpt><trkpt lat="45.392425" lon="9.1496133"><ele>107.0</ele><time>2026-04-11T06:23:29.946Z</time></trkpt><trkpt lat="45.392305" lon="9.1499417"><ele>107.0</ele><time>2026-04-11T06:23:30.946Z</time></trkpt><trkpt lat="45.3921867" lon="9.1502717"><ele>107.0</ele><time>2026-04-11T06:23:31.945Z</time></trkpt><trkpt lat="45.39206" lon="9.1505983"><ele>107.5</ele><time>2026-04-11T06:23:32.946Z</time></trkpt><trkpt lat="45.3919367" lon="9.150925"><ele>108.0</ele><time>2026-04-11T06:23:33.946Z</time></trkpt><trkpt lat="45.3918183" lon="9.1512583"><ele>106.5</ele><time>2026-04-11T06:23:34.945Z</time></trkpt><trkpt lat="45.3917083" lon="9.1515883"><ele>105.0</ele><time>2026-04-11T06:23:35.946Z</time></trkpt><trkpt lat="45.3915833" lon="9.1519267"><ele>105.0</ele><time>2026-04-11T06:23:36.946Z</time></trkpt><trkpt lat="45.39147" lon="9.1522533"><ele>105.0</ele><time>2026-04-11T06:23:37.946Z</time></trkpt><trkpt lat="45.39134" lon="9.1526083"><ele>105.0</ele><time>2026-04-11T06:23:38.946Z</time></trkpt><trkpt lat="45.3912033" lon="9.1529783"><ele>105.0</ele><time>2026-04-11T06:23:39.946Z</time></trkpt><trkpt lat="45.3910833" lon="9.1533133"><ele>105.0</ele><time>2026-04-11T06:23:40.946Z</time></trkpt><trkpt lat="45.3909667" lon="9.1536483"><ele>105.0</ele><time>2026-04-11T06:23:41.946Z</time></trkpt><trkpt lat="45.39085" lon="9.1539917"><ele>106.5</ele><time>2026-04-11T06:23:42.946Z</time></trkpt><trkpt lat="45.390735" lon="9.1543283"><ele>108.0</ele><time>2026-04-11T06:23:43.945Z</time></trkpt><trkpt lat="45.3906133" lon="9.1546667"><ele>106.5</ele><time>2026-04-11T06:23:44.945Z</time></trkpt><trkpt lat="45.39049" lon="9.1550117"><ele>105.0</ele><time>2026-04-11T06:23:45.946Z</time></trkpt><trkpt lat="45.3903617" lon="9.1553633"><ele>104.5</ele><time>2026-04-11T06:23:46.946Z</time></trkpt><trkpt lat="45.39024" lon="9.15571"><ele>104.0</ele><time>2026-04-11T06:23:47.946Z</time></trkpt><trkpt lat="45.3901133" lon="9.15606"><ele>104.0</ele><time>2026-04-11T06:23:48.946Z</time></trkpt><trkpt lat="45.389995" lon="9.1563967"><ele>104.0</ele><time>2026-04-11T06:23:49.946Z</time></trkpt><trkpt lat="45.389875" lon="9.15674"><ele>103.5</ele><time>2026-04-11T06:23:50.945Z</time></trkpt><trkpt lat="45.38975" lon="9.1570817"><ele>103.0</ele><time>2026-04-11T06:23:51.945Z</time></trkpt><trkpt lat="45.3896267" lon="9.1574233"><ele>104.0</ele><time>2026-04-11T06:23:52.945Z</time></trkpt><trkpt lat="45.3895033" lon="9.1577567"><ele>105.0</ele><time>2026-04-11T06:23:53.945Z</time></trkpt><trkpt lat="45.389375" lon="9.1580983"><ele>104.5</ele><time>2026-04-11T06:23:54.945Z</time></trkpt><trkpt lat="45.3892583" lon="9.1584533"><ele>104.0</ele><time>2026-04-11T06:23:55.945Z</time></trkpt><trkpt lat="45.3891483" lon="9.1588033"><ele>103.0</ele><time>2026-04-11T06:23:56.945Z</time></trkpt><trkpt lat="45.3890267" lon="9.1591417"><ele>102.0</ele><time>2026-04-11T06:23:57.945Z</time></trkpt><trkpt lat="45.3889183" lon="9.1594867"><ele>102.0</ele><time>2026-04-11T06:23:58.945Z</time></trkpt><trkpt lat="45.3887967" lon="9.15982"><ele>102.0</ele><time>2026-04-11T06:23:59.945Z</time></trkpt><trkpt lat="45.3886783" lon="9.1601667"><ele>102.0</ele><time>2026-04-11T06:24:00.945Z</time></trkpt><trkpt lat="45.38856" lon="9.1605067"><ele>102.0</ele><time>2026-04-11T06:24:01.945Z</time></trkpt><trkpt lat="45.3884367" lon="9.1608433"><ele>101.5</ele><time>2026-04-11T06:24:02.945Z</time></trkpt><trkpt lat="45.388315" lon="9.161185"><ele>101.0</ele><time>2026-04-11T06:24:03.944Z</time></trkpt><trkpt lat="45.3882017" lon="9.161535"><ele>101.0</ele><time>2026-04-11T06:24:04.944Z</time></trkpt><trkpt lat="45.3880767" lon="9.1618667"><ele>101.0</ele><time>2026-04-11T06:24:05.945Z</time></trkpt><trkpt lat="45.38796" lon="9.1622"><ele>101.5</ele><time>2026-04-11T06:24:06.945Z</time></trkpt><trkpt lat="45.38784" lon="9.162535"><ele>102.0</ele><time>2026-04-11T06:24:07.945Z</time></trkpt><trkpt lat="45.3877233" lon="9.162875"><ele>101.5</ele><time>2026-04-11T06:24:08.945Z</time></trkpt><trkpt lat="45.387605" lon="9.1632117"><ele>101.0</ele><time>2026-04-11T06:24:09.945Z</time></trkpt><trkpt lat="45.3874917" lon="9.16355"><ele>101.0</ele><time>2026-04-11T06:24:10.945Z</time></trkpt><trkpt lat="45.3873683" lon="9.1638867"><ele>101.0</ele><time>2026-04-11T06:24:11.945Z</time></trkpt><trkpt lat="45.3872483" lon="9.1642283"><ele>101.0</ele><time>2026-04-11T06:24:12.944Z</time></trkpt><trkpt lat="45.3871233" lon="9.1645767"><ele>101.0</ele><time>2026-04-11T06:24:13.945Z</time></trkpt><trkpt lat="45.3870133" lon="9.1649217"><ele>101.0</ele><time>2026-04-11T06:24:14.945Z</time></trkpt><trkpt lat="45.3869133" lon="9.165255"><ele>101.0</ele><time>2026-04-11T06:24:15.945Z</time></trkpt><trkpt lat="45.38681" lon="9.165605"><ele>100.0</ele><time>2026-04-11T06:24:16.944Z</time></trkpt><trkpt lat="45.3867067" lon="9.16595"><ele>99.0</ele><time>2026-04-11T06:24:17.945Z</time></trkpt><trkpt lat="45.3866167" lon="9.1662967"><ele>98.5</ele><time>2026-04-11T06:24:18.944Z</time></trkpt><trkpt lat="45.3865283" lon="9.16664"><ele>98.0</ele><time>2026-04-11T06:24:19.945Z</time></trkpt><trkpt lat="45.3864517" lon="9.1669917"><ele>98.0</ele><time>2026-04-11T06:24:20.945Z</time></trkpt><trkpt lat="45.3863833" lon="9.16734"><ele>98.0</ele><time>2026-04-11T06:24:21.945Z</time></trkpt><trkpt lat="45.386325" lon="9.1677033"><ele>99.5</ele><time>2026-04-11T06:24:22.945Z</time></trkpt><trkpt lat="45.3862617" lon="9.16806"><ele>101.0</ele><time>2026-04-11T06:24:23.945Z</time></trkpt><trkpt lat="45.3862183" lon="9.1684133"><ele>101.0</ele><time>2026-04-11T06:24:24.945Z</time></trkpt><trkpt lat="45.38618" lon="9.16878"><ele>101.0</ele><time>2026-04-11T06:24:25.945Z</time></trkpt><trkpt lat="45.386145" lon="9.16913"><ele>102.5</ele><time>2026-04-11T06:24:26.945Z</time></trkpt><trkpt lat="45.386125" lon="9.16949"><ele>104.0</ele><time>2026-04-11T06:24:27.945Z</time></trkpt><trkpt lat="45.3861083" lon="9.1698483"><ele>105.0</ele><time>2026-04-11T06:24:28.944Z</time></trkpt><trkpt lat="45.3861017" lon="9.17021"><ele>106.0</ele><time>2026-04-11T06:24:29.945Z</time></trkpt><trkpt lat="45.3860917" lon="9.17056"><ele>105.0</ele><time>2026-04-11T06:24:30.945Z</time></trkpt><trkpt lat="45.3860983" lon="9.1709133"><ele>104.0</ele><time>2026-04-11T06:24:31.945Z</time></trkpt><trkpt lat="45.38611" lon="9.17126"><ele>102.5</ele><time>2026-04-11T06:24:32.945Z</time></trkpt><trkpt lat="45.386125" lon="9.1716133"><ele>101.0</ele><time>2026-04-11T06:24:33.945Z</time></trkpt><trkpt lat="45.3861517" lon="9.1719583"><ele>101.0</ele><time>2026-04-11T06:24:34.945Z</time></trkpt><trkpt lat="45.3861817" lon="9.1723133"><ele>101.0</ele><time>2026-04-11T06:24:35.945Z</time></trkpt><trkpt lat="45.3862233" lon="9.1726517"><ele>101.0</ele><time>2026-04-11T06:24:36.945Z</time></trkpt><trkpt lat="45.3862633" lon="9.1730017"><ele>101.0</ele><time>2026-04-11T06:24:37.945Z</time></trkpt><trkpt lat="45.386315" lon="9.17335"><ele>101.0</ele><time>2026-04-11T06:24:38.945Z</time></trkpt><trkpt lat="45.3863783" lon="9.1737"><ele>101.0</ele><time>2026-04-11T06:24:39.945Z</time></trkpt><trkpt lat="45.3864367" lon="9.1740383"><ele>101.0</ele><time>2026-04-11T06:24:40.945Z</time></trkpt><trkpt lat="45.3865067" lon="9.17438"><ele>101.0</ele><time>2026-04-11T06:24:41.945Z</time></trkpt><trkpt lat="45.3865867" lon="9.17472"><ele>100.5</ele><time>2026-04-11T06:24:42.945Z</time></trkpt><trkpt lat="45.3866733" lon="9.17506"><ele>100.0</ele><time>2026-04-11T06:24:43.945Z</time></trkpt><trkpt lat="45.3867667" lon="9.1754083"><ele>100.5</ele><time>2026-04-11T06:24:44.945Z</time></trkpt><trkpt lat="45.38687" lon="9.17575"><ele>101.0</ele><time>2026-04-11T06:24:45.945Z</time></trkpt><trkpt lat="45.3869833" lon="9.1760917"><ele>101.0</ele><time>2026-04-11T06:24:46.945Z</time></trkpt><trkpt lat="45.3871" lon="9.17643"><ele>101.0</ele><time>2026-04-11T06:24:47.945Z</time></trkpt><trkpt lat="45.3872283" lon="9.1767667"><ele>102.0</ele><time>2026-04-11T06:24:48.945Z</time></trkpt><trkpt lat="45.38736" lon="9.177105"><ele>103.0</ele><time>2026-04-11T06:24:49.945Z</time></trkpt><trkpt lat="45.3874883" lon="9.1774333"><ele>103.0</ele><time>2026-04-11T06:24:50.945Z</time></trkpt><trkpt lat="45.3876217" lon="9.1777617"><ele>103.0</ele><time>2026-04-11T06:24:51.945Z</time></trkpt><trkpt lat="45.387745" lon="9.1780883"><ele>102.0</ele><time>2026-04-11T06:24:52.945Z</time></trkpt><trkpt lat="45.387875" lon="9.1784083"><ele>101.0</ele><time>2026-04-11T06:24:53.945Z</time></trkpt><trkpt lat="45.3880017" lon="9.17874"><ele>101.5</ele><time>2026-04-11T06:24:54.945Z</time></trkpt><trkpt lat="45.3881267" lon="9.1790717"><ele>102.0</ele><time>2026-04-11T06:24:55.944Z</time></trkpt><trkpt lat="45.3882517" lon="9.1794017"><ele>102.0</ele><time>2026-04-11T06:24:56.945Z</time></trkpt><trkpt lat="45.3883683" lon="9.1797417"><ele>102.0</ele><time>2026-04-11T06:24:57.945Z</time></trkpt><trkpt lat="45.3884867" lon="9.1800867"><ele>101.5</ele><time>2026-04-11T06:24:58.945Z</time></trkpt><trkpt lat="45.3886033" lon="9.1804333"><ele>101.0</ele><time>2026-04-11T06:24:59.945Z</time></trkpt><trkpt lat="45.388725" lon="9.18079"><ele>102.0</ele><time>2026-04-11T06:25:00.945Z</time></trkpt><trkpt lat="45.388845" lon="9.1811367"><ele>103.0</ele><time>2026-04-11T06:25:01.945Z</time></trkpt><trkpt lat="45.3889533" lon="9.1814783"><ele>103.5</ele><time>2026-04-11T06:25:02.945Z</time></trkpt><trkpt lat="45.3890633" lon="9.1818383"><ele>104.0</ele><time>2026-04-11T06:25:03.945Z</time></trkpt><trkpt lat="45.3891633" lon="9.1822017"><ele>103.5</ele><time>2026-04-11T06:25:04.945Z</time></trkpt><trkpt lat="45.38927" lon="9.1825483"><ele>103.0</ele><time>2026-04-11T06:25:05.945Z</time></trkpt><trkpt lat="45.3893683" lon="9.1829033"><ele>102.5</ele><time>2026-04-11T06:25:06.945Z</time></trkpt><trkpt lat="45.3894617" lon="9.18326"><ele>102.0</ele><time>2026-04-11T06:25:07.945Z</time></trkpt><trkpt lat="45.3895533" lon="9.1836167"><ele>102.0</ele><time>2026-04-11T06:25:08.945Z</time></trkpt><trkpt lat="45.3896533" lon="9.1839767"><ele>102.0</ele><time>2026-04-11T06:25:09.945Z</time></trkpt><trkpt lat="45.3897533" lon="9.1843433"><ele>101.5</ele><time>2026-04-11T06:25:10.945Z</time></trkpt><trkpt lat="45.389845" lon="9.1847067"><ele>101.0</ele><time>2026-04-11T06:25:11.945Z</time></trkpt><trkpt lat="45.38993" lon="9.185065"><ele>101.0</ele><time>2026-04-11T06:25:12.945Z</time></trkpt><trkpt lat="45.3900083" lon="9.18543"><ele>101.0</ele><time>2026-04-11T06:25:13.945Z</time></trkpt><trkpt lat="45.390085" lon="9.1857967"><ele>101.0</ele><time>2026-04-11T06:25:14.945Z</time></trkpt><trkpt lat="45.390165" lon="9.186165"><ele>101.0</ele><time>2026-04-11T06:25:15.945Z</time></trkpt><trkpt lat="45.3902417" lon="9.186525"><ele>100.0</ele><time>2026-04-11T06:25:16.945Z</time></trkpt><trkpt lat="45.3903233" lon="9.1868933"><ele>99.0</ele><time>2026-04-11T06:25:17.945Z</time></trkpt><trkpt lat="45.390395" lon="9.1872633"><ele>99.5</ele><time>2026-04-11T06:25:18.944Z</time></trkpt><trkpt lat="45.3904717" lon="9.1876417"><ele>100.0</ele><time>2026-04-11T06:25:19.945Z</time></trkpt><trkpt lat="45.390545" lon="9.1880133"><ele>101.5</ele><time>2026-04-11T06:25:20.945Z</time></trkpt><trkpt lat="45.3906183" lon="9.1883967"><ele>103.0</ele><time>2026-04-11T06:25:21.944Z</time></trkpt><trkpt lat="45.3906833" lon="9.188775"><ele>103.0</ele><time>2026-04-11T06:25:22.945Z</time></trkpt><trkpt lat="45.3907533" lon="9.1891533"><ele>103.0</ele><time>2026-04-11T06:25:23.945Z</time></trkpt><trkpt lat="45.3908183" lon="9.1895417"><ele>101.5</ele><time>2026-04-11T06:25:24.945Z</time></trkpt><trkpt lat="45.3908783" lon="9.1899417"><ele>100.0</ele><time>2026-04-11T06:25:25.945Z</time></trkpt><trkpt lat="45.3909333" lon="9.190335"><ele>100.0</ele><time>2026-04-11T06:25:26.945Z</time></trkpt><trkpt lat="45.3909917" lon="9.1907333"><ele>100.0</ele><time>2026-04-11T06:25:27.945Z</time></trkpt><trkpt lat="45.39105" lon="9.1911333"><ele>99.5</ele><time>2026-04-11T06:25:28.945Z</time></trkpt><trkpt lat="45.3911017" lon="9.1915383"><ele>99.0</ele><time>2026-04-11T06:25:29.945Z</time></trkpt><trkpt lat="45.3911467" lon="9.1919533"><ele>99.5</ele><time>2026-04-11T06:25:30.945Z</time></trkpt><trkpt lat="45.39119" lon="9.1923533"><ele>100.0</ele><time>2026-04-11T06:25:31.945Z</time></trkpt><trkpt lat="45.3912333" lon="9.19275"><ele>100.0</ele><time>2026-04-11T06:25:32.945Z</time></trkpt><trkpt lat="45.3912683" lon="9.1931433"><ele>100.0</ele><time>2026-04-11T06:25:33.945Z</time></trkpt><trkpt lat="45.3912983" lon="9.193535"><ele>99.5</ele><time>2026-04-11T06:25:34.945Z</time></trkpt><trkpt lat="45.3913267" lon="9.1939167"><ele>99.0</ele><time>2026-04-11T06:25:35.945Z</time></trkpt><trkpt lat="45.3913483" lon="9.1943"><ele>99.5</ele><time>2026-04-11T06:25:36.945Z</time></trkpt><trkpt lat="45.3913683" lon="9.19468"><ele>100.0</ele><time>2026-04-11T06:25:37.945Z</time></trkpt><trkpt lat="45.39139" lon="9.1950583"><ele>100.0</ele><time>2026-04-11T06:25:38.944Z</time></trkpt><trkpt lat="45.39141" lon="9.1954367"><ele>100.0</ele><time>2026-04-11T06:25:39.945Z</time></trkpt><trkpt lat="45.39143" lon="9.1958183"><ele>100.0</ele><time>2026-04-11T06:25:40.945Z</time></trkpt><trkpt lat="45.3914467" lon="9.1962"><ele>100.0</ele><time>2026-04-11T06:25:41.945Z</time></trkpt><trkpt lat="45.3914583" lon="9.1965883"><ele>100.0</ele><time>2026-04-11T06:25:42.945Z</time></trkpt><trkpt lat="45.391465" lon="9.19698"><ele>100.0</ele><time>2026-04-11T06:25:43.945Z</time></trkpt><trkpt lat="45.3914683" lon="9.1973667"><ele>101.5</ele><time>2026-04-11T06:25:44.945Z</time></trkpt><trkpt lat="45.3914717" lon="9.1977583"><ele>103.0</ele><time>2026-04-11T06:25:45.945Z</time></trkpt><trkpt lat="45.3914717" lon="9.1981433"><ele>104.0</ele><time>2026-04-11T06:25:46.945Z</time></trkpt><trkpt lat="45.391465" lon="9.19853"><ele>105.0</ele><time>2026-04-11T06:25:47.945Z</time></trkpt><trkpt lat="45.3914567" lon="9.1989233"><ele>103.0</ele><time>2026-04-11T06:25:48.945Z</time></trkpt><trkpt lat="45.3914483" lon="9.19931"><ele>101.0</ele><time>2026-04-11T06:25:49.945Z</time></trkpt><trkpt lat="45.3914417" lon="9.1997083"><ele>101.0</ele><time>2026-04-11T06:25:50.945Z</time></trkpt><trkpt lat="45.3914367" lon="9.2000933"><ele>101.0</ele><time>2026-04-11T06:25:51.945Z</time></trkpt><trkpt lat="45.3914267" lon="9.2004867"><ele>102.5</ele><time>2026-04-11T06:25:52.945Z</time></trkpt><trkpt lat="45.3914183" lon="9.20088"><ele>104.0</ele><time>2026-04-11T06:25:53.945Z</time></trkpt><trkpt lat="45.3914017" lon="9.2012717"><ele>103.0</ele><time>2026-04-11T06:25:54.945Z</time></trkpt><trkpt lat="45.3913933" lon="9.201675"><ele>102.0</ele><time>2026-04-11T06:25:55.945Z</time></trkpt><trkpt lat="45.391375" lon="9.2020817"><ele>101.0</ele><time>2026-04-11T06:25:56.945Z</time></trkpt><trkpt lat="45.3913583" lon="9.2025133"><ele>100.0</ele><time>2026-04-11T06:25:57.945Z</time></trkpt><trkpt lat="45.3913333" lon="9.20297"><ele>99.5</ele><time>2026-04-11T06:25:58.945Z</time></trkpt><trkpt lat="45.3913117" lon="9.2034467"><ele>99.0</ele><time>2026-04-11T06:25:59.945Z</time></trkpt><trkpt lat="45.3912933" lon="9.203935"><ele>100.0</ele><time>2026-04-11T06:26:00.945Z</time></trkpt><trkpt lat="45.391265" lon="9.204425"><ele>101.0</ele><time>2026-04-11T06:26:01.945Z</time></trkpt><trkpt lat="45.3912333" lon="9.2049183"><ele>101.0</ele><time>2026-04-11T06:26:02.945Z</time></trkpt><trkpt lat="45.3911967" lon="9.2053967"><ele>101.0</ele><time>2026-04-11T06:26:03.945Z</time></trkpt><trkpt lat="45.3911467" lon="9.2058783"><ele>102.0</ele><time>2026-04-11T06:26:04.945Z</time></trkpt><trkpt lat="45.39109" lon="9.206365"><ele>103.0</ele><time>2026-04-11T06:26:05.945Z</time></trkpt><trkpt lat="45.3910333" lon="9.206855"><ele>101.0</ele><time>2026-04-11T06:26:06.945Z</time></trkpt><trkpt lat="45.3909767" lon="9.2073467"><ele>99.0</ele><time>2026-04-11T06:26:07.945Z</time></trkpt><trkpt lat="45.390925" lon="9.207835"><ele>99.5</ele><time>2026-04-11T06:26:08.945Z</time></trkpt><trkpt lat="45.390865" lon="9.2083217"><ele>100.0</ele><time>2026-04-11T06:26:09.945Z</time></trkpt><trkpt lat="45.3908067" lon="9.2088083"><ele>102.0</ele><time>2026-04-11T06:26:10.945Z</time></trkpt><trkpt lat="45.3907433" lon="9.2092967"><ele>104.0</ele><time>2026-04-11T06:26:11.945Z</time></trkpt><trkpt lat="45.3906767" lon="9.2097883"><ele>104.0</ele><time>2026-04-11T06:26:12.945Z</time></trkpt><trkpt lat="45.3906083" lon="9.2102833"><ele>104.0</ele><time>2026-04-11T06:26:13.944Z</time></trkpt><trkpt lat="45.3905367" lon="9.2107817"><ele>104.0</ele><time>2026-04-11T06:26:14.945Z</time></trkpt><trkpt lat="45.3904667" lon="9.2112783"><ele>104.0</ele><time>2026-04-11T06:26:15.945Z</time></trkpt><trkpt lat="45.3903967" lon="9.21176"><ele>104.0</ele><time>2026-04-11T06:26:16.945Z</time></trkpt><trkpt lat="45.39032" lon="9.2122367"><ele>104.0</ele><time>2026-04-11T06:26:17.945Z</time></trkpt><trkpt lat="45.39024" lon="9.2126717"><ele>104.5</ele><time>2026-04-11T06:26:18.945Z</time></trkpt><trkpt lat="45.3901633" lon="9.2130833"><ele>105.0</ele><time>2026-04-11T06:26:19.944Z</time></trkpt><trkpt lat="45.390095" lon="9.213465"><ele>105.0</ele><time>2026-04-11T06:26:20.945Z</time></trkpt><trkpt lat="45.3900233" lon="9.2138333"><ele>105.0</ele><time>2026-04-11T06:26:21.945Z</time></trkpt><trkpt lat="45.3899583" lon="9.2141883"><ele>105.5</ele><time>2026-04-11T06:26:22.945Z</time></trkpt><trkpt lat="45.389895" lon="9.21454"><ele>106.0</ele><time>2026-04-11T06:26:23.945Z</time></trkpt><trkpt lat="45.3898283" lon="9.2149017"><ele>104.5</ele><time>2026-04-11T06:26:24.945Z</time></trkpt><trkpt lat="45.3897467" lon="9.21527"><ele>103.0</ele><time>2026-04-11T06:26:25.945Z</time></trkpt><trkpt lat="45.3896683" lon="9.21564"><ele>101.0</ele><time>2026-04-11T06:26:26.945Z</time></trkpt><trkpt lat="45.3895917" lon="9.2160067"><ele>99.0</ele><time>2026-04-11T06:26:27.945Z</time></trkpt><trkpt lat="45.3895117" lon="9.2163883"><ele>99.0</ele><time>2026-04-11T06:26:28.945Z</time></trkpt><trkpt lat="45.3894267" lon="9.21677"><ele>99.0</ele><time>2026-04-11T06:26:29.945Z</time></trkpt><trkpt lat="45.3893417" lon="9.21715"><ele>100.5</ele><time>2026-04-11T06:26:30.944Z</time></trkpt><trkpt lat="45.3892483" lon="9.2175383"><ele>102.0</ele><time>2026-04-11T06:26:31.945Z</time></trkpt><trkpt lat="45.3891617" lon="9.2179183"><ele>102.0</ele><time>2026-04-11T06:26:32.945Z</time></trkpt><trkpt lat="45.389075" lon="9.2183117"><ele>102.0</ele><time>2026-04-11T06:26:33.945Z</time></trkpt><trkpt lat="45.3889867" lon="9.2187083"><ele>101.5</ele><time>2026-04-11T06:26:34.945Z</time></trkpt><trkpt lat="45.3888983" lon="9.2191167"><ele>101.0</ele><time>2026-04-11T06:26:35.945Z</time></trkpt><trkpt lat="45.3888033" lon="9.2195217"><ele>100.5</ele><time>2026-04-11T06:26:36.945Z</time></trkpt><trkpt lat="45.3887017" lon="9.2199217"><ele>100.0</ele><time>2026-04-11T06:26:37.945Z</time></trkpt><trkpt lat="45.3886" lon="9.2203233"><ele>100.5</ele><time>2026-04-11T06:26:38.945Z</time></trkpt><trkpt lat="45.38849" lon="9.2207217"><ele>101.0</ele><time>2026-04-11T06:26:39.944Z</time></trkpt><trkpt lat="45.38839" lon="9.221125"><ele>100.5</ele><time>2026-04-11T06:26:40.944Z</time></trkpt><trkpt lat="45.38829" lon="9.2215217"><ele>100.0</ele><time>2026-04-11T06:26:41.945Z</time></trkpt><trkpt lat="45.3881833" lon="9.2219133"><ele>100.0</ele><time>2026-04-11T06:26:42.945Z</time></trkpt><trkpt lat="45.388075" lon="9.2223"><ele>100.0</ele><time>2026-04-11T06:26:43.945Z</time></trkpt><trkpt lat="45.3879767" lon="9.22269"><ele>100.0</ele><time>2026-04-11T06:26:44.945Z</time></trkpt><trkpt lat="45.3878817" lon="9.223085"><ele>100.0</ele><time>2026-04-11T06:26:45.945Z</time></trkpt><trkpt lat="45.3877783" lon="9.2234817"><ele>99.5</ele><time>2026-04-11T06:26:46.945Z</time></trkpt><trkpt lat="45.3876783" lon="9.2238817"><ele>99.0</ele><time>2026-04-11T06:26:47.944Z</time></trkpt><trkpt lat="45.3875817" lon="9.2242783"><ele>99.0</ele><time>2026-04-11T06:26:48.945Z</time></trkpt><trkpt lat="45.3874867" lon="9.2246683"><ele>99.0</ele><time>2026-04-11T06:26:49.945Z</time></trkpt><trkpt lat="45.3873867" lon="9.2250733"><ele>100.0</ele><time>2026-04-11T06:26:50.945Z</time></trkpt><trkpt lat="45.38729" lon="9.2254833"><ele>101.0</ele><time>2026-04-11T06:26:51.945Z</time></trkpt><trkpt lat="45.387185" lon="9.225875"><ele>100.5</ele><time>2026-04-11T06:26:52.945Z</time></trkpt><trkpt lat="45.38709" lon="9.2262633"><ele>100.0</ele><time>2026-04-11T06:26:53.945Z</time></trkpt><trkpt lat="45.3869983" lon="9.2266483"><ele>99.5</ele><time>2026-04-11T06:26:54.944Z</time></trkpt><trkpt lat="45.3869033" lon="9.2270333"><ele>99.0</ele><time>2026-04-11T06:26:55.945Z</time></trkpt><trkpt lat="45.38681" lon="9.2274283"><ele>99.0</ele><time>2026-04-11T06:26:56.945Z</time></trkpt><trkpt lat="45.3867033" lon="9.2278183"><ele>99.0</ele><time>2026-04-11T06:26:57.945Z</time></trkpt><trkpt lat="45.38659" lon="9.2282017"><ele>100.0</ele><time>2026-04-11T06:26:58.945Z</time></trkpt><trkpt lat="45.3864867" lon="9.2285933"><ele>101.0</ele><time>2026-04-11T06:26:59.945Z</time></trkpt><trkpt lat="45.3863883" lon="9.2289867"><ele>100.5</ele><time>2026-04-11T06:27:00.945Z</time></trkpt><trkpt lat="45.38629" lon="9.2293817"><ele>100.0</ele><time>2026-04-11T06:27:01.945Z</time></trkpt><trkpt lat="45.38619" lon="9.2297833"><ele>101.0</ele><time>2026-04-11T06:27:02.945Z</time></trkpt><trkpt lat="45.3860867" lon="9.23018"><ele>102.0</ele><time>2026-04-11T06:27:03.945Z</time></trkpt><trkpt lat="45.3859933" lon="9.23057"><ele>103.5</ele><time>2026-04-11T06:27:04.945Z</time></trkpt><trkpt lat="45.3858967" lon="9.2309617"><ele>105.0</ele><time>2026-04-11T06:27:05.944Z</time></trkpt><trkpt lat="45.3858017" lon="9.23135"><ele>104.0</ele><time>2026-04-11T06:27:06.945Z</time></trkpt><trkpt lat="45.3857017" lon="9.2317367"><ele>103.0</ele><time>2026-04-11T06:27:07.945Z</time></trkpt><trkpt lat="45.3856067" lon="9.232135"><ele>102.5</ele><time>2026-04-11T06:27:08.945Z</time></trkpt><trkpt lat="45.3855083" lon="9.23252"><ele>102.0</ele><time>2026-04-11T06:27:09.945Z</time></trkpt><trkpt lat="45.3854083" lon="9.2329067"><ele>102.0</ele><time>2026-04-11T06:27:10.945Z</time></trkpt><trkpt lat="45.3853117" lon="9.2333083"><ele>102.0</ele><time>2026-04-11T06:27:11.945Z</time></trkpt><trkpt lat="45.3852183" lon="9.2337"><ele>101.0</ele><time>2026-04-11T06:27:12.945Z</time></trkpt><trkpt lat="45.38512" lon="9.2340933"><ele>100.0</ele><time>2026-04-11T06:27:13.945Z</time></trkpt><trkpt lat="45.3850267" lon="9.23449"><ele>100.0</ele><time>2026-04-11T06:27:14.945Z</time></trkpt><trkpt lat="45.3849383" lon="9.2348867"><ele>100.0</ele><time>2026-04-11T06:27:15.945Z</time></trkpt><trkpt lat="45.3848417" lon="9.2352833"><ele>100.5</ele><time>2026-04-11T06:27:16.945Z</time></trkpt><trkpt lat="45.384755" lon="9.2356833"><ele>101.0</ele><time>2026-04-11T06:27:17.944Z</time></trkpt><trkpt lat="45.384665" lon="9.2360883"><ele>100.0</ele><time>2026-04-11T06:27:18.945Z</time></trkpt><trkpt lat="45.3845683" lon="9.2364983"><ele>99.0</ele><time>2026-04-11T06:27:19.945Z</time></trkpt><trkpt lat="45.3844733" lon="9.236895"><ele>99.0</ele><time>2026-04-11T06:27:20.945Z</time></trkpt><trkpt lat="45.384385" lon="9.23729"><ele>99.0</ele><time>2026-04-11T06:27:21.945Z</time></trkpt><trkpt lat="45.3843017" lon="9.2376917"><ele>99.0</ele><time>2026-04-11T06:27:22.945Z</time></trkpt><trkpt lat="45.3842183" lon="9.23809"><ele>99.0</ele><time>2026-04-11T06:27:23.944Z</time></trkpt><trkpt lat="45.3841383" lon="9.2384917"><ele>99.5</ele><time>2026-04-11T06:27:24.945Z</time></trkpt><trkpt lat="45.38406" lon="9.2389067"><ele>100.0</ele><time>2026-04-11T06:27:25.945Z</time></trkpt><trkpt lat="45.38399" lon="9.2393183"><ele>100.0</ele><time>2026-04-11T06:27:26.945Z</time></trkpt><trkpt lat="45.3839117" lon="9.239735"><ele>100.0</ele><time>2026-04-11T06:27:27.945Z</time></trkpt><trkpt lat="45.3838417" lon="9.2401367"><ele>100.0</ele><time>2026-04-11T06:27:28.945Z</time></trkpt><trkpt lat="45.3837817" lon="9.2405517"><ele>100.0</ele><time>2026-04-11T06:27:29.945Z</time></trkpt><trkpt lat="45.383725" lon="9.2409617"><ele>100.5</ele><time>2026-04-11T06:27:30.945Z</time></trkpt><trkpt lat="45.3836667" lon="9.241375"><ele>101.0</ele><time>2026-04-11T06:27:31.944Z</time></trkpt><trkpt lat="45.3836067" lon="9.2417867"><ele>99.5</ele><time>2026-04-11T06:27:32.945Z</time></trkpt><trkpt lat="45.3835567" lon="9.2422033"><ele>98.0</ele><time>2026-04-11T06:27:33.945Z</time></trkpt><trkpt lat="45.3835083" lon="9.242625"><ele>98.0</ele><time>2026-04-11T06:27:34.944Z</time></trkpt><trkpt lat="45.383465" lon="9.243035"><ele>98.0</ele><time>2026-04-11T06:27:35.945Z</time></trkpt><trkpt lat="45.3834233" lon="9.2434483"><ele>98.0</ele><time>2026-04-11T06:27:36.945Z</time></trkpt><trkpt lat="45.3833867" lon="9.243855"><ele>98.0</ele><time>2026-04-11T06:27:37.945Z</time></trkpt><trkpt lat="45.3833467" lon="9.2442633"><ele>98.0</ele><time>2026-04-11T06:27:38.945Z</time></trkpt><trkpt lat="45.3833217" lon="9.2446733"><ele>98.0</ele><time>2026-04-11T06:27:39.944Z</time></trkpt><trkpt lat="45.383295" lon="9.2450917"><ele>98.0</ele><time>2026-04-11T06:27:40.944Z</time></trkpt><trkpt lat="45.3832717" lon="9.24549"><ele>98.0</ele><time>2026-04-11T06:27:41.945Z</time></trkpt><trkpt lat="45.383245" lon="9.2459033"><ele>98.0</ele><time>2026-04-11T06:27:42.944Z</time></trkpt><trkpt lat="45.38322" lon="9.24632"><ele>98.0</ele><time>2026-04-11T06:27:43.945Z</time></trkpt><trkpt lat="45.383195" lon="9.2467333"><ele>98.0</ele><time>2026-04-11T06:27:44.945Z</time></trkpt><trkpt lat="45.3831617" lon="9.2471483"><ele>98.0</ele><time>2026-04-11T06:27:45.945Z</time></trkpt><trkpt lat="45.3831317" lon="9.2475517"><ele>98.0</ele><time>2026-04-11T06:27:46.944Z</time></trkpt><trkpt lat="45.383105" lon="9.2479633"><ele>98.0</ele><time>2026-04-11T06:27:47.945Z</time></trkpt><trkpt lat="45.383085" lon="9.2483633"><ele>98.0</ele><time>2026-04-11T06:27:48.945Z</time></trkpt><trkpt lat="45.3830667" lon="9.24877"><ele>98.0</ele><time>2026-04-11T06:27:49.945Z</time></trkpt><trkpt lat="45.383035" lon="9.249185"><ele>98.0</ele><time>2026-04-11T06:27:50.945Z</time></trkpt><trkpt lat="45.383015" lon="9.2496"><ele>98.0</ele><time>2026-04-11T06:27:51.945Z</time></trkpt><trkpt lat="45.3829883" lon="9.2500167"><ele>98.0</ele><time>2026-04-11T06:27:52.945Z</time></trkpt><trkpt lat="45.3829583" lon="9.2504233"><ele>98.0</ele><time>2026-04-11T06:27:53.944Z</time></trkpt><trkpt lat="45.38293" lon="9.2508367"><ele>99.0</ele><time>2026-04-11T06:27:54.945Z</time></trkpt><trkpt lat="45.3829" lon="9.2512467"><ele>100.0</ele><time>2026-04-11T06:27:55.945Z</time></trkpt><trkpt lat="45.38288" lon="9.2516583"><ele>100.0</ele><time>2026-04-11T06:27:56.944Z</time></trkpt><trkpt lat="45.3828617" lon="9.25207"><ele>100.0</ele><time>2026-04-11T06:27:57.945Z</time></trkpt><trkpt lat="45.38283" lon="9.2524883"><ele>100.0</ele><time>2026-04-11T06:27:58.944Z</time></trkpt><trkpt lat="45.3828033" lon="9.2529067"><ele>100.0</ele><time>2026-04-11T06:27:59.945Z</time></trkpt><trkpt lat="45.3827733" lon="9.2533217"><ele>99.0</ele><time>2026-04-11T06:28:00.945Z</time></trkpt><trkpt lat="45.382745" lon="9.253735"><ele>98.0</ele><time>2026-04-11T06:28:01.945Z</time></trkpt><trkpt lat="45.38272" lon="9.2541467"><ele>98.0</ele><time>2026-04-11T06:28:02.945Z</time></trkpt><trkpt lat="45.3826967" lon="9.25456"><ele>98.0</ele><time>2026-04-11T06:28:03.945Z</time></trkpt><trkpt lat="45.3826683" lon="9.254975"><ele>98.0</ele><time>2026-04-11T06:28:04.945Z</time></trkpt><trkpt lat="45.382645" lon="9.2553783"><ele>98.0</ele><time>2026-04-11T06:28:05.944Z</time></trkpt><trkpt lat="45.38262" lon="9.25579"><ele>97.5</ele><time>2026-04-11T06:28:06.945Z</time></trkpt><trkpt lat="45.3826" lon="9.2562033"><ele>97.0</ele><time>2026-04-11T06:28:07.945Z</time></trkpt><trkpt lat="45.382575" lon="9.25662"><ele>97.0</ele><time>2026-04-11T06:28:08.945Z</time></trkpt><trkpt lat="45.382555" lon="9.2570317"><ele>97.0</ele><time>2026-04-11T06:28:09.944Z</time></trkpt><trkpt lat="45.3825367" lon="9.2574483"><ele>99.0</ele><time>2026-04-11T06:28:10.945Z</time></trkpt><trkpt lat="45.3824567" lon="9.2587067"><ele>98.5</ele><time>2026-04-11T06:28:13.945Z</time></trkpt><trkpt lat="45.3824367" lon="9.259125"><ele>98.0</ele><time>2026-04-11T06:28:14.945Z</time></trkpt><trkpt lat="45.382415" lon="9.259545"><ele>97.5</ele><time>2026-04-11T06:28:15.945Z</time></trkpt><trkpt lat="45.3823933" lon="9.2599633"><ele>97.0</ele><time>2026-04-11T06:28:16.945Z</time></trkpt><trkpt lat="45.3823733" lon="9.260385"><ele>97.0</ele><time>2026-04-11T06:28:17.945Z</time></trkpt><trkpt lat="45.3823533" lon="9.2608083"><ele>97.0</ele><time>2026-04-11T06:28:18.945Z</time></trkpt><trkpt lat="45.3823317" lon="9.2612133"><ele>98.0</ele><time>2026-04-11T06:28:19.944Z</time></trkpt><trkpt lat="45.3823067" lon="9.2616367"><ele>99.0</ele><time>2026-04-11T06:28:20.945Z</time></trkpt><trkpt lat="45.382285" lon="9.2620267"><ele>98.5</ele><time>2026-04-11T06:28:21.945Z</time></trkpt><trkpt lat="45.38226" lon="9.2623933"><ele>98.0</ele><time>2026-04-11T06:28:22.945Z</time></trkpt><trkpt lat="45.3822417" lon="9.2627483"><ele>98.0</ele><time>2026-04-11T06:28:23.945Z</time></trkpt><trkpt lat="45.3822167" lon="9.263085"><ele>98.0</ele><time>2026-04-11T06:28:24.945Z</time></trkpt><trkpt lat="45.3821867" lon="9.26341"><ele>98.0</ele><time>2026-04-11T06:28:25.945Z</time></trkpt><trkpt lat="45.38216" lon="9.263735"><ele>98.0</ele><time>2026-04-11T06:28:26.945Z</time></trkpt><trkpt lat="45.382135" lon="9.264065"><ele>98.0</ele><time>2026-04-11T06:28:27.945Z</time></trkpt><trkpt lat="45.3821" lon="9.26439"><ele>98.0</ele><time>2026-04-11T06:28:28.945Z</time></trkpt><trkpt lat="45.3820533" lon="9.2647167"><ele>99.0</ele><time>2026-04-11T06:28:29.945Z</time></trkpt><trkpt lat="45.3819933" lon="9.2650483"><ele>100.0</ele><time>2026-04-11T06:28:30.945Z</time></trkpt><trkpt lat="45.381935" lon="9.2653767"><ele>100.0</ele><time>2026-04-11T06:28:31.945Z</time></trkpt><trkpt lat="45.3818617" lon="9.2657067"><ele>100.0</ele><time>2026-04-11T06:28:32.944Z</time></trkpt><trkpt lat="45.38178" lon="9.266015"><ele>100.0</ele><time>2026-04-11T06:28:33.944Z</time></trkpt><trkpt lat="45.381655" lon="9.2663617"><ele>100.0</ele><time>2026-04-11T06:28:34.945Z</time></trkpt><trkpt lat="45.3815217" lon="9.2666617"><ele>98.5</ele><time>2026-04-11T06:28:35.945Z</time></trkpt><trkpt lat="45.3813717" lon="9.2669533"><ele>97.0</ele><time>2026-04-11T06:28:36.944Z</time></trkpt><trkpt lat="45.3812117" lon="9.26725"><ele>97.0</ele><time>2026-04-11T06:28:37.945Z</time></trkpt><trkpt lat="45.3810467" lon="9.267545"><ele>97.0</ele><time>2026-04-11T06:28:38.944Z</time></trkpt><trkpt lat="45.380875" lon="9.2678367"><ele>97.5</ele><time>2026-04-11T06:28:39.945Z</time></trkpt><trkpt lat="45.3807017" lon="9.26812"><ele>98.0</ele><time>2026-04-11T06:28:40.945Z</time></trkpt><trkpt lat="45.38052" lon="9.268395"><ele>97.0</ele><time>2026-04-11T06:28:41.945Z</time></trkpt><trkpt lat="45.3803433" lon="9.268675"><ele>96.0</ele><time>2026-04-11T06:28:42.945Z</time></trkpt><trkpt lat="45.3801617" lon="9.2689467"><ele>96.0</ele><time>2026-04-11T06:28:43.945Z</time></trkpt><trkpt lat="45.37998" lon="9.2692367"><ele>96.0</ele><time>2026-04-11T06:28:44.945Z</time></trkpt><trkpt lat="45.379805" lon="9.2695117"><ele>96.0</ele><time>2026-04-11T06:28:45.945Z</time></trkpt><trkpt lat="45.3796333" lon="9.2697717"><ele>96.0</ele><time>2026-04-11T06:28:46.945Z</time></trkpt><trkpt lat="45.3794733" lon="9.27004"><ele>96.5</ele><time>2026-04-11T06:28:47.945Z</time></trkpt><trkpt lat="45.3793133" lon="9.27031"><ele>97.0</ele><time>2026-04-11T06:28:48.945Z</time></trkpt><trkpt lat="45.3791533" lon="9.27059"><ele>97.0</ele><time>2026-04-11T06:28:49.945Z</time></trkpt><trkpt lat="45.3790117" lon="9.270865"><ele>97.0</ele><time>2026-04-11T06:28:50.945Z</time></trkpt><trkpt lat="45.3788867" lon="9.2711333"><ele>97.0</ele><time>2026-04-11T06:28:51.945Z</time></trkpt><trkpt lat="45.378785" lon="9.2713867"><ele>97.0</ele><time>2026-04-11T06:28:52.945Z</time></trkpt><trkpt lat="45.3786933" lon="9.2716433"><ele>97.0</ele><time>2026-04-11T06:28:53.945Z</time></trkpt><trkpt lat="45.3786083" lon="9.271915"><ele>97.0</ele><time>2026-04-11T06:28:54.945Z</time></trkpt><trkpt lat="45.3785483" lon="9.2721867"><ele>97.0</ele><time>2026-04-11T06:28:55.945Z</time></trkpt><trkpt lat="45.37849" lon="9.27246"><ele>97.0</ele><time>2026-04-11T06:28:56.945Z</time></trkpt><trkpt lat="45.3784333" lon="9.2727417"><ele>97.33333333333334</ele><time>2026-04-11T06:28:57.945Z</time></trkpt><trkpt lat="45.3783817" lon="9.2730433"><ele>97.66666666666666</ele><time>2026-04-11T06:28:58.945Z</time></trkpt><trkpt lat="45.3783333" lon="9.2733333"><ele>98.0</ele><time>2026-04-11T06:28:59.945Z</time></trkpt><trkpt lat="45.3782867" lon="9.2736317"><ele>97.33333333333333</ele><time>2026-04-11T06:29:00.945Z</time></trkpt><trkpt lat="45.3782383" lon="9.2739367"><ele>96.66666666666666</ele><time>2026-04-11T06:29:01.944Z</time></trkpt><trkpt lat="45.37819" lon="9.274235"><ele>96.0</ele><time>2026-04-11T06:29:02.945Z</time></trkpt><trkpt lat="45.37814" lon="9.2745367"><ele>96.0</ele><time>2026-04-11T06:29:03.944Z</time></trkpt><trkpt lat="45.37808" lon="9.2748267"><ele>96.0</ele><time>2026-04-11T06:29:04.945Z</time></trkpt><trkpt lat="45.3780117" lon="9.2751117"><ele>96.0</ele><time>2026-04-11T06:29:05.945Z</time></trkpt><trkpt lat="45.3779283" lon="9.2753817"><ele>95.66666666666667</ele><time>2026-04-11T06:29:06.945Z</time></trkpt><trkpt lat="45.3778383" lon="9.2756367"><ele>95.33333333333334</ele><time>2026-04-11T06:29:07.944Z</time></trkpt><trkpt lat="45.377735" lon="9.2758733"><ele>95.0</ele><time>2026-04-11T06:29:08.945Z</time></trkpt><trkpt lat="45.3776233" lon="9.2761083"><ele>95.0</ele><time>2026-04-11T06:29:09.944Z</time></trkpt><trkpt lat="45.3774983" lon="9.2763433"><ele>95.0</ele><time>2026-04-11T06:29:10.945Z</time></trkpt><trkpt lat="45.3773683" lon="9.2765617"><ele>95.0</ele><time>2026-04-11T06:29:11.945Z</time></trkpt><trkpt lat="45.3772283" lon="9.2767733"><ele>95.33333333333334</ele><time>2026-04-11T06:29:12.945Z</time></trkpt><trkpt lat="45.3770867" lon="9.2769767"><ele>95.66666666666667</ele><time>2026-04-11T06:29:13.945Z</time></trkpt><trkpt lat="45.3769417" lon="9.277165"><ele>96.0</ele><time>2026-04-11T06:29:14.945Z</time></trkpt><trkpt lat="45.3767833" lon="9.2773533"><ele>96.0</ele><time>2026-04-11T06:29:15.945Z</time></trkpt><trkpt lat="45.37663" lon="9.27754"><ele>96.0</ele><time>2026-04-11T06:29:16.944Z</time></trkpt><trkpt lat="45.37646" lon="9.2777267"><ele>96.0</ele><time>2026-04-11T06:29:17.944Z</time></trkpt><trkpt lat="45.3762917" lon="9.27792"><ele>95.33333333333333</ele><time>2026-04-11T06:29:18.945Z</time></trkpt><trkpt lat="45.37612" lon="9.278125"><ele>94.66666666666666</ele><time>2026-04-11T06:29:19.945Z</time></trkpt><trkpt lat="45.3759517" lon="9.2783317"><ele>94.0</ele><time>2026-04-11T06:29:20.945Z</time></trkpt><trkpt lat="45.3757783" lon="9.27854"><ele>94.0</ele><time>2026-04-11T06:29:21.945Z</time></trkpt><trkpt lat="45.3756067" lon="9.278765"><ele>94.0</ele><time>2026-04-11T06:29:22.944Z</time></trkpt><trkpt lat="45.3754383" lon="9.2789733"><ele>94.5</ele><time>2026-04-11T06:29:23.945Z</time></trkpt><trkpt lat="45.3752667" lon="9.279185"><ele>95.0</ele><time>2026-04-11T06:29:24.944Z</time></trkpt><trkpt lat="45.37508" lon="9.2794017"><ele>95.0</ele><time>2026-04-11T06:29:25.945Z</time></trkpt><trkpt lat="45.3748967" lon="9.2796067"><ele>95.0</ele><time>2026-04-11T06:29:26.945Z</time></trkpt><trkpt lat="45.3747083" lon="9.2798133"><ele>95.0</ele><time>2026-04-11T06:29:27.945Z</time></trkpt><trkpt lat="45.3745233" lon="9.28002"><ele>95.0</ele><time>2026-04-11T06:29:28.945Z</time></trkpt><trkpt lat="45.3743433" lon="9.2802333"><ele>95.0</ele><time>2026-04-11T06:29:29.944Z</time></trkpt><trkpt lat="45.3741617" lon="9.2804483"><ele>95.0</ele><time>2026-04-11T06:29:30.945Z</time></trkpt><trkpt lat="45.3739933" lon="9.280665"><ele>94.5</ele><time>2026-04-11T06:29:31.944Z</time></trkpt><trkpt lat="45.37382" lon="9.28088"><ele>94.0</ele><time>2026-04-11T06:29:32.944Z</time></trkpt><trkpt lat="45.3736467" lon="9.2810833"><ele>94.0</ele><time>2026-04-11T06:29:33.945Z</time></trkpt><trkpt lat="45.3734717" lon="9.2813"><ele>94.0</ele><time>2026-04-11T06:29:34.945Z</time></trkpt><trkpt lat="45.373295" lon="9.2815167"><ele>93.5</ele><time>2026-04-11T06:29:35.944Z</time></trkpt><trkpt lat="45.37312" lon="9.2817383"><ele>93.0</ele><time>2026-04-11T06:29:36.944Z</time></trkpt><trkpt lat="45.37294" lon="9.2819533"><ele>93.0</ele><time>2026-04-11T06:29:37.945Z</time></trkpt><trkpt lat="45.3727617" lon="9.2821633"><ele>93.0</ele><time>2026-04-11T06:29:38.944Z</time></trkpt><trkpt lat="45.3725817" lon="9.2823667"><ele>93.0</ele><time>2026-04-11T06:29:39.945Z</time></trkpt><trkpt lat="45.3724017" lon="9.2825683"><ele>93.0</ele><time>2026-04-11T06:29:40.945Z</time></trkpt><trkpt lat="45.3722217" lon="9.2827833"><ele>92.66666666666667</ele><time>2026-04-11T06:29:41.945Z</time></trkpt><trkpt lat="45.3720467" lon="9.2829883"><ele>92.33333333333334</ele><time>2026-04-11T06:29:42.945Z</time></trkpt><trkpt lat="45.3718733" lon="9.2831867"><ele>92.0</ele><time>2026-04-11T06:29:43.945Z</time></trkpt><trkpt lat="45.371695" lon="9.2834017"><ele>92.0</ele><time>2026-04-11T06:29:44.945Z</time></trkpt><trkpt lat="45.3715233" lon="9.283605"><ele>92.0</ele><time>2026-04-11T06:29:45.945Z</time></trkpt><trkpt lat="45.3713517" lon="9.2838083"><ele>92.0</ele><time>2026-04-11T06:29:46.945Z</time></trkpt><trkpt lat="45.37118" lon="9.284015"><ele>92.5</ele><time>2026-04-11T06:29:47.945Z</time></trkpt><trkpt lat="45.3710117" lon="9.284225"><ele>93.0</ele><time>2026-04-11T06:29:48.945Z</time></trkpt><trkpt lat="45.3708383" lon="9.2844367"><ele>93.0</ele><time>2026-04-11T06:29:49.945Z</time></trkpt><trkpt lat="45.37066" lon="9.2846483"><ele>93.0</ele><time>2026-04-11T06:29:50.945Z</time></trkpt><trkpt lat="45.37048" lon="9.284875"><ele>93.0</ele><time>2026-04-11T06:29:51.945Z</time></trkpt><trkpt lat="45.3702967" lon="9.28511"><ele>93.0</ele><time>2026-04-11T06:29:52.944Z</time></trkpt><trkpt lat="45.3701067" lon="9.2853433"><ele>93.0</ele><time>2026-04-11T06:29:53.945Z</time></trkpt><trkpt lat="45.3699067" lon="9.285575"><ele>93.0</ele><time>2026-04-11T06:29:54.945Z</time></trkpt><trkpt lat="45.3697017" lon="9.2858167"><ele>93.5</ele><time>2026-04-11T06:29:55.945Z</time></trkpt><trkpt lat="45.369505" lon="9.2860483"><ele>94.0</ele><time>2026-04-11T06:29:56.945Z</time></trkpt><trkpt lat="45.3693033" lon="9.2862817"><ele>93.5</ele><time>2026-04-11T06:29:57.945Z</time></trkpt><trkpt lat="45.3691067" lon="9.286515"><ele>93.0</ele><time>2026-04-11T06:29:58.945Z</time></trkpt><trkpt lat="45.36891" lon="9.2867383"><ele>92.5</ele><time>2026-04-11T06:29:59.945Z</time></trkpt><trkpt lat="45.368715" lon="9.2869767"><ele>92.0</ele><time>2026-04-11T06:30:00.944Z</time></trkpt><trkpt lat="45.3685267" lon="9.2872233"><ele>92.5</ele><time>2026-04-11T06:30:01.945Z</time></trkpt><trkpt lat="45.368325" lon="9.2874567"><ele>93.0</ele><time>2026-04-11T06:30:02.945Z</time></trkpt><trkpt lat="45.3681283" lon="9.2876817"><ele>92.5</ele><time>2026-04-11T06:30:03.945Z</time></trkpt><trkpt lat="45.3679217" lon="9.28792"><ele>92.0</ele><time>2026-04-11T06:30:04.945Z</time></trkpt><trkpt lat="45.3677383" lon="9.2881467"><ele>92.0</ele><time>2026-04-11T06:30:05.945Z</time></trkpt><trkpt lat="45.3675367" lon="9.2883833"><ele>92.0</ele><time>2026-04-11T06:30:06.945Z</time></trkpt><trkpt lat="45.3673317" lon="9.288625"><ele>92.0</ele><time>2026-04-11T06:30:07.945Z</time></trkpt><trkpt lat="45.3671233" lon="9.2888717"><ele>92.0</ele><time>2026-04-11T06:30:08.945Z</time></trkpt><trkpt lat="45.3669083" lon="9.2891067"><ele>92.0</ele><time>2026-04-11T06:30:09.945Z</time></trkpt><trkpt lat="45.3667017" lon="9.289345"><ele>92.0</ele><time>2026-04-11T06:30:10.945Z</time></trkpt><trkpt lat="45.3665" lon="9.2895833"><ele>92.5</ele><time>2026-04-11T06:30:11.945Z</time></trkpt><trkpt lat="45.3662917" lon="9.28982"><ele>93.0</ele><time>2026-04-11T06:30:12.945Z</time></trkpt><trkpt lat="45.3660867" lon="9.2900567"><ele>93.0</ele><time>2026-04-11T06:30:13.945Z</time></trkpt><trkpt lat="45.365905" lon="9.2902883"><ele>93.0</ele><time>2026-04-11T06:30:14.945Z</time></trkpt><trkpt lat="45.3656867" lon="9.2905317"><ele>93.0</ele><time>2026-04-11T06:30:15.945Z</time></trkpt><trkpt lat="45.3654683" lon="9.29079"><ele>93.0</ele><time>2026-04-11T06:30:16.945Z</time></trkpt><trkpt lat="45.36528" lon="9.2910117"><ele>93.0</ele><time>2026-04-11T06:30:17.945Z</time></trkpt><trkpt lat="45.36508" lon="9.2912383"><ele>93.0</ele><time>2026-04-11T06:30:18.945Z</time></trkpt><trkpt lat="45.3648567" lon="9.2915133"><ele>93.0</ele><time>2026-04-11T06:30:19.945Z</time></trkpt><trkpt lat="45.3646333" lon="9.2917967"><ele>93.0</ele><time>2026-04-11T06:30:20.945Z</time></trkpt><trkpt lat="45.3643967" lon="9.2920867"><ele>92.0</ele><time>2026-04-11T06:30:21.945Z</time></trkpt><trkpt lat="45.3641483" lon="9.2923867"><ele>91.0</ele><time>2026-04-11T06:30:22.945Z</time></trkpt><trkpt lat="45.36389" lon="9.2926817"><ele>91.5</ele><time>2026-04-11T06:30:23.945Z</time></trkpt><trkpt lat="45.363625" lon="9.2929817"><ele>92.0</ele><time>2026-04-11T06:30:24.945Z</time></trkpt><trkpt lat="45.363345" lon="9.2932933"><ele>92.0</ele><time>2026-04-11T06:30:25.944Z</time></trkpt><trkpt lat="45.3630717" lon="9.2936133"><ele>92.0</ele><time>2026-04-11T06:30:26.944Z</time></trkpt><trkpt lat="45.3628117" lon="9.2939167"><ele>91.5</ele><time>2026-04-11T06:30:27.944Z</time></trkpt><trkpt lat="45.3625617" lon="9.294195"><ele>91.0</ele><time>2026-04-11T06:30:28.943Z</time></trkpt><trkpt lat="45.3623283" lon="9.29446"><ele>91.0</ele><time>2026-04-11T06:30:29.944Z</time></trkpt><trkpt lat="45.3621133" lon="9.2947233"><ele>91.0</ele><time>2026-04-11T06:30:30.944Z</time></trkpt><trkpt lat="45.3618967" lon="9.29498"><ele>91.0</ele><time>2026-04-11T06:30:31.944Z</time></trkpt><trkpt lat="45.3616717" lon="9.2952333"><ele>91.0</ele><time>2026-04-11T06:30:32.944Z</time></trkpt><trkpt lat="45.3614467" lon="9.2955017"><ele>91.0</ele><time>2026-04-11T06:30:33.944Z</time></trkpt><trkpt lat="45.3612133" lon="9.2957717"><ele>91.0</ele><time>2026-04-11T06:30:34.944Z</time></trkpt><trkpt lat="45.360975" lon="9.296045"><ele>91.0</ele><time>2026-04-11T06:30:35.944Z</time></trkpt><trkpt lat="45.3607367" lon="9.2963283"><ele>91.0</ele><time>2026-04-11T06:30:36.944Z</time></trkpt><trkpt lat="45.3604933" lon="9.29662"><ele>90.5</ele><time>2026-04-11T06:30:37.944Z</time></trkpt><trkpt lat="45.3602417" lon="9.2969133"><ele>90.0</ele><time>2026-04-11T06:30:38.944Z</time></trkpt><trkpt lat="45.3599883" lon="9.29721"><ele>90.5</ele><time>2026-04-11T06:30:39.944Z</time></trkpt><trkpt lat="45.35974" lon="9.2975117"><ele>91.0</ele><time>2026-04-11T06:30:40.944Z</time></trkpt><trkpt lat="45.3594817" lon="9.2978133"><ele>91.0</ele><time>2026-04-11T06:30:41.944Z</time></trkpt><trkpt lat="45.3592267" lon="9.2981067"><ele>91.0</ele><time>2026-04-11T06:30:42.944Z</time></trkpt><trkpt lat="45.358975" lon="9.2984"><ele>91.5</ele><time>2026-04-11T06:30:43.944Z</time></trkpt><trkpt lat="45.3587167" lon="9.2986967"><ele>92.0</ele><time>2026-04-11T06:30:44.944Z</time></trkpt><trkpt lat="45.3584717" lon="9.2989883"><ele>92.5</ele><time>2026-04-11T06:30:45.943Z</time></trkpt><trkpt lat="45.35822" lon="9.2992883"><ele>93.0</ele><time>2026-04-11T06:30:46.944Z</time></trkpt><trkpt lat="45.3579583" lon="9.2995883"><ele>93.5</ele><time>2026-04-11T06:30:47.944Z</time></trkpt><trkpt lat="45.357705" lon="9.299885"><ele>94.0</ele><time>2026-04-11T06:30:48.944Z</time></trkpt><trkpt lat="45.3574483" lon="9.3001883"><ele>92.5</ele><time>2026-04-11T06:30:49.944Z</time></trkpt><trkpt lat="45.35719" lon="9.3004883"><ele>91.0</ele><time>2026-04-11T06:30:50.944Z</time></trkpt><trkpt lat="45.3569333" lon="9.300795"><ele>91.0</ele><time>2026-04-11T06:30:51.944Z</time></trkpt><trkpt lat="45.3566717" lon="9.3011"><ele>91.0</ele><time>2026-04-11T06:30:52.944Z</time></trkpt><trkpt lat="45.356415" lon="9.301405"><ele>91.5</ele><time>2026-04-11T06:30:53.944Z</time></trkpt><trkpt lat="45.356155" lon="9.3017017"><ele>92.0</ele><time>2026-04-11T06:30:54.943Z</time></trkpt><trkpt lat="45.3558967" lon="9.3020067"><ele>92.0</ele><time>2026-04-11T06:30:55.944Z</time></trkpt><trkpt lat="45.3556333" lon="9.30231"><ele>92.0</ele><time>2026-04-11T06:30:56.944Z</time></trkpt><trkpt lat="45.35539" lon="9.3026033"><ele>92.0</ele><time>2026-04-11T06:30:57.944Z</time></trkpt><trkpt lat="45.3551583" lon="9.3028583"><ele>92.0</ele><time>2026-04-11T06:30:58.944Z</time></trkpt><trkpt lat="45.35494" lon="9.30311"><ele>91.5</ele><time>2026-04-11T06:30:59.944Z</time></trkpt><trkpt lat="45.3547333" lon="9.303355"><ele>91.0</ele><time>2026-04-11T06:31:00.943Z</time></trkpt><trkpt lat="45.3545233" lon="9.3035867"><ele>90.0</ele><time>2026-04-11T06:31:01.944Z</time></trkpt><trkpt lat="45.3543183" lon="9.3038117"><ele>89.0</ele><time>2026-04-11T06:31:02.944Z</time></trkpt><trkpt lat="45.35412" lon="9.3040333"><ele>88.5</ele><time>2026-04-11T06:31:03.944Z</time></trkpt><trkpt lat="45.3539183" lon="9.304265"><ele>88.0</ele><time>2026-04-11T06:31:04.944Z</time></trkpt><trkpt lat="45.353725" lon="9.304485"><ele>89.0</ele><time>2026-04-11T06:31:05.944Z</time></trkpt><trkpt lat="45.3535467" lon="9.3046967"><ele>90.0</ele><time>2026-04-11T06:31:06.944Z</time></trkpt><trkpt lat="45.353375" lon="9.3048967"><ele>90.33333333333333</ele><time>2026-04-11T06:31:07.944Z</time></trkpt><trkpt lat="45.3532217" lon="9.3050783"><ele>90.66666666666666</ele><time>2026-04-11T06:31:08.944Z</time></trkpt><trkpt lat="45.3530633" lon="9.3052567"><ele>91.0</ele><time>2026-04-11T06:31:09.944Z</time></trkpt><trkpt lat="45.3528917" lon="9.30545"><ele>91.0</ele><time>2026-04-11T06:31:10.944Z</time></trkpt><trkpt lat="45.3527283" lon="9.3056433"><ele>91.0</ele><time>2026-04-11T06:31:11.944Z</time></trkpt><trkpt lat="45.3525583" lon="9.30584"><ele>91.0</ele><time>2026-04-11T06:31:12.944Z</time></trkpt><trkpt lat="45.3523833" lon="9.306045"><ele>90.66666666666666</ele><time>2026-04-11T06:31:13.944Z</time></trkpt><trkpt lat="45.3522" lon="9.30624"><ele>90.33333333333333</ele><time>2026-04-11T06:31:14.944Z</time></trkpt><trkpt lat="45.3520317" lon="9.30643"><ele>90.0</ele><time>2026-04-11T06:31:15.943Z</time></trkpt><trkpt lat="45.351855" lon="9.3066233"><ele>90.0</ele><time>2026-04-11T06:31:16.944Z</time></trkpt><trkpt lat="45.351685" lon="9.30681"><ele>90.0</ele><time>2026-04-11T06:31:17.944Z</time></trkpt><trkpt lat="45.3515183" lon="9.306985"><ele>90.0</ele><time>2026-04-11T06:31:18.944Z</time></trkpt><trkpt lat="45.35135" lon="9.3071583"><ele>90.0</ele><time>2026-04-11T06:31:19.944Z</time></trkpt><trkpt lat="45.3511967" lon="9.3073183"><ele>90.0</ele><time>2026-04-11T06:31:20.944Z</time></trkpt><trkpt lat="45.3510483" lon="9.307465"><ele>90.0</ele><time>2026-04-11T06:31:21.944Z</time></trkpt><trkpt lat="45.3509233" lon="9.3076117"><ele>90.0</ele><time>2026-04-11T06:31:22.943Z</time></trkpt><trkpt lat="45.3508" lon="9.30774"><ele>90.0</ele><time>2026-04-11T06:31:23.944Z</time></trkpt><trkpt lat="45.3506667" lon="9.3078667"><ele>90.0</ele><time>2026-04-11T06:31:24.944Z</time></trkpt><trkpt lat="45.3505433" lon="9.3079633"><ele>89.75</ele><time>2026-04-11T06:31:25.944Z</time></trkpt><trkpt lat="45.3504067" lon="9.308045"><ele>89.5</ele><time>2026-04-11T06:31:26.944Z</time></trkpt><trkpt lat="45.3502817" lon="9.3081067"><ele>89.25</ele><time>2026-04-11T06:31:27.944Z</time></trkpt><trkpt lat="45.3501517" lon="9.30816"><ele>89.0</ele><time>2026-04-11T06:31:28.943Z</time></trkpt><trkpt lat="45.350015" lon="9.308215"><ele>89.0</ele><time>2026-04-11T06:31:29.944Z</time></trkpt><trkpt lat="45.3498933" lon="9.3082533"><ele>89.0</ele><time>2026-04-11T06:31:30.943Z</time></trkpt><trkpt lat="45.3497783" lon="9.3083083"><ele>89.0</ele><time>2026-04-11T06:31:31.944Z</time></trkpt><trkpt lat="45.3496667" lon="9.308355"><ele>89.0</ele><time>2026-04-11T06:31:32.944Z</time></trkpt><trkpt lat="45.3495567" lon="9.3084033"><ele>89.2</ele><time>2026-04-11T06:31:33.944Z</time></trkpt><trkpt lat="45.34946" lon="9.3084567"><ele>89.4</ele><time>2026-04-11T06:31:34.944Z</time></trkpt><trkpt lat="45.3493667" lon="9.3085133"><ele>89.6</ele><time>2026-04-11T06:31:35.944Z</time></trkpt><trkpt lat="45.3492867" lon="9.3085883"><ele>89.8</ele><time>2026-04-11T06:31:36.944Z</time></trkpt><trkpt lat="45.3492133" lon="9.308665"><ele>90.0</ele><time>2026-04-11T06:31:37.944Z</time></trkpt><trkpt lat="45.34915" lon="9.3087317"><ele>90.0</ele><time>2026-04-11T06:31:38.944Z</time></trkpt><trkpt lat="45.3490967" lon="9.3087967"><ele>90.0</ele><time>2026-04-11T06:31:39.943Z</time></trkpt><trkpt lat="45.349045" lon="9.308855"><ele>90.0</ele><time>2026-04-11T06:31:40.944Z</time></trkpt><trkpt lat="45.34895" lon="9.308945"><ele>90.0</ele><time>2026-04-11T06:31:42.944Z</time></trkpt><trkpt lat="45.3488633" lon="9.3090417"><ele>90.0</ele><time>2026-04-11T06:31:44.943Z</time></trkpt><trkpt lat="45.348785" lon="9.3091617"><ele>90.0</ele><time>2026-04-11T06:31:46.944Z</time></trkpt><trkpt lat="45.3487217" lon="9.3092583"><ele>90.0</ele><time>2026-04-11T06:31:48.944Z</time></trkpt><trkpt lat="45.3486583" lon="9.3093517"><ele>90.0</ele><time>2026-04-11T06:31:50.944Z</time></trkpt><trkpt lat="45.348615" lon="9.30942"><ele>90.0</ele><time>2026-04-11T06:31:51.944Z</time></trkpt><trkpt lat="45.348565" lon="9.3095033"><ele>90.0</ele><time>2026-04-11T06:31:52.944Z</time></trkpt><trkpt lat="45.3485167" lon="9.3096117"><ele>90.0</ele><time>2026-04-11T06:31:53.944Z</time></trkpt><trkpt lat="45.348465" lon="9.3097233"><ele>90.2</ele><time>2026-04-11T06:31:54.944Z</time></trkpt><trkpt lat="45.3484133" lon="9.3098333"><ele>90.4</ele><time>2026-04-11T06:31:55.943Z</time></trkpt><trkpt lat="45.3483583" lon="9.3099583"><ele>90.6</ele><time>2026-04-11T06:31:56.944Z</time></trkpt><trkpt lat="45.3483017" lon="9.3100933"><ele>90.8</ele><time>2026-04-11T06:31:57.944Z</time></trkpt><trkpt lat="45.34825" lon="9.31022"><ele>91.0</ele><time>2026-04-11T06:31:58.944Z</time></trkpt><trkpt lat="45.3481867" lon="9.3103467"><ele>91.0</ele><time>2026-04-11T06:31:59.944Z</time></trkpt><trkpt lat="45.348125" lon="9.31048"><ele>91.0</ele><time>2026-04-11T06:32:00.944Z</time></trkpt><trkpt lat="45.348055" lon="9.3106233"><ele>91.0</ele><time>2026-04-11T06:32:01.944Z</time></trkpt><trkpt lat="45.3479783" lon="9.3107667"><ele>91.0</ele><time>2026-04-11T06:32:02.944Z</time></trkpt><trkpt lat="45.34789" lon="9.3109333"><ele>90.5</ele><time>2026-04-11T06:32:03.944Z</time></trkpt><trkpt lat="45.3478017" lon="9.3110917"><ele>90.0</ele><time>2026-04-11T06:32:04.944Z</time></trkpt><trkpt lat="45.34771" lon="9.3112417"><ele>89.5</ele><time>2026-04-11T06:32:05.943Z</time></trkpt><trkpt lat="45.3476217" lon="9.3113967"><ele>89.0</ele><time>2026-04-11T06:32:06.944Z</time></trkpt><trkpt lat="45.347535" lon="9.3115317"><ele>89.0</ele><time>2026-04-11T06:32:07.944Z</time></trkpt><trkpt lat="45.3474433" lon="9.31168"><ele>89.0</ele><time>2026-04-11T06:32:08.944Z</time></trkpt><trkpt lat="45.3473467" lon="9.3118183"><ele>89.0</ele><time>2026-04-11T06:32:09.944Z</time></trkpt><trkpt lat="45.3472367" lon="9.3119533"><ele>89.0</ele><time>2026-04-11T06:32:10.944Z</time></trkpt><trkpt lat="45.347125" lon="9.3120967"><ele>90.0</ele><time>2026-04-11T06:32:11.943Z</time></trkpt><trkpt lat="45.3470117" lon="9.3122467"><ele>91.0</ele><time>2026-04-11T06:32:12.944Z</time></trkpt><trkpt lat="45.3469067" lon="9.3124017"><ele>92.0</ele><time>2026-04-11T06:32:13.944Z</time></trkpt><trkpt lat="45.3467967" lon="9.3125633"><ele>92.0</ele><time>2026-04-11T06:32:14.944Z</time></trkpt><trkpt lat="45.3466567" lon="9.3127417"><ele>92.0</ele><time>2026-04-11T06:32:15.944Z</time></trkpt><trkpt lat="45.34652" lon="9.3129283"><ele>92.0</ele><time>2026-04-11T06:32:16.944Z</time></trkpt><trkpt lat="45.346385" lon="9.3131033"><ele>91.0</ele><time>2026-04-11T06:32:17.944Z</time></trkpt><trkpt lat="45.3462433" lon="9.313265"><ele>90.0</ele><time>2026-04-11T06:32:18.944Z</time></trkpt><trkpt lat="45.3461117" lon="9.3134233"><ele>89.0</ele><time>2026-04-11T06:32:19.944Z</time></trkpt><trkpt lat="45.3459783" lon="9.31357"><ele>89.0</ele><time>2026-04-11T06:32:20.944Z</time></trkpt><trkpt lat="45.34584" lon="9.3137233"><ele>89.0</ele><time>2026-04-11T06:32:21.944Z</time></trkpt><trkpt lat="45.3457017" lon="9.3138783"><ele>89.0</ele><time>2026-04-11T06:32:22.944Z</time></trkpt><trkpt lat="45.3455683" lon="9.314045"><ele>89.0</ele><time>2026-04-11T06:32:23.944Z</time></trkpt><trkpt lat="45.3454317" lon="9.31421"><ele>89.0</ele><time>2026-04-11T06:32:24.944Z</time></trkpt><trkpt lat="45.3452917" lon="9.3143767"><ele>89.0</ele><time>2026-04-11T06:32:25.944Z</time></trkpt><trkpt lat="45.3451517" lon="9.3145467"><ele>89.0</ele><time>2026-04-11T06:32:26.944Z</time></trkpt><trkpt lat="45.3450067" lon="9.3147167"><ele>89.0</ele><time>2026-04-11T06:32:27.944Z</time></trkpt><trkpt lat="45.34486" lon="9.3148983"><ele>89.0</ele><time>2026-04-11T06:32:28.944Z</time></trkpt><trkpt lat="45.344715" lon="9.3150983"><ele>89.0</ele><time>2026-04-11T06:32:29.943Z</time></trkpt><trkpt lat="45.3445583" lon="9.3153167"><ele>89.0</ele><time>2026-04-11T06:32:30.944Z</time></trkpt><trkpt lat="45.3443933" lon="9.31555"><ele>89.0</ele><time>2026-04-11T06:32:31.944Z</time></trkpt><trkpt lat="45.3442233" lon="9.3157833"><ele>89.0</ele><time>2026-04-11T06:32:32.944Z</time></trkpt><trkpt lat="45.3440533" lon="9.3160283"><ele>89.0</ele><time>2026-04-11T06:32:33.943Z</time></trkpt><trkpt lat="45.3438833" lon="9.3162733"><ele>89.0</ele><time>2026-04-11T06:32:34.944Z</time></trkpt><trkpt lat="45.3437133" lon="9.3165283"><ele>89.0</ele><time>2026-04-11T06:32:35.944Z</time></trkpt><trkpt lat="45.34354" lon="9.3167917"><ele>89.0</ele><time>2026-04-11T06:32:36.943Z</time></trkpt><trkpt lat="45.34336" lon="9.3170517"><ele>89.0</ele><time>2026-04-11T06:32:37.944Z</time></trkpt><trkpt lat="45.34319" lon="9.3173233"><ele>89.0</ele><time>2026-04-11T06:32:38.944Z</time></trkpt><trkpt lat="45.34302" lon="9.3175983"><ele>90.0</ele><time>2026-04-11T06:32:39.944Z</time></trkpt><trkpt lat="45.3428483" lon="9.31787"><ele>91.0</ele><time>2026-04-11T06:32:40.944Z</time></trkpt><trkpt lat="45.34268" lon="9.318155"><ele>91.0</ele><time>2026-04-11T06:32:41.944Z</time></trkpt><trkpt lat="45.3425117" lon="9.3184467"><ele>91.0</ele><time>2026-04-11T06:32:42.944Z</time></trkpt><trkpt lat="45.3423517" lon="9.31873"><ele>90.0</ele><time>2026-04-11T06:32:43.944Z</time></trkpt><trkpt lat="45.3421883" lon="9.319015"><ele>89.0</ele><time>2026-04-11T06:32:44.944Z</time></trkpt><trkpt lat="45.34202" lon="9.31931"><ele>89.0</ele><time>2026-04-11T06:32:45.944Z</time></trkpt><trkpt lat="45.3418517" lon="9.3196183"><ele>89.0</ele><time>2026-04-11T06:32:46.944Z</time></trkpt><trkpt lat="45.3417083" lon="9.3199133"><ele>89.0</ele><time>2026-04-11T06:32:47.944Z</time></trkpt><trkpt lat="45.3415533" lon="9.3202183"><ele>89.0</ele><time>2026-04-11T06:32:48.944Z</time></trkpt><trkpt lat="45.3413983" lon="9.3205367"><ele>90.0</ele><time>2026-04-11T06:32:49.943Z</time></trkpt><trkpt lat="45.34125" lon="9.320845"><ele>91.0</ele><time>2026-04-11T06:32:50.944Z</time></trkpt><trkpt lat="45.3410967" lon="9.3211633"><ele>90.5</ele><time>2026-04-11T06:32:51.944Z</time></trkpt><trkpt lat="45.34095" lon="9.321485"><ele>90.0</ele><time>2026-04-11T06:32:52.944Z</time></trkpt><trkpt lat="45.3408117" lon="9.3218167"><ele>90.0</ele><time>2026-04-11T06:32:53.944Z</time></trkpt><trkpt lat="45.340675" lon="9.32215"><ele>90.0</ele><time>2026-04-11T06:32:54.943Z</time></trkpt><trkpt lat="45.3405267" lon="9.3224883"><ele>89.0</ele><time>2026-04-11T06:32:55.944Z</time></trkpt><trkpt lat="45.34038" lon="9.322825"><ele>88.0</ele><time>2026-04-11T06:32:56.944Z</time></trkpt><trkpt lat="45.3402367" lon="9.32317"><ele>88.0</ele><time>2026-04-11T06:32:57.944Z</time></trkpt><trkpt lat="45.3401017" lon="9.3235133"><ele>88.0</ele><time>2026-04-11T06:32:58.944Z</time></trkpt><trkpt lat="45.3399683" lon="9.323865"><ele>88.5</ele><time>2026-04-11T06:32:59.944Z</time></trkpt><trkpt lat="45.3398367" lon="9.32422"><ele>89.0</ele><time>2026-04-11T06:33:00.943Z</time></trkpt><trkpt lat="45.339715" lon="9.3245783"><ele>88.5</ele><time>2026-04-11T06:33:01.944Z</time></trkpt><trkpt lat="45.339595" lon="9.3249383"><ele>88.0</ele><time>2026-04-11T06:33:02.944Z</time></trkpt><trkpt lat="45.339475" lon="9.3253083"><ele>88.0</ele><time>2026-04-11T06:33:03.944Z</time></trkpt><trkpt lat="45.3393617" lon="9.3256783"><ele>88.0</ele><time>2026-04-11T06:33:04.944Z</time></trkpt><trkpt lat="45.33924" lon="9.32605"><ele>87.0</ele><time>2026-04-11T06:33:05.944Z</time></trkpt><trkpt lat="45.339125" lon="9.32643"><ele>86.0</ele><time>2026-04-11T06:33:06.944Z</time></trkpt><trkpt lat="45.33901" lon="9.3268183"><ele>86.0</ele><time>2026-04-11T06:33:07.943Z</time></trkpt><trkpt lat="45.33891" lon="9.327205"><ele>86.0</ele><time>2026-04-11T06:33:08.944Z</time></trkpt><trkpt lat="45.3388083" lon="9.327585"><ele>86.0</ele><time>2026-04-11T06:33:09.944Z</time></trkpt><trkpt lat="45.338725" lon="9.3279633"><ele>86.0</ele><time>2026-04-11T06:33:10.944Z</time></trkpt><trkpt lat="45.33863" lon="9.328365"><ele>86.0</ele><time>2026-04-11T06:33:11.944Z</time></trkpt><trkpt lat="45.3385467" lon="9.3287633"><ele>86.0</ele><time>2026-04-11T06:33:12.944Z</time></trkpt><trkpt lat="45.338465" lon="9.3291533"><ele>86.5</ele><time>2026-04-11T06:33:13.944Z</time></trkpt><trkpt lat="45.338385" lon="9.3295467"><ele>87.0</ele><time>2026-04-11T06:33:14.944Z</time></trkpt><trkpt lat="45.3383117" lon="9.329945"><ele>87.0</ele><time>2026-04-11T06:33:15.944Z</time></trkpt><trkpt lat="45.3382383" lon="9.3303433"><ele>87.0</ele><time>2026-04-11T06:33:16.944Z</time></trkpt><trkpt lat="45.3381783" lon="9.33073"><ele>87.0</ele><time>2026-04-11T06:33:17.944Z</time></trkpt><trkpt lat="45.33811" lon="9.3311083"><ele>87.0</ele><time>2026-04-11T06:33:18.944Z</time></trkpt><trkpt lat="45.3380433" lon="9.331495"><ele>86.5</ele><time>2026-04-11T06:33:19.944Z</time></trkpt><trkpt lat="45.337985" lon="9.3318933"><ele>86.0</ele><time>2026-04-11T06:33:20.944Z</time></trkpt><trkpt lat="45.3379233" lon="9.332295"><ele>85.0</ele><time>2026-04-11T06:33:21.944Z</time></trkpt><trkpt lat="45.3378567" lon="9.3326767"><ele>84.0</ele><time>2026-04-11T06:33:22.943Z</time></trkpt><trkpt lat="45.337795" lon="9.33307"><ele>84.0</ele><time>2026-04-11T06:33:23.944Z</time></trkpt><trkpt lat="45.3377283" lon="9.3334867"><ele>84.0</ele><time>2026-04-11T06:33:24.944Z</time></trkpt><trkpt lat="45.3376667" lon="9.3338967"><ele>84.0</ele><time>2026-04-11T06:33:25.943Z</time></trkpt><trkpt lat="45.3376017" lon="9.334305"><ele>84.0</ele><time>2026-04-11T06:33:26.944Z</time></trkpt><trkpt lat="45.3375433" lon="9.3347183"><ele>84.0</ele><time>2026-04-11T06:33:27.943Z</time></trkpt><trkpt lat="45.33747" lon="9.3351383"><ele>84.0</ele><time>2026-04-11T06:33:28.944Z</time></trkpt><trkpt lat="45.33739" lon="9.33556"><ele>84.0</ele><time>2026-04-11T06:33:29.944Z</time></trkpt><trkpt lat="45.3373167" lon="9.3359833"><ele>84.0</ele><time>2026-04-11T06:33:30.944Z</time></trkpt><trkpt lat="45.33724" lon="9.3364067"><ele>84.0</ele><time>2026-04-11T06:33:31.944Z</time></trkpt><trkpt lat="45.3371717" lon="9.3368333"><ele>84.0</ele><time>2026-04-11T06:33:32.943Z</time></trkpt><trkpt lat="45.3371083" lon="9.3372483"><ele>84.0</ele><time>2026-04-11T06:33:33.944Z</time></trkpt><trkpt lat="45.3370433" lon="9.3376683"><ele>84.0</ele><time>2026-04-11T06:33:34.944Z</time></trkpt><trkpt lat="45.336985" lon="9.3380817"><ele>83.0</ele><time>2026-04-11T06:33:35.944Z</time></trkpt><trkpt lat="45.336925" lon="9.3385083"><ele>82.0</ele><time>2026-04-11T06:33:36.944Z</time></trkpt><trkpt lat="45.33686" lon="9.3389183"><ele>80.5</ele><time>2026-04-11T06:33:37.944Z</time></trkpt><trkpt lat="45.3367917" lon="9.3393417"><ele>79.0</ele><time>2026-04-11T06:33:38.944Z</time></trkpt><trkpt lat="45.33673" lon="9.3397633"><ele>77.0</ele><time>2026-04-11T06:33:39.944Z</time></trkpt><trkpt lat="45.3366683" lon="9.3401917"><ele>75.0</ele><time>2026-04-11T06:33:40.944Z</time></trkpt><trkpt lat="45.3366017" lon="9.3406117"><ele>75.5</ele><time>2026-04-11T06:33:41.944Z</time></trkpt><trkpt lat="45.33654" lon="9.3410367"><ele>76.0</ele><time>2026-04-11T06:33:42.944Z</time></trkpt><trkpt lat="45.3364717" lon="9.34146"><ele>76.0</ele><time>2026-04-11T06:33:43.944Z</time></trkpt><trkpt lat="45.3364083" lon="9.3418817"><ele>76.0</ele><time>2026-04-11T06:33:44.944Z</time></trkpt><trkpt lat="45.3363417" lon="9.3423033"><ele>75.5</ele><time>2026-04-11T06:33:45.944Z</time></trkpt><trkpt lat="45.3362783" lon="9.342735"><ele>75.0</ele><time>2026-04-11T06:33:46.944Z</time></trkpt><trkpt lat="45.3362167" lon="9.3431533"><ele>75.0</ele><time>2026-04-11T06:33:47.944Z</time></trkpt><trkpt lat="45.3361533" lon="9.3435817"><ele>75.0</ele><time>2026-04-11T06:33:48.944Z</time></trkpt><trkpt lat="45.33609" lon="9.3439983"><ele>76.5</ele><time>2026-04-11T06:33:49.943Z</time></trkpt><trkpt lat="45.33603" lon="9.344415"><ele>78.0</ele><time>2026-04-11T06:33:50.944Z</time></trkpt><trkpt lat="45.33597" lon="9.3448417"><ele>78.5</ele><time>2026-04-11T06:33:51.944Z</time></trkpt><trkpt lat="45.3359117" lon="9.345265"><ele>79.0</ele><time>2026-04-11T06:33:52.944Z</time></trkpt><trkpt lat="45.3358467" lon="9.34569"><ele>79.0</ele><time>2026-04-11T06:33:53.944Z</time></trkpt><trkpt lat="45.3357817" lon="9.3461133"><ele>79.0</ele><time>2026-04-11T06:33:54.944Z</time></trkpt><trkpt lat="45.3357133" lon="9.3465367"><ele>79.0</ele><time>2026-04-11T06:33:55.944Z</time></trkpt><trkpt lat="45.3356433" lon="9.346965"><ele>79.0</ele><time>2026-04-11T06:33:56.944Z</time></trkpt><trkpt lat="45.335575" lon="9.3473983"><ele>79.5</ele><time>2026-04-11T06:33:57.944Z</time></trkpt><trkpt lat="45.3355083" lon="9.34783"><ele>80.0</ele><time>2026-04-11T06:33:58.944Z</time></trkpt><trkpt lat="45.3354333" lon="9.3482583"><ele>80.0</ele><time>2026-04-11T06:33:59.944Z</time></trkpt><trkpt lat="45.3353583" lon="9.3486833"><ele>80.0</ele><time>2026-04-11T06:34:00.944Z</time></trkpt><trkpt lat="45.3352817" lon="9.3491083"><ele>80.0</ele><time>2026-04-11T06:34:01.944Z</time></trkpt><trkpt lat="45.3352017" lon="9.3495317"><ele>80.0</ele><time>2026-04-11T06:34:02.944Z</time></trkpt><trkpt lat="45.33512" lon="9.3499517"><ele>80.0</ele><time>2026-04-11T06:34:03.943Z</time></trkpt><trkpt lat="45.33503" lon="9.3503733"><ele>80.0</ele><time>2026-04-11T06:34:04.943Z</time></trkpt><trkpt lat="45.3349383" lon="9.350795"><ele>80.5</ele><time>2026-04-11T06:34:05.944Z</time></trkpt><trkpt lat="45.33484" lon="9.3512183"><ele>81.0</ele><time>2026-04-11T06:34:06.944Z</time></trkpt><trkpt lat="45.33474" lon="9.35164"><ele>80.0</ele><time>2026-04-11T06:34:07.944Z</time></trkpt><trkpt lat="45.3346317" lon="9.35206"><ele>79.0</ele><time>2026-04-11T06:34:08.944Z</time></trkpt><trkpt lat="45.3345133" lon="9.3524767"><ele>79.0</ele><time>2026-04-11T06:34:09.944Z</time></trkpt><trkpt lat="45.3343933" lon="9.3528933"><ele>79.0</ele><time>2026-04-11T06:34:10.944Z</time></trkpt><trkpt lat="45.3342767" lon="9.353305"><ele>79.5</ele><time>2026-04-11T06:34:11.944Z</time></trkpt><trkpt lat="45.3341467" lon="9.3537183"><ele>80.0</ele><time>2026-04-11T06:34:12.944Z</time></trkpt><trkpt lat="45.334015" lon="9.3541333"><ele>80.0</ele><time>2026-04-11T06:34:13.944Z</time></trkpt><trkpt lat="45.333885" lon="9.3545417"><ele>80.0</ele><time>2026-04-11T06:34:14.944Z</time></trkpt><trkpt lat="45.33375" lon="9.3549383"><ele>80.0</ele><time>2026-04-11T06:34:15.944Z</time></trkpt><trkpt lat="45.33361" lon="9.35534"><ele>80.0</ele><time>2026-04-11T06:34:16.944Z</time></trkpt><trkpt lat="45.333465" lon="9.3557333"><ele>80.0</ele><time>2026-04-11T06:34:17.943Z</time></trkpt><trkpt lat="45.3333167" lon="9.3561167"><ele>80.0</ele><time>2026-04-11T06:34:18.944Z</time></trkpt><trkpt lat="45.33317" lon="9.3564983"><ele>80.5</ele><time>2026-04-11T06:34:19.944Z</time></trkpt><trkpt lat="45.3330183" lon="9.3568817"><ele>81.0</ele><time>2026-04-11T06:34:20.944Z</time></trkpt><trkpt lat="45.3328567" lon="9.357265"><ele>81.5</ele><time>2026-04-11T06:34:21.944Z</time></trkpt><trkpt lat="45.332695" lon="9.3576417"><ele>82.0</ele><time>2026-04-11T06:34:22.943Z</time></trkpt><trkpt lat="45.3325317" lon="9.358025"><ele>83.5</ele><time>2026-04-11T06:34:23.944Z</time></trkpt><trkpt lat="45.33236" lon="9.3584017"><ele>85.0</ele><time>2026-04-11T06:34:24.943Z</time></trkpt><trkpt lat="45.3321933" lon="9.3587717"><ele>84.5</ele><time>2026-04-11T06:34:25.944Z</time></trkpt><trkpt lat="45.3320133" lon="9.359135"><ele>84.0</ele><time>2026-04-11T06:34:26.944Z</time></trkpt><trkpt lat="45.331825" lon="9.3595017"><ele>83.5</ele><time>2026-04-11T06:34:27.944Z</time></trkpt><trkpt lat="45.33164" lon="9.359855"><ele>83.0</ele><time>2026-04-11T06:34:28.944Z</time></trkpt><trkpt lat="45.3314517" lon="9.3602133"><ele>84.5</ele><time>2026-04-11T06:34:29.944Z</time></trkpt><trkpt lat="45.331265" lon="9.3605667"><ele>86.0</ele><time>2026-04-11T06:34:30.943Z</time></trkpt><trkpt lat="45.3310767" lon="9.36091"><ele>86.0</ele><time>2026-04-11T06:34:31.944Z</time></trkpt><trkpt lat="45.3308883" lon="9.3612333"><ele>86.0</ele><time>2026-04-11T06:34:32.944Z</time></trkpt><trkpt lat="45.3306967" lon="9.3615517"><ele>86.0</ele><time>2026-04-11T06:34:33.944Z</time></trkpt><trkpt lat="45.330505" lon="9.36186"><ele>86.0</ele><time>2026-04-11T06:34:34.944Z</time></trkpt><trkpt lat="45.3303133" lon="9.3621833"><ele>86.0</ele><time>2026-04-11T06:34:35.944Z</time></trkpt><trkpt lat="45.33012" lon="9.3624933"><ele>86.0</ele><time>2026-04-11T06:34:36.943Z</time></trkpt><trkpt lat="45.3299217" lon="9.362795"><ele>85.5</ele><time>2026-04-11T06:34:37.944Z</time></trkpt><trkpt lat="45.329725" lon="9.3631"><ele>85.0</ele><time>2026-04-11T06:34:38.944Z</time></trkpt><trkpt lat="45.3295267" lon="9.3634067"><ele>85.0</ele><time>2026-04-11T06:34:39.944Z</time></trkpt><trkpt lat="45.32932" lon="9.36371"><ele>85.0</ele><time>2026-04-11T06:34:40.944Z</time></trkpt><trkpt lat="45.3291183" lon="9.3640183"><ele>85.0</ele><time>2026-04-11T06:34:41.943Z</time></trkpt><trkpt lat="45.3289233" lon="9.3643183"><ele>85.0</ele><time>2026-04-11T06:34:42.944Z</time></trkpt><trkpt lat="45.3287233" lon="9.3646217"><ele>84.0</ele><time>2026-04-11T06:34:43.944Z</time></trkpt><trkpt lat="45.3285283" lon="9.3649283"><ele>83.0</ele><time>2026-04-11T06:34:44.944Z</time></trkpt><trkpt lat="45.3283317" lon="9.36522"><ele>83.0</ele><time>2026-04-11T06:34:45.944Z</time></trkpt><trkpt lat="45.32813" lon="9.3655267"><ele>83.0</ele><time>2026-04-11T06:34:46.943Z</time></trkpt><trkpt lat="45.3279267" lon="9.3658283"><ele>83.0</ele><time>2026-04-11T06:34:47.944Z</time></trkpt><trkpt lat="45.32773" lon="9.36613"><ele>83.0</ele><time>2026-04-11T06:34:48.944Z</time></trkpt><trkpt lat="45.32753" lon="9.366435"><ele>83.0</ele><time>2026-04-11T06:34:49.943Z</time></trkpt><trkpt lat="45.32733" lon="9.366745"><ele>83.0</ele><time>2026-04-11T06:34:50.944Z</time></trkpt><trkpt lat="45.3271317" lon="9.3670533"><ele>83.0</ele><time>2026-04-11T06:34:51.944Z</time></trkpt><trkpt lat="45.326935" lon="9.36736"><ele>83.0</ele><time>2026-04-11T06:34:52.944Z</time></trkpt><trkpt lat="45.3267417" lon="9.3676617"><ele>83.0</ele><time>2026-04-11T06:34:53.944Z</time></trkpt><trkpt lat="45.3265383" lon="9.3679733"><ele>83.0</ele><time>2026-04-11T06:34:54.944Z</time></trkpt><trkpt lat="45.3263317" lon="9.3682767"><ele>83.0</ele><time>2026-04-11T06:34:55.944Z</time></trkpt><trkpt lat="45.3261283" lon="9.3685883"><ele>83.0</ele><time>2026-04-11T06:34:56.944Z</time></trkpt><trkpt lat="45.3259267" lon="9.3688967"><ele>83.0</ele><time>2026-04-11T06:34:57.944Z</time></trkpt><trkpt lat="45.3257233" lon="9.369205"><ele>83.0</ele><time>2026-04-11T06:34:58.944Z</time></trkpt><trkpt lat="45.32552" lon="9.36952"><ele>82.5</ele><time>2026-04-11T06:34:59.944Z</time></trkpt><trkpt lat="45.32532" lon="9.3698317"><ele>82.0</ele><time>2026-04-11T06:35:00.944Z</time></trkpt><trkpt lat="45.3251167" lon="9.3701417"><ele>82.0</ele><time>2026-04-11T06:35:01.944Z</time></trkpt><trkpt lat="45.3249117" lon="9.3704567"><ele>82.0</ele><time>2026-04-11T06:35:02.944Z</time></trkpt><trkpt lat="45.3247067" lon="9.3707683"><ele>83.0</ele><time>2026-04-11T06:35:03.944Z</time></trkpt><trkpt lat="45.324505" lon="9.3710767"><ele>84.0</ele><time>2026-04-11T06:35:04.944Z</time></trkpt><trkpt lat="45.3243067" lon="9.3713967"><ele>84.5</ele><time>2026-04-11T06:35:05.944Z</time></trkpt><trkpt lat="45.3240983" lon="9.3717167"><ele>85.0</ele><time>2026-04-11T06:35:06.943Z</time></trkpt><trkpt lat="45.3238883" lon="9.37203"><ele>83.5</ele><time>2026-04-11T06:35:07.944Z</time></trkpt><trkpt lat="45.3236833" lon="9.37234"><ele>82.0</ele><time>2026-04-11T06:35:08.943Z</time></trkpt><trkpt lat="45.3234833" lon="9.37266"><ele>82.0</ele><time>2026-04-11T06:35:09.944Z</time></trkpt><trkpt lat="45.3232767" lon="9.3729783"><ele>82.0</ele><time>2026-04-11T06:35:10.944Z</time></trkpt><trkpt lat="45.3230717" lon="9.3733"><ele>82.0</ele><time>2026-04-11T06:35:11.944Z</time></trkpt><trkpt lat="45.3228683" lon="9.3736167"><ele>82.0</ele><time>2026-04-11T06:35:12.944Z</time></trkpt><trkpt lat="45.32267" lon="9.3739217"><ele>83.0</ele><time>2026-04-11T06:35:13.943Z</time></trkpt><trkpt lat="45.322465" lon="9.37423"><ele>84.0</ele><time>2026-04-11T06:35:14.944Z</time></trkpt><trkpt lat="45.3222583" lon="9.3745533"><ele>84.0</ele><time>2026-04-11T06:35:15.944Z</time></trkpt><trkpt lat="45.32205" lon="9.3748683"><ele>84.0</ele><time>2026-04-11T06:35:16.944Z</time></trkpt><trkpt lat="45.32184" lon="9.3751783"><ele>84.0</ele><time>2026-04-11T06:35:17.944Z</time></trkpt><trkpt lat="45.3216383" lon="9.37549"><ele>84.0</ele><time>2026-04-11T06:35:18.944Z</time></trkpt><trkpt lat="45.3214367" lon="9.375795"><ele>84.5</ele><time>2026-04-11T06:35:19.944Z</time></trkpt><trkpt lat="45.3212383" lon="9.3761167"><ele>85.0</ele><time>2026-04-11T06:35:20.944Z</time></trkpt><trkpt lat="45.32103" lon="9.3764333"><ele>85.0</ele><time>2026-04-11T06:35:21.943Z</time></trkpt><trkpt lat="45.3208283" lon="9.3767417"><ele>85.0</ele><time>2026-04-11T06:35:22.944Z</time></trkpt><trkpt lat="45.3206133" lon="9.377055"><ele>85.5</ele><time>2026-04-11T06:35:23.944Z</time></trkpt><trkpt lat="45.3204133" lon="9.3773617"><ele>86.0</ele><time>2026-04-11T06:35:24.944Z</time></trkpt><trkpt lat="45.320215" lon="9.3776717"><ele>86.0</ele><time>2026-04-11T06:35:25.944Z</time></trkpt><trkpt lat="45.3200167" lon="9.37798"><ele>86.0</ele><time>2026-04-11T06:35:26.944Z</time></trkpt><trkpt lat="45.31982" lon="9.3782883"><ele>85.5</ele><time>2026-04-11T06:35:27.944Z</time></trkpt><trkpt lat="45.3196233" lon="9.3785867"><ele>85.0</ele><time>2026-04-11T06:35:28.943Z</time></trkpt><trkpt lat="45.3194233" lon="9.3788833"><ele>84.5</ele><time>2026-04-11T06:35:29.944Z</time></trkpt><trkpt lat="45.3192233" lon="9.3791983"><ele>84.0</ele><time>2026-04-11T06:35:30.944Z</time></trkpt><trkpt lat="45.3190167" lon="9.379505"><ele>83.0</ele><time>2026-04-11T06:35:31.944Z</time></trkpt><trkpt lat="45.31882" lon="9.3798117"><ele>82.0</ele><time>2026-04-11T06:35:32.944Z</time></trkpt><trkpt lat="45.31863" lon="9.3801183"><ele>82.0</ele><time>2026-04-11T06:35:33.944Z</time></trkpt><trkpt lat="45.3184333" lon="9.380425"><ele>82.0</ele><time>2026-04-11T06:35:34.944Z</time></trkpt><trkpt lat="45.31824" lon="9.3807233"><ele>82.0</ele><time>2026-04-11T06:35:35.944Z</time></trkpt><trkpt lat="45.3180417" lon="9.38103"><ele>82.0</ele><time>2026-04-11T06:35:36.944Z</time></trkpt><trkpt lat="45.3178417" lon="9.3813367"><ele>82.0</ele><time>2026-04-11T06:35:37.944Z</time></trkpt><trkpt lat="45.3176417" lon="9.3816383"><ele>82.0</ele><time>2026-04-11T06:35:38.944Z</time></trkpt><trkpt lat="45.3174383" lon="9.38194"><ele>82.0</ele><time>2026-04-11T06:35:39.943Z</time></trkpt><trkpt lat="45.31724" lon="9.38224"><ele>82.0</ele><time>2026-04-11T06:35:40.944Z</time></trkpt><trkpt lat="45.3170417" lon="9.3825467"><ele>82.0</ele><time>2026-04-11T06:35:41.943Z</time></trkpt><trkpt lat="45.3168417" lon="9.382855"><ele>82.0</ele><time>2026-04-11T06:35:42.944Z</time></trkpt><trkpt lat="45.3166383" lon="9.3831533"><ele>82.0</ele><time>2026-04-11T06:35:43.944Z</time></trkpt><trkpt lat="45.316435" lon="9.3834617"><ele>82.0</ele><time>2026-04-11T06:35:44.944Z</time></trkpt><trkpt lat="45.3162383" lon="9.3837767"><ele>81.5</ele><time>2026-04-11T06:35:45.944Z</time></trkpt><trkpt lat="45.3160383" lon="9.3840867"><ele>81.0</ele><time>2026-04-11T06:35:46.944Z</time></trkpt><trkpt lat="45.31584" lon="9.3843867"><ele>81.0</ele><time>2026-04-11T06:35:47.943Z</time></trkpt><trkpt lat="45.3156367" lon="9.384695"><ele>81.0</ele><time>2026-04-11T06:35:48.943Z</time></trkpt><trkpt lat="45.3154333" lon="9.3850017"><ele>81.5</ele><time>2026-04-11T06:35:49.943Z</time></trkpt><trkpt lat="45.31523" lon="9.385315"><ele>82.0</ele><time>2026-04-11T06:35:50.944Z</time></trkpt><trkpt lat="45.315035" lon="9.3856183"><ele>81.5</ele><time>2026-04-11T06:35:51.944Z</time></trkpt><trkpt lat="45.314835" lon="9.3859267"><ele>81.0</ele><time>2026-04-11T06:35:52.944Z</time></trkpt><trkpt lat="45.3146267" lon="9.3862467"><ele>82.0</ele><time>2026-04-11T06:35:53.944Z</time></trkpt><trkpt lat="45.3144233" lon="9.386555"><ele>83.0</ele><time>2026-04-11T06:35:54.944Z</time></trkpt><trkpt lat="45.3142267" lon="9.3868683"><ele>83.0</ele><time>2026-04-11T06:35:55.944Z</time></trkpt><trkpt lat="45.3140267" lon="9.3871733"><ele>83.0</ele><time>2026-04-11T06:35:56.944Z</time></trkpt><trkpt lat="45.3138217" lon="9.387485"><ele>82.5</ele><time>2026-04-11T06:35:57.944Z</time></trkpt><trkpt lat="45.31362" lon="9.387795"><ele>82.0</ele><time>2026-04-11T06:35:58.944Z</time></trkpt><trkpt lat="45.3134217" lon="9.3880983"><ele>82.0</ele><time>2026-04-11T06:35:59.944Z</time></trkpt><trkpt lat="45.313215" lon="9.3884067"><ele>82.0</ele><time>2026-04-11T06:36:00.944Z</time></trkpt><trkpt lat="45.313005" lon="9.3887167"><ele>81.5</ele><time>2026-04-11T06:36:01.944Z</time></trkpt><trkpt lat="45.3128" lon="9.38903"><ele>81.0</ele><time>2026-04-11T06:36:02.944Z</time></trkpt><trkpt lat="45.3126083" lon="9.3893233"><ele>81.0</ele><time>2026-04-11T06:36:03.943Z</time></trkpt><trkpt lat="45.312435" lon="9.389595"><ele>81.0</ele><time>2026-04-11T06:36:04.943Z</time></trkpt><trkpt lat="45.3122633" lon="9.389855"><ele>80.5</ele><time>2026-04-11T06:36:05.944Z</time></trkpt><trkpt lat="45.3121067" lon="9.3900933"><ele>80.0</ele><time>2026-04-11T06:36:06.944Z</time></trkpt><trkpt lat="45.311955" lon="9.3903217"><ele>80.0</ele><time>2026-04-11T06:36:07.944Z</time></trkpt><trkpt lat="45.3118083" lon="9.3905467"><ele>80.0</ele><time>2026-04-11T06:36:08.944Z</time></trkpt><trkpt lat="45.3116633" lon="9.3907767"><ele>80.0</ele><time>2026-04-11T06:36:09.944Z</time></trkpt><trkpt lat="45.3115133" lon="9.3910067"><ele>80.0</ele><time>2026-04-11T06:36:10.944Z</time></trkpt><trkpt lat="45.31135" lon="9.3912483"><ele>80.0</ele><time>2026-04-11T06:36:11.944Z</time></trkpt><trkpt lat="45.3112033" lon="9.3914833"><ele>80.0</ele><time>2026-04-11T06:36:12.944Z</time></trkpt><trkpt lat="45.3110467" lon="9.39172"><ele>80.0</ele><time>2026-04-11T06:36:13.944Z</time></trkpt><trkpt lat="45.3108917" lon="9.3919533"><ele>80.33333333333334</ele><time>2026-04-11T06:36:14.944Z</time></trkpt><trkpt lat="45.31074" lon="9.3921817"><ele>80.66666666666667</ele><time>2026-04-11T06:36:15.944Z</time></trkpt><trkpt lat="45.31059" lon="9.3924133"><ele>81.0</ele><time>2026-04-11T06:36:16.944Z</time></trkpt><trkpt lat="45.3104467" lon="9.3926483"><ele>81.0</ele><time>2026-04-11T06:36:17.944Z</time></trkpt><trkpt lat="45.3102867" lon="9.3929133"><ele>81.0</ele><time>2026-04-11T06:36:18.944Z</time></trkpt><trkpt lat="45.3101133" lon="9.3931933"><ele>81.0</ele><time>2026-04-11T06:36:19.944Z</time></trkpt><trkpt lat="45.30994" lon="9.39348"><ele>81.0</ele><time>2026-04-11T06:36:20.944Z</time></trkpt><trkpt lat="45.309765" lon="9.3937533"><ele>81.0</ele><time>2026-04-11T06:36:21.944Z</time></trkpt><trkpt lat="45.3095783" lon="9.3940283"><ele>81.0</ele><time>2026-04-11T06:36:22.943Z</time></trkpt><trkpt lat="45.30939" lon="9.3942983"><ele>81.0</ele><time>2026-04-11T06:36:23.944Z</time></trkpt><trkpt lat="45.30919" lon="9.394575"><ele>81.0</ele><time>2026-04-11T06:36:24.944Z</time></trkpt><trkpt lat="45.309005" lon="9.39485"><ele>81.0</ele><time>2026-04-11T06:36:25.944Z</time></trkpt><trkpt lat="45.3088233" lon="9.3951317"><ele>81.0</ele><time>2026-04-11T06:36:26.943Z</time></trkpt><trkpt lat="45.30864" lon="9.39541"><ele>81.0</ele><time>2026-04-11T06:36:27.944Z</time></trkpt><trkpt lat="45.3084583" lon="9.3956883"><ele>81.0</ele><time>2026-04-11T06:36:28.944Z</time></trkpt><trkpt lat="45.3082733" lon="9.3959633"><ele>81.0</ele><time>2026-04-11T06:36:29.944Z</time></trkpt><trkpt lat="45.3080867" lon="9.3962467"><ele>81.0</ele><time>2026-04-11T06:36:30.943Z</time></trkpt><trkpt lat="45.3079033" lon="9.3965233"><ele>80.5</ele><time>2026-04-11T06:36:31.943Z</time></trkpt><trkpt lat="45.3077283" lon="9.3968"><ele>80.0</ele><time>2026-04-11T06:36:32.944Z</time></trkpt><trkpt lat="45.30754" lon="9.39709"><ele>80.0</ele><time>2026-04-11T06:36:33.943Z</time></trkpt><trkpt lat="45.3073567" lon="9.39737"><ele>80.0</ele><time>2026-04-11T06:36:34.944Z</time></trkpt><trkpt lat="45.3071667" lon="9.3976583"><ele>80.0</ele><time>2026-04-11T06:36:35.944Z</time></trkpt><trkpt lat="45.30698" lon="9.397945"><ele>80.0</ele><time>2026-04-11T06:36:36.944Z</time></trkpt><trkpt lat="45.3067917" lon="9.3982283"><ele>81.0</ele><time>2026-04-11T06:36:37.944Z</time></trkpt><trkpt lat="45.3066117" lon="9.3985133"><ele>82.0</ele><time>2026-04-11T06:36:38.943Z</time></trkpt><trkpt lat="45.3064333" lon="9.398795"><ele>81.5</ele><time>2026-04-11T06:36:39.944Z</time></trkpt><trkpt lat="45.3062433" lon="9.3990917"><ele>81.0</ele><time>2026-04-11T06:36:40.944Z</time></trkpt><trkpt lat="45.3060567" lon="9.3993767"><ele>81.0</ele><time>2026-04-11T06:36:41.944Z</time></trkpt><trkpt lat="45.3058667" lon="9.3996617"><ele>81.0</ele><time>2026-04-11T06:36:42.944Z</time></trkpt><trkpt lat="45.3056833" lon="9.3999567"><ele>81.0</ele><time>2026-04-11T06:36:43.944Z</time></trkpt><trkpt lat="45.3054933" lon="9.40025"><ele>81.0</ele><time>2026-04-11T06:36:44.944Z</time></trkpt><trkpt lat="45.3053" lon="9.4005367"><ele>81.0</ele><time>2026-04-11T06:36:45.944Z</time></trkpt><trkpt lat="45.3051083" lon="9.4008267"><ele>81.0</ele><time>2026-04-11T06:36:46.944Z</time></trkpt><trkpt lat="45.3049167" lon="9.4011167"><ele>81.0</ele><time>2026-04-11T06:36:47.944Z</time></trkpt><trkpt lat="45.3047267" lon="9.4014"><ele>81.0</ele><time>2026-04-11T06:36:48.944Z</time></trkpt><trkpt lat="45.3045333" lon="9.401695"><ele>81.0</ele><time>2026-04-11T06:36:49.944Z</time></trkpt><trkpt lat="45.30434" lon="9.401985"><ele>81.0</ele><time>2026-04-11T06:36:50.944Z</time></trkpt><trkpt lat="45.30414" lon="9.4022733"><ele>81.0</ele><time>2026-04-11T06:36:51.944Z</time></trkpt><trkpt lat="45.3039417" lon="9.4025733"><ele>81.0</ele><time>2026-04-11T06:36:52.943Z</time></trkpt><trkpt lat="45.3037433" lon="9.4028583"><ele>80.0</ele><time>2026-04-11T06:36:53.944Z</time></trkpt><trkpt lat="45.3035367" lon="9.403145"><ele>79.0</ele><time>2026-04-11T06:36:54.943Z</time></trkpt><trkpt lat="45.30333" lon="9.4034317"><ele>79.0</ele><time>2026-04-11T06:36:55.944Z</time></trkpt><trkpt lat="45.303125" lon="9.403715"><ele>79.0</ele><time>2026-04-11T06:36:56.944Z</time></trkpt><trkpt lat="45.3029183" lon="9.4040033"><ele>79.0</ele><time>2026-04-11T06:36:57.943Z</time></trkpt><trkpt lat="45.30271" lon="9.40429"><ele>79.0</ele><time>2026-04-11T06:36:58.944Z</time></trkpt><trkpt lat="45.3025" lon="9.4045783"><ele>79.5</ele><time>2026-04-11T06:36:59.943Z</time></trkpt><trkpt lat="45.3022833" lon="9.4048617"><ele>80.0</ele><time>2026-04-11T06:37:00.944Z</time></trkpt><trkpt lat="45.30208" lon="9.405155"><ele>79.5</ele><time>2026-04-11T06:37:01.944Z</time></trkpt><trkpt lat="45.3018733" lon="9.4054467"><ele>79.0</ele><time>2026-04-11T06:37:02.944Z</time></trkpt><trkpt lat="45.3016633" lon="9.405735"><ele>79.0</ele><time>2026-04-11T06:37:03.944Z</time></trkpt><trkpt lat="45.30145" lon="9.4060217"><ele>79.0</ele><time>2026-04-11T06:37:04.944Z</time></trkpt><trkpt lat="45.3012467" lon="9.40631"><ele>79.5</ele><time>2026-04-11T06:37:05.944Z</time></trkpt><trkpt lat="45.30104" lon="9.4065983"><ele>80.0</ele><time>2026-04-11T06:37:06.944Z</time></trkpt><trkpt lat="45.30083" lon="9.4068833"><ele>80.0</ele><time>2026-04-11T06:37:07.944Z</time></trkpt><trkpt lat="45.3006233" lon="9.4071733"><ele>80.0</ele><time>2026-04-11T06:37:08.944Z</time></trkpt><trkpt lat="45.3004167" lon="9.407465"><ele>80.0</ele><time>2026-04-11T06:37:09.944Z</time></trkpt><trkpt lat="45.3002017" lon="9.4077567"><ele>80.0</ele><time>2026-04-11T06:37:10.944Z</time></trkpt><trkpt lat="45.3000017" lon="9.408045"><ele>80.0</ele><time>2026-04-11T06:37:11.944Z</time></trkpt><trkpt lat="45.2997983" lon="9.4083417"><ele>80.0</ele><time>2026-04-11T06:37:12.944Z</time></trkpt><trkpt lat="45.2995833" lon="9.4086367"><ele>79.0</ele><time>2026-04-11T06:37:13.943Z</time></trkpt><trkpt lat="45.299375" lon="9.408925"><ele>78.0</ele><time>2026-04-11T06:37:14.944Z</time></trkpt><trkpt lat="45.29917" lon="9.4092217"><ele>78.0</ele><time>2026-04-11T06:37:15.944Z</time></trkpt><trkpt lat="45.29896" lon="9.4095217"><ele>78.0</ele><time>2026-04-11T06:37:16.943Z</time></trkpt><trkpt lat="45.2987533" lon="9.4098117"><ele>77.5</ele><time>2026-04-11T06:37:17.944Z</time></trkpt><trkpt lat="45.2985483" lon="9.41011"><ele>77.0</ele><time>2026-04-11T06:37:18.943Z</time></trkpt><trkpt lat="45.2983383" lon="9.410405"><ele>77.0</ele><time>2026-04-11T06:37:19.944Z</time></trkpt><trkpt lat="45.2981317" lon="9.41071"><ele>77.0</ele><time>2026-04-11T06:37:20.944Z</time></trkpt><trkpt lat="45.2979267" lon="9.4110183"><ele>77.0</ele><time>2026-04-11T06:37:21.944Z</time></trkpt><trkpt lat="45.2977233" lon="9.4113267"><ele>77.0</ele><time>2026-04-11T06:37:22.944Z</time></trkpt><trkpt lat="45.2973217" lon="9.4119333"><ele>78.0</ele><time>2026-04-11T06:37:24.944Z</time></trkpt><trkpt lat="45.29713" lon="9.4122267"><ele>79.0</ele><time>2026-04-11T06:37:25.944Z</time></trkpt><trkpt lat="45.2969333" lon="9.412525"><ele>79.0</ele><time>2026-04-11T06:37:26.944Z</time></trkpt><trkpt lat="45.2967417" lon="9.4128267"><ele>79.0</ele><time>2026-04-11T06:37:27.944Z</time></trkpt><trkpt lat="45.2965433" lon="9.4131217"><ele>78.0</ele><time>2026-04-11T06:37:28.944Z</time></trkpt><trkpt lat="45.296355" lon="9.4134183"><ele>77.0</ele><time>2026-04-11T06:37:29.944Z</time></trkpt><trkpt lat="45.2961683" lon="9.4137133"><ele>76.5</ele><time>2026-04-11T06:37:30.944Z</time></trkpt><trkpt lat="45.295985" lon="9.4140033"><ele>76.0</ele><time>2026-04-11T06:37:31.944Z</time></trkpt><trkpt lat="45.2958067" lon="9.4142933"><ele>76.0</ele><time>2026-04-11T06:37:32.944Z</time></trkpt><trkpt lat="45.295625" lon="9.4145883"><ele>76.0</ele><time>2026-04-11T06:37:33.944Z</time></trkpt><trkpt lat="45.2954417" lon="9.4148817"><ele>76.0</ele><time>2026-04-11T06:37:34.944Z</time></trkpt><trkpt lat="45.29526" lon="9.4151683"><ele>76.0</ele><time>2026-04-11T06:37:35.944Z</time></trkpt><trkpt lat="45.2950783" lon="9.4154683"><ele>76.5</ele><time>2026-04-11T06:37:36.944Z</time></trkpt><trkpt lat="45.2949083" lon="9.41576"><ele>77.0</ele><time>2026-04-11T06:37:37.944Z</time></trkpt><trkpt lat="45.2947267" lon="9.4160533"><ele>76.5</ele><time>2026-04-11T06:37:38.944Z</time></trkpt><trkpt lat="45.2945433" lon="9.416355"><ele>76.0</ele><time>2026-04-11T06:37:39.944Z</time></trkpt><trkpt lat="45.2943617" lon="9.416655"><ele>76.0</ele><time>2026-04-11T06:37:40.944Z</time></trkpt><trkpt lat="45.29419" lon="9.4169517"><ele>76.0</ele><time>2026-04-11T06:37:41.944Z</time></trkpt><trkpt lat="45.2940117" lon="9.41726"><ele>76.5</ele><time>2026-04-11T06:37:42.944Z</time></trkpt><trkpt lat="45.2938333" lon="9.417565"><ele>77.0</ele><time>2026-04-11T06:37:43.944Z</time></trkpt><trkpt lat="45.293655" lon="9.4178617"><ele>76.0</ele><time>2026-04-11T06:37:44.944Z</time></trkpt><trkpt lat="45.29348" lon="9.41817"><ele>75.0</ele><time>2026-04-11T06:37:45.943Z</time></trkpt><trkpt lat="45.293305" lon="9.4184833"><ele>75.0</ele><time>2026-04-11T06:37:46.944Z</time></trkpt><trkpt lat="45.293125" lon="9.4187883"><ele>75.0</ele><time>2026-04-11T06:37:47.944Z</time></trkpt><trkpt lat="45.29295" lon="9.4190933"><ele>75.0</ele><time>2026-04-11T06:37:48.944Z</time></trkpt><trkpt lat="45.292775" lon="9.419405"><ele>75.0</ele><time>2026-04-11T06:37:49.944Z</time></trkpt><trkpt lat="45.2925983" lon="9.4197233"><ele>75.0</ele><time>2026-04-11T06:37:50.943Z</time></trkpt><trkpt lat="45.292415" lon="9.420045"><ele>75.0</ele><time>2026-04-11T06:37:51.943Z</time></trkpt><trkpt lat="45.292235" lon="9.4203567"><ele>75.5</ele><time>2026-04-11T06:37:52.943Z</time></trkpt><trkpt lat="45.2920667" lon="9.42067"><ele>76.0</ele><time>2026-04-11T06:37:53.943Z</time></trkpt><trkpt lat="45.2918883" lon="9.4209867"><ele>76.0</ele><time>2026-04-11T06:37:54.943Z</time></trkpt><trkpt lat="45.2917183" lon="9.4213"><ele>76.0</ele><time>2026-04-11T06:37:55.943Z</time></trkpt><trkpt lat="45.2915467" lon="9.4216117"><ele>76.0</ele><time>2026-04-11T06:37:56.943Z</time></trkpt><trkpt lat="45.29138" lon="9.421925"><ele>76.0</ele><time>2026-04-11T06:37:57.943Z</time></trkpt><trkpt lat="45.29121" lon="9.4222333"><ele>76.0</ele><time>2026-04-11T06:37:58.943Z</time></trkpt><trkpt lat="45.2910367" lon="9.4225433"><ele>76.0</ele><time>2026-04-11T06:37:59.943Z</time></trkpt><trkpt lat="45.2908583" lon="9.42286"><ele>76.0</ele><time>2026-04-11T06:38:00.942Z</time></trkpt><trkpt lat="45.2906767" lon="9.4231733"><ele>76.0</ele><time>2026-04-11T06:38:01.943Z</time></trkpt><trkpt lat="45.2904967" lon="9.4234933"><ele>76.0</ele><time>2026-04-11T06:38:02.943Z</time></trkpt><trkpt lat="45.2903183" lon="9.4238083"><ele>76.0</ele><time>2026-04-11T06:38:03.943Z</time></trkpt><trkpt lat="45.2901433" lon="9.4241217"><ele>76.0</ele><time>2026-04-11T06:38:04.943Z</time></trkpt><trkpt lat="45.289975" lon="9.4244433"><ele>76.0</ele><time>2026-04-11T06:38:05.943Z</time></trkpt><trkpt lat="45.2897983" lon="9.42477"><ele>76.0</ele><time>2026-04-11T06:38:06.943Z</time></trkpt><trkpt lat="45.2896167" lon="9.4251083"><ele>76.0</ele><time>2026-04-11T06:38:07.943Z</time></trkpt><trkpt lat="45.28944" lon="9.425445"><ele>76.5</ele><time>2026-04-11T06:38:08.943Z</time></trkpt><trkpt lat="45.2892533" lon="9.4257933"><ele>77.0</ele><time>2026-04-11T06:38:09.943Z</time></trkpt><trkpt lat="45.2890533" lon="9.42615"><ele>77.0</ele><time>2026-04-11T06:38:10.943Z</time></trkpt><trkpt lat="45.28886" lon="9.426495"><ele>77.0</ele><time>2026-04-11T06:38:11.943Z</time></trkpt><trkpt lat="45.288675" lon="9.426845"><ele>77.0</ele><time>2026-04-11T06:38:12.943Z</time></trkpt><trkpt lat="45.2884867" lon="9.42718"><ele>77.0</ele><time>2026-04-11T06:38:13.943Z</time></trkpt><trkpt lat="45.2882933" lon="9.4275283"><ele>77.0</ele><time>2026-04-11T06:38:14.943Z</time></trkpt><trkpt lat="45.2880967" lon="9.4278817"><ele>77.0</ele><time>2026-04-11T06:38:15.943Z</time></trkpt><trkpt lat="45.2879033" lon="9.4282283"><ele>77.5</ele><time>2026-04-11T06:38:16.943Z</time></trkpt><trkpt lat="45.2877083" lon="9.4285617"><ele>78.0</ele><time>2026-04-11T06:38:17.943Z</time></trkpt><trkpt lat="45.287515" lon="9.42889"><ele>77.5</ele><time>2026-04-11T06:38:18.943Z</time></trkpt><trkpt lat="45.2873183" lon="9.4292233"><ele>77.0</ele><time>2026-04-11T06:38:19.942Z</time></trkpt><trkpt lat="45.28712" lon="9.4295483"><ele>77.0</ele><time>2026-04-11T06:38:20.943Z</time></trkpt><trkpt lat="45.286945" lon="9.4298633"><ele>77.0</ele><time>2026-04-11T06:38:21.943Z</time></trkpt><trkpt lat="45.28676" lon="9.4301883"><ele>77.5</ele><time>2026-04-11T06:38:22.943Z</time></trkpt><trkpt lat="45.28658" lon="9.43051"><ele>78.0</ele><time>2026-04-11T06:38:23.943Z</time></trkpt><trkpt lat="45.28641" lon="9.4308133"><ele>78.0</ele><time>2026-04-11T06:38:24.943Z</time></trkpt><trkpt lat="45.2862317" lon="9.4311217"><ele>78.0</ele><time>2026-04-11T06:38:25.943Z</time></trkpt><trkpt lat="45.286055" lon="9.4314383"><ele>76.5</ele><time>2026-04-11T06:38:26.943Z</time></trkpt><trkpt lat="45.2858833" lon="9.431735"><ele>75.0</ele><time>2026-04-11T06:38:27.943Z</time></trkpt><trkpt lat="45.2857067" lon="9.4320317"><ele>75.0</ele><time>2026-04-11T06:38:28.943Z</time></trkpt><trkpt lat="45.285535" lon="9.4323167"><ele>75.0</ele><time>2026-04-11T06:38:29.943Z</time></trkpt><trkpt lat="45.2853733" lon="9.4325917"><ele>75.0</ele><time>2026-04-11T06:38:30.943Z</time></trkpt><trkpt lat="45.2852167" lon="9.4328533"><ele>75.0</ele><time>2026-04-11T06:38:31.943Z</time></trkpt><trkpt lat="45.2850667" lon="9.4331033"><ele>75.5</ele><time>2026-04-11T06:38:32.943Z</time></trkpt><trkpt lat="45.2849133" lon="9.43337"><ele>76.0</ele><time>2026-04-11T06:38:33.942Z</time></trkpt><trkpt lat="45.28476" lon="9.433645"><ele>74.5</ele><time>2026-04-11T06:38:34.943Z</time></trkpt><trkpt lat="45.2846" lon="9.4339333"><ele>73.0</ele><time>2026-04-11T06:38:35.943Z</time></trkpt><trkpt lat="45.2844267" lon="9.4342283"><ele>73.0</ele><time>2026-04-11T06:38:36.943Z</time></trkpt><trkpt lat="45.2842517" lon="9.4345283"><ele>73.0</ele><time>2026-04-11T06:38:37.942Z</time></trkpt><trkpt lat="45.2840733" lon="9.4348233"><ele>74.0</ele><time>2026-04-11T06:38:38.943Z</time></trkpt><trkpt lat="45.28389" lon="9.4351183"><ele>75.0</ele><time>2026-04-11T06:38:39.943Z</time></trkpt><trkpt lat="45.283705" lon="9.43541"><ele>75.0</ele><time>2026-04-11T06:38:40.943Z</time></trkpt><trkpt lat="45.2835267" lon="9.4357117"><ele>75.0</ele><time>2026-04-11T06:38:41.943Z</time></trkpt><trkpt lat="45.283365" lon="9.4359967"><ele>75.0</ele><time>2026-04-11T06:38:42.943Z</time></trkpt><trkpt lat="45.283185" lon="9.4363033"><ele>75.0</ele><time>2026-04-11T06:38:43.943Z</time></trkpt><trkpt lat="45.2829967" lon="9.4366117"><ele>74.5</ele><time>2026-04-11T06:38:44.943Z</time></trkpt><trkpt lat="45.2828117" lon="9.4369167"><ele>74.0</ele><time>2026-04-11T06:38:45.943Z</time></trkpt><trkpt lat="45.282635" lon="9.43721"><ele>74.0</ele><time>2026-04-11T06:38:46.943Z</time></trkpt><trkpt lat="45.2824583" lon="9.4375033"><ele>74.0</ele><time>2026-04-11T06:38:47.943Z</time></trkpt><trkpt lat="45.2822733" lon="9.4378033"><ele>73.5</ele><time>2026-04-11T06:38:48.943Z</time></trkpt><trkpt lat="45.2820883" lon="9.4381"><ele>73.0</ele><time>2026-04-11T06:38:49.942Z</time></trkpt><trkpt lat="45.281905" lon="9.4384017"><ele>73.0</ele><time>2026-04-11T06:38:50.943Z</time></trkpt><trkpt lat="45.2817267" lon="9.4387083"><ele>73.0</ele><time>2026-04-11T06:38:51.943Z</time></trkpt><trkpt lat="45.28154" lon="9.43902"><ele>74.0</ele><time>2026-04-11T06:38:52.943Z</time></trkpt><trkpt lat="45.28136" lon="9.4393267"><ele>75.0</ele><time>2026-04-11T06:38:53.943Z</time></trkpt><trkpt lat="45.2811867" lon="9.439625"><ele>74.0</ele><time>2026-04-11T06:38:54.942Z</time></trkpt><trkpt lat="45.2810067" lon="9.43992"><ele>73.0</ele><time>2026-04-11T06:38:55.943Z</time></trkpt><trkpt lat="45.280825" lon="9.4402133"><ele>73.0</ele><time>2026-04-11T06:38:56.942Z</time></trkpt><trkpt lat="45.2806433" lon="9.44053"><ele>73.0</ele><time>2026-04-11T06:38:57.943Z</time></trkpt><trkpt lat="45.2804567" lon="9.4408333"><ele>73.0</ele><time>2026-04-11T06:38:58.943Z</time></trkpt><trkpt lat="45.2802633" lon="9.44114"><ele>73.0</ele><time>2026-04-11T06:38:59.943Z</time></trkpt><trkpt lat="45.28008" lon="9.4414383"><ele>73.0</ele><time>2026-04-11T06:39:00.943Z</time></trkpt><trkpt lat="45.2799" lon="9.4417483"><ele>73.0</ele><time>2026-04-11T06:39:01.943Z</time></trkpt><trkpt lat="45.2797183" lon="9.4420567"><ele>73.0</ele><time>2026-04-11T06:39:02.943Z</time></trkpt><trkpt lat="45.2795333" lon="9.44236"><ele>73.0</ele><time>2026-04-11T06:39:03.943Z</time></trkpt><trkpt lat="45.2793467" lon="9.44267"><ele>73.0</ele><time>2026-04-11T06:39:04.943Z</time></trkpt><trkpt lat="45.27916" lon="9.4429683"><ele>73.0</ele><time>2026-04-11T06:39:05.943Z</time></trkpt><trkpt lat="45.27899" lon="9.44327"><ele>73.0</ele><time>2026-04-11T06:39:06.943Z</time></trkpt><trkpt lat="45.2788017" lon="9.4435817"><ele>73.0</ele><time>2026-04-11T06:39:07.943Z</time></trkpt><trkpt lat="45.2786167" lon="9.4438833"><ele>73.5</ele><time>2026-04-11T06:39:08.943Z</time></trkpt><trkpt lat="45.2784317" lon="9.4441933"><ele>74.0</ele><time>2026-04-11T06:39:09.943Z</time></trkpt><trkpt lat="45.2782367" lon="9.44451"><ele>74.0</ele><time>2026-04-11T06:39:10.943Z</time></trkpt><trkpt lat="45.2780367" lon="9.4448283"><ele>74.0</ele><time>2026-04-11T06:39:11.943Z</time></trkpt><trkpt lat="45.2778467" lon="9.4451467"><ele>74.0</ele><time>2026-04-11T06:39:12.943Z</time></trkpt><trkpt lat="45.2776583" lon="9.4454583"><ele>74.0</ele><time>2026-04-11T06:39:13.943Z</time></trkpt><trkpt lat="45.277465" lon="9.44578"><ele>74.0</ele><time>2026-04-11T06:39:14.943Z</time></trkpt><trkpt lat="45.27728" lon="9.446095"><ele>74.0</ele><time>2026-04-11T06:39:15.943Z</time></trkpt><trkpt lat="45.2770867" lon="9.4464067"><ele>74.0</ele><time>2026-04-11T06:39:16.943Z</time></trkpt><trkpt lat="45.2768933" lon="9.4467183"><ele>74.0</ele><time>2026-04-11T06:39:17.943Z</time></trkpt><trkpt lat="45.2766933" lon="9.447025"><ele>74.0</ele><time>2026-04-11T06:39:18.943Z</time></trkpt><trkpt lat="45.2765" lon="9.4473367"><ele>74.0</ele><time>2026-04-11T06:39:19.943Z</time></trkpt><trkpt lat="45.27631" lon="9.44765"><ele>76.0</ele><time>2026-04-11T06:39:20.943Z</time></trkpt><trkpt lat="45.2761133" lon="9.4479617"><ele>78.0</ele><time>2026-04-11T06:39:21.943Z</time></trkpt><trkpt lat="45.2759233" lon="9.4482717"><ele>78.0</ele><time>2026-04-11T06:39:22.943Z</time></trkpt><trkpt lat="45.2757317" lon="9.4485867"><ele>78.0</ele><time>2026-04-11T06:39:23.943Z</time></trkpt><trkpt lat="45.275545" lon="9.4489067"><ele>76.5</ele><time>2026-04-11T06:39:24.943Z</time></trkpt><trkpt lat="45.2753583" lon="9.4492133"><ele>75.0</ele><time>2026-04-11T06:39:25.943Z</time></trkpt><trkpt lat="45.2751633" lon="9.44953"><ele>76.0</ele><time>2026-04-11T06:39:26.943Z</time></trkpt><trkpt lat="45.27498" lon="9.4498467"><ele>77.0</ele><time>2026-04-11T06:39:27.943Z</time></trkpt><trkpt lat="45.27479" lon="9.450155"><ele>76.0</ele><time>2026-04-11T06:39:28.943Z</time></trkpt><trkpt lat="45.2746017" lon="9.4504717"><ele>75.0</ele><time>2026-04-11T06:39:29.943Z</time></trkpt><trkpt lat="45.2744217" lon="9.4507667"><ele>75.0</ele><time>2026-04-11T06:39:30.942Z</time></trkpt><trkpt lat="45.2742367" lon="9.4510783"><ele>75.0</ele><time>2026-04-11T06:39:31.943Z</time></trkpt><trkpt lat="45.2740433" lon="9.4513867"><ele>74.5</ele><time>2026-04-11T06:39:32.943Z</time></trkpt><trkpt lat="45.2738533" lon="9.451705"><ele>74.0</ele><time>2026-04-11T06:39:33.943Z</time></trkpt><trkpt lat="45.2736617" lon="9.4520267"><ele>74.0</ele><time>2026-04-11T06:39:34.943Z</time></trkpt><trkpt lat="45.2734767" lon="9.4523383"><ele>74.0</ele><time>2026-04-11T06:39:35.942Z</time></trkpt><trkpt lat="45.2732867" lon="9.4526467"><ele>74.5</ele><time>2026-04-11T06:39:36.943Z</time></trkpt><trkpt lat="45.273095" lon="9.4529567"><ele>75.0</ele><time>2026-04-11T06:39:37.943Z</time></trkpt><trkpt lat="45.2729" lon="9.4532733"><ele>75.0</ele><time>2026-04-11T06:39:38.943Z</time></trkpt><trkpt lat="45.2727" lon="9.4535867"><ele>75.0</ele><time>2026-04-11T06:39:39.942Z</time></trkpt><trkpt lat="45.2725083" lon="9.45389"><ele>74.5</ele><time>2026-04-11T06:39:40.943Z</time></trkpt><trkpt lat="45.2723117" lon="9.4541933"><ele>74.0</ele><time>2026-04-11T06:39:41.943Z</time></trkpt><trkpt lat="45.27211" lon="9.4545017"><ele>74.0</ele><time>2026-04-11T06:39:42.943Z</time></trkpt><trkpt lat="45.27191" lon="9.454805"><ele>74.0</ele><time>2026-04-11T06:39:43.943Z</time></trkpt><trkpt lat="45.2717033" lon="9.4551067"><ele>74.0</ele><time>2026-04-11T06:39:44.943Z</time></trkpt><trkpt lat="45.2715017" lon="9.4554183"><ele>74.0</ele><time>2026-04-11T06:39:45.943Z</time></trkpt><trkpt lat="45.271305" lon="9.455725"><ele>74.5</ele><time>2026-04-11T06:39:46.943Z</time></trkpt><trkpt lat="45.2710983" lon="9.4560283"><ele>75.0</ele><time>2026-04-11T06:39:47.943Z</time></trkpt><trkpt lat="45.270885" lon="9.45634"><ele>75.0</ele><time>2026-04-11T06:39:48.943Z</time></trkpt><trkpt lat="45.27068" lon="9.45665"><ele>75.0</ele><time>2026-04-11T06:39:49.943Z</time></trkpt><trkpt lat="45.2704733" lon="9.4569517"><ele>75.0</ele><time>2026-04-11T06:39:50.942Z</time></trkpt><trkpt lat="45.27027" lon="9.4572417"><ele>75.0</ele><time>2026-04-11T06:39:51.943Z</time></trkpt><trkpt lat="45.2700783" lon="9.45754"><ele>75.0</ele><time>2026-04-11T06:39:52.943Z</time></trkpt><trkpt lat="45.26989" lon="9.4578317"><ele>75.0</ele><time>2026-04-11T06:39:53.943Z</time></trkpt><trkpt lat="45.2696983" lon="9.4581217"><ele>74.0</ele><time>2026-04-11T06:39:54.943Z</time></trkpt><trkpt lat="45.2695017" lon="9.4584217"><ele>73.0</ele><time>2026-04-11T06:39:55.943Z</time></trkpt><trkpt lat="45.269295" lon="9.458715"><ele>72.5</ele><time>2026-04-11T06:39:56.943Z</time></trkpt><trkpt lat="45.269095" lon="9.4590083"><ele>72.0</ele><time>2026-04-11T06:39:57.943Z</time></trkpt><trkpt lat="45.2688933" lon="9.459295"><ele>73.0</ele><time>2026-04-11T06:39:58.943Z</time></trkpt><trkpt lat="45.2686817" lon="9.45959"><ele>74.0</ele><time>2026-04-11T06:39:59.942Z</time></trkpt><trkpt lat="45.26847" lon="9.4598867"><ele>74.0</ele><time>2026-04-11T06:40:00.943Z</time></trkpt><trkpt lat="45.268245" lon="9.4601867"><ele>74.0</ele><time>2026-04-11T06:40:01.943Z</time></trkpt><trkpt lat="45.2680233" lon="9.460485"><ele>73.5</ele><time>2026-04-11T06:40:02.943Z</time></trkpt><trkpt lat="45.2678017" lon="9.4607733"><ele>73.0</ele><time>2026-04-11T06:40:03.943Z</time></trkpt><trkpt lat="45.2675783" lon="9.4610617"><ele>73.0</ele><time>2026-04-11T06:40:04.942Z</time></trkpt><trkpt lat="45.2673533" lon="9.461345"><ele>73.0</ele><time>2026-04-11T06:40:05.943Z</time></trkpt><trkpt lat="45.2671367" lon="9.46163"><ele>73.0</ele><time>2026-04-11T06:40:06.943Z</time></trkpt><trkpt lat="45.2669233" lon="9.4619117"><ele>73.0</ele><time>2026-04-11T06:40:07.943Z</time></trkpt><trkpt lat="45.266705" lon="9.4621883"><ele>73.0</ele><time>2026-04-11T06:40:08.943Z</time></trkpt><trkpt lat="45.2664983" lon="9.4624567"><ele>73.0</ele><time>2026-04-11T06:40:09.943Z</time></trkpt><trkpt lat="45.2662917" lon="9.4627367"><ele>72.5</ele><time>2026-04-11T06:40:10.943Z</time></trkpt><trkpt lat="45.2661" lon="9.4630133"><ele>72.0</ele><time>2026-04-11T06:40:11.943Z</time></trkpt><trkpt lat="45.265905" lon="9.4632883"><ele>72.0</ele><time>2026-04-11T06:40:12.943Z</time></trkpt><trkpt lat="45.26571" lon="9.4635567"><ele>72.0</ele><time>2026-04-11T06:40:13.943Z</time></trkpt><trkpt lat="45.2655" lon="9.4638283"><ele>72.5</ele><time>2026-04-11T06:40:14.942Z</time></trkpt><trkpt lat="45.26529" lon="9.4641033"><ele>73.0</ele><time>2026-04-11T06:40:15.943Z</time></trkpt><trkpt lat="45.2650833" lon="9.4643817"><ele>72.5</ele><time>2026-04-11T06:40:16.943Z</time></trkpt><trkpt lat="45.2648667" lon="9.4646633"><ele>72.0</ele><time>2026-04-11T06:40:17.943Z</time></trkpt><trkpt lat="45.264655" lon="9.4649283"><ele>72.0</ele><time>2026-04-11T06:40:18.943Z</time></trkpt><trkpt lat="45.264445" lon="9.4652017"><ele>72.0</ele><time>2026-04-11T06:40:19.943Z</time></trkpt><trkpt lat="45.2642333" lon="9.465475"><ele>72.0</ele><time>2026-04-11T06:40:20.943Z</time></trkpt><trkpt lat="45.26402" lon="9.4657417"><ele>72.0</ele><time>2026-04-11T06:40:21.943Z</time></trkpt><trkpt lat="45.2638067" lon="9.4660133"><ele>72.5</ele><time>2026-04-11T06:40:22.943Z</time></trkpt><trkpt lat="45.263595" lon="9.466275"><ele>73.0</ele><time>2026-04-11T06:40:23.943Z</time></trkpt><trkpt lat="45.2633867" lon="9.46655"><ele>74.0</ele><time>2026-04-11T06:40:24.943Z</time></trkpt><trkpt lat="45.2631767" lon="9.4668183"><ele>75.0</ele><time>2026-04-11T06:40:25.943Z</time></trkpt><trkpt lat="45.2629617" lon="9.4670967"><ele>74.0</ele><time>2026-04-11T06:40:26.943Z</time></trkpt><trkpt lat="45.2627467" lon="9.4673833"><ele>73.0</ele><time>2026-04-11T06:40:27.943Z</time></trkpt><trkpt lat="45.2625367" lon="9.4676483"><ele>73.0</ele><time>2026-04-11T06:40:28.943Z</time></trkpt><trkpt lat="45.2623233" lon="9.4679217"><ele>73.0</ele><time>2026-04-11T06:40:29.942Z</time></trkpt><trkpt lat="45.2621117" lon="9.468205"><ele>73.0</ele><time>2026-04-11T06:40:30.943Z</time></trkpt><trkpt lat="45.2619017" lon="9.4684833"><ele>73.0</ele><time>2026-04-11T06:40:31.943Z</time></trkpt><trkpt lat="45.261695" lon="9.4687633"><ele>72.5</ele><time>2026-04-11T06:40:32.943Z</time></trkpt><trkpt lat="45.2614833" lon="9.4690433"><ele>72.0</ele><time>2026-04-11T06:40:33.943Z</time></trkpt><trkpt lat="45.2612717" lon="9.4693167"><ele>72.0</ele><time>2026-04-11T06:40:34.943Z</time></trkpt><trkpt lat="45.26106" lon="9.46959"><ele>72.0</ele><time>2026-04-11T06:40:35.943Z</time></trkpt><trkpt lat="45.2608533" lon="9.46987"><ele>71.5</ele><time>2026-04-11T06:40:36.943Z</time></trkpt><trkpt lat="45.260645" lon="9.4701417"><ele>71.0</ele><time>2026-04-11T06:40:37.943Z</time></trkpt><trkpt lat="45.2604383" lon="9.4704167"><ele>71.0</ele><time>2026-04-11T06:40:38.943Z</time></trkpt><trkpt lat="45.2602317" lon="9.4706833"><ele>71.0</ele><time>2026-04-11T06:40:39.943Z</time></trkpt><trkpt lat="45.2600183" lon="9.4709733"><ele>71.0</ele><time>2026-04-11T06:40:40.943Z</time></trkpt><trkpt lat="45.25981" lon="9.4712583"><ele>71.0</ele><time>2026-04-11T06:40:41.943Z</time></trkpt><trkpt lat="45.2596" lon="9.4715383"><ele>70.0</ele><time>2026-04-11T06:40:42.943Z</time></trkpt><trkpt lat="45.2593867" lon="9.47182"><ele>69.0</ele><time>2026-04-11T06:40:43.943Z</time></trkpt><trkpt lat="45.25917" lon="9.4720983"><ele>69.0</ele><time>2026-04-11T06:40:44.942Z</time></trkpt><trkpt lat="45.2589567" lon="9.472375"><ele>69.0</ele><time>2026-04-11T06:40:45.943Z</time></trkpt><trkpt lat="45.2587433" lon="9.472655"><ele>69.5</ele><time>2026-04-11T06:40:46.943Z</time></trkpt><trkpt lat="45.2585283" lon="9.4729333"><ele>70.0</ele><time>2026-04-11T06:40:47.943Z</time></trkpt><trkpt lat="45.2583133" lon="9.4732117"><ele>70.0</ele><time>2026-04-11T06:40:48.943Z</time></trkpt><trkpt lat="45.2581033" lon="9.4734867"><ele>70.0</ele><time>2026-04-11T06:40:49.943Z</time></trkpt><trkpt lat="45.25789" lon="9.47377"><ele>70.0</ele><time>2026-04-11T06:40:50.943Z</time></trkpt><trkpt lat="45.2576733" lon="9.4740467"><ele>70.0</ele><time>2026-04-11T06:40:51.943Z</time></trkpt><trkpt lat="45.257455" lon="9.4743283"><ele>69.5</ele><time>2026-04-11T06:40:52.943Z</time></trkpt><trkpt lat="45.2572417" lon="9.4746083"><ele>69.0</ele><time>2026-04-11T06:40:53.943Z</time></trkpt><trkpt lat="45.25703" lon="9.4748883"><ele>69.0</ele><time>2026-04-11T06:40:54.943Z</time></trkpt><trkpt lat="45.2568217" lon="9.47517"><ele>69.0</ele><time>2026-04-11T06:40:55.943Z</time></trkpt><trkpt lat="45.2566117" lon="9.4754483"><ele>70.0</ele><time>2026-04-11T06:40:56.942Z</time></trkpt><trkpt lat="45.2564" lon="9.4757217"><ele>71.0</ele><time>2026-04-11T06:40:57.943Z</time></trkpt><trkpt lat="45.2561883" lon="9.476"><ele>70.5</ele><time>2026-04-11T06:40:58.943Z</time></trkpt><trkpt lat="45.2559733" lon="9.4762817"><ele>70.0</ele><time>2026-04-11T06:40:59.942Z</time></trkpt><trkpt lat="45.25576" lon="9.4765617"><ele>70.0</ele><time>2026-04-11T06:41:00.943Z</time></trkpt><trkpt lat="45.2555483" lon="9.4768417"><ele>70.0</ele><time>2026-04-11T06:41:01.943Z</time></trkpt><trkpt lat="45.2553333" lon="9.4771233"><ele>71.0</ele><time>2026-04-11T06:41:02.943Z</time></trkpt><trkpt lat="45.255125" lon="9.4774"><ele>72.0</ele><time>2026-04-11T06:41:03.943Z</time></trkpt><trkpt lat="45.2549133" lon="9.477675"><ele>72.0</ele><time>2026-04-11T06:41:04.943Z</time></trkpt><trkpt lat="45.2547017" lon="9.47795"><ele>72.0</ele><time>2026-04-11T06:41:05.943Z</time></trkpt><trkpt lat="45.2544833" lon="9.4782367"><ele>72.0</ele><time>2026-04-11T06:41:06.943Z</time></trkpt><trkpt lat="45.2542667" lon="9.4785167"><ele>72.0</ele><time>2026-04-11T06:41:07.943Z</time></trkpt><trkpt lat="45.2540567" lon="9.478795"><ele>71.5</ele><time>2026-04-11T06:41:08.943Z</time></trkpt><trkpt lat="45.253845" lon="9.4790767"><ele>71.0</ele><time>2026-04-11T06:41:09.943Z</time></trkpt><trkpt lat="45.25363" lon="9.47936"><ele>71.0</ele><time>2026-04-11T06:41:10.943Z</time></trkpt><trkpt lat="45.2534233" lon="9.4796417"><ele>71.0</ele><time>2026-04-11T06:41:11.943Z</time></trkpt><trkpt lat="45.25321" lon="9.4799267"><ele>71.0</ele><time>2026-04-11T06:41:12.943Z</time></trkpt><trkpt lat="45.2529967" lon="9.4802033"><ele>71.0</ele><time>2026-04-11T06:41:13.943Z</time></trkpt><trkpt lat="45.2527867" lon="9.4804817"><ele>71.0</ele><time>2026-04-11T06:41:14.942Z</time></trkpt><trkpt lat="45.252575" lon="9.4807583"><ele>71.0</ele><time>2026-04-11T06:41:15.943Z</time></trkpt><trkpt lat="45.2523667" lon="9.481045"><ele>71.0</ele><time>2026-04-11T06:41:16.943Z</time></trkpt><trkpt lat="45.2521483" lon="9.4813333"><ele>71.0</ele><time>2026-04-11T06:41:17.943Z</time></trkpt><trkpt lat="45.2519383" lon="9.4816083"><ele>71.0</ele><time>2026-04-11T06:41:18.943Z</time></trkpt><trkpt lat="45.2517217" lon="9.4818833"><ele>71.0</ele><time>2026-04-11T06:41:19.943Z</time></trkpt><trkpt lat="45.2515083" lon="9.4821683"><ele>70.0</ele><time>2026-04-11T06:41:20.943Z</time></trkpt><trkpt lat="45.2512983" lon="9.4824383"><ele>69.0</ele><time>2026-04-11T06:41:21.943Z</time></trkpt><trkpt lat="45.2510867" lon="9.4827167"><ele>70.0</ele><time>2026-04-11T06:41:22.943Z</time></trkpt><trkpt lat="45.2508783" lon="9.48299"><ele>71.0</ele><time>2026-04-11T06:41:23.943Z</time></trkpt><trkpt lat="45.250665" lon="9.4832683"><ele>70.5</ele><time>2026-04-11T06:41:24.942Z</time></trkpt><trkpt lat="45.250455" lon="9.4835533"><ele>70.0</ele><time>2026-04-11T06:41:25.943Z</time></trkpt><trkpt lat="45.2502367" lon="9.4838333"><ele>70.0</ele><time>2026-04-11T06:41:26.943Z</time></trkpt><trkpt lat="45.2500183" lon="9.484115"><ele>70.0</ele><time>2026-04-11T06:41:27.942Z</time></trkpt><trkpt lat="45.249805" lon="9.48439"><ele>69.5</ele><time>2026-04-11T06:41:28.943Z</time></trkpt><trkpt lat="45.2495883" lon="9.4846717"><ele>69.0</ele><time>2026-04-11T06:41:29.943Z</time></trkpt><trkpt lat="45.2493767" lon="9.4849533"><ele>69.0</ele><time>2026-04-11T06:41:30.943Z</time></trkpt><trkpt lat="45.249165" lon="9.4852333"><ele>69.0</ele><time>2026-04-11T06:41:31.943Z</time></trkpt><trkpt lat="45.2489483" lon="9.4855167"><ele>69.5</ele><time>2026-04-11T06:41:32.943Z</time></trkpt><trkpt lat="45.248735" lon="9.4857933"><ele>70.0</ele><time>2026-04-11T06:41:33.943Z</time></trkpt><trkpt lat="45.2485217" lon="9.4860717"><ele>69.5</ele><time>2026-04-11T06:41:34.943Z</time></trkpt><trkpt lat="45.2483117" lon="9.48636"><ele>69.0</ele><time>2026-04-11T06:41:35.943Z</time></trkpt><trkpt lat="45.2481033" lon="9.4866433"><ele>69.5</ele><time>2026-04-11T06:41:36.943Z</time></trkpt><trkpt lat="45.2478867" lon="9.48692"><ele>70.0</ele><time>2026-04-11T06:41:37.943Z</time></trkpt><trkpt lat="45.247675" lon="9.4871983"><ele>70.0</ele><time>2026-04-11T06:41:38.943Z</time></trkpt><trkpt lat="45.247465" lon="9.4874717"><ele>70.0</ele><time>2026-04-11T06:41:39.943Z</time></trkpt><trkpt lat="45.2472567" lon="9.4877517"><ele>71.0</ele><time>2026-04-11T06:41:40.943Z</time></trkpt><trkpt lat="45.2470467" lon="9.4880267"><ele>72.0</ele><time>2026-04-11T06:41:41.943Z</time></trkpt><trkpt lat="45.2468383" lon="9.4882967"><ele>72.0</ele><time>2026-04-11T06:41:42.943Z</time></trkpt><trkpt lat="45.2466317" lon="9.48857"><ele>72.0</ele><time>2026-04-11T06:41:43.943Z</time></trkpt><trkpt lat="45.2464283" lon="9.4888483"><ele>71.5</ele><time>2026-04-11T06:41:44.943Z</time></trkpt><trkpt lat="45.2462267" lon="9.48913"><ele>71.0</ele><time>2026-04-11T06:41:45.943Z</time></trkpt><trkpt lat="45.24602" lon="9.489415"><ele>71.0</ele><time>2026-04-11T06:41:46.943Z</time></trkpt><trkpt lat="45.245805" lon="9.4897017"><ele>71.0</ele><time>2026-04-11T06:41:47.943Z</time></trkpt><trkpt lat="45.245585" lon="9.4899933"><ele>71.0</ele><time>2026-04-11T06:41:48.943Z</time></trkpt><trkpt lat="45.2453633" lon="9.4902867"><ele>71.0</ele><time>2026-04-11T06:41:49.943Z</time></trkpt><trkpt lat="45.2451367" lon="9.4905917"><ele>70.0</ele><time>2026-04-11T06:41:50.943Z</time></trkpt><trkpt lat="45.2449033" lon="9.490895"><ele>69.0</ele><time>2026-04-11T06:41:51.943Z</time></trkpt><trkpt lat="45.2446617" lon="9.4912"><ele>69.5</ele><time>2026-04-11T06:41:52.943Z</time></trkpt><trkpt lat="45.2444283" lon="9.49151"><ele>70.0</ele><time>2026-04-11T06:41:53.943Z</time></trkpt><trkpt lat="45.244195" lon="9.491825"><ele>70.5</ele><time>2026-04-11T06:41:54.943Z</time></trkpt><trkpt lat="45.243965" lon="9.492135"><ele>71.0</ele><time>2026-04-11T06:41:55.943Z</time></trkpt><trkpt lat="45.2437267" lon="9.4924467"><ele>71.5</ele><time>2026-04-11T06:41:56.943Z</time></trkpt><trkpt lat="45.2434967" lon="9.49275"><ele>72.0</ele><time>2026-04-11T06:41:57.943Z</time></trkpt><trkpt lat="45.2432583" lon="9.49306"><ele>71.0</ele><time>2026-04-11T06:41:58.943Z</time></trkpt><trkpt lat="45.2430183" lon="9.49337"><ele>70.0</ele><time>2026-04-11T06:41:59.943Z</time></trkpt><trkpt lat="45.24278" lon="9.4936733"><ele>69.5</ele><time>2026-04-11T06:42:00.943Z</time></trkpt><trkpt lat="45.2425483" lon="9.4939817"><ele>69.0</ele><time>2026-04-11T06:42:01.943Z</time></trkpt><trkpt lat="45.2423133" lon="9.4942883"><ele>69.0</ele><time>2026-04-11T06:42:02.943Z</time></trkpt><trkpt lat="45.2420933" lon="9.4945817"><ele>69.0</ele><time>2026-04-11T06:42:03.943Z</time></trkpt><trkpt lat="45.2418733" lon="9.49486"><ele>69.0</ele><time>2026-04-11T06:42:04.942Z</time></trkpt><trkpt lat="45.2416583" lon="9.49514"><ele>69.0</ele><time>2026-04-11T06:42:05.943Z</time></trkpt><trkpt lat="45.241445" lon="9.495425"><ele>69.0</ele><time>2026-04-11T06:42:06.943Z</time></trkpt><trkpt lat="45.2412283" lon="9.495705"><ele>69.0</ele><time>2026-04-11T06:42:07.943Z</time></trkpt><trkpt lat="45.2410117" lon="9.4959917"><ele>69.0</ele><time>2026-04-11T06:42:08.943Z</time></trkpt><trkpt lat="45.2407983" lon="9.49628"><ele>69.0</ele><time>2026-04-11T06:42:09.943Z</time></trkpt><trkpt lat="45.2405883" lon="9.496565"><ele>69.0</ele><time>2026-04-11T06:42:10.943Z</time></trkpt><trkpt lat="45.2403767" lon="9.49684"><ele>69.0</ele><time>2026-04-11T06:42:11.943Z</time></trkpt><trkpt lat="45.2401583" lon="9.4971233"><ele>69.0</ele><time>2026-04-11T06:42:12.943Z</time></trkpt><trkpt lat="45.2399417" lon="9.4974083"><ele>69.0</ele><time>2026-04-11T06:42:13.943Z</time></trkpt><trkpt lat="45.23973" lon="9.4976917"><ele>69.5</ele><time>2026-04-11T06:42:14.942Z</time></trkpt><trkpt lat="45.239515" lon="9.497975"><ele>70.0</ele><time>2026-04-11T06:42:15.943Z</time></trkpt><trkpt lat="45.2393017" lon="9.49826"><ele>70.0</ele><time>2026-04-11T06:42:16.943Z</time></trkpt><trkpt lat="45.2390917" lon="9.49854"><ele>70.0</ele><time>2026-04-11T06:42:17.943Z</time></trkpt><trkpt lat="45.2388733" lon="9.4988233"><ele>70.0</ele><time>2026-04-11T06:42:18.943Z</time></trkpt><trkpt lat="45.2386667" lon="9.4991117"><ele>70.0</ele><time>2026-04-11T06:42:19.943Z</time></trkpt><trkpt lat="45.238455" lon="9.4993867"><ele>70.5</ele><time>2026-04-11T06:42:20.943Z</time></trkpt><trkpt lat="45.2382433" lon="9.49967"><ele>71.0</ele><time>2026-04-11T06:42:21.943Z</time></trkpt><trkpt lat="45.23803" lon="9.4999433"><ele>70.5</ele><time>2026-04-11T06:42:22.943Z</time></trkpt><trkpt lat="45.2378117" lon="9.5002217"><ele>70.0</ele><time>2026-04-11T06:42:23.943Z</time></trkpt><trkpt lat="45.237595" lon="9.5005"><ele>70.0</ele><time>2026-04-11T06:42:24.943Z</time></trkpt><trkpt lat="45.237375" lon="9.5007767"><ele>70.0</ele><time>2026-04-11T06:42:25.943Z</time></trkpt><trkpt lat="45.237155" lon="9.5010683"><ele>70.5</ele><time>2026-04-11T06:42:26.943Z</time></trkpt><trkpt lat="45.2369333" lon="9.50135"><ele>71.0</ele><time>2026-04-11T06:42:27.943Z</time></trkpt><trkpt lat="45.23672" lon="9.501635"><ele>71.0</ele><time>2026-04-11T06:42:28.943Z</time></trkpt><trkpt lat="45.2365017" lon="9.50192"><ele>71.0</ele><time>2026-04-11T06:42:29.943Z</time></trkpt><trkpt lat="45.236285" lon="9.5022117"><ele>71.0</ele><time>2026-04-11T06:42:30.942Z</time></trkpt><trkpt lat="45.2360633" lon="9.5025033"><ele>71.0</ele><time>2026-04-11T06:42:31.942Z</time></trkpt><trkpt lat="45.2358417" lon="9.5027867"><ele>70.0</ele><time>2026-04-11T06:42:32.943Z</time></trkpt><trkpt lat="45.23561" lon="9.5030733"><ele>69.0</ele><time>2026-04-11T06:42:33.943Z</time></trkpt><trkpt lat="45.23538" lon="9.50336"><ele>69.0</ele><time>2026-04-11T06:42:34.943Z</time></trkpt><trkpt lat="45.2351517" lon="9.5036533"><ele>69.0</ele><time>2026-04-11T06:42:35.943Z</time></trkpt><trkpt lat="45.2349317" lon="9.5039433"><ele>68.5</ele><time>2026-04-11T06:42:36.943Z</time></trkpt><trkpt lat="45.2347167" lon="9.5042267"><ele>68.0</ele><time>2026-04-11T06:42:37.943Z</time></trkpt><trkpt lat="45.2344967" lon="9.5045083"><ele>68.0</ele><time>2026-04-11T06:42:38.943Z</time></trkpt><trkpt lat="45.2342917" lon="9.5047833"><ele>68.0</ele><time>2026-04-11T06:42:39.943Z</time></trkpt><trkpt lat="45.2340833" lon="9.5050617"><ele>68.0</ele><time>2026-04-11T06:42:40.943Z</time></trkpt><trkpt lat="45.2338717" lon="9.5053383"><ele>68.0</ele><time>2026-04-11T06:42:41.943Z</time></trkpt><trkpt lat="45.2336633" lon="9.505615"><ele>68.0</ele><time>2026-04-11T06:42:42.942Z</time></trkpt><trkpt lat="45.2334517" lon="9.505895"><ele>68.0</ele><time>2026-04-11T06:42:43.943Z</time></trkpt><trkpt lat="45.23324" lon="9.5061733"><ele>68.0</ele><time>2026-04-11T06:42:44.942Z</time></trkpt><trkpt lat="45.2330233" lon="9.50645"><ele>68.0</ele><time>2026-04-11T06:42:45.943Z</time></trkpt><trkpt lat="45.2328183" lon="9.5067317"><ele>68.0</ele><time>2026-04-11T06:42:46.943Z</time></trkpt><trkpt lat="45.2326133" lon="9.5070167"><ele>68.0</ele><time>2026-04-11T06:42:47.943Z</time></trkpt><trkpt lat="45.2324033" lon="9.507305"><ele>68.0</ele><time>2026-04-11T06:42:48.943Z</time></trkpt><trkpt lat="45.23219" lon="9.5075933"><ele>68.0</ele><time>2026-04-11T06:42:49.943Z</time></trkpt><trkpt lat="45.23197" lon="9.5078733"><ele>67.5</ele><time>2026-04-11T06:42:50.942Z</time></trkpt><trkpt lat="45.2317517" lon="9.5081567"><ele>67.0</ele><time>2026-04-11T06:42:51.943Z</time></trkpt><trkpt lat="45.23153" lon="9.5084483"><ele>67.0</ele><time>2026-04-11T06:42:52.943Z</time></trkpt><trkpt lat="45.231305" lon="9.5087283"><ele>67.0</ele><time>2026-04-11T06:42:53.943Z</time></trkpt><trkpt lat="45.23108" lon="9.5090117"><ele>67.0</ele><time>2026-04-11T06:42:54.943Z</time></trkpt><trkpt lat="45.230855" lon="9.50929"><ele>67.0</ele><time>2026-04-11T06:42:55.943Z</time></trkpt><trkpt lat="45.23065" lon="9.5095667"><ele>67.5</ele><time>2026-04-11T06:42:56.942Z</time></trkpt><trkpt lat="45.23045" lon="9.5098383"><ele>68.0</ele><time>2026-04-11T06:42:57.942Z</time></trkpt><trkpt lat="45.2302567" lon="9.510095"><ele>68.0</ele><time>2026-04-11T06:42:58.943Z</time></trkpt><trkpt lat="45.2300517" lon="9.5103633"><ele>68.0</ele><time>2026-04-11T06:42:59.943Z</time></trkpt><trkpt lat="45.2298483" lon="9.5106283"><ele>67.0</ele><time>2026-04-11T06:43:00.943Z</time></trkpt><trkpt lat="45.229645" lon="9.51089"><ele>66.0</ele><time>2026-04-11T06:43:01.943Z</time></trkpt><trkpt lat="45.229435" lon="9.511155"><ele>67.0</ele><time>2026-04-11T06:43:02.943Z</time></trkpt><trkpt lat="45.22923" lon="9.5114283"><ele>68.0</ele><time>2026-04-11T06:43:03.943Z</time></trkpt><trkpt lat="45.2290283" lon="9.5116983"><ele>68.0</ele><time>2026-04-11T06:43:04.943Z</time></trkpt><trkpt lat="45.22883" lon="9.5119633"><ele>68.0</ele><time>2026-04-11T06:43:05.943Z</time></trkpt><trkpt lat="45.2286333" lon="9.5122217"><ele>68.5</ele><time>2026-04-11T06:43:06.943Z</time></trkpt><trkpt lat="45.228435" lon="9.512485"><ele>69.0</ele><time>2026-04-11T06:43:07.943Z</time></trkpt><trkpt lat="45.2282317" lon="9.5127567"><ele>67.5</ele><time>2026-04-11T06:43:08.943Z</time></trkpt><trkpt lat="45.2280317" lon="9.5130217"><ele>66.0</ele><time>2026-04-11T06:43:09.943Z</time></trkpt><trkpt lat="45.227835" lon="9.5132833"><ele>66.0</ele><time>2026-04-11T06:43:10.943Z</time></trkpt><trkpt lat="45.227635" lon="9.5135417"><ele>66.0</ele><time>2026-04-11T06:43:11.942Z</time></trkpt><trkpt lat="45.227445" lon="9.5138067"><ele>66.5</ele><time>2026-04-11T06:43:12.943Z</time></trkpt><trkpt lat="45.227245" lon="9.5140683"><ele>67.0</ele><time>2026-04-11T06:43:13.943Z</time></trkpt><trkpt lat="45.22704" lon="9.514325"><ele>66.5</ele><time>2026-04-11T06:43:14.943Z</time></trkpt><trkpt lat="45.2268433" lon="9.5145817"><ele>66.0</ele><time>2026-04-11T06:43:15.943Z</time></trkpt><trkpt lat="45.22665" lon="9.5148417"><ele>66.5</ele><time>2026-04-11T06:43:16.943Z</time></trkpt><trkpt lat="45.2264483" lon="9.515105"><ele>67.0</ele><time>2026-04-11T06:43:17.943Z</time></trkpt><trkpt lat="45.22625" lon="9.5153733"><ele>67.0</ele><time>2026-04-11T06:43:18.943Z</time></trkpt><trkpt lat="45.226055" lon="9.51564"><ele>67.0</ele><time>2026-04-11T06:43:19.942Z</time></trkpt><trkpt lat="45.2258583" lon="9.5159083"><ele>67.0</ele><time>2026-04-11T06:43:20.943Z</time></trkpt><trkpt lat="45.2256583" lon="9.5161833"><ele>67.0</ele><time>2026-04-11T06:43:21.943Z</time></trkpt><trkpt lat="45.2254533" lon="9.51645"><ele>66.5</ele><time>2026-04-11T06:43:22.943Z</time></trkpt><trkpt lat="45.225245" lon="9.5167167"><ele>66.0</ele><time>2026-04-11T06:43:23.943Z</time></trkpt><trkpt lat="45.2250417" lon="9.5169867"><ele>65.5</ele><time>2026-04-11T06:43:24.943Z</time></trkpt><trkpt lat="45.2248483" lon="9.5172483"><ele>65.0</ele><time>2026-04-11T06:43:25.943Z</time></trkpt><trkpt lat="45.2246533" lon="9.5175033"><ele>65.0</ele><time>2026-04-11T06:43:26.943Z</time></trkpt><trkpt lat="45.2244517" lon="9.517765"><ele>65.0</ele><time>2026-04-11T06:43:27.943Z</time></trkpt><trkpt lat="45.2242483" lon="9.5180383"><ele>66.5</ele><time>2026-04-11T06:43:28.943Z</time></trkpt><trkpt lat="45.2240417" lon="9.5183017"><ele>68.0</ele><time>2026-04-11T06:43:29.943Z</time></trkpt><trkpt lat="45.2238233" lon="9.518565"><ele>67.5</ele><time>2026-04-11T06:43:30.943Z</time></trkpt><trkpt lat="45.22361" lon="9.5188333"><ele>67.0</ele><time>2026-04-11T06:43:31.942Z</time></trkpt><trkpt lat="45.2234017" lon="9.5191117"><ele>67.0</ele><time>2026-04-11T06:43:32.942Z</time></trkpt><trkpt lat="45.2231983" lon="9.51938"><ele>67.0</ele><time>2026-04-11T06:43:33.943Z</time></trkpt><trkpt lat="45.22299" lon="9.5196483"><ele>66.0</ele><time>2026-04-11T06:43:34.942Z</time></trkpt><trkpt lat="45.2227817" lon="9.5199217"><ele>65.0</ele><time>2026-04-11T06:43:35.943Z</time></trkpt><trkpt lat="45.2225783" lon="9.520195"><ele>65.5</ele><time>2026-04-11T06:43:36.942Z</time></trkpt><trkpt lat="45.2223767" lon="9.5204717"><ele>66.0</ele><time>2026-04-11T06:43:37.943Z</time></trkpt><trkpt lat="45.2221617" lon="9.52074"><ele>66.5</ele><time>2026-04-11T06:43:38.943Z</time></trkpt><trkpt lat="45.2219567" lon="9.521005"><ele>67.0</ele><time>2026-04-11T06:43:39.943Z</time></trkpt><trkpt lat="45.2217483" lon="9.5212733"><ele>67.0</ele><time>2026-04-11T06:43:40.942Z</time></trkpt><trkpt lat="45.221545" lon="9.521535"><ele>67.0</ele><time>2026-04-11T06:43:41.943Z</time></trkpt><trkpt lat="45.2213383" lon="9.5218033"><ele>66.5</ele><time>2026-04-11T06:43:42.943Z</time></trkpt><trkpt lat="45.2211317" lon="9.52207"><ele>66.0</ele><time>2026-04-11T06:43:43.943Z</time></trkpt><trkpt lat="45.220925" lon="9.5223333"><ele>66.0</ele><time>2026-04-11T06:43:44.943Z</time></trkpt><trkpt lat="45.220725" lon="9.5226083"><ele>66.0</ele><time>2026-04-11T06:43:45.943Z</time></trkpt><trkpt lat="45.220525" lon="9.5228833"><ele>66.0</ele><time>2026-04-11T06:43:46.943Z</time></trkpt><trkpt lat="45.2203133" lon="9.52316"><ele>66.0</ele><time>2026-04-11T06:43:47.943Z</time></trkpt><trkpt lat="45.2201033" lon="9.5234367"><ele>66.0</ele><time>2026-04-11T06:43:48.943Z</time></trkpt><trkpt lat="45.2199017" lon="9.5237083"><ele>66.0</ele><time>2026-04-11T06:43:49.943Z</time></trkpt><trkpt lat="45.2196967" lon="9.5239733"><ele>65.5</ele><time>2026-04-11T06:43:50.942Z</time></trkpt><trkpt lat="45.21949" lon="9.5242383"><ele>65.0</ele><time>2026-04-11T06:43:51.943Z</time></trkpt><trkpt lat="45.2192867" lon="9.5245133"><ele>65.0</ele><time>2026-04-11T06:43:52.943Z</time></trkpt><trkpt lat="45.21908" lon="9.524785"><ele>65.0</ele><time>2026-04-11T06:43:53.943Z</time></trkpt><trkpt lat="45.21887" lon="9.5250517"><ele>65.0</ele><time>2026-04-11T06:43:54.942Z</time></trkpt><trkpt lat="45.2186617" lon="9.5253267"><ele>65.0</ele><time>2026-04-11T06:43:55.942Z</time></trkpt><trkpt lat="45.2184583" lon="9.5255967"><ele>65.5</ele><time>2026-04-11T06:43:56.943Z</time></trkpt><trkpt lat="45.2182517" lon="9.525865"><ele>66.0</ele><time>2026-04-11T06:43:57.943Z</time></trkpt><trkpt lat="45.2180517" lon="9.5261333"><ele>65.5</ele><time>2026-04-11T06:43:58.943Z</time></trkpt><trkpt lat="45.2178467" lon="9.5263983"><ele>65.0</ele><time>2026-04-11T06:43:59.943Z</time></trkpt><trkpt lat="45.217645" lon="9.5266583"><ele>65.0</ele><time>2026-04-11T06:44:00.942Z</time></trkpt><trkpt lat="45.21744" lon="9.52693"><ele>65.0</ele><time>2026-04-11T06:44:01.943Z</time></trkpt><trkpt lat="45.2172333" lon="9.5271967"><ele>65.0</ele><time>2026-04-11T06:44:02.943Z</time></trkpt><trkpt lat="45.2170283" lon="9.5274667"><ele>65.0</ele><time>2026-04-11T06:44:03.943Z</time></trkpt><trkpt lat="45.2168233" lon="9.5277367"><ele>65.0</ele><time>2026-04-11T06:44:04.943Z</time></trkpt><trkpt lat="45.216625" lon="9.528005"><ele>65.0</ele><time>2026-04-11T06:44:05.943Z</time></trkpt><trkpt lat="45.21642" lon="9.5282733"><ele>66.5</ele><time>2026-04-11T06:44:06.943Z</time></trkpt><trkpt lat="45.216215" lon="9.5285383"><ele>68.0</ele><time>2026-04-11T06:44:07.943Z</time></trkpt><trkpt lat="45.2160033" lon="9.528805"><ele>68.0</ele><time>2026-04-11T06:44:08.943Z</time></trkpt><trkpt lat="45.2158" lon="9.5290817"><ele>68.0</ele><time>2026-04-11T06:44:09.943Z</time></trkpt><trkpt lat="45.2155983" lon="9.5293533"><ele>66.0</ele><time>2026-04-11T06:44:10.943Z</time></trkpt><trkpt lat="45.21539" lon="9.5296283"><ele>64.0</ele><time>2026-04-11T06:44:11.943Z</time></trkpt><trkpt lat="45.215185" lon="9.5298983"><ele>64.0</ele><time>2026-04-11T06:44:12.943Z</time></trkpt><trkpt lat="45.2149783" lon="9.5301583"><ele>64.0</ele><time>2026-04-11T06:44:13.942Z</time></trkpt><trkpt lat="45.214775" lon="9.5304267"><ele>64.5</ele><time>2026-04-11T06:44:14.943Z</time></trkpt><trkpt lat="45.2145717" lon="9.5306933"><ele>65.0</ele><time>2026-04-11T06:44:15.943Z</time></trkpt><trkpt lat="45.2143633" lon="9.5309717"><ele>65.0</ele><time>2026-04-11T06:44:16.943Z</time></trkpt><trkpt lat="45.2141583" lon="9.531245"><ele>65.0</ele><time>2026-04-11T06:44:17.943Z</time></trkpt><trkpt lat="45.2139567" lon="9.5315217"><ele>65.0</ele><time>2026-04-11T06:44:18.943Z</time></trkpt><trkpt lat="45.2137467" lon="9.5317967"><ele>65.0</ele><time>2026-04-11T06:44:19.942Z</time></trkpt><trkpt lat="45.2135417" lon="9.53207"><ele>64.5</ele><time>2026-04-11T06:44:20.942Z</time></trkpt><trkpt lat="45.2133333" lon="9.5323333"><ele>64.0</ele><time>2026-04-11T06:44:21.943Z</time></trkpt><trkpt lat="45.2131233" lon="9.5326067"><ele>64.5</ele><time>2026-04-11T06:44:22.942Z</time></trkpt><trkpt lat="45.2129183" lon="9.53288"><ele>65.0</ele><time>2026-04-11T06:44:23.943Z</time></trkpt><trkpt lat="45.212715" lon="9.5331517"><ele>65.0</ele><time>2026-04-11T06:44:24.943Z</time></trkpt><trkpt lat="45.21251" lon="9.5334267"><ele>65.0</ele><time>2026-04-11T06:44:25.943Z</time></trkpt><trkpt lat="45.2123033" lon="9.5337"><ele>65.0</ele><time>2026-04-11T06:44:26.943Z</time></trkpt><trkpt lat="45.212095" lon="9.533975"><ele>65.0</ele><time>2026-04-11T06:44:27.943Z</time></trkpt><trkpt lat="45.2118867" lon="9.534245"><ele>65.0</ele><time>2026-04-11T06:44:28.943Z</time></trkpt><trkpt lat="45.211675" lon="9.534515"><ele>65.0</ele><time>2026-04-11T06:44:29.943Z</time></trkpt><trkpt lat="45.2114733" lon="9.5347733"><ele>65.5</ele><time>2026-04-11T06:44:30.943Z</time></trkpt><trkpt lat="45.2112667" lon="9.5350417"><ele>66.0</ele><time>2026-04-11T06:44:31.942Z</time></trkpt><trkpt lat="45.2110617" lon="9.5353117"><ele>65.0</ele><time>2026-04-11T06:44:32.943Z</time></trkpt><trkpt lat="45.2108567" lon="9.5355767"><ele>64.0</ele><time>2026-04-11T06:44:33.943Z</time></trkpt><trkpt lat="45.2106517" lon="9.5358533"><ele>64.0</ele><time>2026-04-11T06:44:34.943Z</time></trkpt><trkpt lat="45.210445" lon="9.5361267"><ele>64.0</ele><time>2026-04-11T06:44:35.943Z</time></trkpt><trkpt lat="45.2102367" lon="9.536405"><ele>64.0</ele><time>2026-04-11T06:44:36.943Z</time></trkpt><trkpt lat="45.2100233" lon="9.5366717"><ele>64.0</ele><time>2026-04-11T06:44:37.943Z</time></trkpt><trkpt lat="45.2098183" lon="9.5369467"><ele>64.5</ele><time>2026-04-11T06:44:38.943Z</time></trkpt><trkpt lat="45.2096067" lon="9.53722"><ele>65.0</ele><time>2026-04-11T06:44:39.943Z</time></trkpt><trkpt lat="45.2093983" lon="9.5374917"><ele>65.0</ele><time>2026-04-11T06:44:40.943Z</time></trkpt><trkpt lat="45.2091883" lon="9.5377667"><ele>65.0</ele><time>2026-04-11T06:44:41.943Z</time></trkpt><trkpt lat="45.20898" lon="9.5380433"><ele>64.5</ele><time>2026-04-11T06:44:42.943Z</time></trkpt><trkpt lat="45.208775" lon="9.538315"><ele>64.0</ele><time>2026-04-11T06:44:43.943Z</time></trkpt><trkpt lat="45.2085783" lon="9.5385833"><ele>64.0</ele><time>2026-04-11T06:44:44.943Z</time></trkpt><trkpt lat="45.2083717" lon="9.538855"><ele>64.0</ele><time>2026-04-11T06:44:45.942Z</time></trkpt><trkpt lat="45.20816" lon="9.539135"><ele>63.5</ele><time>2026-04-11T06:44:46.942Z</time></trkpt><trkpt lat="45.207945" lon="9.53941"><ele>63.0</ele><time>2026-04-11T06:44:47.943Z</time></trkpt><trkpt lat="45.207725" lon="9.5396933"><ele>63.0</ele><time>2026-04-11T06:44:48.943Z</time></trkpt><trkpt lat="45.2075117" lon="9.5399683"><ele>63.0</ele><time>2026-04-11T06:44:49.942Z</time></trkpt><trkpt lat="45.2072967" lon="9.5402633"><ele>63.0</ele><time>2026-04-11T06:44:50.942Z</time></trkpt><trkpt lat="45.2070767" lon="9.540555"><ele>63.0</ele><time>2026-04-11T06:44:51.943Z</time></trkpt><trkpt lat="45.2068583" lon="9.5408467"><ele>63.0</ele><time>2026-04-11T06:44:52.943Z</time></trkpt><trkpt lat="45.2066467" lon="9.54113"><ele>63.0</ele><time>2026-04-11T06:44:53.943Z</time></trkpt><trkpt lat="45.2064317" lon="9.54141"><ele>64.0</ele><time>2026-04-11T06:44:54.943Z</time></trkpt><trkpt lat="45.2062117" lon="9.5416967"><ele>65.0</ele><time>2026-04-11T06:44:55.943Z</time></trkpt><trkpt lat="45.2059967" lon="9.54198"><ele>65.0</ele><time>2026-04-11T06:44:56.943Z</time></trkpt><trkpt lat="45.205785" lon="9.5422633"><ele>65.0</ele><time>2026-04-11T06:44:57.943Z</time></trkpt><trkpt lat="45.2055667" lon="9.5425367"><ele>65.0</ele><time>2026-04-11T06:44:58.943Z</time></trkpt><trkpt lat="45.2053517" lon="9.5428317"><ele>65.0</ele><time>2026-04-11T06:44:59.943Z</time></trkpt><trkpt lat="45.2051383" lon="9.543115"><ele>64.0</ele><time>2026-04-11T06:45:00.943Z</time></trkpt><trkpt lat="45.2049283" lon="9.5433933"><ele>63.0</ele><time>2026-04-11T06:45:01.943Z</time></trkpt><trkpt lat="45.2047183" lon="9.5436633"><ele>62.5</ele><time>2026-04-11T06:45:02.943Z</time></trkpt><trkpt lat="45.2045067" lon="9.54394"><ele>62.0</ele><time>2026-04-11T06:45:03.943Z</time></trkpt><trkpt lat="45.2043017" lon="9.544215"><ele>62.0</ele><time>2026-04-11T06:45:04.943Z</time></trkpt><trkpt lat="45.2040983" lon="9.544485"><ele>62.0</ele><time>2026-04-11T06:45:05.942Z</time></trkpt><trkpt lat="45.203895" lon="9.5447533"><ele>62.5</ele><time>2026-04-11T06:45:06.942Z</time></trkpt><trkpt lat="45.2036917" lon="9.5450183"><ele>63.0</ele><time>2026-04-11T06:45:07.943Z</time></trkpt><trkpt lat="45.2034867" lon="9.5452883"><ele>63.5</ele><time>2026-04-11T06:45:08.943Z</time></trkpt><trkpt lat="45.2032833" lon="9.5455567"><ele>64.0</ele><time>2026-04-11T06:45:09.943Z</time></trkpt><trkpt lat="45.2030783" lon="9.54582"><ele>64.0</ele><time>2026-04-11T06:45:10.943Z</time></trkpt><trkpt lat="45.202865" lon="9.5460883"><ele>64.0</ele><time>2026-04-11T06:45:11.943Z</time></trkpt><trkpt lat="45.202665" lon="9.5463533"><ele>64.0</ele><time>2026-04-11T06:45:12.943Z</time></trkpt><trkpt lat="45.20247" lon="9.5466167"><ele>64.0</ele><time>2026-04-11T06:45:13.943Z</time></trkpt><trkpt lat="45.2022717" lon="9.546875"><ele>63.0</ele><time>2026-04-11T06:45:14.943Z</time></trkpt><trkpt lat="45.2020717" lon="9.5471333"><ele>62.0</ele><time>2026-04-11T06:45:15.942Z</time></trkpt><trkpt lat="45.20187" lon="9.5474"><ele>62.0</ele><time>2026-04-11T06:45:16.943Z</time></trkpt><trkpt lat="45.20168" lon="9.5476583"><ele>62.0</ele><time>2026-04-11T06:45:17.943Z</time></trkpt><trkpt lat="45.2014767" lon="9.547915"><ele>62.5</ele><time>2026-04-11T06:45:18.943Z</time></trkpt><trkpt lat="45.2012767" lon="9.5481717"><ele>63.0</ele><time>2026-04-11T06:45:19.943Z</time></trkpt><trkpt lat="45.2010767" lon="9.5484367"><ele>63.0</ele><time>2026-04-11T06:45:20.943Z</time></trkpt><trkpt lat="45.200875" lon="9.5486983"><ele>63.0</ele><time>2026-04-11T06:45:21.943Z</time></trkpt><trkpt lat="45.20068" lon="9.5489583"><ele>62.5</ele><time>2026-04-11T06:45:22.943Z</time></trkpt><trkpt lat="45.20048" lon="9.5492233"><ele>62.0</ele><time>2026-04-11T06:45:23.943Z</time></trkpt><trkpt lat="45.2002767" lon="9.5494867"><ele>62.0</ele><time>2026-04-11T06:45:24.943Z</time></trkpt><trkpt lat="45.2000667" lon="9.5497633"><ele>62.0</ele><time>2026-04-11T06:45:25.943Z</time></trkpt><trkpt lat="45.1998667" lon="9.550035"><ele>62.0</ele><time>2026-04-11T06:45:26.942Z</time></trkpt><trkpt lat="45.1996683" lon="9.5503033"><ele>62.0</ele><time>2026-04-11T06:45:27.943Z</time></trkpt><trkpt lat="45.1994683" lon="9.5505667"><ele>62.0</ele><time>2026-04-11T06:45:28.943Z</time></trkpt><trkpt lat="45.199265" lon="9.5508283"><ele>62.0</ele><time>2026-04-11T06:45:29.943Z</time></trkpt><trkpt lat="45.199055" lon="9.5511"><ele>63.5</ele><time>2026-04-11T06:45:30.943Z</time></trkpt><trkpt lat="45.1988517" lon="9.5513617"><ele>65.0</ele><time>2026-04-11T06:45:31.943Z</time></trkpt><trkpt lat="45.19865" lon="9.551625"><ele>65.0</ele><time>2026-04-11T06:45:32.943Z</time></trkpt><trkpt lat="45.1984483" lon="9.55189"><ele>65.0</ele><time>2026-04-11T06:45:33.943Z</time></trkpt><trkpt lat="45.19824" lon="9.5521717"><ele>63.5</ele><time>2026-04-11T06:45:34.943Z</time></trkpt><trkpt lat="45.1980267" lon="9.552445"><ele>62.0</ele><time>2026-04-11T06:45:35.943Z</time></trkpt><trkpt lat="45.1978183" lon="9.552725"><ele>62.0</ele><time>2026-04-11T06:45:36.943Z</time></trkpt><trkpt lat="45.1976083" lon="9.553"><ele>62.0</ele><time>2026-04-11T06:45:37.943Z</time></trkpt><trkpt lat="45.1973983" lon="9.553275"><ele>62.0</ele><time>2026-04-11T06:45:38.943Z</time></trkpt><trkpt lat="45.1971933" lon="9.5535467"><ele>62.0</ele><time>2026-04-11T06:45:39.943Z</time></trkpt><trkpt lat="45.1969867" lon="9.5538133"><ele>62.5</ele><time>2026-04-11T06:45:40.943Z</time></trkpt><trkpt lat="45.1967783" lon="9.5540933"><ele>63.0</ele><time>2026-04-11T06:45:41.943Z</time></trkpt><trkpt lat="45.196565" lon="9.55437"><ele>63.0</ele><time>2026-04-11T06:45:42.943Z</time></trkpt><trkpt lat="45.1963533" lon="9.5546533"><ele>63.0</ele><time>2026-04-11T06:45:43.942Z</time></trkpt><trkpt lat="45.1961417" lon="9.554925"><ele>63.0</ele><time>2026-04-11T06:45:44.943Z</time></trkpt><trkpt lat="45.19593" lon="9.5552083"><ele>63.0</ele><time>2026-04-11T06:45:45.943Z</time></trkpt><trkpt lat="45.1957183" lon="9.555485"><ele>62.0</ele><time>2026-04-11T06:45:46.943Z</time></trkpt><trkpt lat="45.1955067" lon="9.5557617"><ele>61.0</ele><time>2026-04-11T06:45:47.943Z</time></trkpt><trkpt lat="45.1952967" lon="9.556035"><ele>61.5</ele><time>2026-04-11T06:45:48.943Z</time></trkpt><trkpt lat="45.1950867" lon="9.5563133"><ele>62.0</ele><time>2026-04-11T06:45:49.943Z</time></trkpt><trkpt lat="45.1948817" lon="9.5565883"><ele>62.5</ele><time>2026-04-11T06:45:50.943Z</time></trkpt><trkpt lat="45.1946733" lon="9.556865"><ele>63.0</ele><time>2026-04-11T06:45:51.943Z</time></trkpt><trkpt lat="45.19446" lon="9.5571467"><ele>63.0</ele><time>2026-04-11T06:45:52.943Z</time></trkpt><trkpt lat="45.1942517" lon="9.5574333"><ele>63.0</ele><time>2026-04-11T06:45:53.943Z</time></trkpt><trkpt lat="45.19405" lon="9.557705"><ele>63.0</ele><time>2026-04-11T06:45:54.943Z</time></trkpt><trkpt lat="45.1938567" lon="9.5579917"><ele>63.0</ele><time>2026-04-11T06:45:55.943Z</time></trkpt><trkpt lat="45.1936483" lon="9.55828"><ele>63.0</ele><time>2026-04-11T06:45:56.943Z</time></trkpt><trkpt lat="45.1934483" lon="9.5585717"><ele>63.0</ele><time>2026-04-11T06:45:57.943Z</time></trkpt><trkpt lat="45.1932483" lon="9.5588717"><ele>62.5</ele><time>2026-04-11T06:45:58.943Z</time></trkpt><trkpt lat="45.1930383" lon="9.5591633"><ele>62.0</ele><time>2026-04-11T06:45:59.943Z</time></trkpt><trkpt lat="45.1928333" lon="9.5594517"><ele>61.0</ele><time>2026-04-11T06:46:00.943Z</time></trkpt><trkpt lat="45.1926283" lon="9.55975"><ele>60.0</ele><time>2026-04-11T06:46:01.943Z</time></trkpt><trkpt lat="45.1924217" lon="9.5600467"><ele>60.5</ele><time>2026-04-11T06:46:02.942Z</time></trkpt><trkpt lat="45.1922233" lon="9.5603417"><ele>61.0</ele><time>2026-04-11T06:46:03.943Z</time></trkpt><trkpt lat="45.1920217" lon="9.5606283"><ele>61.0</ele><time>2026-04-11T06:46:04.943Z</time></trkpt><trkpt lat="45.191815" lon="9.5609167"><ele>61.0</ele><time>2026-04-11T06:46:05.943Z</time></trkpt><trkpt lat="45.19161" lon="9.561205"><ele>62.0</ele><time>2026-04-11T06:46:06.943Z</time></trkpt><trkpt lat="45.1914" lon="9.5614883"><ele>63.0</ele><time>2026-04-11T06:46:07.943Z</time></trkpt><trkpt lat="45.191195" lon="9.5617867"><ele>62.5</ele><time>2026-04-11T06:46:08.943Z</time></trkpt><trkpt lat="45.1909983" lon="9.562085"><ele>62.0</ele><time>2026-04-11T06:46:09.942Z</time></trkpt><trkpt lat="45.190795" lon="9.5623817"><ele>62.0</ele><time>2026-04-11T06:46:10.943Z</time></trkpt><trkpt lat="45.190595" lon="9.5626783"><ele>62.0</ele><time>2026-04-11T06:46:11.943Z</time></trkpt><trkpt lat="45.1903933" lon="9.562985"><ele>62.0</ele><time>2026-04-11T06:46:12.942Z</time></trkpt><trkpt lat="45.1901933" lon="9.5632967"><ele>62.0</ele><time>2026-04-11T06:46:13.943Z</time></trkpt><trkpt lat="45.189995" lon="9.5636033"><ele>62.0</ele><time>2026-04-11T06:46:14.943Z</time></trkpt><trkpt lat="45.1897967" lon="9.5639017"><ele>62.0</ele><time>2026-04-11T06:46:15.943Z</time></trkpt><trkpt lat="45.189605" lon="9.5642033"><ele>62.0</ele><time>2026-04-11T06:46:16.943Z</time></trkpt><trkpt lat="45.189415" lon="9.5645033"><ele>62.0</ele><time>2026-04-11T06:46:17.942Z</time></trkpt><trkpt lat="45.189225" lon="9.5647983"><ele>62.0</ele><time>2026-04-11T06:46:18.943Z</time></trkpt><trkpt lat="45.1890367" lon="9.56509"><ele>62.0</ele><time>2026-04-11T06:46:19.943Z</time></trkpt><trkpt lat="45.188845" lon="9.5653867"><ele>63.0</ele><time>2026-04-11T06:46:20.943Z</time></trkpt><trkpt lat="45.1886567" lon="9.5656867"><ele>64.0</ele><time>2026-04-11T06:46:21.943Z</time></trkpt><trkpt lat="45.1884667" lon="9.56599"><ele>63.5</ele><time>2026-04-11T06:46:22.942Z</time></trkpt><trkpt lat="45.1882767" lon="9.56628"><ele>63.0</ele><time>2026-04-11T06:46:23.943Z</time></trkpt><trkpt lat="45.188085" lon="9.5665767"><ele>62.5</ele><time>2026-04-11T06:46:24.943Z</time></trkpt><trkpt lat="45.187895" lon="9.5668667"><ele>62.0</ele><time>2026-04-11T06:46:25.943Z</time></trkpt><trkpt lat="45.1877067" lon="9.56715"><ele>62.0</ele><time>2026-04-11T06:46:26.943Z</time></trkpt><trkpt lat="45.187525" lon="9.5674433"><ele>62.0</ele><time>2026-04-11T06:46:27.943Z</time></trkpt><trkpt lat="45.18734" lon="9.5677383"><ele>62.5</ele><time>2026-04-11T06:46:28.943Z</time></trkpt><trkpt lat="45.1871533" lon="9.568035"><ele>63.0</ele><time>2026-04-11T06:46:29.943Z</time></trkpt><trkpt lat="45.1869633" lon="9.5683317"><ele>63.0</ele><time>2026-04-11T06:46:30.943Z</time></trkpt><trkpt lat="45.186775" lon="9.5686283"><ele>63.0</ele><time>2026-04-11T06:46:31.943Z</time></trkpt><trkpt lat="45.1865833" lon="9.5689267"><ele>62.0</ele><time>2026-04-11T06:46:32.943Z</time></trkpt><trkpt lat="45.1863967" lon="9.569225"><ele>61.0</ele><time>2026-04-11T06:46:33.942Z</time></trkpt><trkpt lat="45.1862067" lon="9.5695167"><ele>62.0</ele><time>2026-04-11T06:46:34.943Z</time></trkpt><trkpt lat="45.18602" lon="9.5698033"><ele>63.0</ele><time>2026-04-11T06:46:35.943Z</time></trkpt><trkpt lat="45.1858317" lon="9.570095"><ele>62.5</ele><time>2026-04-11T06:46:36.943Z</time></trkpt><trkpt lat="45.1856433" lon="9.570395"><ele>62.0</ele><time>2026-04-11T06:46:37.943Z</time></trkpt><trkpt lat="45.185455" lon="9.5706967"><ele>62.0</ele><time>2026-04-11T06:46:38.943Z</time></trkpt><trkpt lat="45.185265" lon="9.5709917"><ele>62.0</ele><time>2026-04-11T06:46:39.943Z</time></trkpt><trkpt lat="45.1850783" lon="9.5712833"><ele>62.5</ele><time>2026-04-11T06:46:40.943Z</time></trkpt><trkpt lat="45.1848833" lon="9.5715833"><ele>63.0</ele><time>2026-04-11T06:46:41.943Z</time></trkpt><trkpt lat="45.184695" lon="9.5718817"><ele>62.5</ele><time>2026-04-11T06:46:42.943Z</time></trkpt><trkpt lat="45.1844983" lon="9.5721783"><ele>62.0</ele><time>2026-04-11T06:46:43.943Z</time></trkpt><trkpt lat="45.1843133" lon="9.57247"><ele>62.0</ele><time>2026-04-11T06:46:44.943Z</time></trkpt><trkpt lat="45.184125" lon="9.5727767"><ele>62.0</ele><time>2026-04-11T06:46:45.943Z</time></trkpt><trkpt lat="45.18393" lon="9.573075"><ele>62.5</ele><time>2026-04-11T06:46:46.943Z</time></trkpt><trkpt lat="45.18374" lon="9.5733867"><ele>63.0</ele><time>2026-04-11T06:46:47.943Z</time></trkpt><trkpt lat="45.1835483" lon="9.5736867"><ele>63.0</ele><time>2026-04-11T06:46:48.943Z</time></trkpt><trkpt lat="45.1833567" lon="9.573985"><ele>63.0</ele><time>2026-04-11T06:46:49.943Z</time></trkpt><trkpt lat="45.183165" lon="9.5742883"><ele>62.5</ele><time>2026-04-11T06:46:50.943Z</time></trkpt><trkpt lat="45.18297" lon="9.574595"><ele>62.0</ele><time>2026-04-11T06:46:51.943Z</time></trkpt><trkpt lat="45.18278" lon="9.5748983"><ele>62.0</ele><time>2026-04-11T06:46:52.942Z</time></trkpt><trkpt lat="45.182585" lon="9.5752033"><ele>62.0</ele><time>2026-04-11T06:46:53.941Z</time></trkpt><trkpt lat="45.1823867" lon="9.5755017"><ele>62.0</ele><time>2026-04-11T06:46:54.942Z</time></trkpt><trkpt lat="45.1821917" lon="9.5758083"><ele>62.0</ele><time>2026-04-11T06:46:55.942Z</time></trkpt><trkpt lat="45.181995" lon="9.5761183"><ele>62.5</ele><time>2026-04-11T06:46:56.942Z</time></trkpt><trkpt lat="45.1817967" lon="9.5764233"><ele>63.0</ele><time>2026-04-11T06:46:57.941Z</time></trkpt><trkpt lat="45.1816017" lon="9.576725"><ele>63.0</ele><time>2026-04-11T06:46:58.942Z</time></trkpt><trkpt lat="45.1814067" lon="9.57703"><ele>63.0</ele><time>2026-04-11T06:46:59.942Z</time></trkpt><trkpt lat="45.1812083" lon="9.57734"><ele>63.0</ele><time>2026-04-11T06:47:00.941Z</time></trkpt><trkpt lat="45.181015" lon="9.57764"><ele>63.0</ele><time>2026-04-11T06:47:01.942Z</time></trkpt><trkpt lat="45.1808217" lon="9.577945"><ele>62.0</ele><time>2026-04-11T06:47:02.942Z</time></trkpt><trkpt lat="45.1806217" lon="9.5782567"><ele>61.0</ele><time>2026-04-11T06:47:03.942Z</time></trkpt><trkpt lat="45.18043" lon="9.5785683"><ele>63.0</ele><time>2026-04-11T06:47:04.942Z</time></trkpt><trkpt lat="45.1802383" lon="9.57888"><ele>65.0</ele><time>2026-04-11T06:47:05.942Z</time></trkpt><trkpt lat="45.1800383" lon="9.579195"><ele>64.0</ele><time>2026-04-11T06:47:06.942Z</time></trkpt><trkpt lat="45.1798383" lon="9.5795033"><ele>63.0</ele><time>2026-04-11T06:47:07.942Z</time></trkpt><trkpt lat="45.1796417" lon="9.5798133"><ele>63.0</ele><time>2026-04-11T06:47:08.942Z</time></trkpt><trkpt lat="45.1794533" lon="9.5801183"><ele>63.0</ele><time>2026-04-11T06:47:09.942Z</time></trkpt><trkpt lat="45.17927" lon="9.5804183"><ele>62.5</ele><time>2026-04-11T06:47:10.942Z</time></trkpt><trkpt lat="45.1790783" lon="9.5807317"><ele>62.0</ele><time>2026-04-11T06:47:11.942Z</time></trkpt><trkpt lat="45.1788833" lon="9.58104"><ele>62.5</ele><time>2026-04-11T06:47:12.942Z</time></trkpt><trkpt lat="45.1786967" lon="9.581345"><ele>63.0</ele><time>2026-04-11T06:47:13.942Z</time></trkpt><trkpt lat="45.1785083" lon="9.5816533"><ele>63.0</ele><time>2026-04-11T06:47:14.942Z</time></trkpt><trkpt lat="45.17832" lon="9.5819483"><ele>63.0</ele><time>2026-04-11T06:47:15.942Z</time></trkpt><trkpt lat="45.1781183" lon="9.5821933"><ele>64.5</ele><time>2026-04-11T06:47:16.942Z</time></trkpt><trkpt lat="45.177935" lon="9.5824983"><ele>66.0</ele><time>2026-04-11T06:47:17.942Z</time></trkpt><trkpt lat="45.1777317" lon="9.5827667"><ele>66.0</ele><time>2026-04-11T06:47:18.942Z</time></trkpt><trkpt lat="45.1775583" lon="9.5830833"><ele>66.0</ele><time>2026-04-11T06:47:19.942Z</time></trkpt><trkpt lat="45.1773733" lon="9.583385"><ele>64.5</ele><time>2026-04-11T06:47:20.942Z</time></trkpt><trkpt lat="45.1771817" lon="9.58369"><ele>63.0</ele><time>2026-04-11T06:47:21.941Z</time></trkpt><trkpt lat="45.1769917" lon="9.5839883"><ele>63.0</ele><time>2026-04-11T06:47:22.942Z</time></trkpt><trkpt lat="45.1768067" lon="9.58428"><ele>63.0</ele><time>2026-04-11T06:47:23.942Z</time></trkpt><trkpt lat="45.1766183" lon="9.58458"><ele>63.5</ele><time>2026-04-11T06:47:24.942Z</time></trkpt><trkpt lat="45.1764317" lon="9.584885"><ele>64.0</ele><time>2026-04-11T06:47:25.942Z</time></trkpt><trkpt lat="45.17625" lon="9.5851733"><ele>64.0</ele><time>2026-04-11T06:47:26.942Z</time></trkpt><trkpt lat="45.1760517" lon="9.585475"><ele>64.0</ele><time>2026-04-11T06:47:27.942Z</time></trkpt><trkpt lat="45.17586" lon="9.5857767"><ele>64.0</ele><time>2026-04-11T06:47:28.941Z</time></trkpt><trkpt lat="45.175675" lon="9.5860717"><ele>64.0</ele><time>2026-04-11T06:47:29.942Z</time></trkpt><trkpt lat="45.175485" lon="9.5863783"><ele>64.0</ele><time>2026-04-11T06:47:30.942Z</time></trkpt><trkpt lat="45.1752967" lon="9.5866767"><ele>64.0</ele><time>2026-04-11T06:47:31.942Z</time></trkpt><trkpt lat="45.17511" lon="9.5869717"><ele>64.0</ele><time>2026-04-11T06:47:32.942Z</time></trkpt><trkpt lat="45.1749217" lon="9.5872467"><ele>64.0</ele><time>2026-04-11T06:47:33.942Z</time></trkpt><trkpt lat="45.1747267" lon="9.5875283"><ele>64.0</ele><time>2026-04-11T06:47:34.942Z</time></trkpt><trkpt lat="45.1745283" lon="9.5878167"><ele>64.0</ele><time>2026-04-11T06:47:35.942Z</time></trkpt><trkpt lat="45.17433" lon="9.5881083"><ele>64.0</ele><time>2026-04-11T06:47:36.941Z</time></trkpt><trkpt lat="45.17414" lon="9.5884017"><ele>64.0</ele><time>2026-04-11T06:47:37.942Z</time></trkpt><trkpt lat="45.173955" lon="9.5886967"><ele>64.0</ele><time>2026-04-11T06:47:38.942Z</time></trkpt><trkpt lat="45.1737717" lon="9.5889883"><ele>64.0</ele><time>2026-04-11T06:47:39.942Z</time></trkpt><trkpt lat="45.17359" lon="9.5892783"><ele>64.5</ele><time>2026-04-11T06:47:40.942Z</time></trkpt><trkpt lat="45.1734067" lon="9.5895717"><ele>65.0</ele><time>2026-04-11T06:47:41.942Z</time></trkpt><trkpt lat="45.1732217" lon="9.5898567"><ele>65.0</ele><time>2026-04-11T06:47:42.942Z</time></trkpt><trkpt lat="45.1730367" lon="9.590155"><ele>65.0</ele><time>2026-04-11T06:47:43.942Z</time></trkpt><trkpt lat="45.1728467" lon="9.5904467"><ele>65.0</ele><time>2026-04-11T06:47:44.942Z</time></trkpt><trkpt lat="45.17266" lon="9.5907333"><ele>65.0</ele><time>2026-04-11T06:47:45.942Z</time></trkpt><trkpt lat="45.1724717" lon="9.5910183"><ele>64.5</ele><time>2026-04-11T06:47:46.942Z</time></trkpt><trkpt lat="45.1722867" lon="9.5913017"><ele>64.0</ele><time>2026-04-11T06:47:47.942Z</time></trkpt><trkpt lat="45.1721033" lon="9.5915917"><ele>64.0</ele><time>2026-04-11T06:47:48.942Z</time></trkpt><trkpt lat="45.1719183" lon="9.591885"><ele>64.0</ele><time>2026-04-11T06:47:49.942Z</time></trkpt><trkpt lat="45.1717383" lon="9.592165"><ele>63.5</ele><time>2026-04-11T06:47:50.941Z</time></trkpt><trkpt lat="45.1715533" lon="9.5924383"><ele>63.0</ele><time>2026-04-11T06:47:51.942Z</time></trkpt><trkpt lat="45.1713683" lon="9.592735"><ele>64.5</ele><time>2026-04-11T06:47:52.942Z</time></trkpt><trkpt lat="45.171185" lon="9.5930167"><ele>66.0</ele><time>2026-04-11T06:47:53.942Z</time></trkpt><trkpt lat="45.170995" lon="9.59332"><ele>66.0</ele><time>2026-04-11T06:47:54.942Z</time></trkpt><trkpt lat="45.17081" lon="9.593615"><ele>66.0</ele><time>2026-04-11T06:47:55.942Z</time></trkpt><trkpt lat="45.170625" lon="9.5939167"><ele>66.5</ele><time>2026-04-11T06:47:56.942Z</time></trkpt><trkpt lat="45.1704383" lon="9.5942183"><ele>67.0</ele><time>2026-04-11T06:47:57.941Z</time></trkpt><trkpt lat="45.1702517" lon="9.594505"><ele>67.0</ele><time>2026-04-11T06:47:58.942Z</time></trkpt><trkpt lat="45.1700583" lon="9.5948083"><ele>67.0</ele><time>2026-04-11T06:47:59.942Z</time></trkpt><trkpt lat="45.1698683" lon="9.5950983"><ele>65.0</ele><time>2026-04-11T06:48:00.942Z</time></trkpt><trkpt lat="45.169675" lon="9.5954017"><ele>63.0</ele><time>2026-04-11T06:48:01.941Z</time></trkpt><trkpt lat="45.1694833" lon="9.595705"><ele>63.0</ele><time>2026-04-11T06:48:02.942Z</time></trkpt><trkpt lat="45.1692867" lon="9.596005"><ele>63.0</ele><time>2026-04-11T06:48:03.942Z</time></trkpt><trkpt lat="45.1690967" lon="9.5963083"><ele>62.5</ele><time>2026-04-11T06:48:04.942Z</time></trkpt><trkpt lat="45.1689033" lon="9.5966117"><ele>62.0</ele><time>2026-04-11T06:48:05.941Z</time></trkpt><trkpt lat="45.1687067" lon="9.596915"><ele>61.5</ele><time>2026-04-11T06:48:06.942Z</time></trkpt><trkpt lat="45.168505" lon="9.5972283"><ele>61.0</ele><time>2026-04-11T06:48:07.942Z</time></trkpt><trkpt lat="45.168305" lon="9.5975467"><ele>60.5</ele><time>2026-04-11T06:48:08.942Z</time></trkpt><trkpt lat="45.1681083" lon="9.5978567"><ele>60.0</ele><time>2026-04-11T06:48:09.942Z</time></trkpt><trkpt lat="45.1679117" lon="9.5981633"><ele>60.0</ele><time>2026-04-11T06:48:10.942Z</time></trkpt><trkpt lat="45.1677117" lon="9.59847"><ele>60.0</ele><time>2026-04-11T06:48:11.942Z</time></trkpt><trkpt lat="45.1675117" lon="9.5987817"><ele>60.5</ele><time>2026-04-11T06:48:12.942Z</time></trkpt><trkpt lat="45.1673117" lon="9.5990833"><ele>61.0</ele><time>2026-04-11T06:48:13.942Z</time></trkpt><trkpt lat="45.1671133" lon="9.5993917"><ele>61.5</ele><time>2026-04-11T06:48:14.942Z</time></trkpt><trkpt lat="45.16691" lon="9.5996933"><ele>62.0</ele><time>2026-04-11T06:48:15.942Z</time></trkpt><trkpt lat="45.1667033" lon="9.600005"><ele>62.0</ele><time>2026-04-11T06:48:16.942Z</time></trkpt><trkpt lat="45.1665067" lon="9.6002983"><ele>62.0</ele><time>2026-04-11T06:48:17.942Z</time></trkpt><trkpt lat="45.1663017" lon="9.6006"><ele>62.0</ele><time>2026-04-11T06:48:18.942Z</time></trkpt><trkpt lat="45.1661033" lon="9.60089"><ele>62.0</ele><time>2026-04-11T06:48:19.942Z</time></trkpt><trkpt lat="45.16591" lon="9.6011917"><ele>61.5</ele><time>2026-04-11T06:48:20.942Z</time></trkpt><trkpt lat="45.1657117" lon="9.6014867"><ele>61.0</ele><time>2026-04-11T06:48:21.942Z</time></trkpt><trkpt lat="45.1655133" lon="9.6017633"><ele>60.5</ele><time>2026-04-11T06:48:22.942Z</time></trkpt><trkpt lat="45.165315" lon="9.6020567"><ele>60.0</ele><time>2026-04-11T06:48:23.942Z</time></trkpt><trkpt lat="45.1651083" lon="9.6023433"><ele>60.0</ele><time>2026-04-11T06:48:24.942Z</time></trkpt><trkpt lat="45.1649033" lon="9.60263"><ele>60.0</ele><time>2026-04-11T06:48:25.942Z</time></trkpt><trkpt lat="45.1647033" lon="9.6029167"><ele>60.5</ele><time>2026-04-11T06:48:26.942Z</time></trkpt><trkpt lat="45.1645017" lon="9.603205"><ele>61.0</ele><time>2026-04-11T06:48:27.942Z</time></trkpt><trkpt lat="45.164295" lon="9.6034917"><ele>61.0</ele><time>2026-04-11T06:48:28.942Z</time></trkpt><trkpt lat="45.1640967" lon="9.6037767"><ele>61.0</ele><time>2026-04-11T06:48:29.942Z</time></trkpt><trkpt lat="45.1638983" lon="9.6040617"><ele>63.0</ele><time>2026-04-11T06:48:30.942Z</time></trkpt><trkpt lat="45.1637033" lon="9.6043567"><ele>65.0</ele><time>2026-04-11T06:48:31.942Z</time></trkpt><trkpt lat="45.16349" lon="9.6046417"><ele>65.0</ele><time>2026-04-11T06:48:32.941Z</time></trkpt><trkpt lat="45.1632817" lon="9.60493"><ele>65.0</ele><time>2026-04-11T06:48:33.942Z</time></trkpt><trkpt lat="45.163075" lon="9.6052233"><ele>63.0</ele><time>2026-04-11T06:48:34.942Z</time></trkpt><trkpt lat="45.1628667" lon="9.6055033"><ele>61.0</ele><time>2026-04-11T06:48:35.941Z</time></trkpt><trkpt lat="45.1626667" lon="9.6057933"><ele>61.0</ele><time>2026-04-11T06:48:36.942Z</time></trkpt><trkpt lat="45.16247" lon="9.606075"><ele>61.0</ele><time>2026-04-11T06:48:37.942Z</time></trkpt><trkpt lat="45.1622733" lon="9.6063583"><ele>62.0</ele><time>2026-04-11T06:48:38.942Z</time></trkpt><trkpt lat="45.162075" lon="9.606635"><ele>63.0</ele><time>2026-04-11T06:48:39.942Z</time></trkpt><trkpt lat="45.1618733" lon="9.6069117"><ele>62.5</ele><time>2026-04-11T06:48:40.942Z</time></trkpt><trkpt lat="45.1616683" lon="9.6071917"><ele>62.0</ele><time>2026-04-11T06:48:41.942Z</time></trkpt><trkpt lat="45.16147" lon="9.607465"><ele>62.0</ele><time>2026-04-11T06:48:42.942Z</time></trkpt><trkpt lat="45.1612683" lon="9.6077383"><ele>62.0</ele><time>2026-04-11T06:48:43.942Z</time></trkpt><trkpt lat="45.1610667" lon="9.6080133"><ele>62.0</ele><time>2026-04-11T06:48:44.941Z</time></trkpt><trkpt lat="45.16087" lon="9.6082833"><ele>62.0</ele><time>2026-04-11T06:48:45.941Z</time></trkpt><trkpt lat="45.16067" lon="9.6085583"><ele>62.0</ele><time>2026-04-11T06:48:46.942Z</time></trkpt><trkpt lat="45.1604717" lon="9.60883"><ele>62.0</ele><time>2026-04-11T06:48:47.942Z</time></trkpt><trkpt lat="45.160275" lon="9.6091133"><ele>62.0</ele><time>2026-04-11T06:48:48.941Z</time></trkpt><trkpt lat="45.16008" lon="9.6094"><ele>62.0</ele><time>2026-04-11T06:48:49.942Z</time></trkpt><trkpt lat="45.159885" lon="9.609685"><ele>61.5</ele><time>2026-04-11T06:48:50.942Z</time></trkpt><trkpt lat="45.1596833" lon="9.6099667"><ele>61.0</ele><time>2026-04-11T06:48:51.942Z</time></trkpt><trkpt lat="45.159495" lon="9.61023"><ele>61.0</ele><time>2026-04-11T06:48:52.942Z</time></trkpt><trkpt lat="45.1593183" lon="9.610475"><ele>61.0</ele><time>2026-04-11T06:48:53.941Z</time></trkpt><trkpt lat="45.1591483" lon="9.610715"><ele>60.5</ele><time>2026-04-11T06:48:54.942Z</time></trkpt><trkpt lat="45.1589767" lon="9.6109617"><ele>60.0</ele><time>2026-04-11T06:48:55.941Z</time></trkpt><trkpt lat="45.1588017" lon="9.6112133"><ele>60.0</ele><time>2026-04-11T06:48:56.942Z</time></trkpt><trkpt lat="45.1586233" lon="9.6114717"><ele>60.0</ele><time>2026-04-11T06:48:57.942Z</time></trkpt><trkpt lat="45.1584417" lon="9.6117383"><ele>60.0</ele><time>2026-04-11T06:48:58.942Z</time></trkpt><trkpt lat="45.1582567" lon="9.6119983"><ele>60.0</ele><time>2026-04-11T06:48:59.942Z</time></trkpt><trkpt lat="45.1580633" lon="9.61229"><ele>60.0</ele><time>2026-04-11T06:49:00.942Z</time></trkpt><trkpt lat="45.1578667" lon="9.6125667"><ele>60.0</ele><time>2026-04-11T06:49:01.942Z</time></trkpt><trkpt lat="45.1576667" lon="9.6128483"><ele>60.0</ele><time>2026-04-11T06:49:02.942Z</time></trkpt><trkpt lat="45.1574683" lon="9.61313"><ele>60.0</ele><time>2026-04-11T06:49:03.942Z</time></trkpt><trkpt lat="45.1572633" lon="9.6134067"><ele>59.5</ele><time>2026-04-11T06:49:04.942Z</time></trkpt><trkpt lat="45.1570583" lon="9.6136917"><ele>59.0</ele><time>2026-04-11T06:49:05.941Z</time></trkpt><trkpt lat="45.1568533" lon="9.6139717"><ele>59.0</ele><time>2026-04-11T06:49:06.942Z</time></trkpt><trkpt lat="45.1566517" lon="9.614255"><ele>59.0</ele><time>2026-04-11T06:49:07.942Z</time></trkpt><trkpt lat="45.156455" lon="9.6145317"><ele>60.0</ele><time>2026-04-11T06:49:08.942Z</time></trkpt><trkpt lat="45.1562567" lon="9.614805"><ele>61.0</ele><time>2026-04-11T06:49:09.942Z</time></trkpt><trkpt lat="45.1560567" lon="9.6150933"><ele>60.5</ele><time>2026-04-11T06:49:10.942Z</time></trkpt><trkpt lat="45.1558583" lon="9.6153717"><ele>60.0</ele><time>2026-04-11T06:49:11.942Z</time></trkpt><trkpt lat="45.15566" lon="9.6156633"><ele>59.5</ele><time>2026-04-11T06:49:12.942Z</time></trkpt><trkpt lat="45.1554567" lon="9.6159533"><ele>59.0</ele><time>2026-04-11T06:49:13.942Z</time></trkpt><trkpt lat="45.1552467" lon="9.6162483"><ele>59.0</ele><time>2026-04-11T06:49:14.942Z</time></trkpt><trkpt lat="45.1550417" lon="9.6165333"><ele>59.0</ele><time>2026-04-11T06:49:15.942Z</time></trkpt><trkpt lat="45.15483" lon="9.6168183"><ele>59.0</ele><time>2026-04-11T06:49:16.942Z</time></trkpt><trkpt lat="45.1546233" lon="9.6171033"><ele>59.0</ele><time>2026-04-11T06:49:17.942Z</time></trkpt><trkpt lat="45.1544183" lon="9.6173883"><ele>59.0</ele><time>2026-04-11T06:49:18.942Z</time></trkpt><trkpt lat="45.154215" lon="9.617675"><ele>59.0</ele><time>2026-04-11T06:49:19.942Z</time></trkpt><trkpt lat="45.1540117" lon="9.61796"><ele>60.5</ele><time>2026-04-11T06:49:20.942Z</time></trkpt><trkpt lat="45.153805" lon="9.6182367"><ele>62.0</ele><time>2026-04-11T06:49:21.942Z</time></trkpt><trkpt lat="45.1536017" lon="9.6185267"><ele>61.0</ele><time>2026-04-11T06:49:22.942Z</time></trkpt><trkpt lat="45.1534" lon="9.6188167"><ele>60.0</ele><time>2026-04-11T06:49:23.942Z</time></trkpt><trkpt lat="45.153195" lon="9.6191033"><ele>60.0</ele><time>2026-04-11T06:49:24.942Z</time></trkpt><trkpt lat="45.1529883" lon="9.61938"><ele>60.0</ele><time>2026-04-11T06:49:25.942Z</time></trkpt><trkpt lat="45.15278" lon="9.6196617"><ele>60.0</ele><time>2026-04-11T06:49:26.942Z</time></trkpt><trkpt lat="45.15257" lon="9.6199583"><ele>60.0</ele><time>2026-04-11T06:49:27.942Z</time></trkpt><trkpt lat="45.15236" lon="9.6202533"><ele>60.0</ele><time>2026-04-11T06:49:28.942Z</time></trkpt><trkpt lat="45.1521583" lon="9.6205433"><ele>60.0</ele><time>2026-04-11T06:49:29.942Z</time></trkpt><trkpt lat="45.1519533" lon="9.6208317"><ele>60.0</ele><time>2026-04-11T06:49:30.942Z</time></trkpt><trkpt lat="45.1517467" lon="9.6211217"><ele>60.0</ele><time>2026-04-11T06:49:31.942Z</time></trkpt><trkpt lat="45.1515383" lon="9.6214167"><ele>59.5</ele><time>2026-04-11T06:49:32.942Z</time></trkpt><trkpt lat="45.1513333" lon="9.6217033"><ele>59.0</ele><time>2026-04-11T06:49:33.942Z</time></trkpt><trkpt lat="45.1511317" lon="9.6219817"><ele>59.0</ele><time>2026-04-11T06:49:34.942Z</time></trkpt><trkpt lat="45.1509233" lon="9.6222683"><ele>59.0</ele><time>2026-04-11T06:49:35.942Z</time></trkpt><trkpt lat="45.1507133" lon="9.62255"><ele>59.0</ele><time>2026-04-11T06:49:36.942Z</time></trkpt><trkpt lat="45.1505083" lon="9.6228483"><ele>59.0</ele><time>2026-04-11T06:49:37.942Z</time></trkpt><trkpt lat="45.1503033" lon="9.6231367"><ele>59.0</ele><time>2026-04-11T06:49:38.942Z</time></trkpt><trkpt lat="45.1501" lon="9.6234183"><ele>59.0</ele><time>2026-04-11T06:49:39.942Z</time></trkpt><trkpt lat="45.1498967" lon="9.623715"><ele>59.0</ele><time>2026-04-11T06:49:40.942Z</time></trkpt><trkpt lat="45.1496867" lon="9.623995"><ele>59.0</ele><time>2026-04-11T06:49:41.942Z</time></trkpt><trkpt lat="45.149475" lon="9.6242867"><ele>59.0</ele><time>2026-04-11T06:49:42.941Z</time></trkpt><trkpt lat="45.149265" lon="9.624575"><ele>59.0</ele><time>2026-04-11T06:49:43.942Z</time></trkpt><trkpt lat="45.1490583" lon="9.62484"><ele>60.0</ele><time>2026-04-11T06:49:44.942Z</time></trkpt><trkpt lat="45.1488483" lon="9.6251167"><ele>61.0</ele><time>2026-04-11T06:49:45.942Z</time></trkpt><trkpt lat="45.1486383" lon="9.6254067"><ele>61.0</ele><time>2026-04-11T06:49:46.942Z</time></trkpt><trkpt lat="45.1484267" lon="9.625695"><ele>61.0</ele><time>2026-04-11T06:49:47.942Z</time></trkpt><trkpt lat="45.1482167" lon="9.62599"><ele>59.5</ele><time>2026-04-11T06:49:48.942Z</time></trkpt><trkpt lat="45.14801" lon="9.6262967"><ele>58.0</ele><time>2026-04-11T06:49:49.942Z</time></trkpt><trkpt lat="45.1477967" lon="9.626595"><ele>58.0</ele><time>2026-04-11T06:49:50.942Z</time></trkpt><trkpt lat="45.147585" lon="9.6268783"><ele>58.0</ele><time>2026-04-11T06:49:51.942Z</time></trkpt><trkpt lat="45.1473733" lon="9.6271717"><ele>57.0</ele><time>2026-04-11T06:49:52.942Z</time></trkpt><trkpt lat="45.147175" lon="9.6274533"><ele>56.0</ele><time>2026-04-11T06:49:53.942Z</time></trkpt><trkpt lat="45.1469683" lon="9.6277333"><ele>56.0</ele><time>2026-04-11T06:49:54.942Z</time></trkpt><trkpt lat="45.1467683" lon="9.6280233"><ele>56.0</ele><time>2026-04-11T06:49:55.941Z</time></trkpt><trkpt lat="45.1465633" lon="9.6283033"><ele>56.0</ele><time>2026-04-11T06:49:56.942Z</time></trkpt><trkpt lat="45.1463567" lon="9.6285933"><ele>56.0</ele><time>2026-04-11T06:49:57.942Z</time></trkpt><trkpt lat="45.1461383" lon="9.6288817"><ele>56.5</ele><time>2026-04-11T06:49:58.942Z</time></trkpt><trkpt lat="45.1459367" lon="9.62916"><ele>57.0</ele><time>2026-04-11T06:49:59.942Z</time></trkpt><trkpt lat="45.1457333" lon="9.6294367"><ele>56.5</ele><time>2026-04-11T06:50:00.942Z</time></trkpt><trkpt lat="45.1455283" lon="9.629725"><ele>56.0</ele><time>2026-04-11T06:50:01.942Z</time></trkpt><trkpt lat="45.1453267" lon="9.630025"><ele>56.5</ele><time>2026-04-11T06:50:02.942Z</time></trkpt><trkpt lat="45.14513" lon="9.6303183"><ele>57.0</ele><time>2026-04-11T06:50:03.942Z</time></trkpt><trkpt lat="45.144925" lon="9.6306283"><ele>56.5</ele><time>2026-04-11T06:50:04.942Z</time></trkpt><trkpt lat="45.1447233" lon="9.6309217"><ele>56.0</ele><time>2026-04-11T06:50:05.942Z</time></trkpt><trkpt lat="45.144515" lon="9.6312183"><ele>56.0</ele><time>2026-04-11T06:50:06.941Z</time></trkpt><trkpt lat="45.1443083" lon="9.63151"><ele>56.0</ele><time>2026-04-11T06:50:07.942Z</time></trkpt><trkpt lat="45.1441133" lon="9.631805"><ele>56.5</ele><time>2026-04-11T06:50:08.942Z</time></trkpt><trkpt lat="45.143905" lon="9.6320933"><ele>57.0</ele><time>2026-04-11T06:50:09.942Z</time></trkpt><trkpt lat="45.1436833" lon="9.6323733"><ele>57.0</ele><time>2026-04-11T06:50:10.941Z</time></trkpt><trkpt lat="45.1434717" lon="9.6326417"><ele>57.0</ele><time>2026-04-11T06:50:11.942Z</time></trkpt><trkpt lat="45.1432517" lon="9.6329"><ele>56.5</ele><time>2026-04-11T06:50:12.942Z</time></trkpt><trkpt lat="45.1430517" lon="9.6331967"><ele>56.0</ele><time>2026-04-11T06:50:13.942Z</time></trkpt><trkpt lat="45.142855" lon="9.63349"><ele>55.5</ele><time>2026-04-11T06:50:14.942Z</time></trkpt><trkpt lat="45.1426483" lon="9.6337633"><ele>55.0</ele><time>2026-04-11T06:50:15.942Z</time></trkpt><trkpt lat="45.142445" lon="9.6340417"><ele>55.0</ele><time>2026-04-11T06:50:16.942Z</time></trkpt><trkpt lat="45.1422417" lon="9.6343233"><ele>55.0</ele><time>2026-04-11T06:50:17.942Z</time></trkpt><trkpt lat="45.1420417" lon="9.6346167"><ele>53.0</ele><time>2026-04-11T06:50:18.942Z</time></trkpt><trkpt lat="45.1418433" lon="9.6349117"><ele>51.0</ele><time>2026-04-11T06:50:19.942Z</time></trkpt><trkpt lat="45.141645" lon="9.63521"><ele>50.0</ele><time>2026-04-11T06:50:20.942Z</time></trkpt><trkpt lat="45.141445" lon="9.6355"><ele>49.0</ele><time>2026-04-11T06:50:21.942Z</time></trkpt><trkpt lat="45.1412533" lon="9.6357933"><ele>49.0</ele><time>2026-04-11T06:50:22.942Z</time></trkpt><trkpt lat="45.14106" lon="9.6360917"><ele>49.0</ele><time>2026-04-11T06:50:23.942Z</time></trkpt><trkpt lat="45.1408783" lon="9.6363933"><ele>49.0</ele><time>2026-04-11T06:50:24.942Z</time></trkpt><trkpt lat="45.140705" lon="9.6367033"><ele>49.0</ele><time>2026-04-11T06:50:25.942Z</time></trkpt><trkpt lat="45.1405333" lon="9.637015"><ele>48.5</ele><time>2026-04-11T06:50:26.942Z</time></trkpt><trkpt lat="45.1403633" lon="9.6373233"><ele>48.0</ele><time>2026-04-11T06:50:27.942Z</time></trkpt><trkpt lat="45.1401917" lon="9.637645"><ele>48.0</ele><time>2026-04-11T06:50:28.942Z</time></trkpt><trkpt lat="45.1400233" lon="9.6379717"><ele>48.0</ele><time>2026-04-11T06:50:29.942Z</time></trkpt><trkpt lat="45.1398567" lon="9.6382983"><ele>48.0</ele><time>2026-04-11T06:50:30.942Z</time></trkpt><trkpt lat="45.13969" lon="9.6386217"><ele>48.0</ele><time>2026-04-11T06:50:31.942Z</time></trkpt><trkpt lat="45.1395217" lon="9.6389417"><ele>48.0</ele><time>2026-04-11T06:50:32.942Z</time></trkpt><trkpt lat="45.1393517" lon="9.6392583"><ele>48.0</ele><time>2026-04-11T06:50:33.942Z</time></trkpt><trkpt lat="45.1391933" lon="9.639565"><ele>48.0</ele><time>2026-04-11T06:50:34.942Z</time></trkpt><trkpt lat="45.1390317" lon="9.6398733"><ele>48.0</ele><time>2026-04-11T06:50:35.942Z</time></trkpt><trkpt lat="45.1388667" lon="9.6401967"><ele>48.5</ele><time>2026-04-11T06:50:36.942Z</time></trkpt><trkpt lat="45.138705" lon="9.6405217"><ele>49.0</ele><time>2026-04-11T06:50:37.942Z</time></trkpt><trkpt lat="45.1385317" lon="9.64086"><ele>49.5</ele><time>2026-04-11T06:50:38.942Z</time></trkpt><trkpt lat="45.1383667" lon="9.6411817"><ele>50.0</ele><time>2026-04-11T06:50:39.942Z</time></trkpt><trkpt lat="45.1381983" lon="9.641515"><ele>50.0</ele><time>2026-04-11T06:50:40.941Z</time></trkpt><trkpt lat="45.1380267" lon="9.6418483"><ele>50.0</ele><time>2026-04-11T06:50:41.942Z</time></trkpt><trkpt lat="45.1378583" lon="9.64218"><ele>50.5</ele><time>2026-04-11T06:50:42.942Z</time></trkpt><trkpt lat="45.137685" lon="9.6425183"><ele>51.0</ele><time>2026-04-11T06:50:43.942Z</time></trkpt><trkpt lat="45.137515" lon="9.6428467"><ele>50.0</ele><time>2026-04-11T06:50:44.941Z</time></trkpt><trkpt lat="45.1373467" lon="9.6431917"><ele>49.0</ele><time>2026-04-11T06:50:45.942Z</time></trkpt><trkpt lat="45.1371783" lon="9.6435167"><ele>48.5</ele><time>2026-04-11T06:50:46.942Z</time></trkpt><trkpt lat="45.1370167" lon="9.6438367"><ele>48.0</ele><time>2026-04-11T06:50:47.942Z</time></trkpt><trkpt lat="45.1368383" lon="9.6441833"><ele>48.0</ele><time>2026-04-11T06:50:48.941Z</time></trkpt><trkpt lat="45.13667" lon="9.64452"><ele>48.0</ele><time>2026-04-11T06:50:49.942Z</time></trkpt><trkpt lat="45.13651" lon="9.64485"><ele>47.5</ele><time>2026-04-11T06:50:50.942Z</time></trkpt><trkpt lat="45.136345" lon="9.6451717"><ele>47.0</ele><time>2026-04-11T06:50:51.942Z</time></trkpt><trkpt lat="45.136175" lon="9.6454867"><ele>46.5</ele><time>2026-04-11T06:50:52.942Z</time></trkpt><trkpt lat="45.136005" lon="9.64581"><ele>46.0</ele><time>2026-04-11T06:50:53.941Z</time></trkpt><trkpt lat="45.1358333" lon="9.64615"><ele>47.0</ele><time>2026-04-11T06:50:54.942Z</time></trkpt><trkpt lat="45.135665" lon="9.6464817"><ele>48.0</ele><time>2026-04-11T06:50:55.942Z</time></trkpt><trkpt lat="45.135495" lon="9.6468167"><ele>48.0</ele><time>2026-04-11T06:50:56.942Z</time></trkpt><trkpt lat="45.135325" lon="9.6471467"><ele>48.0</ele><time>2026-04-11T06:50:57.942Z</time></trkpt><trkpt lat="45.135155" lon="9.64748"><ele>47.5</ele><time>2026-04-11T06:50:58.942Z</time></trkpt><trkpt lat="45.1349867" lon="9.6478133"><ele>47.0</ele><time>2026-04-11T06:50:59.942Z</time></trkpt><trkpt lat="45.134815" lon="9.64814"><ele>47.0</ele><time>2026-04-11T06:51:00.942Z</time></trkpt><trkpt lat="45.13465" lon="9.64847"><ele>47.0</ele><time>2026-04-11T06:51:01.942Z</time></trkpt><trkpt lat="45.13449" lon="9.648795"><ele>46.5</ele><time>2026-04-11T06:51:02.942Z</time></trkpt><trkpt lat="45.1343283" lon="9.6491067"><ele>46.0</ele><time>2026-04-11T06:51:03.941Z</time></trkpt><trkpt lat="45.1341633" lon="9.649425"><ele>46.5</ele><time>2026-04-11T06:51:04.942Z</time></trkpt><trkpt lat="45.133995" lon="9.6497483"><ele>47.0</ele><time>2026-04-11T06:51:05.941Z</time></trkpt><trkpt lat="45.1338283" lon="9.65007"><ele>46.5</ele><time>2026-04-11T06:51:06.942Z</time></trkpt><trkpt lat="45.1336683" lon="9.6503867"><ele>46.0</ele><time>2026-04-11T06:51:07.942Z</time></trkpt><trkpt lat="45.1335033" lon="9.650705"><ele>46.0</ele><time>2026-04-11T06:51:08.942Z</time></trkpt><trkpt lat="45.1333367" lon="9.651035"><ele>46.0</ele><time>2026-04-11T06:51:09.942Z</time></trkpt><trkpt lat="45.1331767" lon="9.6513567"><ele>46.5</ele><time>2026-04-11T06:51:10.942Z</time></trkpt><trkpt lat="45.1330117" lon="9.651695"><ele>47.0</ele><time>2026-04-11T06:51:11.942Z</time></trkpt><trkpt lat="45.1328433" lon="9.65201"><ele>47.5</ele><time>2026-04-11T06:51:12.942Z</time></trkpt><trkpt lat="45.1326783" lon="9.6523233"><ele>48.0</ele><time>2026-04-11T06:51:13.942Z</time></trkpt><trkpt lat="45.132515" lon="9.6526483"><ele>48.0</ele><time>2026-04-11T06:51:14.942Z</time></trkpt><trkpt lat="45.1323467" lon="9.6529617"><ele>48.0</ele><time>2026-04-11T06:51:15.942Z</time></trkpt><trkpt lat="45.1321817" lon="9.6532817"><ele>48.0</ele><time>2026-04-11T06:51:16.942Z</time></trkpt><trkpt lat="45.1320183" lon="9.6536033"><ele>48.0</ele><time>2026-04-11T06:51:17.942Z</time></trkpt><trkpt lat="45.1318517" lon="9.6539217"><ele>48.0</ele><time>2026-04-11T06:51:18.942Z</time></trkpt><trkpt lat="45.1316933" lon="9.6542433"><ele>48.0</ele><time>2026-04-11T06:51:19.942Z</time></trkpt><trkpt lat="45.1315233" lon="9.6545717"><ele>49.0</ele><time>2026-04-11T06:51:20.942Z</time></trkpt><trkpt lat="45.1313583" lon="9.6548883"><ele>50.0</ele><time>2026-04-11T06:51:21.942Z</time></trkpt><trkpt lat="45.1312033" lon="9.6552033"><ele>48.5</ele><time>2026-04-11T06:51:22.942Z</time></trkpt><trkpt lat="45.1310417" lon="9.6555283"><ele>47.0</ele><time>2026-04-11T06:51:23.942Z</time></trkpt><trkpt lat="45.1308833" lon="9.6558517"><ele>48.5</ele><time>2026-04-11T06:51:24.942Z</time></trkpt><trkpt lat="45.1307167" lon="9.6561667"><ele>50.0</ele><time>2026-04-11T06:51:25.942Z</time></trkpt><trkpt lat="45.1305483" lon="9.656485"><ele>50.0</ele><time>2026-04-11T06:51:26.942Z</time></trkpt><trkpt lat="45.130385" lon="9.656815"><ele>50.0</ele><time>2026-04-11T06:51:27.942Z</time></trkpt><trkpt lat="45.1302217" lon="9.6571333"><ele>50.0</ele><time>2026-04-11T06:51:28.942Z</time></trkpt><trkpt lat="45.1300517" lon="9.6574467"><ele>50.0</ele><time>2026-04-11T06:51:29.941Z</time></trkpt><trkpt lat="45.12989" lon="9.6577667"><ele>48.5</ele><time>2026-04-11T06:51:30.942Z</time></trkpt><trkpt lat="45.12973" lon="9.6580917"><ele>47.0</ele><time>2026-04-11T06:51:31.942Z</time></trkpt><trkpt lat="45.1295583" lon="9.658425"><ele>47.0</ele><time>2026-04-11T06:51:32.942Z</time></trkpt><trkpt lat="45.1293917" lon="9.6587467"><ele>47.0</ele><time>2026-04-11T06:51:33.942Z</time></trkpt><trkpt lat="45.1292217" lon="9.6590667"><ele>47.0</ele><time>2026-04-11T06:51:34.942Z</time></trkpt><trkpt lat="45.129055" lon="9.65939"><ele>47.0</ele><time>2026-04-11T06:51:35.942Z</time></trkpt><trkpt lat="45.1288817" lon="9.6597067"><ele>46.5</ele><time>2026-04-11T06:51:36.942Z</time></trkpt><trkpt lat="45.1287117" lon="9.660025"><ele>46.0</ele><time>2026-04-11T06:51:37.942Z</time></trkpt><trkpt lat="45.1285367" lon="9.66035"><ele>45.5</ele><time>2026-04-11T06:51:38.941Z</time></trkpt><trkpt lat="45.128365" lon="9.6606717"><ele>45.0</ele><time>2026-04-11T06:51:39.942Z</time></trkpt><trkpt lat="45.1281867" lon="9.6609867"><ele>46.0</ele><time>2026-04-11T06:51:40.942Z</time></trkpt><trkpt lat="45.1280083" lon="9.6612967"><ele>47.0</ele><time>2026-04-11T06:51:41.942Z</time></trkpt><trkpt lat="45.1278317" lon="9.6616233"><ele>47.0</ele><time>2026-04-11T06:51:42.941Z</time></trkpt><trkpt lat="45.1276433" lon="9.6619383"><ele>47.0</ele><time>2026-04-11T06:51:43.942Z</time></trkpt><trkpt lat="45.1274617" lon="9.6622483"><ele>47.0</ele><time>2026-04-11T06:51:44.941Z</time></trkpt><trkpt lat="45.1272767" lon="9.6625617"><ele>47.0</ele><time>2026-04-11T06:51:45.942Z</time></trkpt><trkpt lat="45.1270917" lon="9.6628717"><ele>47.0</ele><time>2026-04-11T06:51:46.942Z</time></trkpt><trkpt lat="45.1269" lon="9.66319"><ele>47.0</ele><time>2026-04-11T06:51:47.942Z</time></trkpt><trkpt lat="45.1267083" lon="9.6635067"><ele>47.0</ele><time>2026-04-11T06:51:48.942Z</time></trkpt><trkpt lat="45.12651" lon="9.6638167"><ele>47.0</ele><time>2026-04-11T06:51:49.942Z</time></trkpt><trkpt lat="45.126315" lon="9.6641167"><ele>47.0</ele><time>2026-04-11T06:51:50.942Z</time></trkpt><trkpt lat="45.1261183" lon="9.66442"><ele>47.0</ele><time>2026-04-11T06:51:51.942Z</time></trkpt><trkpt lat="45.1259217" lon="9.6647267"><ele>47.0</ele><time>2026-04-11T06:51:52.942Z</time></trkpt><trkpt lat="45.12572" lon="9.6650267"><ele>47.0</ele><time>2026-04-11T06:51:53.942Z</time></trkpt><trkpt lat="45.125515" lon="9.6653333"><ele>47.0</ele><time>2026-04-11T06:51:54.941Z</time></trkpt><trkpt lat="45.125315" lon="9.6656267"><ele>47.0</ele><time>2026-04-11T06:51:55.942Z</time></trkpt><trkpt lat="45.1251083" lon="9.6659333"><ele>46.5</ele><time>2026-04-11T06:51:56.942Z</time></trkpt><trkpt lat="45.1249033" lon="9.6662283"><ele>46.0</ele><time>2026-04-11T06:51:57.942Z</time></trkpt><trkpt lat="45.1246933" lon="9.666525"><ele>46.0</ele><time>2026-04-11T06:51:58.942Z</time></trkpt><trkpt lat="45.1244883" lon="9.6668117"><ele>46.0</ele><time>2026-04-11T06:51:59.942Z</time></trkpt><trkpt lat="45.1242867" lon="9.6671117"><ele>45.5</ele><time>2026-04-11T06:52:00.942Z</time></trkpt><trkpt lat="45.1240883" lon="9.667415"><ele>45.0</ele><time>2026-04-11T06:52:01.942Z</time></trkpt><trkpt lat="45.1238817" lon="9.66772"><ele>45.0</ele><time>2026-04-11T06:52:02.942Z</time></trkpt><trkpt lat="45.123675" lon="9.668045"><ele>45.0</ele><time>2026-04-11T06:52:03.942Z</time></trkpt><trkpt lat="45.123465" lon="9.6683633"><ele>45.0</ele><time>2026-04-11T06:52:04.941Z</time></trkpt><trkpt lat="45.123265" lon="9.6686567"><ele>45.0</ele><time>2026-04-11T06:52:05.942Z</time></trkpt><trkpt lat="45.12307" lon="9.668935"><ele>44.5</ele><time>2026-04-11T06:52:06.942Z</time></trkpt><trkpt lat="45.1228717" lon="9.6692067"><ele>44.0</ele><time>2026-04-11T06:52:07.941Z</time></trkpt><trkpt lat="45.12268" lon="9.6694917"><ele>44.0</ele><time>2026-04-11T06:52:08.942Z</time></trkpt><trkpt lat="45.12249" lon="9.6697833"><ele>44.0</ele><time>2026-04-11T06:52:09.942Z</time></trkpt><trkpt lat="45.1222917" lon="9.67007"><ele>44.5</ele><time>2026-04-11T06:52:10.942Z</time></trkpt><trkpt lat="45.1220833" lon="9.6703583"><ele>45.0</ele><time>2026-04-11T06:52:11.941Z</time></trkpt><trkpt lat="45.1218833" lon="9.6706567"><ele>45.0</ele><time>2026-04-11T06:52:12.942Z</time></trkpt><trkpt lat="45.1216817" lon="9.6709483"><ele>45.0</ele><time>2026-04-11T06:52:13.942Z</time></trkpt><trkpt lat="45.1214767" lon="9.6712283"><ele>45.5</ele><time>2026-04-11T06:52:14.942Z</time></trkpt><trkpt lat="45.12127" lon="9.6715167"><ele>46.0</ele><time>2026-04-11T06:52:15.941Z</time></trkpt><trkpt lat="45.1210583" lon="9.6718083"><ele>46.0</ele><time>2026-04-11T06:52:16.942Z</time></trkpt><trkpt lat="45.1208433" lon="9.672105"><ele>46.0</ele><time>2026-04-11T06:52:17.942Z</time></trkpt><trkpt lat="45.1206317" lon="9.6724017"><ele>46.5</ele><time>2026-04-11T06:52:18.942Z</time></trkpt><trkpt lat="45.1204383" lon="9.6726833"><ele>47.0</ele><time>2026-04-11T06:52:19.942Z</time></trkpt><trkpt lat="45.12023" lon="9.6729683"><ele>47.0</ele><time>2026-04-11T06:52:20.942Z</time></trkpt><trkpt lat="45.1200383" lon="9.6732483"><ele>47.0</ele><time>2026-04-11T06:52:21.942Z</time></trkpt><trkpt lat="45.1198417" lon="9.6735283"><ele>45.5</ele><time>2026-04-11T06:52:22.942Z</time></trkpt><trkpt lat="45.1196533" lon="9.6738033"><ele>44.0</ele><time>2026-04-11T06:52:23.942Z</time></trkpt><trkpt lat="45.11946" lon="9.6740783"><ele>44.0</ele><time>2026-04-11T06:52:24.942Z</time></trkpt><trkpt lat="45.11927" lon="9.674345"><ele>44.0</ele><time>2026-04-11T06:52:25.942Z</time></trkpt><trkpt lat="45.1190833" lon="9.674625"><ele>44.5</ele><time>2026-04-11T06:52:26.942Z</time></trkpt><trkpt lat="45.1188967" lon="9.6748917"><ele>45.0</ele><time>2026-04-11T06:52:27.942Z</time></trkpt><trkpt lat="45.1187133" lon="9.6751617"><ele>45.0</ele><time>2026-04-11T06:52:28.942Z</time></trkpt><trkpt lat="45.1185267" lon="9.67543"><ele>45.0</ele><time>2026-04-11T06:52:29.942Z</time></trkpt><trkpt lat="45.11834" lon="9.67569"><ele>44.0</ele><time>2026-04-11T06:52:30.942Z</time></trkpt><trkpt lat="45.118165" lon="9.6759517"><ele>43.0</ele><time>2026-04-11T06:52:31.942Z</time></trkpt><trkpt lat="45.11799" lon="9.6762017"><ele>45.0</ele><time>2026-04-11T06:52:32.942Z</time></trkpt><trkpt lat="45.1178117" lon="9.6764567"><ele>47.0</ele><time>2026-04-11T06:52:33.942Z</time></trkpt><trkpt lat="45.1176433" lon="9.6767233"><ele>45.5</ele><time>2026-04-11T06:52:34.942Z</time></trkpt><trkpt lat="45.117475" lon="9.6769833"><ele>44.0</ele><time>2026-04-11T06:52:35.942Z</time></trkpt><trkpt lat="45.117295" lon="9.6772533"><ele>44.0</ele><time>2026-04-11T06:52:36.942Z</time></trkpt><trkpt lat="45.11712" lon="9.6775183"><ele>44.0</ele><time>2026-04-11T06:52:37.942Z</time></trkpt><trkpt lat="45.116945" lon="9.6777833"><ele>44.0</ele><time>2026-04-11T06:52:38.942Z</time></trkpt><trkpt lat="45.11677" lon="9.678045"><ele>44.0</ele><time>2026-04-11T06:52:39.942Z</time></trkpt><trkpt lat="45.1165817" lon="9.6783033"><ele>44.5</ele><time>2026-04-11T06:52:40.942Z</time></trkpt><trkpt lat="45.1163917" lon="9.6785633"><ele>45.0</ele><time>2026-04-11T06:52:41.942Z</time></trkpt><trkpt lat="45.116195" lon="9.6788217"><ele>45.0</ele><time>2026-04-11T06:52:42.941Z</time></trkpt><trkpt lat="45.1159933" lon="9.6790833"><ele>45.0</ele><time>2026-04-11T06:52:43.942Z</time></trkpt><trkpt lat="45.1157983" lon="9.6793617"><ele>45.0</ele><time>2026-04-11T06:52:44.941Z</time></trkpt><trkpt lat="45.11561" lon="9.6796383"><ele>45.0</ele><time>2026-04-11T06:52:45.942Z</time></trkpt><trkpt lat="45.1154167" lon="9.6799167"><ele>45.0</ele><time>2026-04-11T06:52:46.942Z</time></trkpt><trkpt lat="45.11523" lon="9.6801967"><ele>45.0</ele><time>2026-04-11T06:52:47.941Z</time></trkpt><trkpt lat="45.115035" lon="9.6804717"><ele>44.0</ele><time>2026-04-11T06:52:48.942Z</time></trkpt><trkpt lat="45.11485" lon="9.6807467"><ele>43.0</ele><time>2026-04-11T06:52:49.942Z</time></trkpt><trkpt lat="45.1146633" lon="9.68103"><ele>43.0</ele><time>2026-04-11T06:52:50.942Z</time></trkpt><trkpt lat="45.11447" lon="9.681305"><ele>43.0</ele><time>2026-04-11T06:52:51.942Z</time></trkpt><trkpt lat="45.1142767" lon="9.681575"><ele>43.0</ele><time>2026-04-11T06:52:52.942Z</time></trkpt><trkpt lat="45.1140917" lon="9.6818517"><ele>43.0</ele><time>2026-04-11T06:52:53.942Z</time></trkpt><trkpt lat="45.1139017" lon="9.68212"><ele>43.5</ele><time>2026-04-11T06:52:54.942Z</time></trkpt><trkpt lat="45.1137233" lon="9.682395"><ele>44.0</ele><time>2026-04-11T06:52:55.942Z</time></trkpt><trkpt lat="45.113545" lon="9.6826483"><ele>43.5</ele><time>2026-04-11T06:52:56.942Z</time></trkpt><trkpt lat="45.1133483" lon="9.682915"><ele>43.0</ele><time>2026-04-11T06:52:57.942Z</time></trkpt><trkpt lat="45.113155" lon="9.6831983"><ele>43.0</ele><time>2026-04-11T06:52:58.942Z</time></trkpt><trkpt lat="45.1129517" lon="9.6834883"><ele>43.0</ele><time>2026-04-11T06:52:59.942Z</time></trkpt><trkpt lat="45.112755" lon="9.6837733"><ele>44.0</ele><time>2026-04-11T06:53:00.942Z</time></trkpt><trkpt lat="45.1125633" lon="9.6840383"><ele>45.0</ele><time>2026-04-11T06:53:01.942Z</time></trkpt><trkpt lat="45.1123617" lon="9.684325"><ele>45.5</ele><time>2026-04-11T06:53:02.942Z</time></trkpt><trkpt lat="45.112165" lon="9.68462"><ele>46.0</ele><time>2026-04-11T06:53:03.941Z</time></trkpt><trkpt lat="45.1119733" lon="9.6848933"><ele>46.0</ele><time>2026-04-11T06:53:04.942Z</time></trkpt><trkpt lat="45.11177" lon="9.6851667"><ele>46.0</ele><time>2026-04-11T06:53:05.942Z</time></trkpt><trkpt lat="45.1115667" lon="9.6854317"><ele>47.0</ele><time>2026-04-11T06:53:06.942Z</time></trkpt><trkpt lat="45.1113633" lon="9.6856883"><ele>48.0</ele><time>2026-04-11T06:53:07.942Z</time></trkpt><trkpt lat="45.11116" lon="9.6859633"><ele>47.5</ele><time>2026-04-11T06:53:08.942Z</time></trkpt><trkpt lat="45.11096" lon="9.68623"><ele>47.0</ele><time>2026-04-11T06:53:09.942Z</time></trkpt><trkpt lat="45.1107617" lon="9.6864867"><ele>47.0</ele><time>2026-04-11T06:53:10.942Z</time></trkpt><trkpt lat="45.1105567" lon="9.6867333"><ele>47.0</ele><time>2026-04-11T06:53:11.942Z</time></trkpt><trkpt lat="45.1103483" lon="9.6869883"><ele>47.0</ele><time>2026-04-11T06:53:12.941Z</time></trkpt><trkpt lat="45.11014" lon="9.687235"><ele>47.0</ele><time>2026-04-11T06:53:13.941Z</time></trkpt><trkpt lat="45.1099317" lon="9.687495"><ele>46.5</ele><time>2026-04-11T06:53:14.942Z</time></trkpt><trkpt lat="45.1097267" lon="9.6877717"><ele>46.0</ele><time>2026-04-11T06:53:15.942Z</time></trkpt><trkpt lat="45.1095067" lon="9.68804"><ele>46.0</ele><time>2026-04-11T06:53:16.942Z</time></trkpt><trkpt lat="45.1092867" lon="9.6882967"><ele>46.0</ele><time>2026-04-11T06:53:17.942Z</time></trkpt><trkpt lat="45.1090633" lon="9.6885317"><ele>47.0</ele><time>2026-04-11T06:53:18.942Z</time></trkpt><trkpt lat="45.1088383" lon="9.68877"><ele>48.0</ele><time>2026-04-11T06:53:19.942Z</time></trkpt><trkpt lat="45.1086167" lon="9.68902"><ele>48.0</ele><time>2026-04-11T06:53:20.942Z</time></trkpt><trkpt lat="45.1083967" lon="9.6892717"><ele>48.0</ele><time>2026-04-11T06:53:21.942Z</time></trkpt><trkpt lat="45.1081683" lon="9.689505"><ele>47.5</ele><time>2026-04-11T06:53:22.942Z</time></trkpt><trkpt lat="45.107945" lon="9.6897633"><ele>47.0</ele><time>2026-04-11T06:53:23.942Z</time></trkpt><trkpt lat="45.10772" lon="9.6900233"><ele>47.0</ele><time>2026-04-11T06:53:24.941Z</time></trkpt><trkpt lat="45.1074917" lon="9.6902567"><ele>47.0</ele><time>2026-04-11T06:53:25.942Z</time></trkpt><trkpt lat="45.1072667" lon="9.6905033"><ele>46.5</ele><time>2026-04-11T06:53:26.941Z</time></trkpt><trkpt lat="45.1070383" lon="9.6907583"><ele>46.0</ele><time>2026-04-11T06:53:27.942Z</time></trkpt><trkpt lat="45.1068117" lon="9.6910017"><ele>47.0</ele><time>2026-04-11T06:53:28.942Z</time></trkpt><trkpt lat="45.1065817" lon="9.6912417"><ele>48.0</ele><time>2026-04-11T06:53:29.942Z</time></trkpt><trkpt lat="45.106355" lon="9.691475"><ele>48.0</ele><time>2026-04-11T06:53:30.942Z</time></trkpt><trkpt lat="45.1061267" lon="9.6917183"><ele>48.0</ele><time>2026-04-11T06:53:31.942Z</time></trkpt><trkpt lat="45.1059" lon="9.691965"><ele>46.5</ele><time>2026-04-11T06:53:32.942Z</time></trkpt><trkpt lat="45.105675" lon="9.692205"><ele>45.0</ele><time>2026-04-11T06:53:33.942Z</time></trkpt><trkpt lat="45.1054533" lon="9.6924583"><ele>45.0</ele><time>2026-04-11T06:53:34.942Z</time></trkpt><trkpt lat="45.1052283" lon="9.692705"><ele>45.0</ele><time>2026-04-11T06:53:35.942Z</time></trkpt><trkpt lat="45.1050017" lon="9.6929433"><ele>45.0</ele><time>2026-04-11T06:53:36.942Z</time></trkpt><trkpt lat="45.1047767" lon="9.6931833"><ele>45.0</ele><time>2026-04-11T06:53:37.942Z</time></trkpt><trkpt lat="45.104555" lon="9.6934167"><ele>45.5</ele><time>2026-04-11T06:53:38.941Z</time></trkpt><trkpt lat="45.1043317" lon="9.69365"><ele>46.0</ele><time>2026-04-11T06:53:39.941Z</time></trkpt><trkpt lat="45.10411" lon="9.6938967"><ele>46.0</ele><time>2026-04-11T06:53:40.942Z</time></trkpt><trkpt lat="45.1038833" lon="9.694135"><ele>46.0</ele><time>2026-04-11T06:53:41.941Z</time></trkpt><trkpt lat="45.1036617" lon="9.6943767"><ele>45.5</ele><time>2026-04-11T06:53:42.942Z</time></trkpt><trkpt lat="45.103435" lon="9.6946183"><ele>45.0</ele><time>2026-04-11T06:53:43.942Z</time></trkpt><trkpt lat="45.1032083" lon="9.69486"><ele>45.0</ele><time>2026-04-11T06:53:44.942Z</time></trkpt><trkpt lat="45.1029917" lon="9.6951017"><ele>45.0</ele><time>2026-04-11T06:53:45.942Z</time></trkpt><trkpt lat="45.1027733" lon="9.6953367"><ele>45.0</ele><time>2026-04-11T06:53:46.942Z</time></trkpt><trkpt lat="45.1025467" lon="9.6955683"><ele>45.0</ele><time>2026-04-11T06:53:47.942Z</time></trkpt><trkpt lat="45.1023217" lon="9.69581"><ele>45.0</ele><time>2026-04-11T06:53:48.942Z</time></trkpt><trkpt lat="45.1020967" lon="9.6960467"><ele>45.0</ele><time>2026-04-11T06:53:49.942Z</time></trkpt><trkpt lat="45.1018717" lon="9.6962967"><ele>44.5</ele><time>2026-04-11T06:53:50.942Z</time></trkpt><trkpt lat="45.10165" lon="9.69654"><ele>44.0</ele><time>2026-04-11T06:53:51.942Z</time></trkpt><trkpt lat="45.1014267" lon="9.6967733"><ele>45.0</ele><time>2026-04-11T06:53:52.942Z</time></trkpt><trkpt lat="45.101205" lon="9.6970167"><ele>46.0</ele><time>2026-04-11T06:53:53.942Z</time></trkpt><trkpt lat="45.100985" lon="9.697245"><ele>46.0</ele><time>2026-04-11T06:53:54.942Z</time></trkpt><trkpt lat="45.100765" lon="9.697485"><ele>46.0</ele><time>2026-04-11T06:53:55.942Z</time></trkpt><trkpt lat="45.1005417" lon="9.6977267"><ele>47.0</ele><time>2026-04-11T06:53:56.941Z</time></trkpt><trkpt lat="45.1003267" lon="9.6979683"><ele>48.0</ele><time>2026-04-11T06:53:57.942Z</time></trkpt><trkpt lat="45.1001" lon="9.698205"><ele>46.5</ele><time>2026-04-11T06:53:58.942Z</time></trkpt><trkpt lat="45.0998833" lon="9.6984317"><ele>45.0</ele><time>2026-04-11T06:53:59.942Z</time></trkpt><trkpt lat="45.099665" lon="9.69867"><ele>45.0</ele><time>2026-04-11T06:54:00.942Z</time></trkpt><trkpt lat="45.09944" lon="9.6989167"><ele>45.0</ele><time>2026-04-11T06:54:01.942Z</time></trkpt><trkpt lat="45.0992183" lon="9.69916"><ele>44.0</ele><time>2026-04-11T06:54:02.942Z</time></trkpt><trkpt lat="45.099" lon="9.6993933"><ele>43.0</ele><time>2026-04-11T06:54:03.942Z</time></trkpt><trkpt lat="45.098775" lon="9.69963"><ele>43.0</ele><time>2026-04-11T06:54:04.942Z</time></trkpt><trkpt lat="45.0985583" lon="9.69986"><ele>43.0</ele><time>2026-04-11T06:54:05.942Z</time></trkpt><trkpt lat="45.0983317" lon="9.7001017"><ele>43.0</ele><time>2026-04-11T06:54:06.942Z</time></trkpt><trkpt lat="45.098105" lon="9.700345"><ele>43.0</ele><time>2026-04-11T06:54:07.942Z</time></trkpt><trkpt lat="45.097885" lon="9.7005767"><ele>43.0</ele><time>2026-04-11T06:54:08.942Z</time></trkpt><trkpt lat="45.09766" lon="9.700805"><ele>43.0</ele><time>2026-04-11T06:54:09.942Z</time></trkpt><trkpt lat="45.0974367" lon="9.70103"><ele>44.0</ele><time>2026-04-11T06:54:10.942Z</time></trkpt><trkpt lat="45.097215" lon="9.701265"><ele>45.0</ele><time>2026-04-11T06:54:11.942Z</time></trkpt><trkpt lat="45.097005" lon="9.7014967"><ele>45.0</ele><time>2026-04-11T06:54:12.942Z</time></trkpt><trkpt lat="45.09679" lon="9.70173"><ele>45.0</ele><time>2026-04-11T06:54:13.942Z</time></trkpt><trkpt lat="45.0965817" lon="9.7019533"><ele>44.5</ele><time>2026-04-11T06:54:14.942Z</time></trkpt><trkpt lat="45.09636" lon="9.702185"><ele>44.0</ele><time>2026-04-11T06:54:15.942Z</time></trkpt><trkpt lat="45.0961633" lon="9.7024017"><ele>44.0</ele><time>2026-04-11T06:54:16.942Z</time></trkpt><trkpt lat="45.09595" lon="9.70262"><ele>44.0</ele><time>2026-04-11T06:54:17.942Z</time></trkpt><trkpt lat="45.0957367" lon="9.7028417"><ele>44.0</ele><time>2026-04-11T06:54:18.942Z</time></trkpt><trkpt lat="45.09553" lon="9.70307"><ele>44.0</ele><time>2026-04-11T06:54:19.942Z</time></trkpt><trkpt lat="45.095325" lon="9.7032967"><ele>44.0</ele><time>2026-04-11T06:54:20.942Z</time></trkpt><trkpt lat="45.095125" lon="9.7035033"><ele>44.0</ele><time>2026-04-11T06:54:21.942Z</time></trkpt><trkpt lat="45.0949167" lon="9.7037483"><ele>45.0</ele><time>2026-04-11T06:54:22.942Z</time></trkpt><trkpt lat="45.0947183" lon="9.7039767"><ele>46.0</ele><time>2026-04-11T06:54:23.942Z</time></trkpt><trkpt lat="45.094535" lon="9.70417"><ele>46.0</ele><time>2026-04-11T06:54:24.942Z</time></trkpt><trkpt lat="45.0943617" lon="9.704345"><ele>46.0</ele><time>2026-04-11T06:54:25.942Z</time></trkpt><trkpt lat="45.09419" lon="9.70451"><ele>46.0</ele><time>2026-04-11T06:54:26.941Z</time></trkpt><trkpt lat="45.09404" lon="9.7046633"><ele>45.0</ele><time>2026-04-11T06:54:27.942Z</time></trkpt><trkpt lat="45.093895" lon="9.7048317"><ele>44.0</ele><time>2026-04-11T06:54:28.942Z</time></trkpt><trkpt lat="45.0937467" lon="9.7049883"><ele>43.0</ele><time>2026-04-11T06:54:29.941Z</time></trkpt><trkpt lat="45.0935933" lon="9.7051467"><ele>43.333333333333336</ele><time>2026-04-11T06:54:30.941Z</time></trkpt><trkpt lat="45.093445" lon="9.705315"><ele>43.666666666666664</ele><time>2026-04-11T06:54:31.942Z</time></trkpt><trkpt lat="45.0932817" lon="9.7054733"><ele>44.0</ele><time>2026-04-11T06:54:32.941Z</time></trkpt><trkpt lat="45.09312" lon="9.7056433"><ele>44.0</ele><time>2026-04-11T06:54:33.941Z</time></trkpt><trkpt lat="45.0929567" lon="9.70581"><ele>44.0</ele><time>2026-04-11T06:54:34.942Z</time></trkpt><trkpt lat="45.092795" lon="9.7059867"><ele>44.0</ele><time>2026-04-11T06:54:35.942Z</time></trkpt><trkpt lat="45.092635" lon="9.7061683"><ele>44.0</ele><time>2026-04-11T06:54:36.942Z</time></trkpt><trkpt lat="45.09247" lon="9.7063533"><ele>44.0</ele><time>2026-04-11T06:54:37.942Z</time></trkpt><trkpt lat="45.0923017" lon="9.70654"><ele>44.0</ele><time>2026-04-11T06:54:38.942Z</time></trkpt><trkpt lat="45.092135" lon="9.7067233"><ele>44.666666666666664</ele><time>2026-04-11T06:54:39.942Z</time></trkpt><trkpt lat="45.09197" lon="9.7069017"><ele>45.333333333333336</ele><time>2026-04-11T06:54:40.942Z</time></trkpt><trkpt lat="45.09181" lon="9.7070733"><ele>46.0</ele><time>2026-04-11T06:54:41.942Z</time></trkpt><trkpt lat="45.0916333" lon="9.707245"><ele>46.0</ele><time>2026-04-11T06:54:42.941Z</time></trkpt><trkpt lat="45.09146" lon="9.70745"><ele>46.0</ele><time>2026-04-11T06:54:43.942Z</time></trkpt><trkpt lat="45.09129" lon="9.707615"><ele>46.0</ele><time>2026-04-11T06:54:44.942Z</time></trkpt><trkpt lat="45.0911233" lon="9.7078133"><ele>44.5</ele><time>2026-04-11T06:54:45.942Z</time></trkpt><trkpt lat="45.0909433" lon="9.7080183"><ele>43.0</ele><time>2026-04-11T06:54:46.942Z</time></trkpt><trkpt lat="45.09076" lon="9.7082067"><ele>43.0</ele><time>2026-04-11T06:54:47.941Z</time></trkpt><trkpt lat="45.0905733" lon="9.70838"><ele>43.0</ele><time>2026-04-11T06:54:48.942Z</time></trkpt><trkpt lat="45.0904333" lon="9.708525"><ele>43.0</ele><time>2026-04-11T06:54:49.941Z</time></trkpt><trkpt lat="45.0902317" lon="9.7087617"><ele>42.66666666666667</ele><time>2026-04-11T06:54:50.942Z</time></trkpt><trkpt lat="45.090065" lon="9.7089583"><ele>42.333333333333336</ele><time>2026-04-11T06:54:51.942Z</time></trkpt><trkpt lat="45.08988" lon="9.7091567"><ele>42.0</ele><time>2026-04-11T06:54:52.942Z</time></trkpt><trkpt lat="45.0896917" lon="9.7093517"><ele>43.0</ele><time>2026-04-11T06:54:53.942Z</time></trkpt><trkpt lat="45.0895067" lon="9.7095483"><ele>44.0</ele><time>2026-04-11T06:54:54.942Z</time></trkpt><trkpt lat="45.0893417" lon="9.7097333"><ele>45.0</ele><time>2026-04-11T06:54:55.942Z</time></trkpt><trkpt lat="45.0891783" lon="9.70993"><ele>45.5</ele><time>2026-04-11T06:54:56.942Z</time></trkpt><trkpt lat="45.0890017" lon="9.71012"><ele>46.0</ele><time>2026-04-11T06:54:57.942Z</time></trkpt><trkpt lat="45.0888217" lon="9.71032"><ele>46.0</ele><time>2026-04-11T06:54:58.942Z</time></trkpt><trkpt lat="45.08864" lon="9.7105317"><ele>46.0</ele><time>2026-04-11T06:54:59.942Z</time></trkpt><trkpt lat="45.08845" lon="9.710755"><ele>46.0</ele><time>2026-04-11T06:55:00.942Z</time></trkpt><trkpt lat="45.0882617" lon="9.710965"><ele>46.0</ele><time>2026-04-11T06:55:01.942Z</time></trkpt><trkpt lat="45.08806" lon="9.7111833"><ele>46.0</ele><time>2026-04-11T06:55:02.942Z</time></trkpt><trkpt lat="45.0878567" lon="9.7114083"><ele>46.0</ele><time>2026-04-11T06:55:03.942Z</time></trkpt><trkpt lat="45.0876517" lon="9.7116317"><ele>46.0</ele><time>2026-04-11T06:55:04.942Z</time></trkpt><trkpt lat="45.08744" lon="9.711855"><ele>46.0</ele><time>2026-04-11T06:55:05.942Z</time></trkpt><trkpt lat="45.08723" lon="9.7120667"><ele>46.0</ele><time>2026-04-11T06:55:06.942Z</time></trkpt><trkpt lat="45.087025" lon="9.7122933"><ele>46.0</ele><time>2026-04-11T06:55:07.942Z</time></trkpt><trkpt lat="45.0868217" lon="9.7125133"><ele>46.0</ele><time>2026-04-11T06:55:08.942Z</time></trkpt><trkpt lat="45.08662" lon="9.7127333"><ele>46.0</ele><time>2026-04-11T06:55:09.942Z</time></trkpt><trkpt lat="45.0864183" lon="9.7129517"><ele>46.5</ele><time>2026-04-11T06:55:10.942Z</time></trkpt><trkpt lat="45.0862167" lon="9.7131667"><ele>47.0</ele><time>2026-04-11T06:55:11.942Z</time></trkpt><trkpt lat="45.0860133" lon="9.7133933"><ele>47.0</ele><time>2026-04-11T06:55:12.942Z</time></trkpt><trkpt lat="45.0858033" lon="9.7136117"><ele>47.0</ele><time>2026-04-11T06:55:13.942Z</time></trkpt><trkpt lat="45.085595" lon="9.71384"><ele>47.0</ele><time>2026-04-11T06:55:14.941Z</time></trkpt><trkpt lat="45.085385" lon="9.7140617"><ele>47.0</ele><time>2026-04-11T06:55:15.942Z</time></trkpt><trkpt lat="45.0851833" lon="9.714275"><ele>47.0</ele><time>2026-04-11T06:55:16.942Z</time></trkpt><trkpt lat="45.0849833" lon="9.714495"><ele>47.0</ele><time>2026-04-11T06:55:17.942Z</time></trkpt><trkpt lat="45.08477" lon="9.7147133"><ele>47.0</ele><time>2026-04-11T06:55:18.942Z</time></trkpt><trkpt lat="45.0845567" lon="9.71494"><ele>47.0</ele><time>2026-04-11T06:55:19.942Z</time></trkpt><trkpt lat="45.084355" lon="9.71516"><ele>47.5</ele><time>2026-04-11T06:55:20.942Z</time></trkpt><trkpt lat="45.0841467" lon="9.715375"><ele>48.0</ele><time>2026-04-11T06:55:21.942Z</time></trkpt><trkpt lat="45.0839533" lon="9.7155967"><ele>48.0</ele><time>2026-04-11T06:55:22.942Z</time></trkpt><trkpt lat="45.08375" lon="9.7158167"><ele>48.0</ele><time>2026-04-11T06:55:23.942Z</time></trkpt><trkpt lat="45.08355" lon="9.71605"><ele>48.5</ele><time>2026-04-11T06:55:24.942Z</time></trkpt><trkpt lat="45.083345" lon="9.7162733"><ele>49.0</ele><time>2026-04-11T06:55:25.942Z</time></trkpt><trkpt lat="45.0831433" lon="9.7164883"><ele>49.0</ele><time>2026-04-11T06:55:26.941Z</time></trkpt><trkpt lat="45.0829417" lon="9.71671"><ele>49.0</ele><time>2026-04-11T06:55:27.942Z</time></trkpt><trkpt lat="45.08274" lon="9.7169217"><ele>49.0</ele><time>2026-04-11T06:55:28.942Z</time></trkpt><trkpt lat="45.0825433" lon="9.7171267"><ele>49.0</ele><time>2026-04-11T06:55:29.942Z</time></trkpt><trkpt lat="45.0823433" lon="9.7173383"><ele>49.0</ele><time>2026-04-11T06:55:30.942Z</time></trkpt><trkpt lat="45.08214" lon="9.71756"><ele>49.0</ele><time>2026-04-11T06:55:31.942Z</time></trkpt><trkpt lat="45.081935" lon="9.71778"><ele>49.0</ele><time>2026-04-11T06:55:32.942Z</time></trkpt><trkpt lat="45.0817283" lon="9.7180083"><ele>49.0</ele><time>2026-04-11T06:55:33.942Z</time></trkpt><trkpt lat="45.0815217" lon="9.7182333"><ele>48.0</ele><time>2026-04-11T06:55:34.942Z</time></trkpt><trkpt lat="45.0813133" lon="9.7184533"><ele>47.0</ele><time>2026-04-11T06:55:35.941Z</time></trkpt><trkpt lat="45.0811067" lon="9.718675"><ele>47.0</ele><time>2026-04-11T06:55:36.942Z</time></trkpt><trkpt lat="45.08091" lon="9.71888"><ele>47.0</ele><time>2026-04-11T06:55:37.942Z</time></trkpt><trkpt lat="45.0807233" lon="9.7190783"><ele>47.0</ele><time>2026-04-11T06:55:38.942Z</time></trkpt><trkpt lat="45.08054" lon="9.719285"><ele>47.0</ele><time>2026-04-11T06:55:39.942Z</time></trkpt><trkpt lat="45.0803533" lon="9.7194817"><ele>47.0</ele><time>2026-04-11T06:55:40.942Z</time></trkpt><trkpt lat="45.0801683" lon="9.7196767"><ele>47.0</ele><time>2026-04-11T06:55:41.942Z</time></trkpt><trkpt lat="45.0799783" lon="9.719875"><ele>46.5</ele><time>2026-04-11T06:55:42.942Z</time></trkpt><trkpt lat="45.0797833" lon="9.7200733"><ele>46.0</ele><time>2026-04-11T06:55:43.942Z</time></trkpt><trkpt lat="45.079585" lon="9.7202683"><ele>47.0</ele><time>2026-04-11T06:55:44.942Z</time></trkpt><trkpt lat="45.0793817" lon="9.7204717"><ele>48.0</ele><time>2026-04-11T06:55:45.942Z</time></trkpt><trkpt lat="45.079185" lon="9.720675"><ele>47.5</ele><time>2026-04-11T06:55:46.942Z</time></trkpt><trkpt lat="45.07899" lon="9.72088"><ele>47.0</ele><time>2026-04-11T06:55:47.942Z</time></trkpt><trkpt lat="45.0787967" lon="9.721075"><ele>47.0</ele><time>2026-04-11T06:55:48.942Z</time></trkpt><trkpt lat="45.0786067" lon="9.7212733"><ele>47.0</ele><time>2026-04-11T06:55:49.942Z</time></trkpt><trkpt lat="45.0784167" lon="9.7214683"><ele>46.0</ele><time>2026-04-11T06:55:50.942Z</time></trkpt><trkpt lat="45.0782267" lon="9.72167"><ele>45.0</ele><time>2026-04-11T06:55:51.941Z</time></trkpt><trkpt lat="45.078035" lon="9.721875"><ele>46.0</ele><time>2026-04-11T06:55:52.942Z</time></trkpt><trkpt lat="45.077845" lon="9.7220833"><ele>47.0</ele><time>2026-04-11T06:55:53.942Z</time></trkpt><trkpt lat="45.0776517" lon="9.722295"><ele>47.0</ele><time>2026-04-11T06:55:54.942Z</time></trkpt><trkpt lat="45.0774467" lon="9.7225083"><ele>47.0</ele><time>2026-04-11T06:55:55.942Z</time></trkpt><trkpt lat="45.0772433" lon="9.7227117"><ele>46.5</ele><time>2026-04-11T06:55:56.942Z</time></trkpt><trkpt lat="45.0770317" lon="9.72292"><ele>46.0</ele><time>2026-04-11T06:55:57.942Z</time></trkpt><trkpt lat="45.07682" lon="9.723125"><ele>46.0</ele><time>2026-04-11T06:55:58.942Z</time></trkpt><trkpt lat="45.0766167" lon="9.7233317"><ele>46.0</ele><time>2026-04-11T06:55:59.942Z</time></trkpt><trkpt lat="45.07641" lon="9.7235417"><ele>46.5</ele><time>2026-04-11T06:56:00.942Z</time></trkpt><trkpt lat="45.0762" lon="9.72375"><ele>47.0</ele><time>2026-04-11T06:56:01.942Z</time></trkpt><trkpt lat="45.0759917" lon="9.723955"><ele>47.0</ele><time>2026-04-11T06:56:02.942Z</time></trkpt><trkpt lat="45.0757767" lon="9.7241517"><ele>47.0</ele><time>2026-04-11T06:56:03.942Z</time></trkpt><trkpt lat="45.0755417" lon="9.7243683"><ele>47.5</ele><time>2026-04-11T06:56:04.942Z</time></trkpt><trkpt lat="45.0752917" lon="9.7246"><ele>48.0</ele><time>2026-04-11T06:56:05.942Z</time></trkpt><trkpt lat="45.075045" lon="9.7248317"><ele>48.5</ele><time>2026-04-11T06:56:06.942Z</time></trkpt><trkpt lat="45.074805" lon="9.7250617"><ele>49.0</ele><time>2026-04-11T06:56:07.942Z</time></trkpt><trkpt lat="45.0745633" lon="9.7253"><ele>49.0</ele><time>2026-04-11T06:56:08.942Z</time></trkpt><trkpt lat="45.0743233" lon="9.7255367"><ele>49.0</ele><time>2026-04-11T06:56:09.941Z</time></trkpt><trkpt lat="45.0740917" lon="9.7257583"><ele>48.0</ele><time>2026-04-11T06:56:10.942Z</time></trkpt><trkpt lat="45.0738617" lon="9.7259867"><ele>47.0</ele><time>2026-04-11T06:56:11.942Z</time></trkpt><trkpt lat="45.0736333" lon="9.72622"><ele>47.0</ele><time>2026-04-11T06:56:12.942Z</time></trkpt><trkpt lat="45.073405" lon="9.7264633"><ele>47.0</ele><time>2026-04-11T06:56:13.942Z</time></trkpt><trkpt lat="45.0731817" lon="9.7267017"><ele>48.0</ele><time>2026-04-11T06:56:14.942Z</time></trkpt><trkpt lat="45.0729583" lon="9.726935"><ele>49.0</ele><time>2026-04-11T06:56:15.942Z</time></trkpt><trkpt lat="45.0727367" lon="9.7271633"><ele>49.0</ele><time>2026-04-11T06:56:16.942Z</time></trkpt><trkpt lat="45.0725183" lon="9.7273933"><ele>49.0</ele><time>2026-04-11T06:56:17.941Z</time></trkpt><trkpt lat="45.0723017" lon="9.7276233"><ele>49.5</ele><time>2026-04-11T06:56:18.942Z</time></trkpt><trkpt lat="45.0720867" lon="9.7278533"><ele>50.0</ele><time>2026-04-11T06:56:19.942Z</time></trkpt><trkpt lat="45.0718617" lon="9.7280783"><ele>50.0</ele><time>2026-04-11T06:56:20.942Z</time></trkpt><trkpt lat="45.0716383" lon="9.7283033"><ele>50.0</ele><time>2026-04-11T06:56:21.942Z</time></trkpt><trkpt lat="45.0714233" lon="9.7285267"><ele>49.5</ele><time>2026-04-11T06:56:22.942Z</time></trkpt><trkpt lat="45.0712083" lon="9.72875"><ele>49.0</ele><time>2026-04-11T06:56:23.942Z</time></trkpt><trkpt lat="45.070985" lon="9.728975"><ele>48.0</ele><time>2026-04-11T06:56:24.942Z</time></trkpt><trkpt lat="45.0707567" lon="9.729195"><ele>47.0</ele><time>2026-04-11T06:56:25.942Z</time></trkpt><trkpt lat="45.0705283" lon="9.729405"><ele>47.0</ele><time>2026-04-11T06:56:26.942Z</time></trkpt><trkpt lat="45.070305" lon="9.7296317"><ele>47.0</ele><time>2026-04-11T06:56:27.942Z</time></trkpt><trkpt lat="45.0700867" lon="9.7298583"><ele>46.5</ele><time>2026-04-11T06:56:28.942Z</time></trkpt><trkpt lat="45.069865" lon="9.7300783"><ele>46.0</ele><time>2026-04-11T06:56:29.942Z</time></trkpt><trkpt lat="45.06964" lon="9.7302967"><ele>47.0</ele><time>2026-04-11T06:56:30.942Z</time></trkpt><trkpt lat="45.0694083" lon="9.7305167"><ele>48.0</ele><time>2026-04-11T06:56:31.942Z</time></trkpt><trkpt lat="45.069185" lon="9.7307433"><ele>48.0</ele><time>2026-04-11T06:56:32.942Z</time></trkpt><trkpt lat="45.0689633" lon="9.7309817"><ele>48.0</ele><time>2026-04-11T06:56:33.942Z</time></trkpt><trkpt lat="45.0687333" lon="9.7312017"><ele>48.0</ele><time>2026-04-11T06:56:34.942Z</time></trkpt><trkpt lat="45.0685117" lon="9.7314267"><ele>48.0</ele><time>2026-04-11T06:56:35.942Z</time></trkpt><trkpt lat="45.0682767" lon="9.7316633"><ele>46.5</ele><time>2026-04-11T06:56:36.942Z</time></trkpt><trkpt lat="45.068045" lon="9.7318867"><ele>45.0</ele><time>2026-04-11T06:56:37.942Z</time></trkpt><trkpt lat="45.067815" lon="9.7321067"><ele>45.0</ele><time>2026-04-11T06:56:38.941Z</time></trkpt><trkpt lat="45.0675883" lon="9.732325"><ele>45.0</ele><time>2026-04-11T06:56:39.942Z</time></trkpt><trkpt lat="45.0673733" lon="9.73254"><ele>44.0</ele><time>2026-04-11T06:56:40.942Z</time></trkpt><trkpt lat="45.06715" lon="9.7327683"><ele>43.0</ele><time>2026-04-11T06:56:41.942Z</time></trkpt><trkpt lat="45.066925" lon="9.7329917"><ele>43.0</ele><time>2026-04-11T06:56:42.942Z</time></trkpt><trkpt lat="45.0667" lon="9.7332"><ele>43.0</ele><time>2026-04-11T06:56:43.942Z</time></trkpt><trkpt lat="45.066485" lon="9.7334267"><ele>42.0</ele><time>2026-04-11T06:56:44.942Z</time></trkpt><trkpt lat="45.0662517" lon="9.73365"><ele>41.0</ele><time>2026-04-11T06:56:45.942Z</time></trkpt><trkpt lat="45.06604" lon="9.73388"><ele>41.0</ele><time>2026-04-11T06:56:46.942Z</time></trkpt><trkpt lat="45.065815" lon="9.7340983"><ele>41.0</ele><time>2026-04-11T06:56:47.942Z</time></trkpt><trkpt lat="45.065585" lon="9.7343117"><ele>41.0</ele><time>2026-04-11T06:56:48.942Z</time></trkpt><trkpt lat="45.065365" lon="9.7345233"><ele>41.0</ele><time>2026-04-11T06:56:49.941Z</time></trkpt><trkpt lat="45.06515" lon="9.73475"><ele>44.0</ele><time>2026-04-11T06:56:50.942Z</time></trkpt><trkpt lat="45.064935" lon="9.7349583"><ele>47.0</ele><time>2026-04-11T06:56:51.941Z</time></trkpt><trkpt lat="45.06471" lon="9.7351783"><ele>47.5</ele><time>2026-04-11T06:56:52.942Z</time></trkpt><trkpt lat="45.0645033" lon="9.735375"><ele>48.0</ele><time>2026-04-11T06:56:53.942Z</time></trkpt><trkpt lat="45.0643" lon="9.7355517"><ele>48.0</ele><time>2026-04-11T06:56:54.942Z</time></trkpt><trkpt lat="45.0641333" lon="9.7357267"><ele>48.0</ele><time>2026-04-11T06:56:55.942Z</time></trkpt><trkpt lat="45.0639467" lon="9.7359117"><ele>48.0</ele><time>2026-04-11T06:56:56.942Z</time></trkpt><trkpt lat="45.0637567" lon="9.7361133"><ele>48.5</ele><time>2026-04-11T06:56:57.942Z</time></trkpt><trkpt lat="45.0635633" lon="9.736305"><ele>49.0</ele><time>2026-04-11T06:56:58.942Z</time></trkpt><trkpt lat="45.0633917" lon="9.7365283"><ele>48.0</ele><time>2026-04-11T06:56:59.942Z</time></trkpt><trkpt lat="45.063185" lon="9.7367067"><ele>47.0</ele><time>2026-04-11T06:57:00.942Z</time></trkpt><trkpt lat="45.0629983" lon="9.7368983"><ele>49.5</ele><time>2026-04-11T06:57:01.942Z</time></trkpt><trkpt lat="45.0628" lon="9.7371067"><ele>52.0</ele><time>2026-04-11T06:57:02.942Z</time></trkpt><trkpt lat="45.0625983" lon="9.737325"><ele>53.5</ele><time>2026-04-11T06:57:03.942Z</time></trkpt><trkpt lat="45.0623733" lon="9.7375433"><ele>55.0</ele><time>2026-04-11T06:57:04.942Z</time></trkpt><trkpt lat="45.062155" lon="9.7377617"><ele>55.0</ele><time>2026-04-11T06:57:05.942Z</time></trkpt><trkpt lat="45.06192" lon="9.7379917"><ele>55.0</ele><time>2026-04-11T06:57:06.942Z</time></trkpt><trkpt lat="45.061685" lon="9.738205"><ele>53.5</ele><time>2026-04-11T06:57:07.942Z</time></trkpt><trkpt lat="45.0614433" lon="9.7384317"><ele>52.0</ele><time>2026-04-11T06:57:08.942Z</time></trkpt><trkpt lat="45.0612117" lon="9.738655"><ele>52.0</ele><time>2026-04-11T06:57:09.941Z</time></trkpt><trkpt lat="45.0609767" lon="9.7388683"><ele>52.0</ele><time>2026-04-11T06:57:10.942Z</time></trkpt><trkpt lat="45.0607533" lon="9.739075"><ele>49.5</ele><time>2026-04-11T06:57:11.942Z</time></trkpt><trkpt lat="45.0605233" lon="9.7392883"><ele>47.0</ele><time>2026-04-11T06:57:12.942Z</time></trkpt><trkpt lat="45.0602933" lon="9.739505"><ele>47.0</ele><time>2026-04-11T06:57:13.942Z</time></trkpt><trkpt lat="45.0600633" lon="9.7397233"><ele>47.0</ele><time>2026-04-11T06:57:14.942Z</time></trkpt><trkpt lat="45.0598433" lon="9.7399267"><ele>46.5</ele><time>2026-04-11T06:57:15.942Z</time></trkpt><trkpt lat="45.05962" lon="9.7401283"><ele>46.0</ele><time>2026-04-11T06:57:16.942Z</time></trkpt><trkpt lat="45.0593867" lon="9.740335"><ele>46.0</ele><time>2026-04-11T06:57:17.942Z</time></trkpt><trkpt lat="45.0591783" lon="9.7405367"><ele>46.0</ele><time>2026-04-11T06:57:18.942Z</time></trkpt><trkpt lat="45.0589333" lon="9.74076"><ele>46.0</ele><time>2026-04-11T06:57:19.941Z</time></trkpt><trkpt lat="45.0587167" lon="9.7409767"><ele>46.0</ele><time>2026-04-11T06:57:20.942Z</time></trkpt><trkpt lat="45.0584933" lon="9.7411917"><ele>45.5</ele><time>2026-04-11T06:57:21.942Z</time></trkpt><trkpt lat="45.05827" lon="9.7414083"><ele>45.0</ele><time>2026-04-11T06:57:22.941Z</time></trkpt><trkpt lat="45.05805" lon="9.7416333"><ele>45.0</ele><time>2026-04-11T06:57:23.942Z</time></trkpt><trkpt lat="45.0578283" lon="9.7418467"><ele>45.0</ele><time>2026-04-11T06:57:24.942Z</time></trkpt><trkpt lat="45.05761" lon="9.7420617"><ele>44.5</ele><time>2026-04-11T06:57:25.942Z</time></trkpt><trkpt lat="45.0573833" lon="9.7422767"><ele>44.0</ele><time>2026-04-11T06:57:26.942Z</time></trkpt><trkpt lat="45.0571667" lon="9.74251"><ele>44.0</ele><time>2026-04-11T06:57:27.942Z</time></trkpt><trkpt lat="45.05697" lon="9.7427083"><ele>44.0</ele><time>2026-04-11T06:57:28.942Z</time></trkpt><trkpt lat="45.0567433" lon="9.7429333"><ele>44.0</ele><time>2026-04-11T06:57:29.942Z</time></trkpt><trkpt lat="45.0565067" lon="9.7431633"><ele>44.0</ele><time>2026-04-11T06:57:30.942Z</time></trkpt><trkpt lat="45.0562783" lon="9.7433883"><ele>45.0</ele><time>2026-04-11T06:57:31.942Z</time></trkpt><trkpt lat="45.0560567" lon="9.7436017"><ele>46.0</ele><time>2026-04-11T06:57:32.942Z</time></trkpt><trkpt lat="45.0558317" lon="9.7438183"><ele>46.0</ele><time>2026-04-11T06:57:33.942Z</time></trkpt><trkpt lat="45.0556067" lon="9.7440433"><ele>46.0</ele><time>2026-04-11T06:57:34.942Z</time></trkpt><trkpt lat="45.0553833" lon="9.7442667"><ele>46.0</ele><time>2026-04-11T06:57:35.941Z</time></trkpt><trkpt lat="45.0551633" lon="9.7444783"><ele>46.0</ele><time>2026-04-11T06:57:36.942Z</time></trkpt><trkpt lat="45.0549467" lon="9.7446833"><ele>46.5</ele><time>2026-04-11T06:57:37.942Z</time></trkpt><trkpt lat="45.0547583" lon="9.74492"><ele>47.0</ele><time>2026-04-11T06:57:38.942Z</time></trkpt><trkpt lat="45.0545017" lon="9.7451317"><ele>46.5</ele><time>2026-04-11T06:57:39.942Z</time></trkpt><trkpt lat="45.0542583" lon="9.7453917"><ele>46.0</ele><time>2026-04-11T06:57:40.942Z</time></trkpt><trkpt lat="45.054025" lon="9.745625"><ele>46.0</ele><time>2026-04-11T06:57:41.942Z</time></trkpt><trkpt lat="45.0538217" lon="9.7458417"><ele>46.0</ele><time>2026-04-11T06:57:42.942Z</time></trkpt><trkpt lat="45.053605" lon="9.74607"><ele>46.5</ele><time>2026-04-11T06:57:43.942Z</time></trkpt><trkpt lat="45.0533833" lon="9.746245"><ele>47.0</ele><time>2026-04-11T06:57:44.941Z</time></trkpt><trkpt lat="45.05317" lon="9.7464633"><ele>47.5</ele><time>2026-04-11T06:57:45.942Z</time></trkpt><trkpt lat="45.0529333" lon="9.74669"><ele>48.0</ele><time>2026-04-11T06:57:46.942Z</time></trkpt><trkpt lat="45.0526983" lon="9.7469167"><ele>48.0</ele><time>2026-04-11T06:57:47.942Z</time></trkpt><trkpt lat="45.0524733" lon="9.7471333"><ele>48.0</ele><time>2026-04-11T06:57:48.941Z</time></trkpt><trkpt lat="45.0522667" lon="9.74734"><ele>47.5</ele><time>2026-04-11T06:57:49.942Z</time></trkpt><trkpt lat="45.0520583" lon="9.7475417"><ele>47.0</ele><time>2026-04-11T06:57:50.942Z</time></trkpt><trkpt lat="45.0518483" lon="9.747745"><ele>46.0</ele><time>2026-04-11T06:57:51.941Z</time></trkpt><trkpt lat="45.0516167" lon="9.7479867"><ele>45.0</ele><time>2026-04-11T06:57:52.941Z</time></trkpt><trkpt lat="45.0514017" lon="9.7482167"><ele>45.0</ele><time>2026-04-11T06:57:53.941Z</time></trkpt><trkpt lat="45.05118" lon="9.7484533"><ele>45.0</ele><time>2026-04-11T06:57:54.941Z</time></trkpt><trkpt lat="45.050955" lon="9.7486917"><ele>45.0</ele><time>2026-04-11T06:57:55.941Z</time></trkpt><trkpt lat="45.0507317" lon="9.7489167"><ele>45.0</ele><time>2026-04-11T06:57:56.941Z</time></trkpt><trkpt lat="45.0505017" lon="9.74914"><ele>45.0</ele><time>2026-04-11T06:57:57.941Z</time></trkpt><trkpt lat="45.0502783" lon="9.7493717"><ele>45.0</ele><time>2026-04-11T06:57:58.941Z</time></trkpt><trkpt lat="45.05005" lon="9.749595"><ele>44.0</ele><time>2026-04-11T06:57:59.941Z</time></trkpt><trkpt lat="45.0498233" lon="9.7497967"><ele>43.0</ele><time>2026-04-11T06:58:00.94Z</time></trkpt><trkpt lat="45.049595" lon="9.7500417"><ele>44.0</ele><time>2026-04-11T06:58:01.941Z</time></trkpt><trkpt lat="45.0493783" lon="9.75028"><ele>45.0</ele><time>2026-04-11T06:58:02.941Z</time></trkpt><trkpt lat="45.0491483" lon="9.7505417"><ele>45.0</ele><time>2026-04-11T06:58:03.941Z</time></trkpt><trkpt lat="45.048925" lon="9.750735"><ele>45.0</ele><time>2026-04-11T06:58:04.94Z</time></trkpt><trkpt lat="45.0486983" lon="9.75095"><ele>45.5</ele><time>2026-04-11T06:58:05.941Z</time></trkpt><trkpt lat="45.0484717" lon="9.7511483"><ele>46.0</ele><time>2026-04-11T06:58:06.941Z</time></trkpt><trkpt lat="45.0482317" lon="9.751365"><ele>46.0</ele><time>2026-04-11T06:58:07.941Z</time></trkpt><trkpt lat="45.048" lon="9.7515917"><ele>46.0</ele><time>2026-04-11T06:58:08.941Z</time></trkpt><trkpt lat="45.0477767" lon="9.7518117"><ele>46.0</ele><time>2026-04-11T06:58:09.941Z</time></trkpt><trkpt lat="45.0475667" lon="9.752015"><ele>46.0</ele><time>2026-04-11T06:58:10.941Z</time></trkpt><trkpt lat="45.047305" lon="9.75228"><ele>45.5</ele><time>2026-04-11T06:58:11.941Z</time></trkpt><trkpt lat="45.04708" lon="9.7525083"><ele>45.0</ele><time>2026-04-11T06:58:12.941Z</time></trkpt><trkpt lat="45.046855" lon="9.752725"><ele>45.0</ele><time>2026-04-11T06:58:13.941Z</time></trkpt><trkpt lat="45.04663" lon="9.7529567"><ele>45.0</ele><time>2026-04-11T06:58:14.941Z</time></trkpt><trkpt lat="45.046405" lon="9.7531783"><ele>45.0</ele><time>2026-04-11T06:58:15.941Z</time></trkpt><trkpt lat="45.04618" lon="9.7533983"><ele>45.0</ele><time>2026-04-11T06:58:16.941Z</time></trkpt><trkpt lat="45.045955" lon="9.7536117"><ele>45.0</ele><time>2026-04-11T06:58:17.94Z</time></trkpt><trkpt lat="45.0457267" lon="9.75383"><ele>45.0</ele><time>2026-04-11T06:58:18.941Z</time></trkpt><trkpt lat="45.0455" lon="9.75403"><ele>45.0</ele><time>2026-04-11T06:58:19.941Z</time></trkpt><trkpt lat="45.0452783" lon="9.7542433"><ele>45.0</ele><time>2026-04-11T06:58:20.941Z</time></trkpt><trkpt lat="45.045055" lon="9.75446"><ele>45.5</ele><time>2026-04-11T06:58:21.941Z</time></trkpt><trkpt lat="45.04483" lon="9.7546783"><ele>46.0</ele><time>2026-04-11T06:58:22.941Z</time></trkpt><trkpt lat="45.0446083" lon="9.7548933"><ele>46.0</ele><time>2026-04-11T06:58:23.941Z</time></trkpt><trkpt lat="45.0443883" lon="9.755105"><ele>46.0</ele><time>2026-04-11T06:58:24.941Z</time></trkpt><trkpt lat="45.0441517" lon="9.7553517"><ele>45.5</ele><time>2026-04-11T06:58:25.941Z</time></trkpt><trkpt lat="45.0439283" lon="9.7555667"><ele>45.0</ele><time>2026-04-11T06:58:26.941Z</time></trkpt><trkpt lat="45.043705" lon="9.7557917"><ele>45.0</ele><time>2026-04-11T06:58:27.94Z</time></trkpt><trkpt lat="45.0435017" lon="9.7560067"><ele>45.0</ele><time>2026-04-11T06:58:28.941Z</time></trkpt><trkpt lat="45.0432683" lon="9.7562417"><ele>44.0</ele><time>2026-04-11T06:58:29.941Z</time></trkpt><trkpt lat="45.04304" lon="9.75649"><ele>43.0</ele><time>2026-04-11T06:58:30.94Z</time></trkpt><trkpt lat="45.0428083" lon="9.7567233"><ele>43.5</ele><time>2026-04-11T06:58:31.94Z</time></trkpt><trkpt lat="45.0425767" lon="9.7569533"><ele>44.0</ele><time>2026-04-11T06:58:32.941Z</time></trkpt><trkpt lat="45.0423467" lon="9.7571833"><ele>44.0</ele><time>2026-04-11T06:58:33.941Z</time></trkpt><trkpt lat="45.04212" lon="9.7574017"><ele>44.0</ele><time>2026-04-11T06:58:34.941Z</time></trkpt><trkpt lat="45.0418783" lon="9.75763"><ele>44.5</ele><time>2026-04-11T06:58:35.941Z</time></trkpt><trkpt lat="45.0416467" lon="9.7578467"><ele>45.0</ele><time>2026-04-11T06:58:36.941Z</time></trkpt><trkpt lat="45.04141" lon="9.7580667"><ele>45.0</ele><time>2026-04-11T06:58:37.941Z</time></trkpt><trkpt lat="45.041175" lon="9.7582867"><ele>45.0</ele><time>2026-04-11T06:58:38.941Z</time></trkpt><trkpt lat="45.0409417" lon="9.75852"><ele>45.5</ele><time>2026-04-11T06:58:39.94Z</time></trkpt><trkpt lat="45.0407167" lon="9.7587433"><ele>46.0</ele><time>2026-04-11T06:58:40.941Z</time></trkpt><trkpt lat="45.0404833" lon="9.7589633"><ele>46.0</ele><time>2026-04-11T06:58:41.941Z</time></trkpt><trkpt lat="45.040255" lon="9.7592083"><ele>46.0</ele><time>2026-04-11T06:58:42.941Z</time></trkpt><trkpt lat="45.0400167" lon="9.75944"><ele>47.5</ele><time>2026-04-11T06:58:43.941Z</time></trkpt><trkpt lat="45.0397817" lon="9.7596683"><ele>49.0</ele><time>2026-04-11T06:58:44.941Z</time></trkpt><trkpt lat="45.0395517" lon="9.759895"><ele>49.0</ele><time>2026-04-11T06:58:45.941Z</time></trkpt><trkpt lat="45.03932" lon="9.760125"><ele>49.0</ele><time>2026-04-11T06:58:46.941Z</time></trkpt><trkpt lat="45.039085" lon="9.76037"><ele>49.0</ele><time>2026-04-11T06:58:47.941Z</time></trkpt><trkpt lat="45.0388667" lon="9.760585"><ele>49.0</ele><time>2026-04-11T06:58:48.941Z</time></trkpt><trkpt lat="45.0386367" lon="9.760805"><ele>49.0</ele><time>2026-04-11T06:58:49.941Z</time></trkpt><trkpt lat="45.038405" lon="9.76103"><ele>49.0</ele><time>2026-04-11T06:58:50.941Z</time></trkpt><trkpt lat="45.0381767" lon="9.76125"><ele>49.5</ele><time>2026-04-11T06:58:51.941Z</time></trkpt><trkpt lat="45.037955" lon="9.7614767"><ele>50.0</ele><time>2026-04-11T06:58:52.941Z</time></trkpt><trkpt lat="45.0377233" lon="9.7617017"><ele>50.0</ele><time>2026-04-11T06:58:53.941Z</time></trkpt><trkpt lat="45.0374983" lon="9.7619183"><ele>50.0</ele><time>2026-04-11T06:58:54.941Z</time></trkpt><trkpt lat="45.037275" lon="9.7621417"><ele>50.0</ele><time>2026-04-11T06:58:55.941Z</time></trkpt><trkpt lat="45.0370567" lon="9.76236"><ele>50.0</ele><time>2026-04-11T06:58:56.941Z</time></trkpt><trkpt lat="45.036835" lon="9.762585"><ele>50.5</ele><time>2026-04-11T06:58:57.941Z</time></trkpt><trkpt lat="45.0366117" lon="9.7628117"><ele>51.0</ele><time>2026-04-11T06:58:58.941Z</time></trkpt><trkpt lat="45.036385" lon="9.76303"><ele>51.0</ele><time>2026-04-11T06:58:59.941Z</time></trkpt><trkpt lat="45.0361633" lon="9.763245"><ele>51.0</ele><time>2026-04-11T06:59:00.941Z</time></trkpt><trkpt lat="45.035935" lon="9.7634667"><ele>52.0</ele><time>2026-04-11T06:59:01.941Z</time></trkpt><trkpt lat="45.0357183" lon="9.7636833"><ele>53.0</ele><time>2026-04-11T06:59:02.941Z</time></trkpt><trkpt lat="45.0354983" lon="9.7638933"><ele>53.0</ele><time>2026-04-11T06:59:03.941Z</time></trkpt><trkpt lat="45.0352733" lon="9.7641033"><ele>53.0</ele><time>2026-04-11T06:59:04.941Z</time></trkpt><trkpt lat="45.035065" lon="9.7643083"><ele>53.5</ele><time>2026-04-11T06:59:05.941Z</time></trkpt><trkpt lat="45.0348533" lon="9.76452"><ele>54.0</ele><time>2026-04-11T06:59:06.941Z</time></trkpt><trkpt lat="45.0346433" lon="9.764725"><ele>54.0</ele><time>2026-04-11T06:59:07.94Z</time></trkpt><trkpt lat="45.0344417" lon="9.7649283"><ele>54.0</ele><time>2026-04-11T06:59:08.941Z</time></trkpt><trkpt lat="45.0342367" lon="9.765135"><ele>54.5</ele><time>2026-04-11T06:59:09.94Z</time></trkpt><trkpt lat="45.0340283" lon="9.7653333"><ele>55.0</ele><time>2026-04-11T06:59:10.941Z</time></trkpt><trkpt lat="45.0338233" lon="9.7655383"><ele>55.0</ele><time>2026-04-11T06:59:11.941Z</time></trkpt><trkpt lat="45.0336333" lon="9.7657183"><ele>55.0</ele><time>2026-04-11T06:59:12.941Z</time></trkpt><trkpt lat="45.0334233" lon="9.7659267"><ele>54.0</ele><time>2026-04-11T06:59:13.941Z</time></trkpt><trkpt lat="45.0332267" lon="9.766115"><ele>53.0</ele><time>2026-04-11T06:59:14.941Z</time></trkpt><trkpt lat="45.033045" lon="9.766305"><ele>53.0</ele><time>2026-04-11T06:59:15.941Z</time></trkpt><trkpt lat="45.032865" lon="9.7664833"><ele>53.0</ele><time>2026-04-11T06:59:16.941Z</time></trkpt><trkpt lat="45.0326917" lon="9.766655"><ele>53.0</ele><time>2026-04-11T06:59:17.941Z</time></trkpt><trkpt lat="45.0325183" lon="9.7668317"><ele>53.0</ele><time>2026-04-11T06:59:18.941Z</time></trkpt><trkpt lat="45.0323417" lon="9.7670083"><ele>53.0</ele><time>2026-04-11T06:59:19.941Z</time></trkpt><trkpt lat="45.0321533" lon="9.7671917"><ele>53.0</ele><time>2026-04-11T06:59:20.941Z</time></trkpt><trkpt lat="45.0319633" lon="9.76739"><ele>53.0</ele><time>2026-04-11T06:59:21.941Z</time></trkpt><trkpt lat="45.0317733" lon="9.767585"><ele>53.0</ele><time>2026-04-11T06:59:22.94Z</time></trkpt><trkpt lat="45.0315917" lon="9.7677717"><ele>53.5</ele><time>2026-04-11T06:59:23.941Z</time></trkpt><trkpt lat="45.0314067" lon="9.7679667"><ele>54.0</ele><time>2026-04-11T06:59:24.941Z</time></trkpt><trkpt lat="45.03121" lon="9.76816"><ele>54.0</ele><time>2026-04-11T06:59:25.941Z</time></trkpt><trkpt lat="45.031005" lon="9.7683583"><ele>54.0</ele><time>2026-04-11T06:59:26.941Z</time></trkpt><trkpt lat="45.0308" lon="9.7685583"><ele>54.0</ele><time>2026-04-11T06:59:27.941Z</time></trkpt><trkpt lat="45.0305983" lon="9.7687567"><ele>54.0</ele><time>2026-04-11T06:59:28.941Z</time></trkpt><trkpt lat="45.0304083" lon="9.7689483"><ele>54.0</ele><time>2026-04-11T06:59:29.941Z</time></trkpt><trkpt lat="45.03022" lon="9.7691433"><ele>54.0</ele><time>2026-04-11T06:59:30.941Z</time></trkpt><trkpt lat="45.0300367" lon="9.7693333"><ele>54.0</ele><time>2026-04-11T06:59:31.941Z</time></trkpt><trkpt lat="45.0298433" lon="9.7695333"><ele>54.0</ele><time>2026-04-11T06:59:32.941Z</time></trkpt><trkpt lat="45.0296433" lon="9.7697283"><ele>54.0</ele><time>2026-04-11T06:59:33.94Z</time></trkpt><trkpt lat="45.0294417" lon="9.7699117"><ele>54.0</ele><time>2026-04-11T06:59:34.941Z</time></trkpt><trkpt lat="45.029255" lon="9.7700883"><ele>54.5</ele><time>2026-04-11T06:59:35.941Z</time></trkpt><trkpt lat="45.0290683" lon="9.770275"><ele>55.0</ele><time>2026-04-11T06:59:36.941Z</time></trkpt><trkpt lat="45.0288817" lon="9.7704567"><ele>55.0</ele><time>2026-04-11T06:59:37.941Z</time></trkpt><trkpt lat="45.0286933" lon="9.7706433"><ele>55.0</ele><time>2026-04-11T06:59:38.941Z</time></trkpt><trkpt lat="45.028505" lon="9.770835"><ele>55.0</ele><time>2026-04-11T06:59:39.941Z</time></trkpt><trkpt lat="45.0283183" lon="9.77102"><ele>55.0</ele><time>2026-04-11T06:59:40.941Z</time></trkpt><trkpt lat="45.0281233" lon="9.7712117"><ele>54.33333333333333</ele><time>2026-04-11T06:59:41.94Z</time></trkpt><trkpt lat="45.0279383" lon="9.7713917"><ele>53.66666666666667</ele><time>2026-04-11T06:59:42.941Z</time></trkpt><trkpt lat="45.0277617" lon="9.771555"><ele>53.0</ele><time>2026-04-11T06:59:43.941Z</time></trkpt><trkpt lat="45.02759" lon="9.771735"><ele>53.333333333333336</ele><time>2026-04-11T06:59:44.941Z</time></trkpt><trkpt lat="45.027415" lon="9.7719183"><ele>53.66666666666667</ele><time>2026-04-11T06:59:45.941Z</time></trkpt><trkpt lat="45.0272267" lon="9.7721"><ele>54.0</ele><time>2026-04-11T06:59:46.941Z</time></trkpt><trkpt lat="45.027035" lon="9.7722883"><ele>54.0</ele><time>2026-04-11T06:59:47.941Z</time></trkpt><trkpt lat="45.026845" lon="9.7724683"><ele>54.0</ele><time>2026-04-11T06:59:48.941Z</time></trkpt><trkpt lat="45.0266517" lon="9.772665"><ele>53.0</ele><time>2026-04-11T06:59:49.941Z</time></trkpt><trkpt lat="45.02646" lon="9.77286"><ele>52.0</ele><time>2026-04-11T06:59:50.941Z</time></trkpt><trkpt lat="45.02626" lon="9.7730717"><ele>52.0</ele><time>2026-04-11T06:59:51.941Z</time></trkpt><trkpt lat="45.0260533" lon="9.7732867"><ele>52.0</ele><time>2026-04-11T06:59:52.941Z</time></trkpt><trkpt lat="45.0258383" lon="9.7735033"><ele>53.5</ele><time>2026-04-11T06:59:53.941Z</time></trkpt><trkpt lat="45.025625" lon="9.773725"><ele>55.0</ele><time>2026-04-11T06:59:54.94Z</time></trkpt><trkpt lat="45.0254083" lon="9.7739417"><ele>55.0</ele><time>2026-04-11T06:59:55.941Z</time></trkpt><trkpt lat="45.0251883" lon="9.7741733"><ele>55.0</ele><time>2026-04-11T06:59:56.941Z</time></trkpt><trkpt lat="45.0249617" lon="9.774395"><ele>55.0</ele><time>2026-04-11T06:59:57.94Z</time></trkpt><trkpt lat="45.0247333" lon="9.7746167"><ele>55.0</ele><time>2026-04-11T06:59:58.94Z</time></trkpt><trkpt lat="45.024495" lon="9.7748333"><ele>55.0</ele><time>2026-04-11T06:59:59.941Z</time></trkpt><trkpt lat="45.0242633" lon="9.7750517"><ele>55.0</ele><time>2026-04-11T07:00:00.941Z</time></trkpt><trkpt lat="45.0240333" lon="9.775275"><ele>54.5</ele><time>2026-04-11T07:00:01.941Z</time></trkpt><trkpt lat="45.0237967" lon="9.7755067"><ele>54.0</ele><time>2026-04-11T07:00:02.941Z</time></trkpt><trkpt lat="45.0235617" lon="9.775735"><ele>54.0</ele><time>2026-04-11T07:00:03.941Z</time></trkpt><trkpt lat="45.02332" lon="9.7759733"><ele>54.0</ele><time>2026-04-11T07:00:04.941Z</time></trkpt><trkpt lat="45.0230783" lon="9.7762067"><ele>55.5</ele><time>2026-04-11T07:00:05.941Z</time></trkpt><trkpt lat="45.0228383" lon="9.7764317"><ele>57.0</ele><time>2026-04-11T07:00:06.941Z</time></trkpt><trkpt lat="45.0226033" lon="9.7766617"><ele>57.0</ele><time>2026-04-11T07:00:07.941Z</time></trkpt><trkpt lat="45.0223733" lon="9.7768933"><ele>57.0</ele><time>2026-04-11T07:00:08.941Z</time></trkpt><trkpt lat="45.02214" lon="9.77712"><ele>57.0</ele><time>2026-04-11T07:00:09.941Z</time></trkpt><trkpt lat="45.021905" lon="9.7773533"><ele>57.0</ele><time>2026-04-11T07:00:10.941Z</time></trkpt><trkpt lat="45.0216733" lon="9.7775833"><ele>57.5</ele><time>2026-04-11T07:00:11.941Z</time></trkpt><trkpt lat="45.021445" lon="9.77781"><ele>58.0</ele><time>2026-04-11T07:00:12.94Z</time></trkpt><trkpt lat="45.0212067" lon="9.7780417"><ele>58.0</ele><time>2026-04-11T07:00:13.94Z</time></trkpt><trkpt lat="45.020975" lon="9.778265"><ele>58.0</ele><time>2026-04-11T07:00:14.941Z</time></trkpt><trkpt lat="45.0207417" lon="9.7784933"><ele>58.5</ele><time>2026-04-11T07:00:15.941Z</time></trkpt><trkpt lat="45.0205067" lon="9.7787217"><ele>59.0</ele><time>2026-04-11T07:00:16.941Z</time></trkpt><trkpt lat="45.02028" lon="9.7789517"><ele>59.0</ele><time>2026-04-11T07:00:17.941Z</time></trkpt><trkpt lat="45.0200467" lon="9.7791883"><ele>59.0</ele><time>2026-04-11T07:00:18.941Z</time></trkpt><trkpt lat="45.0198183" lon="9.7794183"><ele>58.0</ele><time>2026-04-11T07:00:19.941Z</time></trkpt><trkpt lat="45.019585" lon="9.7796467"><ele>57.0</ele><time>2026-04-11T07:00:20.94Z</time></trkpt><trkpt lat="45.01935" lon="9.7798783"><ele>57.0</ele><time>2026-04-11T07:00:21.941Z</time></trkpt><trkpt lat="45.0191233" lon="9.7801067"><ele>57.0</ele><time>2026-04-11T07:00:22.941Z</time></trkpt><trkpt lat="45.018895" lon="9.78034"><ele>57.0</ele><time>2026-04-11T07:00:23.941Z</time></trkpt><trkpt lat="45.0186667" lon="9.7805683"><ele>57.0</ele><time>2026-04-11T07:00:24.94Z</time></trkpt><trkpt lat="45.0184317" lon="9.7807917"><ele>57.0</ele><time>2026-04-11T07:00:25.941Z</time></trkpt><trkpt lat="45.0182017" lon="9.7810267"><ele>57.0</ele><time>2026-04-11T07:00:26.94Z</time></trkpt><trkpt lat="45.0179683" lon="9.78126"><ele>57.0</ele><time>2026-04-11T07:00:27.941Z</time></trkpt><trkpt lat="45.0177367" lon="9.78149"><ele>57.0</ele><time>2026-04-11T07:00:28.94Z</time></trkpt><trkpt lat="45.0175067" lon="9.7817317"><ele>57.0</ele><time>2026-04-11T07:00:29.941Z</time></trkpt><trkpt lat="45.0172817" lon="9.781965"><ele>57.0</ele><time>2026-04-11T07:00:30.941Z</time></trkpt><trkpt lat="45.017055" lon="9.7821983"><ele>57.0</ele><time>2026-04-11T07:00:31.941Z</time></trkpt><trkpt lat="45.0168267" lon="9.782445"><ele>57.0</ele><time>2026-04-11T07:00:32.941Z</time></trkpt><trkpt lat="45.0166" lon="9.782695"><ele>56.0</ele><time>2026-04-11T07:00:33.941Z</time></trkpt><trkpt lat="45.0163767" lon="9.7829367"><ele>55.0</ele><time>2026-04-11T07:00:34.941Z</time></trkpt><trkpt lat="45.01615" lon="9.7831967"><ele>55.0</ele><time>2026-04-11T07:00:35.94Z</time></trkpt><trkpt lat="45.0159267" lon="9.7834583"><ele>55.0</ele><time>2026-04-11T07:00:36.94Z</time></trkpt><trkpt lat="45.0157117" lon="9.7837183"><ele>57.0</ele><time>2026-04-11T07:00:37.941Z</time></trkpt><trkpt lat="45.015485" lon="9.7839767"><ele>59.0</ele><time>2026-04-11T07:00:38.94Z</time></trkpt><trkpt lat="45.0152883" lon="9.7842317"><ele>59.5</ele><time>2026-04-11T07:00:39.941Z</time></trkpt><trkpt lat="45.0150633" lon="9.7844933"><ele>60.0</ele><time>2026-04-11T07:00:40.941Z</time></trkpt><trkpt lat="45.0148317" lon="9.7847567"><ele>59.0</ele><time>2026-04-11T07:00:41.941Z</time></trkpt><trkpt lat="45.0146233" lon="9.7850033"><ele>58.0</ele><time>2026-04-11T07:00:42.941Z</time></trkpt><trkpt lat="45.0144033" lon="9.7852933"><ele>58.0</ele><time>2026-04-11T07:00:43.941Z</time></trkpt><trkpt lat="45.0141817" lon="9.7855667"><ele>58.0</ele><time>2026-04-11T07:00:44.94Z</time></trkpt><trkpt lat="45.0139733" lon="9.7858433"><ele>57.5</ele><time>2026-04-11T07:00:45.941Z</time></trkpt><trkpt lat="45.01376" lon="9.786125"><ele>57.0</ele><time>2026-04-11T07:00:46.94Z</time></trkpt><trkpt lat="45.0135367" lon="9.7864017"><ele>57.5</ele><time>2026-04-11T07:00:47.941Z</time></trkpt><trkpt lat="45.0133183" lon="9.7866767"><ele>58.0</ele><time>2026-04-11T07:00:48.941Z</time></trkpt><trkpt lat="45.01311" lon="9.7869633"><ele>58.0</ele><time>2026-04-11T07:00:49.941Z</time></trkpt><trkpt lat="45.0129" lon="9.7872567"><ele>58.0</ele><time>2026-04-11T07:00:50.941Z</time></trkpt><trkpt lat="45.0126933" lon="9.787545"><ele>58.0</ele><time>2026-04-11T07:00:51.941Z</time></trkpt><trkpt lat="45.0124817" lon="9.7878433"><ele>58.0</ele><time>2026-04-11T07:00:52.941Z</time></trkpt><trkpt lat="45.0122783" lon="9.78813"><ele>58.0</ele><time>2026-04-11T07:00:53.941Z</time></trkpt><trkpt lat="45.01207" lon="9.7884283"><ele>58.0</ele><time>2026-04-11T07:00:54.941Z</time></trkpt><trkpt lat="45.0118683" lon="9.7887267"><ele>59.0</ele><time>2026-04-11T07:00:55.94Z</time></trkpt><trkpt lat="45.0116533" lon="9.7890283"><ele>60.0</ele><time>2026-04-11T07:00:56.941Z</time></trkpt><trkpt lat="45.0114483" lon="9.78934"><ele>59.0</ele><time>2026-04-11T07:00:57.941Z</time></trkpt><trkpt lat="45.0112467" lon="9.78965"><ele>58.0</ele><time>2026-04-11T07:00:58.941Z</time></trkpt><trkpt lat="45.011045" lon="9.7899567"><ele>57.0</ele><time>2026-04-11T07:00:59.941Z</time></trkpt><trkpt lat="45.01085" lon="9.7902667"><ele>56.0</ele><time>2026-04-11T07:01:00.941Z</time></trkpt><trkpt lat="45.01065" lon="9.7905817"><ele>58.0</ele><time>2026-04-11T07:01:01.94Z</time></trkpt><trkpt lat="45.0104517" lon="9.7909117"><ele>60.0</ele><time>2026-04-11T07:01:02.941Z</time></trkpt><trkpt lat="45.0102517" lon="9.7912283"><ele>60.0</ele><time>2026-04-11T07:01:03.941Z</time></trkpt><trkpt lat="45.0100517" lon="9.79156"><ele>60.0</ele><time>2026-04-11T07:01:04.941Z</time></trkpt><trkpt lat="45.0098583" lon="9.7918833"><ele>61.0</ele><time>2026-04-11T07:01:05.941Z</time></trkpt><trkpt lat="45.00966" lon="9.7922017"><ele>62.0</ele><time>2026-04-11T07:01:06.941Z</time></trkpt><trkpt lat="45.0094717" lon="9.7925317"><ele>61.0</ele><time>2026-04-11T07:01:07.941Z</time></trkpt><trkpt lat="45.0092767" lon="9.792865"><ele>60.0</ele><time>2026-04-11T07:01:08.941Z</time></trkpt><trkpt lat="45.0090917" lon="9.7931967"><ele>60.0</ele><time>2026-04-11T07:01:09.941Z</time></trkpt><trkpt lat="45.0089067" lon="9.7935283"><ele>60.0</ele><time>2026-04-11T07:01:10.941Z</time></trkpt><trkpt lat="45.0087267" lon="9.7938617"><ele>60.0</ele><time>2026-04-11T07:01:11.941Z</time></trkpt><trkpt lat="45.0085383" lon="9.7942067"><ele>60.0</ele><time>2026-04-11T07:01:12.941Z</time></trkpt><trkpt lat="45.0083483" lon="9.79455"><ele>59.5</ele><time>2026-04-11T07:01:13.941Z</time></trkpt><trkpt lat="45.0081683" lon="9.7948917"><ele>59.0</ele><time>2026-04-11T07:01:14.941Z</time></trkpt><trkpt lat="45.0079883" lon="9.7952417"><ele>58.0</ele><time>2026-04-11T07:01:15.941Z</time></trkpt><trkpt lat="45.0078033" lon="9.7955783"><ele>57.0</ele><time>2026-04-11T07:01:16.941Z</time></trkpt><trkpt lat="45.0076283" lon="9.7959117"><ele>59.0</ele><time>2026-04-11T07:01:17.941Z</time></trkpt><trkpt lat="45.0074467" lon="9.7962683"><ele>61.0</ele><time>2026-04-11T07:01:18.941Z</time></trkpt><trkpt lat="45.0072783" lon="9.79661"><ele>61.0</ele><time>2026-04-11T07:01:19.941Z</time></trkpt><trkpt lat="45.00711" lon="9.7969617"><ele>61.0</ele><time>2026-04-11T07:01:20.941Z</time></trkpt><trkpt lat="45.00694" lon="9.797315"><ele>61.0</ele><time>2026-04-11T07:01:21.941Z</time></trkpt><trkpt lat="45.006775" lon="9.7976583"><ele>61.0</ele><time>2026-04-11T07:01:22.941Z</time></trkpt><trkpt lat="45.0066083" lon="9.7980033"><ele>61.0</ele><time>2026-04-11T07:01:23.941Z</time></trkpt><trkpt lat="45.0064317" lon="9.79835"><ele>61.0</ele><time>2026-04-11T07:01:24.941Z</time></trkpt><trkpt lat="45.0062633" lon="9.798695"><ele>60.5</ele><time>2026-04-11T07:01:25.941Z</time></trkpt><trkpt lat="45.0061033" lon="9.79905"><ele>60.0</ele><time>2026-04-11T07:01:26.941Z</time></trkpt><trkpt lat="45.0059467" lon="9.799405"><ele>63.0</ele><time>2026-04-11T07:01:27.941Z</time></trkpt><trkpt lat="45.005795" lon="9.7997683"><ele>66.0</ele><time>2026-04-11T07:01:28.941Z</time></trkpt><trkpt lat="45.0056433" lon="9.8001317"><ele>64.0</ele><time>2026-04-11T07:01:29.941Z</time></trkpt><trkpt lat="45.0054967" lon="9.8004883"><ele>62.0</ele><time>2026-04-11T07:01:30.941Z</time></trkpt><trkpt lat="45.0053483" lon="9.8008483"><ele>60.0</ele><time>2026-04-11T07:01:31.941Z</time></trkpt><trkpt lat="45.0052" lon="9.8012083"><ele>58.0</ele><time>2026-04-11T07:01:32.941Z</time></trkpt><trkpt lat="45.005055" lon="9.8015617"><ele>58.5</ele><time>2026-04-11T07:01:33.94Z</time></trkpt><trkpt lat="45.004915" lon="9.80191"><ele>59.0</ele><time>2026-04-11T07:01:34.941Z</time></trkpt><trkpt lat="45.004775" lon="9.8022583"><ele>59.0</ele><time>2026-04-11T07:01:35.94Z</time></trkpt><trkpt lat="45.004635" lon="9.802615"><ele>59.0</ele><time>2026-04-11T07:01:36.941Z</time></trkpt><trkpt lat="45.0045033" lon="9.8029733"><ele>58.0</ele><time>2026-04-11T07:01:37.941Z</time></trkpt><trkpt lat="45.0043617" lon="9.8033267"><ele>57.0</ele><time>2026-04-11T07:01:38.941Z</time></trkpt><trkpt lat="45.0042283" lon="9.80368"><ele>56.5</ele><time>2026-04-11T07:01:39.94Z</time></trkpt><trkpt lat="45.0040867" lon="9.8040417"><ele>56.0</ele><time>2026-04-11T07:01:40.941Z</time></trkpt><trkpt lat="45.0039467" lon="9.8043967"><ele>56.0</ele><time>2026-04-11T07:01:41.941Z</time></trkpt><trkpt lat="45.0038083" lon="9.8047583"><ele>56.0</ele><time>2026-04-11T07:01:42.941Z</time></trkpt><trkpt lat="45.003665" lon="9.8051117"><ele>55.5</ele><time>2026-04-11T07:01:43.941Z</time></trkpt><trkpt lat="45.00353" lon="9.805455"><ele>55.0</ele><time>2026-04-11T07:01:44.941Z</time></trkpt><trkpt lat="45.003395" lon="9.8058033"><ele>54.5</ele><time>2026-04-11T07:01:45.941Z</time></trkpt><trkpt lat="45.003265" lon="9.8061583"><ele>54.0</ele><time>2026-04-11T07:01:46.941Z</time></trkpt><trkpt lat="45.00313" lon="9.8065133"><ele>55.0</ele><time>2026-04-11T07:01:47.941Z</time></trkpt><trkpt lat="45.0029917" lon="9.8068683"><ele>56.0</ele><time>2026-04-11T07:01:48.941Z</time></trkpt><trkpt lat="45.00285" lon="9.80722"><ele>56.0</ele><time>2026-04-11T07:01:49.941Z</time></trkpt><trkpt lat="45.0027133" lon="9.80757"><ele>56.0</ele><time>2026-04-11T07:01:50.941Z</time></trkpt><trkpt lat="45.00259" lon="9.8079067"><ele>56.0</ele><time>2026-04-11T07:01:51.941Z</time></trkpt><trkpt lat="45.0024533" lon="9.808255"><ele>56.0</ele><time>2026-04-11T07:01:52.941Z</time></trkpt><trkpt lat="45.002315" lon="9.8086033"><ele>56.0</ele><time>2026-04-11T07:01:53.941Z</time></trkpt><trkpt lat="45.0021817" lon="9.8089617"><ele>56.0</ele><time>2026-04-11T07:01:54.941Z</time></trkpt><trkpt lat="45.0020467" lon="9.8093167"><ele>55.5</ele><time>2026-04-11T07:01:55.941Z</time></trkpt><trkpt lat="45.00191" lon="9.8096683"><ele>55.0</ele><time>2026-04-11T07:01:56.941Z</time></trkpt><trkpt lat="45.0017733" lon="9.81001"><ele>55.5</ele><time>2026-04-11T07:01:57.941Z</time></trkpt><trkpt lat="45.0016367" lon="9.8103667"><ele>56.0</ele><time>2026-04-11T07:01:58.941Z</time></trkpt><trkpt lat="45.0015017" lon="9.81072"><ele>56.0</ele><time>2026-04-11T07:01:59.94Z</time></trkpt><trkpt lat="45.0013667" lon="9.8110683"><ele>56.0</ele><time>2026-04-11T07:02:00.941Z</time></trkpt><trkpt lat="45.0012317" lon="9.8114167"><ele>56.0</ele><time>2026-04-11T07:02:01.941Z</time></trkpt><trkpt lat="45.0010933" lon="9.811775"><ele>56.0</ele><time>2026-04-11T07:02:02.941Z</time></trkpt><trkpt lat="45.0009583" lon="9.8121217"><ele>56.0</ele><time>2026-04-11T07:02:03.941Z</time></trkpt><trkpt lat="45.00082" lon="9.81247"><ele>56.0</ele><time>2026-04-11T07:02:04.941Z</time></trkpt><trkpt lat="45.0006867" lon="9.8128167"><ele>56.5</ele><time>2026-04-11T07:02:05.941Z</time></trkpt><trkpt lat="45.0005533" lon="9.813175"><ele>57.0</ele><time>2026-04-11T07:02:06.941Z</time></trkpt><trkpt lat="45.00042" lon="9.813515"><ele>58.0</ele><time>2026-04-11T07:02:07.941Z</time></trkpt><trkpt lat="45.0001433" lon="9.814225"><ele>58.0</ele><time>2026-04-11T07:02:09.941Z</time></trkpt><trkpt lat="45.00001" lon="9.8145767"><ele>58.0</ele><time>2026-04-11T07:02:10.941Z</time></trkpt><trkpt lat="44.9998733" lon="9.8149267"><ele>57.5</ele><time>2026-04-11T07:02:11.941Z</time></trkpt><trkpt lat="44.9997433" lon="9.8152817"><ele>57.0</ele><time>2026-04-11T07:02:12.941Z</time></trkpt><trkpt lat="44.9996067" lon="9.81562"><ele>57.0</ele><time>2026-04-11T07:02:13.941Z</time></trkpt><trkpt lat="44.9994717" lon="9.8159617"><ele>57.0</ele><time>2026-04-11T07:02:14.941Z</time></trkpt><trkpt lat="44.9993383" lon="9.8163133"><ele>56.5</ele><time>2026-04-11T07:02:15.941Z</time></trkpt><trkpt lat="44.9992033" lon="9.8166433"><ele>56.0</ele><time>2026-04-11T07:02:16.94Z</time></trkpt><trkpt lat="44.9990683" lon="9.8169933"><ele>57.0</ele><time>2026-04-11T07:02:17.941Z</time></trkpt><trkpt lat="44.9989333" lon="9.8173267"><ele>58.0</ele><time>2026-04-11T07:02:18.941Z</time></trkpt><trkpt lat="44.9988" lon="9.8176783"><ele>58.0</ele><time>2026-04-11T07:02:19.941Z</time></trkpt><trkpt lat="44.9986667" lon="9.8180317"><ele>58.0</ele><time>2026-04-11T07:02:20.941Z</time></trkpt><trkpt lat="44.998535" lon="9.818365"><ele>58.0</ele><time>2026-04-11T07:02:21.941Z</time></trkpt><trkpt lat="44.998395" lon="9.8187183"><ele>58.0</ele><time>2026-04-11T07:02:22.941Z</time></trkpt><trkpt lat="44.9982683" lon="9.8190617"><ele>58.5</ele><time>2026-04-11T07:02:23.941Z</time></trkpt><trkpt lat="44.9981333" lon="9.8194133"><ele>59.0</ele><time>2026-04-11T07:02:24.941Z</time></trkpt><trkpt lat="44.998" lon="9.8197617"><ele>59.0</ele><time>2026-04-11T07:02:25.941Z</time></trkpt><trkpt lat="44.9978667" lon="9.8201067"><ele>59.0</ele><time>2026-04-11T07:02:26.941Z</time></trkpt><trkpt lat="44.9977217" lon="9.8204617"><ele>59.0</ele><time>2026-04-11T07:02:27.94Z</time></trkpt><trkpt lat="44.99758" lon="9.8208267"><ele>59.0</ele><time>2026-04-11T07:02:28.941Z</time></trkpt><trkpt lat="44.9974417" lon="9.8211783"><ele>59.0</ele><time>2026-04-11T07:02:29.941Z</time></trkpt><trkpt lat="44.9973067" lon="9.82153"><ele>59.0</ele><time>2026-04-11T07:02:30.941Z</time></trkpt><trkpt lat="44.9971683" lon="9.8218833"><ele>58.5</ele><time>2026-04-11T07:02:31.941Z</time></trkpt><trkpt lat="44.9970317" lon="9.822235"><ele>58.0</ele><time>2026-04-11T07:02:32.941Z</time></trkpt><trkpt lat="44.9968933" lon="9.822585"><ele>57.5</ele><time>2026-04-11T07:02:33.941Z</time></trkpt><trkpt lat="44.9967533" lon="9.8229317"><ele>57.0</ele><time>2026-04-11T07:02:34.941Z</time></trkpt><trkpt lat="44.99661" lon="9.8232883"><ele>58.5</ele><time>2026-04-11T07:02:35.941Z</time></trkpt><trkpt lat="44.9964633" lon="9.82365"><ele>60.0</ele><time>2026-04-11T07:02:36.941Z</time></trkpt><trkpt lat="44.9963183" lon="9.8240017"><ele>58.5</ele><time>2026-04-11T07:02:37.941Z</time></trkpt><trkpt lat="44.99618" lon="9.8243617"><ele>57.0</ele><time>2026-04-11T07:02:38.941Z</time></trkpt><trkpt lat="44.9960467" lon="9.82472"><ele>57.0</ele><time>2026-04-11T07:02:39.941Z</time></trkpt><trkpt lat="44.9959117" lon="9.8250633"><ele>57.0</ele><time>2026-04-11T07:02:40.941Z</time></trkpt><trkpt lat="44.995775" lon="9.82541"><ele>56.0</ele><time>2026-04-11T07:02:41.941Z</time></trkpt><trkpt lat="44.9956417" lon="9.8257717"><ele>55.0</ele><time>2026-04-11T07:02:42.941Z</time></trkpt><trkpt lat="44.99551" lon="9.8261233"><ele>55.0</ele><time>2026-04-11T07:02:43.941Z</time></trkpt><trkpt lat="44.995375" lon="9.8264833"><ele>55.0</ele><time>2026-04-11T07:02:44.941Z</time></trkpt><trkpt lat="44.9952383" lon="9.8268333"><ele>56.0</ele><time>2026-04-11T07:02:45.941Z</time></trkpt><trkpt lat="44.9951067" lon="9.8271833"><ele>57.0</ele><time>2026-04-11T07:02:46.94Z</time></trkpt><trkpt lat="44.9949717" lon="9.82754"><ele>57.5</ele><time>2026-04-11T07:02:47.941Z</time></trkpt><trkpt lat="44.9948417" lon="9.8278933"><ele>58.0</ele><time>2026-04-11T07:02:48.941Z</time></trkpt><trkpt lat="44.9947033" lon="9.8282517"><ele>58.5</ele><time>2026-04-11T07:02:49.941Z</time></trkpt><trkpt lat="44.9945617" lon="9.8286033"><ele>59.0</ele><time>2026-04-11T07:02:50.941Z</time></trkpt><trkpt lat="44.994425" lon="9.8289617"><ele>58.5</ele><time>2026-04-11T07:02:51.941Z</time></trkpt><trkpt lat="44.9942867" lon="9.82932"><ele>58.0</ele><time>2026-04-11T07:02:52.941Z</time></trkpt><trkpt lat="44.9941483" lon="9.82968"><ele>58.0</ele><time>2026-04-11T07:02:53.941Z</time></trkpt><trkpt lat="44.9940133" lon="9.83002"><ele>58.0</ele><time>2026-04-11T07:02:54.941Z</time></trkpt><trkpt lat="44.9938833" lon="9.8303583"><ele>57.5</ele><time>2026-04-11T07:02:55.941Z</time></trkpt><trkpt lat="44.99375" lon="9.8307"><ele>57.0</ele><time>2026-04-11T07:02:56.941Z</time></trkpt><trkpt lat="44.9936133" lon="9.83105"><ele>57.0</ele><time>2026-04-11T07:02:57.941Z</time></trkpt><trkpt lat="44.9934767" lon="9.8313917"><ele>57.0</ele><time>2026-04-11T07:02:58.941Z</time></trkpt><trkpt lat="44.99334" lon="9.8317467"><ele>58.0</ele><time>2026-04-11T07:02:59.941Z</time></trkpt><trkpt lat="44.9932" lon="9.8320983"><ele>59.0</ele><time>2026-04-11T07:03:00.941Z</time></trkpt><trkpt lat="44.9930667" lon="9.8324467"><ele>58.0</ele><time>2026-04-11T07:03:01.941Z</time></trkpt><trkpt lat="44.992935" lon="9.832815"><ele>57.0</ele><time>2026-04-11T07:03:02.941Z</time></trkpt><trkpt lat="44.9927983" lon="9.8331717"><ele>57.0</ele><time>2026-04-11T07:03:03.941Z</time></trkpt><trkpt lat="44.9926567" lon="9.8335133"><ele>57.0</ele><time>2026-04-11T07:03:04.941Z</time></trkpt><trkpt lat="44.992515" lon="9.83385"><ele>57.0</ele><time>2026-04-11T07:03:05.941Z</time></trkpt><trkpt lat="44.9923783" lon="9.8342017"><ele>57.0</ele><time>2026-04-11T07:03:06.941Z</time></trkpt><trkpt lat="44.992245" lon="9.83456"><ele>56.5</ele><time>2026-04-11T07:03:07.941Z</time></trkpt><trkpt lat="44.9921067" lon="9.8348933"><ele>56.0</ele><time>2026-04-11T07:03:08.941Z</time></trkpt><trkpt lat="44.99197" lon="9.8352317"><ele>56.0</ele><time>2026-04-11T07:03:09.941Z</time></trkpt><trkpt lat="44.9918417" lon="9.8355967"><ele>56.0</ele><time>2026-04-11T07:03:10.941Z</time></trkpt><trkpt lat="44.9917083" lon="9.83593"><ele>57.0</ele><time>2026-04-11T07:03:11.941Z</time></trkpt><trkpt lat="44.99157" lon="9.8362883"><ele>58.0</ele><time>2026-04-11T07:03:12.941Z</time></trkpt><trkpt lat="44.9914333" lon="9.83664"><ele>57.5</ele><time>2026-04-11T07:03:13.941Z</time></trkpt><trkpt lat="44.9913" lon="9.83698"><ele>57.0</ele><time>2026-04-11T07:03:14.941Z</time></trkpt><trkpt lat="44.991165" lon="9.837325"><ele>56.5</ele><time>2026-04-11T07:03:15.941Z</time></trkpt><trkpt lat="44.9910283" lon="9.837675"><ele>56.0</ele><time>2026-04-11T07:03:16.941Z</time></trkpt><trkpt lat="44.9908967" lon="9.838025"><ele>56.0</ele><time>2026-04-11T07:03:17.941Z</time></trkpt><trkpt lat="44.990755" lon="9.8383867"><ele>56.0</ele><time>2026-04-11T07:03:18.941Z</time></trkpt><trkpt lat="44.9906133" lon="9.83874"><ele>56.0</ele><time>2026-04-11T07:03:19.941Z</time></trkpt><trkpt lat="44.9904783" lon="9.8390917"><ele>56.0</ele><time>2026-04-11T07:03:20.941Z</time></trkpt><trkpt lat="44.99034" lon="9.8394383"><ele>56.0</ele><time>2026-04-11T07:03:21.941Z</time></trkpt><trkpt lat="44.9902033" lon="9.83979"><ele>56.0</ele><time>2026-04-11T07:03:22.941Z</time></trkpt><trkpt lat="44.990065" lon="9.8401483"><ele>56.0</ele><time>2026-04-11T07:03:23.941Z</time></trkpt><trkpt lat="44.98993" lon="9.840485"><ele>56.0</ele><time>2026-04-11T07:03:24.941Z</time></trkpt><trkpt lat="44.989795" lon="9.84083"><ele>56.5</ele><time>2026-04-11T07:03:25.941Z</time></trkpt><trkpt lat="44.9896617" lon="9.8411783"><ele>57.0</ele><time>2026-04-11T07:03:26.941Z</time></trkpt><trkpt lat="44.9895333" lon="9.8415317"><ele>56.5</ele><time>2026-04-11T07:03:27.941Z</time></trkpt><trkpt lat="44.9893933" lon="9.8418867"><ele>56.0</ele><time>2026-04-11T07:03:28.941Z</time></trkpt><trkpt lat="44.989265" lon="9.8422133"><ele>56.5</ele><time>2026-04-11T07:03:29.941Z</time></trkpt><trkpt lat="44.9891333" lon="9.8425583"><ele>57.0</ele><time>2026-04-11T07:03:30.941Z</time></trkpt><trkpt lat="44.9890033" lon="9.8429"><ele>57.0</ele><time>2026-04-11T07:03:31.941Z</time></trkpt><trkpt lat="44.9888717" lon="9.8432433"><ele>57.0</ele><time>2026-04-11T07:03:32.941Z</time></trkpt><trkpt lat="44.9887367" lon="9.8435933"><ele>57.0</ele><time>2026-04-11T07:03:33.941Z</time></trkpt><trkpt lat="44.9886033" lon="9.84395"><ele>57.0</ele><time>2026-04-11T07:03:34.941Z</time></trkpt><trkpt lat="44.9884617" lon="9.8443067"><ele>57.0</ele><time>2026-04-11T07:03:35.941Z</time></trkpt><trkpt lat="44.9883183" lon="9.8446633"><ele>57.0</ele><time>2026-04-11T07:03:36.941Z</time></trkpt><trkpt lat="44.9881817" lon="9.84501"><ele>57.5</ele><time>2026-04-11T07:03:37.94Z</time></trkpt><trkpt lat="44.9880433" lon="9.8453583"><ele>58.0</ele><time>2026-04-11T07:03:38.941Z</time></trkpt><trkpt lat="44.9879033" lon="9.8457083"><ele>57.5</ele><time>2026-04-11T07:03:39.941Z</time></trkpt><trkpt lat="44.987765" lon="9.8460467"><ele>57.0</ele><time>2026-04-11T07:03:40.941Z</time></trkpt><trkpt lat="44.987625" lon="9.846395"><ele>57.0</ele><time>2026-04-11T07:03:41.941Z</time></trkpt><trkpt lat="44.987485" lon="9.8467467"><ele>57.0</ele><time>2026-04-11T07:03:42.941Z</time></trkpt><trkpt lat="44.987345" lon="9.8471"><ele>56.5</ele><time>2026-04-11T07:03:43.941Z</time></trkpt><trkpt lat="44.9871983" lon="9.8474483"><ele>56.0</ele><time>2026-04-11T07:03:44.941Z</time></trkpt><trkpt lat="44.98705" lon="9.8478017"><ele>56.0</ele><time>2026-04-11T07:03:45.941Z</time></trkpt><trkpt lat="44.986905" lon="9.848145"><ele>56.0</ele><time>2026-04-11T07:03:46.941Z</time></trkpt><trkpt lat="44.9867617" lon="9.8484817"><ele>58.5</ele><time>2026-04-11T07:03:47.941Z</time></trkpt><trkpt lat="44.98661" lon="9.848825"><ele>61.0</ele><time>2026-04-11T07:03:48.941Z</time></trkpt><trkpt lat="44.9864617" lon="9.8491617"><ele>61.0</ele><time>2026-04-11T07:03:49.941Z</time></trkpt><trkpt lat="44.9863183" lon="9.849495"><ele>61.0</ele><time>2026-04-11T07:03:50.941Z</time></trkpt><trkpt lat="44.986175" lon="9.84984"><ele>58.0</ele><time>2026-04-11T07:03:51.941Z</time></trkpt><trkpt lat="44.9860283" lon="9.8501833"><ele>55.0</ele><time>2026-04-11T07:03:52.941Z</time></trkpt><trkpt lat="44.9858833" lon="9.8505333"><ele>55.5</ele><time>2026-04-11T07:03:53.94Z</time></trkpt><trkpt lat="44.9857367" lon="9.8508783"><ele>56.0</ele><time>2026-04-11T07:03:54.941Z</time></trkpt><trkpt lat="44.9855883" lon="9.8512283"><ele>56.0</ele><time>2026-04-11T07:03:55.941Z</time></trkpt><trkpt lat="44.9854367" lon="9.8515783"><ele>56.0</ele><time>2026-04-11T07:03:56.941Z</time></trkpt><trkpt lat="44.98529" lon="9.851925"><ele>56.0</ele><time>2026-04-11T07:03:57.941Z</time></trkpt><trkpt lat="44.98515" lon="9.85226"><ele>56.0</ele><time>2026-04-11T07:03:58.941Z</time></trkpt><trkpt lat="44.98501" lon="9.852585"><ele>56.5</ele><time>2026-04-11T07:03:59.941Z</time></trkpt><trkpt lat="44.9848683" lon="9.852915"><ele>57.0</ele><time>2026-04-11T07:04:00.941Z</time></trkpt><trkpt lat="44.9847233" lon="9.8532533"><ele>56.5</ele><time>2026-04-11T07:04:01.941Z</time></trkpt><trkpt lat="44.9845817" lon="9.8536033"><ele>56.0</ele><time>2026-04-11T07:04:02.94Z</time></trkpt><trkpt lat="44.984435" lon="9.8539583"><ele>56.0</ele><time>2026-04-11T07:04:03.941Z</time></trkpt><trkpt lat="44.9842883" lon="9.8543067"><ele>56.0</ele><time>2026-04-11T07:04:04.941Z</time></trkpt><trkpt lat="44.98415" lon="9.8546467"><ele>57.0</ele><time>2026-04-11T07:04:05.941Z</time></trkpt><trkpt lat="44.98401" lon="9.854985"><ele>58.0</ele><time>2026-04-11T07:04:06.941Z</time></trkpt><trkpt lat="44.9838617" lon="9.8553117"><ele>58.5</ele><time>2026-04-11T07:04:07.941Z</time></trkpt><trkpt lat="44.98372" lon="9.8556533"><ele>59.0</ele><time>2026-04-11T07:04:08.941Z</time></trkpt><trkpt lat="44.9835883" lon="9.855975"><ele>57.5</ele><time>2026-04-11T07:04:09.941Z</time></trkpt><trkpt lat="44.9834517" lon="9.8563067"><ele>56.0</ele><time>2026-04-11T07:04:10.941Z</time></trkpt><trkpt lat="44.98331" lon="9.8566317"><ele>56.5</ele><time>2026-04-11T07:04:11.941Z</time></trkpt><trkpt lat="44.9831633" lon="9.856965"><ele>57.0</ele><time>2026-04-11T07:04:12.941Z</time></trkpt><trkpt lat="44.9830183" lon="9.8572983"><ele>57.0</ele><time>2026-04-11T07:04:13.941Z</time></trkpt><trkpt lat="44.98288" lon="9.8576267"><ele>57.0</ele><time>2026-04-11T07:04:14.941Z</time></trkpt><trkpt lat="44.9827433" lon="9.857955"><ele>57.0</ele><time>2026-04-11T07:04:15.941Z</time></trkpt><trkpt lat="44.9826033" lon="9.8582833"><ele>57.0</ele><time>2026-04-11T07:04:16.941Z</time></trkpt><trkpt lat="44.9824583" lon="9.8586117"><ele>57.0</ele><time>2026-04-11T07:04:17.941Z</time></trkpt><trkpt lat="44.9823183" lon="9.8589483"><ele>57.0</ele><time>2026-04-11T07:04:18.941Z</time></trkpt><trkpt lat="44.9821817" lon="9.8592767"><ele>56.5</ele><time>2026-04-11T07:04:19.941Z</time></trkpt><trkpt lat="44.9820367" lon="9.859615"><ele>56.0</ele><time>2026-04-11T07:04:20.941Z</time></trkpt><trkpt lat="44.9818917" lon="9.8599533"><ele>56.0</ele><time>2026-04-11T07:04:21.941Z</time></trkpt><trkpt lat="44.9817483" lon="9.86029"><ele>56.0</ele><time>2026-04-11T07:04:22.941Z</time></trkpt><trkpt lat="44.9816017" lon="9.8606233"><ele>56.0</ele><time>2026-04-11T07:04:23.941Z</time></trkpt><trkpt lat="44.981455" lon="9.8609633"><ele>56.0</ele><time>2026-04-11T07:04:24.941Z</time></trkpt><trkpt lat="44.98131" lon="9.8613"><ele>56.0</ele><time>2026-04-11T07:04:25.941Z</time></trkpt><trkpt lat="44.9811633" lon="9.8616433"><ele>56.0</ele><time>2026-04-11T07:04:26.941Z</time></trkpt><trkpt lat="44.98102" lon="9.8619783"><ele>56.0</ele><time>2026-04-11T07:04:27.941Z</time></trkpt><trkpt lat="44.9808783" lon="9.8623217"><ele>56.0</ele><time>2026-04-11T07:04:28.941Z</time></trkpt><trkpt lat="44.980735" lon="9.86266"><ele>55.0</ele><time>2026-04-11T07:04:29.94Z</time></trkpt><trkpt lat="44.98059" lon="9.862995"><ele>54.0</ele><time>2026-04-11T07:04:30.941Z</time></trkpt><trkpt lat="44.9804483" lon="9.86334"><ele>56.0</ele><time>2026-04-11T07:04:31.941Z</time></trkpt><trkpt lat="44.9803033" lon="9.8636733"><ele>58.0</ele><time>2026-04-11T07:04:32.941Z</time></trkpt><trkpt lat="44.9801567" lon="9.86401"><ele>57.5</ele><time>2026-04-11T07:04:33.941Z</time></trkpt><trkpt lat="44.9800117" lon="9.8643517"><ele>57.0</ele><time>2026-04-11T07:04:34.941Z</time></trkpt><trkpt lat="44.9798683" lon="9.8646983"><ele>57.0</ele><time>2026-04-11T07:04:35.941Z</time></trkpt><trkpt lat="44.9797233" lon="9.86503"><ele>57.0</ele><time>2026-04-11T07:04:36.941Z</time></trkpt><trkpt lat="44.97958" lon="9.8653683"><ele>57.0</ele><time>2026-04-11T07:04:37.941Z</time></trkpt><trkpt lat="44.9794333" lon="9.8657017"><ele>57.0</ele><time>2026-04-11T07:04:38.941Z</time></trkpt><trkpt lat="44.97929" lon="9.86604"><ele>56.0</ele><time>2026-04-11T07:04:39.941Z</time></trkpt><trkpt lat="44.9791483" lon="9.866385"><ele>55.0</ele><time>2026-04-11T07:04:40.941Z</time></trkpt><trkpt lat="44.979" lon="9.866725"><ele>55.5</ele><time>2026-04-11T07:04:41.941Z</time></trkpt><trkpt lat="44.9788567" lon="9.867075"><ele>56.0</ele><time>2026-04-11T07:04:42.941Z</time></trkpt><trkpt lat="44.97871" lon="9.8674117"><ele>54.5</ele><time>2026-04-11T07:04:43.941Z</time></trkpt><trkpt lat="44.97856" lon="9.86775"><ele>53.0</ele><time>2026-04-11T07:04:44.94Z</time></trkpt><trkpt lat="44.978415" lon="9.8680917"><ele>53.5</ele><time>2026-04-11T07:04:45.941Z</time></trkpt><trkpt lat="44.9782717" lon="9.8684333"><ele>54.0</ele><time>2026-04-11T07:04:46.941Z</time></trkpt><trkpt lat="44.978125" lon="9.868785"><ele>54.0</ele><time>2026-04-11T07:04:47.941Z</time></trkpt><trkpt lat="44.97798" lon="9.86913"><ele>54.0</ele><time>2026-04-11T07:04:48.941Z</time></trkpt><trkpt lat="44.977835" lon="9.869465"><ele>54.0</ele><time>2026-04-11T07:04:49.941Z</time></trkpt><trkpt lat="44.9776917" lon="9.8698067"><ele>54.0</ele><time>2026-04-11T07:04:50.941Z</time></trkpt><trkpt lat="44.9775483" lon="9.8701517"><ele>55.0</ele><time>2026-04-11T07:04:51.941Z</time></trkpt><trkpt lat="44.977395" lon="9.8705017"><ele>56.0</ele><time>2026-04-11T07:04:52.941Z</time></trkpt><trkpt lat="44.9772467" lon="9.87085"><ele>57.0</ele><time>2026-04-11T07:04:53.94Z</time></trkpt><trkpt lat="44.9770933" lon="9.8712083"><ele>58.0</ele><time>2026-04-11T07:04:54.941Z</time></trkpt><trkpt lat="44.9769467" lon="9.8715567"><ele>57.5</ele><time>2026-04-11T07:04:55.941Z</time></trkpt><trkpt lat="44.9768017" lon="9.8719083"><ele>57.0</ele><time>2026-04-11T07:04:56.941Z</time></trkpt><trkpt lat="44.976655" lon="9.872255"><ele>58.0</ele><time>2026-04-11T07:04:57.941Z</time></trkpt><trkpt lat="44.9765117" lon="9.8726"><ele>59.0</ele><time>2026-04-11T07:04:58.941Z</time></trkpt><trkpt lat="44.97636" lon="9.8729483"><ele>59.0</ele><time>2026-04-11T07:04:59.941Z</time></trkpt><trkpt lat="44.9762133" lon="9.87329"><ele>59.0</ele><time>2026-04-11T07:05:00.941Z</time></trkpt><trkpt lat="44.97607" lon="9.87362"><ele>59.0</ele><time>2026-04-11T07:05:01.941Z</time></trkpt><trkpt lat="44.9759283" lon="9.873945"><ele>59.0</ele><time>2026-04-11T07:05:02.94Z</time></trkpt><trkpt lat="44.9757883" lon="9.8742717"><ele>59.0</ele><time>2026-04-11T07:05:03.941Z</time></trkpt><trkpt lat="44.97565" lon="9.8745917"><ele>59.0</ele><time>2026-04-11T07:05:04.941Z</time></trkpt><trkpt lat="44.9755117" lon="9.8749083"><ele>58.5</ele><time>2026-04-11T07:05:05.941Z</time></trkpt><trkpt lat="44.975385" lon="9.875215"><ele>58.0</ele><time>2026-04-11T07:05:06.941Z</time></trkpt><trkpt lat="44.9752483" lon="9.8755583"><ele>58.0</ele><time>2026-04-11T07:05:07.941Z</time></trkpt><trkpt lat="44.9750967" lon="9.8759"><ele>58.0</ele><time>2026-04-11T07:05:08.941Z</time></trkpt><trkpt lat="44.9749517" lon="9.8762367"><ele>58.0</ele><time>2026-04-11T07:05:09.941Z</time></trkpt><trkpt lat="44.97482" lon="9.876565"><ele>58.0</ele><time>2026-04-11T07:05:10.941Z</time></trkpt><trkpt lat="44.97468" lon="9.87688"><ele>57.5</ele><time>2026-04-11T07:05:11.941Z</time></trkpt><trkpt lat="44.9745367" lon="9.87721"><ele>57.0</ele><time>2026-04-11T07:05:12.941Z</time></trkpt><trkpt lat="44.9744033" lon="9.8775383"><ele>57.0</ele><time>2026-04-11T07:05:13.941Z</time></trkpt><trkpt lat="44.974265" lon="9.8778667"><ele>57.0</ele><time>2026-04-11T07:05:14.941Z</time></trkpt><trkpt lat="44.9741267" lon="9.8781983"><ele>57.0</ele><time>2026-04-11T07:05:15.941Z</time></trkpt><trkpt lat="44.9739867" lon="9.878525"><ele>57.0</ele><time>2026-04-11T07:05:16.941Z</time></trkpt><trkpt lat="44.973845" lon="9.878855"><ele>57.0</ele><time>2026-04-11T07:05:17.941Z</time></trkpt><trkpt lat="44.9737033" lon="9.8791867"><ele>57.0</ele><time>2026-04-11T07:05:18.941Z</time></trkpt><trkpt lat="44.9735633" lon="9.87951"><ele>56.5</ele><time>2026-04-11T07:05:19.941Z</time></trkpt><trkpt lat="44.9734267" lon="9.87984"><ele>56.0</ele><time>2026-04-11T07:05:20.941Z</time></trkpt><trkpt lat="44.9732833" lon="9.8801483"><ele>55.5</ele><time>2026-04-11T07:05:21.941Z</time></trkpt><trkpt lat="44.97315" lon="9.8804667"><ele>55.0</ele><time>2026-04-11T07:05:22.94Z</time></trkpt><trkpt lat="44.97302" lon="9.8807783"><ele>55.5</ele><time>2026-04-11T07:05:23.941Z</time></trkpt><trkpt lat="44.9728917" lon="9.8810783"><ele>56.0</ele><time>2026-04-11T07:05:24.941Z</time></trkpt><trkpt lat="44.972765" lon="9.88138"><ele>56.0</ele><time>2026-04-11T07:05:25.941Z</time></trkpt><trkpt lat="44.97264" lon="9.8816667"><ele>56.0</ele><time>2026-04-11T07:05:26.941Z</time></trkpt><trkpt lat="44.97252" lon="9.881975"><ele>56.5</ele><time>2026-04-11T07:05:27.941Z</time></trkpt><trkpt lat="44.97239" lon="9.882275"><ele>57.0</ele><time>2026-04-11T07:05:28.941Z</time></trkpt><trkpt lat="44.9722883" lon="9.8825683"><ele>57.0</ele><time>2026-04-11T07:05:29.941Z</time></trkpt><trkpt lat="44.9721567" lon="9.88287"><ele>57.0</ele><time>2026-04-11T07:05:30.941Z</time></trkpt><trkpt lat="44.9720283" lon="9.883165"><ele>56.5</ele><time>2026-04-11T07:05:31.941Z</time></trkpt><trkpt lat="44.9719" lon="9.88346"><ele>56.0</ele><time>2026-04-11T07:05:32.941Z</time></trkpt><trkpt lat="44.9717683" lon="9.8837617"><ele>56.5</ele><time>2026-04-11T07:05:33.941Z</time></trkpt><trkpt lat="44.97164" lon="9.8840733"><ele>57.0</ele><time>2026-04-11T07:05:34.94Z</time></trkpt><trkpt lat="44.9715083" lon="9.8843667"><ele>56.0</ele><time>2026-04-11T07:05:35.941Z</time></trkpt><trkpt lat="44.9713717" lon="9.8846667"><ele>55.0</ele><time>2026-04-11T07:05:36.941Z</time></trkpt><trkpt lat="44.97123" lon="9.8849717"><ele>56.5</ele><time>2026-04-11T07:05:37.941Z</time></trkpt><trkpt lat="44.971105" lon="9.88528"><ele>58.0</ele><time>2026-04-11T07:05:38.941Z</time></trkpt><trkpt lat="44.9709683" lon="9.885595"><ele>58.5</ele><time>2026-04-11T07:05:39.941Z</time></trkpt><trkpt lat="44.9708383" lon="9.8859"><ele>59.0</ele><time>2026-04-11T07:05:40.941Z</time></trkpt><trkpt lat="44.9707067" lon="9.886205"><ele>58.5</ele><time>2026-04-11T07:05:41.941Z</time></trkpt><trkpt lat="44.9705733" lon="9.88652"><ele>58.0</ele><time>2026-04-11T07:05:42.941Z</time></trkpt><trkpt lat="44.97044" lon="9.8868333"><ele>58.0</ele><time>2026-04-11T07:05:43.941Z</time></trkpt><trkpt lat="44.9702867" lon="9.8871567"><ele>58.0</ele><time>2026-04-11T07:05:44.941Z</time></trkpt><trkpt lat="44.97017" lon="9.88746"><ele>57.5</ele><time>2026-04-11T07:05:45.941Z</time></trkpt><trkpt lat="44.970045" lon="9.88778"><ele>57.0</ele><time>2026-04-11T07:05:46.941Z</time></trkpt><trkpt lat="44.9699117" lon="9.88809"><ele>57.0</ele><time>2026-04-11T07:05:47.94Z</time></trkpt><trkpt lat="44.969775" lon="9.8884083"><ele>57.0</ele><time>2026-04-11T07:05:48.941Z</time></trkpt><trkpt lat="44.9696333" lon="9.8887317"><ele>56.5</ele><time>2026-04-11T07:05:49.941Z</time></trkpt><trkpt lat="44.9694983" lon="9.88905"><ele>56.0</ele><time>2026-04-11T07:05:50.941Z</time></trkpt><trkpt lat="44.9693683" lon="9.8893683"><ele>56.0</ele><time>2026-04-11T07:05:51.94Z</time></trkpt><trkpt lat="44.9692383" lon="9.889685"><ele>56.0</ele><time>2026-04-11T07:05:52.94Z</time></trkpt><trkpt lat="44.9690867" lon="9.8900083"><ele>58.5</ele><time>2026-04-11T07:05:53.941Z</time></trkpt><trkpt lat="44.9689533" lon="9.8903283"><ele>61.0</ele><time>2026-04-11T07:05:54.941Z</time></trkpt><trkpt lat="44.9688333" lon="9.8906433"><ele>60.0</ele><time>2026-04-11T07:05:55.941Z</time></trkpt><trkpt lat="44.968695" lon="9.8909733"><ele>59.0</ele><time>2026-04-11T07:05:56.941Z</time></trkpt><trkpt lat="44.9685583" lon="9.8912917"><ele>59.0</ele><time>2026-04-11T07:05:57.94Z</time></trkpt><trkpt lat="44.9684217" lon="9.8916167"><ele>59.0</ele><time>2026-04-11T07:05:58.94Z</time></trkpt><trkpt lat="44.968285" lon="9.8919367"><ele>58.0</ele><time>2026-04-11T07:05:59.941Z</time></trkpt><trkpt lat="44.9681533" lon="9.892255"><ele>57.0</ele><time>2026-04-11T07:06:00.941Z</time></trkpt><trkpt lat="44.9680183" lon="9.8925733"><ele>56.5</ele><time>2026-04-11T07:06:01.941Z</time></trkpt><trkpt lat="44.9678767" lon="9.892885"><ele>56.0</ele><time>2026-04-11T07:06:02.941Z</time></trkpt><trkpt lat="44.967735" lon="9.893205"><ele>56.0</ele><time>2026-04-11T07:06:03.941Z</time></trkpt><trkpt lat="44.9675983" lon="9.8935283"><ele>56.0</ele><time>2026-04-11T07:06:04.941Z</time></trkpt><trkpt lat="44.96746" lon="9.8938533"><ele>57.5</ele><time>2026-04-11T07:06:05.941Z</time></trkpt><trkpt lat="44.9673317" lon="9.89416"><ele>59.0</ele><time>2026-04-11T07:06:06.941Z</time></trkpt><trkpt lat="44.967185" lon="9.8944983"><ele>59.0</ele><time>2026-04-11T07:06:07.941Z</time></trkpt><trkpt lat="44.967045" lon="9.8948283"><ele>59.0</ele><time>2026-04-11T07:06:08.941Z</time></trkpt><trkpt lat="44.9669033" lon="9.895155"><ele>59.0</ele><time>2026-04-11T07:06:09.941Z</time></trkpt><trkpt lat="44.9667683" lon="9.8954633"><ele>59.0</ele><time>2026-04-11T07:06:10.941Z</time></trkpt><trkpt lat="44.96663" lon="9.895785"><ele>57.5</ele><time>2026-04-11T07:06:11.941Z</time></trkpt><trkpt lat="44.9664983" lon="9.8961333"><ele>56.0</ele><time>2026-04-11T07:06:12.941Z</time></trkpt><trkpt lat="44.9663517" lon="9.8964683"><ele>56.5</ele><time>2026-04-11T07:06:13.941Z</time></trkpt><trkpt lat="44.9661967" lon="9.8967933"><ele>57.0</ele><time>2026-04-11T07:06:14.941Z</time></trkpt><trkpt lat="44.9660633" lon="9.8971167"><ele>57.0</ele><time>2026-04-11T07:06:15.941Z</time></trkpt><trkpt lat="44.96594" lon="9.89743"><ele>57.0</ele><time>2026-04-11T07:06:16.941Z</time></trkpt><trkpt lat="44.9658" lon="9.89776"><ele>57.5</ele><time>2026-04-11T07:06:17.94Z</time></trkpt><trkpt lat="44.96566" lon="9.898085"><ele>58.0</ele><time>2026-04-11T07:06:18.941Z</time></trkpt><trkpt lat="44.9655217" lon="9.8984033"><ele>58.5</ele><time>2026-04-11T07:06:19.941Z</time></trkpt><trkpt lat="44.9653817" lon="9.8987217"><ele>59.0</ele><time>2026-04-11T07:06:20.941Z</time></trkpt><trkpt lat="44.9652467" lon="9.8990383"><ele>59.5</ele><time>2026-04-11T07:06:21.941Z</time></trkpt><trkpt lat="44.9651067" lon="9.8993533"><ele>60.0</ele><time>2026-04-11T07:06:22.941Z</time></trkpt><trkpt lat="44.9649767" lon="9.899655"><ele>60.0</ele><time>2026-04-11T07:06:23.941Z</time></trkpt><trkpt lat="44.964855" lon="9.8999433"><ele>60.0</ele><time>2026-04-11T07:06:24.941Z</time></trkpt><trkpt lat="44.9647267" lon="9.9002433"><ele>60.5</ele><time>2026-04-11T07:06:25.941Z</time></trkpt><trkpt lat="44.964605" lon="9.90054"><ele>61.0</ele><time>2026-04-11T07:06:26.94Z</time></trkpt><trkpt lat="44.9644767" lon="9.9008517"><ele>61.0</ele><time>2026-04-11T07:06:27.941Z</time></trkpt><trkpt lat="44.9643483" lon="9.9011467"><ele>61.0</ele><time>2026-04-11T07:06:28.941Z</time></trkpt><trkpt lat="44.9642183" lon="9.9014417"><ele>60.5</ele><time>2026-04-11T07:06:29.941Z</time></trkpt><trkpt lat="44.964085" lon="9.9017467"><ele>60.0</ele><time>2026-04-11T07:06:30.941Z</time></trkpt><trkpt lat="44.9639583" lon="9.9020517"><ele>60.0</ele><time>2026-04-11T07:06:31.941Z</time></trkpt><trkpt lat="44.963825" lon="9.90236"><ele>60.0</ele><time>2026-04-11T07:06:32.941Z</time></trkpt><trkpt lat="44.963695" lon="9.9026717"><ele>60.0</ele><time>2026-04-11T07:06:33.941Z</time></trkpt><trkpt lat="44.9635683" lon="9.9029917"><ele>60.0</ele><time>2026-04-11T07:06:34.94Z</time></trkpt><trkpt lat="44.9634383" lon="9.90332"><ele>60.5</ele><time>2026-04-11T07:06:35.941Z</time></trkpt><trkpt lat="44.9633033" lon="9.9036483"><ele>61.0</ele><time>2026-04-11T07:06:36.941Z</time></trkpt><trkpt lat="44.963155" lon="9.9039633"><ele>61.5</ele><time>2026-04-11T07:06:37.941Z</time></trkpt><trkpt lat="44.962995" lon="9.904275"><ele>62.0</ele><time>2026-04-11T07:06:38.94Z</time></trkpt><trkpt lat="44.962885" lon="9.9046283"><ele>62.0</ele><time>2026-04-11T07:06:39.941Z</time></trkpt><trkpt lat="44.962745" lon="9.9049583"><ele>62.0</ele><time>2026-04-11T07:06:40.941Z</time></trkpt><trkpt lat="44.9626033" lon="9.9052833"><ele>61.5</ele><time>2026-04-11T07:06:41.941Z</time></trkpt><trkpt lat="44.9624517" lon="9.9056333"><ele>61.0</ele><time>2026-04-11T07:06:42.941Z</time></trkpt><trkpt lat="44.9623217" lon="9.90595"><ele>61.0</ele><time>2026-04-11T07:06:43.941Z</time></trkpt><trkpt lat="44.9621867" lon="9.9062767"><ele>61.0</ele><time>2026-04-11T07:06:44.941Z</time></trkpt><trkpt lat="44.96206" lon="9.906615"><ele>61.0</ele><time>2026-04-11T07:06:45.941Z</time></trkpt><trkpt lat="44.9619133" lon="9.9069317"><ele>61.0</ele><time>2026-04-11T07:06:46.941Z</time></trkpt><trkpt lat="44.9617733" lon="9.90728"><ele>62.0</ele><time>2026-04-11T07:06:47.941Z</time></trkpt><trkpt lat="44.961635" lon="9.907615"><ele>63.0</ele><time>2026-04-11T07:06:48.941Z</time></trkpt><trkpt lat="44.9614917" lon="9.9079617"><ele>63.0</ele><time>2026-04-11T07:06:49.941Z</time></trkpt><trkpt lat="44.961345" lon="9.908315"><ele>63.0</ele><time>2026-04-11T07:06:50.941Z</time></trkpt><trkpt lat="44.9611967" lon="9.90866"><ele>63.0</ele><time>2026-04-11T07:06:51.94Z</time></trkpt><trkpt lat="44.961045" lon="9.9090317"><ele>63.0</ele><time>2026-04-11T07:06:52.941Z</time></trkpt><trkpt lat="44.9608967" lon="9.90936"><ele>62.0</ele><time>2026-04-11T07:06:53.941Z</time></trkpt><trkpt lat="44.9607483" lon="9.9096867"><ele>61.0</ele><time>2026-04-11T07:06:54.941Z</time></trkpt><trkpt lat="44.9606133" lon="9.9100067"><ele>61.0</ele><time>2026-04-11T07:06:55.941Z</time></trkpt><trkpt lat="44.9604783" lon="9.9103433"><ele>61.0</ele><time>2026-04-11T07:06:56.941Z</time></trkpt><trkpt lat="44.960325" lon="9.9106817"><ele>60.0</ele><time>2026-04-11T07:06:57.941Z</time></trkpt><trkpt lat="44.9601717" lon="9.9110167"><ele>59.0</ele><time>2026-04-11T07:06:58.941Z</time></trkpt><trkpt lat="44.96003" lon="9.911355"><ele>59.0</ele><time>2026-04-11T07:06:59.94Z</time></trkpt><trkpt lat="44.9598833" lon="9.911695"><ele>59.0</ele><time>2026-04-11T07:07:00.941Z</time></trkpt><trkpt lat="44.9597383" lon="9.9120433"><ele>57.5</ele><time>2026-04-11T07:07:01.941Z</time></trkpt><trkpt lat="44.9595917" lon="9.9123817"><ele>56.0</ele><time>2026-04-11T07:07:02.941Z</time></trkpt><trkpt lat="44.9594533" lon="9.9127183"><ele>56.0</ele><time>2026-04-11T07:07:03.941Z</time></trkpt><trkpt lat="44.9593167" lon="9.9130533"><ele>56.0</ele><time>2026-04-11T07:07:04.941Z</time></trkpt><trkpt lat="44.9591767" lon="9.913375"><ele>59.0</ele><time>2026-04-11T07:07:05.941Z</time></trkpt><trkpt lat="44.9590567" lon="9.91368"><ele>62.0</ele><time>2026-04-11T07:07:06.941Z</time></trkpt><trkpt lat="44.958925" lon="9.9139833"><ele>61.5</ele><time>2026-04-11T07:07:07.941Z</time></trkpt><trkpt lat="44.9587933" lon="9.9143"><ele>61.0</ele><time>2026-04-11T07:07:08.94Z</time></trkpt><trkpt lat="44.9586517" lon="9.91461"><ele>61.0</ele><time>2026-04-11T07:07:09.94Z</time></trkpt><trkpt lat="44.95852" lon="9.9149367"><ele>61.0</ele><time>2026-04-11T07:07:10.94Z</time></trkpt><trkpt lat="44.958385" lon="9.915265"><ele>60.5</ele><time>2026-04-11T07:07:11.94Z</time></trkpt><trkpt lat="44.9582467" lon="9.91559"><ele>60.0</ele><time>2026-04-11T07:07:12.94Z</time></trkpt><trkpt lat="44.958105" lon="9.91591"><ele>59.0</ele><time>2026-04-11T07:07:13.94Z</time></trkpt><trkpt lat="44.9579667" lon="9.9162317"><ele>58.0</ele><time>2026-04-11T07:07:14.94Z</time></trkpt><trkpt lat="44.9578283" lon="9.91655"><ele>58.5</ele><time>2026-04-11T07:07:15.94Z</time></trkpt><trkpt lat="44.95769" lon="9.9168767"><ele>59.0</ele><time>2026-04-11T07:07:16.94Z</time></trkpt><trkpt lat="44.9575533" lon="9.9172117"><ele>61.5</ele><time>2026-04-11T07:07:17.94Z</time></trkpt><trkpt lat="44.9574083" lon="9.91755"><ele>64.0</ele><time>2026-04-11T07:07:18.94Z</time></trkpt><trkpt lat="44.9572533" lon="9.917875"><ele>64.0</ele><time>2026-04-11T07:07:19.94Z</time></trkpt><trkpt lat="44.9570983" lon="9.9182033"><ele>64.0</ele><time>2026-04-11T07:07:20.94Z</time></trkpt><trkpt lat="44.9569433" lon="9.9185267"><ele>64.5</ele><time>2026-04-11T07:07:21.94Z</time></trkpt><trkpt lat="44.95679" lon="9.9188817"><ele>65.0</ele><time>2026-04-11T07:07:22.94Z</time></trkpt><trkpt lat="44.9566467" lon="9.9192117"><ele>64.0</ele><time>2026-04-11T07:07:23.94Z</time></trkpt><trkpt lat="44.9564967" lon="9.9195567"><ele>63.0</ele><time>2026-04-11T07:07:24.94Z</time></trkpt><trkpt lat="44.9563483" lon="9.919895"><ele>62.5</ele><time>2026-04-11T07:07:25.94Z</time></trkpt><trkpt lat="44.9562083" lon="9.9202433"><ele>62.0</ele><time>2026-04-11T07:07:26.939Z</time></trkpt><trkpt lat="44.9560583" lon="9.9205917"><ele>63.0</ele><time>2026-04-11T07:07:27.94Z</time></trkpt><trkpt lat="44.9559083" lon="9.9209267"><ele>64.0</ele><time>2026-04-11T07:07:28.94Z</time></trkpt><trkpt lat="44.9557667" lon="9.9212833"><ele>64.5</ele><time>2026-04-11T07:07:29.94Z</time></trkpt><trkpt lat="44.9556183" lon="9.92162"><ele>65.0</ele><time>2026-04-11T07:07:30.94Z</time></trkpt><trkpt lat="44.955465" lon="9.9219717"><ele>65.0</ele><time>2026-04-11T07:07:31.939Z</time></trkpt><trkpt lat="44.9553167" lon="9.9223133"><ele>65.0</ele><time>2026-04-11T07:07:32.94Z</time></trkpt><trkpt lat="44.9551667" lon="9.922665"><ele>64.5</ele><time>2026-04-11T07:07:33.94Z</time></trkpt><trkpt lat="44.9550183" lon="9.92301"><ele>64.0</ele><time>2026-04-11T07:07:34.94Z</time></trkpt><trkpt lat="44.954875" lon="9.9233633"><ele>63.5</ele><time>2026-04-11T07:07:35.94Z</time></trkpt><trkpt lat="44.9547267" lon="9.9237083"><ele>63.0</ele><time>2026-04-11T07:07:36.94Z</time></trkpt><trkpt lat="44.95459" lon="9.9240533"><ele>62.0</ele><time>2026-04-11T07:07:37.94Z</time></trkpt><trkpt lat="44.9544433" lon="9.9243983"><ele>61.0</ele><time>2026-04-11T07:07:38.94Z</time></trkpt><trkpt lat="44.9542967" lon="9.9247433"><ele>61.0</ele><time>2026-04-11T07:07:39.94Z</time></trkpt><trkpt lat="44.95415" lon="9.9250867"><ele>61.0</ele><time>2026-04-11T07:07:40.94Z</time></trkpt><trkpt lat="44.9540033" lon="9.9254367"><ele>61.0</ele><time>2026-04-11T07:07:41.94Z</time></trkpt><trkpt lat="44.95385" lon="9.9257833"><ele>61.0</ele><time>2026-04-11T07:07:42.939Z</time></trkpt><trkpt lat="44.9537017" lon="9.9261233"><ele>60.5</ele><time>2026-04-11T07:07:43.94Z</time></trkpt><trkpt lat="44.9535567" lon="9.926465"><ele>60.0</ele><time>2026-04-11T07:07:44.94Z</time></trkpt><trkpt lat="44.95341" lon="9.926805"><ele>60.5</ele><time>2026-04-11T07:07:45.939Z</time></trkpt><trkpt lat="44.95327" lon="9.9271483"><ele>61.0</ele><time>2026-04-11T07:07:46.94Z</time></trkpt><trkpt lat="44.9531233" lon="9.927485"><ele>60.0</ele><time>2026-04-11T07:07:47.94Z</time></trkpt><trkpt lat="44.9529733" lon="9.9278233"><ele>59.0</ele><time>2026-04-11T07:07:48.94Z</time></trkpt><trkpt lat="44.95283" lon="9.9281683"><ele>59.5</ele><time>2026-04-11T07:07:49.94Z</time></trkpt><trkpt lat="44.952685" lon="9.9285083"><ele>60.0</ele><time>2026-04-11T07:07:50.94Z</time></trkpt><trkpt lat="44.9525417" lon="9.92884"><ele>60.0</ele><time>2026-04-11T07:07:51.94Z</time></trkpt><trkpt lat="44.9523967" lon="9.929175"><ele>60.0</ele><time>2026-04-11T07:07:52.94Z</time></trkpt><trkpt lat="44.9522517" lon="9.9295117"><ele>60.0</ele><time>2026-04-11T07:07:53.94Z</time></trkpt><trkpt lat="44.9521083" lon="9.9298567"><ele>60.0</ele><time>2026-04-11T07:07:54.94Z</time></trkpt><trkpt lat="44.9519683" lon="9.9301767"><ele>59.5</ele><time>2026-04-11T07:07:55.94Z</time></trkpt><trkpt lat="44.9518267" lon="9.930505"><ele>59.0</ele><time>2026-04-11T07:07:56.94Z</time></trkpt><trkpt lat="44.9516867" lon="9.930835"><ele>57.0</ele><time>2026-04-11T07:07:57.94Z</time></trkpt><trkpt lat="44.9515483" lon="9.9311683"><ele>55.0</ele><time>2026-04-11T07:07:58.94Z</time></trkpt><trkpt lat="44.9514117" lon="9.931495"><ele>55.0</ele><time>2026-04-11T07:07:59.94Z</time></trkpt><trkpt lat="44.9512733" lon="9.9318167"><ele>55.0</ele><time>2026-04-11T07:08:00.94Z</time></trkpt><trkpt lat="44.95114" lon="9.9321317"><ele>55.0</ele><time>2026-04-11T07:08:01.94Z</time></trkpt><trkpt lat="44.951005" lon="9.93247"><ele>55.0</ele><time>2026-04-11T07:08:02.94Z</time></trkpt><trkpt lat="44.95086" lon="9.93279"><ele>56.5</ele><time>2026-04-11T07:08:03.94Z</time></trkpt><trkpt lat="44.9507167" lon="9.93311"><ele>58.0</ele><time>2026-04-11T07:08:04.94Z</time></trkpt><trkpt lat="44.950575" lon="9.9334317"><ele>58.0</ele><time>2026-04-11T07:08:05.94Z</time></trkpt><trkpt lat="44.9504317" lon="9.9337367"><ele>58.0</ele><time>2026-04-11T07:08:06.94Z</time></trkpt><trkpt lat="44.9503" lon="9.9340583"><ele>58.0</ele><time>2026-04-11T07:08:07.94Z</time></trkpt><trkpt lat="44.9501667" lon="9.9343783"><ele>58.0</ele><time>2026-04-11T07:08:08.94Z</time></trkpt><trkpt lat="44.9500317" lon="9.9346983"><ele>58.5</ele><time>2026-04-11T07:08:09.94Z</time></trkpt><trkpt lat="44.949895" lon="9.93502"><ele>59.0</ele><time>2026-04-11T07:08:10.94Z</time></trkpt><trkpt lat="44.9497583" lon="9.9353433"><ele>57.5</ele><time>2026-04-11T07:08:11.94Z</time></trkpt><trkpt lat="44.9496267" lon="9.9356633"><ele>56.0</ele><time>2026-04-11T07:08:12.94Z</time></trkpt><trkpt lat="44.9494933" lon="9.9359983"><ele>56.0</ele><time>2026-04-11T07:08:13.94Z</time></trkpt><trkpt lat="44.9493567" lon="9.9363267"><ele>56.0</ele><time>2026-04-11T07:08:14.94Z</time></trkpt><trkpt lat="44.949225" lon="9.9366483"><ele>57.0</ele><time>2026-04-11T07:08:15.94Z</time></trkpt><trkpt lat="44.9490833" lon="9.9369717"><ele>58.0</ele><time>2026-04-11T07:08:16.94Z</time></trkpt><trkpt lat="44.9489467" lon="9.9373"><ele>58.0</ele><time>2026-04-11T07:08:17.94Z</time></trkpt><trkpt lat="44.9488033" lon="9.9376267"><ele>58.0</ele><time>2026-04-11T07:08:18.94Z</time></trkpt><trkpt lat="44.94866" lon="9.9379567"><ele>58.0</ele><time>2026-04-11T07:08:19.939Z</time></trkpt><trkpt lat="44.94852" lon="9.9382783"><ele>58.0</ele><time>2026-04-11T07:08:20.94Z</time></trkpt><trkpt lat="44.948375" lon="9.938615"><ele>58.0</ele><time>2026-04-11T07:08:21.94Z</time></trkpt><trkpt lat="44.948225" lon="9.93894"><ele>58.0</ele><time>2026-04-11T07:08:22.94Z</time></trkpt><trkpt lat="44.9480883" lon="9.9392717"><ele>58.0</ele><time>2026-04-11T07:08:23.94Z</time></trkpt><trkpt lat="44.9479483" lon="9.9396067"><ele>58.0</ele><time>2026-04-11T07:08:24.94Z</time></trkpt><trkpt lat="44.9478117" lon="9.93994"><ele>57.5</ele><time>2026-04-11T07:08:25.94Z</time></trkpt><trkpt lat="44.94767" lon="9.9402733"><ele>57.0</ele><time>2026-04-11T07:08:26.94Z</time></trkpt><trkpt lat="44.947535" lon="9.9405983"><ele>56.5</ele><time>2026-04-11T07:08:27.94Z</time></trkpt><trkpt lat="44.9473983" lon="9.9409117"><ele>56.0</ele><time>2026-04-11T07:08:28.94Z</time></trkpt><trkpt lat="44.947255" lon="9.94124"><ele>56.0</ele><time>2026-04-11T07:08:29.94Z</time></trkpt><trkpt lat="44.9471117" lon="9.9415683"><ele>56.0</ele><time>2026-04-11T07:08:30.939Z</time></trkpt><trkpt lat="44.946975" lon="9.9419033"><ele>56.5</ele><time>2026-04-11T07:08:31.94Z</time></trkpt><trkpt lat="44.946835" lon="9.9422317"><ele>57.0</ele><time>2026-04-11T07:08:32.94Z</time></trkpt><trkpt lat="44.9466967" lon="9.942555"><ele>57.0</ele><time>2026-04-11T07:08:33.94Z</time></trkpt><trkpt lat="44.946555" lon="9.9428767"><ele>57.0</ele><time>2026-04-11T07:08:34.94Z</time></trkpt><trkpt lat="44.9464167" lon="9.9432067"><ele>55.0</ele><time>2026-04-11T07:08:35.94Z</time></trkpt><trkpt lat="44.94628" lon="9.9435317"><ele>53.0</ele><time>2026-04-11T07:08:36.94Z</time></trkpt><trkpt lat="44.9461417" lon="9.9438533"><ele>53.0</ele><time>2026-04-11T07:08:37.94Z</time></trkpt><trkpt lat="44.9459983" lon="9.9441883"><ele>53.0</ele><time>2026-04-11T07:08:38.94Z</time></trkpt><trkpt lat="44.9458567" lon="9.94451"><ele>53.0</ele><time>2026-04-11T07:08:39.94Z</time></trkpt><trkpt lat="44.9457217" lon="9.944825"><ele>53.0</ele><time>2026-04-11T07:08:40.94Z</time></trkpt><trkpt lat="44.9455833" lon="9.945145"><ele>53.0</ele><time>2026-04-11T07:08:41.94Z</time></trkpt><trkpt lat="44.945445" lon="9.94546"><ele>53.0</ele><time>2026-04-11T07:08:42.94Z</time></trkpt><trkpt lat="44.945315" lon="9.9457717"><ele>53.5</ele><time>2026-04-11T07:08:43.94Z</time></trkpt><trkpt lat="44.9451833" lon="9.946095"><ele>54.0</ele><time>2026-04-11T07:08:44.94Z</time></trkpt><trkpt lat="44.9450483" lon="9.946425"><ele>54.5</ele><time>2026-04-11T07:08:45.94Z</time></trkpt><trkpt lat="44.9449117" lon="9.9467533"><ele>55.0</ele><time>2026-04-11T07:08:46.94Z</time></trkpt><trkpt lat="44.944775" lon="9.9470683"><ele>55.0</ele><time>2026-04-11T07:08:47.94Z</time></trkpt><trkpt lat="44.9446367" lon="9.9473833"><ele>55.0</ele><time>2026-04-11T07:08:48.94Z</time></trkpt><trkpt lat="44.9445033" lon="9.9477017"><ele>55.0</ele><time>2026-04-11T07:08:49.94Z</time></trkpt><trkpt lat="44.944375" lon="9.9480217"><ele>55.0</ele><time>2026-04-11T07:08:50.94Z</time></trkpt><trkpt lat="44.94424" lon="9.9483383"><ele>54.0</ele><time>2026-04-11T07:08:51.94Z</time></trkpt><trkpt lat="44.9441117" lon="9.9486683"><ele>53.0</ele><time>2026-04-11T07:08:52.94Z</time></trkpt><trkpt lat="44.9439817" lon="9.9489917"><ele>52.5</ele><time>2026-04-11T07:08:53.94Z</time></trkpt><trkpt lat="44.9438467" lon="9.9493117"><ele>52.0</ele><time>2026-04-11T07:08:54.94Z</time></trkpt><trkpt lat="44.9437183" lon="9.9496217"><ele>52.0</ele><time>2026-04-11T07:08:55.94Z</time></trkpt><trkpt lat="44.943575" lon="9.9499383"><ele>52.0</ele><time>2026-04-11T07:08:56.94Z</time></trkpt><trkpt lat="44.9434383" lon="9.95026"><ele>52.0</ele><time>2026-04-11T07:08:57.94Z</time></trkpt><trkpt lat="44.943305" lon="9.9505783"><ele>52.0</ele><time>2026-04-11T07:08:58.94Z</time></trkpt><trkpt lat="44.94317" lon="9.9509"><ele>52.0</ele><time>2026-04-11T07:08:59.94Z</time></trkpt><trkpt lat="44.9430367" lon="9.95122"><ele>52.0</ele><time>2026-04-11T07:09:00.94Z</time></trkpt><trkpt lat="44.9429067" lon="9.9515417"><ele>52.0</ele><time>2026-04-11T07:09:01.94Z</time></trkpt><trkpt lat="44.94276" lon="9.9518633"><ele>52.0</ele><time>2026-04-11T07:09:02.94Z</time></trkpt><trkpt lat="44.94261" lon="9.9521867"><ele>53.0</ele><time>2026-04-11T07:09:03.94Z</time></trkpt><trkpt lat="44.942465" lon="9.9524983"><ele>54.0</ele><time>2026-04-11T07:09:04.94Z</time></trkpt><trkpt lat="44.94232" lon="9.952825"><ele>54.0</ele><time>2026-04-11T07:09:05.94Z</time></trkpt><trkpt lat="44.942175" lon="9.9531433"><ele>54.0</ele><time>2026-04-11T07:09:06.94Z</time></trkpt><trkpt lat="44.9420317" lon="9.953475"><ele>53.0</ele><time>2026-04-11T07:09:07.94Z</time></trkpt><trkpt lat="44.941895" lon="9.95379"><ele>52.0</ele><time>2026-04-11T07:09:08.94Z</time></trkpt><trkpt lat="44.94176" lon="9.9541183"><ele>51.5</ele><time>2026-04-11T07:09:09.94Z</time></trkpt><trkpt lat="44.941625" lon="9.95444"><ele>51.0</ele><time>2026-04-11T07:09:10.94Z</time></trkpt><trkpt lat="44.9414883" lon="9.9547533"><ele>51.5</ele><time>2026-04-11T07:09:11.94Z</time></trkpt><trkpt lat="44.9413517" lon="9.9550733"><ele>52.0</ele><time>2026-04-11T07:09:12.94Z</time></trkpt><trkpt lat="44.9412117" lon="9.9553983"><ele>52.0</ele><time>2026-04-11T07:09:13.94Z</time></trkpt><trkpt lat="44.9410717" lon="9.955725"><ele>52.0</ele><time>2026-04-11T07:09:14.94Z</time></trkpt><trkpt lat="44.9409367" lon="9.9560567"><ele>52.0</ele><time>2026-04-11T07:09:15.94Z</time></trkpt><trkpt lat="44.9407933" lon="9.9563967"><ele>52.0</ele><time>2026-04-11T07:09:16.94Z</time></trkpt><trkpt lat="44.940665" lon="9.9567117"><ele>51.5</ele><time>2026-04-11T07:09:17.939Z</time></trkpt><trkpt lat="44.9404817" lon="9.9569883"><ele>51.0</ele><time>2026-04-11T07:09:18.94Z</time></trkpt><trkpt lat="44.9403417" lon="9.9573233"><ele>51.0</ele><time>2026-04-11T07:09:19.939Z</time></trkpt><trkpt lat="44.9402067" lon="9.9576917"><ele>51.0</ele><time>2026-04-11T07:09:20.94Z</time></trkpt><trkpt lat="44.9400833" lon="9.9580533"><ele>52.5</ele><time>2026-04-11T07:09:21.94Z</time></trkpt><trkpt lat="44.9399483" lon="9.9583883"><ele>54.0</ele><time>2026-04-11T07:09:22.94Z</time></trkpt><trkpt lat="44.9398267" lon="9.958725"><ele>54.0</ele><time>2026-04-11T07:09:23.939Z</time></trkpt><trkpt lat="44.939695" lon="9.9590483"><ele>54.0</ele><time>2026-04-11T07:09:24.94Z</time></trkpt><trkpt lat="44.9395567" lon="9.9593733"><ele>52.5</ele><time>2026-04-11T07:09:25.94Z</time></trkpt><trkpt lat="44.9394117" lon="9.9596983"><ele>51.0</ele><time>2026-04-11T07:09:26.94Z</time></trkpt><trkpt lat="44.93925" lon="9.9600233"><ele>51.0</ele><time>2026-04-11T07:09:27.94Z</time></trkpt><trkpt lat="44.93908" lon="9.9603683"><ele>51.0</ele><time>2026-04-11T07:09:28.939Z</time></trkpt><trkpt lat="44.9389133" lon="9.9607133"><ele>49.5</ele><time>2026-04-11T07:09:29.94Z</time></trkpt><trkpt lat="44.938745" lon="9.961075"><ele>48.0</ele><time>2026-04-11T07:09:30.94Z</time></trkpt><trkpt lat="44.9385717" lon="9.9614367"><ele>48.0</ele><time>2026-04-11T07:09:31.94Z</time></trkpt><trkpt lat="44.9383967" lon="9.961805"><ele>48.0</ele><time>2026-04-11T07:09:32.94Z</time></trkpt><trkpt lat="44.93822" lon="9.9621667"><ele>48.0</ele><time>2026-04-11T07:09:33.94Z</time></trkpt><trkpt lat="44.93804" lon="9.96252"><ele>48.0</ele><time>2026-04-11T07:09:34.94Z</time></trkpt><trkpt lat="44.93786" lon="9.96289"><ele>48.5</ele><time>2026-04-11T07:09:35.94Z</time></trkpt><trkpt lat="44.9376767" lon="9.9632733"><ele>49.0</ele><time>2026-04-11T07:09:36.94Z</time></trkpt><trkpt lat="44.937495" lon="9.96364"><ele>49.5</ele><time>2026-04-11T07:09:37.94Z</time></trkpt><trkpt lat="44.9373" lon="9.9640033"><ele>50.0</ele><time>2026-04-11T07:09:38.94Z</time></trkpt><trkpt lat="44.937115" lon="9.9643633"><ele>50.0</ele><time>2026-04-11T07:09:39.94Z</time></trkpt><trkpt lat="44.9369417" lon="9.9647183"><ele>50.0</ele><time>2026-04-11T07:09:40.939Z</time></trkpt><trkpt lat="44.936765" lon="9.9650767"><ele>49.0</ele><time>2026-04-11T07:09:41.94Z</time></trkpt><trkpt lat="44.936595" lon="9.96542"><ele>48.0</ele><time>2026-04-11T07:09:42.94Z</time></trkpt><trkpt lat="44.9364267" lon="9.9657533"><ele>47.5</ele><time>2026-04-11T07:09:43.94Z</time></trkpt><trkpt lat="44.936265" lon="9.9660917"><ele>47.0</ele><time>2026-04-11T07:09:44.94Z</time></trkpt><trkpt lat="44.9361033" lon="9.9664283"><ele>47.0</ele><time>2026-04-11T07:09:45.94Z</time></trkpt><trkpt lat="44.9359433" lon="9.9667567"><ele>47.0</ele><time>2026-04-11T07:09:46.94Z</time></trkpt><trkpt lat="44.9357833" lon="9.96708"><ele>47.0</ele><time>2026-04-11T07:09:47.94Z</time></trkpt><trkpt lat="44.9356267" lon="9.9674"><ele>47.0</ele><time>2026-04-11T07:09:48.94Z</time></trkpt><trkpt lat="44.9354617" lon="9.9677217"><ele>47.0</ele><time>2026-04-11T07:09:49.94Z</time></trkpt><trkpt lat="44.9353067" lon="9.9680467"><ele>47.0</ele><time>2026-04-11T07:09:50.94Z</time></trkpt><trkpt lat="44.9351483" lon="9.9683783"><ele>48.0</ele><time>2026-04-11T07:09:51.94Z</time></trkpt><trkpt lat="44.934985" lon="9.9687"><ele>49.0</ele><time>2026-04-11T07:09:52.939Z</time></trkpt><trkpt lat="44.93483" lon="9.9690217"><ele>47.5</ele><time>2026-04-11T07:09:53.94Z</time></trkpt><trkpt lat="44.9346717" lon="9.969345"><ele>46.0</ele><time>2026-04-11T07:09:54.939Z</time></trkpt><trkpt lat="44.934515" lon="9.969665"><ele>46.0</ele><time>2026-04-11T07:09:55.94Z</time></trkpt><trkpt lat="44.9343567" lon="9.9699983"><ele>46.0</ele><time>2026-04-11T07:09:56.94Z</time></trkpt><trkpt lat="44.9341967" lon="9.9703167"><ele>46.0</ele><time>2026-04-11T07:09:57.94Z</time></trkpt><trkpt lat="44.9340417" lon="9.9706333"><ele>46.0</ele><time>2026-04-11T07:09:58.939Z</time></trkpt><trkpt lat="44.9338883" lon="9.9709617"><ele>46.0</ele><time>2026-04-11T07:09:59.94Z</time></trkpt><trkpt lat="44.933735" lon="9.97129"><ele>46.0</ele><time>2026-04-11T07:10:00.94Z</time></trkpt><trkpt lat="44.9335733" lon="9.971615"><ele>46.5</ele><time>2026-04-11T07:10:01.94Z</time></trkpt><trkpt lat="44.9334083" lon="9.97195"><ele>47.0</ele><time>2026-04-11T07:10:02.94Z</time></trkpt><trkpt lat="44.9332467" lon="9.9722833"><ele>47.5</ele><time>2026-04-11T07:10:03.94Z</time></trkpt><trkpt lat="44.9330833" lon="9.9726217"><ele>48.0</ele><time>2026-04-11T07:10:04.94Z</time></trkpt><trkpt lat="44.9329183" lon="9.9729667"><ele>48.0</ele><time>2026-04-11T07:10:05.94Z</time></trkpt><trkpt lat="44.93276" lon="9.9732883"><ele>48.0</ele><time>2026-04-11T07:10:06.94Z</time></trkpt><trkpt lat="44.9325917" lon="9.97363"><ele>48.5</ele><time>2026-04-11T07:10:07.94Z</time></trkpt><trkpt lat="44.9324233" lon="9.9739683"><ele>49.0</ele><time>2026-04-11T07:10:08.94Z</time></trkpt><trkpt lat="44.9322633" lon="9.9743033"><ele>49.0</ele><time>2026-04-11T07:10:09.94Z</time></trkpt><trkpt lat="44.9321" lon="9.9746433"><ele>49.0</ele><time>2026-04-11T07:10:10.94Z</time></trkpt><trkpt lat="44.9319317" lon="9.974985"><ele>49.0</ele><time>2026-04-11T07:10:11.939Z</time></trkpt><trkpt lat="44.9317617" lon="9.9753183"><ele>49.0</ele><time>2026-04-11T07:10:12.94Z</time></trkpt><trkpt lat="44.9316033" lon="9.9756483"><ele>49.0</ele><time>2026-04-11T07:10:13.94Z</time></trkpt><trkpt lat="44.9314483" lon="9.9759767"><ele>49.0</ele><time>2026-04-11T07:10:14.939Z</time></trkpt><trkpt lat="44.9312917" lon="9.9763117"><ele>49.0</ele><time>2026-04-11T07:10:15.94Z</time></trkpt><trkpt lat="44.9311283" lon="9.9766433"><ele>49.0</ele><time>2026-04-11T07:10:16.94Z</time></trkpt><trkpt lat="44.93097" lon="9.9769683"><ele>49.5</ele><time>2026-04-11T07:10:17.94Z</time></trkpt><trkpt lat="44.9308067" lon="9.9772883"><ele>50.0</ele><time>2026-04-11T07:10:18.94Z</time></trkpt><trkpt lat="44.9306433" lon="9.9776167"><ele>50.0</ele><time>2026-04-11T07:10:19.94Z</time></trkpt><trkpt lat="44.9304867" lon="9.97794"><ele>50.0</ele><time>2026-04-11T07:10:20.94Z</time></trkpt><trkpt lat="44.9303267" lon="9.9782633"><ele>49.5</ele><time>2026-04-11T07:10:21.94Z</time></trkpt><trkpt lat="44.9301667" lon="9.9785983"><ele>49.0</ele><time>2026-04-11T07:10:22.94Z</time></trkpt><trkpt lat="44.9300067" lon="9.9789317"><ele>50.0</ele><time>2026-04-11T07:10:23.939Z</time></trkpt><trkpt lat="44.9298483" lon="9.9792583"><ele>51.0</ele><time>2026-04-11T07:10:24.94Z</time></trkpt><trkpt lat="44.9296933" lon="9.9795817"><ele>51.0</ele><time>2026-04-11T07:10:25.94Z</time></trkpt><trkpt lat="44.9295317" lon="9.979915"><ele>51.0</ele><time>2026-04-11T07:10:26.94Z</time></trkpt><trkpt lat="44.929365" lon="9.98025"><ele>50.0</ele><time>2026-04-11T07:10:27.94Z</time></trkpt><trkpt lat="44.9292033" lon="9.9805767"><ele>49.0</ele><time>2026-04-11T07:10:28.94Z</time></trkpt><trkpt lat="44.92905" lon="9.9809033"><ele>49.0</ele><time>2026-04-11T07:10:29.94Z</time></trkpt><trkpt lat="44.9288917" lon="9.981235"><ele>49.0</ele><time>2026-04-11T07:10:30.94Z</time></trkpt><trkpt lat="44.9287367" lon="9.98156"><ele>49.0</ele><time>2026-04-11T07:10:31.94Z</time></trkpt><trkpt lat="44.9285717" lon="9.9818983"><ele>49.0</ele><time>2026-04-11T07:10:32.94Z</time></trkpt><trkpt lat="44.9284117" lon="9.9822283"><ele>48.5</ele><time>2026-04-11T07:10:33.94Z</time></trkpt><trkpt lat="44.9282483" lon="9.9825433"><ele>48.0</ele><time>2026-04-11T07:10:34.94Z</time></trkpt><trkpt lat="44.9280867" lon="9.9828733"><ele>48.0</ele><time>2026-04-11T07:10:35.939Z</time></trkpt><trkpt lat="44.9279233" lon="9.9832083"><ele>48.0</ele><time>2026-04-11T07:10:36.94Z</time></trkpt><trkpt lat="44.92777" lon="9.9835283"><ele>48.5</ele><time>2026-04-11T07:10:37.94Z</time></trkpt><trkpt lat="44.9276117" lon="9.9838517"><ele>49.0</ele><time>2026-04-11T07:10:38.94Z</time></trkpt><trkpt lat="44.9274567" lon="9.9841667"><ele>49.0</ele><time>2026-04-11T07:10:39.94Z</time></trkpt><trkpt lat="44.9272967" lon="9.9844983"><ele>49.0</ele><time>2026-04-11T07:10:40.94Z</time></trkpt><trkpt lat="44.927145" lon="9.984825"><ele>49.0</ele><time>2026-04-11T07:10:41.939Z</time></trkpt><trkpt lat="44.92699" lon="9.98518"><ele>49.0</ele><time>2026-04-11T07:10:42.94Z</time></trkpt><trkpt lat="44.9268283" lon="9.9855417"><ele>48.5</ele><time>2026-04-11T07:10:43.94Z</time></trkpt><trkpt lat="44.9266567" lon="9.9859083"><ele>48.0</ele><time>2026-04-11T07:10:44.94Z</time></trkpt><trkpt lat="44.9264783" lon="9.9862683"><ele>48.0</ele><time>2026-04-11T07:10:45.939Z</time></trkpt><trkpt lat="44.9262967" lon="9.986635"><ele>48.0</ele><time>2026-04-11T07:10:46.94Z</time></trkpt><trkpt lat="44.9261167" lon="9.9870067"><ele>48.5</ele><time>2026-04-11T07:10:47.94Z</time></trkpt><trkpt lat="44.9259417" lon="9.9873733"><ele>49.0</ele><time>2026-04-11T07:10:48.94Z</time></trkpt><trkpt lat="44.9257617" lon="9.987735"><ele>50.0</ele><time>2026-04-11T07:10:49.94Z</time></trkpt><trkpt lat="44.925585" lon="9.9881033"><ele>51.0</ele><time>2026-04-11T07:10:50.94Z</time></trkpt><trkpt lat="44.925405" lon="9.988465"><ele>52.0</ele><time>2026-04-11T07:10:51.94Z</time></trkpt><trkpt lat="44.9252067" lon="9.9888317"><ele>53.0</ele><time>2026-04-11T07:10:52.94Z</time></trkpt><trkpt lat="44.9250167" lon="9.9891883"><ele>51.0</ele><time>2026-04-11T07:10:53.94Z</time></trkpt><trkpt lat="44.92484" lon="9.9895317"><ele>49.0</ele><time>2026-04-11T07:10:54.94Z</time></trkpt><trkpt lat="44.9246683" lon="9.9898733"><ele>50.0</ele><time>2026-04-11T07:10:55.94Z</time></trkpt><trkpt lat="44.924505" lon="9.9902233"><ele>51.0</ele><time>2026-04-11T07:10:56.94Z</time></trkpt><trkpt lat="44.9243383" lon="9.99055"><ele>51.0</ele><time>2026-04-11T07:10:57.94Z</time></trkpt><trkpt lat="44.92418" lon="9.99088"><ele>51.0</ele><time>2026-04-11T07:10:58.94Z</time></trkpt><trkpt lat="44.9240217" lon="9.9912083"><ele>51.0</ele><time>2026-04-11T07:10:59.94Z</time></trkpt><trkpt lat="44.9238633" lon="9.9915217"><ele>51.0</ele><time>2026-04-11T07:11:00.94Z</time></trkpt><trkpt lat="44.9237033" lon="9.99185"><ele>51.0</ele><time>2026-04-11T07:11:01.94Z</time></trkpt><trkpt lat="44.9235483" lon="9.9921717"><ele>51.0</ele><time>2026-04-11T07:11:02.94Z</time></trkpt><trkpt lat="44.9233883" lon="9.992495"><ele>51.0</ele><time>2026-04-11T07:11:03.94Z</time></trkpt><trkpt lat="44.9232383" lon="9.9928083"><ele>51.0</ele><time>2026-04-11T07:11:04.94Z</time></trkpt><trkpt lat="44.923085" lon="9.993125"><ele>51.5</ele><time>2026-04-11T07:11:05.94Z</time></trkpt><trkpt lat="44.92293" lon="9.9934433"><ele>52.0</ele><time>2026-04-11T07:11:06.94Z</time></trkpt><trkpt lat="44.9227733" lon="9.9937617"><ele>52.0</ele><time>2026-04-11T07:11:07.94Z</time></trkpt><trkpt lat="44.9226183" lon="9.9940783"><ele>52.0</ele><time>2026-04-11T07:11:08.94Z</time></trkpt><trkpt lat="44.922465" lon="9.994395"><ele>53.0</ele><time>2026-04-11T07:11:09.94Z</time></trkpt><trkpt lat="44.9223067" lon="9.994715"><ele>54.0</ele><time>2026-04-11T07:11:10.94Z</time></trkpt><trkpt lat="44.9221517" lon="9.9950383"><ele>54.0</ele><time>2026-04-11T07:11:11.94Z</time></trkpt><trkpt lat="44.9219933" lon="9.9953733"><ele>54.0</ele><time>2026-04-11T07:11:12.939Z</time></trkpt><trkpt lat="44.9218267" lon="9.9956983"><ele>54.5</ele><time>2026-04-11T07:11:13.94Z</time></trkpt><trkpt lat="44.92167" lon="9.9960183"><ele>55.0</ele><time>2026-04-11T07:11:14.94Z</time></trkpt><trkpt lat="44.9215167" lon="9.9963383"><ele>53.5</ele><time>2026-04-11T07:11:15.94Z</time></trkpt><trkpt lat="44.9213533" lon="9.9966733"><ele>52.0</ele><time>2026-04-11T07:11:16.94Z</time></trkpt><trkpt lat="44.921185" lon="9.997015"><ele>52.0</ele><time>2026-04-11T07:11:17.94Z</time></trkpt><trkpt lat="44.9210183" lon="9.9973517"><ele>52.0</ele><time>2026-04-11T07:11:18.94Z</time></trkpt><trkpt lat="44.9208533" lon="9.9976933"><ele>52.5</ele><time>2026-04-11T07:11:19.94Z</time></trkpt><trkpt lat="44.9206867" lon="9.9980417"><ele>53.0</ele><time>2026-04-11T07:11:20.94Z</time></trkpt><trkpt lat="44.92052" lon="9.9983833"><ele>53.0</ele><time>2026-04-11T07:11:21.94Z</time></trkpt><trkpt lat="44.9203517" lon="9.9987267"><ele>53.0</ele><time>2026-04-11T07:11:22.94Z</time></trkpt><trkpt lat="44.920185" lon="9.9990583"><ele>54.5</ele><time>2026-04-11T07:11:23.94Z</time></trkpt><trkpt lat="44.9200167" lon="9.9994033"><ele>56.0</ele><time>2026-04-11T07:11:24.94Z</time></trkpt><trkpt lat="44.9198517" lon="9.999745"><ele>56.0</ele><time>2026-04-11T07:11:25.94Z</time></trkpt><trkpt lat="44.919685" lon="10.000085"><ele>56.0</ele><time>2026-04-11T07:11:26.94Z</time></trkpt><trkpt lat="44.9195233" lon="10.000425"><ele>56.0</ele><time>2026-04-11T07:11:27.94Z</time></trkpt><trkpt lat="44.9193567" lon="10.0007717"><ele>56.0</ele><time>2026-04-11T07:11:28.94Z</time></trkpt><trkpt lat="44.9191933" lon="10.0011217"><ele>54.0</ele><time>2026-04-11T07:11:29.94Z</time></trkpt><trkpt lat="44.9190283" lon="10.0014617"><ele>52.0</ele><time>2026-04-11T07:11:30.94Z</time></trkpt><trkpt lat="44.9188583" lon="10.0017967"><ele>52.0</ele><time>2026-04-11T07:11:31.94Z</time></trkpt><trkpt lat="44.9186917" lon="10.0021367"><ele>52.0</ele><time>2026-04-11T07:11:32.94Z</time></trkpt><trkpt lat="44.9185233" lon="10.0024817"><ele>53.0</ele><time>2026-04-11T07:11:33.94Z</time></trkpt><trkpt lat="44.91836" lon="10.0028183"><ele>54.0</ele><time>2026-04-11T07:11:34.939Z</time></trkpt><trkpt lat="44.9181917" lon="10.00316"><ele>53.5</ele><time>2026-04-11T07:11:35.94Z</time></trkpt><trkpt lat="44.91803" lon="10.0034933"><ele>53.0</ele><time>2026-04-11T07:11:36.94Z</time></trkpt><trkpt lat="44.9178717" lon="10.0038283"><ele>54.0</ele><time>2026-04-11T07:11:37.94Z</time></trkpt><trkpt lat="44.9177" lon="10.0041667"><ele>55.0</ele><time>2026-04-11T07:11:38.94Z</time></trkpt><trkpt lat="44.9175317" lon="10.0045"><ele>55.0</ele><time>2026-04-11T07:11:39.94Z</time></trkpt><trkpt lat="44.9173683" lon="10.0048367"><ele>55.0</ele><time>2026-04-11T07:11:40.94Z</time></trkpt><trkpt lat="44.9172033" lon="10.0051817"><ele>55.0</ele><time>2026-04-11T07:11:41.94Z</time></trkpt><trkpt lat="44.9170367" lon="10.0055267"><ele>55.0</ele><time>2026-04-11T07:11:42.94Z</time></trkpt><trkpt lat="44.9168717" lon="10.00587"><ele>56.0</ele><time>2026-04-11T07:11:43.94Z</time></trkpt><trkpt lat="44.916705" lon="10.0062133"><ele>57.0</ele><time>2026-04-11T07:11:44.94Z</time></trkpt><trkpt lat="44.9165333" lon="10.00655"><ele>56.5</ele><time>2026-04-11T07:11:45.94Z</time></trkpt><trkpt lat="44.9163717" lon="10.006885"><ele>56.0</ele><time>2026-04-11T07:11:46.94Z</time></trkpt><trkpt lat="44.9162067" lon="10.0072267"><ele>55.5</ele><time>2026-04-11T07:11:47.94Z</time></trkpt><trkpt lat="44.9160417" lon="10.0075767"><ele>55.0</ele><time>2026-04-11T07:11:48.94Z</time></trkpt><trkpt lat="44.9158717" lon="10.0079167"><ele>55.0</ele><time>2026-04-11T07:11:49.94Z</time></trkpt><trkpt lat="44.91571" lon="10.0082583"><ele>55.0</ele><time>2026-04-11T07:11:50.94Z</time></trkpt><trkpt lat="44.9155383" lon="10.0086133"><ele>55.0</ele><time>2026-04-11T07:11:51.94Z</time></trkpt><trkpt lat="44.9153667" lon="10.0089567"><ele>55.0</ele><time>2026-04-11T07:11:52.939Z</time></trkpt><trkpt lat="44.9151917" lon="10.0092983"><ele>55.5</ele><time>2026-04-11T07:11:53.94Z</time></trkpt><trkpt lat="44.9150217" lon="10.009645"><ele>56.0</ele><time>2026-04-11T07:11:54.94Z</time></trkpt><trkpt lat="44.9148517" lon="10.0099983"><ele>55.0</ele><time>2026-04-11T07:11:55.94Z</time></trkpt><trkpt lat="44.91468" lon="10.0103467"><ele>54.0</ele><time>2026-04-11T07:11:56.94Z</time></trkpt><trkpt lat="44.9145133" lon="10.0106967"><ele>54.5</ele><time>2026-04-11T07:11:57.94Z</time></trkpt><trkpt lat="44.9143417" lon="10.0110383"><ele>55.0</ele><time>2026-04-11T07:11:58.94Z</time></trkpt><trkpt lat="44.9141767" lon="10.0113767"><ele>56.0</ele><time>2026-04-11T07:11:59.94Z</time></trkpt><trkpt lat="44.9140133" lon="10.0117167"><ele>57.0</ele><time>2026-04-11T07:12:00.94Z</time></trkpt><trkpt lat="44.913845" lon="10.0120583"><ele>57.0</ele><time>2026-04-11T07:12:01.939Z</time></trkpt><trkpt lat="44.9136933" lon="10.0123983"><ele>57.0</ele><time>2026-04-11T07:12:02.94Z</time></trkpt><trkpt lat="44.9135383" lon="10.0127383"><ele>57.5</ele><time>2026-04-11T07:12:03.939Z</time></trkpt><trkpt lat="44.9133767" lon="10.0130967"><ele>58.0</ele><time>2026-04-11T07:12:04.94Z</time></trkpt><trkpt lat="44.9132117" lon="10.0134483"><ele>57.0</ele><time>2026-04-11T07:12:05.94Z</time></trkpt><trkpt lat="44.91305" lon="10.01379"><ele>56.0</ele><time>2026-04-11T07:12:06.939Z</time></trkpt><trkpt lat="44.91289" lon="10.014135"><ele>56.0</ele><time>2026-04-11T07:12:07.94Z</time></trkpt><trkpt lat="44.9127283" lon="10.0144583"><ele>56.0</ele><time>2026-04-11T07:12:08.94Z</time></trkpt><trkpt lat="44.91256" lon="10.0147883"><ele>56.0</ele><time>2026-04-11T07:12:09.94Z</time></trkpt><trkpt lat="44.9123917" lon="10.0151317"><ele>56.0</ele><time>2026-04-11T07:12:10.939Z</time></trkpt><trkpt lat="44.9122167" lon="10.0154717"><ele>56.0</ele><time>2026-04-11T07:12:11.939Z</time></trkpt><trkpt lat="44.9120383" lon="10.0158083"><ele>56.0</ele><time>2026-04-11T07:12:12.94Z</time></trkpt><trkpt lat="44.9118617" lon="10.0161583"><ele>56.0</ele><time>2026-04-11T07:12:13.94Z</time></trkpt><trkpt lat="44.91169" lon="10.0164933"><ele>56.0</ele><time>2026-04-11T07:12:14.94Z</time></trkpt><trkpt lat="44.9115233" lon="10.0168317"><ele>56.0</ele><time>2026-04-11T07:12:15.94Z</time></trkpt><trkpt lat="44.9113533" lon="10.0171833"><ele>56.0</ele><time>2026-04-11T07:12:16.94Z</time></trkpt><trkpt lat="44.9111867" lon="10.017525"><ele>55.0</ele><time>2026-04-11T07:12:17.94Z</time></trkpt><trkpt lat="44.9110217" lon="10.0178633"><ele>54.0</ele><time>2026-04-11T07:12:18.94Z</time></trkpt><trkpt lat="44.910855" lon="10.018205"><ele>56.0</ele><time>2026-04-11T07:12:19.94Z</time></trkpt><trkpt lat="44.910685" lon="10.0185483"><ele>58.0</ele><time>2026-04-11T07:12:20.94Z</time></trkpt><trkpt lat="44.9105183" lon="10.0188933"><ele>56.5</ele><time>2026-04-11T07:12:21.94Z</time></trkpt><trkpt lat="44.910355" lon="10.01924"><ele>55.0</ele><time>2026-04-11T07:12:22.94Z</time></trkpt><trkpt lat="44.9101867" lon="10.0195867"><ele>55.5</ele><time>2026-04-11T07:12:23.94Z</time></trkpt><trkpt lat="44.9100233" lon="10.01993"><ele>56.0</ele><time>2026-04-11T07:12:24.94Z</time></trkpt><trkpt lat="44.9098517" lon="10.0202683"><ele>56.0</ele><time>2026-04-11T07:12:25.94Z</time></trkpt><trkpt lat="44.9096783" lon="10.0206217"><ele>56.0</ele><time>2026-04-11T07:12:26.94Z</time></trkpt><trkpt lat="44.9095117" lon="10.02095"><ele>56.0</ele><time>2026-04-11T07:12:27.94Z</time></trkpt><trkpt lat="44.909345" lon="10.0212867"><ele>56.0</ele><time>2026-04-11T07:12:28.94Z</time></trkpt><trkpt lat="44.9091767" lon="10.0216283"><ele>56.5</ele><time>2026-04-11T07:12:29.94Z</time></trkpt><trkpt lat="44.90901" lon="10.02198"><ele>57.0</ele><time>2026-04-11T07:12:30.939Z</time></trkpt><trkpt lat="44.9088417" lon="10.0223383"><ele>57.5</ele><time>2026-04-11T07:12:31.94Z</time></trkpt><trkpt lat="44.90867" lon="10.0226967"><ele>58.0</ele><time>2026-04-11T07:12:32.939Z</time></trkpt><trkpt lat="44.9085" lon="10.0230433"><ele>57.0</ele><time>2026-04-11T07:12:33.94Z</time></trkpt><trkpt lat="44.9083267" lon="10.0233867"><ele>56.0</ele><time>2026-04-11T07:12:34.939Z</time></trkpt><trkpt lat="44.908155" lon="10.0237367"><ele>56.0</ele><time>2026-04-11T07:12:35.939Z</time></trkpt><trkpt lat="44.907985" lon="10.0240917"><ele>56.0</ele><time>2026-04-11T07:12:36.94Z</time></trkpt><trkpt lat="44.907815" lon="10.0244467"><ele>55.5</ele><time>2026-04-11T07:12:37.94Z</time></trkpt><trkpt lat="44.907645" lon="10.0247983"><ele>55.0</ele><time>2026-04-11T07:12:38.94Z</time></trkpt><trkpt lat="44.9074717" lon="10.0251483"><ele>55.0</ele><time>2026-04-11T07:12:39.939Z</time></trkpt><trkpt lat="44.9072983" lon="10.0254967"><ele>55.0</ele><time>2026-04-11T07:12:40.94Z</time></trkpt><trkpt lat="44.9071317" lon="10.0258433"><ele>56.0</ele><time>2026-04-11T07:12:41.94Z</time></trkpt><trkpt lat="44.906965" lon="10.0261733"><ele>57.0</ele><time>2026-04-11T07:12:42.94Z</time></trkpt><trkpt lat="44.9067883" lon="10.0265217"><ele>55.5</ele><time>2026-04-11T07:12:43.94Z</time></trkpt><trkpt lat="44.906615" lon="10.0268767"><ele>54.0</ele><time>2026-04-11T07:12:44.94Z</time></trkpt><trkpt lat="44.9064433" lon="10.0272283"><ele>55.5</ele><time>2026-04-11T07:12:45.94Z</time></trkpt><trkpt lat="44.906275" lon="10.0275717"><ele>57.0</ele><time>2026-04-11T07:12:46.94Z</time></trkpt><trkpt lat="44.90611" lon="10.02792"><ele>57.0</ele><time>2026-04-11T07:12:47.94Z</time></trkpt><trkpt lat="44.9059417" lon="10.02827"><ele>57.0</ele><time>2026-04-11T07:12:48.939Z</time></trkpt><trkpt lat="44.90577" lon="10.0286283"><ele>57.0</ele><time>2026-04-11T07:12:49.94Z</time></trkpt><trkpt lat="44.9056" lon="10.028985"><ele>57.0</ele><time>2026-04-11T07:12:50.94Z</time></trkpt><trkpt lat="44.9054283" lon="10.0293383"><ele>55.5</ele><time>2026-04-11T07:12:51.939Z</time></trkpt><trkpt lat="44.9052583" lon="10.0296883"><ele>54.0</ele><time>2026-04-11T07:12:52.94Z</time></trkpt><trkpt lat="44.90509" lon="10.0300317"><ele>54.5</ele><time>2026-04-11T07:12:53.94Z</time></trkpt><trkpt lat="44.9049233" lon="10.0303917"><ele>55.0</ele><time>2026-04-11T07:12:54.94Z</time></trkpt><trkpt lat="44.9047567" lon="10.03073"><ele>55.5</ele><time>2026-04-11T07:12:55.94Z</time></trkpt><trkpt lat="44.9045867" lon="10.0310833"><ele>56.0</ele><time>2026-04-11T07:12:56.94Z</time></trkpt><trkpt lat="44.9044167" lon="10.0314333"><ele>56.5</ele><time>2026-04-11T07:12:57.94Z</time></trkpt><trkpt lat="44.904245" lon="10.0317817"><ele>57.0</ele><time>2026-04-11T07:12:58.94Z</time></trkpt><trkpt lat="44.90407" lon="10.0321367"><ele>56.5</ele><time>2026-04-11T07:12:59.94Z</time></trkpt><trkpt lat="44.9038967" lon="10.0324883"><ele>56.0</ele><time>2026-04-11T07:13:00.94Z</time></trkpt><trkpt lat="44.9037267" lon="10.0328333"><ele>56.0</ele><time>2026-04-11T07:13:01.94Z</time></trkpt><trkpt lat="44.90356" lon="10.03318"><ele>56.0</ele><time>2026-04-11T07:13:02.94Z</time></trkpt><trkpt lat="44.9033917" lon="10.0335317"><ele>56.5</ele><time>2026-04-11T07:13:03.94Z</time></trkpt><trkpt lat="44.90322" lon="10.0338883"><ele>57.0</ele><time>2026-04-11T07:13:04.94Z</time></trkpt><trkpt lat="44.9030517" lon="10.0342383"><ele>57.0</ele><time>2026-04-11T07:13:05.94Z</time></trkpt><trkpt lat="44.9028867" lon="10.034585"><ele>57.0</ele><time>2026-04-11T07:13:06.94Z</time></trkpt><trkpt lat="44.90272" lon="10.0349283"><ele>57.0</ele><time>2026-04-11T07:13:07.94Z</time></trkpt><trkpt lat="44.9025583" lon="10.035285"><ele>57.0</ele><time>2026-04-11T07:13:08.94Z</time></trkpt><trkpt lat="44.9023933" lon="10.0356367"><ele>56.5</ele><time>2026-04-11T07:13:09.94Z</time></trkpt><trkpt lat="44.9022283" lon="10.0359817"><ele>56.0</ele><time>2026-04-11T07:13:10.94Z</time></trkpt><trkpt lat="44.9020617" lon="10.0363417"><ele>56.5</ele><time>2026-04-11T07:13:11.94Z</time></trkpt><trkpt lat="44.9019" lon="10.0366917"><ele>57.0</ele><time>2026-04-11T07:13:12.939Z</time></trkpt><trkpt lat="44.9017333" lon="10.0370367"><ele>57.5</ele><time>2026-04-11T07:13:13.94Z</time></trkpt><trkpt lat="44.9015717" lon="10.037375"><ele>58.0</ele><time>2026-04-11T07:13:14.94Z</time></trkpt><trkpt lat="44.90142" lon="10.0376767"><ele>58.0</ele><time>2026-04-11T07:13:15.94Z</time></trkpt><trkpt lat="44.9012683" lon="10.0379717"><ele>58.0</ele><time>2026-04-11T07:13:16.94Z</time></trkpt><trkpt lat="44.90113" lon="10.0382717"><ele>58.0</ele><time>2026-04-11T07:13:17.94Z</time></trkpt><trkpt lat="44.9009867" lon="10.038555"><ele>58.0</ele><time>2026-04-11T07:13:18.94Z</time></trkpt><trkpt lat="44.9008367" lon="10.0388333"><ele>59.0</ele><time>2026-04-11T07:13:19.939Z</time></trkpt><trkpt lat="44.900685" lon="10.039125"><ele>60.0</ele><time>2026-04-11T07:13:20.94Z</time></trkpt><trkpt lat="44.9005483" lon="10.03942"><ele>60.0</ele><time>2026-04-11T07:13:21.939Z</time></trkpt><trkpt lat="44.900425" lon="10.0396933"><ele>60.0</ele><time>2026-04-11T07:13:22.94Z</time></trkpt><trkpt lat="44.9002933" lon="10.0399783"><ele>60.5</ele><time>2026-04-11T07:13:23.94Z</time></trkpt><trkpt lat="44.90016" lon="10.0402517"><ele>61.0</ele><time>2026-04-11T07:13:24.94Z</time></trkpt><trkpt lat="44.900035" lon="10.0405317"><ele>61.0</ele><time>2026-04-11T07:13:25.94Z</time></trkpt><trkpt lat="44.8999033" lon="10.0407967"><ele>61.0</ele><time>2026-04-11T07:13:26.94Z</time></trkpt><trkpt lat="44.8997683" lon="10.0410517"><ele>60.5</ele><time>2026-04-11T07:13:27.94Z</time></trkpt><trkpt lat="44.8996383" lon="10.04131"><ele>60.0</ele><time>2026-04-11T07:13:28.94Z</time></trkpt><trkpt lat="44.89951" lon="10.0415783"><ele>60.0</ele><time>2026-04-11T07:13:29.94Z</time></trkpt><trkpt lat="44.8993917" lon="10.0418333"><ele>60.0</ele><time>2026-04-11T07:13:30.94Z</time></trkpt><trkpt lat="44.8992733" lon="10.0420833"><ele>60.0</ele><time>2026-04-11T07:13:31.94Z</time></trkpt><trkpt lat="44.8991483" lon="10.042345"><ele>61.5</ele><time>2026-04-11T07:13:32.94Z</time></trkpt><trkpt lat="44.8990233" lon="10.04261"><ele>63.0</ele><time>2026-04-11T07:13:33.94Z</time></trkpt><trkpt lat="44.89889" lon="10.0428667"><ele>63.0</ele><time>2026-04-11T07:13:34.94Z</time></trkpt><trkpt lat="44.8987667" lon="10.043135"><ele>63.0</ele><time>2026-04-11T07:13:35.939Z</time></trkpt><trkpt lat="44.898615" lon="10.0433833"><ele>62.0</ele><time>2026-04-11T07:13:36.94Z</time></trkpt><trkpt lat="44.8984883" lon="10.0436533"><ele>61.0</ele><time>2026-04-11T07:13:37.94Z</time></trkpt><trkpt lat="44.8983633" lon="10.0439317"><ele>61.0</ele><time>2026-04-11T07:13:38.939Z</time></trkpt><trkpt lat="44.89823" lon="10.04421"><ele>61.0</ele><time>2026-04-11T07:13:39.94Z</time></trkpt><trkpt lat="44.8980933" lon="10.044485"><ele>61.0</ele><time>2026-04-11T07:13:40.94Z</time></trkpt><trkpt lat="44.8979683" lon="10.044745"><ele>61.0</ele><time>2026-04-11T07:13:41.939Z</time></trkpt><trkpt lat="44.8978283" lon="10.04501"><ele>60.5</ele><time>2026-04-11T07:13:42.94Z</time></trkpt><trkpt lat="44.89769" lon="10.0453017"><ele>60.0</ele><time>2026-04-11T07:13:43.94Z</time></trkpt><trkpt lat="44.8975517" lon="10.0455933"><ele>60.0</ele><time>2026-04-11T07:13:44.94Z</time></trkpt><trkpt lat="44.8974117" lon="10.0458967"><ele>60.0</ele><time>2026-04-11T07:13:45.94Z</time></trkpt><trkpt lat="44.8972633" lon="10.04621"><ele>60.0</ele><time>2026-04-11T07:13:46.94Z</time></trkpt><trkpt lat="44.8971133" lon="10.046515"><ele>60.0</ele><time>2026-04-11T07:13:47.94Z</time></trkpt><trkpt lat="44.896955" lon="10.0468167"><ele>60.0</ele><time>2026-04-11T07:13:48.94Z</time></trkpt><trkpt lat="44.8967933" lon="10.0471317"><ele>60.0</ele><time>2026-04-11T07:13:49.94Z</time></trkpt><trkpt lat="44.8966283" lon="10.0474583"><ele>59.5</ele><time>2026-04-11T07:13:50.94Z</time></trkpt><trkpt lat="44.8964783" lon="10.0477933"><ele>59.0</ele><time>2026-04-11T07:13:51.94Z</time></trkpt><trkpt lat="44.89633" lon="10.048145"><ele>60.5</ele><time>2026-04-11T07:13:52.94Z</time></trkpt><trkpt lat="44.8961883" lon="10.0484967"><ele>62.0</ele><time>2026-04-11T07:13:53.94Z</time></trkpt><trkpt lat="44.8960533" lon="10.048845"><ele>62.0</ele><time>2026-04-11T07:13:54.94Z</time></trkpt><trkpt lat="44.895925" lon="10.0491983"><ele>62.0</ele><time>2026-04-11T07:13:55.94Z</time></trkpt><trkpt lat="44.895795" lon="10.0495717"><ele>62.0</ele><time>2026-04-11T07:13:56.94Z</time></trkpt><trkpt lat="44.8956767" lon="10.049935"><ele>62.0</ele><time>2026-04-11T07:13:57.94Z</time></trkpt><trkpt lat="44.8955567" lon="10.0502967"><ele>62.0</ele><time>2026-04-11T07:13:58.94Z</time></trkpt><trkpt lat="44.8954367" lon="10.050665"><ele>62.0</ele><time>2026-04-11T07:13:59.94Z</time></trkpt><trkpt lat="44.8953217" lon="10.05103"><ele>61.5</ele><time>2026-04-11T07:14:00.94Z</time></trkpt><trkpt lat="44.8952183" lon="10.0514017"><ele>61.0</ele><time>2026-04-11T07:14:01.94Z</time></trkpt><trkpt lat="44.895115" lon="10.0517633"><ele>60.0</ele><time>2026-04-11T07:14:02.94Z</time></trkpt><trkpt lat="44.8950183" lon="10.05213"><ele>59.0</ele><time>2026-04-11T07:14:03.94Z</time></trkpt><trkpt lat="44.8949317" lon="10.0524967"><ele>59.0</ele><time>2026-04-11T07:14:04.94Z</time></trkpt><trkpt lat="44.8948417" lon="10.0528617"><ele>59.0</ele><time>2026-04-11T07:14:05.94Z</time></trkpt><trkpt lat="44.8947517" lon="10.0532133"><ele>59.0</ele><time>2026-04-11T07:14:06.94Z</time></trkpt><trkpt lat="44.8946783" lon="10.053565"><ele>59.0</ele><time>2026-04-11T07:14:07.939Z</time></trkpt><trkpt lat="44.8946133" lon="10.0539367"><ele>59.5</ele><time>2026-04-11T07:14:08.94Z</time></trkpt><trkpt lat="44.8945417" lon="10.0543017"><ele>60.0</ele><time>2026-04-11T07:14:09.94Z</time></trkpt><trkpt lat="44.8944767" lon="10.0546533"><ele>60.0</ele><time>2026-04-11T07:14:10.94Z</time></trkpt><trkpt lat="44.8944133" lon="10.0550267"><ele>60.0</ele><time>2026-04-11T07:14:11.94Z</time></trkpt><trkpt lat="44.8943517" lon="10.0554033"><ele>60.0</ele><time>2026-04-11T07:14:12.94Z</time></trkpt><trkpt lat="44.8942917" lon="10.0557767"><ele>60.0</ele><time>2026-04-11T07:14:13.94Z</time></trkpt><trkpt lat="44.8942417" lon="10.0561633"><ele>60.0</ele><time>2026-04-11T07:14:14.94Z</time></trkpt><trkpt lat="44.89418" lon="10.056535"><ele>60.0</ele><time>2026-04-11T07:14:15.94Z</time></trkpt><trkpt lat="44.89412" lon="10.0569"><ele>60.0</ele><time>2026-04-11T07:14:16.94Z</time></trkpt><trkpt lat="44.89406" lon="10.0572783"><ele>60.0</ele><time>2026-04-11T07:14:17.94Z</time></trkpt><trkpt lat="44.8940067" lon="10.0576617"><ele>60.0</ele><time>2026-04-11T07:14:18.94Z</time></trkpt><trkpt lat="44.8939467" lon="10.058045"><ele>60.0</ele><time>2026-04-11T07:14:19.94Z</time></trkpt><trkpt lat="44.8938883" lon="10.0584217"><ele>59.0</ele><time>2026-04-11T07:14:20.94Z</time></trkpt><trkpt lat="44.893835" lon="10.0588233"><ele>58.0</ele><time>2026-04-11T07:14:21.94Z</time></trkpt><trkpt lat="44.893775" lon="10.0592067"><ele>57.5</ele><time>2026-04-11T07:14:22.94Z</time></trkpt><trkpt lat="44.89372" lon="10.0595983"><ele>57.0</ele><time>2026-04-11T07:14:23.94Z</time></trkpt><trkpt lat="44.8936667" lon="10.06"><ele>57.0</ele><time>2026-04-11T07:14:24.94Z</time></trkpt><trkpt lat="44.8936017" lon="10.0603933"><ele>57.0</ele><time>2026-04-11T07:14:25.94Z</time></trkpt><trkpt lat="44.8935433" lon="10.060785"><ele>58.0</ele><time>2026-04-11T07:14:26.94Z</time></trkpt><trkpt lat="44.89348" lon="10.0611867"><ele>59.0</ele><time>2026-04-11T07:14:27.94Z</time></trkpt><trkpt lat="44.893425" lon="10.0615867"><ele>59.0</ele><time>2026-04-11T07:14:28.94Z</time></trkpt><trkpt lat="44.8933767" lon="10.061995"><ele>59.0</ele><time>2026-04-11T07:14:29.94Z</time></trkpt><trkpt lat="44.8933233" lon="10.0624083"><ele>59.0</ele><time>2026-04-11T07:14:30.94Z</time></trkpt><trkpt lat="44.8932717" lon="10.0628117"><ele>59.0</ele><time>2026-04-11T07:14:31.939Z</time></trkpt><trkpt lat="44.8932133" lon="10.0632117"><ele>59.0</ele><time>2026-04-11T07:14:32.94Z</time></trkpt><trkpt lat="44.8931483" lon="10.0636083"><ele>59.0</ele><time>2026-04-11T07:14:33.94Z</time></trkpt><trkpt lat="44.8930867" lon="10.0640133"><ele>58.5</ele><time>2026-04-11T07:14:34.94Z</time></trkpt><trkpt lat="44.89302" lon="10.064415"><ele>58.0</ele><time>2026-04-11T07:14:35.94Z</time></trkpt><trkpt lat="44.8929483" lon="10.0648167"><ele>58.5</ele><time>2026-04-11T07:14:36.939Z</time></trkpt><trkpt lat="44.8928717" lon="10.06522"><ele>59.0</ele><time>2026-04-11T07:14:37.939Z</time></trkpt><trkpt lat="44.8928067" lon="10.06562"><ele>59.5</ele><time>2026-04-11T07:14:38.94Z</time></trkpt><trkpt lat="44.8927467" lon="10.0660283"><ele>60.0</ele><time>2026-04-11T07:14:39.94Z</time></trkpt><trkpt lat="44.892685" lon="10.0664333"><ele>60.0</ele><time>2026-04-11T07:14:40.94Z</time></trkpt><trkpt lat="44.8926233" lon="10.06684"><ele>60.0</ele><time>2026-04-11T07:14:41.94Z</time></trkpt><trkpt lat="44.8925633" lon="10.0672383"><ele>60.5</ele><time>2026-04-11T07:14:42.94Z</time></trkpt><trkpt lat="44.8925017" lon="10.0676467"><ele>61.0</ele><time>2026-04-11T07:14:43.94Z</time></trkpt><trkpt lat="44.89244" lon="10.06806"><ele>60.0</ele><time>2026-04-11T07:14:44.94Z</time></trkpt><trkpt lat="44.89238" lon="10.0684733"><ele>59.0</ele><time>2026-04-11T07:14:45.94Z</time></trkpt><trkpt lat="44.8923183" lon="10.06888"><ele>58.0</ele><time>2026-04-11T07:14:46.94Z</time></trkpt><trkpt lat="44.89226" lon="10.0692833"><ele>57.0</ele><time>2026-04-11T07:14:47.94Z</time></trkpt><trkpt lat="44.8921967" lon="10.069695"><ele>58.0</ele><time>2026-04-11T07:14:48.94Z</time></trkpt><trkpt lat="44.8921333" lon="10.0701017"><ele>59.0</ele><time>2026-04-11T07:14:49.94Z</time></trkpt><trkpt lat="44.8920683" lon="10.0705067"><ele>58.5</ele><time>2026-04-11T07:14:50.94Z</time></trkpt><trkpt lat="44.89201" lon="10.07091"><ele>58.0</ele><time>2026-04-11T07:14:51.94Z</time></trkpt><trkpt lat="44.8919533" lon="10.0713167"><ele>57.5</ele><time>2026-04-11T07:14:52.94Z</time></trkpt><trkpt lat="44.8918983" lon="10.071715"><ele>57.0</ele><time>2026-04-11T07:14:53.94Z</time></trkpt><trkpt lat="44.8918383" lon="10.07212"><ele>56.5</ele><time>2026-04-11T07:14:54.94Z</time></trkpt><trkpt lat="44.8917783" lon="10.0725267"><ele>56.0</ele><time>2026-04-11T07:14:55.94Z</time></trkpt><trkpt lat="44.891715" lon="10.0729333"><ele>56.0</ele><time>2026-04-11T07:14:56.94Z</time></trkpt><trkpt lat="44.8916483" lon="10.0733383"><ele>56.0</ele><time>2026-04-11T07:14:57.94Z</time></trkpt><trkpt lat="44.8915867" lon="10.0737417"><ele>56.5</ele><time>2026-04-11T07:14:58.94Z</time></trkpt><trkpt lat="44.8915267" lon="10.0741467"><ele>57.0</ele><time>2026-04-11T07:14:59.94Z</time></trkpt><trkpt lat="44.8914633" lon="10.0745567"><ele>57.0</ele><time>2026-04-11T07:15:00.94Z</time></trkpt><trkpt lat="44.8914033" lon="10.0749633"><ele>57.0</ele><time>2026-04-11T07:15:01.94Z</time></trkpt><trkpt lat="44.8913417" lon="10.0753683"><ele>57.0</ele><time>2026-04-11T07:15:02.94Z</time></trkpt><trkpt lat="44.89128" lon="10.075775"><ele>57.0</ele><time>2026-04-11T07:15:03.94Z</time></trkpt><trkpt lat="44.8912167" lon="10.07617"><ele>57.0</ele><time>2026-04-11T07:15:04.94Z</time></trkpt><trkpt lat="44.8911517" lon="10.07658"><ele>57.0</ele><time>2026-04-11T07:15:05.939Z</time></trkpt><trkpt lat="44.8910933" lon="10.076985"><ele>57.5</ele><time>2026-04-11T07:15:06.94Z</time></trkpt><trkpt lat="44.8910367" lon="10.0773883"><ele>58.0</ele><time>2026-04-11T07:15:07.94Z</time></trkpt><trkpt lat="44.89097" lon="10.0777917"><ele>57.0</ele><time>2026-04-11T07:15:08.939Z</time></trkpt><trkpt lat="44.8909067" lon="10.078205"><ele>56.0</ele><time>2026-04-11T07:15:09.94Z</time></trkpt><trkpt lat="44.890845" lon="10.0786117"><ele>55.5</ele><time>2026-04-11T07:15:10.94Z</time></trkpt><trkpt lat="44.8907833" lon="10.0790167"><ele>55.0</ele><time>2026-04-11T07:15:11.94Z</time></trkpt><trkpt lat="44.8907167" lon="10.0794233"><ele>55.0</ele><time>2026-04-11T07:15:12.94Z</time></trkpt><trkpt lat="44.890655" lon="10.0798267"><ele>55.0</ele><time>2026-04-11T07:15:13.94Z</time></trkpt><trkpt lat="44.8905883" lon="10.0802367"><ele>55.5</ele><time>2026-04-11T07:15:14.94Z</time></trkpt><trkpt lat="44.8905283" lon="10.080635"><ele>56.0</ele><time>2026-04-11T07:15:15.94Z</time></trkpt><trkpt lat="44.8904683" lon="10.08104"><ele>56.0</ele><time>2026-04-11T07:15:16.94Z</time></trkpt><trkpt lat="44.8904133" lon="10.081445"><ele>56.0</ele><time>2026-04-11T07:15:17.94Z</time></trkpt><trkpt lat="44.89035" lon="10.0818467"><ele>56.0</ele><time>2026-04-11T07:15:18.94Z</time></trkpt><trkpt lat="44.890285" lon="10.0822467"><ele>56.0</ele><time>2026-04-11T07:15:19.94Z</time></trkpt><trkpt lat="44.89022" lon="10.08265"><ele>56.0</ele><time>2026-04-11T07:15:20.939Z</time></trkpt><trkpt lat="44.89016" lon="10.0830517"><ele>56.0</ele><time>2026-04-11T07:15:21.94Z</time></trkpt><trkpt lat="44.8901" lon="10.0834567"><ele>57.0</ele><time>2026-04-11T07:15:22.94Z</time></trkpt><trkpt lat="44.8900367" lon="10.0838633"><ele>58.0</ele><time>2026-04-11T07:15:23.94Z</time></trkpt><trkpt lat="44.8899717" lon="10.0842733"><ele>58.0</ele><time>2026-04-11T07:15:24.94Z</time></trkpt><trkpt lat="44.88991" lon="10.0846883"><ele>58.0</ele><time>2026-04-11T07:15:25.94Z</time></trkpt><trkpt lat="44.889855" lon="10.0851033"><ele>58.0</ele><time>2026-04-11T07:15:26.94Z</time></trkpt><trkpt lat="44.8897917" lon="10.085515"><ele>58.0</ele><time>2026-04-11T07:15:27.939Z</time></trkpt><trkpt lat="44.889725" lon="10.0859383"><ele>58.0</ele><time>2026-04-11T07:15:28.94Z</time></trkpt><trkpt lat="44.8896633" lon="10.086355"><ele>58.0</ele><time>2026-04-11T07:15:29.94Z</time></trkpt><trkpt lat="44.8896" lon="10.086775"><ele>58.0</ele><time>2026-04-11T07:15:30.939Z</time></trkpt><trkpt lat="44.8895367" lon="10.0872"><ele>58.0</ele><time>2026-04-11T07:15:31.94Z</time></trkpt><trkpt lat="44.8894717" lon="10.08762"><ele>58.0</ele><time>2026-04-11T07:15:32.94Z</time></trkpt><trkpt lat="44.8894067" lon="10.0880383"><ele>58.0</ele><time>2026-04-11T07:15:33.94Z</time></trkpt><trkpt lat="44.88934" lon="10.088455"><ele>58.0</ele><time>2026-04-11T07:15:34.939Z</time></trkpt><trkpt lat="44.8892767" lon="10.0888633"><ele>58.0</ele><time>2026-04-11T07:15:35.94Z</time></trkpt><trkpt lat="44.8892067" lon="10.0892817"><ele>58.5</ele><time>2026-04-11T07:15:36.94Z</time></trkpt><trkpt lat="44.8891433" lon="10.0897017"><ele>59.0</ele><time>2026-04-11T07:15:37.94Z</time></trkpt><trkpt lat="44.8890783" lon="10.09012"><ele>58.0</ele><time>2026-04-11T07:15:38.94Z</time></trkpt><trkpt lat="44.88902" lon="10.0905317"><ele>57.0</ele><time>2026-04-11T07:15:39.94Z</time></trkpt><trkpt lat="44.888965" lon="10.0909467"><ele>57.0</ele><time>2026-04-11T07:15:40.94Z</time></trkpt><trkpt lat="44.8888967" lon="10.091355"><ele>57.0</ele><time>2026-04-11T07:15:41.94Z</time></trkpt><trkpt lat="44.888835" lon="10.09177"><ele>56.5</ele><time>2026-04-11T07:15:42.94Z</time></trkpt><trkpt lat="44.888775" lon="10.0921817"><ele>56.0</ele><time>2026-04-11T07:15:43.94Z</time></trkpt><trkpt lat="44.8887183" lon="10.0925883"><ele>56.0</ele><time>2026-04-11T07:15:44.94Z</time></trkpt><trkpt lat="44.888655" lon="10.0929883"><ele>56.0</ele><time>2026-04-11T07:15:45.94Z</time></trkpt><trkpt lat="44.8885933" lon="10.0933967"><ele>56.0</ele><time>2026-04-11T07:15:46.94Z</time></trkpt><trkpt lat="44.8885317" lon="10.0938017"><ele>56.0</ele><time>2026-04-11T07:15:47.94Z</time></trkpt><trkpt lat="44.8884717" lon="10.0942083"><ele>56.0</ele><time>2026-04-11T07:15:48.939Z</time></trkpt><trkpt lat="44.88841" lon="10.09461"><ele>56.0</ele><time>2026-04-11T07:15:49.94Z</time></trkpt><trkpt lat="44.8883517" lon="10.0950117"><ele>56.0</ele><time>2026-04-11T07:15:50.94Z</time></trkpt><trkpt lat="44.8882917" lon="10.0954267"><ele>56.0</ele><time>2026-04-11T07:15:51.94Z</time></trkpt><trkpt lat="44.8882283" lon="10.0958267"><ele>55.5</ele><time>2026-04-11T07:15:52.94Z</time></trkpt><trkpt lat="44.88817" lon="10.09622"><ele>55.0</ele><time>2026-04-11T07:15:53.94Z</time></trkpt><trkpt lat="44.8881033" lon="10.09662"><ele>55.0</ele><time>2026-04-11T07:15:54.94Z</time></trkpt><trkpt lat="44.8880467" lon="10.0970117"><ele>55.0</ele><time>2026-04-11T07:15:55.94Z</time></trkpt><trkpt lat="44.887985" lon="10.09741"><ele>55.0</ele><time>2026-04-11T07:15:56.94Z</time></trkpt><trkpt lat="44.8879183" lon="10.097805"><ele>55.0</ele><time>2026-04-11T07:15:57.94Z</time></trkpt><trkpt lat="44.8878617" lon="10.0981967"><ele>55.0</ele><time>2026-04-11T07:15:58.94Z</time></trkpt><trkpt lat="44.8878017" lon="10.0985833"><ele>55.0</ele><time>2026-04-11T07:15:59.94Z</time></trkpt><trkpt lat="44.8877483" lon="10.098965"><ele>55.5</ele><time>2026-04-11T07:16:00.94Z</time></trkpt><trkpt lat="44.8876933" lon="10.0993483"><ele>56.0</ele><time>2026-04-11T07:16:01.94Z</time></trkpt><trkpt lat="44.88763" lon="10.0997367"><ele>55.5</ele><time>2026-04-11T07:16:02.94Z</time></trkpt><trkpt lat="44.8875733" lon="10.100125"><ele>55.0</ele><time>2026-04-11T07:16:03.94Z</time></trkpt><trkpt lat="44.8875117" lon="10.1005233"><ele>56.0</ele><time>2026-04-11T07:16:04.94Z</time></trkpt><trkpt lat="44.88745" lon="10.100905"><ele>57.0</ele><time>2026-04-11T07:16:05.939Z</time></trkpt><trkpt lat="44.88739" lon="10.1013067"><ele>57.5</ele><time>2026-04-11T07:16:06.94Z</time></trkpt><trkpt lat="44.8873317" lon="10.101695"><ele>58.0</ele><time>2026-04-11T07:16:07.94Z</time></trkpt><trkpt lat="44.88727" lon="10.102085"><ele>58.0</ele><time>2026-04-11T07:16:08.939Z</time></trkpt><trkpt lat="44.887205" lon="10.1024867"><ele>58.0</ele><time>2026-04-11T07:16:09.94Z</time></trkpt><trkpt lat="44.8871483" lon="10.10288"><ele>57.5</ele><time>2026-04-11T07:16:10.94Z</time></trkpt><trkpt lat="44.887095" lon="10.1032733"><ele>57.0</ele><time>2026-04-11T07:16:11.94Z</time></trkpt><trkpt lat="44.887035" lon="10.1036667"><ele>57.0</ele><time>2026-04-11T07:16:12.94Z</time></trkpt><trkpt lat="44.886975" lon="10.1040717"><ele>57.0</ele><time>2026-04-11T07:16:13.94Z</time></trkpt><trkpt lat="44.8869133" lon="10.1044683"><ele>56.5</ele><time>2026-04-11T07:16:14.94Z</time></trkpt><trkpt lat="44.8868617" lon="10.1048667"><ele>56.0</ele><time>2026-04-11T07:16:15.94Z</time></trkpt><trkpt lat="44.8868083" lon="10.1052767"><ele>55.5</ele><time>2026-04-11T07:16:16.94Z</time></trkpt><trkpt lat="44.8867517" lon="10.1056733"><ele>55.0</ele><time>2026-04-11T07:16:17.94Z</time></trkpt><trkpt lat="44.88669" lon="10.1060617"><ele>55.0</ele><time>2026-04-11T07:16:18.94Z</time></trkpt><trkpt lat="44.8866317" lon="10.1064367"><ele>55.0</ele><time>2026-04-11T07:16:19.94Z</time></trkpt><trkpt lat="44.8865733" lon="10.1068017"><ele>54.5</ele><time>2026-04-11T07:16:20.94Z</time></trkpt><trkpt lat="44.88652" lon="10.1071683"><ele>54.0</ele><time>2026-04-11T07:16:21.94Z</time></trkpt><trkpt lat="44.8864633" lon="10.1075383"><ele>54.0</ele><time>2026-04-11T07:16:22.94Z</time></trkpt><trkpt lat="44.8864017" lon="10.1079317"><ele>54.0</ele><time>2026-04-11T07:16:23.94Z</time></trkpt><trkpt lat="44.8863517" lon="10.108325"><ele>54.0</ele><time>2026-04-11T07:16:24.939Z</time></trkpt><trkpt lat="44.8862917" lon="10.1087267"><ele>54.0</ele><time>2026-04-11T07:16:25.939Z</time></trkpt><trkpt lat="44.8862333" lon="10.1091317"><ele>54.0</ele><time>2026-04-11T07:16:26.939Z</time></trkpt><trkpt lat="44.8861767" lon="10.109535"><ele>54.0</ele><time>2026-04-11T07:16:27.938Z</time></trkpt><trkpt lat="44.88611" lon="10.109935"><ele>54.0</ele><time>2026-04-11T07:16:28.939Z</time></trkpt><trkpt lat="44.8860517" lon="10.1103417"><ele>54.0</ele><time>2026-04-11T07:16:29.939Z</time></trkpt><trkpt lat="44.8859883" lon="10.11074"><ele>55.0</ele><time>2026-04-11T07:16:30.939Z</time></trkpt><trkpt lat="44.8859283" lon="10.1111233"><ele>56.0</ele><time>2026-04-11T07:16:31.938Z</time></trkpt><trkpt lat="44.8858683" lon="10.1114883"><ele>55.0</ele><time>2026-04-11T07:16:32.939Z</time></trkpt><trkpt lat="44.8858067" lon="10.11186"><ele>54.0</ele><time>2026-04-11T07:16:33.938Z</time></trkpt><trkpt lat="44.8857467" lon="10.112205"><ele>54.0</ele><time>2026-04-11T07:16:34.939Z</time></trkpt><trkpt lat="44.8856917" lon="10.112555"><ele>54.0</ele><time>2026-04-11T07:16:35.939Z</time></trkpt><trkpt lat="44.8856333" lon="10.1129233"><ele>54.5</ele><time>2026-04-11T07:16:36.939Z</time></trkpt><trkpt lat="44.885575" lon="10.1133"><ele>55.0</ele><time>2026-04-11T07:16:37.939Z</time></trkpt><trkpt lat="44.8855183" lon="10.113675"><ele>55.0</ele><time>2026-04-11T07:16:38.939Z</time></trkpt><trkpt lat="44.8854583" lon="10.1140517"><ele>55.0</ele><time>2026-04-11T07:16:39.939Z</time></trkpt><trkpt lat="44.8853967" lon="10.1144317"><ele>54.5</ele><time>2026-04-11T07:16:40.939Z</time></trkpt><trkpt lat="44.88533" lon="10.1148083"><ele>54.0</ele><time>2026-04-11T07:16:41.938Z</time></trkpt><trkpt lat="44.885275" lon="10.11519"><ele>54.0</ele><time>2026-04-11T07:16:42.939Z</time></trkpt><trkpt lat="44.8852167" lon="10.11557"><ele>54.0</ele><time>2026-04-11T07:16:43.939Z</time></trkpt><trkpt lat="44.88516" lon="10.1159533"><ele>54.0</ele><time>2026-04-11T07:16:44.939Z</time></trkpt><trkpt lat="44.8850933" lon="10.11634"><ele>54.0</ele><time>2026-04-11T07:16:45.939Z</time></trkpt><trkpt lat="44.8850333" lon="10.1167267"><ele>54.0</ele><time>2026-04-11T07:16:46.939Z</time></trkpt><trkpt lat="44.8849817" lon="10.1171033"><ele>54.0</ele><time>2026-04-11T07:16:47.939Z</time></trkpt><trkpt lat="44.8849233" lon="10.1174983"><ele>54.0</ele><time>2026-04-11T07:16:48.939Z</time></trkpt><trkpt lat="44.884865" lon="10.1178767"><ele>54.0</ele><time>2026-04-11T07:16:49.939Z</time></trkpt><trkpt lat="44.8848" lon="10.1182467"><ele>54.0</ele><time>2026-04-11T07:16:50.939Z</time></trkpt><trkpt lat="44.8847467" lon="10.11862"><ele>54.0</ele><time>2026-04-11T07:16:51.939Z</time></trkpt><trkpt lat="44.8846917" lon="10.1189933"><ele>54.0</ele><time>2026-04-11T07:16:52.939Z</time></trkpt><trkpt lat="44.8846333" lon="10.1193583"><ele>54.0</ele><time>2026-04-11T07:16:53.939Z</time></trkpt><trkpt lat="44.88458" lon="10.1197383"><ele>54.0</ele><time>2026-04-11T07:16:54.939Z</time></trkpt><trkpt lat="44.8845317" lon="10.12011"><ele>54.0</ele><time>2026-04-11T07:16:55.939Z</time></trkpt><trkpt lat="44.8844817" lon="10.1204783"><ele>53.5</ele><time>2026-04-11T07:16:56.939Z</time></trkpt><trkpt lat="44.884425" lon="10.1208667"><ele>53.0</ele><time>2026-04-11T07:16:57.939Z</time></trkpt><trkpt lat="44.8843783" lon="10.1212883"><ele>54.0</ele><time>2026-04-11T07:16:58.939Z</time></trkpt><trkpt lat="44.88432" lon="10.1216967"><ele>55.0</ele><time>2026-04-11T07:16:59.938Z</time></trkpt><trkpt lat="44.88426" lon="10.12211"><ele>54.5</ele><time>2026-04-11T07:17:00.939Z</time></trkpt><trkpt lat="44.8841983" lon="10.12252"><ele>54.0</ele><time>2026-04-11T07:17:01.938Z</time></trkpt><trkpt lat="44.884135" lon="10.12295"><ele>53.0</ele><time>2026-04-11T07:17:02.939Z</time></trkpt><trkpt lat="44.8840717" lon="10.123365"><ele>52.0</ele><time>2026-04-11T07:17:03.939Z</time></trkpt><trkpt lat="44.8840067" lon="10.1237833"><ele>52.5</ele><time>2026-04-11T07:17:04.938Z</time></trkpt><trkpt lat="44.8839433" lon="10.124195"><ele>53.0</ele><time>2026-04-11T07:17:05.939Z</time></trkpt><trkpt lat="44.8838733" lon="10.1246167"><ele>53.0</ele><time>2026-04-11T07:17:06.938Z</time></trkpt><trkpt lat="44.8838083" lon="10.1250367"><ele>53.0</ele><time>2026-04-11T07:17:07.939Z</time></trkpt><trkpt lat="44.88374" lon="10.1254583"><ele>52.5</ele><time>2026-04-11T07:17:08.939Z</time></trkpt><trkpt lat="44.8836783" lon="10.1258667"><ele>52.0</ele><time>2026-04-11T07:17:09.938Z</time></trkpt><trkpt lat="44.88362" lon="10.126285"><ele>52.0</ele><time>2026-04-11T07:17:10.939Z</time></trkpt><trkpt lat="44.883555" lon="10.1267017"><ele>52.0</ele><time>2026-04-11T07:17:11.939Z</time></trkpt><trkpt lat="44.88349" lon="10.127125"><ele>52.5</ele><time>2026-04-11T07:17:12.939Z</time></trkpt><trkpt lat="44.8834233" lon="10.1275417"><ele>53.0</ele><time>2026-04-11T07:17:13.938Z</time></trkpt><trkpt lat="44.8833467" lon="10.127955"><ele>52.0</ele><time>2026-04-11T07:17:14.939Z</time></trkpt><trkpt lat="44.8832783" lon="10.1283767"><ele>51.0</ele><time>2026-04-11T07:17:15.939Z</time></trkpt><trkpt lat="44.8832083" lon="10.1287817"><ele>50.5</ele><time>2026-04-11T07:17:16.939Z</time></trkpt><trkpt lat="44.8831433" lon="10.129175"><ele>50.0</ele><time>2026-04-11T07:17:17.939Z</time></trkpt><trkpt lat="44.8830767" lon="10.1295867"><ele>49.0</ele><time>2026-04-11T07:17:18.939Z</time></trkpt><trkpt lat="44.883015" lon="10.129985"><ele>48.0</ele><time>2026-04-11T07:17:19.938Z</time></trkpt><trkpt lat="44.882955" lon="10.13038"><ele>48.5</ele><time>2026-04-11T07:17:20.939Z</time></trkpt><trkpt lat="44.8828983" lon="10.13077"><ele>49.0</ele><time>2026-04-11T07:17:21.939Z</time></trkpt><trkpt lat="44.8828433" lon="10.1311567"><ele>49.0</ele><time>2026-04-11T07:17:22.939Z</time></trkpt><trkpt lat="44.8827833" lon="10.1315467"><ele>49.0</ele><time>2026-04-11T07:17:23.939Z</time></trkpt><trkpt lat="44.882725" lon="10.1319383"><ele>49.5</ele><time>2026-04-11T07:17:24.939Z</time></trkpt><trkpt lat="44.882665" lon="10.1323283"><ele>50.0</ele><time>2026-04-11T07:17:25.939Z</time></trkpt><trkpt lat="44.882605" lon="10.1327183"><ele>50.0</ele><time>2026-04-11T07:17:26.939Z</time></trkpt><trkpt lat="44.8825417" lon="10.133105"><ele>50.0</ele><time>2026-04-11T07:17:27.939Z</time></trkpt><trkpt lat="44.8824883" lon="10.1334967"><ele>50.0</ele><time>2026-04-11T07:17:28.939Z</time></trkpt><trkpt lat="44.8824233" lon="10.1338783"><ele>50.0</ele><time>2026-04-11T07:17:29.939Z</time></trkpt><trkpt lat="44.8823633" lon="10.13426"><ele>50.0</ele><time>2026-04-11T07:17:30.939Z</time></trkpt><trkpt lat="44.8823017" lon="10.1346433"><ele>50.0</ele><time>2026-04-11T07:17:31.938Z</time></trkpt><trkpt lat="44.882245" lon="10.135035"><ele>50.0</ele><time>2026-04-11T07:17:32.939Z</time></trkpt><trkpt lat="44.8821867" lon="10.1354183"><ele>50.0</ele><time>2026-04-11T07:17:33.939Z</time></trkpt><trkpt lat="44.88213" lon="10.13581"><ele>50.0</ele><time>2026-04-11T07:17:34.939Z</time></trkpt><trkpt lat="44.8820733" lon="10.1361967"><ele>50.0</ele><time>2026-04-11T07:17:35.939Z</time></trkpt><trkpt lat="44.8820133" lon="10.1365983"><ele>50.0</ele><time>2026-04-11T07:17:36.939Z</time></trkpt><trkpt lat="44.8819533" lon="10.1369917"><ele>50.0</ele><time>2026-04-11T07:17:37.939Z</time></trkpt><trkpt lat="44.8818867" lon="10.13739"><ele>50.0</ele><time>2026-04-11T07:17:38.939Z</time></trkpt><trkpt lat="44.8818233" lon="10.1377917"><ele>50.0</ele><time>2026-04-11T07:17:39.939Z</time></trkpt><trkpt lat="44.881765" lon="10.1381917"><ele>49.0</ele><time>2026-04-11T07:17:40.939Z</time></trkpt><trkpt lat="44.881705" lon="10.1385933"><ele>48.0</ele><time>2026-04-11T07:17:41.938Z</time></trkpt><trkpt lat="44.8816483" lon="10.1389967"><ele>48.5</ele><time>2026-04-11T07:17:42.939Z</time></trkpt><trkpt lat="44.8815883" lon="10.1394017"><ele>49.0</ele><time>2026-04-11T07:17:43.939Z</time></trkpt><trkpt lat="44.8815267" lon="10.1397983"><ele>50.0</ele><time>2026-04-11T07:17:44.939Z</time></trkpt><trkpt lat="44.8814617" lon="10.1402033"><ele>51.0</ele><time>2026-04-11T07:17:45.939Z</time></trkpt><trkpt lat="44.8814083" lon="10.14061"><ele>50.5</ele><time>2026-04-11T07:17:46.939Z</time></trkpt><trkpt lat="44.8813483" lon="10.141005"><ele>50.0</ele><time>2026-04-11T07:17:47.939Z</time></trkpt><trkpt lat="44.88128" lon="10.1414033"><ele>50.0</ele><time>2026-04-11T07:17:48.939Z</time></trkpt><trkpt lat="44.8812183" lon="10.1417983"><ele>50.0</ele><time>2026-04-11T07:17:49.939Z</time></trkpt><trkpt lat="44.8811583" lon="10.1421883"><ele>49.5</ele><time>2026-04-11T07:17:50.939Z</time></trkpt><trkpt lat="44.8811017" lon="10.1425883"><ele>49.0</ele><time>2026-04-11T07:17:51.939Z</time></trkpt><trkpt lat="44.8810417" lon="10.1429717"><ele>48.5</ele><time>2026-04-11T07:17:52.939Z</time></trkpt><trkpt lat="44.8809833" lon="10.1433683"><ele>48.0</ele><time>2026-04-11T07:17:53.938Z</time></trkpt><trkpt lat="44.8809283" lon="10.1437533"><ele>47.5</ele><time>2026-04-11T07:17:54.939Z</time></trkpt><trkpt lat="44.8808733" lon="10.1441417"><ele>47.0</ele><time>2026-04-11T07:17:55.939Z</time></trkpt><trkpt lat="44.8808117" lon="10.144525"><ele>47.5</ele><time>2026-04-11T07:17:56.938Z</time></trkpt><trkpt lat="44.8807517" lon="10.144895"><ele>48.0</ele><time>2026-04-11T07:17:57.939Z</time></trkpt><trkpt lat="44.8806817" lon="10.14527"><ele>48.0</ele><time>2026-04-11T07:17:58.939Z</time></trkpt><trkpt lat="44.8806217" lon="10.1456333"><ele>48.0</ele><time>2026-04-11T07:17:59.939Z</time></trkpt><trkpt lat="44.8805633" lon="10.1460033"><ele>48.0</ele><time>2026-04-11T07:18:00.939Z</time></trkpt><trkpt lat="44.8805033" lon="10.1463633"><ele>48.0</ele><time>2026-04-11T07:18:01.939Z</time></trkpt><trkpt lat="44.8804433" lon="10.14672"><ele>48.0</ele><time>2026-04-11T07:18:02.939Z</time></trkpt><trkpt lat="44.8803867" lon="10.1470633"><ele>48.0</ele><time>2026-04-11T07:18:03.938Z</time></trkpt><trkpt lat="44.8803267" lon="10.14742"><ele>48.0</ele><time>2026-04-11T07:18:04.938Z</time></trkpt><trkpt lat="44.8802733" lon="10.147755"><ele>48.0</ele><time>2026-04-11T07:18:05.939Z</time></trkpt><trkpt lat="44.8802167" lon="10.1480917"><ele>48.0</ele><time>2026-04-11T07:18:06.938Z</time></trkpt><trkpt lat="44.88016" lon="10.1484317"><ele>48.0</ele><time>2026-04-11T07:18:07.939Z</time></trkpt><trkpt lat="44.8801033" lon="10.148765"><ele>47.0</ele><time>2026-04-11T07:18:08.939Z</time></trkpt><trkpt lat="44.880035" lon="10.1491167"><ele>46.0</ele><time>2026-04-11T07:18:09.939Z</time></trkpt><trkpt lat="44.87998" lon="10.1494367"><ele>46.0</ele><time>2026-04-11T07:18:10.939Z</time></trkpt><trkpt lat="44.8799283" lon="10.14976"><ele>46.0</ele><time>2026-04-11T07:18:11.939Z</time></trkpt><trkpt lat="44.8798733" lon="10.15009"><ele>46.0</ele><time>2026-04-11T07:18:12.939Z</time></trkpt><trkpt lat="44.8798217" lon="10.1504267"><ele>46.0</ele><time>2026-04-11T07:18:13.938Z</time></trkpt><trkpt lat="44.8797617" lon="10.1507633"><ele>46.5</ele><time>2026-04-11T07:18:14.939Z</time></trkpt><trkpt lat="44.8797033" lon="10.1511"><ele>47.0</ele><time>2026-04-11T07:18:15.939Z</time></trkpt><trkpt lat="44.879645" lon="10.151445"><ele>47.0</ele><time>2026-04-11T07:18:16.939Z</time></trkpt><trkpt lat="44.8795883" lon="10.151785"><ele>47.0</ele><time>2026-04-11T07:18:17.939Z</time></trkpt><trkpt lat="44.8795333" lon="10.152115"><ele>46.5</ele><time>2026-04-11T07:18:18.938Z</time></trkpt><trkpt lat="44.8794783" lon="10.152455"><ele>46.0</ele><time>2026-04-11T07:18:19.939Z</time></trkpt><trkpt lat="44.8794217" lon="10.15278"><ele>46.0</ele><time>2026-04-11T07:18:20.939Z</time></trkpt><trkpt lat="44.879365" lon="10.1531133"><ele>46.0</ele><time>2026-04-11T07:18:21.939Z</time></trkpt><trkpt lat="44.8793117" lon="10.1534367"><ele>46.0</ele><time>2026-04-11T07:18:22.939Z</time></trkpt><trkpt lat="44.8792467" lon="10.15376"><ele>46.0</ele><time>2026-04-11T07:18:23.939Z</time></trkpt><trkpt lat="44.8791867" lon="10.1540717"><ele>46.0</ele><time>2026-04-11T07:18:24.939Z</time></trkpt><trkpt lat="44.8791433" lon="10.154385"><ele>46.0</ele><time>2026-04-11T07:18:25.939Z</time></trkpt><trkpt lat="44.8790883" lon="10.1547083"><ele>46.0</ele><time>2026-04-11T07:18:26.939Z</time></trkpt><trkpt lat="44.8790317" lon="10.1550367"><ele>46.0</ele><time>2026-04-11T07:18:27.939Z</time></trkpt><trkpt lat="44.8789833" lon="10.155365"><ele>46.5</ele><time>2026-04-11T07:18:28.939Z</time></trkpt><trkpt lat="44.8789333" lon="10.1557067"><ele>47.0</ele><time>2026-04-11T07:18:29.938Z</time></trkpt><trkpt lat="44.878885" lon="10.1560467"><ele>47.0</ele><time>2026-04-11T07:18:30.938Z</time></trkpt><trkpt lat="44.8788367" lon="10.15639"><ele>47.0</ele><time>2026-04-11T07:18:31.938Z</time></trkpt><trkpt lat="44.8787817" lon="10.1567183"><ele>46.5</ele><time>2026-04-11T07:18:32.939Z</time></trkpt><trkpt lat="44.8787167" lon="10.1570233"><ele>46.0</ele><time>2026-04-11T07:18:33.939Z</time></trkpt><trkpt lat="44.8786633" lon="10.1573517"><ele>46.0</ele><time>2026-04-11T07:18:34.939Z</time></trkpt><trkpt lat="44.8786167" lon="10.1576633"><ele>46.0</ele><time>2026-04-11T07:18:35.939Z</time></trkpt><trkpt lat="44.8785667" lon="10.1579833"><ele>46.5</ele><time>2026-04-11T07:18:36.939Z</time></trkpt><trkpt lat="44.8785133" lon="10.1583017"><ele>47.0</ele><time>2026-04-11T07:18:37.939Z</time></trkpt><trkpt lat="44.8784617" lon="10.158625"><ele>47.0</ele><time>2026-04-11T07:18:38.939Z</time></trkpt><trkpt lat="44.878415" lon="10.1589417"><ele>47.0</ele><time>2026-04-11T07:18:39.939Z</time></trkpt><trkpt lat="44.87836" lon="10.1592683"><ele>47.0</ele><time>2026-04-11T07:18:40.939Z</time></trkpt><trkpt lat="44.8783117" lon="10.15959"><ele>47.0</ele><time>2026-04-11T07:18:41.939Z</time></trkpt><trkpt lat="44.878255" lon="10.159915"><ele>46.5</ele><time>2026-04-11T07:18:42.938Z</time></trkpt><trkpt lat="44.8782017" lon="10.1602383"><ele>46.0</ele><time>2026-04-11T07:18:43.939Z</time></trkpt><trkpt lat="44.8781117" lon="10.1605417"><ele>46.5</ele><time>2026-04-11T07:18:44.939Z</time></trkpt><trkpt lat="44.8780967" lon="10.1608783"><ele>47.0</ele><time>2026-04-11T07:18:45.939Z</time></trkpt><trkpt lat="44.878025" lon="10.1611933"><ele>47.0</ele><time>2026-04-11T07:18:46.939Z</time></trkpt><trkpt lat="44.8779667" lon="10.1615067"><ele>47.0</ele><time>2026-04-11T07:18:47.939Z</time></trkpt><trkpt lat="44.8779067" lon="10.1618217"><ele>46.666666666666664</ele><time>2026-04-11T07:18:48.938Z</time></trkpt><trkpt lat="44.87786" lon="10.1621283"><ele>46.333333333333336</ele><time>2026-04-11T07:18:49.939Z</time></trkpt><trkpt lat="44.87782" lon="10.1624233"><ele>46.0</ele><time>2026-04-11T07:18:50.938Z</time></trkpt><trkpt lat="44.8777667" lon="10.1627283"><ele>46.5</ele><time>2026-04-11T07:18:51.938Z</time></trkpt><trkpt lat="44.8777283" lon="10.1630417"><ele>47.0</ele><time>2026-04-11T07:18:52.939Z</time></trkpt><trkpt lat="44.877675" lon="10.1633583"><ele>47.0</ele><time>2026-04-11T07:18:53.938Z</time></trkpt><trkpt lat="44.8776183" lon="10.1636817"><ele>47.0</ele><time>2026-04-11T07:18:54.939Z</time></trkpt><trkpt lat="44.8775583" lon="10.1640033"><ele>46.5</ele><time>2026-04-11T07:18:55.939Z</time></trkpt><trkpt lat="44.8775083" lon="10.16433"><ele>46.0</ele><time>2026-04-11T07:18:56.939Z</time></trkpt><trkpt lat="44.8774533" lon="10.164655"><ele>46.0</ele><time>2026-04-11T07:18:57.939Z</time></trkpt><trkpt lat="44.8773933" lon="10.164985"><ele>46.0</ele><time>2026-04-11T07:18:58.939Z</time></trkpt><trkpt lat="44.8773383" lon="10.1653317"><ele>46.0</ele><time>2026-04-11T07:18:59.939Z</time></trkpt><trkpt lat="44.8772767" lon="10.1656767"><ele>46.0</ele><time>2026-04-11T07:19:00.939Z</time></trkpt><trkpt lat="44.877215" lon="10.1660267"><ele>46.0</ele><time>2026-04-11T07:19:01.939Z</time></trkpt><trkpt lat="44.8771583" lon="10.1663667"><ele>46.0</ele><time>2026-04-11T07:19:02.939Z</time></trkpt><trkpt lat="44.8771017" lon="10.1667167"><ele>46.0</ele><time>2026-04-11T07:19:03.939Z</time></trkpt><trkpt lat="44.8770483" lon="10.16706"><ele>46.0</ele><time>2026-04-11T07:19:04.939Z</time></trkpt><trkpt lat="44.8769867" lon="10.16741"><ele>46.5</ele><time>2026-04-11T07:19:05.939Z</time></trkpt><trkpt lat="44.8769233" lon="10.1677533"><ele>47.0</ele><time>2026-04-11T07:19:06.938Z</time></trkpt><trkpt lat="44.8768683" lon="10.1680883"><ele>47.5</ele><time>2026-04-11T07:19:07.939Z</time></trkpt><trkpt lat="44.87681" lon="10.16843"><ele>48.0</ele><time>2026-04-11T07:19:08.939Z</time></trkpt><trkpt lat="44.8767533" lon="10.1687767"><ele>49.0</ele><time>2026-04-11T07:19:09.939Z</time></trkpt><trkpt lat="44.8766917" lon="10.1691233"><ele>50.0</ele><time>2026-04-11T07:19:10.939Z</time></trkpt><trkpt lat="44.87663" lon="10.1694767"><ele>50.0</ele><time>2026-04-11T07:19:11.939Z</time></trkpt><trkpt lat="44.8765867" lon="10.1698167"><ele>50.0</ele><time>2026-04-11T07:19:12.939Z</time></trkpt><trkpt lat="44.8765217" lon="10.170165"><ele>49.5</ele><time>2026-04-11T07:19:13.939Z</time></trkpt><trkpt lat="44.8764667" lon="10.1705083"><ele>49.0</ele><time>2026-04-11T07:19:14.939Z</time></trkpt><trkpt lat="44.8764067" lon="10.1708633"><ele>48.0</ele><time>2026-04-11T07:19:15.939Z</time></trkpt><trkpt lat="44.8763433" lon="10.1712267"><ele>47.0</ele><time>2026-04-11T07:19:16.939Z</time></trkpt><trkpt lat="44.87628" lon="10.17159"><ele>47.0</ele><time>2026-04-11T07:19:17.939Z</time></trkpt><trkpt lat="44.8762167" lon="10.1719533"><ele>47.0</ele><time>2026-04-11T07:19:18.938Z</time></trkpt><trkpt lat="44.87615" lon="10.17231"><ele>47.5</ele><time>2026-04-11T07:19:19.939Z</time></trkpt><trkpt lat="44.8760883" lon="10.1726667"><ele>48.0</ele><time>2026-04-11T07:19:20.939Z</time></trkpt><trkpt lat="44.8760233" lon="10.173025"><ele>48.0</ele><time>2026-04-11T07:19:21.939Z</time></trkpt><trkpt lat="44.8759583" lon="10.1733767"><ele>48.0</ele><time>2026-04-11T07:19:22.939Z</time></trkpt><trkpt lat="44.8759" lon="10.1737233"><ele>46.5</ele><time>2026-04-11T07:19:23.939Z</time></trkpt><trkpt lat="44.8758417" lon="10.17408"><ele>45.0</ele><time>2026-04-11T07:19:24.939Z</time></trkpt><trkpt lat="44.8757933" lon="10.174445"><ele>45.0</ele><time>2026-04-11T07:19:25.939Z</time></trkpt><trkpt lat="44.8757283" lon="10.1748"><ele>45.0</ele><time>2026-04-11T07:19:26.939Z</time></trkpt><trkpt lat="44.8756667" lon="10.175155"><ele>45.0</ele><time>2026-04-11T07:19:27.939Z</time></trkpt><trkpt lat="44.87561" lon="10.175505"><ele>45.0</ele><time>2026-04-11T07:19:28.939Z</time></trkpt><trkpt lat="44.87555" lon="10.1758567"><ele>45.5</ele><time>2026-04-11T07:19:29.939Z</time></trkpt><trkpt lat="44.875495" lon="10.1762033"><ele>46.0</ele><time>2026-04-11T07:19:30.939Z</time></trkpt><trkpt lat="44.8754367" lon="10.1765417"><ele>45.0</ele><time>2026-04-11T07:19:31.939Z</time></trkpt><trkpt lat="44.875385" lon="10.17688"><ele>44.0</ele><time>2026-04-11T07:19:32.939Z</time></trkpt><trkpt lat="44.8753267" lon="10.1772133"><ele>44.0</ele><time>2026-04-11T07:19:33.939Z</time></trkpt><trkpt lat="44.8752517" lon="10.1775733"><ele>44.0</ele><time>2026-04-11T07:19:34.939Z</time></trkpt><trkpt lat="44.875205" lon="10.1778883"><ele>44.0</ele><time>2026-04-11T07:19:35.939Z</time></trkpt><trkpt lat="44.8751483" lon="10.1782317"><ele>44.0</ele><time>2026-04-11T07:19:36.939Z</time></trkpt><trkpt lat="44.875095" lon="10.1785633"><ele>43.5</ele><time>2026-04-11T07:19:37.939Z</time></trkpt><trkpt lat="44.8750417" lon="10.1788967"><ele>43.0</ele><time>2026-04-11T07:19:38.939Z</time></trkpt><trkpt lat="44.8749817" lon="10.1792333"><ele>43.0</ele><time>2026-04-11T07:19:39.939Z</time></trkpt><trkpt lat="44.8749267" lon="10.179575"><ele>43.0</ele><time>2026-04-11T07:19:40.939Z</time></trkpt><trkpt lat="44.8748633" lon="10.1799217"><ele>43.5</ele><time>2026-04-11T07:19:41.939Z</time></trkpt><trkpt lat="44.8748017" lon="10.180265"><ele>44.0</ele><time>2026-04-11T07:19:42.939Z</time></trkpt><trkpt lat="44.8747467" lon="10.1806083"><ele>43.5</ele><time>2026-04-11T07:19:43.938Z</time></trkpt><trkpt lat="44.8746917" lon="10.1809467"><ele>43.0</ele><time>2026-04-11T07:19:44.939Z</time></trkpt><trkpt lat="44.874635" lon="10.18129"><ele>44.0</ele><time>2026-04-11T07:19:45.939Z</time></trkpt><trkpt lat="44.8745717" lon="10.1816267"><ele>45.0</ele><time>2026-04-11T07:19:46.939Z</time></trkpt><trkpt lat="44.8745117" lon="10.181985"><ele>45.0</ele><time>2026-04-11T07:19:47.939Z</time></trkpt><trkpt lat="44.8744517" lon="10.182335"><ele>45.0</ele><time>2026-04-11T07:19:48.939Z</time></trkpt><trkpt lat="44.8743917" lon="10.1826817"><ele>44.0</ele><time>2026-04-11T07:19:49.939Z</time></trkpt><trkpt lat="44.8743333" lon="10.1830317"><ele>43.0</ele><time>2026-04-11T07:19:50.939Z</time></trkpt><trkpt lat="44.8742733" lon="10.183375"><ele>43.5</ele><time>2026-04-11T07:19:51.939Z</time></trkpt><trkpt lat="44.87421" lon="10.1837283"><ele>44.0</ele><time>2026-04-11T07:19:52.939Z</time></trkpt><trkpt lat="44.8741533" lon="10.1840733"><ele>44.0</ele><time>2026-04-11T07:19:53.939Z</time></trkpt><trkpt lat="44.8740967" lon="10.1844167"><ele>44.0</ele><time>2026-04-11T07:19:54.939Z</time></trkpt><trkpt lat="44.8740367" lon="10.1847583"><ele>43.0</ele><time>2026-04-11T07:19:55.939Z</time></trkpt><trkpt lat="44.873975" lon="10.1851167"><ele>42.0</ele><time>2026-04-11T07:19:56.939Z</time></trkpt><trkpt lat="44.8739183" lon="10.18547"><ele>42.5</ele><time>2026-04-11T07:19:57.938Z</time></trkpt><trkpt lat="44.8738583" lon="10.185825"><ele>43.0</ele><time>2026-04-11T07:19:58.939Z</time></trkpt><trkpt lat="44.8738033" lon="10.186175"><ele>43.5</ele><time>2026-04-11T07:19:59.939Z</time></trkpt><trkpt lat="44.873745" lon="10.1865133"><ele>44.0</ele><time>2026-04-11T07:20:00.939Z</time></trkpt><trkpt lat="44.8736883" lon="10.1868483"><ele>44.0</ele><time>2026-04-11T07:20:01.938Z</time></trkpt><trkpt lat="44.8736317" lon="10.187175"><ele>44.0</ele><time>2026-04-11T07:20:02.939Z</time></trkpt><trkpt lat="44.873575" lon="10.1874983"><ele>44.0</ele><time>2026-04-11T07:20:03.939Z</time></trkpt><trkpt lat="44.8735217" lon="10.18782"><ele>44.0</ele><time>2026-04-11T07:20:04.939Z</time></trkpt><trkpt lat="44.8734683" lon="10.1881467"><ele>43.0</ele><time>2026-04-11T07:20:05.939Z</time></trkpt><trkpt lat="44.873415" lon="10.188485"><ele>42.0</ele><time>2026-04-11T07:20:06.938Z</time></trkpt><trkpt lat="44.8733567" lon="10.1888267"><ele>42.0</ele><time>2026-04-11T07:20:07.939Z</time></trkpt><trkpt lat="44.8732967" lon="10.1891683"><ele>42.0</ele><time>2026-04-11T07:20:08.939Z</time></trkpt><trkpt lat="44.8732433" lon="10.189505"><ele>42.0</ele><time>2026-04-11T07:20:09.939Z</time></trkpt><trkpt lat="44.87319" lon="10.1898333"><ele>42.0</ele><time>2026-04-11T07:20:10.939Z</time></trkpt><trkpt lat="44.87313" lon="10.1901567"><ele>43.0</ele><time>2026-04-11T07:20:11.939Z</time></trkpt><trkpt lat="44.873075" lon="10.1904833"><ele>44.0</ele><time>2026-04-11T07:20:12.939Z</time></trkpt><trkpt lat="44.8730183" lon="10.1908067"><ele>44.0</ele><time>2026-04-11T07:20:13.939Z</time></trkpt><trkpt lat="44.872965" lon="10.1911333"><ele>44.0</ele><time>2026-04-11T07:20:14.939Z</time></trkpt><trkpt lat="44.8729033" lon="10.19146"><ele>43.5</ele><time>2026-04-11T07:20:15.939Z</time></trkpt><trkpt lat="44.8728517" lon="10.1917867"><ele>43.0</ele><time>2026-04-11T07:20:16.939Z</time></trkpt><trkpt lat="44.8727983" lon="10.19211"><ele>42.5</ele><time>2026-04-11T07:20:17.939Z</time></trkpt><trkpt lat="44.872745" lon="10.1924317"><ele>42.0</ele><time>2026-04-11T07:20:18.939Z</time></trkpt><trkpt lat="44.872695" lon="10.192765"><ele>42.0</ele><time>2026-04-11T07:20:19.939Z</time></trkpt><trkpt lat="44.8726433" lon="10.19309"><ele>42.0</ele><time>2026-04-11T07:20:20.938Z</time></trkpt><trkpt lat="44.8725883" lon="10.1934033"><ele>43.5</ele><time>2026-04-11T07:20:21.938Z</time></trkpt><trkpt lat="44.87253" lon="10.1937383"><ele>45.0</ele><time>2026-04-11T07:20:22.939Z</time></trkpt><trkpt lat="44.8724717" lon="10.194075"><ele>45.0</ele><time>2026-04-11T07:20:23.939Z</time></trkpt><trkpt lat="44.87241" lon="10.1944083"><ele>45.0</ele><time>2026-04-11T07:20:24.939Z</time></trkpt><trkpt lat="44.872355" lon="10.194745"><ele>44.5</ele><time>2026-04-11T07:20:25.939Z</time></trkpt><trkpt lat="44.8723" lon="10.1950767"><ele>44.0</ele><time>2026-04-11T07:20:26.939Z</time></trkpt><trkpt lat="44.8722367" lon="10.1954117"><ele>43.5</ele><time>2026-04-11T07:20:27.939Z</time></trkpt><trkpt lat="44.8721867" lon="10.1957583"><ele>43.0</ele><time>2026-04-11T07:20:28.939Z</time></trkpt><trkpt lat="44.8721333" lon="10.19609"><ele>43.0</ele><time>2026-04-11T07:20:29.939Z</time></trkpt><trkpt lat="44.8720733" lon="10.19643"><ele>43.0</ele><time>2026-04-11T07:20:30.939Z</time></trkpt><trkpt lat="44.87201" lon="10.1967667"><ele>43.5</ele><time>2026-04-11T07:20:31.938Z</time></trkpt><trkpt lat="44.8719517" lon="10.197115"><ele>44.0</ele><time>2026-04-11T07:20:32.938Z</time></trkpt><trkpt lat="44.8718933" lon="10.1974667"><ele>44.0</ele><time>2026-04-11T07:20:33.939Z</time></trkpt><trkpt lat="44.8718333" lon="10.1978083"><ele>44.0</ele><time>2026-04-11T07:20:34.939Z</time></trkpt><trkpt lat="44.871775" lon="10.198155"><ele>44.0</ele><time>2026-04-11T07:20:35.939Z</time></trkpt><trkpt lat="44.871715" lon="10.1985133"><ele>44.0</ele><time>2026-04-11T07:20:36.939Z</time></trkpt><trkpt lat="44.8716533" lon="10.1988567"><ele>44.5</ele><time>2026-04-11T07:20:37.939Z</time></trkpt><trkpt lat="44.8715983" lon="10.199205"><ele>45.0</ele><time>2026-04-11T07:20:38.939Z</time></trkpt><trkpt lat="44.871545" lon="10.1995283"><ele>45.333333333333336</ele><time>2026-04-11T07:20:39.939Z</time></trkpt><trkpt lat="44.8714933" lon="10.199845"><ele>45.66666666666667</ele><time>2026-04-11T07:20:40.939Z</time></trkpt><trkpt lat="44.8714467" lon="10.20014"><ele>46.0</ele><time>2026-04-11T07:20:41.939Z</time></trkpt><trkpt lat="44.871395" lon="10.2004333"><ele>45.66666666666667</ele><time>2026-04-11T07:20:42.939Z</time></trkpt><trkpt lat="44.8713367" lon="10.2007367"><ele>45.333333333333336</ele><time>2026-04-11T07:20:43.939Z</time></trkpt><trkpt lat="44.8712817" lon="10.201035"><ele>45.0</ele><time>2026-04-11T07:20:44.939Z</time></trkpt><trkpt lat="44.8712283" lon="10.2013417"><ele>44.5</ele><time>2026-04-11T07:20:45.939Z</time></trkpt><trkpt lat="44.8711767" lon="10.2016517"><ele>44.0</ele><time>2026-04-11T07:20:46.939Z</time></trkpt><trkpt lat="44.8711283" lon="10.2019633"><ele>44.0</ele><time>2026-04-11T07:20:47.939Z</time></trkpt><trkpt lat="44.8710733" lon="10.2022667"><ele>44.0</ele><time>2026-04-11T07:20:48.939Z</time></trkpt><trkpt lat="44.8710167" lon="10.2025817"><ele>44.0</ele><time>2026-04-11T07:20:49.939Z</time></trkpt><trkpt lat="44.8709633" lon="10.20291"><ele>44.0</ele><time>2026-04-11T07:20:50.939Z</time></trkpt><trkpt lat="44.87091" lon="10.20323"><ele>44.0</ele><time>2026-04-11T07:20:51.939Z</time></trkpt><trkpt lat="44.8708517" lon="10.2035533"><ele>44.0</ele><time>2026-04-11T07:20:52.939Z</time></trkpt><trkpt lat="44.87079" lon="10.2038817"><ele>44.0</ele><time>2026-04-11T07:20:53.938Z</time></trkpt><trkpt lat="44.8707317" lon="10.2042233"><ele>44.0</ele><time>2026-04-11T07:20:54.939Z</time></trkpt><trkpt lat="44.8706733" lon="10.2045683"><ele>43.5</ele><time>2026-04-11T07:20:55.939Z</time></trkpt><trkpt lat="44.8706167" lon="10.2049033"><ele>43.0</ele><time>2026-04-11T07:20:56.939Z</time></trkpt><trkpt lat="44.8705667" lon="10.2052483"><ele>43.0</ele><time>2026-04-11T07:20:57.939Z</time></trkpt><trkpt lat="44.87051" lon="10.2055867"><ele>43.0</ele><time>2026-04-11T07:20:58.938Z</time></trkpt><trkpt lat="44.8704533" lon="10.20593"><ele>43.0</ele><time>2026-04-11T07:20:59.939Z</time></trkpt><trkpt lat="44.870395" lon="10.2062833"><ele>43.0</ele><time>2026-04-11T07:21:00.939Z</time></trkpt><trkpt lat="44.8703383" lon="10.206635"><ele>44.5</ele><time>2026-04-11T07:21:01.939Z</time></trkpt><trkpt lat="44.870275" lon="10.2069783"><ele>46.0</ele><time>2026-04-11T07:21:02.939Z</time></trkpt><trkpt lat="44.87022" lon="10.2073217"><ele>45.5</ele><time>2026-04-11T07:21:03.939Z</time></trkpt><trkpt lat="44.8701617" lon="10.20767"><ele>45.0</ele><time>2026-04-11T07:21:04.939Z</time></trkpt><trkpt lat="44.8700933" lon="10.2080217"><ele>45.0</ele><time>2026-04-11T07:21:05.939Z</time></trkpt><trkpt lat="44.8700383" lon="10.2083617"><ele>45.0</ele><time>2026-04-11T07:21:06.938Z</time></trkpt><trkpt lat="44.8699833" lon="10.20868"><ele>45.0</ele><time>2026-04-11T07:21:07.939Z</time></trkpt><trkpt lat="44.8699233" lon="10.2090033"><ele>45.0</ele><time>2026-04-11T07:21:08.939Z</time></trkpt><trkpt lat="44.8698683" lon="10.20934"><ele>45.0</ele><time>2026-04-11T07:21:09.939Z</time></trkpt><trkpt lat="44.8698167" lon="10.20967"><ele>45.0</ele><time>2026-04-11T07:21:10.939Z</time></trkpt><trkpt lat="44.86976" lon="10.2100083"><ele>45.0</ele><time>2026-04-11T07:21:11.938Z</time></trkpt><trkpt lat="44.8697067" lon="10.21035"><ele>45.0</ele><time>2026-04-11T07:21:12.939Z</time></trkpt><trkpt lat="44.8696467" lon="10.2106867"><ele>44.5</ele><time>2026-04-11T07:21:13.939Z</time></trkpt><trkpt lat="44.8695883" lon="10.211015"><ele>44.0</ele><time>2026-04-11T07:21:14.939Z</time></trkpt><trkpt lat="44.8695333" lon="10.211345"><ele>44.5</ele><time>2026-04-11T07:21:15.939Z</time></trkpt><trkpt lat="44.8694783" lon="10.21166"><ele>45.0</ele><time>2026-04-11T07:21:16.939Z</time></trkpt><trkpt lat="44.8694233" lon="10.2119933"><ele>45.0</ele><time>2026-04-11T07:21:17.939Z</time></trkpt><trkpt lat="44.869365" lon="10.2123333"><ele>45.0</ele><time>2026-04-11T07:21:18.939Z</time></trkpt><trkpt lat="44.8693083" lon="10.212675"><ele>44.5</ele><time>2026-04-11T07:21:19.939Z</time></trkpt><trkpt lat="44.86925" lon="10.2130067"><ele>44.0</ele><time>2026-04-11T07:21:20.939Z</time></trkpt><trkpt lat="44.8691983" lon="10.2133283"><ele>44.666666666666664</ele><time>2026-04-11T07:21:21.938Z</time></trkpt><trkpt lat="44.8691483" lon="10.2136383"><ele>45.333333333333336</ele><time>2026-04-11T07:21:22.939Z</time></trkpt><trkpt lat="44.86911" lon="10.2139433"><ele>46.0</ele><time>2026-04-11T07:21:23.939Z</time></trkpt><trkpt lat="44.8690533" lon="10.21426"><ele>46.0</ele><time>2026-04-11T07:21:24.939Z</time></trkpt><trkpt lat="44.868995" lon="10.21458"><ele>46.0</ele><time>2026-04-11T07:21:25.939Z</time></trkpt><trkpt lat="44.868935" lon="10.2148967"><ele>45.0</ele><time>2026-04-11T07:21:26.939Z</time></trkpt><trkpt lat="44.868885" lon="10.2152133"><ele>44.0</ele><time>2026-04-11T07:21:27.939Z</time></trkpt><trkpt lat="44.86883" lon="10.2155383"><ele>43.5</ele><time>2026-04-11T07:21:28.939Z</time></trkpt><trkpt lat="44.8687733" lon="10.2158483"><ele>43.0</ele><time>2026-04-11T07:21:29.938Z</time></trkpt><trkpt lat="44.8687217" lon="10.2161717"><ele>43.0</ele><time>2026-04-11T07:21:30.939Z</time></trkpt><trkpt lat="44.86867" lon="10.216485"><ele>43.0</ele><time>2026-04-11T07:21:31.939Z</time></trkpt><trkpt lat="44.8686183" lon="10.2167883"><ele>43.0</ele><time>2026-04-11T07:21:32.939Z</time></trkpt><trkpt lat="44.8685633" lon="10.2171"><ele>43.5</ele><time>2026-04-11T07:21:33.939Z</time></trkpt><trkpt lat="44.8685133" lon="10.2174033"><ele>44.0</ele><time>2026-04-11T07:21:34.938Z</time></trkpt><trkpt lat="44.86846" lon="10.2177217"><ele>44.0</ele><time>2026-04-11T07:21:35.939Z</time></trkpt><trkpt lat="44.8684083" lon="10.21803"><ele>44.0</ele><time>2026-04-11T07:21:36.939Z</time></trkpt><trkpt lat="44.86835" lon="10.2183683"><ele>43.5</ele><time>2026-04-11T07:21:37.939Z</time></trkpt><trkpt lat="44.8683017" lon="10.2186933"><ele>43.0</ele><time>2026-04-11T07:21:38.939Z</time></trkpt><trkpt lat="44.8682483" lon="10.2190183"><ele>43.0</ele><time>2026-04-11T07:21:39.939Z</time></trkpt><trkpt lat="44.8681883" lon="10.2193533"><ele>43.0</ele><time>2026-04-11T07:21:40.939Z</time></trkpt><trkpt lat="44.8681333" lon="10.2196783"><ele>43.5</ele><time>2026-04-11T07:21:41.939Z</time></trkpt><trkpt lat="44.8680767" lon="10.2200033"><ele>44.0</ele><time>2026-04-11T07:21:42.939Z</time></trkpt><trkpt lat="44.8680133" lon="10.2203333"><ele>44.0</ele><time>2026-04-11T07:21:43.939Z</time></trkpt><trkpt lat="44.867955" lon="10.2206733"><ele>44.0</ele><time>2026-04-11T07:21:44.939Z</time></trkpt><trkpt lat="44.8678917" lon="10.2210183"><ele>44.0</ele><time>2026-04-11T07:21:45.939Z</time></trkpt><trkpt lat="44.86783" lon="10.2213833"><ele>44.0</ele><time>2026-04-11T07:21:46.939Z</time></trkpt><trkpt lat="44.8677583" lon="10.2217633"><ele>43.5</ele><time>2026-04-11T07:21:47.938Z</time></trkpt><trkpt lat="44.8676917" lon="10.22214"><ele>43.0</ele><time>2026-04-11T07:21:48.939Z</time></trkpt><trkpt lat="44.8676183" lon="10.2225183"><ele>43.0</ele><time>2026-04-11T07:21:49.939Z</time></trkpt><trkpt lat="44.8675383" lon="10.22292"><ele>43.0</ele><time>2026-04-11T07:21:50.938Z</time></trkpt><trkpt lat="44.86746" lon="10.2233117"><ele>43.0</ele><time>2026-04-11T07:21:51.939Z</time></trkpt><trkpt lat="44.8673833" lon="10.2237017"><ele>43.0</ele><time>2026-04-11T07:21:52.938Z</time></trkpt><trkpt lat="44.8673133" lon="10.2240883"><ele>43.0</ele><time>2026-04-11T07:21:53.939Z</time></trkpt><trkpt lat="44.867215" lon="10.2244783"><ele>43.0</ele><time>2026-04-11T07:21:54.939Z</time></trkpt><trkpt lat="44.8671217" lon="10.224875"><ele>43.0</ele><time>2026-04-11T07:21:55.939Z</time></trkpt><trkpt lat="44.8670367" lon="10.2252717"><ele>43.0</ele><time>2026-04-11T07:21:56.939Z</time></trkpt><trkpt lat="44.866945" lon="10.225665"><ele>43.0</ele><time>2026-04-11T07:21:57.938Z</time></trkpt><trkpt lat="44.8668517" lon="10.2260667"><ele>43.0</ele><time>2026-04-11T07:21:58.939Z</time></trkpt><trkpt lat="44.8667533" lon="10.2264583"><ele>44.0</ele><time>2026-04-11T07:21:59.939Z</time></trkpt><trkpt lat="44.8666617" lon="10.2268533"><ele>45.0</ele><time>2026-04-11T07:22:00.939Z</time></trkpt><trkpt lat="44.8665683" lon="10.227255"><ele>45.0</ele><time>2026-04-11T07:22:01.939Z</time></trkpt><trkpt lat="44.8664667" lon="10.2276617"><ele>45.0</ele><time>2026-04-11T07:22:02.939Z</time></trkpt><trkpt lat="44.8663633" lon="10.2280583"><ele>45.0</ele><time>2026-04-11T07:22:03.939Z</time></trkpt><trkpt lat="44.8662717" lon="10.2284583"><ele>45.0</ele><time>2026-04-11T07:22:04.939Z</time></trkpt><trkpt lat="44.8661867" lon="10.2288533"><ele>44.0</ele><time>2026-04-11T07:22:05.939Z</time></trkpt><trkpt lat="44.8660917" lon="10.2292483"><ele>43.0</ele><time>2026-04-11T07:22:06.939Z</time></trkpt><trkpt lat="44.8659983" lon="10.2296383"><ele>43.5</ele><time>2026-04-11T07:22:07.939Z</time></trkpt><trkpt lat="44.86591" lon="10.230025"><ele>44.0</ele><time>2026-04-11T07:22:08.939Z</time></trkpt><trkpt lat="44.86582" lon="10.2304167"><ele>43.5</ele><time>2026-04-11T07:22:09.939Z</time></trkpt><trkpt lat="44.86573" lon="10.2308167"><ele>43.0</ele><time>2026-04-11T07:22:10.939Z</time></trkpt><trkpt lat="44.865635" lon="10.231205"><ele>42.5</ele><time>2026-04-11T07:22:11.939Z</time></trkpt><trkpt lat="44.86554" lon="10.2316033"><ele>42.0</ele><time>2026-04-11T07:22:12.939Z</time></trkpt><trkpt lat="44.8654467" lon="10.231995"><ele>43.0</ele><time>2026-04-11T07:22:13.939Z</time></trkpt><trkpt lat="44.8653517" lon="10.2323783"><ele>44.0</ele><time>2026-04-11T07:22:14.939Z</time></trkpt><trkpt lat="44.8652567" lon="10.23276"><ele>44.0</ele><time>2026-04-11T07:22:15.939Z</time></trkpt><trkpt lat="44.865165" lon="10.23314"><ele>44.0</ele><time>2026-04-11T07:22:16.939Z</time></trkpt><trkpt lat="44.8650733" lon="10.2335283"><ele>44.0</ele><time>2026-04-11T07:22:17.939Z</time></trkpt><trkpt lat="44.8649783" lon="10.2339167"><ele>44.0</ele><time>2026-04-11T07:22:18.939Z</time></trkpt><trkpt lat="44.8648883" lon="10.2343067"><ele>44.0</ele><time>2026-04-11T07:22:19.939Z</time></trkpt><trkpt lat="44.8647917" lon="10.2346933"><ele>44.0</ele><time>2026-04-11T07:22:20.938Z</time></trkpt><trkpt lat="44.8646967" lon="10.2350933"><ele>44.5</ele><time>2026-04-11T07:22:21.939Z</time></trkpt><trkpt lat="44.864605" lon="10.23548"><ele>45.0</ele><time>2026-04-11T07:22:22.939Z</time></trkpt><trkpt lat="44.864505" lon="10.235865"><ele>45.0</ele><time>2026-04-11T07:22:23.939Z</time></trkpt><trkpt lat="44.8643983" lon="10.23622"><ele>45.0</ele><time>2026-04-11T07:22:24.939Z</time></trkpt><trkpt lat="44.8643033" lon="10.2366167"><ele>45.0</ele><time>2026-04-11T07:22:25.939Z</time></trkpt><trkpt lat="44.864225" lon="10.2369883"><ele>45.0</ele><time>2026-04-11T07:22:26.939Z</time></trkpt><trkpt lat="44.8641467" lon="10.2373367"><ele>45.5</ele><time>2026-04-11T07:22:27.939Z</time></trkpt><trkpt lat="44.8640867" lon="10.2376733"><ele>46.0</ele><time>2026-04-11T07:22:28.939Z</time></trkpt><trkpt lat="44.8640033" lon="10.2380267"><ele>45.5</ele><time>2026-04-11T07:22:29.939Z</time></trkpt><trkpt lat="44.8639133" lon="10.2383767"><ele>45.0</ele><time>2026-04-11T07:22:30.939Z</time></trkpt><trkpt lat="44.863845" lon="10.2387133"><ele>45.0</ele><time>2026-04-11T07:22:31.938Z</time></trkpt><trkpt lat="44.8637433" lon="10.239055"><ele>45.0</ele><time>2026-04-11T07:22:32.938Z</time></trkpt><trkpt lat="44.8636517" lon="10.2394083"><ele>45.0</ele><time>2026-04-11T07:22:33.939Z</time></trkpt><trkpt lat="44.863565" lon="10.2397383"><ele>45.0</ele><time>2026-04-11T07:22:34.939Z</time></trkpt><trkpt lat="44.8634783" lon="10.24008"><ele>44.5</ele><time>2026-04-11T07:22:35.939Z</time></trkpt><trkpt lat="44.8634033" lon="10.2404417"><ele>44.0</ele><time>2026-04-11T07:22:36.939Z</time></trkpt><trkpt lat="44.8633267" lon="10.240805"><ele>43.0</ele><time>2026-04-11T07:22:37.939Z</time></trkpt><trkpt lat="44.8632517" lon="10.2411583"><ele>42.0</ele><time>2026-04-11T07:22:38.939Z</time></trkpt><trkpt lat="44.8631583" lon="10.241495"><ele>41.5</ele><time>2026-04-11T07:22:39.938Z</time></trkpt><trkpt lat="44.86308" lon="10.24183"><ele>41.0</ele><time>2026-04-11T07:22:40.938Z</time></trkpt><trkpt lat="44.8630117" lon="10.2421667"><ele>41.0</ele><time>2026-04-11T07:22:41.939Z</time></trkpt><trkpt lat="44.862935" lon="10.2425133"><ele>41.0</ele><time>2026-04-11T07:22:42.939Z</time></trkpt><trkpt lat="44.86286" lon="10.2428467"><ele>40.5</ele><time>2026-04-11T07:22:43.939Z</time></trkpt><trkpt lat="44.8627717" lon="10.2431867"><ele>40.0</ele><time>2026-04-11T07:22:44.939Z</time></trkpt><trkpt lat="44.862685" lon="10.2435283"><ele>39.5</ele><time>2026-04-11T07:22:45.939Z</time></trkpt><trkpt lat="44.862595" lon="10.2438733"><ele>39.0</ele><time>2026-04-11T07:22:46.939Z</time></trkpt><trkpt lat="44.862505" lon="10.2442183"><ele>40.5</ele><time>2026-04-11T07:22:47.939Z</time></trkpt><trkpt lat="44.86242" lon="10.244575"><ele>42.0</ele><time>2026-04-11T07:22:48.939Z</time></trkpt><trkpt lat="44.862335" lon="10.24492"><ele>43.5</ele><time>2026-04-11T07:22:49.938Z</time></trkpt><trkpt lat="44.8622567" lon="10.24526"><ele>45.0</ele><time>2026-04-11T07:22:50.939Z</time></trkpt><trkpt lat="44.862175" lon="10.2456"><ele>44.5</ele><time>2026-04-11T07:22:51.938Z</time></trkpt><trkpt lat="44.8620983" lon="10.2459317"><ele>44.0</ele><time>2026-04-11T07:22:52.939Z</time></trkpt><trkpt lat="44.8620217" lon="10.2462533"><ele>44.0</ele><time>2026-04-11T07:22:53.939Z</time></trkpt><trkpt lat="44.8619483" lon="10.2465767"><ele>44.0</ele><time>2026-04-11T07:22:54.939Z</time></trkpt><trkpt lat="44.8618683" lon="10.2469017"><ele>44.0</ele><time>2026-04-11T07:22:55.939Z</time></trkpt><trkpt lat="44.8617833" lon="10.2472217"><ele>44.0</ele><time>2026-04-11T07:22:56.939Z</time></trkpt><trkpt lat="44.8617017" lon="10.2475483"><ele>44.5</ele><time>2026-04-11T07:22:57.939Z</time></trkpt><trkpt lat="44.86162" lon="10.2478717"><ele>45.0</ele><time>2026-04-11T07:22:58.939Z</time></trkpt><trkpt lat="44.8615383" lon="10.2481933"><ele>45.0</ele><time>2026-04-11T07:22:59.939Z</time></trkpt><trkpt lat="44.8614617" lon="10.248515"><ele>45.0</ele><time>2026-04-11T07:23:00.939Z</time></trkpt><trkpt lat="44.8613817" lon="10.2488367"><ele>45.0</ele><time>2026-04-11T07:23:01.939Z</time></trkpt><trkpt lat="44.861305" lon="10.24916"><ele>45.0</ele><time>2026-04-11T07:23:02.939Z</time></trkpt><trkpt lat="44.8612217" lon="10.2494933"><ele>43.5</ele><time>2026-04-11T07:23:03.939Z</time></trkpt><trkpt lat="44.8611433" lon="10.2498183"><ele>42.0</ele><time>2026-04-11T07:23:04.939Z</time></trkpt><trkpt lat="44.861065" lon="10.2501467"><ele>42.0</ele><time>2026-04-11T07:23:05.939Z</time></trkpt><trkpt lat="44.860985" lon="10.2504667"><ele>42.0</ele><time>2026-04-11T07:23:06.939Z</time></trkpt><trkpt lat="44.8609033" lon="10.2507983"><ele>42.0</ele><time>2026-04-11T07:23:07.939Z</time></trkpt><trkpt lat="44.8608283" lon="10.251125"><ele>42.0</ele><time>2026-04-11T07:23:08.939Z</time></trkpt><trkpt lat="44.860745" lon="10.2514717"><ele>41.5</ele><time>2026-04-11T07:23:09.939Z</time></trkpt><trkpt lat="44.860665" lon="10.2518133"><ele>41.0</ele><time>2026-04-11T07:23:10.939Z</time></trkpt><trkpt lat="44.8605833" lon="10.2521533"><ele>41.0</ele><time>2026-04-11T07:23:11.939Z</time></trkpt><trkpt lat="44.8605017" lon="10.2525033"><ele>41.0</ele><time>2026-04-11T07:23:12.939Z</time></trkpt><trkpt lat="44.8604183" lon="10.2528567"><ele>41.0</ele><time>2026-04-11T07:23:13.939Z</time></trkpt><trkpt lat="44.8603367" lon="10.2532017"><ele>41.0</ele><time>2026-04-11T07:23:14.939Z</time></trkpt><trkpt lat="44.8602533" lon="10.2535467"><ele>41.0</ele><time>2026-04-11T07:23:15.939Z</time></trkpt><trkpt lat="44.8601667" lon="10.2539"><ele>41.0</ele><time>2026-04-11T07:23:16.939Z</time></trkpt><trkpt lat="44.8600833" lon="10.254255"><ele>41.0</ele><time>2026-04-11T07:23:17.939Z</time></trkpt><trkpt lat="44.86" lon="10.2546167"><ele>41.0</ele><time>2026-04-11T07:23:18.938Z</time></trkpt><trkpt lat="44.85992" lon="10.254965"><ele>41.5</ele><time>2026-04-11T07:23:19.939Z</time></trkpt><trkpt lat="44.8598383" lon="10.2553083"><ele>42.0</ele><time>2026-04-11T07:23:20.939Z</time></trkpt><trkpt lat="44.859755" lon="10.2556617"><ele>42.0</ele><time>2026-04-11T07:23:21.939Z</time></trkpt><trkpt lat="44.8596733" lon="10.25602"><ele>42.0</ele><time>2026-04-11T07:23:22.939Z</time></trkpt><trkpt lat="44.8595883" lon="10.25637"><ele>42.0</ele><time>2026-04-11T07:23:23.939Z</time></trkpt><trkpt lat="44.8595067" lon="10.25672"><ele>42.0</ele><time>2026-04-11T07:23:24.939Z</time></trkpt><trkpt lat="44.859425" lon="10.257065"><ele>42.0</ele><time>2026-04-11T07:23:25.939Z</time></trkpt><trkpt lat="44.85934" lon="10.2574067"><ele>42.0</ele><time>2026-04-11T07:23:26.938Z</time></trkpt><trkpt lat="44.85926" lon="10.2577433"><ele>41.0</ele><time>2026-04-11T07:23:27.939Z</time></trkpt><trkpt lat="44.8591817" lon="10.258075"><ele>40.0</ele><time>2026-04-11T07:23:28.939Z</time></trkpt><trkpt lat="44.8591017" lon="10.258395"><ele>40.0</ele><time>2026-04-11T07:23:29.939Z</time></trkpt><trkpt lat="44.85902" lon="10.2587117"><ele>40.0</ele><time>2026-04-11T07:23:30.939Z</time></trkpt><trkpt lat="44.8589467" lon="10.2590283"><ele>40.0</ele><time>2026-04-11T07:23:31.939Z</time></trkpt><trkpt lat="44.858875" lon="10.2593467"><ele>40.0</ele><time>2026-04-11T07:23:32.939Z</time></trkpt><trkpt lat="44.8587917" lon="10.2596717"><ele>39.5</ele><time>2026-04-11T07:23:33.939Z</time></trkpt><trkpt lat="44.85871" lon="10.26"><ele>39.0</ele><time>2026-04-11T07:23:34.939Z</time></trkpt><trkpt lat="44.85863" lon="10.2603267"><ele>39.5</ele><time>2026-04-11T07:23:35.939Z</time></trkpt><trkpt lat="44.8585467" lon="10.2606517"><ele>40.0</ele><time>2026-04-11T07:23:36.938Z</time></trkpt><trkpt lat="44.8584733" lon="10.2609767"><ele>40.5</ele><time>2026-04-11T07:23:37.939Z</time></trkpt><trkpt lat="44.8584017" lon="10.26131"><ele>41.0</ele><time>2026-04-11T07:23:38.939Z</time></trkpt><trkpt lat="44.8583233" lon="10.2616483"><ele>41.0</ele><time>2026-04-11T07:23:39.939Z</time></trkpt><trkpt lat="44.8582433" lon="10.2619867"><ele>41.0</ele><time>2026-04-11T07:23:40.939Z</time></trkpt><trkpt lat="44.8581583" lon="10.26232"><ele>40.0</ele><time>2026-04-11T07:23:41.939Z</time></trkpt><trkpt lat="44.8580833" lon="10.262655"><ele>39.0</ele><time>2026-04-11T07:23:42.939Z</time></trkpt><trkpt lat="44.8580017" lon="10.2630033"><ele>38.5</ele><time>2026-04-11T07:23:43.939Z</time></trkpt><trkpt lat="44.8579167" lon="10.2633533"><ele>38.0</ele><time>2026-04-11T07:23:44.939Z</time></trkpt><trkpt lat="44.857835" lon="10.2636967"><ele>38.0</ele><time>2026-04-11T07:23:45.939Z</time></trkpt><trkpt lat="44.8577533" lon="10.26404"><ele>38.0</ele><time>2026-04-11T07:23:46.939Z</time></trkpt><trkpt lat="44.8576667" lon="10.2643983"><ele>38.5</ele><time>2026-04-11T07:23:47.939Z</time></trkpt><trkpt lat="44.8575833" lon="10.2647467"><ele>39.0</ele><time>2026-04-11T07:23:48.939Z</time></trkpt><trkpt lat="44.8574983" lon="10.26509"><ele>39.0</ele><time>2026-04-11T07:23:49.939Z</time></trkpt><trkpt lat="44.857425" lon="10.2654467"><ele>39.0</ele><time>2026-04-11T07:23:50.939Z</time></trkpt><trkpt lat="44.85734" lon="10.2658"><ele>39.0</ele><time>2026-04-11T07:23:51.939Z</time></trkpt><trkpt lat="44.8572467" lon="10.2661533"><ele>39.0</ele><time>2026-04-11T07:23:52.939Z</time></trkpt><trkpt lat="44.8571583" lon="10.26651"><ele>39.0</ele><time>2026-04-11T07:23:53.939Z</time></trkpt><trkpt lat="44.8570717" lon="10.2668667"><ele>39.0</ele><time>2026-04-11T07:23:54.939Z</time></trkpt><trkpt lat="44.8569867" lon="10.2672267"><ele>39.0</ele><time>2026-04-11T07:23:55.939Z</time></trkpt><trkpt lat="44.8569033" lon="10.2675967"><ele>39.0</ele><time>2026-04-11T07:23:56.939Z</time></trkpt><trkpt lat="44.85682" lon="10.2679583"><ele>39.5</ele><time>2026-04-11T07:23:57.939Z</time></trkpt><trkpt lat="44.85673" lon="10.2683233"><ele>40.0</ele><time>2026-04-11T07:23:58.939Z</time></trkpt><trkpt lat="44.8566383" lon="10.2686883"><ele>39.0</ele><time>2026-04-11T07:23:59.939Z</time></trkpt><trkpt lat="44.8565517" lon="10.2690583"><ele>38.0</ele><time>2026-04-11T07:24:00.939Z</time></trkpt><trkpt lat="44.856465" lon="10.2694317"><ele>38.5</ele><time>2026-04-11T07:24:01.939Z</time></trkpt><trkpt lat="44.8563733" lon="10.2698067"><ele>39.0</ele><time>2026-04-11T07:24:02.939Z</time></trkpt><trkpt lat="44.8562817" lon="10.270175"><ele>39.0</ele><time>2026-04-11T07:24:03.939Z</time></trkpt><trkpt lat="44.8561967" lon="10.2705467"><ele>39.0</ele><time>2026-04-11T07:24:04.938Z</time></trkpt><trkpt lat="44.85611" lon="10.2709017"><ele>38.5</ele><time>2026-04-11T07:24:05.939Z</time></trkpt><trkpt lat="44.8560233" lon="10.2712567"><ele>38.0</ele><time>2026-04-11T07:24:06.939Z</time></trkpt><trkpt lat="44.85594" lon="10.2715983"><ele>38.0</ele><time>2026-04-11T07:24:07.939Z</time></trkpt><trkpt lat="44.8558617" lon="10.2719333"><ele>38.0</ele><time>2026-04-11T07:24:08.939Z</time></trkpt><trkpt lat="44.85579" lon="10.27225"><ele>38.0</ele><time>2026-04-11T07:24:09.938Z</time></trkpt><trkpt lat="44.85572" lon="10.27256"><ele>38.0</ele><time>2026-04-11T07:24:10.938Z</time></trkpt><trkpt lat="44.8556517" lon="10.2728767"><ele>39.0</ele><time>2026-04-11T07:24:11.939Z</time></trkpt><trkpt lat="44.8555783" lon="10.2732183"><ele>40.0</ele><time>2026-04-11T07:24:12.939Z</time></trkpt><trkpt lat="44.8555017" lon="10.2735733"><ele>40.0</ele><time>2026-04-11T07:24:13.939Z</time></trkpt><trkpt lat="44.8554283" lon="10.2739333"><ele>40.0</ele><time>2026-04-11T07:24:14.939Z</time></trkpt><trkpt lat="44.8553383" lon="10.2743083"><ele>39.5</ele><time>2026-04-11T07:24:15.939Z</time></trkpt><trkpt lat="44.8552483" lon="10.274675"><ele>39.0</ele><time>2026-04-11T07:24:16.939Z</time></trkpt><trkpt lat="44.8551617" lon="10.27504"><ele>40.5</ele><time>2026-04-11T07:24:17.939Z</time></trkpt><trkpt lat="44.855075" lon="10.27539"><ele>42.0</ele><time>2026-04-11T07:24:18.939Z</time></trkpt><trkpt lat="44.8549917" lon="10.2757333"><ele>42.0</ele><time>2026-04-11T07:24:19.939Z</time></trkpt><trkpt lat="44.854905" lon="10.2760683"><ele>42.0</ele><time>2026-04-11T07:24:20.939Z</time></trkpt><trkpt lat="44.8548283" lon="10.2764017"><ele>41.0</ele><time>2026-04-11T07:24:21.939Z</time></trkpt><trkpt lat="44.8547567" lon="10.27674"><ele>40.0</ele><time>2026-04-11T07:24:22.939Z</time></trkpt><trkpt lat="44.8546767" lon="10.27708"><ele>39.0</ele><time>2026-04-11T07:24:23.939Z</time></trkpt><trkpt lat="44.854595" lon="10.2774167"><ele>38.0</ele><time>2026-04-11T07:24:24.939Z</time></trkpt><trkpt lat="44.8545233" lon="10.277755"><ele>38.0</ele><time>2026-04-11T07:24:25.939Z</time></trkpt><trkpt lat="44.854445" lon="10.2780933"><ele>38.0</ele><time>2026-04-11T07:24:26.939Z</time></trkpt><trkpt lat="44.8543617" lon="10.2784167"><ele>37.5</ele><time>2026-04-11T07:24:27.939Z</time></trkpt><trkpt lat="44.8542833" lon="10.2787217"><ele>37.0</ele><time>2026-04-11T07:24:28.939Z</time></trkpt><trkpt lat="44.8542117" lon="10.27902"><ele>37.0</ele><time>2026-04-11T07:24:29.938Z</time></trkpt><trkpt lat="44.8541367" lon="10.2793167"><ele>37.0</ele><time>2026-04-11T07:24:30.939Z</time></trkpt><trkpt lat="44.8540717" lon="10.279605"><ele>37.0</ele><time>2026-04-11T07:24:31.938Z</time></trkpt><trkpt lat="44.8540017" lon="10.2798933"><ele>36.66666666666667</ele><time>2026-04-11T07:24:32.939Z</time></trkpt><trkpt lat="44.853935" lon="10.28018"><ele>36.333333333333336</ele><time>2026-04-11T07:24:33.939Z</time></trkpt><trkpt lat="44.85387" lon="10.2804717"><ele>36.0</ele><time>2026-04-11T07:24:34.938Z</time></trkpt><trkpt lat="44.8538" lon="10.2807733"><ele>36.0</ele><time>2026-04-11T07:24:35.939Z</time></trkpt><trkpt lat="44.8537233" lon="10.2810733"><ele>36.0</ele><time>2026-04-11T07:24:36.939Z</time></trkpt><trkpt lat="44.85365" lon="10.2813783"><ele>36.5</ele><time>2026-04-11T07:24:37.939Z</time></trkpt><trkpt lat="44.85357" lon="10.2816967"><ele>37.0</ele><time>2026-04-11T07:24:38.939Z</time></trkpt><trkpt lat="44.8534967" lon="10.2820267"><ele>37.5</ele><time>2026-04-11T07:24:39.939Z</time></trkpt><trkpt lat="44.8534183" lon="10.28238"><ele>38.0</ele><time>2026-04-11T07:24:40.939Z</time></trkpt><trkpt lat="44.853335" lon="10.282745"><ele>37.5</ele><time>2026-04-11T07:24:41.939Z</time></trkpt><trkpt lat="44.8532533" lon="10.2831367"><ele>37.0</ele><time>2026-04-11T07:24:42.939Z</time></trkpt><trkpt lat="44.8531567" lon="10.2835567"><ele>38.5</ele><time>2026-04-11T07:24:43.939Z</time></trkpt><trkpt lat="44.8530567" lon="10.283985"><ele>40.0</ele><time>2026-04-11T07:24:44.939Z</time></trkpt><trkpt lat="44.8529483" lon="10.284415"><ele>38.5</ele><time>2026-04-11T07:24:45.939Z</time></trkpt><trkpt lat="44.852845" lon="10.2848517"><ele>37.0</ele><time>2026-04-11T07:24:46.938Z</time></trkpt><trkpt lat="44.8527417" lon="10.2853017"><ele>35.0</ele><time>2026-04-11T07:24:47.939Z</time></trkpt><trkpt lat="44.8526317" lon="10.28576"><ele>33.0</ele><time>2026-04-11T07:24:48.939Z</time></trkpt><trkpt lat="44.8525117" lon="10.2862283"><ele>33.0</ele><time>2026-04-11T07:24:49.939Z</time></trkpt><trkpt lat="44.8524067" lon="10.2866833"><ele>33.0</ele><time>2026-04-11T07:24:50.939Z</time></trkpt><trkpt lat="44.852295" lon="10.2871417"><ele>33.5</ele><time>2026-04-11T07:24:51.939Z</time></trkpt><trkpt lat="44.8521883" lon="10.2875767"><ele>34.0</ele><time>2026-04-11T07:24:52.939Z</time></trkpt><trkpt lat="44.8520783" lon="10.2879817"><ele>34.5</ele><time>2026-04-11T07:24:53.939Z</time></trkpt><trkpt lat="44.8519717" lon="10.28837"><ele>35.0</ele><time>2026-04-11T07:24:54.939Z</time></trkpt><trkpt lat="44.8518683" lon="10.2887833"><ele>36.5</ele><time>2026-04-11T07:24:55.939Z</time></trkpt><trkpt lat="44.8517667" lon="10.2891917"><ele>38.0</ele><time>2026-04-11T07:24:56.939Z</time></trkpt><trkpt lat="44.8516667" lon="10.2895983"><ele>37.5</ele><time>2026-04-11T07:24:57.939Z</time></trkpt><trkpt lat="44.851565" lon="10.2900033"><ele>37.0</ele><time>2026-04-11T07:24:58.939Z</time></trkpt><trkpt lat="44.851465" lon="10.2903983"><ele>36.0</ele><time>2026-04-11T07:24:59.939Z</time></trkpt><trkpt lat="44.85136" lon="10.2907983"><ele>35.0</ele><time>2026-04-11T07:25:00.939Z</time></trkpt><trkpt lat="44.8512667" lon="10.2911867"><ele>35.5</ele><time>2026-04-11T07:25:01.939Z</time></trkpt><trkpt lat="44.8511733" lon="10.2915617"><ele>36.0</ele><time>2026-04-11T07:25:02.938Z</time></trkpt><trkpt lat="44.8510783" lon="10.2919183"><ele>36.5</ele><time>2026-04-11T07:25:03.938Z</time></trkpt><trkpt lat="44.850995" lon="10.2922567"><ele>37.0</ele><time>2026-04-11T07:25:04.938Z</time></trkpt><trkpt lat="44.8509183" lon="10.29259"><ele>37.0</ele><time>2026-04-11T07:25:05.938Z</time></trkpt><trkpt lat="44.8508317" lon="10.2929267"><ele>37.0</ele><time>2026-04-11T07:25:06.938Z</time></trkpt><trkpt lat="44.8507517" lon="10.2932733"><ele>37.0</ele><time>2026-04-11T07:25:07.937Z</time></trkpt><trkpt lat="44.85067" lon="10.29362"><ele>37.0</ele><time>2026-04-11T07:25:08.938Z</time></trkpt><trkpt lat="44.8505867" lon="10.2939717"><ele>37.5</ele><time>2026-04-11T07:25:09.937Z</time></trkpt><trkpt lat="44.8504983" lon="10.2943183"><ele>38.0</ele><time>2026-04-11T07:25:10.938Z</time></trkpt><trkpt lat="44.8504167" lon="10.2946633"><ele>38.0</ele><time>2026-04-11T07:25:11.938Z</time></trkpt><trkpt lat="44.8503333" lon="10.29501"><ele>38.0</ele><time>2026-04-11T07:25:12.938Z</time></trkpt><trkpt lat="44.85025" lon="10.2953567"><ele>38.5</ele><time>2026-04-11T07:25:13.938Z</time></trkpt><trkpt lat="44.8501667" lon="10.2957017"><ele>39.0</ele><time>2026-04-11T07:25:14.938Z</time></trkpt><trkpt lat="44.8500833" lon="10.2960517"><ele>39.5</ele><time>2026-04-11T07:25:15.938Z</time></trkpt><trkpt lat="44.8500017" lon="10.29639"><ele>40.0</ele><time>2026-04-11T07:25:16.938Z</time></trkpt><trkpt lat="44.84992" lon="10.2967267"><ele>39.0</ele><time>2026-04-11T07:25:17.938Z</time></trkpt><trkpt lat="44.8498467" lon="10.2970583"><ele>38.0</ele><time>2026-04-11T07:25:18.938Z</time></trkpt><trkpt lat="44.84976" lon="10.2973917"><ele>38.0</ele><time>2026-04-11T07:25:19.938Z</time></trkpt><trkpt lat="44.849675" lon="10.29773"><ele>38.0</ele><time>2026-04-11T07:25:20.938Z</time></trkpt><trkpt lat="44.8495967" lon="10.29807"><ele>38.5</ele><time>2026-04-11T07:25:21.938Z</time></trkpt><trkpt lat="44.8495117" lon="10.2984117"><ele>39.0</ele><time>2026-04-11T07:25:22.938Z</time></trkpt><trkpt lat="44.8494317" lon="10.2987633"><ele>39.0</ele><time>2026-04-11T07:25:23.938Z</time></trkpt><trkpt lat="44.8493467" lon="10.2991033"><ele>39.0</ele><time>2026-04-11T07:25:24.938Z</time></trkpt><trkpt lat="44.8492683" lon="10.2994633"><ele>38.5</ele><time>2026-04-11T07:25:25.938Z</time></trkpt><trkpt lat="44.8491833" lon="10.299815"><ele>38.0</ele><time>2026-04-11T07:25:26.938Z</time></trkpt><trkpt lat="44.8491" lon="10.3001633"><ele>38.0</ele><time>2026-04-11T07:25:27.938Z</time></trkpt><trkpt lat="44.849015" lon="10.3005183"><ele>38.0</ele><time>2026-04-11T07:25:28.938Z</time></trkpt><trkpt lat="44.84893" lon="10.300875"><ele>38.5</ele><time>2026-04-11T07:25:29.938Z</time></trkpt><trkpt lat="44.84885" lon="10.3011883"><ele>39.0</ele><time>2026-04-11T07:25:30.938Z</time></trkpt><trkpt lat="44.848775" lon="10.3015"><ele>38.666666666666664</ele><time>2026-04-11T07:25:31.938Z</time></trkpt><trkpt lat="44.8487067" lon="10.3017983"><ele>38.33333333333333</ele><time>2026-04-11T07:25:32.938Z</time></trkpt><trkpt lat="44.84864" lon="10.3020883"><ele>38.0</ele><time>2026-04-11T07:25:33.937Z</time></trkpt><trkpt lat="44.8485633" lon="10.3023967"><ele>38.0</ele><time>2026-04-11T07:25:34.938Z</time></trkpt><trkpt lat="44.8484883" lon="10.3027017"><ele>38.0</ele><time>2026-04-11T07:25:35.938Z</time></trkpt><trkpt lat="44.8484117" lon="10.3030067"><ele>38.33333333333333</ele><time>2026-04-11T07:25:36.938Z</time></trkpt><trkpt lat="44.8483483" lon="10.303305"><ele>38.666666666666664</ele><time>2026-04-11T07:25:37.938Z</time></trkpt><trkpt lat="44.8482833" lon="10.3035783"><ele>39.0</ele><time>2026-04-11T07:25:38.938Z</time></trkpt><trkpt lat="44.8482183" lon="10.3038633"><ele>39.0</ele><time>2026-04-11T07:25:39.938Z</time></trkpt><trkpt lat="44.8481483" lon="10.3041467"><ele>39.0</ele><time>2026-04-11T07:25:40.938Z</time></trkpt><trkpt lat="44.8480767" lon="10.3044233"><ele>39.0</ele><time>2026-04-11T07:25:41.938Z</time></trkpt><trkpt lat="44.848005" lon="10.304695"><ele>39.333333333333336</ele><time>2026-04-11T07:25:42.938Z</time></trkpt><trkpt lat="44.8479367" lon="10.3049717"><ele>39.66666666666667</ele><time>2026-04-11T07:25:43.938Z</time></trkpt><trkpt lat="44.8478733" lon="10.3052583"><ele>40.0</ele><time>2026-04-11T07:25:44.938Z</time></trkpt><trkpt lat="44.84781" lon="10.3055417"><ele>40.333333333333336</ele><time>2026-04-11T07:25:45.938Z</time></trkpt><trkpt lat="44.8477383" lon="10.3058167"><ele>40.666666666666664</ele><time>2026-04-11T07:25:46.938Z</time></trkpt><trkpt lat="44.8476717" lon="10.3060883"><ele>41.0</ele><time>2026-04-11T07:25:47.938Z</time></trkpt><trkpt lat="44.84761" lon="10.3063667"><ele>41.666666666666664</ele><time>2026-04-11T07:25:48.937Z</time></trkpt><trkpt lat="44.8475417" lon="10.306635"><ele>42.333333333333336</ele><time>2026-04-11T07:25:49.938Z</time></trkpt><trkpt lat="44.84748" lon="10.3069167"><ele>43.0</ele><time>2026-04-11T07:25:50.938Z</time></trkpt><trkpt lat="44.8474167" lon="10.3071967"><ele>42.333333333333336</ele><time>2026-04-11T07:25:51.938Z</time></trkpt><trkpt lat="44.84735" lon="10.307475"><ele>41.666666666666664</ele><time>2026-04-11T07:25:52.938Z</time></trkpt><trkpt lat="44.8472783" lon="10.3077583"><ele>41.0</ele><time>2026-04-11T07:25:53.938Z</time></trkpt><trkpt lat="44.8472083" lon="10.30804"><ele>41.0</ele><time>2026-04-11T07:25:54.938Z</time></trkpt><trkpt lat="44.8471433" lon="10.30833"><ele>41.0</ele><time>2026-04-11T07:25:55.938Z</time></trkpt><trkpt lat="44.8470733" lon="10.308625"><ele>41.0</ele><time>2026-04-11T07:25:56.937Z</time></trkpt><trkpt lat="44.8470067" lon="10.3089183"><ele>41.0</ele><time>2026-04-11T07:25:57.938Z</time></trkpt><trkpt lat="44.84694" lon="10.3092067"><ele>41.0</ele><time>2026-04-11T07:25:58.938Z</time></trkpt><trkpt lat="44.8468667" lon="10.3094817"><ele>41.0</ele><time>2026-04-11T07:25:59.938Z</time></trkpt><trkpt lat="44.846795" lon="10.309765"><ele>41.0</ele><time>2026-04-11T07:26:00.938Z</time></trkpt><trkpt lat="44.8467267" lon="10.310045"><ele>41.0</ele><time>2026-04-11T07:26:01.938Z</time></trkpt><trkpt lat="44.8466583" lon="10.31033"><ele>41.0</ele><time>2026-04-11T07:26:02.938Z</time></trkpt><trkpt lat="44.8465933" lon="10.3106167"><ele>41.0</ele><time>2026-04-11T07:26:03.938Z</time></trkpt><trkpt lat="44.8465333" lon="10.31091"><ele>41.0</ele><time>2026-04-11T07:26:04.938Z</time></trkpt><trkpt lat="44.8464617" lon="10.3111933"><ele>41.0</ele><time>2026-04-11T07:26:05.937Z</time></trkpt><trkpt lat="44.8463933" lon="10.3114733"><ele>41.0</ele><time>2026-04-11T07:26:06.938Z</time></trkpt><trkpt lat="44.84632" lon="10.311765"><ele>41.0</ele><time>2026-04-11T07:26:07.937Z</time></trkpt><trkpt lat="44.8462583" lon="10.3120617"><ele>41.0</ele><time>2026-04-11T07:26:08.938Z</time></trkpt><trkpt lat="44.8461833" lon="10.3123517"><ele>41.0</ele><time>2026-04-11T07:26:09.938Z</time></trkpt><trkpt lat="44.846115" lon="10.3126317"><ele>41.0</ele><time>2026-04-11T07:26:10.938Z</time></trkpt><trkpt lat="44.8460483" lon="10.31292"><ele>41.0</ele><time>2026-04-11T07:26:11.938Z</time></trkpt><trkpt lat="44.84598" lon="10.3132067"><ele>41.33333333333333</ele><time>2026-04-11T07:26:12.938Z</time></trkpt><trkpt lat="44.8459133" lon="10.3134883"><ele>41.666666666666664</ele><time>2026-04-11T07:26:13.938Z</time></trkpt><trkpt lat="44.84585" lon="10.3137717"><ele>42.0</ele><time>2026-04-11T07:26:14.938Z</time></trkpt><trkpt lat="44.8457783" lon="10.3140417"><ele>42.333333333333336</ele><time>2026-04-11T07:26:15.938Z</time></trkpt><trkpt lat="44.84571" lon="10.314315"><ele>42.66666666666667</ele><time>2026-04-11T07:26:16.938Z</time></trkpt><trkpt lat="44.845635" lon="10.3146"><ele>43.0</ele><time>2026-04-11T07:26:17.938Z</time></trkpt><trkpt lat="44.84556" lon="10.31489"><ele>43.0</ele><time>2026-04-11T07:26:18.938Z</time></trkpt><trkpt lat="44.8454933" lon="10.3151867"><ele>43.0</ele><time>2026-04-11T07:26:19.938Z</time></trkpt><trkpt lat="44.8454217" lon="10.31548"><ele>43.0</ele><time>2026-04-11T07:26:20.938Z</time></trkpt><trkpt lat="44.8453533" lon="10.315775"><ele>42.333333333333336</ele><time>2026-04-11T07:26:21.938Z</time></trkpt><trkpt lat="44.8452867" lon="10.3160633"><ele>41.666666666666664</ele><time>2026-04-11T07:26:22.938Z</time></trkpt><trkpt lat="44.8452167" lon="10.3163467"><ele>41.0</ele><time>2026-04-11T07:26:23.937Z</time></trkpt><trkpt lat="44.8451517" lon="10.316625"><ele>41.0</ele><time>2026-04-11T07:26:24.938Z</time></trkpt><trkpt lat="44.8450833" lon="10.3169183"><ele>41.0</ele><time>2026-04-11T07:26:25.938Z</time></trkpt><trkpt lat="44.84501" lon="10.3172083"><ele>41.0</ele><time>2026-04-11T07:26:26.938Z</time></trkpt><trkpt lat="44.8449417" lon="10.3174983"><ele>41.33333333333333</ele><time>2026-04-11T07:26:27.938Z</time></trkpt><trkpt lat="44.84487" lon="10.3177883"><ele>41.666666666666664</ele><time>2026-04-11T07:26:28.937Z</time></trkpt><trkpt lat="44.8448" lon="10.3180867"><ele>42.0</ele><time>2026-04-11T07:26:29.938Z</time></trkpt><trkpt lat="44.8447317" lon="10.318375"><ele>41.333333333333336</ele><time>2026-04-11T07:26:30.938Z</time></trkpt><trkpt lat="44.8446617" lon="10.3186667"><ele>40.66666666666667</ele><time>2026-04-11T07:26:31.938Z</time></trkpt><trkpt lat="44.8445867" lon="10.3189583"><ele>40.0</ele><time>2026-04-11T07:26:32.938Z</time></trkpt><trkpt lat="44.8445183" lon="10.3192483"><ele>40.0</ele><time>2026-04-11T07:26:33.938Z</time></trkpt><trkpt lat="44.84445" lon="10.3195283"><ele>40.0</ele><time>2026-04-11T07:26:34.938Z</time></trkpt><trkpt lat="44.8443883" lon="10.3198083"><ele>40.0</ele><time>2026-04-11T07:26:35.937Z</time></trkpt><trkpt lat="44.844325" lon="10.3200817"><ele>39.66666666666667</ele><time>2026-04-11T07:26:36.937Z</time></trkpt><trkpt lat="44.8442617" lon="10.3203467"><ele>39.333333333333336</ele><time>2026-04-11T07:26:37.938Z</time></trkpt><trkpt lat="44.8442" lon="10.3206117"><ele>39.0</ele><time>2026-04-11T07:26:38.938Z</time></trkpt><trkpt lat="44.8441367" lon="10.320885"><ele>39.666666666666664</ele><time>2026-04-11T07:26:39.938Z</time></trkpt><trkpt lat="44.8440683" lon="10.3211617"><ele>40.33333333333333</ele><time>2026-04-11T07:26:40.938Z</time></trkpt><trkpt lat="44.844" lon="10.32145"><ele>41.0</ele><time>2026-04-11T07:26:41.938Z</time></trkpt><trkpt lat="44.84393" lon="10.3217317"><ele>41.0</ele><time>2026-04-11T07:26:42.938Z</time></trkpt><trkpt lat="44.8438583" lon="10.32202"><ele>41.0</ele><time>2026-04-11T07:26:43.938Z</time></trkpt><trkpt lat="44.84379" lon="10.3222933"><ele>41.0</ele><time>2026-04-11T07:26:44.938Z</time></trkpt><trkpt lat="44.8437217" lon="10.3225783"><ele>41.0</ele><time>2026-04-11T07:26:45.938Z</time></trkpt><trkpt lat="44.843655" lon="10.3228617"><ele>41.0</ele><time>2026-04-11T07:26:46.938Z</time></trkpt><trkpt lat="44.84359" lon="10.3231583"><ele>41.0</ele><time>2026-04-11T07:26:47.938Z</time></trkpt><trkpt lat="44.8435217" lon="10.3234433"><ele>41.0</ele><time>2026-04-11T07:26:48.938Z</time></trkpt><trkpt lat="44.8434533" lon="10.3237233"><ele>41.0</ele><time>2026-04-11T07:26:49.938Z</time></trkpt><trkpt lat="44.84338" lon="10.32401"><ele>41.0</ele><time>2026-04-11T07:26:50.938Z</time></trkpt><trkpt lat="44.8433083" lon="10.3242933"><ele>40.33333333333333</ele><time>2026-04-11T07:26:51.938Z</time></trkpt><trkpt lat="44.8432433" lon="10.3245817"><ele>39.666666666666664</ele><time>2026-04-11T07:26:52.938Z</time></trkpt><trkpt lat="44.843175" lon="10.3248717"><ele>39.0</ele><time>2026-04-11T07:26:53.938Z</time></trkpt><trkpt lat="44.84311" lon="10.325155"><ele>39.0</ele><time>2026-04-11T07:26:54.937Z</time></trkpt><trkpt lat="44.8430267" lon="10.3254617"><ele>39.0</ele><time>2026-04-11T07:26:55.938Z</time></trkpt><trkpt lat="44.8429633" lon="10.3257367"><ele>39.0</ele><time>2026-04-11T07:26:56.938Z</time></trkpt><trkpt lat="44.8429" lon="10.3260167"><ele>39.0</ele><time>2026-04-11T07:26:57.938Z</time></trkpt><trkpt lat="44.8428317" lon="10.3262983"><ele>39.0</ele><time>2026-04-11T07:26:58.938Z</time></trkpt><trkpt lat="44.8427633" lon="10.326585"><ele>39.0</ele><time>2026-04-11T07:26:59.938Z</time></trkpt><trkpt lat="44.8426867" lon="10.3268683"><ele>39.0</ele><time>2026-04-11T07:27:00.938Z</time></trkpt><trkpt lat="44.8426183" lon="10.327155"><ele>39.0</ele><time>2026-04-11T07:27:01.938Z</time></trkpt><trkpt lat="44.8425533" lon="10.32744"><ele>39.0</ele><time>2026-04-11T07:27:02.938Z</time></trkpt><trkpt lat="44.8424783" lon="10.3277217"><ele>39.333333333333336</ele><time>2026-04-11T07:27:03.938Z</time></trkpt><trkpt lat="44.8424117" lon="10.3280067"><ele>39.66666666666667</ele><time>2026-04-11T07:27:04.938Z</time></trkpt><trkpt lat="44.8423483" lon="10.3283"><ele>40.0</ele><time>2026-04-11T07:27:05.938Z</time></trkpt><trkpt lat="44.8422767" lon="10.32859"><ele>40.0</ele><time>2026-04-11T07:27:06.938Z</time></trkpt><trkpt lat="44.8422017" lon="10.32888"><ele>40.0</ele><time>2026-04-11T07:27:07.938Z</time></trkpt><trkpt lat="44.842135" lon="10.3291617"><ele>40.0</ele><time>2026-04-11T07:27:08.938Z</time></trkpt><trkpt lat="44.8420617" lon="10.3294417"><ele>39.0</ele><time>2026-04-11T07:27:09.938Z</time></trkpt><trkpt lat="44.8419917" lon="10.3297367"><ele>38.0</ele><time>2026-04-11T07:27:10.938Z</time></trkpt><trkpt lat="44.841925" lon="10.330025"><ele>37.0</ele><time>2026-04-11T07:27:11.938Z</time></trkpt><trkpt lat="44.8418483" lon="10.3303017"><ele>37.0</ele><time>2026-04-11T07:27:12.937Z</time></trkpt><trkpt lat="44.8417733" lon="10.330585"><ele>37.0</ele><time>2026-04-11T07:27:13.938Z</time></trkpt><trkpt lat="44.8416983" lon="10.330875"><ele>37.0</ele><time>2026-04-11T07:27:14.938Z</time></trkpt><trkpt lat="44.8416267" lon="10.3311683"><ele>36.66666666666667</ele><time>2026-04-11T07:27:15.938Z</time></trkpt><trkpt lat="44.8415583" lon="10.3314617"><ele>36.333333333333336</ele><time>2026-04-11T07:27:16.937Z</time></trkpt><trkpt lat="44.841485" lon="10.3317483"><ele>36.0</ele><time>2026-04-11T07:27:17.938Z</time></trkpt><trkpt lat="44.8414083" lon="10.33203"><ele>36.666666666666664</ele><time>2026-04-11T07:27:18.938Z</time></trkpt><trkpt lat="44.841335" lon="10.332305"><ele>37.33333333333333</ele><time>2026-04-11T07:27:19.938Z</time></trkpt><trkpt lat="44.8412633" lon="10.332575"><ele>38.0</ele><time>2026-04-11T07:27:20.938Z</time></trkpt><trkpt lat="44.8411917" lon="10.3328533"><ele>38.666666666666664</ele><time>2026-04-11T07:27:21.938Z</time></trkpt><trkpt lat="44.8411217" lon="10.33312"><ele>39.333333333333336</ele><time>2026-04-11T07:27:22.938Z</time></trkpt><trkpt lat="44.841055" lon="10.333385"><ele>40.0</ele><time>2026-04-11T07:27:23.938Z</time></trkpt><trkpt lat="44.8409917" lon="10.333655"><ele>39.0</ele><time>2026-04-11T07:27:24.938Z</time></trkpt><trkpt lat="44.8409417" lon="10.33392"><ele>38.0</ele><time>2026-04-11T07:27:25.938Z</time></trkpt><trkpt lat="44.8408733" lon="10.3341683"><ele>37.0</ele><time>2026-04-11T07:27:26.938Z</time></trkpt><trkpt lat="44.8407967" lon="10.33442"><ele>37.0</ele><time>2026-04-11T07:27:27.938Z</time></trkpt><trkpt lat="44.840705" lon="10.33467"><ele>37.0</ele><time>2026-04-11T07:27:28.938Z</time></trkpt><trkpt lat="44.8406017" lon="10.334905"><ele>37.0</ele><time>2026-04-11T07:27:29.937Z</time></trkpt><trkpt lat="44.840485" lon="10.335125"><ele>37.0</ele><time>2026-04-11T07:27:30.938Z</time></trkpt><trkpt lat="44.8403533" lon="10.3353083"><ele>37.0</ele><time>2026-04-11T07:27:31.938Z</time></trkpt><trkpt lat="44.840205" lon="10.33546"><ele>37.0</ele><time>2026-04-11T07:27:32.938Z</time></trkpt><trkpt lat="44.840055" lon="10.3355533"><ele>37.66666666666667</ele><time>2026-04-11T07:27:33.938Z</time></trkpt><trkpt lat="44.8398983" lon="10.3356317"><ele>38.333333333333336</ele><time>2026-04-11T07:27:34.938Z</time></trkpt><trkpt lat="44.8397383" lon="10.3357283"><ele>39.0</ele><time>2026-04-11T07:27:35.938Z</time></trkpt><trkpt lat="44.8395833" lon="10.335835"><ele>39.0</ele><time>2026-04-11T07:27:36.938Z</time></trkpt><trkpt lat="44.839435" lon="10.3359367"><ele>39.0</ele><time>2026-04-11T07:27:37.938Z</time></trkpt><trkpt lat="44.8392983" lon="10.3360317"><ele>39.0</ele><time>2026-04-11T07:27:38.937Z</time></trkpt><trkpt lat="44.8391683" lon="10.3361233"><ele>39.0</ele><time>2026-04-11T07:27:39.938Z</time></trkpt><trkpt lat="44.83905" lon="10.3362167"><ele>39.0</ele><time>2026-04-11T07:27:40.938Z</time></trkpt><trkpt lat="44.83894" lon="10.336295"><ele>39.0</ele><time>2026-04-11T07:27:41.938Z</time></trkpt><trkpt lat="44.8388317" lon="10.336355"><ele>39.0</ele><time>2026-04-11T07:27:42.938Z</time></trkpt><trkpt lat="44.838725" lon="10.3364167"><ele>39.0</ele><time>2026-04-11T07:27:43.937Z</time></trkpt><trkpt lat="44.8386183" lon="10.3364783"><ele>39.0</ele><time>2026-04-11T07:27:44.938Z</time></trkpt><trkpt lat="44.838525" lon="10.3365683"><ele>39.0</ele><time>2026-04-11T07:27:45.938Z</time></trkpt><trkpt lat="44.8384433" lon="10.3366783"><ele>39.0</ele><time>2026-04-11T07:27:46.938Z</time></trkpt><trkpt lat="44.8383783" lon="10.3367817"><ele>39.0</ele><time>2026-04-11T07:27:47.938Z</time></trkpt><trkpt lat="44.8383317" lon="10.3368617"><ele>39.2</ele><time>2026-04-11T07:27:48.938Z</time></trkpt><trkpt lat="44.83828" lon="10.336935"><ele>39.4</ele><time>2026-04-11T07:27:49.938Z</time></trkpt><trkpt lat="44.8382033" lon="10.3370533"><ele>39.6</ele><time>2026-04-11T07:27:51.938Z</time></trkpt><trkpt lat="44.8381067" lon="10.3371933"><ele>39.8</ele><time>2026-04-11T07:27:53.938Z</time></trkpt><trkpt lat="44.8380517" lon="10.3372817"><ele>40.0</ele><time>2026-04-11T07:27:54.938Z</time></trkpt><trkpt lat="44.837995" lon="10.3373867"><ele>40.2</ele><time>2026-04-11T07:27:55.937Z</time></trkpt><trkpt lat="44.837935" lon="10.3374983"><ele>40.4</ele><time>2026-04-11T07:27:56.938Z</time></trkpt><trkpt lat="44.83788" lon="10.3376217"><ele>40.599999999999994</ele><time>2026-04-11T07:27:57.938Z</time></trkpt><trkpt lat="44.8378283" lon="10.33775"><ele>40.8</ele><time>2026-04-11T07:27:58.938Z</time></trkpt><trkpt lat="44.837785" lon="10.3378933"><ele>41.0</ele><time>2026-04-11T07:27:59.938Z</time></trkpt><trkpt lat="44.83775" lon="10.33803"><ele>41.0</ele><time>2026-04-11T07:28:00.938Z</time></trkpt><trkpt lat="44.8377117" lon="10.3381833"><ele>41.0</ele><time>2026-04-11T07:28:01.938Z</time></trkpt><trkpt lat="44.83765" lon="10.338325"><ele>41.0</ele><time>2026-04-11T07:28:02.938Z</time></trkpt><trkpt lat="44.8375817" lon="10.3384417"><ele>41.0</ele><time>2026-04-11T07:28:03.938Z</time></trkpt><trkpt lat="44.8375117" lon="10.338545"><ele>41.0</ele><time>2026-04-11T07:28:04.938Z</time></trkpt><trkpt lat="44.8374517" lon="10.3386233"><ele>41.0</ele><time>2026-04-11T07:28:05.938Z</time></trkpt><trkpt lat="44.83739" lon="10.338705"><ele>41.0</ele><time>2026-04-11T07:28:06.938Z</time></trkpt><trkpt lat="44.8373233" lon="10.3387917"><ele>41.0</ele><time>2026-04-11T07:28:07.938Z</time></trkpt><trkpt lat="44.83725" lon="10.3388733"><ele>41.0</ele><time>2026-04-11T07:28:08.938Z</time></trkpt><trkpt lat="44.8371717" lon="10.33893"><ele>41.0</ele><time>2026-04-11T07:28:09.938Z</time></trkpt><trkpt lat="44.8371" lon="10.3389617"><ele>41.0</ele><time>2026-04-11T07:28:10.938Z</time></trkpt><trkpt lat="44.8370333" lon="10.3389767"><ele>41.0</ele><time>2026-04-11T07:28:11.937Z</time></trkpt><trkpt lat="44.83697" lon="10.3389767"><ele>41.0</ele><time>2026-04-11T07:28:12.938Z</time></trkpt><trkpt lat="44.83687" lon="10.338955"><ele>41.0</ele><time>2026-04-11T07:28:14.938Z</time></trkpt><trkpt lat="44.8367767" lon="10.3389117"><ele>41.0</ele><time>2026-04-11T07:28:16.938Z</time></trkpt><trkpt lat="44.8367167" lon="10.3388733"><ele>41.0</ele><time>2026-04-11T07:28:17.938Z</time></trkpt><trkpt lat="44.8366617" lon="10.33882"><ele>41.0</ele><time>2026-04-11T07:28:18.938Z</time></trkpt><trkpt lat="44.836605" lon="10.3387617"><ele>41.199999999999996</ele><time>2026-04-11T07:28:19.938Z</time></trkpt><trkpt lat="44.8365183" lon="10.3386433"><ele>41.4</ele><time>2026-04-11T07:28:21.938Z</time></trkpt><trkpt lat="44.8364733" lon="10.33856"><ele>41.6</ele><time>2026-04-11T07:28:22.938Z</time></trkpt><trkpt lat="44.8364283" lon="10.3384733"><ele>41.8</ele><time>2026-04-11T07:28:23.938Z</time></trkpt><trkpt lat="44.8363683" lon="10.3383833"><ele>42.0</ele><time>2026-04-11T07:28:24.937Z</time></trkpt><trkpt lat="44.83631" lon="10.33828"><ele>42.0</ele><time>2026-04-11T07:28:25.938Z</time></trkpt><trkpt lat="44.83625" lon="10.33816"><ele>42.0</ele><time>2026-04-11T07:28:26.938Z</time></trkpt><trkpt lat="44.83619" lon="10.3380417"><ele>42.0</ele><time>2026-04-11T07:28:27.938Z</time></trkpt><trkpt lat="44.8361317" lon="10.33793"><ele>42.0</ele><time>2026-04-11T07:28:28.937Z</time></trkpt><trkpt lat="44.8360683" lon="10.3378117"><ele>42.0</ele><time>2026-04-11T07:28:29.938Z</time></trkpt><trkpt lat="44.8360133" lon="10.33771"><ele>41.666666666666664</ele><time>2026-04-11T07:28:30.938Z</time></trkpt><trkpt lat="44.8359583" lon="10.3375933"><ele>41.333333333333336</ele><time>2026-04-11T07:28:31.938Z</time></trkpt><trkpt lat="44.8359183" lon="10.337485"><ele>41.0</ele><time>2026-04-11T07:28:32.938Z</time></trkpt><trkpt lat="44.8358983" lon="10.3373683"><ele>40.66666666666667</ele><time>2026-04-11T07:28:33.937Z</time></trkpt><trkpt lat="44.8359017" lon="10.337255"><ele>40.333333333333336</ele><time>2026-04-11T07:28:34.938Z</time></trkpt><trkpt lat="44.83592" lon="10.3371483"><ele>40.0</ele><time>2026-04-11T07:28:35.938Z</time></trkpt><trkpt lat="44.835945" lon="10.33703"><ele>40.333333333333336</ele><time>2026-04-11T07:28:36.938Z</time></trkpt><trkpt lat="44.8359817" lon="10.3368983"><ele>40.66666666666667</ele><time>2026-04-11T07:28:37.938Z</time></trkpt><trkpt lat="44.8360133" lon="10.3367917"><ele>41.0</ele><time>2026-04-11T07:28:38.938Z</time></trkpt><trkpt lat="44.8360433" lon="10.3366967"><ele>41.333333333333336</ele><time>2026-04-11T07:28:39.938Z</time></trkpt><trkpt lat="44.8360833" lon="10.3366033"><ele>41.666666666666664</ele><time>2026-04-11T07:28:40.938Z</time></trkpt><trkpt lat="44.836135" lon="10.33654"><ele>42.0</ele><time>2026-04-11T07:28:41.938Z</time></trkpt><trkpt lat="44.836205" lon="10.336515"><ele>42.0</ele><time>2026-04-11T07:28:42.938Z</time></trkpt><trkpt lat="44.8362833" lon="10.3365267"><ele>42.0</ele><time>2026-04-11T07:28:43.938Z</time></trkpt><trkpt lat="44.8363717" lon="10.3365583"><ele>42.0</ele><time>2026-04-11T07:28:44.938Z</time></trkpt><trkpt lat="44.8364583" lon="10.3366067"><ele>42.0</ele><time>2026-04-11T07:28:45.938Z</time></trkpt><trkpt lat="44.8365383" lon="10.3366483"><ele>42.0</ele><time>2026-04-11T07:28:46.938Z</time></trkpt><trkpt lat="44.8366067" lon="10.3366867"><ele>42.0</ele><time>2026-04-11T07:28:47.938Z</time></trkpt><trkpt lat="44.8366733" lon="10.33674"><ele>42.0</ele><time>2026-04-11T07:28:48.938Z</time></trkpt><trkpt lat="44.8367717" lon="10.3368333"><ele>42.0</ele><time>2026-04-11T07:28:50.938Z</time></trkpt><trkpt lat="44.8368283" lon="10.3369183"><ele>42.0</ele><time>2026-04-11T07:28:52.938Z</time></trkpt><trkpt lat="44.836875" lon="10.3370283"><ele>42.0</ele><time>2026-04-11T07:28:55.938Z</time></trkpt><trkpt lat="44.8369283" lon="10.337145"><ele>42.0</ele><time>2026-04-11T07:28:57.937Z</time></trkpt><trkpt lat="44.8369783" lon="10.337205"><ele>41.8</ele><time>2026-04-11T07:28:58.938Z</time></trkpt><trkpt lat="44.8370417" lon="10.3372417"><ele>41.6</ele><time>2026-04-11T07:28:59.938Z</time></trkpt><trkpt lat="44.8371617" lon="10.3372067"><ele>41.4</ele><time>2026-04-11T07:29:01.937Z</time></trkpt><trkpt lat="44.83722" lon="10.3371467"><ele>41.199999999999996</ele><time>2026-04-11T07:29:02.938Z</time></trkpt><trkpt lat="44.837245" lon="10.3369867"><ele>41.0</ele><time>2026-04-11T07:29:03.938Z</time></trkpt><trkpt lat="44.8372817" lon="10.3368017"><ele>40.75</ele><time>2026-04-11T07:29:04.938Z</time></trkpt><trkpt lat="44.8373167" lon="10.33667"><ele>40.5</ele><time>2026-04-11T07:29:05.938Z</time></trkpt><trkpt lat="44.8373433" lon="10.3364883"><ele>40.25</ele><time>2026-04-11T07:29:06.937Z</time></trkpt><trkpt lat="44.8373833" lon="10.336305"><ele>40.0</ele><time>2026-04-11T07:29:07.938Z</time></trkpt><trkpt lat="44.8374233" lon="10.33612"><ele>40.0</ele><time>2026-04-11T07:29:08.938Z</time></trkpt><trkpt lat="44.837465" lon="10.3359383"><ele>40.0</ele><time>2026-04-11T07:29:09.938Z</time></trkpt><trkpt lat="44.83751" lon="10.3357417"><ele>40.0</ele><time>2026-04-11T07:29:10.938Z</time></trkpt><trkpt lat="44.8376383" lon="10.3353283"><ele>40.0</ele><time>2026-04-11T07:29:12.937Z</time></trkpt><trkpt lat="44.837715" lon="10.3351083"><ele>40.0</ele><time>2026-04-11T07:29:13.937Z</time></trkpt><trkpt lat="44.837785" lon="10.3349033"><ele>40.0</ele><time>2026-04-11T07:29:14.937Z</time></trkpt><trkpt lat="44.8378533" lon="10.33469"><ele>40.0</ele><time>2026-04-11T07:29:15.938Z</time></trkpt><trkpt lat="44.8379183" lon="10.3344867"><ele>40.0</ele><time>2026-04-11T07:29:16.938Z</time></trkpt><trkpt lat="44.8379933" lon="10.3342783"><ele>40.0</ele><time>2026-04-11T07:29:17.938Z</time></trkpt><trkpt lat="44.83806" lon="10.3340783"><ele>40.0</ele><time>2026-04-11T07:29:18.938Z</time></trkpt><trkpt lat="44.8381267" lon="10.3338817"><ele>40.0</ele><time>2026-04-11T07:29:19.938Z</time></trkpt><trkpt lat="44.8381817" lon="10.333685"><ele>40.0</ele><time>2026-04-11T07:29:20.938Z</time></trkpt><trkpt lat="44.8382217" lon="10.333505"><ele>40.0</ele><time>2026-04-11T07:29:21.938Z</time></trkpt><trkpt lat="44.8382333" lon="10.3333217"><ele>40.0</ele><time>2026-04-11T07:29:22.937Z</time></trkpt><trkpt lat="44.8382317" lon="10.3331417"><ele>40.0</ele><time>2026-04-11T07:29:23.938Z</time></trkpt><trkpt lat="44.8381967" lon="10.3329633"><ele>40.0</ele><time>2026-04-11T07:29:24.938Z</time></trkpt><trkpt lat="44.8381367" lon="10.3327783"><ele>40.0</ele><time>2026-04-11T07:29:25.938Z</time></trkpt><trkpt lat="44.8380667" lon="10.3325917"><ele>39.66666666666667</ele><time>2026-04-11T07:29:26.938Z</time></trkpt><trkpt lat="44.8379917" lon="10.3324"><ele>39.333333333333336</ele><time>2026-04-11T07:29:27.938Z</time></trkpt><trkpt lat="44.8379267" lon="10.332205"><ele>39.0</ele><time>2026-04-11T07:29:28.937Z</time></trkpt><trkpt lat="44.8379017" lon="10.3319983"><ele>39.0</ele><time>2026-04-11T07:29:29.938Z</time></trkpt><trkpt lat="44.8379" lon="10.3317933"><ele>39.0</ele><time>2026-04-11T07:29:30.938Z</time></trkpt><trkpt lat="44.8379083" lon="10.33158"><ele>39.0</ele><time>2026-04-11T07:29:31.938Z</time></trkpt><trkpt lat="44.83793" lon="10.3313767"><ele>39.0</ele><time>2026-04-11T07:29:32.938Z</time></trkpt><trkpt lat="44.8379633" lon="10.3311817"><ele>38.666666666666664</ele><time>2026-04-11T07:29:33.938Z</time></trkpt><trkpt lat="44.8380067" lon="10.3309767"><ele>38.33333333333333</ele><time>2026-04-11T07:29:34.938Z</time></trkpt><trkpt lat="44.8380517" lon="10.330765"><ele>38.0</ele><time>2026-04-11T07:29:35.938Z</time></trkpt><trkpt lat="44.8380867" lon="10.33054"><ele>37.5</ele><time>2026-04-11T07:29:36.938Z</time></trkpt><trkpt lat="44.8381233" lon="10.3303133"><ele>37.0</ele><time>2026-04-11T07:29:37.938Z</time></trkpt><trkpt lat="44.8381833" lon="10.3298817"><ele>38.0</ele><time>2026-04-11T07:29:39.938Z</time></trkpt><trkpt lat="44.838225" lon="10.3294667"><ele>39.0</ele><time>2026-04-11T07:29:41.938Z</time></trkpt><trkpt lat="44.8382367" lon="10.3292517"><ele>39.5</ele><time>2026-04-11T07:29:42.938Z</time></trkpt><trkpt lat="44.83827" lon="10.3288433"><ele>40.0</ele><time>2026-04-11T07:29:44.938Z</time></trkpt><trkpt lat="44.8383017" lon="10.3284467"><ele>40.0</ele><time>2026-04-11T07:29:46.938Z</time></trkpt><trkpt lat="44.8383383" lon="10.32808"><ele>40.0</ele><time>2026-04-11T07:29:48.938Z</time></trkpt><trkpt lat="44.838365" lon="10.3277283"><ele>40.0</ele><time>2026-04-11T07:29:50.937Z</time></trkpt><trkpt lat="44.83838" lon="10.3275533"><ele>40.0</ele><time>2026-04-11T07:29:51.938Z</time></trkpt><trkpt lat="44.838435" lon="10.32719"><ele>40.0</ele><time>2026-04-11T07:29:53.938Z</time></trkpt><trkpt lat="44.838505" lon="10.32681"><ele>40.0</ele><time>2026-04-11T07:29:55.938Z</time></trkpt><trkpt lat="44.838605" lon="10.3264167"><ele>40.0</ele><time>2026-04-11T07:29:57.938Z</time></trkpt><trkpt lat="44.8387167" lon="10.3260267"><ele>40.5</ele><time>2026-04-11T07:29:59.938Z</time></trkpt><trkpt lat="44.838875" lon="10.3256567"><ele>41.0</ele><time>2026-04-11T07:30:01.938Z</time></trkpt><trkpt lat="44.8389683" lon="10.325475"><ele>41.0</ele><time>2026-04-11T07:30:02.938Z</time></trkpt><trkpt lat="44.8391483" lon="10.3251083"><ele>41.0</ele><time>2026-04-11T07:30:04.938Z</time></trkpt><trkpt lat="44.8393233" lon="10.32475"><ele>41.0</ele><time>2026-04-11T07:30:06.938Z</time></trkpt><trkpt lat="44.839545" lon="10.32441"><ele>41.0</ele><time>2026-04-11T07:30:08.938Z</time></trkpt><trkpt lat="44.8397567" lon="10.32412"><ele>41.0</ele><time>2026-04-11T07:30:10.937Z</time></trkpt><trkpt lat="44.839975" lon="10.3238183"><ele>41.0</ele><time>2026-04-11T07:30:12.938Z</time></trkpt><trkpt lat="44.8401917" lon="10.323535"><ele>41.0</ele><time>2026-04-11T07:30:14.938Z</time></trkpt><trkpt lat="44.8404133" lon="10.3232483"><ele>41.0</ele><time>2026-04-11T07:30:16.938Z</time></trkpt><trkpt lat="44.840635" lon="10.322945"><ele>40.5</ele><time>2026-04-11T07:30:18.938Z</time></trkpt><trkpt lat="44.8408667" lon="10.3226383"><ele>40.0</ele><time>2026-04-11T07:30:20.938Z</time></trkpt><trkpt lat="44.8409867" lon="10.3224767"><ele>40.0</ele><time>2026-04-11T07:30:21.938Z</time></trkpt><trkpt lat="44.841215" lon="10.3221817"><ele>40.0</ele><time>2026-04-11T07:30:23.938Z</time></trkpt><trkpt lat="44.8413933" lon="10.3219333"><ele>40.0</ele><time>2026-04-11T07:30:25.938Z</time></trkpt><trkpt lat="44.8414667" lon="10.3218317"><ele>40.0</ele><time>2026-04-11T07:30:26.938Z</time></trkpt><trkpt lat="44.841595" lon="10.3216783"><ele>40.0</ele><time>2026-04-11T07:30:28.938Z</time></trkpt><trkpt lat="44.8417117" lon="10.321575"><ele>40.0</ele><time>2026-04-11T07:30:30.938Z</time></trkpt><trkpt lat="44.84186" lon="10.3215283"><ele>40.25</ele><time>2026-04-11T07:30:32.937Z</time></trkpt><trkpt lat="44.8420217" lon="10.32149"><ele>40.5</ele><time>2026-04-11T07:30:34.938Z</time></trkpt><trkpt lat="44.84215" lon="10.321335"><ele>40.75</ele><time>2026-04-11T07:30:36.938Z</time></trkpt><trkpt lat="44.8421883" lon="10.3212083"><ele>41.0</ele><time>2026-04-11T07:30:37.938Z</time></trkpt><trkpt lat="44.84227" lon="10.320935"><ele>41.0</ele><time>2026-04-11T07:30:39.938Z</time></trkpt><trkpt lat="44.8424333" lon="10.320685"><ele>41.0</ele><time>2026-04-11T07:30:41.938Z</time></trkpt><trkpt lat="44.8425117" lon="10.3205667"><ele>41.0</ele><time>2026-04-11T07:30:42.938Z</time></trkpt><trkpt lat="44.8426817" lon="10.32033"><ele>40.0</ele><time>2026-04-11T07:30:44.938Z</time></trkpt><trkpt lat="44.84286" lon="10.320085"><ele>39.0</ele><time>2026-04-11T07:30:46.938Z</time></trkpt><trkpt lat="44.843045" lon="10.31979"><ele>39.5</ele><time>2026-04-11T07:30:48.938Z</time></trkpt><trkpt lat="44.843245" lon="10.319495"><ele>40.0</ele><time>2026-04-11T07:30:50.938Z</time></trkpt><trkpt lat="44.843455" lon="10.3191733"><ele>40.5</ele><time>2026-04-11T07:30:52.938Z</time></trkpt><trkpt lat="44.8436417" lon="10.31883"><ele>41.0</ele><time>2026-04-11T07:30:54.938Z</time></trkpt><trkpt lat="44.8438017" lon="10.318465"><ele>41.5</ele><time>2026-04-11T07:30:56.938Z</time></trkpt><trkpt lat="44.84395" lon="10.3180567"><ele>42.0</ele><time>2026-04-11T07:30:58.938Z</time></trkpt><trkpt lat="44.8441017" lon="10.3176083"><ele>42.0</ele><time>2026-04-11T07:31:00.937Z</time></trkpt><trkpt lat="44.8441783" lon="10.31738"><ele>42.0</ele><time>2026-04-11T07:31:01.937Z</time></trkpt><trkpt lat="44.844345" lon="10.316885"><ele>41.5</ele><time>2026-04-11T07:31:03.938Z</time></trkpt><trkpt lat="44.8444317" lon="10.3166317"><ele>41.0</ele><time>2026-04-11T07:31:04.938Z</time></trkpt><trkpt lat="44.8445933" lon="10.3161233"><ele>40.5</ele><time>2026-04-11T07:31:06.937Z</time></trkpt><trkpt lat="44.8447583" lon="10.3156133"><ele>40.0</ele><time>2026-04-11T07:31:08.937Z</time></trkpt><trkpt lat="44.844925" lon="10.315085"><ele>41.0</ele><time>2026-04-11T07:31:10.938Z</time></trkpt><trkpt lat="44.845095" lon="10.3145967"><ele>42.0</ele><time>2026-04-11T07:31:12.938Z</time></trkpt><trkpt lat="44.84517" lon="10.3143767"><ele>42.0</ele><time>2026-04-11T07:31:13.938Z</time></trkpt><trkpt lat="44.8452783" lon="10.3139667"><ele>42.0</ele><time>2026-04-11T07:31:15.937Z</time></trkpt><trkpt lat="44.845325" lon="10.313755"><ele>42.0</ele><time>2026-04-11T07:31:16.938Z</time></trkpt><trkpt lat="44.8453583" lon="10.3135483"><ele>42.0</ele><time>2026-04-11T07:31:17.938Z</time></trkpt><trkpt lat="44.8454067" lon="10.313115"><ele>41.5</ele><time>2026-04-11T07:31:19.938Z</time></trkpt><trkpt lat="44.8454717" lon="10.3126517"><ele>41.0</ele><time>2026-04-11T07:31:21.938Z</time></trkpt><trkpt lat="44.8455267" lon="10.3121883"><ele>40.0</ele><time>2026-04-11T07:31:23.938Z</time></trkpt><trkpt lat="44.8455917" lon="10.3117067"><ele>39.0</ele><time>2026-04-11T07:31:25.938Z</time></trkpt><trkpt lat="44.84566" lon="10.3112183"><ele>38.5</ele><time>2026-04-11T07:31:27.938Z</time></trkpt><trkpt lat="44.8457183" lon="10.3107083"><ele>38.0</ele><time>2026-04-11T07:31:29.938Z</time></trkpt><trkpt lat="44.8457633" lon="10.310255"><ele>38.666666666666664</ele><time>2026-04-11T07:31:31.938Z</time></trkpt><trkpt lat="44.8457633" lon="10.30985"><ele>39.333333333333336</ele><time>2026-04-11T07:31:33.938Z</time></trkpt><trkpt lat="44.8457483" lon="10.3096467"><ele>40.0</ele><time>2026-04-11T07:31:34.938Z</time></trkpt><trkpt lat="44.8456767" lon="10.3092383"><ele>40.0</ele><time>2026-04-11T07:31:36.938Z</time></trkpt><trkpt lat="44.845555" lon="10.3088967"><ele>40.0</ele><time>2026-04-11T07:31:38.938Z</time></trkpt><trkpt lat="44.8454333" lon="10.3086433"><ele>40.0</ele><time>2026-04-11T07:31:40.938Z</time></trkpt><trkpt lat="44.84533" lon="10.308425"><ele>40.0</ele><time>2026-04-11T07:31:42.938Z</time></trkpt><trkpt lat="44.8452333" lon="10.3082417"><ele>40.0</ele><time>2026-04-11T07:31:44.938Z</time></trkpt><trkpt lat="44.8451483" lon="10.3080617"><ele>40.4</ele><time>2026-04-11T07:31:46.938Z</time></trkpt><trkpt lat="44.8451133" lon="10.3079683"><ele>40.8</ele><time>2026-04-11T07:31:47.938Z</time></trkpt><trkpt lat="44.8450883" lon="10.3078717"><ele>41.2</ele><time>2026-04-11T07:31:48.938Z</time></trkpt><trkpt lat="44.8450867" lon="10.3077617"><ele>41.6</ele><time>2026-04-11T07:31:49.938Z</time></trkpt><trkpt lat="44.8450883" lon="10.3075033"><ele>42.0</ele><time>2026-04-11T07:31:51.938Z</time></trkpt><trkpt lat="44.8450667" lon="10.30738"><ele>42.0</ele><time>2026-04-11T07:31:52.937Z</time></trkpt><trkpt lat="44.84503" lon="10.307275"><ele>42.0</ele><time>2026-04-11T07:31:53.938Z</time></trkpt><trkpt lat="44.8449533" lon="10.3071983"><ele>42.0</ele><time>2026-04-11T07:31:54.938Z</time></trkpt><trkpt lat="44.844845" lon="10.3071283"><ele>42.0</ele><time>2026-04-11T07:31:55.938Z</time></trkpt><trkpt lat="44.8447283" lon="10.3070833"><ele>42.0</ele><time>2026-04-11T07:31:56.938Z</time></trkpt><trkpt lat="44.84462" lon="10.3070367"><ele>41.75</ele><time>2026-04-11T07:31:57.937Z</time></trkpt><trkpt lat="44.844525" lon="10.3069567"><ele>41.5</ele><time>2026-04-11T07:31:58.938Z</time></trkpt><trkpt lat="44.844445" lon="10.3068567"><ele>41.25</ele><time>2026-04-11T07:31:59.938Z</time></trkpt><trkpt lat="44.8443667" lon="10.3067383"><ele>41.0</ele><time>2026-04-11T07:32:00.938Z</time></trkpt><trkpt lat="44.8442917" lon="10.3066017"><ele>41.0</ele><time>2026-04-11T07:32:01.938Z</time></trkpt><trkpt lat="44.8442133" lon="10.30645"><ele>41.0</ele><time>2026-04-11T07:32:02.938Z</time></trkpt><trkpt lat="44.8441283" lon="10.3062933"><ele>41.0</ele><time>2026-04-11T07:32:03.937Z</time></trkpt><trkpt lat="44.84404" lon="10.306135"><ele>41.0</ele><time>2026-04-11T07:32:04.938Z</time></trkpt><trkpt lat="44.8439483" lon="10.3059633"><ele>41.33333333333333</ele><time>2026-04-11T07:32:05.938Z</time></trkpt><trkpt lat="44.8438417" lon="10.30578"><ele>41.666666666666664</ele><time>2026-04-11T07:32:06.938Z</time></trkpt><trkpt lat="44.843745" lon="10.305595"><ele>42.0</ele><time>2026-04-11T07:32:07.938Z</time></trkpt><trkpt lat="44.8436567" lon="10.3053883"><ele>42.0</ele><time>2026-04-11T07:32:08.938Z</time></trkpt><trkpt lat="44.84358" lon="10.30516"><ele>42.0</ele><time>2026-04-11T07:32:09.937Z</time></trkpt><trkpt lat="44.84351" lon="10.304935"><ele>42.0</ele><time>2026-04-11T07:32:10.937Z</time></trkpt><trkpt lat="44.84347" lon="10.3047083"><ele>40.666666666666664</ele><time>2026-04-11T07:32:11.937Z</time></trkpt><trkpt lat="44.8434333" lon="10.3044767"><ele>39.33333333333333</ele><time>2026-04-11T07:32:12.937Z</time></trkpt><trkpt lat="44.84341" lon="10.304215"><ele>38.0</ele><time>2026-04-11T07:32:13.937Z</time></trkpt><trkpt lat="44.8434067" lon="10.30397"><ele>37.666666666666664</ele><time>2026-04-11T07:32:14.937Z</time></trkpt><trkpt lat="44.8434217" lon="10.3037233"><ele>37.333333333333336</ele><time>2026-04-11T07:32:15.937Z</time></trkpt><trkpt lat="44.84345" lon="10.3034733"><ele>37.0</ele><time>2026-04-11T07:32:16.937Z</time></trkpt><trkpt lat="44.8434817" lon="10.3032233"><ele>38.0</ele><time>2026-04-11T07:32:17.937Z</time></trkpt><trkpt lat="44.843525" lon="10.3029717"><ele>39.0</ele><time>2026-04-11T07:32:18.937Z</time></trkpt><trkpt lat="44.8435867" lon="10.30272"><ele>40.0</ele><time>2026-04-11T07:32:19.937Z</time></trkpt><trkpt lat="44.8436433" lon="10.3024767"><ele>40.333333333333336</ele><time>2026-04-11T07:32:20.937Z</time></trkpt><trkpt lat="44.8436983" lon="10.302235"><ele>40.666666666666664</ele><time>2026-04-11T07:32:21.936Z</time></trkpt><trkpt lat="44.8437567" lon="10.3019867"><ele>41.0</ele><time>2026-04-11T07:32:22.936Z</time></trkpt><trkpt lat="44.84381" lon="10.3017483"><ele>41.0</ele><time>2026-04-11T07:32:23.937Z</time></trkpt><trkpt lat="44.84387" lon="10.3015083"><ele>41.0</ele><time>2026-04-11T07:32:24.937Z</time></trkpt><trkpt lat="44.8439217" lon="10.3012733"><ele>41.0</ele><time>2026-04-11T07:32:25.936Z</time></trkpt><trkpt lat="44.8439767" lon="10.3010317"><ele>40.0</ele><time>2026-04-11T07:32:26.937Z</time></trkpt><trkpt lat="44.84403" lon="10.3007883"><ele>39.0</ele><time>2026-04-11T07:32:27.937Z</time></trkpt><trkpt lat="44.8440817" lon="10.300555"><ele>38.0</ele><time>2026-04-11T07:32:28.936Z</time></trkpt><trkpt lat="44.84413" lon="10.3003267"><ele>38.0</ele><time>2026-04-11T07:32:29.937Z</time></trkpt><trkpt lat="44.8441783" lon="10.3001283"><ele>38.0</ele><time>2026-04-11T07:32:30.937Z</time></trkpt><trkpt lat="44.8442183" lon="10.2999483"><ele>38.0</ele><time>2026-04-11T07:32:31.937Z</time></trkpt><trkpt lat="44.84425" lon="10.2997983"><ele>38.0</ele><time>2026-04-11T07:32:32.937Z</time></trkpt><trkpt lat="44.8442783" lon="10.299665"><ele>38.33333333333333</ele><time>2026-04-11T07:32:33.936Z</time></trkpt><trkpt lat="44.8443067" lon="10.2995533"><ele>38.666666666666664</ele><time>2026-04-11T07:32:34.937Z</time></trkpt><trkpt lat="44.844345" lon="10.2994533"><ele>39.0</ele><time>2026-04-11T07:32:35.937Z</time></trkpt><trkpt lat="44.8443817" lon="10.29938"><ele>39.333333333333336</ele><time>2026-04-11T07:32:36.937Z</time></trkpt><trkpt lat="44.8444417" lon="10.2993183"><ele>39.66666666666667</ele><time>2026-04-11T07:32:37.936Z</time></trkpt><trkpt lat="44.8445183" lon="10.2992783"><ele>40.0</ele><time>2026-04-11T07:32:38.937Z</time></trkpt><trkpt lat="44.8446017" lon="10.299235"><ele>40.0</ele><time>2026-04-11T07:32:39.937Z</time></trkpt><trkpt lat="44.8446867" lon="10.29917"><ele>40.0</ele><time>2026-04-11T07:32:40.937Z</time></trkpt><trkpt lat="44.8447517" lon="10.2990783"><ele>40.0</ele><time>2026-04-11T07:32:41.937Z</time></trkpt><trkpt lat="44.844795" lon="10.2989517"><ele>40.0</ele><time>2026-04-11T07:32:42.937Z</time></trkpt><trkpt lat="44.8448183" lon="10.2988283"><ele>40.0</ele><time>2026-04-11T07:32:43.937Z</time></trkpt><trkpt lat="44.8448283" lon="10.298715"><ele>40.0</ele><time>2026-04-11T07:32:44.937Z</time></trkpt><trkpt lat="44.8448233" lon="10.298595"><ele>40.0</ele><time>2026-04-11T07:32:45.937Z</time></trkpt><trkpt lat="44.84481" lon="10.2984883"><ele>40.0</ele><time>2026-04-11T07:32:46.937Z</time></trkpt><trkpt lat="44.84481" lon="10.29839"><ele>40.0</ele><time>2026-04-11T07:32:47.937Z</time></trkpt><trkpt lat="44.84485" lon="10.2982167"><ele>40.0</ele><time>2026-04-11T07:32:49.937Z</time></trkpt><trkpt lat="44.84489" lon="10.2981183"><ele>40.0</ele><time>2026-04-11T07:32:50.937Z</time></trkpt><trkpt lat="44.8449383" lon="10.2980033"><ele>40.0</ele><time>2026-04-11T07:32:51.937Z</time></trkpt><trkpt lat="44.84498" lon="10.2978767"><ele>40.0</ele><time>2026-04-11T07:32:52.937Z</time></trkpt><trkpt lat="44.8450167" lon="10.297725"><ele>40.0</ele><time>2026-04-11T07:32:53.937Z</time></trkpt><trkpt lat="44.8450567" lon="10.29757"><ele>40.0</ele><time>2026-04-11T07:32:54.937Z</time></trkpt><trkpt lat="44.8450917" lon="10.2974117"><ele>40.0</ele><time>2026-04-11T07:32:55.937Z</time></trkpt><trkpt lat="44.8451217" lon="10.297265"><ele>39.8</ele><time>2026-04-11T07:32:56.937Z</time></trkpt><trkpt lat="44.8451467" lon="10.2971217"><ele>39.6</ele><time>2026-04-11T07:32:57.936Z</time></trkpt><trkpt lat="44.845175" lon="10.29699"><ele>39.4</ele><time>2026-04-11T07:32:58.936Z</time></trkpt><trkpt lat="44.845205" lon="10.2968433"><ele>39.2</ele><time>2026-04-11T07:32:59.936Z</time></trkpt><trkpt lat="44.8452417" lon="10.29669"><ele>39.0</ele><time>2026-04-11T07:33:00.937Z</time></trkpt><trkpt lat="44.845275" lon="10.2965233"><ele>38.75</ele><time>2026-04-11T07:33:01.937Z</time></trkpt><trkpt lat="44.845305" lon="10.2963617"><ele>38.5</ele><time>2026-04-11T07:33:02.937Z</time></trkpt><trkpt lat="44.8453317" lon="10.2962033"><ele>38.25</ele><time>2026-04-11T07:33:03.937Z</time></trkpt><trkpt lat="44.8453667" lon="10.2960417"><ele>38.0</ele><time>2026-04-11T07:33:04.937Z</time></trkpt><trkpt lat="44.8454" lon="10.29588"><ele>38.0</ele><time>2026-04-11T07:33:05.937Z</time></trkpt><trkpt lat="44.8454333" lon="10.29573"><ele>38.0</ele><time>2026-04-11T07:33:06.937Z</time></trkpt><trkpt lat="44.8454683" lon="10.29558"><ele>38.0</ele><time>2026-04-11T07:33:07.937Z</time></trkpt><trkpt lat="44.8455" lon="10.2954333"><ele>38.0</ele><time>2026-04-11T07:33:08.937Z</time></trkpt><trkpt lat="44.8455283" lon="10.2952783"><ele>38.0</ele><time>2026-04-11T07:33:09.937Z</time></trkpt><trkpt lat="44.8455567" lon="10.2951283"><ele>38.0</ele><time>2026-04-11T07:33:10.937Z</time></trkpt><trkpt lat="44.8455883" lon="10.2949767"><ele>38.0</ele><time>2026-04-11T07:33:11.937Z</time></trkpt><trkpt lat="44.84562" lon="10.2948283"><ele>38.0</ele><time>2026-04-11T07:33:12.937Z</time></trkpt><trkpt lat="44.845655" lon="10.294685"><ele>38.0</ele><time>2026-04-11T07:33:13.937Z</time></trkpt><trkpt lat="44.8456833" lon="10.2945667"><ele>38.0</ele><time>2026-04-11T07:33:14.937Z</time></trkpt><trkpt lat="44.845705" lon="10.2944567"><ele>38.0</ele><time>2026-04-11T07:33:15.937Z</time></trkpt><trkpt lat="44.8457267" lon="10.2943617"><ele>38.0</ele><time>2026-04-11T07:33:16.937Z</time></trkpt><trkpt lat="44.8457433" lon="10.2942717"><ele>38.0</ele><time>2026-04-11T07:33:17.937Z</time></trkpt><trkpt lat="44.8457617" lon="10.2941833"><ele>38.0</ele><time>2026-04-11T07:33:18.937Z</time></trkpt><trkpt lat="44.8457933" lon="10.2940217"><ele>38.0</ele><time>2026-04-11T07:33:20.936Z</time></trkpt><trkpt lat="44.8458217" lon="10.29386"><ele>38.0</ele><time>2026-04-11T07:33:22.937Z</time></trkpt><trkpt lat="44.8458417" lon="10.2937567"><ele>38.33333333333333</ele><time>2026-04-11T07:33:23.937Z</time></trkpt><trkpt lat="44.845865" lon="10.2936483"><ele>38.666666666666664</ele><time>2026-04-11T07:33:24.937Z</time></trkpt><trkpt lat="44.8458917" lon="10.2935283"><ele>39.0</ele><time>2026-04-11T07:33:25.937Z</time></trkpt><trkpt lat="44.8459183" lon="10.2934017"><ele>39.333333333333336</ele><time>2026-04-11T07:33:26.937Z</time></trkpt><trkpt lat="44.8459467" lon="10.2932733"><ele>39.66666666666667</ele><time>2026-04-11T07:33:27.936Z</time></trkpt><trkpt lat="44.8459667" lon="10.29318"><ele>40.0</ele><time>2026-04-11T07:33:28.937Z</time></trkpt><trkpt lat="44.84598" lon="10.293075"><ele>40.4</ele><time>2026-04-11T07:33:30.937Z</time></trkpt><trkpt lat="44.84599" lon="10.29296"><ele>40.8</ele><time>2026-04-11T07:33:33.937Z</time></trkpt><trkpt lat="44.8460067" lon="10.292815"><ele>41.2</ele><time>2026-04-11T07:33:35.937Z</time></trkpt><trkpt lat="44.8460267" lon="10.2926933"><ele>41.6</ele><time>2026-04-11T07:33:36.937Z</time></trkpt><trkpt lat="44.846055" lon="10.2925517"><ele>42.0</ele><time>2026-04-11T07:33:37.937Z</time></trkpt><trkpt lat="44.8460783" lon="10.2924067"><ele>42.0</ele><time>2026-04-11T07:33:38.937Z</time></trkpt><trkpt lat="44.846105" lon="10.292255"><ele>42.0</ele><time>2026-04-11T07:33:39.937Z</time></trkpt><trkpt lat="44.8461367" lon="10.2920867"><ele>42.0</ele><time>2026-04-11T07:33:40.937Z</time></trkpt><trkpt lat="44.8461733" lon="10.2919133"><ele>42.0</ele><time>2026-04-11T07:33:41.937Z</time></trkpt><trkpt lat="44.8462017" lon="10.2917417"><ele>42.0</ele><time>2026-04-11T07:33:42.937Z</time></trkpt><trkpt lat="44.8462283" lon="10.2915767"><ele>42.0</ele><time>2026-04-11T07:33:43.937Z</time></trkpt><trkpt lat="44.8462633" lon="10.2913933"><ele>42.0</ele><time>2026-04-11T07:33:44.937Z</time></trkpt><trkpt lat="44.8463033" lon="10.291225"><ele>42.0</ele><time>2026-04-11T07:33:45.937Z</time></trkpt><trkpt lat="44.846335" lon="10.291065"><ele>41.666666666666664</ele><time>2026-04-11T07:33:46.937Z</time></trkpt><trkpt lat="44.8463583" lon="10.2909267"><ele>41.333333333333336</ele><time>2026-04-11T07:33:47.937Z</time></trkpt><trkpt lat="44.84638" lon="10.2908"><ele>41.0</ele><time>2026-04-11T07:33:48.937Z</time></trkpt><trkpt lat="44.8463983" lon="10.290705"><ele>40.66666666666667</ele><time>2026-04-11T07:33:49.937Z</time></trkpt><trkpt lat="44.8464217" lon="10.29062"><ele>40.333333333333336</ele><time>2026-04-11T07:33:50.937Z</time></trkpt><trkpt lat="44.8464817" lon="10.2905067"><ele>40.0</ele><time>2026-04-11T07:33:52.937Z</time></trkpt><trkpt lat="44.8465567" lon="10.29045"><ele>40.0</ele><time>2026-04-11T07:33:54.937Z</time></trkpt><trkpt lat="44.8466383" lon="10.2903917"><ele>40.0</ele><time>2026-04-11T07:33:56.937Z</time></trkpt><trkpt lat="44.84673" lon="10.2903483"><ele>40.0</ele><time>2026-04-11T07:34:02.937Z</time></trkpt><trkpt lat="44.84679" lon="10.2903867"><ele>40.0</ele><time>2026-04-11T07:34:05.936Z</time></trkpt><trkpt lat="44.8468083" lon="10.290495"><ele>40.0</ele><time>2026-04-11T07:34:09.937Z</time></trkpt><trkpt lat="44.8468583" lon="10.2905583"><ele>40.0</ele><time>2026-04-11T07:34:12.937Z</time></trkpt><trkpt lat="44.846925" lon="10.29052"><ele>40.0</ele><time>2026-04-11T07:34:14.936Z</time></trkpt><trkpt lat="44.84699" lon="10.2904317"><ele>40.0</ele><time>2026-04-11T07:34:16.937Z</time></trkpt><trkpt lat="44.8470517" lon="10.2903733"><ele>40.0</ele><time>2026-04-11T07:34:18.937Z</time></trkpt><trkpt lat="44.8471383" lon="10.2904017"><ele>40.0</ele><time>2026-04-11T07:34:21.937Z</time></trkpt><trkpt lat="44.8472" lon="10.2904367"><ele>40.0</ele><time>2026-04-11T07:34:23.937Z</time></trkpt><trkpt lat="44.8472717" lon="10.2904933"><ele>40.0</ele><time>2026-04-11T07:34:26.937Z</time></trkpt><trkpt lat="44.847375" lon="10.2905767"><ele>40.0</ele><time>2026-04-11T07:38:21.936Z</time></trkpt><trkpt lat="44.84725" lon="10.2906083"><ele>40.0</ele><time>2026-04-11T07:42:26.936Z</time></trkpt><trkpt lat="44.847315" lon="10.2905367"><ele>40.0</ele><time>2026-04-11T07:45:42.936Z</time></trkpt><trkpt lat="44.8472833" lon="10.2904433"><ele>40.0</ele><time>2026-04-11T07:45:47.936Z</time></trkpt><trkpt lat="44.8472217" lon="10.2903833"><ele>40.0</ele><time>2026-04-11T07:45:52.936Z</time></trkpt><trkpt lat="44.8471733" lon="10.2903183"><ele>40.0</ele><time>2026-04-11T07:45:56.936Z</time></trkpt><trkpt lat="44.8471767" lon="10.2902217"><ele>40.0</ele><time>2026-04-11T07:46:05.936Z</time></trkpt><trkpt lat="44.847225" lon="10.2900867"><ele>40.0</ele><time>2026-04-11T07:46:18.936Z</time></trkpt><trkpt lat="44.84727" lon="10.2900117"><ele>40.0</ele><time>2026-04-11T07:46:21.936Z</time></trkpt><trkpt lat="44.84732" lon="10.2899217"><ele>40.0</ele><time>2026-04-11T07:46:23.936Z</time></trkpt></trkseg><trkseg><trkpt lat="44.8473717" lon="10.2904383"><ele>40.0</ele><time>2026-04-11T10:19:39.945Z</time></trkpt><trkpt lat="44.847295" lon="10.290425"><ele>40.0</ele><time>2026-04-11T10:19:41.944Z</time></trkpt><trkpt lat="44.8472133" lon="10.29039"><ele>40.0</ele><time>2026-04-11T10:19:43.944Z</time></trkpt><trkpt lat="44.84713" lon="10.2903533"><ele>40.0</ele><time>2026-04-11T10:19:45.944Z</time></trkpt><trkpt lat="44.8470483" lon="10.2903283"><ele>40.0</ele><time>2026-04-11T10:19:47.945Z</time></trkpt><trkpt lat="44.8469767" lon="10.29034"><ele>40.0</ele><time>2026-04-11T10:19:49.945Z</time></trkpt><trkpt lat="44.8469217" lon="10.2904067"><ele>40.0</ele><time>2026-04-11T10:19:52.945Z</time></trkpt><trkpt lat="44.8468767" lon="10.2905033"><ele>40.0</ele><time>2026-04-11T10:19:55.945Z</time></trkpt><trkpt lat="44.8467967" lon="10.2904767"><ele>40.0</ele><time>2026-04-11T10:19:58.945Z</time></trkpt><trkpt lat="44.8467967" lon="10.290375"><ele>40.0</ele><time>2026-04-11T10:20:01.945Z</time></trkpt><trkpt lat="44.846805" lon="10.290265"><ele>40.0</ele><time>2026-04-11T10:20:03.945Z</time></trkpt><trkpt lat="44.8468" lon="10.2901283"><ele>40.0</ele><time>2026-04-11T10:20:05.944Z</time></trkpt><trkpt lat="44.8467667" lon="10.2899567"><ele>39.857142857142854</ele><time>2026-04-11T10:20:07.945Z</time></trkpt><trkpt lat="44.846735" lon="10.2898717"><ele>39.714285714285715</ele><time>2026-04-11T10:20:08.945Z</time></trkpt><trkpt lat="44.8466983" lon="10.2897983"><ele>39.57142857142857</ele><time>2026-04-11T10:20:09.945Z</time></trkpt><trkpt lat="44.84665" lon="10.2897383"><ele>39.42857142857143</ele><time>2026-04-11T10:20:10.945Z</time></trkpt><trkpt lat="44.8465933" lon="10.28969"><ele>39.285714285714285</ele><time>2026-04-11T10:20:11.945Z</time></trkpt><trkpt lat="44.8465133" lon="10.2896817"><ele>39.142857142857146</ele><time>2026-04-11T10:20:12.945Z</time></trkpt><trkpt lat="44.84642" lon="10.2896983"><ele>39.0</ele><time>2026-04-11T10:20:13.945Z</time></trkpt><trkpt lat="44.8463517" lon="10.2897383"><ele>39.0</ele><time>2026-04-11T10:20:14.945Z</time></trkpt><trkpt lat="44.8462867" lon="10.2897967"><ele>39.0</ele><time>2026-04-11T10:20:15.945Z</time></trkpt><trkpt lat="44.846235" lon="10.2898867"><ele>39.0</ele><time>2026-04-11T10:20:16.945Z</time></trkpt><trkpt lat="44.8462" lon="10.2899783"><ele>39.0</ele><time>2026-04-11T10:20:17.945Z</time></trkpt><trkpt lat="44.846195" lon="10.290085"><ele>39.0</ele><time>2026-04-11T10:20:18.945Z</time></trkpt><trkpt lat="44.8462117" lon="10.2901917"><ele>39.0</ele><time>2026-04-11T10:20:19.945Z</time></trkpt><trkpt lat="44.846245" lon="10.2903017"><ele>39.0</ele><time>2026-04-11T10:20:20.945Z</time></trkpt><trkpt lat="44.8462817" lon="10.2904183"><ele>39.0</ele><time>2026-04-11T10:20:21.945Z</time></trkpt><trkpt lat="44.8463067" lon="10.2905417"><ele>39.0</ele><time>2026-04-11T10:20:22.945Z</time></trkpt><trkpt lat="44.8463117" lon="10.2906617"><ele>39.0</ele><time>2026-04-11T10:20:23.945Z</time></trkpt><trkpt lat="44.8462983" lon="10.2907883"><ele>39.0</ele><time>2026-04-11T10:20:24.945Z</time></trkpt><trkpt lat="44.84627" lon="10.2909167"><ele>39.2</ele><time>2026-04-11T10:20:25.945Z</time></trkpt><trkpt lat="44.846245" lon="10.291055"><ele>39.4</ele><time>2026-04-11T10:20:26.945Z</time></trkpt><trkpt lat="44.8462167" lon="10.2911933"><ele>39.6</ele><time>2026-04-11T10:20:27.945Z</time></trkpt><trkpt lat="44.8461917" lon="10.291325"><ele>39.8</ele><time>2026-04-11T10:20:28.944Z</time></trkpt><trkpt lat="44.8461733" lon="10.2914583"><ele>40.0</ele><time>2026-04-11T10:20:29.945Z</time></trkpt><trkpt lat="44.8461483" lon="10.2915917"><ele>40.4</ele><time>2026-04-11T10:20:30.945Z</time></trkpt><trkpt lat="44.8461267" lon="10.2917333"><ele>40.8</ele><time>2026-04-11T10:20:31.945Z</time></trkpt><trkpt lat="44.8461017" lon="10.291885"><ele>41.2</ele><time>2026-04-11T10:20:32.945Z</time></trkpt><trkpt lat="44.8460817" lon="10.2920317"><ele>41.6</ele><time>2026-04-11T10:20:33.945Z</time></trkpt><trkpt lat="44.8460517" lon="10.2921933"><ele>42.0</ele><time>2026-04-11T10:20:34.945Z</time></trkpt><trkpt lat="44.846015" lon="10.2923517"><ele>42.0</ele><time>2026-04-11T10:20:35.945Z</time></trkpt><trkpt lat="44.845985" lon="10.2925033"><ele>42.0</ele><time>2026-04-11T10:20:36.945Z</time></trkpt><trkpt lat="44.8459467" lon="10.2926617"><ele>42.0</ele><time>2026-04-11T10:20:37.945Z</time></trkpt><trkpt lat="44.84591" lon="10.29282"><ele>42.0</ele><time>2026-04-11T10:20:38.945Z</time></trkpt><trkpt lat="44.8458767" lon="10.2929933"><ele>41.5</ele><time>2026-04-11T10:20:39.945Z</time></trkpt><trkpt lat="44.8458417" lon="10.2931683"><ele>41.0</ele><time>2026-04-11T10:20:40.945Z</time></trkpt><trkpt lat="44.8458017" lon="10.29334"><ele>40.5</ele><time>2026-04-11T10:20:41.945Z</time></trkpt><trkpt lat="44.8457617" lon="10.29352"><ele>40.0</ele><time>2026-04-11T10:20:42.945Z</time></trkpt><trkpt lat="44.8457267" lon="10.2937"><ele>40.0</ele><time>2026-04-11T10:20:43.945Z</time></trkpt><trkpt lat="44.84569" lon="10.2938833"><ele>40.0</ele><time>2026-04-11T10:20:44.945Z</time></trkpt><trkpt lat="44.8456517" lon="10.2940633"><ele>40.0</ele><time>2026-04-11T10:20:45.945Z</time></trkpt><trkpt lat="44.84562" lon="10.2942367"><ele>40.0</ele><time>2026-04-11T10:20:46.945Z</time></trkpt><trkpt lat="44.84558" lon="10.294415"><ele>39.75</ele><time>2026-04-11T10:20:47.945Z</time></trkpt><trkpt lat="44.84554" lon="10.2945933"><ele>39.5</ele><time>2026-04-11T10:20:48.945Z</time></trkpt><trkpt lat="44.8455017" lon="10.2947817"><ele>39.25</ele><time>2026-04-11T10:20:49.945Z</time></trkpt><trkpt lat="44.8454633" lon="10.294975"><ele>39.0</ele><time>2026-04-11T10:20:50.945Z</time></trkpt><trkpt lat="44.845425" lon="10.2951733"><ele>39.0</ele><time>2026-04-11T10:20:51.945Z</time></trkpt><trkpt lat="44.84538" lon="10.2953683"><ele>39.0</ele><time>2026-04-11T10:20:52.945Z</time></trkpt><trkpt lat="44.8453333" lon="10.2955683"><ele>39.0</ele><time>2026-04-11T10:20:53.945Z</time></trkpt><trkpt lat="44.8452917" lon="10.2957533"><ele>39.0</ele><time>2026-04-11T10:20:54.945Z</time></trkpt><trkpt lat="44.8452583" lon="10.295935"><ele>39.0</ele><time>2026-04-11T10:20:55.945Z</time></trkpt><trkpt lat="44.8452183" lon="10.29612"><ele>39.0</ele><time>2026-04-11T10:20:56.944Z</time></trkpt><trkpt lat="44.84518" lon="10.2963"><ele>39.0</ele><time>2026-04-11T10:20:57.945Z</time></trkpt><trkpt lat="44.845145" lon="10.2964633"><ele>39.0</ele><time>2026-04-11T10:20:58.945Z</time></trkpt><trkpt lat="44.845115" lon="10.2966067"><ele>38.8</ele><time>2026-04-11T10:20:59.945Z</time></trkpt><trkpt lat="44.8450917" lon="10.2967433"><ele>38.599999999999994</ele><time>2026-04-11T10:21:00.945Z</time></trkpt><trkpt lat="44.84507" lon="10.2968867"><ele>38.4</ele><time>2026-04-11T10:21:01.945Z</time></trkpt><trkpt lat="44.8450417" lon="10.2970317"><ele>38.199999999999996</ele><time>2026-04-11T10:21:02.945Z</time></trkpt><trkpt lat="44.8450083" lon="10.2971917"><ele>38.0</ele><time>2026-04-11T10:21:03.945Z</time></trkpt><trkpt lat="44.8449667" lon="10.297355"><ele>38.5</ele><time>2026-04-11T10:21:04.945Z</time></trkpt><trkpt lat="44.8449267" lon="10.2975233"><ele>39.0</ele><time>2026-04-11T10:21:05.945Z</time></trkpt><trkpt lat="44.8448933" lon="10.29769"><ele>39.5</ele><time>2026-04-11T10:21:06.944Z</time></trkpt><trkpt lat="44.8448467" lon="10.2978633"><ele>40.0</ele><time>2026-04-11T10:21:07.945Z</time></trkpt><trkpt lat="44.8447983" lon="10.29802"><ele>40.2</ele><time>2026-04-11T10:21:08.945Z</time></trkpt><trkpt lat="44.8447383" lon="10.29814"><ele>40.4</ele><time>2026-04-11T10:21:09.945Z</time></trkpt><trkpt lat="44.8446617" lon="10.2982083"><ele>40.599999999999994</ele><time>2026-04-11T10:21:10.945Z</time></trkpt><trkpt lat="44.84458" lon="10.2982433"><ele>40.8</ele><time>2026-04-11T10:21:11.944Z</time></trkpt><trkpt lat="44.8444867" lon="10.298245"><ele>41.0</ele><time>2026-04-11T10:21:12.945Z</time></trkpt><trkpt lat="44.84439" lon="10.29824"><ele>41.0</ele><time>2026-04-11T10:21:13.945Z</time></trkpt><trkpt lat="44.8442967" lon="10.298255"><ele>41.0</ele><time>2026-04-11T10:21:14.945Z</time></trkpt><trkpt lat="44.8442133" lon="10.2982883"><ele>41.0</ele><time>2026-04-11T10:21:15.945Z</time></trkpt><trkpt lat="44.84414" lon="10.298355"><ele>41.0</ele><time>2026-04-11T10:21:16.945Z</time></trkpt><trkpt lat="44.8440767" lon="10.2984533"><ele>41.0</ele><time>2026-04-11T10:21:17.945Z</time></trkpt><trkpt lat="44.8440283" lon="10.2985767"><ele>41.0</ele><time>2026-04-11T10:21:18.945Z</time></trkpt><trkpt lat="44.8440033" lon="10.2987117"><ele>41.0</ele><time>2026-04-11T10:21:19.945Z</time></trkpt><trkpt lat="44.8440083" lon="10.2988467"><ele>41.0</ele><time>2026-04-11T10:21:20.945Z</time></trkpt><trkpt lat="44.844045" lon="10.2989833"><ele>41.0</ele><time>2026-04-11T10:21:21.945Z</time></trkpt><trkpt lat="44.8440867" lon="10.29912"><ele>41.0</ele><time>2026-04-11T10:21:22.945Z</time></trkpt><trkpt lat="44.8441283" lon="10.2992517"><ele>40.4</ele><time>2026-04-11T10:21:23.945Z</time></trkpt><trkpt lat="44.844175" lon="10.299395"><ele>39.8</ele><time>2026-04-11T10:21:24.945Z</time></trkpt><trkpt lat="44.8441883" lon="10.29954"><ele>39.199999999999996</ele><time>2026-04-11T10:21:25.945Z</time></trkpt><trkpt lat="44.8441633" lon="10.29969"><ele>38.599999999999994</ele><time>2026-04-11T10:21:26.945Z</time></trkpt><trkpt lat="44.8441233" lon="10.2998517"><ele>38.0</ele><time>2026-04-11T10:21:27.944Z</time></trkpt><trkpt lat="44.8440817" lon="10.3000117"><ele>38.0</ele><time>2026-04-11T10:21:28.945Z</time></trkpt><trkpt lat="44.8440467" lon="10.3001733"><ele>38.0</ele><time>2026-04-11T10:21:29.945Z</time></trkpt><trkpt lat="44.844005" lon="10.3003417"><ele>38.0</ele><time>2026-04-11T10:21:30.945Z</time></trkpt><trkpt lat="44.8439633" lon="10.300515"><ele>38.0</ele><time>2026-04-11T10:21:31.945Z</time></trkpt><trkpt lat="44.843925" lon="10.30069"><ele>38.0</ele><time>2026-04-11T10:21:32.945Z</time></trkpt><trkpt lat="44.8438833" lon="10.300875"><ele>38.0</ele><time>2026-04-11T10:21:33.945Z</time></trkpt><trkpt lat="44.8438467" lon="10.301045"><ele>38.0</ele><time>2026-04-11T10:21:34.945Z</time></trkpt><trkpt lat="44.8438017" lon="10.3012233"><ele>38.0</ele><time>2026-04-11T10:21:35.945Z</time></trkpt><trkpt lat="44.8437583" lon="10.301405"><ele>38.75</ele><time>2026-04-11T10:21:36.945Z</time></trkpt><trkpt lat="44.84372" lon="10.3015767"><ele>39.5</ele><time>2026-04-11T10:21:37.945Z</time></trkpt><trkpt lat="44.8436767" lon="10.3017517"><ele>40.25</ele><time>2026-04-11T10:21:38.945Z</time></trkpt><trkpt lat="44.8436367" lon="10.3019317"><ele>41.0</ele><time>2026-04-11T10:21:39.945Z</time></trkpt><trkpt lat="44.84359" lon="10.3021117"><ele>40.75</ele><time>2026-04-11T10:21:40.945Z</time></trkpt><trkpt lat="44.8435533" lon="10.3022833"><ele>40.5</ele><time>2026-04-11T10:21:41.945Z</time></trkpt><trkpt lat="44.843515" lon="10.302455"><ele>40.25</ele><time>2026-04-11T10:21:42.945Z</time></trkpt><trkpt lat="44.843475" lon="10.302625"><ele>40.0</ele><time>2026-04-11T10:21:43.945Z</time></trkpt><trkpt lat="44.843435" lon="10.3027967"><ele>39.75</ele><time>2026-04-11T10:21:44.945Z</time></trkpt><trkpt lat="44.8433933" lon="10.30297"><ele>39.5</ele><time>2026-04-11T10:21:45.945Z</time></trkpt><trkpt lat="44.8433617" lon="10.3031333"><ele>39.25</ele><time>2026-04-11T10:21:46.945Z</time></trkpt><trkpt lat="44.8433317" lon="10.3033183"><ele>39.0</ele><time>2026-04-11T10:21:47.945Z</time></trkpt><trkpt lat="44.84331" lon="10.3035033"><ele>38.75</ele><time>2026-04-11T10:21:48.945Z</time></trkpt><trkpt lat="44.843295" lon="10.303695"><ele>38.5</ele><time>2026-04-11T10:21:49.945Z</time></trkpt><trkpt lat="44.8432917" lon="10.30388"><ele>38.25</ele><time>2026-04-11T10:21:50.945Z</time></trkpt><trkpt lat="44.8432967" lon="10.304065"><ele>38.0</ele><time>2026-04-11T10:21:51.945Z</time></trkpt><trkpt lat="44.843305" lon="10.3042533"><ele>38.0</ele><time>2026-04-11T10:21:52.945Z</time></trkpt><trkpt lat="44.843325" lon="10.304435"><ele>38.0</ele><time>2026-04-11T10:21:53.945Z</time></trkpt><trkpt lat="44.8433517" lon="10.3046283"><ele>38.0</ele><time>2026-04-11T10:21:54.945Z</time></trkpt><trkpt lat="44.8433867" lon="10.3048167"><ele>38.0</ele><time>2026-04-11T10:21:55.945Z</time></trkpt><trkpt lat="44.8434233" lon="10.305005"><ele>39.0</ele><time>2026-04-11T10:21:56.944Z</time></trkpt><trkpt lat="44.84347" lon="10.3051883"><ele>40.0</ele><time>2026-04-11T10:21:57.944Z</time></trkpt><trkpt lat="44.8435233" lon="10.3053667"><ele>41.0</ele><time>2026-04-11T10:21:58.945Z</time></trkpt><trkpt lat="44.8435917" lon="10.3055433"><ele>42.0</ele><time>2026-04-11T10:21:59.945Z</time></trkpt><trkpt lat="44.843675" lon="10.3057183"><ele>42.0</ele><time>2026-04-11T10:22:00.945Z</time></trkpt><trkpt lat="44.84376" lon="10.3058733"><ele>42.0</ele><time>2026-04-11T10:22:01.944Z</time></trkpt><trkpt lat="44.843845" lon="10.3060233"><ele>42.0</ele><time>2026-04-11T10:22:02.945Z</time></trkpt><trkpt lat="44.8439283" lon="10.3061917"><ele>42.0</ele><time>2026-04-11T10:22:03.945Z</time></trkpt><trkpt lat="44.8440117" lon="10.3063683"><ele>41.75</ele><time>2026-04-11T10:22:04.945Z</time></trkpt><trkpt lat="44.8440917" lon="10.3065333"><ele>41.5</ele><time>2026-04-11T10:22:05.945Z</time></trkpt><trkpt lat="44.8441633" lon="10.3066783"><ele>41.25</ele><time>2026-04-11T10:22:06.945Z</time></trkpt><trkpt lat="44.8442367" lon="10.30681"><ele>41.0</ele><time>2026-04-11T10:22:07.945Z</time></trkpt><trkpt lat="44.8443067" lon="10.306925"><ele>40.8</ele><time>2026-04-11T10:22:08.945Z</time></trkpt><trkpt lat="44.8443767" lon="10.3070283"><ele>40.599999999999994</ele><time>2026-04-11T10:22:09.945Z</time></trkpt><trkpt lat="44.8444317" lon="10.3071317"><ele>40.4</ele><time>2026-04-11T10:22:10.945Z</time></trkpt><trkpt lat="44.8444633" lon="10.3072467"><ele>40.2</ele><time>2026-04-11T10:22:11.945Z</time></trkpt><trkpt lat="44.8444767" lon="10.3073783"><ele>40.0</ele><time>2026-04-11T10:22:12.945Z</time></trkpt><trkpt lat="44.8444817" lon="10.30751"><ele>40.4</ele><time>2026-04-11T10:22:13.945Z</time></trkpt><trkpt lat="44.8444933" lon="10.3076433"><ele>40.8</ele><time>2026-04-11T10:22:14.945Z</time></trkpt><trkpt lat="44.8445133" lon="10.3077733"><ele>41.2</ele><time>2026-04-11T10:22:15.944Z</time></trkpt><trkpt lat="44.8445633" lon="10.3078867"><ele>41.6</ele><time>2026-04-11T10:22:16.945Z</time></trkpt><trkpt lat="44.8446233" lon="10.3079817"><ele>42.0</ele><time>2026-04-11T10:22:17.945Z</time></trkpt><trkpt lat="44.8446983" lon="10.3080517"><ele>41.8</ele><time>2026-04-11T10:22:18.945Z</time></trkpt><trkpt lat="44.8447983" lon="10.308085"><ele>41.6</ele><time>2026-04-11T10:22:19.945Z</time></trkpt><trkpt lat="44.844905" lon="10.3081067"><ele>41.4</ele><time>2026-04-11T10:22:20.945Z</time></trkpt><trkpt lat="44.8450233" lon="10.30812"><ele>41.199999999999996</ele><time>2026-04-11T10:22:21.945Z</time></trkpt><trkpt lat="44.845125" lon="10.3081583"><ele>41.0</ele><time>2026-04-11T10:22:22.945Z</time></trkpt><trkpt lat="44.845195" lon="10.3082333"><ele>40.8</ele><time>2026-04-11T10:22:23.945Z</time></trkpt><trkpt lat="44.8452617" lon="10.3083217"><ele>40.599999999999994</ele><time>2026-04-11T10:22:24.945Z</time></trkpt><trkpt lat="44.8453233" lon="10.30844"><ele>40.4</ele><time>2026-04-11T10:22:25.945Z</time></trkpt><trkpt lat="44.845375" lon="10.3085533"><ele>40.2</ele><time>2026-04-11T10:22:26.944Z</time></trkpt><trkpt lat="44.8454417" lon="10.3086867"><ele>40.0</ele><time>2026-04-11T10:22:27.945Z</time></trkpt><trkpt lat="44.8455017" lon="10.3088417"><ele>40.0</ele><time>2026-04-11T10:22:28.945Z</time></trkpt><trkpt lat="44.8455633" lon="10.3089983"><ele>40.0</ele><time>2026-04-11T10:22:29.945Z</time></trkpt><trkpt lat="44.8456167" lon="10.309175"><ele>40.0</ele><time>2026-04-11T10:22:30.945Z</time></trkpt><trkpt lat="44.845665" lon="10.3093617"><ele>40.0</ele><time>2026-04-11T10:22:31.945Z</time></trkpt><trkpt lat="44.8457033" lon="10.3095633"><ele>40.0</ele><time>2026-04-11T10:22:32.945Z</time></trkpt><trkpt lat="44.845735" lon="10.3097567"><ele>40.0</ele><time>2026-04-11T10:22:33.945Z</time></trkpt><trkpt lat="44.8457533" lon="10.309965"><ele>40.0</ele><time>2026-04-11T10:22:34.945Z</time></trkpt><trkpt lat="44.8457467" lon="10.3101783"><ele>40.0</ele><time>2026-04-11T10:22:35.945Z</time></trkpt><trkpt lat="44.8457283" lon="10.310385"><ele>39.5</ele><time>2026-04-11T10:22:36.945Z</time></trkpt><trkpt lat="44.845715" lon="10.310595"><ele>39.0</ele><time>2026-04-11T10:22:37.945Z</time></trkpt><trkpt lat="44.8456933" lon="10.310805"><ele>38.5</ele><time>2026-04-11T10:22:38.944Z</time></trkpt><trkpt lat="44.8456633" lon="10.3110083"><ele>38.0</ele><time>2026-04-11T10:22:39.945Z</time></trkpt><trkpt lat="44.8456333" lon="10.31122"><ele>38.33333333333333</ele><time>2026-04-11T10:22:40.945Z</time></trkpt><trkpt lat="44.8456017" lon="10.311445"><ele>38.666666666666664</ele><time>2026-04-11T10:22:41.944Z</time></trkpt><trkpt lat="44.845575" lon="10.311675"><ele>39.0</ele><time>2026-04-11T10:22:42.945Z</time></trkpt><trkpt lat="44.8455483" lon="10.3119133"><ele>39.0</ele><time>2026-04-11T10:22:43.945Z</time></trkpt><trkpt lat="44.845515" lon="10.312155"><ele>39.0</ele><time>2026-04-11T10:22:44.945Z</time></trkpt><trkpt lat="44.84548" lon="10.3124017"><ele>39.0</ele><time>2026-04-11T10:22:45.945Z</time></trkpt><trkpt lat="44.8454433" lon="10.3126583"><ele>39.666666666666664</ele><time>2026-04-11T10:22:46.945Z</time></trkpt><trkpt lat="44.8454083" lon="10.3129167"><ele>40.33333333333333</ele><time>2026-04-11T10:22:47.945Z</time></trkpt><trkpt lat="44.8453817" lon="10.3131683"><ele>41.0</ele><time>2026-04-11T10:22:48.945Z</time></trkpt><trkpt lat="44.845345" lon="10.3134267"><ele>41.33333333333333</ele><time>2026-04-11T10:22:49.945Z</time></trkpt><trkpt lat="44.8453067" lon="10.31368"><ele>41.666666666666664</ele><time>2026-04-11T10:22:50.945Z</time></trkpt><trkpt lat="44.8452567" lon="10.31392"><ele>42.0</ele><time>2026-04-11T10:22:51.945Z</time></trkpt><trkpt lat="44.8452033" lon="10.3141617"><ele>42.0</ele><time>2026-04-11T10:22:52.944Z</time></trkpt><trkpt lat="44.845125" lon="10.3144117"><ele>42.0</ele><time>2026-04-11T10:22:53.945Z</time></trkpt><trkpt lat="44.8450467" lon="10.3146417"><ele>42.0</ele><time>2026-04-11T10:22:54.945Z</time></trkpt><trkpt lat="44.844975" lon="10.314875"><ele>42.0</ele><time>2026-04-11T10:22:55.945Z</time></trkpt><trkpt lat="44.8449067" lon="10.3151"><ele>42.0</ele><time>2026-04-11T10:22:56.945Z</time></trkpt><trkpt lat="44.84483" lon="10.3153183"><ele>42.0</ele><time>2026-04-11T10:22:57.945Z</time></trkpt><trkpt lat="44.8447583" lon="10.31554"><ele>41.333333333333336</ele><time>2026-04-11T10:22:58.944Z</time></trkpt><trkpt lat="44.8446833" lon="10.315765"><ele>40.66666666666667</ele><time>2026-04-11T10:22:59.943Z</time></trkpt><trkpt lat="44.8446067" lon="10.3159917"><ele>40.0</ele><time>2026-04-11T10:23:00.944Z</time></trkpt><trkpt lat="44.8445217" lon="10.316225"><ele>40.333333333333336</ele><time>2026-04-11T10:23:01.944Z</time></trkpt><trkpt lat="44.84444" lon="10.3164567"><ele>40.666666666666664</ele><time>2026-04-11T10:23:02.944Z</time></trkpt><trkpt lat="44.84436" lon="10.3166883"><ele>41.0</ele><time>2026-04-11T10:23:03.944Z</time></trkpt><trkpt lat="44.8442883" lon="10.3169283"><ele>41.33333333333333</ele><time>2026-04-11T10:23:04.944Z</time></trkpt><trkpt lat="44.844215" lon="10.3171633"><ele>41.666666666666664</ele><time>2026-04-11T10:23:05.944Z</time></trkpt><trkpt lat="44.8441333" lon="10.3174183"><ele>42.0</ele><time>2026-04-11T10:23:06.944Z</time></trkpt><trkpt lat="44.8440467" lon="10.3176783"><ele>42.0</ele><time>2026-04-11T10:23:07.944Z</time></trkpt><trkpt lat="44.8439633" lon="10.3179183"><ele>42.0</ele><time>2026-04-11T10:23:08.944Z</time></trkpt><trkpt lat="44.843875" lon="10.3181717"><ele>42.0</ele><time>2026-04-11T10:23:09.944Z</time></trkpt><trkpt lat="44.84379" lon="10.3184117"><ele>41.666666666666664</ele><time>2026-04-11T10:23:10.944Z</time></trkpt><trkpt lat="44.8436917" lon="10.31865"><ele>41.33333333333333</ele><time>2026-04-11T10:23:11.944Z</time></trkpt><trkpt lat="44.843575" lon="10.318895"><ele>41.0</ele><time>2026-04-11T10:23:12.944Z</time></trkpt><trkpt lat="44.843445" lon="10.319125"><ele>40.666666666666664</ele><time>2026-04-11T10:23:13.944Z</time></trkpt><trkpt lat="44.8433133" lon="10.3193367"><ele>40.333333333333336</ele><time>2026-04-11T10:23:14.944Z</time></trkpt><trkpt lat="44.8431717" lon="10.31955"><ele>40.0</ele><time>2026-04-11T10:23:15.944Z</time></trkpt><trkpt lat="44.8430283" lon="10.319745"><ele>39.66666666666667</ele><time>2026-04-11T10:23:16.944Z</time></trkpt><trkpt lat="44.8428983" lon="10.3199367"><ele>39.333333333333336</ele><time>2026-04-11T10:23:17.944Z</time></trkpt><trkpt lat="44.84277" lon="10.3201267"><ele>39.0</ele><time>2026-04-11T10:23:18.944Z</time></trkpt><trkpt lat="44.8426467" lon="10.320295"><ele>39.25</ele><time>2026-04-11T10:23:19.944Z</time></trkpt><trkpt lat="44.8425333" lon="10.3204483"><ele>39.5</ele><time>2026-04-11T10:23:20.944Z</time></trkpt><trkpt lat="44.8424317" lon="10.32059"><ele>39.75</ele><time>2026-04-11T10:23:21.944Z</time></trkpt><trkpt lat="44.842345" lon="10.3207167"><ele>40.0</ele><time>2026-04-11T10:23:22.944Z</time></trkpt><trkpt lat="44.84227" lon="10.320815"><ele>40.16666666666667</ele><time>2026-04-11T10:23:23.944Z</time></trkpt><trkpt lat="44.842205" lon="10.32089"><ele>40.333333333333336</ele><time>2026-04-11T10:23:24.944Z</time></trkpt><trkpt lat="44.842135" lon="10.3209417"><ele>40.5</ele><time>2026-04-11T10:23:25.944Z</time></trkpt><trkpt lat="44.8420567" lon="10.3209667"><ele>40.666666666666664</ele><time>2026-04-11T10:23:26.944Z</time></trkpt><trkpt lat="44.8419667" lon="10.320985"><ele>40.83333333333333</ele><time>2026-04-11T10:23:27.944Z</time></trkpt><trkpt lat="44.8418867" lon="10.321015"><ele>41.0</ele><time>2026-04-11T10:23:28.944Z</time></trkpt><trkpt lat="44.8418133" lon="10.3210667"><ele>40.8</ele><time>2026-04-11T10:23:29.944Z</time></trkpt><trkpt lat="44.8417483" lon="10.3211467"><ele>40.599999999999994</ele><time>2026-04-11T10:23:30.944Z</time></trkpt><trkpt lat="44.841705" lon="10.3212633"><ele>40.4</ele><time>2026-04-11T10:23:31.944Z</time></trkpt><trkpt lat="44.84166" lon="10.321385"><ele>40.2</ele><time>2026-04-11T10:23:32.944Z</time></trkpt><trkpt lat="44.8416033" lon="10.32152"><ele>40.0</ele><time>2026-04-11T10:23:33.944Z</time></trkpt><trkpt lat="44.8415333" lon="10.3216683"><ele>40.0</ele><time>2026-04-11T10:23:34.944Z</time></trkpt><trkpt lat="44.8414383" lon="10.3217967"><ele>40.0</ele><time>2026-04-11T10:23:35.944Z</time></trkpt><trkpt lat="44.84134" lon="10.3219417"><ele>40.0</ele><time>2026-04-11T10:23:36.944Z</time></trkpt><trkpt lat="44.8412233" lon="10.322095"><ele>40.0</ele><time>2026-04-11T10:23:37.944Z</time></trkpt><trkpt lat="44.8411017" lon="10.3222483"><ele>40.0</ele><time>2026-04-11T10:23:38.944Z</time></trkpt><trkpt lat="44.8409817" lon="10.3224117"><ele>40.0</ele><time>2026-04-11T10:23:39.944Z</time></trkpt><trkpt lat="44.8408567" lon="10.322575"><ele>40.0</ele><time>2026-04-11T10:23:40.944Z</time></trkpt><trkpt lat="44.840735" lon="10.3227317"><ele>40.0</ele><time>2026-04-11T10:23:41.944Z</time></trkpt><trkpt lat="44.8406233" lon="10.3228917"><ele>40.0</ele><time>2026-04-11T10:23:42.944Z</time></trkpt><trkpt lat="44.840505" lon="10.3230367"><ele>40.0</ele><time>2026-04-11T10:23:43.944Z</time></trkpt><trkpt lat="44.8403917" lon="10.3231917"><ele>40.333333333333336</ele><time>2026-04-11T10:23:44.944Z</time></trkpt><trkpt lat="44.8402667" lon="10.3233567"><ele>40.666666666666664</ele><time>2026-04-11T10:23:45.944Z</time></trkpt><trkpt lat="44.8401417" lon="10.3235267"><ele>41.0</ele><time>2026-04-11T10:23:46.944Z</time></trkpt><trkpt lat="44.8400167" lon="10.323695"><ele>41.0</ele><time>2026-04-11T10:23:47.944Z</time></trkpt><trkpt lat="44.8398933" lon="10.3238633"><ele>41.0</ele><time>2026-04-11T10:23:48.944Z</time></trkpt><trkpt lat="44.8397633" lon="10.324035"><ele>41.0</ele><time>2026-04-11T10:23:49.944Z</time></trkpt><trkpt lat="44.8396333" lon="10.3242117"><ele>41.0</ele><time>2026-04-11T10:23:50.944Z</time></trkpt><trkpt lat="44.8395" lon="10.32439"><ele>41.0</ele><time>2026-04-11T10:23:51.944Z</time></trkpt><trkpt lat="44.839375" lon="10.324565"><ele>41.0</ele><time>2026-04-11T10:23:52.944Z</time></trkpt><trkpt lat="44.83925" lon="10.3247433"><ele>41.0</ele><time>2026-04-11T10:23:53.944Z</time></trkpt><trkpt lat="44.8391533" lon="10.3249283"><ele>41.0</ele><time>2026-04-11T10:23:54.944Z</time></trkpt><trkpt lat="44.8390617" lon="10.3251183"><ele>41.0</ele><time>2026-04-11T10:23:55.943Z</time></trkpt><trkpt lat="44.838975" lon="10.3253367"><ele>41.0</ele><time>2026-04-11T10:23:56.944Z</time></trkpt><trkpt lat="44.8388867" lon="10.3255483"><ele>41.0</ele><time>2026-04-11T10:23:57.943Z</time></trkpt><trkpt lat="44.838795" lon="10.3257583"><ele>41.0</ele><time>2026-04-11T10:23:58.944Z</time></trkpt><trkpt lat="44.83871" lon="10.325975"><ele>41.0</ele><time>2026-04-11T10:23:59.944Z</time></trkpt><trkpt lat="44.8386283" lon="10.326195"><ele>41.0</ele><time>2026-04-11T10:24:00.944Z</time></trkpt><trkpt lat="44.838565" lon="10.3264217"><ele>41.0</ele><time>2026-04-11T10:24:01.944Z</time></trkpt><trkpt lat="44.8385183" lon="10.3266517"><ele>40.666666666666664</ele><time>2026-04-11T10:24:02.944Z</time></trkpt><trkpt lat="44.8384767" lon="10.3268767"><ele>40.333333333333336</ele><time>2026-04-11T10:24:03.944Z</time></trkpt><trkpt lat="44.838435" lon="10.32709"><ele>40.0</ele><time>2026-04-11T10:24:04.944Z</time></trkpt><trkpt lat="44.8383983" lon="10.327305"><ele>40.0</ele><time>2026-04-11T10:24:05.944Z</time></trkpt><trkpt lat="44.8383733" lon="10.32751"><ele>40.0</ele><time>2026-04-11T10:24:06.944Z</time></trkpt><trkpt lat="44.83834" lon="10.327725"><ele>40.0</ele><time>2026-04-11T10:24:07.944Z</time></trkpt><trkpt lat="44.8383167" lon="10.3279517"><ele>40.0</ele><time>2026-04-11T10:24:08.944Z</time></trkpt><trkpt lat="44.83829" lon="10.3281833"><ele>40.0</ele><time>2026-04-11T10:24:09.943Z</time></trkpt><trkpt lat="44.8382683" lon="10.3284217"><ele>40.0</ele><time>2026-04-11T10:24:10.943Z</time></trkpt><trkpt lat="44.8382533" lon="10.328645"><ele>40.0</ele><time>2026-04-11T10:24:11.944Z</time></trkpt><trkpt lat="44.8382367" lon="10.328875"><ele>40.0</ele><time>2026-04-11T10:24:12.943Z</time></trkpt><trkpt lat="44.8382133" lon="10.3291133"><ele>40.0</ele><time>2026-04-11T10:24:13.944Z</time></trkpt><trkpt lat="44.8381967" lon="10.3293533"><ele>39.66666666666667</ele><time>2026-04-11T10:24:14.944Z</time></trkpt><trkpt lat="44.838185" lon="10.3295967"><ele>39.333333333333336</ele><time>2026-04-11T10:24:15.944Z</time></trkpt><trkpt lat="44.8381617" lon="10.3298483"><ele>39.0</ele><time>2026-04-11T10:24:16.944Z</time></trkpt><trkpt lat="44.8381317" lon="10.33009"><ele>38.666666666666664</ele><time>2026-04-11T10:24:17.944Z</time></trkpt><trkpt lat="44.8380983" lon="10.3303367"><ele>38.33333333333333</ele><time>2026-04-11T10:24:18.944Z</time></trkpt><trkpt lat="44.8380617" lon="10.3305867"><ele>38.0</ele><time>2026-04-11T10:24:19.943Z</time></trkpt><trkpt lat="44.83802" lon="10.3308383"><ele>38.0</ele><time>2026-04-11T10:24:20.944Z</time></trkpt><trkpt lat="44.8379767" lon="10.3310817"><ele>38.0</ele><time>2026-04-11T10:24:21.944Z</time></trkpt><trkpt lat="44.8379333" lon="10.3313183"><ele>38.0</ele><time>2026-04-11T10:24:22.944Z</time></trkpt><trkpt lat="44.837895" lon="10.3315367"><ele>38.25</ele><time>2026-04-11T10:24:23.944Z</time></trkpt><trkpt lat="44.8378717" lon="10.3317267"><ele>38.5</ele><time>2026-04-11T10:24:24.944Z</time></trkpt><trkpt lat="44.83786" lon="10.331915"><ele>38.75</ele><time>2026-04-11T10:24:25.944Z</time></trkpt><trkpt lat="44.837875" lon="10.3320983"><ele>39.0</ele><time>2026-04-11T10:24:26.944Z</time></trkpt><trkpt lat="44.8379133" lon="10.332285"><ele>39.0</ele><time>2026-04-11T10:24:27.944Z</time></trkpt><trkpt lat="44.83797" lon="10.3324767"><ele>39.0</ele><time>2026-04-11T10:24:28.944Z</time></trkpt><trkpt lat="44.8380417" lon="10.3326583"><ele>39.0</ele><time>2026-04-11T10:24:29.944Z</time></trkpt><trkpt lat="44.838105" lon="10.3328417"><ele>39.0</ele><time>2026-04-11T10:24:30.944Z</time></trkpt><trkpt lat="44.8381617" lon="10.3330183"><ele>39.25</ele><time>2026-04-11T10:24:31.944Z</time></trkpt><trkpt lat="44.8381967" lon="10.33318"><ele>39.5</ele><time>2026-04-11T10:24:32.944Z</time></trkpt><trkpt lat="44.8382083" lon="10.3333517"><ele>39.75</ele><time>2026-04-11T10:24:33.944Z</time></trkpt><trkpt lat="44.8381883" lon="10.3335267"><ele>40.0</ele><time>2026-04-11T10:24:34.944Z</time></trkpt><trkpt lat="44.83814" lon="10.3337083"><ele>40.0</ele><time>2026-04-11T10:24:35.944Z</time></trkpt><trkpt lat="44.8380867" lon="10.3338883"><ele>40.0</ele><time>2026-04-11T10:24:36.944Z</time></trkpt><trkpt lat="44.8380267" lon="10.3340617"><ele>40.0</ele><time>2026-04-11T10:24:37.944Z</time></trkpt><trkpt lat="44.8379667" lon="10.3342467"><ele>40.0</ele><time>2026-04-11T10:24:38.944Z</time></trkpt><trkpt lat="44.8379083" lon="10.3344433"><ele>40.0</ele><time>2026-04-11T10:24:39.944Z</time></trkpt><trkpt lat="44.83785" lon="10.3346317"><ele>40.0</ele><time>2026-04-11T10:24:40.944Z</time></trkpt><trkpt lat="44.83779" lon="10.3348233"><ele>40.0</ele><time>2026-04-11T10:24:41.944Z</time></trkpt><trkpt lat="44.8377167" lon="10.3350233"><ele>40.0</ele><time>2026-04-11T10:24:42.944Z</time></trkpt><trkpt lat="44.8376417" lon="10.3352183"><ele>40.0</ele><time>2026-04-11T10:24:43.944Z</time></trkpt><trkpt lat="44.8375767" lon="10.3354033"><ele>40.0</ele><time>2026-04-11T10:24:44.944Z</time></trkpt><trkpt lat="44.8375333" lon="10.3355883"><ele>40.0</ele><time>2026-04-11T10:24:45.944Z</time></trkpt><trkpt lat="44.8374817" lon="10.3357733"><ele>40.0</ele><time>2026-04-11T10:24:46.944Z</time></trkpt><trkpt lat="44.8374383" lon="10.3359433"><ele>40.0</ele><time>2026-04-11T10:24:47.944Z</time></trkpt><trkpt lat="44.837395" lon="10.33611"><ele>40.0</ele><time>2026-04-11T10:24:48.944Z</time></trkpt><trkpt lat="44.8373533" lon="10.33628"><ele>40.0</ele><time>2026-04-11T10:24:49.944Z</time></trkpt><trkpt lat="44.83732" lon="10.3364283"><ele>40.0</ele><time>2026-04-11T10:24:50.943Z</time></trkpt><trkpt lat="44.8372983" lon="10.33656"><ele>40.0</ele><time>2026-04-11T10:24:51.944Z</time></trkpt><trkpt lat="44.83727" lon="10.33667"><ele>40.0</ele><time>2026-04-11T10:24:52.943Z</time></trkpt><trkpt lat="44.8372383" lon="10.3367683"><ele>40.0</ele><time>2026-04-11T10:24:53.944Z</time></trkpt><trkpt lat="44.8372" lon="10.3368533"><ele>40.0</ele><time>2026-04-11T10:24:54.943Z</time></trkpt><trkpt lat="44.8371533" lon="10.3369167"><ele>40.0</ele><time>2026-04-11T10:24:55.944Z</time></trkpt><trkpt lat="44.8370317" lon="10.3369817"><ele>40.0</ele><time>2026-04-11T10:24:57.943Z</time></trkpt><trkpt lat="44.8369667" lon="10.3370033"><ele>40.0</ele><time>2026-04-11T10:24:58.944Z</time></trkpt><trkpt lat="44.8369283" lon="10.3371167"><ele>40.0</ele><time>2026-04-11T10:25:00.944Z</time></trkpt><trkpt lat="44.83694" lon="10.337205"><ele>40.0</ele><time>2026-04-11T10:25:01.944Z</time></trkpt><trkpt lat="44.836975" lon="10.33731"><ele>40.0</ele><time>2026-04-11T10:25:02.944Z</time></trkpt><trkpt lat="44.837025" lon="10.3374217"><ele>40.0</ele><time>2026-04-11T10:25:03.943Z</time></trkpt><trkpt lat="44.8370583" lon="10.3375283"><ele>40.16666666666667</ele><time>2026-04-11T10:25:04.944Z</time></trkpt><trkpt lat="44.83707" lon="10.337625"><ele>40.333333333333336</ele><time>2026-04-11T10:25:05.944Z</time></trkpt><trkpt lat="44.83706" lon="10.3377383"><ele>40.5</ele><time>2026-04-11T10:25:06.944Z</time></trkpt><trkpt lat="44.8370333" lon="10.3378617"><ele>40.666666666666664</ele><time>2026-04-11T10:25:07.944Z</time></trkpt><trkpt lat="44.8370067" lon="10.3379767"><ele>40.83333333333333</ele><time>2026-04-11T10:25:08.943Z</time></trkpt><trkpt lat="44.8369467" lon="10.3381083"><ele>41.0</ele><time>2026-04-11T10:25:09.944Z</time></trkpt><trkpt lat="44.8368667" lon="10.3382217"><ele>41.199999999999996</ele><time>2026-04-11T10:25:10.944Z</time></trkpt><trkpt lat="44.83678" lon="10.3383333"><ele>41.4</ele><time>2026-04-11T10:25:11.944Z</time></trkpt><trkpt lat="44.836695" lon="10.338425"><ele>41.6</ele><time>2026-04-11T10:25:12.944Z</time></trkpt><trkpt lat="44.8366283" lon="10.338485"><ele>41.8</ele><time>2026-04-11T10:25:13.944Z</time></trkpt><trkpt lat="44.8365467" lon="10.3384883"><ele>42.0</ele><time>2026-04-11T10:25:14.944Z</time></trkpt><trkpt lat="44.8364833" lon="10.338465"><ele>42.0</ele><time>2026-04-11T10:25:15.944Z</time></trkpt><trkpt lat="44.8364217" lon="10.3384117"><ele>42.0</ele><time>2026-04-11T10:25:16.944Z</time></trkpt><trkpt lat="44.8363533" lon="10.3383317"><ele>42.0</ele><time>2026-04-11T10:25:17.944Z</time></trkpt><trkpt lat="44.8362733" lon="10.338215"><ele>42.0</ele><time>2026-04-11T10:25:18.944Z</time></trkpt><trkpt lat="44.8361833" lon="10.3380833"><ele>42.0</ele><time>2026-04-11T10:25:19.944Z</time></trkpt><trkpt lat="44.836095" lon="10.3379617"><ele>41.8</ele><time>2026-04-11T10:25:20.944Z</time></trkpt><trkpt lat="44.8360167" lon="10.3378567"><ele>41.6</ele><time>2026-04-11T10:25:21.944Z</time></trkpt><trkpt lat="44.8359383" lon="10.3377833"><ele>41.4</ele><time>2026-04-11T10:25:22.944Z</time></trkpt><trkpt lat="44.8358583" lon="10.337725"><ele>41.199999999999996</ele><time>2026-04-11T10:25:23.944Z</time></trkpt><trkpt lat="44.83575" lon="10.3376983"><ele>41.0</ele><time>2026-04-11T10:25:24.944Z</time></trkpt><trkpt lat="44.835645" lon="10.337695"><ele>40.8</ele><time>2026-04-11T10:25:25.944Z</time></trkpt><trkpt lat="44.8355267" lon="10.33772"><ele>40.599999999999994</ele><time>2026-04-11T10:25:26.944Z</time></trkpt><trkpt lat="44.8354383" lon="10.337775"><ele>40.4</ele><time>2026-04-11T10:25:27.944Z</time></trkpt><trkpt lat="44.8353567" lon="10.3378567"><ele>40.2</ele><time>2026-04-11T10:25:28.944Z</time></trkpt><trkpt lat="44.8352767" lon="10.3379967"><ele>40.0</ele><time>2026-04-11T10:25:29.944Z</time></trkpt><trkpt lat="44.8352217" lon="10.338165"><ele>39.75</ele><time>2026-04-11T10:25:30.944Z</time></trkpt><trkpt lat="44.8351983" lon="10.3383333"><ele>39.5</ele><time>2026-04-11T10:25:31.944Z</time></trkpt><trkpt lat="44.8351933" lon="10.3385117"><ele>39.25</ele><time>2026-04-11T10:25:32.944Z</time></trkpt><trkpt lat="44.8352133" lon="10.3386833"><ele>39.0</ele><time>2026-04-11T10:25:33.944Z</time></trkpt><trkpt lat="44.8352483" lon="10.3388567"><ele>39.0</ele><time>2026-04-11T10:25:34.944Z</time></trkpt><trkpt lat="44.83531" lon="10.339015"><ele>39.0</ele><time>2026-04-11T10:25:35.943Z</time></trkpt><trkpt lat="44.8353967" lon="10.3391417"><ele>39.0</ele><time>2026-04-11T10:25:36.944Z</time></trkpt><trkpt lat="44.835485" lon="10.33926"><ele>39.0</ele><time>2026-04-11T10:25:37.944Z</time></trkpt><trkpt lat="44.83557" lon="10.33938"><ele>39.0</ele><time>2026-04-11T10:25:38.944Z</time></trkpt><trkpt lat="44.8356733" lon="10.339495"><ele>39.0</ele><time>2026-04-11T10:25:39.944Z</time></trkpt><trkpt lat="44.8357967" lon="10.3395867"><ele>39.0</ele><time>2026-04-11T10:25:40.944Z</time></trkpt><trkpt lat="44.8359233" lon="10.3396733"><ele>39.0</ele><time>2026-04-11T10:25:41.944Z</time></trkpt><trkpt lat="44.8360717" lon="10.3397333"><ele>39.5</ele><time>2026-04-11T10:25:42.943Z</time></trkpt><trkpt lat="44.8362067" lon="10.339795"><ele>40.0</ele><time>2026-04-11T10:25:43.944Z</time></trkpt><trkpt lat="44.8363383" lon="10.3398567"><ele>40.5</ele><time>2026-04-11T10:25:44.944Z</time></trkpt><trkpt lat="44.8364733" lon="10.33991"><ele>41.0</ele><time>2026-04-11T10:25:45.944Z</time></trkpt><trkpt lat="44.83661" lon="10.339955"><ele>41.0</ele><time>2026-04-11T10:25:46.944Z</time></trkpt><trkpt lat="44.8367567" lon="10.34"><ele>41.0</ele><time>2026-04-11T10:25:47.944Z</time></trkpt><trkpt lat="44.8369" lon="10.3400433"><ele>41.0</ele><time>2026-04-11T10:25:48.944Z</time></trkpt><trkpt lat="44.8370417" lon="10.3400933"><ele>41.0</ele><time>2026-04-11T10:25:49.944Z</time></trkpt><trkpt lat="44.837185" lon="10.3401317"><ele>41.0</ele><time>2026-04-11T10:25:50.944Z</time></trkpt><trkpt lat="44.8373267" lon="10.340125"><ele>41.0</ele><time>2026-04-11T10:25:51.944Z</time></trkpt><trkpt lat="44.837475" lon="10.3400667"><ele>41.0</ele><time>2026-04-11T10:25:52.944Z</time></trkpt><trkpt lat="44.8376117" lon="10.3399783"><ele>41.0</ele><time>2026-04-11T10:25:53.944Z</time></trkpt><trkpt lat="44.8377317" lon="10.3399517"><ele>40.5</ele><time>2026-04-11T10:25:54.944Z</time></trkpt><trkpt lat="44.83786" lon="10.339945"><ele>40.0</ele><time>2026-04-11T10:25:55.944Z</time></trkpt><trkpt lat="44.8380083" lon="10.3400033"><ele>39.5</ele><time>2026-04-11T10:25:56.944Z</time></trkpt><trkpt lat="44.8381583" lon="10.3400483"><ele>39.0</ele><time>2026-04-11T10:25:57.944Z</time></trkpt><trkpt lat="44.8383117" lon="10.3400817"><ele>39.0</ele><time>2026-04-11T10:25:58.943Z</time></trkpt><trkpt lat="44.838485" lon="10.3401333"><ele>39.0</ele><time>2026-04-11T10:25:59.944Z</time></trkpt><trkpt lat="44.83866" lon="10.340195"><ele>39.0</ele><time>2026-04-11T10:26:00.944Z</time></trkpt><trkpt lat="44.8388317" lon="10.3402717"><ele>39.0</ele><time>2026-04-11T10:26:01.944Z</time></trkpt><trkpt lat="44.8390033" lon="10.340345"><ele>39.0</ele><time>2026-04-11T10:26:02.944Z</time></trkpt><trkpt lat="44.8391767" lon="10.3404167"><ele>39.0</ele><time>2026-04-11T10:26:03.944Z</time></trkpt><trkpt lat="44.8393533" lon="10.3404983"><ele>39.333333333333336</ele><time>2026-04-11T10:26:04.943Z</time></trkpt><trkpt lat="44.8395367" lon="10.3405917"><ele>39.66666666666667</ele><time>2026-04-11T10:26:05.944Z</time></trkpt><trkpt lat="44.83972" lon="10.34068"><ele>40.0</ele><time>2026-04-11T10:26:06.944Z</time></trkpt><trkpt lat="44.8399033" lon="10.3407717"><ele>40.0</ele><time>2026-04-11T10:26:07.944Z</time></trkpt><trkpt lat="44.840085" lon="10.3408583"><ele>40.0</ele><time>2026-04-11T10:26:08.944Z</time></trkpt><trkpt lat="44.84025" lon="10.3409317"><ele>40.0</ele><time>2026-04-11T10:26:09.944Z</time></trkpt><trkpt lat="44.84041" lon="10.3409683"><ele>40.0</ele><time>2026-04-11T10:26:10.944Z</time></trkpt><trkpt lat="44.84058" lon="10.3409933"><ele>40.0</ele><time>2026-04-11T10:26:11.944Z</time></trkpt><trkpt lat="44.8407567" lon="10.34101"><ele>40.0</ele><time>2026-04-11T10:26:12.944Z</time></trkpt><trkpt lat="44.8409317" lon="10.3410083"><ele>39.333333333333336</ele><time>2026-04-11T10:26:13.944Z</time></trkpt><trkpt lat="44.8410983" lon="10.340995"><ele>38.666666666666664</ele><time>2026-04-11T10:26:14.944Z</time></trkpt><trkpt lat="44.841265" lon="10.3409567"><ele>38.0</ele><time>2026-04-11T10:26:15.944Z</time></trkpt><trkpt lat="44.8414233" lon="10.3409217"><ele>38.0</ele><time>2026-04-11T10:26:16.944Z</time></trkpt><trkpt lat="44.84156" lon="10.34088"><ele>38.0</ele><time>2026-04-11T10:26:17.944Z</time></trkpt><trkpt lat="44.841675" lon="10.3408383"><ele>38.0</ele><time>2026-04-11T10:26:18.943Z</time></trkpt><trkpt lat="44.8417767" lon="10.340795"><ele>38.0</ele><time>2026-04-11T10:26:19.944Z</time></trkpt><trkpt lat="44.84187" lon="10.3407767"><ele>38.33333333333333</ele><time>2026-04-11T10:26:20.944Z</time></trkpt><trkpt lat="44.8419583" lon="10.3407783"><ele>38.666666666666664</ele><time>2026-04-11T10:26:21.944Z</time></trkpt><trkpt lat="44.8420517" lon="10.3407983"><ele>39.0</ele><time>2026-04-11T10:26:22.943Z</time></trkpt><trkpt lat="44.8421417" lon="10.3408417"><ele>39.333333333333336</ele><time>2026-04-11T10:26:23.944Z</time></trkpt><trkpt lat="44.8422267" lon="10.3408933"><ele>39.66666666666667</ele><time>2026-04-11T10:26:24.944Z</time></trkpt><trkpt lat="44.8422967" lon="10.340935"><ele>40.0</ele><time>2026-04-11T10:26:25.944Z</time></trkpt><trkpt lat="44.8423617" lon="10.340945"><ele>40.0</ele><time>2026-04-11T10:26:26.944Z</time></trkpt><trkpt lat="44.842425" lon="10.340925"><ele>40.0</ele><time>2026-04-11T10:26:27.944Z</time></trkpt><trkpt lat="44.842485" lon="10.3408783"><ele>40.0</ele><time>2026-04-11T10:26:28.944Z</time></trkpt><trkpt lat="44.84254" lon="10.3407933"><ele>40.0</ele><time>2026-04-11T10:26:29.944Z</time></trkpt><trkpt lat="44.8425783" lon="10.3406917"><ele>40.0</ele><time>2026-04-11T10:26:30.943Z</time></trkpt><trkpt lat="44.84262" lon="10.340585"><ele>40.0</ele><time>2026-04-11T10:26:31.943Z</time></trkpt><trkpt lat="44.84267" lon="10.3404867"><ele>39.8</ele><time>2026-04-11T10:26:32.943Z</time></trkpt><trkpt lat="44.8427333" lon="10.3404117"><ele>39.6</ele><time>2026-04-11T10:26:33.943Z</time></trkpt><trkpt lat="44.842815" lon="10.3403533"><ele>39.4</ele><time>2026-04-11T10:26:34.943Z</time></trkpt><trkpt lat="44.8429067" lon="10.3403167"><ele>39.2</ele><time>2026-04-11T10:26:35.943Z</time></trkpt><trkpt lat="44.8430217" lon="10.34032"><ele>39.0</ele><time>2026-04-11T10:26:36.943Z</time></trkpt><trkpt lat="44.84314" lon="10.3403367"><ele>39.0</ele><time>2026-04-11T10:26:37.943Z</time></trkpt><trkpt lat="44.8432383" lon="10.340345"><ele>39.0</ele><time>2026-04-11T10:26:38.943Z</time></trkpt><trkpt lat="44.8433383" lon="10.340365"><ele>39.0</ele><time>2026-04-11T10:26:39.943Z</time></trkpt><trkpt lat="44.8434367" lon="10.3403833"><ele>39.0</ele><time>2026-04-11T10:26:40.942Z</time></trkpt><trkpt lat="44.84354" lon="10.34041"><ele>39.0</ele><time>2026-04-11T10:26:41.943Z</time></trkpt><trkpt lat="44.84366" lon="10.34044"><ele>38.75</ele><time>2026-04-11T10:26:42.943Z</time></trkpt><trkpt lat="44.8437733" lon="10.34046"><ele>38.5</ele><time>2026-04-11T10:26:43.943Z</time></trkpt><trkpt lat="44.8438933" lon="10.3404817"><ele>38.25</ele><time>2026-04-11T10:26:44.943Z</time></trkpt><trkpt lat="44.8440233" lon="10.3405033"><ele>38.0</ele><time>2026-04-11T10:26:45.943Z</time></trkpt><trkpt lat="44.84416" lon="10.3405283"><ele>38.0</ele><time>2026-04-11T10:26:46.943Z</time></trkpt><trkpt lat="44.8443" lon="10.34056"><ele>38.0</ele><time>2026-04-11T10:26:47.943Z</time></trkpt><trkpt lat="44.84444" lon="10.3405933"><ele>38.0</ele><time>2026-04-11T10:26:48.943Z</time></trkpt><trkpt lat="44.84459" lon="10.3406267"><ele>38.0</ele><time>2026-04-11T10:26:49.943Z</time></trkpt><trkpt lat="44.8447483" lon="10.3406583"><ele>38.0</ele><time>2026-04-11T10:26:50.943Z</time></trkpt><trkpt lat="44.84491" lon="10.340695"><ele>38.0</ele><time>2026-04-11T10:26:51.943Z</time></trkpt><trkpt lat="44.8450917" lon="10.34073"><ele>38.0</ele><time>2026-04-11T10:26:52.943Z</time></trkpt><trkpt lat="44.8452483" lon="10.3407717"><ele>38.5</ele><time>2026-04-11T10:26:53.943Z</time></trkpt><trkpt lat="44.8453933" lon="10.3408067"><ele>39.0</ele><time>2026-04-11T10:26:54.943Z</time></trkpt><trkpt lat="44.8455467" lon="10.3408317"><ele>39.5</ele><time>2026-04-11T10:26:55.943Z</time></trkpt><trkpt lat="44.8456667" lon="10.340855"><ele>40.0</ele><time>2026-04-11T10:26:56.943Z</time></trkpt><trkpt lat="44.8457883" lon="10.3408817"><ele>40.0</ele><time>2026-04-11T10:26:57.942Z</time></trkpt><trkpt lat="44.8459217" lon="10.3409067"><ele>40.0</ele><time>2026-04-11T10:26:58.943Z</time></trkpt><trkpt lat="44.8460533" lon="10.340945"><ele>40.0</ele><time>2026-04-11T10:26:59.943Z</time></trkpt><trkpt lat="44.8461867" lon="10.3409683"><ele>40.0</ele><time>2026-04-11T10:27:00.943Z</time></trkpt><trkpt lat="44.84632" lon="10.3409967"><ele>39.0</ele><time>2026-04-11T10:27:01.943Z</time></trkpt><trkpt lat="44.846455" lon="10.3410233"><ele>38.0</ele><time>2026-04-11T10:27:02.943Z</time></trkpt><trkpt lat="44.8465983" lon="10.341055"><ele>37.0</ele><time>2026-04-11T10:27:03.941Z</time></trkpt><trkpt lat="44.8467417" lon="10.3410683"><ele>36.0</ele><time>2026-04-11T10:27:04.943Z</time></trkpt><trkpt lat="44.8468767" lon="10.3410783"><ele>36.0</ele><time>2026-04-11T10:27:05.943Z</time></trkpt><trkpt lat="44.8469933" lon="10.34108"><ele>36.0</ele><time>2026-04-11T10:27:06.943Z</time></trkpt><trkpt lat="44.8470933" lon="10.3410883"><ele>36.0</ele><time>2026-04-11T10:27:07.943Z</time></trkpt><trkpt lat="44.8471767" lon="10.3410917"><ele>36.0</ele><time>2026-04-11T10:27:08.943Z</time></trkpt><trkpt lat="44.84726" lon="10.3411"><ele>36.0</ele><time>2026-04-11T10:27:09.943Z</time></trkpt><trkpt lat="44.84733" lon="10.34112"><ele>36.0</ele><time>2026-04-11T10:27:10.943Z</time></trkpt><trkpt lat="44.8474" lon="10.34113"><ele>36.0</ele><time>2026-04-11T10:27:11.943Z</time></trkpt><trkpt lat="44.8474783" lon="10.3411367"><ele>36.0</ele><time>2026-04-11T10:27:12.943Z</time></trkpt><trkpt lat="44.847595" lon="10.3411967"><ele>36.0</ele><time>2026-04-11T10:27:14.943Z</time></trkpt><trkpt lat="44.8476517" lon="10.3412733"><ele>36.0</ele><time>2026-04-11T10:27:15.942Z</time></trkpt><trkpt lat="44.8476967" lon="10.3413717"><ele>36.0</ele><time>2026-04-11T10:27:16.943Z</time></trkpt><trkpt lat="44.8477317" lon="10.3414817"><ele>36.2</ele><time>2026-04-11T10:27:17.942Z</time></trkpt><trkpt lat="44.8477433" lon="10.34159"><ele>36.400000000000006</ele><time>2026-04-11T10:27:18.943Z</time></trkpt><trkpt lat="44.8477283" lon="10.3416983"><ele>36.6</ele><time>2026-04-11T10:27:19.942Z</time></trkpt><trkpt lat="44.8477033" lon="10.3418317"><ele>36.800000000000004</ele><time>2026-04-11T10:27:20.943Z</time></trkpt><trkpt lat="44.84767" lon="10.3419833"><ele>37.0</ele><time>2026-04-11T10:27:21.943Z</time></trkpt><trkpt lat="44.8476367" lon="10.3421617"><ele>37.25</ele><time>2026-04-11T10:27:22.943Z</time></trkpt><trkpt lat="44.8475783" lon="10.3423467"><ele>37.5</ele><time>2026-04-11T10:27:23.943Z</time></trkpt><trkpt lat="44.8475233" lon="10.3425467"><ele>37.75</ele><time>2026-04-11T10:27:24.943Z</time></trkpt><trkpt lat="44.8474717" lon="10.3427283"><ele>38.0</ele><time>2026-04-11T10:27:25.943Z</time></trkpt><trkpt lat="44.8474133" lon="10.3429267"><ele>38.0</ele><time>2026-04-11T10:27:26.943Z</time></trkpt><trkpt lat="44.84736" lon="10.3431267"><ele>38.0</ele><time>2026-04-11T10:27:27.943Z</time></trkpt><trkpt lat="44.84731" lon="10.343345"><ele>38.0</ele><time>2026-04-11T10:27:28.943Z</time></trkpt><trkpt lat="44.84726" lon="10.34359"><ele>38.0</ele><time>2026-04-11T10:27:29.943Z</time></trkpt><trkpt lat="44.847215" lon="10.3438333"><ele>38.0</ele><time>2026-04-11T10:27:30.943Z</time></trkpt><trkpt lat="44.847175" lon="10.3440733"><ele>38.0</ele><time>2026-04-11T10:27:31.943Z</time></trkpt><trkpt lat="44.84714" lon="10.3442967"><ele>38.0</ele><time>2026-04-11T10:27:32.943Z</time></trkpt><trkpt lat="44.8471167" lon="10.3445183"><ele>38.0</ele><time>2026-04-11T10:27:33.943Z</time></trkpt><trkpt lat="44.84709" lon="10.3447333"><ele>38.0</ele><time>2026-04-11T10:27:34.943Z</time></trkpt><trkpt lat="44.8470733" lon="10.344965"><ele>38.33333333333333</ele><time>2026-04-11T10:27:35.943Z</time></trkpt><trkpt lat="44.8470467" lon="10.3452017"><ele>38.666666666666664</ele><time>2026-04-11T10:27:36.943Z</time></trkpt><trkpt lat="44.8470233" lon="10.3454267"><ele>39.0</ele><time>2026-04-11T10:27:37.943Z</time></trkpt><trkpt lat="44.846995" lon="10.3456283"><ele>39.0</ele><time>2026-04-11T10:27:38.943Z</time></trkpt><trkpt lat="44.84698" lon="10.3458083"><ele>39.0</ele><time>2026-04-11T10:27:39.943Z</time></trkpt><trkpt lat="44.84695" lon="10.3459533"><ele>39.0</ele><time>2026-04-11T10:27:40.943Z</time></trkpt><trkpt lat="44.8469067" lon="10.3460817"><ele>39.0</ele><time>2026-04-11T10:27:41.943Z</time></trkpt><trkpt lat="44.8468433" lon="10.3461867"><ele>39.0</ele><time>2026-04-11T10:27:42.942Z</time></trkpt><trkpt lat="44.846775" lon="10.346275"><ele>39.2</ele><time>2026-04-11T10:27:43.943Z</time></trkpt><trkpt lat="44.84671" lon="10.3463867"><ele>39.4</ele><time>2026-04-11T10:27:44.943Z</time></trkpt><trkpt lat="44.8466817" lon="10.34651"><ele>39.6</ele><time>2026-04-11T10:27:45.943Z</time></trkpt><trkpt lat="44.846675" lon="10.3466417"><ele>39.8</ele><time>2026-04-11T10:27:46.943Z</time></trkpt><trkpt lat="44.8466967" lon="10.3467833"><ele>40.0</ele><time>2026-04-11T10:27:47.943Z</time></trkpt><trkpt lat="44.8467283" lon="10.34693"><ele>40.0</ele><time>2026-04-11T10:27:48.943Z</time></trkpt><trkpt lat="44.8467533" lon="10.3471067"><ele>40.0</ele><time>2026-04-11T10:27:49.943Z</time></trkpt><trkpt lat="44.846735" lon="10.347285"><ele>40.0</ele><time>2026-04-11T10:27:50.943Z</time></trkpt><trkpt lat="44.8467067" lon="10.3474633"><ele>40.0</ele><time>2026-04-11T10:27:51.943Z</time></trkpt><trkpt lat="44.8466583" lon="10.3476683"><ele>40.333333333333336</ele><time>2026-04-11T10:27:52.943Z</time></trkpt><trkpt lat="44.8466033" lon="10.34788"><ele>40.666666666666664</ele><time>2026-04-11T10:27:53.943Z</time></trkpt><trkpt lat="44.8465517" lon="10.348105"><ele>41.0</ele><time>2026-04-11T10:27:54.943Z</time></trkpt><trkpt lat="44.8465017" lon="10.3483567"><ele>39.666666666666664</ele><time>2026-04-11T10:27:55.943Z</time></trkpt><trkpt lat="44.8464467" lon="10.3485983"><ele>38.333333333333336</ele><time>2026-04-11T10:27:56.943Z</time></trkpt><trkpt lat="44.846395" lon="10.3488333"><ele>37.0</ele><time>2026-04-11T10:27:57.942Z</time></trkpt><trkpt lat="44.8463383" lon="10.3490683"><ele>37.0</ele><time>2026-04-11T10:27:58.942Z</time></trkpt><trkpt lat="44.8462767" lon="10.349315"><ele>37.0</ele><time>2026-04-11T10:27:59.943Z</time></trkpt><trkpt lat="44.8462167" lon="10.3495483"><ele>37.0</ele><time>2026-04-11T10:28:00.943Z</time></trkpt><trkpt lat="44.84616" lon="10.34979"><ele>37.333333333333336</ele><time>2026-04-11T10:28:01.943Z</time></trkpt><trkpt lat="44.8461017" lon="10.3500217"><ele>37.666666666666664</ele><time>2026-04-11T10:28:02.943Z</time></trkpt><trkpt lat="44.846045" lon="10.3502617"><ele>38.0</ele><time>2026-04-11T10:28:03.943Z</time></trkpt><trkpt lat="44.8460067" lon="10.3505017"><ele>37.666666666666664</ele><time>2026-04-11T10:28:04.943Z</time></trkpt><trkpt lat="44.8459667" lon="10.35075"><ele>37.333333333333336</ele><time>2026-04-11T10:28:05.943Z</time></trkpt><trkpt lat="44.8459333" lon="10.351"><ele>37.0</ele><time>2026-04-11T10:28:06.943Z</time></trkpt><trkpt lat="44.8458967" lon="10.35127"><ele>36.333333333333336</ele><time>2026-04-11T10:28:07.943Z</time></trkpt><trkpt lat="44.845855" lon="10.3515467"><ele>35.666666666666664</ele><time>2026-04-11T10:28:08.943Z</time></trkpt><trkpt lat="44.84582" lon="10.3518067"><ele>35.0</ele><time>2026-04-11T10:28:09.943Z</time></trkpt><trkpt lat="44.8457867" lon="10.35206"><ele>34.0</ele><time>2026-04-11T10:28:10.943Z</time></trkpt><trkpt lat="44.8457533" lon="10.3523017"><ele>33.0</ele><time>2026-04-11T10:28:11.943Z</time></trkpt><trkpt lat="44.8457183" lon="10.3525383"><ele>32.0</ele><time>2026-04-11T10:28:12.943Z</time></trkpt><trkpt lat="44.8456783" lon="10.35276"><ele>32.0</ele><time>2026-04-11T10:28:13.943Z</time></trkpt><trkpt lat="44.8456317" lon="10.3529633"><ele>32.0</ele><time>2026-04-11T10:28:14.943Z</time></trkpt><trkpt lat="44.845585" lon="10.3531467"><ele>32.0</ele><time>2026-04-11T10:28:15.943Z</time></trkpt><trkpt lat="44.845535" lon="10.3533133"><ele>32.0</ele><time>2026-04-11T10:28:16.943Z</time></trkpt><trkpt lat="44.8455017" lon="10.35344"><ele>32.4</ele><time>2026-04-11T10:28:17.942Z</time></trkpt><trkpt lat="44.84547" lon="10.3535733"><ele>32.800000000000004</ele><time>2026-04-11T10:28:18.943Z</time></trkpt><trkpt lat="44.8454483" lon="10.3537133"><ele>33.2</ele><time>2026-04-11T10:28:19.943Z</time></trkpt><trkpt lat="44.8454267" lon="10.3538583"><ele>33.6</ele><time>2026-04-11T10:28:20.943Z</time></trkpt><trkpt lat="44.8454183" lon="10.3540333"><ele>34.0</ele><time>2026-04-11T10:28:21.943Z</time></trkpt><trkpt lat="44.8454167" lon="10.3542267"><ele>34.333333333333336</ele><time>2026-04-11T10:28:22.943Z</time></trkpt><trkpt lat="44.8454083" lon="10.3544367"><ele>34.666666666666664</ele><time>2026-04-11T10:28:23.943Z</time></trkpt><trkpt lat="44.8453867" lon="10.35465"><ele>35.0</ele><time>2026-04-11T10:28:24.943Z</time></trkpt><trkpt lat="44.8453783" lon="10.3548767"><ele>35.0</ele><time>2026-04-11T10:28:25.943Z</time></trkpt><trkpt lat="44.845355" lon="10.3551067"><ele>35.0</ele><time>2026-04-11T10:28:26.943Z</time></trkpt><trkpt lat="44.8453283" lon="10.3553317"><ele>35.0</ele><time>2026-04-11T10:28:27.943Z</time></trkpt><trkpt lat="44.845295" lon="10.3555383"><ele>35.5</ele><time>2026-04-11T10:28:28.943Z</time></trkpt><trkpt lat="44.8452717" lon="10.3557417"><ele>36.0</ele><time>2026-04-11T10:28:29.943Z</time></trkpt><trkpt lat="44.8452433" lon="10.3559433"><ele>36.5</ele><time>2026-04-11T10:28:30.943Z</time></trkpt><trkpt lat="44.8452167" lon="10.3561367"><ele>37.0</ele><time>2026-04-11T10:28:31.942Z</time></trkpt><trkpt lat="44.8451867" lon="10.35632"><ele>37.0</ele><time>2026-04-11T10:28:32.943Z</time></trkpt><trkpt lat="44.845155" lon="10.3565017"><ele>37.0</ele><time>2026-04-11T10:28:33.942Z</time></trkpt><trkpt lat="44.8451183" lon="10.3566917"><ele>37.0</ele><time>2026-04-11T10:28:34.943Z</time></trkpt><trkpt lat="44.84507" lon="10.3568533"><ele>37.0</ele><time>2026-04-11T10:28:35.943Z</time></trkpt><trkpt lat="44.84501" lon="10.357005"><ele>36.75</ele><time>2026-04-11T10:28:36.943Z</time></trkpt><trkpt lat="44.8449633" lon="10.3571617"><ele>36.5</ele><time>2026-04-11T10:28:37.943Z</time></trkpt><trkpt lat="44.84493" lon="10.3573217"><ele>36.25</ele><time>2026-04-11T10:28:38.943Z</time></trkpt><trkpt lat="44.8448917" lon="10.3575"><ele>36.0</ele><time>2026-04-11T10:28:39.943Z</time></trkpt><trkpt lat="44.8448517" lon="10.3576983"><ele>36.0</ele><time>2026-04-11T10:28:40.943Z</time></trkpt><trkpt lat="44.84483" lon="10.357905"><ele>36.0</ele><time>2026-04-11T10:28:41.943Z</time></trkpt><trkpt lat="44.8448283" lon="10.3581183"><ele>36.0</ele><time>2026-04-11T10:28:42.943Z</time></trkpt><trkpt lat="44.8448283" lon="10.35835"><ele>36.333333333333336</ele><time>2026-04-11T10:28:43.943Z</time></trkpt><trkpt lat="44.8448133" lon="10.358595"><ele>36.66666666666667</ele><time>2026-04-11T10:28:44.943Z</time></trkpt><trkpt lat="44.84478" lon="10.3588483"><ele>37.0</ele><time>2026-04-11T10:28:45.943Z</time></trkpt><trkpt lat="44.8447467" lon="10.35909"><ele>36.0</ele><time>2026-04-11T10:28:46.943Z</time></trkpt><trkpt lat="44.8447" lon="10.3593383"><ele>35.0</ele><time>2026-04-11T10:28:47.943Z</time></trkpt><trkpt lat="44.84466" lon="10.3595717"><ele>34.0</ele><time>2026-04-11T10:28:48.943Z</time></trkpt><trkpt lat="44.8446083" lon="10.35981"><ele>33.66666666666667</ele><time>2026-04-11T10:28:49.943Z</time></trkpt><trkpt lat="44.8445683" lon="10.360045"><ele>33.333333333333336</ele><time>2026-04-11T10:28:50.943Z</time></trkpt><trkpt lat="44.8445333" lon="10.36028"><ele>33.0</ele><time>2026-04-11T10:28:51.943Z</time></trkpt><trkpt lat="44.84449" lon="10.3605167"><ele>33.333333333333336</ele><time>2026-04-11T10:28:52.943Z</time></trkpt><trkpt lat="44.8444417" lon="10.3607567"><ele>33.66666666666667</ele><time>2026-04-11T10:28:53.943Z</time></trkpt><trkpt lat="44.8444" lon="10.361"><ele>34.0</ele><time>2026-04-11T10:28:54.943Z</time></trkpt><trkpt lat="44.84435" lon="10.3612483"><ele>34.333333333333336</ele><time>2026-04-11T10:28:55.943Z</time></trkpt><trkpt lat="44.8442983" lon="10.3614933"><ele>34.666666666666664</ele><time>2026-04-11T10:28:56.943Z</time></trkpt><trkpt lat="44.844255" lon="10.3617383"><ele>35.0</ele><time>2026-04-11T10:28:57.943Z</time></trkpt><trkpt lat="44.8442117" lon="10.3619817"><ele>34.33333333333333</ele><time>2026-04-11T10:28:58.943Z</time></trkpt><trkpt lat="44.8441733" lon="10.36222"><ele>33.666666666666664</ele><time>2026-04-11T10:28:59.943Z</time></trkpt><trkpt lat="44.8441283" lon="10.362445"><ele>33.0</ele><time>2026-04-11T10:29:00.943Z</time></trkpt><trkpt lat="44.844085" lon="10.3626517"><ele>33.0</ele><time>2026-04-11T10:29:01.943Z</time></trkpt><trkpt lat="44.844045" lon="10.3628533"><ele>33.0</ele><time>2026-04-11T10:29:02.943Z</time></trkpt><trkpt lat="44.8440067" lon="10.3630283"><ele>33.0</ele><time>2026-04-11T10:29:03.943Z</time></trkpt><trkpt lat="44.8439667" lon="10.3631883"><ele>33.0</ele><time>2026-04-11T10:29:04.943Z</time></trkpt><trkpt lat="44.8439117" lon="10.3633367"><ele>32.6</ele><time>2026-04-11T10:29:05.943Z</time></trkpt><trkpt lat="44.8438467" lon="10.3634633"><ele>32.199999999999996</ele><time>2026-04-11T10:29:06.943Z</time></trkpt><trkpt lat="44.8437733" lon="10.3635717"><ele>31.8</ele><time>2026-04-11T10:29:07.943Z</time></trkpt><trkpt lat="44.8437033" lon="10.3636633"><ele>31.4</ele><time>2026-04-11T10:29:08.943Z</time></trkpt><trkpt lat="44.843645" lon="10.3637633"><ele>31.0</ele><time>2026-04-11T10:29:09.943Z</time></trkpt><trkpt lat="44.8436117" lon="10.363865"><ele>31.8</ele><time>2026-04-11T10:29:10.943Z</time></trkpt><trkpt lat="44.8436567" lon="10.3640067"><ele>32.6</ele><time>2026-04-11T10:29:12.943Z</time></trkpt><trkpt lat="44.8437217" lon="10.3640617"><ele>33.4</ele><time>2026-04-11T10:29:13.943Z</time></trkpt><trkpt lat="44.8438117" lon="10.36408"><ele>34.2</ele><time>2026-04-11T10:29:14.943Z</time></trkpt><trkpt lat="44.8439217" lon="10.3640617"><ele>35.0</ele><time>2026-04-11T10:29:15.943Z</time></trkpt><trkpt lat="44.8440333" lon="10.3640383"><ele>35.0</ele><time>2026-04-11T10:29:16.943Z</time></trkpt><trkpt lat="44.8441533" lon="10.3640417"><ele>35.0</ele><time>2026-04-11T10:29:17.943Z</time></trkpt><trkpt lat="44.84429" lon="10.3640833"><ele>35.0</ele><time>2026-04-11T10:29:18.943Z</time></trkpt><trkpt lat="44.8444067" lon="10.3641283"><ele>35.0</ele><time>2026-04-11T10:29:19.942Z</time></trkpt><trkpt lat="44.8445283" lon="10.3641833"><ele>35.25</ele><time>2026-04-11T10:29:20.943Z</time></trkpt><trkpt lat="44.844665" lon="10.3642317"><ele>35.5</ele><time>2026-04-11T10:29:21.943Z</time></trkpt><trkpt lat="44.844795" lon="10.3642933"><ele>35.75</ele><time>2026-04-11T10:29:22.943Z</time></trkpt><trkpt lat="44.8449283" lon="10.364345"><ele>36.0</ele><time>2026-04-11T10:29:23.943Z</time></trkpt><trkpt lat="44.8450667" lon="10.3643817"><ele>36.333333333333336</ele><time>2026-04-11T10:29:24.943Z</time></trkpt><trkpt lat="44.8452083" lon="10.36446"><ele>36.66666666666667</ele><time>2026-04-11T10:29:25.943Z</time></trkpt><trkpt lat="44.84535" lon="10.3645083"><ele>37.0</ele><time>2026-04-11T10:29:26.943Z</time></trkpt><trkpt lat="44.8454933" lon="10.3645833"><ele>37.0</ele><time>2026-04-11T10:29:27.942Z</time></trkpt><trkpt lat="44.8456417" lon="10.3646433"><ele>37.0</ele><time>2026-04-11T10:29:28.942Z</time></trkpt><trkpt lat="44.8457833" lon="10.3647067"><ele>37.0</ele><time>2026-04-11T10:29:29.943Z</time></trkpt><trkpt lat="44.8460583" lon="10.36482"><ele>36.5</ele><time>2026-04-11T10:29:31.942Z</time></trkpt><trkpt lat="44.8461883" lon="10.3648817"><ele>36.0</ele><time>2026-04-11T10:29:32.943Z</time></trkpt><trkpt lat="44.8463233" lon="10.364935"><ele>35.5</ele><time>2026-04-11T10:29:33.943Z</time></trkpt><trkpt lat="44.8464667" lon="10.3649867"><ele>35.0</ele><time>2026-04-11T10:29:34.943Z</time></trkpt><trkpt lat="44.8466133" lon="10.3650383"><ele>35.0</ele><time>2026-04-11T10:29:35.943Z</time></trkpt><trkpt lat="44.8467483" lon="10.3651"><ele>35.0</ele><time>2026-04-11T10:29:36.943Z</time></trkpt><trkpt lat="44.8468767" lon="10.3651583"><ele>35.0</ele><time>2026-04-11T10:29:37.943Z</time></trkpt><trkpt lat="44.8469983" lon="10.3652"><ele>35.0</ele><time>2026-04-11T10:29:38.943Z</time></trkpt><trkpt lat="44.8471067" lon="10.365235"><ele>35.0</ele><time>2026-04-11T10:29:39.943Z</time></trkpt><trkpt lat="44.8472117" lon="10.365285"><ele>35.0</ele><time>2026-04-11T10:29:40.943Z</time></trkpt><trkpt lat="44.8473217" lon="10.3653233"><ele>35.0</ele><time>2026-04-11T10:29:41.943Z</time></trkpt><trkpt lat="44.8474433" lon="10.3653683"><ele>35.0</ele><time>2026-04-11T10:29:42.943Z</time></trkpt><trkpt lat="44.84756" lon="10.3654233"><ele>35.25</ele><time>2026-04-11T10:29:43.942Z</time></trkpt><trkpt lat="44.847685" lon="10.36548"><ele>35.5</ele><time>2026-04-11T10:29:44.942Z</time></trkpt><trkpt lat="44.84781" lon="10.3655217"><ele>35.75</ele><time>2026-04-11T10:29:45.942Z</time></trkpt><trkpt lat="44.8479433" lon="10.3655683"><ele>36.0</ele><time>2026-04-11T10:29:46.942Z</time></trkpt><trkpt lat="44.8480783" lon="10.3656117"><ele>36.0</ele><time>2026-04-11T10:29:47.942Z</time></trkpt><trkpt lat="44.848225" lon="10.3656683"><ele>36.0</ele><time>2026-04-11T10:29:48.942Z</time></trkpt><trkpt lat="44.8483633" lon="10.3657267"><ele>36.0</ele><time>2026-04-11T10:29:49.942Z</time></trkpt><trkpt lat="44.8485117" lon="10.36578"><ele>36.0</ele><time>2026-04-11T10:29:50.942Z</time></trkpt><trkpt lat="44.848665" lon="10.3658383"><ele>36.0</ele><time>2026-04-11T10:29:51.942Z</time></trkpt><trkpt lat="44.848815" lon="10.3658933"><ele>36.0</ele><time>2026-04-11T10:29:52.942Z</time></trkpt><trkpt lat="44.8489683" lon="10.3659467"><ele>36.0</ele><time>2026-04-11T10:29:53.941Z</time></trkpt><trkpt lat="44.8491217" lon="10.366005"><ele>36.0</ele><time>2026-04-11T10:29:54.942Z</time></trkpt><trkpt lat="44.8492733" lon="10.3660583"><ele>36.0</ele><time>2026-04-11T10:29:55.942Z</time></trkpt><trkpt lat="44.8494317" lon="10.3661167"><ele>34.666666666666664</ele><time>2026-04-11T10:29:56.942Z</time></trkpt><trkpt lat="44.849595" lon="10.366175"><ele>33.33333333333333</ele><time>2026-04-11T10:29:57.942Z</time></trkpt><trkpt lat="44.8497667" lon="10.36624"><ele>32.0</ele><time>2026-04-11T10:29:58.942Z</time></trkpt><trkpt lat="44.849935" lon="10.366305"><ele>31.666666666666664</ele><time>2026-04-11T10:29:59.942Z</time></trkpt><trkpt lat="44.850095" lon="10.36637"><ele>31.333333333333336</ele><time>2026-04-11T10:30:00.942Z</time></trkpt><trkpt lat="44.8502633" lon="10.3664417"><ele>31.0</ele><time>2026-04-11T10:30:01.942Z</time></trkpt><trkpt lat="44.8504333" lon="10.3664933"><ele>31.0</ele><time>2026-04-11T10:30:02.942Z</time></trkpt><trkpt lat="44.850605" lon="10.366545"><ele>31.0</ele><time>2026-04-11T10:30:03.942Z</time></trkpt><trkpt lat="44.8507683" lon="10.3666"><ele>31.0</ele><time>2026-04-11T10:30:04.942Z</time></trkpt><trkpt lat="44.8509367" lon="10.3666567"><ele>31.333333333333336</ele><time>2026-04-11T10:30:05.942Z</time></trkpt><trkpt lat="44.8510983" lon="10.3667117"><ele>31.666666666666664</ele><time>2026-04-11T10:30:06.942Z</time></trkpt><trkpt lat="44.85125" lon="10.3667667"><ele>32.0</ele><time>2026-04-11T10:30:07.942Z</time></trkpt><trkpt lat="44.8514133" lon="10.3668333"><ele>32.0</ele><time>2026-04-11T10:30:08.942Z</time></trkpt><trkpt lat="44.8515783" lon="10.3668917"><ele>32.0</ele><time>2026-04-11T10:30:09.942Z</time></trkpt><trkpt lat="44.8517467" lon="10.3669517"><ele>32.0</ele><time>2026-04-11T10:30:10.942Z</time></trkpt><trkpt lat="44.8519117" lon="10.3670133"><ele>31.666666666666664</ele><time>2026-04-11T10:30:11.942Z</time></trkpt><trkpt lat="44.852075" lon="10.367085"><ele>31.333333333333336</ele><time>2026-04-11T10:30:12.942Z</time></trkpt><trkpt lat="44.8522367" lon="10.367145"><ele>31.0</ele><time>2026-04-11T10:30:13.941Z</time></trkpt><trkpt lat="44.85238" lon="10.3671917"><ele>31.0</ele><time>2026-04-11T10:30:14.942Z</time></trkpt><trkpt lat="44.8525283" lon="10.3672567"><ele>31.0</ele><time>2026-04-11T10:30:15.942Z</time></trkpt><trkpt lat="44.852675" lon="10.3673083"><ele>31.0</ele><time>2026-04-11T10:30:16.942Z</time></trkpt><trkpt lat="44.8528267" lon="10.3673683"><ele>31.333333333333336</ele><time>2026-04-11T10:30:17.942Z</time></trkpt><trkpt lat="44.852975" lon="10.3674233"><ele>31.666666666666664</ele><time>2026-04-11T10:30:18.942Z</time></trkpt><trkpt lat="44.8531267" lon="10.3674867"><ele>32.0</ele><time>2026-04-11T10:30:19.942Z</time></trkpt><trkpt lat="44.853275" lon="10.3675583"><ele>32.0</ele><time>2026-04-11T10:30:20.941Z</time></trkpt><trkpt lat="44.8534267" lon="10.367625"><ele>32.0</ele><time>2026-04-11T10:30:21.942Z</time></trkpt><trkpt lat="44.853585" lon="10.3676983"><ele>32.0</ele><time>2026-04-11T10:30:22.942Z</time></trkpt><trkpt lat="44.8537417" lon="10.3677617"><ele>31.0</ele><time>2026-04-11T10:30:23.942Z</time></trkpt><trkpt lat="44.853905" lon="10.3678233"><ele>30.0</ele><time>2026-04-11T10:30:24.942Z</time></trkpt><trkpt lat="44.854065" lon="10.36788"><ele>29.0</ele><time>2026-04-11T10:30:25.942Z</time></trkpt><trkpt lat="44.8542267" lon="10.3679517"><ele>28.75</ele><time>2026-04-11T10:30:26.942Z</time></trkpt><trkpt lat="44.8543833" lon="10.3680217"><ele>28.5</ele><time>2026-04-11T10:30:27.942Z</time></trkpt><trkpt lat="44.85452" lon="10.36808"><ele>28.25</ele><time>2026-04-11T10:30:28.942Z</time></trkpt><trkpt lat="44.854645" lon="10.3681483"><ele>28.0</ele><time>2026-04-11T10:30:29.942Z</time></trkpt><trkpt lat="44.8547867" lon="10.3682083"><ele>28.666666666666668</ele><time>2026-04-11T10:30:30.942Z</time></trkpt><trkpt lat="44.8549267" lon="10.3682683"><ele>29.333333333333336</ele><time>2026-04-11T10:30:31.942Z</time></trkpt><trkpt lat="44.8550783" lon="10.368335"><ele>30.0</ele><time>2026-04-11T10:30:32.942Z</time></trkpt><trkpt lat="44.8552267" lon="10.3683933"><ele>30.333333333333336</ele><time>2026-04-11T10:30:33.942Z</time></trkpt><trkpt lat="44.85538" lon="10.3684617"><ele>30.666666666666668</ele><time>2026-04-11T10:30:34.942Z</time></trkpt><trkpt lat="44.8555317" lon="10.368535"><ele>31.0</ele><time>2026-04-11T10:30:35.942Z</time></trkpt><trkpt lat="44.8556917" lon="10.3686067"><ele>31.0</ele><time>2026-04-11T10:30:36.942Z</time></trkpt><trkpt lat="44.8558483" lon="10.3686767"><ele>31.0</ele><time>2026-04-11T10:30:37.942Z</time></trkpt><trkpt lat="44.856005" lon="10.3687433"><ele>31.0</ele><time>2026-04-11T10:30:38.941Z</time></trkpt><trkpt lat="44.856155" lon="10.368815"><ele>31.0</ele><time>2026-04-11T10:30:39.942Z</time></trkpt><trkpt lat="44.8562983" lon="10.36888"><ele>31.0</ele><time>2026-04-11T10:30:40.942Z</time></trkpt><trkpt lat="44.8564383" lon="10.3689417"><ele>31.0</ele><time>2026-04-11T10:30:41.942Z</time></trkpt><trkpt lat="44.856585" lon="10.36901"><ele>31.0</ele><time>2026-04-11T10:30:42.942Z</time></trkpt><trkpt lat="44.8567267" lon="10.3690717"><ele>31.0</ele><time>2026-04-11T10:30:43.942Z</time></trkpt><trkpt lat="44.8568583" lon="10.3691283"><ele>31.0</ele><time>2026-04-11T10:30:44.942Z</time></trkpt><trkpt lat="44.8569817" lon="10.36918"><ele>31.0</ele><time>2026-04-11T10:30:45.942Z</time></trkpt><trkpt lat="44.8571" lon="10.3692217"><ele>30.25</ele><time>2026-04-11T10:30:46.942Z</time></trkpt><trkpt lat="44.85722" lon="10.369275"><ele>29.5</ele><time>2026-04-11T10:30:47.942Z</time></trkpt><trkpt lat="44.8573433" lon="10.3693283"><ele>28.75</ele><time>2026-04-11T10:30:48.942Z</time></trkpt><trkpt lat="44.8574733" lon="10.3693867"><ele>28.0</ele><time>2026-04-11T10:30:49.942Z</time></trkpt><trkpt lat="44.8576117" lon="10.36944"><ele>29.0</ele><time>2026-04-11T10:30:50.942Z</time></trkpt><trkpt lat="44.85775" lon="10.3695"><ele>30.0</ele><time>2026-04-11T10:30:51.942Z</time></trkpt><trkpt lat="44.85789" lon="10.369565"><ele>31.0</ele><time>2026-04-11T10:30:52.942Z</time></trkpt><trkpt lat="44.8580217" lon="10.3696267"><ele>32.0</ele><time>2026-04-11T10:30:53.942Z</time></trkpt><trkpt lat="44.8581483" lon="10.3696883"><ele>32.0</ele><time>2026-04-11T10:30:54.942Z</time></trkpt><trkpt lat="44.8582683" lon="10.3697367"><ele>32.0</ele><time>2026-04-11T10:30:55.942Z</time></trkpt><trkpt lat="44.85838" lon="10.3697883"><ele>32.0</ele><time>2026-04-11T10:30:56.942Z</time></trkpt><trkpt lat="44.8584817" lon="10.3698367"><ele>32.0</ele><time>2026-04-11T10:30:57.942Z</time></trkpt><trkpt lat="44.8585867" lon="10.3698767"><ele>31.999999999999996</ele><time>2026-04-11T10:30:58.941Z</time></trkpt><trkpt lat="44.8586783" lon="10.3699083"><ele>32.0</ele><time>2026-04-11T10:30:59.942Z</time></trkpt><trkpt lat="44.8587633" lon="10.36995"><ele>32.0</ele><time>2026-04-11T10:31:00.942Z</time></trkpt><trkpt lat="44.8588383" lon="10.3699833"><ele>32.0</ele><time>2026-04-11T10:31:01.942Z</time></trkpt><trkpt lat="44.8589067" lon="10.3700083"><ele>31.999999999999996</ele><time>2026-04-11T10:31:02.942Z</time></trkpt><trkpt lat="44.8589983" lon="10.3700517"><ele>32.0</ele><time>2026-04-11T10:31:04.942Z</time></trkpt><trkpt lat="44.8590483" lon="10.370165"><ele>32.0</ele><time>2026-04-11T10:31:13.942Z</time></trkpt><trkpt lat="44.8590417" lon="10.3702567"><ele>32.0</ele><time>2026-04-11T10:31:14.942Z</time></trkpt><trkpt lat="44.859015" lon="10.370375"><ele>32.0</ele><time>2026-04-11T10:31:15.942Z</time></trkpt><trkpt lat="44.858985" lon="10.370505"><ele>32.0</ele><time>2026-04-11T10:31:16.942Z</time></trkpt><trkpt lat="44.85895" lon="10.3706433"><ele>32.0</ele><time>2026-04-11T10:31:17.942Z</time></trkpt><trkpt lat="44.858915" lon="10.3707867"><ele>32.0</ele><time>2026-04-11T10:31:18.942Z</time></trkpt><trkpt lat="44.85887" lon="10.370965"><ele>32.0</ele><time>2026-04-11T10:31:19.942Z</time></trkpt><trkpt lat="44.8588267" lon="10.3711433"><ele>32.0</ele><time>2026-04-11T10:31:20.942Z</time></trkpt><trkpt lat="44.8587817" lon="10.3713133"><ele>32.0</ele><time>2026-04-11T10:31:21.942Z</time></trkpt><trkpt lat="44.8587483" lon="10.3714667"><ele>31.6</ele><time>2026-04-11T10:31:22.942Z</time></trkpt><trkpt lat="44.8587217" lon="10.371605"><ele>31.200000000000003</ele><time>2026-04-11T10:31:23.942Z</time></trkpt><trkpt lat="44.858695" lon="10.3717317"><ele>30.8</ele><time>2026-04-11T10:31:24.942Z</time></trkpt><trkpt lat="44.8586717" lon="10.3718483"><ele>30.4</ele><time>2026-04-11T10:31:25.942Z</time></trkpt><trkpt lat="44.8586433" lon="10.3719633"><ele>30.0</ele><time>2026-04-11T10:31:26.942Z</time></trkpt><trkpt lat="44.8586133" lon="10.3720933"><ele>30.0</ele><time>2026-04-11T10:31:27.942Z</time></trkpt><trkpt lat="44.8585867" lon="10.3722283"><ele>30.0</ele><time>2026-04-11T10:31:28.942Z</time></trkpt><trkpt lat="44.8585533" lon="10.372375"><ele>30.0</ele><time>2026-04-11T10:31:29.942Z</time></trkpt><trkpt lat="44.85852" lon="10.372525"><ele>30.0</ele><time>2026-04-11T10:31:30.942Z</time></trkpt><trkpt lat="44.8584883" lon="10.372665"><ele>30.0</ele><time>2026-04-11T10:31:31.942Z</time></trkpt><trkpt lat="44.8584583" lon="10.3728117"><ele>30.6</ele><time>2026-04-11T10:31:32.942Z</time></trkpt><trkpt lat="44.8584317" lon="10.372955"><ele>31.2</ele><time>2026-04-11T10:31:33.942Z</time></trkpt><trkpt lat="44.8584017" lon="10.3730983"><ele>31.799999999999997</ele><time>2026-04-11T10:31:34.942Z</time></trkpt><trkpt lat="44.8583783" lon="10.3732383"><ele>32.4</ele><time>2026-04-11T10:31:35.942Z</time></trkpt><trkpt lat="44.858365" lon="10.3733767"><ele>33.0</ele><time>2026-04-11T10:31:36.941Z</time></trkpt><trkpt lat="44.858345" lon="10.373525"><ele>33.0</ele><time>2026-04-11T10:31:37.942Z</time></trkpt><trkpt lat="44.8583283" lon="10.3736783"><ele>33.0</ele><time>2026-04-11T10:31:38.942Z</time></trkpt><trkpt lat="44.85831" lon="10.3738383"><ele>33.0</ele><time>2026-04-11T10:31:39.942Z</time></trkpt><trkpt lat="44.858295" lon="10.3739883"><ele>33.0</ele><time>2026-04-11T10:31:40.942Z</time></trkpt><trkpt lat="44.858275" lon="10.3741367"><ele>33.0</ele><time>2026-04-11T10:31:41.942Z</time></trkpt><trkpt lat="44.8582483" lon="10.3742933"><ele>33.0</ele><time>2026-04-11T10:31:42.942Z</time></trkpt><trkpt lat="44.85822" lon="10.3744617"><ele>33.0</ele><time>2026-04-11T10:31:43.942Z</time></trkpt><trkpt lat="44.8581867" lon="10.37462"><ele>33.0</ele><time>2026-04-11T10:31:44.942Z</time></trkpt><trkpt lat="44.8581533" lon="10.3747717"><ele>33.0</ele><time>2026-04-11T10:31:45.942Z</time></trkpt><trkpt lat="44.8581017" lon="10.3749183"><ele>33.0</ele><time>2026-04-11T10:31:46.942Z</time></trkpt><trkpt lat="44.858055" lon="10.3750767"><ele>33.0</ele><time>2026-04-11T10:31:47.942Z</time></trkpt><trkpt lat="44.8580117" lon="10.3752233"><ele>33.0</ele><time>2026-04-11T10:31:48.941Z</time></trkpt><trkpt lat="44.857985" lon="10.3753633"><ele>33.0</ele><time>2026-04-11T10:31:49.942Z</time></trkpt><trkpt lat="44.8579533" lon="10.3755017"><ele>33.0</ele><time>2026-04-11T10:31:50.942Z</time></trkpt><trkpt lat="44.8579317" lon="10.3756367"><ele>33.0</ele><time>2026-04-11T10:31:51.942Z</time></trkpt><trkpt lat="44.85791" lon="10.3757633"><ele>33.0</ele><time>2026-04-11T10:31:52.942Z</time></trkpt><trkpt lat="44.8578833" lon="10.3758833"><ele>33.0</ele><time>2026-04-11T10:31:53.942Z</time></trkpt><trkpt lat="44.857865" lon="10.3759967"><ele>33.0</ele><time>2026-04-11T10:31:54.942Z</time></trkpt><trkpt lat="44.857845" lon="10.3761117"><ele>33.0</ele><time>2026-04-11T10:31:55.942Z</time></trkpt><trkpt lat="44.857825" lon="10.3762233"><ele>33.0</ele><time>2026-04-11T10:31:56.941Z</time></trkpt><trkpt lat="44.8578017" lon="10.3763467"><ele>32.75</ele><time>2026-04-11T10:31:57.941Z</time></trkpt><trkpt lat="44.85777" lon="10.376485"><ele>32.5</ele><time>2026-04-11T10:31:58.942Z</time></trkpt><trkpt lat="44.85773" lon="10.376635"><ele>32.25</ele><time>2026-04-11T10:31:59.942Z</time></trkpt><trkpt lat="44.8576917" lon="10.376795"><ele>32.0</ele><time>2026-04-11T10:32:00.942Z</time></trkpt><trkpt lat="44.857655" lon="10.3769583"><ele>32.0</ele><time>2026-04-11T10:32:01.942Z</time></trkpt><trkpt lat="44.8576183" lon="10.37712"><ele>32.0</ele><time>2026-04-11T10:32:02.942Z</time></trkpt><trkpt lat="44.8575883" lon="10.37728"><ele>32.0</ele><time>2026-04-11T10:32:03.941Z</time></trkpt><trkpt lat="44.857555" lon="10.3774333"><ele>32.0</ele><time>2026-04-11T10:32:04.941Z</time></trkpt><trkpt lat="44.857525" lon="10.3775733"><ele>31.833333333333332</ele><time>2026-04-11T10:32:05.942Z</time></trkpt><trkpt lat="44.8574917" lon="10.3777117"><ele>31.666666666666664</ele><time>2026-04-11T10:32:06.942Z</time></trkpt><trkpt lat="44.8574717" lon="10.3778417"><ele>31.5</ele><time>2026-04-11T10:32:07.942Z</time></trkpt><trkpt lat="44.8574517" lon="10.37796"><ele>31.333333333333336</ele><time>2026-04-11T10:32:08.942Z</time></trkpt><trkpt lat="44.857435" lon="10.3780717"><ele>31.166666666666668</ele><time>2026-04-11T10:32:09.942Z</time></trkpt><trkpt lat="44.8574167" lon="10.37817"><ele>31.0</ele><time>2026-04-11T10:32:10.941Z</time></trkpt><trkpt lat="44.857375" lon="10.3783167"><ele>30.833333333333336</ele><time>2026-04-11T10:32:12.942Z</time></trkpt><trkpt lat="44.857335" lon="10.37839"><ele>30.666666666666668</ele><time>2026-04-11T10:32:15.942Z</time></trkpt><trkpt lat="44.8572833" lon="10.3784917"><ele>30.5</ele><time>2026-04-11T10:32:18.942Z</time></trkpt><trkpt lat="44.8572483" lon="10.37858"><ele>30.333333333333336</ele><time>2026-04-11T10:32:20.942Z</time></trkpt><trkpt lat="44.857275" lon="10.3787033"><ele>30.166666666666668</ele><time>2026-04-11T10:32:22.942Z</time></trkpt><trkpt lat="44.857375" lon="10.37878"><ele>30.0</ele><time>2026-04-11T10:32:24.942Z</time></trkpt><trkpt lat="44.8574417" lon="10.3788067"><ele>30.0</ele><time>2026-04-11T10:32:25.942Z</time></trkpt><trkpt lat="44.8575133" lon="10.3788317"><ele>30.0</ele><time>2026-04-11T10:32:26.942Z</time></trkpt><trkpt lat="44.8575967" lon="10.3788783"><ele>30.0</ele><time>2026-04-11T10:32:27.942Z</time></trkpt><trkpt lat="44.8576867" lon="10.3789433"><ele>30.0</ele><time>2026-04-11T10:32:28.941Z</time></trkpt><trkpt lat="44.857795" lon="10.3790117"><ele>30.0</ele><time>2026-04-11T10:32:29.942Z</time></trkpt><trkpt lat="44.8579167" lon="10.37907"><ele>30.5</ele><time>2026-04-11T10:32:30.942Z</time></trkpt><trkpt lat="44.8580333" lon="10.3791233"><ele>31.0</ele><time>2026-04-11T10:32:31.941Z</time></trkpt><trkpt lat="44.85816" lon="10.3791783"><ele>31.5</ele><time>2026-04-11T10:32:32.942Z</time></trkpt><trkpt lat="44.8582667" lon="10.379225"><ele>32.0</ele><time>2026-04-11T10:32:33.941Z</time></trkpt><trkpt lat="44.8583967" lon="10.3792867"><ele>31.333333333333332</ele><time>2026-04-11T10:32:34.942Z</time></trkpt><trkpt lat="44.85854" lon="10.3793383"><ele>30.666666666666664</ele><time>2026-04-11T10:32:35.942Z</time></trkpt><trkpt lat="44.8586883" lon="10.3793967"><ele>30.0</ele><time>2026-04-11T10:32:36.942Z</time></trkpt><trkpt lat="44.8588433" lon="10.3794567"><ele>30.0</ele><time>2026-04-11T10:32:37.942Z</time></trkpt><trkpt lat="44.8589833" lon="10.37952"><ele>30.0</ele><time>2026-04-11T10:32:38.942Z</time></trkpt><trkpt lat="44.8591317" lon="10.3795833"><ele>30.0</ele><time>2026-04-11T10:32:39.942Z</time></trkpt><trkpt lat="44.85928" lon="10.3796567"><ele>30.333333333333336</ele><time>2026-04-11T10:32:40.942Z</time></trkpt><trkpt lat="44.8594217" lon="10.37972"><ele>30.666666666666668</ele><time>2026-04-11T10:32:41.942Z</time></trkpt><trkpt lat="44.85957" lon="10.3797767"><ele>31.0</ele><time>2026-04-11T10:32:42.942Z</time></trkpt><trkpt lat="44.8597133" lon="10.37984"><ele>31.0</ele><time>2026-04-11T10:32:43.941Z</time></trkpt><trkpt lat="44.8598317" lon="10.3798833"><ele>31.0</ele><time>2026-04-11T10:32:44.942Z</time></trkpt><trkpt lat="44.859955" lon="10.379935"><ele>31.0</ele><time>2026-04-11T10:32:45.942Z</time></trkpt><trkpt lat="44.8600733" lon="10.3799783"><ele>31.0</ele><time>2026-04-11T10:32:46.942Z</time></trkpt><trkpt lat="44.86018" lon="10.380025"><ele>31.000000000000004</ele><time>2026-04-11T10:32:47.942Z</time></trkpt><trkpt lat="44.86027" lon="10.3800683"><ele>31.0</ele><time>2026-04-11T10:32:48.942Z</time></trkpt><trkpt lat="44.8603517" lon="10.3801233"><ele>31.0</ele><time>2026-04-11T10:32:49.942Z</time></trkpt><trkpt lat="44.8604167" lon="10.3801917"><ele>31.0</ele><time>2026-04-11T10:32:50.941Z</time></trkpt><trkpt lat="44.8604767" lon="10.3802783"><ele>31.000000000000004</ele><time>2026-04-11T10:32:51.941Z</time></trkpt><trkpt lat="44.8605167" lon="10.3803783"><ele>31.0</ele><time>2026-04-11T10:32:52.941Z</time></trkpt><trkpt lat="44.8605567" lon="10.3804667"><ele>31.0</ele><time>2026-04-11T10:32:53.941Z</time></trkpt><trkpt lat="44.8606617" lon="10.3805517"><ele>31.0</ele><time>2026-04-11T10:32:55.941Z</time></trkpt><trkpt lat="44.8607917" lon="10.3804967"><ele>31.0</ele><time>2026-04-11T10:32:57.941Z</time></trkpt><trkpt lat="44.86087" lon="10.3804483"><ele>31.0</ele><time>2026-04-11T10:32:58.941Z</time></trkpt><trkpt lat="44.86096" lon="10.3804067"><ele>31.0</ele><time>2026-04-11T10:32:59.941Z</time></trkpt><trkpt lat="44.8610617" lon="10.3804017"><ele>30.75</ele><time>2026-04-11T10:33:00.941Z</time></trkpt><trkpt lat="44.86117" lon="10.3804233"><ele>30.5</ele><time>2026-04-11T10:33:01.941Z</time></trkpt><trkpt lat="44.86128" lon="10.3804633"><ele>30.25</ele><time>2026-04-11T10:33:02.941Z</time></trkpt><trkpt lat="44.8614083" lon="10.3805183"><ele>30.0</ele><time>2026-04-11T10:33:03.941Z</time></trkpt><trkpt lat="44.8615317" lon="10.38057"><ele>30.0</ele><time>2026-04-11T10:33:04.941Z</time></trkpt><trkpt lat="44.86166" lon="10.3806283"><ele>30.0</ele><time>2026-04-11T10:33:05.941Z</time></trkpt><trkpt lat="44.8617867" lon="10.3806783"><ele>30.0</ele><time>2026-04-11T10:33:06.941Z</time></trkpt><trkpt lat="44.861925" lon="10.3807367"><ele>30.0</ele><time>2026-04-11T10:33:07.941Z</time></trkpt><trkpt lat="44.8620617" lon="10.380795"><ele>30.0</ele><time>2026-04-11T10:33:08.941Z</time></trkpt><trkpt lat="44.862205" lon="10.380845"><ele>30.0</ele><time>2026-04-11T10:33:09.94Z</time></trkpt><trkpt lat="44.8623633" lon="10.3809017"><ele>30.0</ele><time>2026-04-11T10:33:10.941Z</time></trkpt><trkpt lat="44.8625217" lon="10.3809717"><ele>30.333333333333336</ele><time>2026-04-11T10:33:11.941Z</time></trkpt><trkpt lat="44.8626717" lon="10.3810333"><ele>30.666666666666668</ele><time>2026-04-11T10:33:12.941Z</time></trkpt><trkpt lat="44.862815" lon="10.381095"><ele>31.0</ele><time>2026-04-11T10:33:13.941Z</time></trkpt><trkpt lat="44.862955" lon="10.3811533"><ele>31.0</ele><time>2026-04-11T10:33:14.941Z</time></trkpt><trkpt lat="44.8630883" lon="10.381215"><ele>31.0</ele><time>2026-04-11T10:33:15.941Z</time></trkpt><trkpt lat="44.8632333" lon="10.3812733"><ele>31.0</ele><time>2026-04-11T10:33:16.941Z</time></trkpt><trkpt lat="44.8633783" lon="10.3813333"><ele>31.0</ele><time>2026-04-11T10:33:17.941Z</time></trkpt><trkpt lat="44.8635233" lon="10.381395"><ele>31.0</ele><time>2026-04-11T10:33:18.941Z</time></trkpt><trkpt lat="44.8636817" lon="10.38145"><ele>31.0</ele><time>2026-04-11T10:33:19.941Z</time></trkpt><trkpt lat="44.8638383" lon="10.3814983"><ele>31.0</ele><time>2026-04-11T10:33:20.941Z</time></trkpt><trkpt lat="44.8639883" lon="10.381555"><ele>31.0</ele><time>2026-04-11T10:33:21.941Z</time></trkpt><trkpt lat="44.8641433" lon="10.3816217"><ele>31.0</ele><time>2026-04-11T10:33:22.941Z</time></trkpt><trkpt lat="44.8643033" lon="10.3816933"><ele>31.0</ele><time>2026-04-11T10:33:23.941Z</time></trkpt><trkpt lat="44.8644533" lon="10.3817583"><ele>30.0</ele><time>2026-04-11T10:33:24.941Z</time></trkpt><trkpt lat="44.8645967" lon="10.3818183"><ele>29.0</ele><time>2026-04-11T10:33:25.941Z</time></trkpt><trkpt lat="44.8647433" lon="10.3818783"><ele>28.0</ele><time>2026-04-11T10:33:26.941Z</time></trkpt><trkpt lat="44.86489" lon="10.3819367"><ele>28.0</ele><time>2026-04-11T10:33:27.941Z</time></trkpt><trkpt lat="44.8650367" lon="10.381995"><ele>28.0</ele><time>2026-04-11T10:33:28.941Z</time></trkpt><trkpt lat="44.86519" lon="10.3820517"><ele>28.0</ele><time>2026-04-11T10:33:29.941Z</time></trkpt><trkpt lat="44.8653417" lon="10.3821133"><ele>28.0</ele><time>2026-04-11T10:33:30.941Z</time></trkpt><trkpt lat="44.8654817" lon="10.382165"><ele>28.0</ele><time>2026-04-11T10:33:31.941Z</time></trkpt><trkpt lat="44.865625" lon="10.3822183"><ele>28.0</ele><time>2026-04-11T10:33:32.941Z</time></trkpt><trkpt lat="44.8657767" lon="10.38227"><ele>28.0</ele><time>2026-04-11T10:33:33.941Z</time></trkpt><trkpt lat="44.8659317" lon="10.3823167"><ele>27.666666666666668</ele><time>2026-04-11T10:33:34.941Z</time></trkpt><trkpt lat="44.8660933" lon="10.3823633"><ele>27.333333333333336</ele><time>2026-04-11T10:33:35.941Z</time></trkpt><trkpt lat="44.8662467" lon="10.3824117"><ele>27.0</ele><time>2026-04-11T10:33:36.941Z</time></trkpt><trkpt lat="44.8664067" lon="10.3824667"><ele>27.0</ele><time>2026-04-11T10:33:37.941Z</time></trkpt><trkpt lat="44.8665717" lon="10.3825217"><ele>27.0</ele><time>2026-04-11T10:33:38.941Z</time></trkpt><trkpt lat="44.8667433" lon="10.382585"><ele>27.0</ele><time>2026-04-11T10:33:39.941Z</time></trkpt><trkpt lat="44.866915" lon="10.3826483"><ele>27.0</ele><time>2026-04-11T10:33:40.941Z</time></trkpt><trkpt lat="44.8670883" lon="10.3827167"><ele>27.0</ele><time>2026-04-11T10:33:41.94Z</time></trkpt><trkpt lat="44.867255" lon="10.382785"><ele>27.0</ele><time>2026-04-11T10:33:42.941Z</time></trkpt><trkpt lat="44.867425" lon="10.3828517"><ele>27.0</ele><time>2026-04-11T10:33:43.941Z</time></trkpt><trkpt lat="44.86759" lon="10.3829267"><ele>27.0</ele><time>2026-04-11T10:33:44.94Z</time></trkpt><trkpt lat="44.8677617" lon="10.3830067"><ele>27.0</ele><time>2026-04-11T10:33:45.941Z</time></trkpt><trkpt lat="44.8679317" lon="10.3830833"><ele>28.0</ele><time>2026-04-11T10:33:46.941Z</time></trkpt><trkpt lat="44.8681" lon="10.3831617"><ele>29.0</ele><time>2026-04-11T10:33:47.941Z</time></trkpt><trkpt lat="44.8682683" lon="10.3832333"><ele>30.0</ele><time>2026-04-11T10:33:48.941Z</time></trkpt><trkpt lat="44.8684367" lon="10.3833067"><ele>29.333333333333336</ele><time>2026-04-11T10:33:49.941Z</time></trkpt><trkpt lat="44.8685883" lon="10.38338"><ele>28.666666666666668</ele><time>2026-04-11T10:33:50.941Z</time></trkpt><trkpt lat="44.8687383" lon="10.3834383"><ele>28.0</ele><time>2026-04-11T10:33:51.941Z</time></trkpt><trkpt lat="44.8688733" lon="10.3835067"><ele>28.0</ele><time>2026-04-11T10:33:52.941Z</time></trkpt><trkpt lat="44.8689917" lon="10.38361"><ele>28.0</ele><time>2026-04-11T10:33:53.94Z</time></trkpt><trkpt lat="44.8690883" lon="10.3837283"><ele>28.0</ele><time>2026-04-11T10:33:54.941Z</time></trkpt><trkpt lat="44.8691733" lon="10.3838783"><ele>28.0</ele><time>2026-04-11T10:33:55.941Z</time></trkpt><trkpt lat="44.8692333" lon="10.3840517"><ele>27.75</ele><time>2026-04-11T10:33:56.941Z</time></trkpt><trkpt lat="44.86929" lon="10.3842383"><ele>27.5</ele><time>2026-04-11T10:33:57.941Z</time></trkpt><trkpt lat="44.8693367" lon="10.3844283"><ele>27.25</ele><time>2026-04-11T10:33:58.941Z</time></trkpt><trkpt lat="44.8693567" lon="10.3846367"><ele>27.0</ele><time>2026-04-11T10:33:59.94Z</time></trkpt><trkpt lat="44.869355" lon="10.3848517"><ele>27.0</ele><time>2026-04-11T10:34:00.941Z</time></trkpt><trkpt lat="44.8693533" lon="10.3850683"><ele>27.0</ele><time>2026-04-11T10:34:01.941Z</time></trkpt><trkpt lat="44.8693533" lon="10.3852733"><ele>27.0</ele><time>2026-04-11T10:34:02.94Z</time></trkpt><trkpt lat="44.8693517" lon="10.3854733"><ele>27.0</ele><time>2026-04-11T10:34:03.941Z</time></trkpt><trkpt lat="44.8693533" lon="10.385655"><ele>27.75</ele><time>2026-04-11T10:34:04.941Z</time></trkpt><trkpt lat="44.8693567" lon="10.3858317"><ele>28.5</ele><time>2026-04-11T10:34:05.941Z</time></trkpt><trkpt lat="44.86938" lon="10.3860033"><ele>29.25</ele><time>2026-04-11T10:34:06.941Z</time></trkpt><trkpt lat="44.8694183" lon="10.3861733"><ele>30.0</ele><time>2026-04-11T10:34:07.941Z</time></trkpt><trkpt lat="44.8694733" lon="10.3863483"><ele>30.25</ele><time>2026-04-11T10:34:08.941Z</time></trkpt><trkpt lat="44.86955" lon="10.3865117"><ele>30.5</ele><time>2026-04-11T10:34:09.941Z</time></trkpt><trkpt lat="44.86964" lon="10.386645"><ele>30.75</ele><time>2026-04-11T10:34:10.941Z</time></trkpt><trkpt lat="44.8697583" lon="10.386765"><ele>31.0</ele><time>2026-04-11T10:34:11.941Z</time></trkpt><trkpt lat="44.869885" lon="10.38687"><ele>31.0</ele><time>2026-04-11T10:34:12.941Z</time></trkpt><trkpt lat="44.8700167" lon="10.3869683"><ele>31.0</ele><time>2026-04-11T10:34:13.941Z</time></trkpt><trkpt lat="44.870155" lon="10.38705"><ele>31.0</ele><time>2026-04-11T10:34:14.941Z</time></trkpt><trkpt lat="44.8703017" lon="10.3871367"><ele>30.333333333333336</ele><time>2026-04-11T10:34:15.94Z</time></trkpt><trkpt lat="44.8704567" lon="10.3872367"><ele>29.666666666666664</ele><time>2026-04-11T10:34:16.941Z</time></trkpt><trkpt lat="44.8706083" lon="10.3873267"><ele>29.0</ele><time>2026-04-11T10:34:17.941Z</time></trkpt><trkpt lat="44.8707467" lon="10.3874183"><ele>29.0</ele><time>2026-04-11T10:34:18.941Z</time></trkpt><trkpt lat="44.8708867" lon="10.3875067"><ele>29.0</ele><time>2026-04-11T10:34:19.941Z</time></trkpt><trkpt lat="44.8710333" lon="10.3876033"><ele>29.0</ele><time>2026-04-11T10:34:20.941Z</time></trkpt><trkpt lat="44.8711817" lon="10.3876933"><ele>28.333333333333332</ele><time>2026-04-11T10:34:21.941Z</time></trkpt><trkpt lat="44.87133" lon="10.38778"><ele>27.666666666666664</ele><time>2026-04-11T10:34:22.941Z</time></trkpt><trkpt lat="44.8714833" lon="10.3878733"><ele>27.0</ele><time>2026-04-11T10:34:23.941Z</time></trkpt><trkpt lat="44.87164" lon="10.38796"><ele>27.666666666666664</ele><time>2026-04-11T10:34:24.941Z</time></trkpt><trkpt lat="44.8717933" lon="10.3880483"><ele>28.333333333333332</ele><time>2026-04-11T10:34:25.941Z</time></trkpt><trkpt lat="44.8719483" lon="10.3881467"><ele>29.0</ele><time>2026-04-11T10:34:26.941Z</time></trkpt><trkpt lat="44.8721033" lon="10.38825"><ele>29.0</ele><time>2026-04-11T10:34:27.941Z</time></trkpt><trkpt lat="44.8722517" lon="10.3883483"><ele>29.0</ele><time>2026-04-11T10:34:28.941Z</time></trkpt><trkpt lat="44.8723967" lon="10.38844"><ele>29.0</ele><time>2026-04-11T10:34:29.941Z</time></trkpt><trkpt lat="44.8725533" lon="10.3885383"><ele>29.0</ele><time>2026-04-11T10:34:30.941Z</time></trkpt><trkpt lat="44.8727117" lon="10.3886333"><ele>29.0</ele><time>2026-04-11T10:34:31.941Z</time></trkpt><trkpt lat="44.87286" lon="10.3887283"><ele>29.0</ele><time>2026-04-11T10:34:32.94Z</time></trkpt><trkpt lat="44.8730217" lon="10.3888217"><ele>29.0</ele><time>2026-04-11T10:34:33.941Z</time></trkpt><trkpt lat="44.87317" lon="10.38892"><ele>29.0</ele><time>2026-04-11T10:34:34.941Z</time></trkpt><trkpt lat="44.8733067" lon="10.3890067"><ele>29.0</ele><time>2026-04-11T10:34:35.941Z</time></trkpt><trkpt lat="44.8734433" lon="10.3890933"><ele>29.0</ele><time>2026-04-11T10:34:36.941Z</time></trkpt><trkpt lat="44.8735833" lon="10.3891867"><ele>29.0</ele><time>2026-04-11T10:34:37.941Z</time></trkpt><trkpt lat="44.8737217" lon="10.389265"><ele>29.0</ele><time>2026-04-11T10:34:38.941Z</time></trkpt><trkpt lat="44.8738567" lon="10.389345"><ele>29.0</ele><time>2026-04-11T10:34:39.941Z</time></trkpt><trkpt lat="44.8739933" lon="10.3894283"><ele>29.0</ele><time>2026-04-11T10:34:40.941Z</time></trkpt><trkpt lat="44.87413" lon="10.389515"><ele>29.0</ele><time>2026-04-11T10:34:41.941Z</time></trkpt><trkpt lat="44.8742633" lon="10.3896033"><ele>29.0</ele><time>2026-04-11T10:34:42.941Z</time></trkpt><trkpt lat="44.8743967" lon="10.3896833"><ele>28.666666666666664</ele><time>2026-04-11T10:34:43.941Z</time></trkpt><trkpt lat="44.8745333" lon="10.3897683"><ele>28.333333333333336</ele><time>2026-04-11T10:34:44.941Z</time></trkpt><trkpt lat="44.8746733" lon="10.3898483"><ele>28.0</ele><time>2026-04-11T10:34:45.941Z</time></trkpt><trkpt lat="44.8748133" lon="10.38994"><ele>28.0</ele><time>2026-04-11T10:34:46.941Z</time></trkpt><trkpt lat="44.8749567" lon="10.3900317"><ele>28.0</ele><time>2026-04-11T10:34:47.941Z</time></trkpt><trkpt lat="44.8750983" lon="10.3901167"><ele>28.0</ele><time>2026-04-11T10:34:48.941Z</time></trkpt><trkpt lat="44.8752383" lon="10.3901983"><ele>27.666666666666668</ele><time>2026-04-11T10:34:49.94Z</time></trkpt><trkpt lat="44.8753733" lon="10.3902867"><ele>27.333333333333336</ele><time>2026-04-11T10:34:50.941Z</time></trkpt><trkpt lat="44.8755183" lon="10.39038"><ele>27.0</ele><time>2026-04-11T10:34:51.941Z</time></trkpt><trkpt lat="44.8756583" lon="10.3904667"><ele>27.333333333333336</ele><time>2026-04-11T10:34:52.941Z</time></trkpt><trkpt lat="44.875805" lon="10.390565"><ele>27.666666666666668</ele><time>2026-04-11T10:34:53.941Z</time></trkpt><trkpt lat="44.87595" lon="10.3906483"><ele>28.0</ele><time>2026-04-11T10:34:54.941Z</time></trkpt><trkpt lat="44.8760917" lon="10.3907383"><ele>27.333333333333336</ele><time>2026-04-11T10:34:55.941Z</time></trkpt><trkpt lat="44.8762467" lon="10.39083"><ele>26.666666666666664</ele><time>2026-04-11T10:34:56.941Z</time></trkpt><trkpt lat="44.8764017" lon="10.3909233"><ele>26.0</ele><time>2026-04-11T10:34:57.941Z</time></trkpt><trkpt lat="44.8765633" lon="10.3910283"><ele>26.0</ele><time>2026-04-11T10:34:58.941Z</time></trkpt><trkpt lat="44.8767167" lon="10.3911233"><ele>26.0</ele><time>2026-04-11T10:34:59.941Z</time></trkpt><trkpt lat="44.8768683" lon="10.3912217"><ele>26.0</ele><time>2026-04-11T10:35:00.941Z</time></trkpt><trkpt lat="44.8770217" lon="10.3913183"><ele>26.0</ele><time>2026-04-11T10:35:01.941Z</time></trkpt><trkpt lat="44.8771733" lon="10.3914083"><ele>26.0</ele><time>2026-04-11T10:35:02.941Z</time></trkpt><trkpt lat="44.8773217" lon="10.391505"><ele>26.0</ele><time>2026-04-11T10:35:03.941Z</time></trkpt><trkpt lat="44.877465" lon="10.3916"><ele>26.0</ele><time>2026-04-11T10:35:04.941Z</time></trkpt><trkpt lat="44.8776083" lon="10.3916967"><ele>26.0</ele><time>2026-04-11T10:35:05.941Z</time></trkpt><trkpt lat="44.8777517" lon="10.3917817"><ele>26.0</ele><time>2026-04-11T10:35:06.941Z</time></trkpt><trkpt lat="44.8779" lon="10.3918717"><ele>26.0</ele><time>2026-04-11T10:35:07.941Z</time></trkpt><trkpt lat="44.8780433" lon="10.3919583"><ele>26.0</ele><time>2026-04-11T10:35:08.941Z</time></trkpt><trkpt lat="44.878185" lon="10.3920533"><ele>26.0</ele><time>2026-04-11T10:35:09.941Z</time></trkpt><trkpt lat="44.8783283" lon="10.392145"><ele>27.0</ele><time>2026-04-11T10:35:10.94Z</time></trkpt><trkpt lat="44.8784683" lon="10.3922333"><ele>28.0</ele><time>2026-04-11T10:35:11.941Z</time></trkpt><trkpt lat="44.878615" lon="10.392325"><ele>29.0</ele><time>2026-04-11T10:35:12.941Z</time></trkpt><trkpt lat="44.8787583" lon="10.3924167"><ele>29.0</ele><time>2026-04-11T10:35:13.941Z</time></trkpt><trkpt lat="44.8789033" lon="10.392505"><ele>29.0</ele><time>2026-04-11T10:35:14.941Z</time></trkpt><trkpt lat="44.8790533" lon="10.3925867"><ele>29.0</ele><time>2026-04-11T10:35:15.94Z</time></trkpt><trkpt lat="44.8792083" lon="10.39267"><ele>28.0</ele><time>2026-04-11T10:35:16.941Z</time></trkpt><trkpt lat="44.8793533" lon="10.392765"><ele>27.0</ele><time>2026-04-11T10:35:17.941Z</time></trkpt><trkpt lat="44.8794917" lon="10.3928583"><ele>26.0</ele><time>2026-04-11T10:35:18.941Z</time></trkpt><trkpt lat="44.879615" lon="10.3929467"><ele>26.5</ele><time>2026-04-11T10:35:19.941Z</time></trkpt><trkpt lat="44.879735" lon="10.393045"><ele>27.0</ele><time>2026-04-11T10:35:20.941Z</time></trkpt><trkpt lat="44.879845" lon="10.3931717"><ele>27.5</ele><time>2026-04-11T10:35:21.941Z</time></trkpt><trkpt lat="44.8799517" lon="10.39332"><ele>28.0</ele><time>2026-04-11T10:35:22.941Z</time></trkpt><trkpt lat="44.88005" lon="10.3934933"><ele>27.333333333333336</ele><time>2026-04-11T10:35:23.941Z</time></trkpt><trkpt lat="44.880145" lon="10.393675"><ele>26.666666666666664</ele><time>2026-04-11T10:35:24.941Z</time></trkpt><trkpt lat="44.880215" lon="10.393865"><ele>26.0</ele><time>2026-04-11T10:35:25.941Z</time></trkpt><trkpt lat="44.8803033" lon="10.3940533"><ele>26.0</ele><time>2026-04-11T10:35:26.941Z</time></trkpt><trkpt lat="44.8803917" lon="10.3942367"><ele>26.0</ele><time>2026-04-11T10:35:27.941Z</time></trkpt><trkpt lat="44.8804933" lon="10.39441"><ele>26.0</ele><time>2026-04-11T10:35:28.941Z</time></trkpt><trkpt lat="44.8806017" lon="10.3945633"><ele>26.0</ele><time>2026-04-11T10:35:29.941Z</time></trkpt><trkpt lat="44.8807133" lon="10.3947"><ele>26.0</ele><time>2026-04-11T10:35:30.941Z</time></trkpt><trkpt lat="44.8808283" lon="10.394805"><ele>26.0</ele><time>2026-04-11T10:35:31.941Z</time></trkpt><trkpt lat="44.88096" lon="10.3949033"><ele>26.0</ele><time>2026-04-11T10:35:32.941Z</time></trkpt><trkpt lat="44.8810967" lon="10.3949667"><ele>26.0</ele><time>2026-04-11T10:35:33.941Z</time></trkpt><trkpt lat="44.8812433" lon="10.39503"><ele>26.0</ele><time>2026-04-11T10:35:34.94Z</time></trkpt><trkpt lat="44.8813967" lon="10.3950917"><ele>26.0</ele><time>2026-04-11T10:35:35.941Z</time></trkpt><trkpt lat="44.881545" lon="10.3951533"><ele>26.0</ele><time>2026-04-11T10:35:36.941Z</time></trkpt><trkpt lat="44.8816933" lon="10.3952367"><ele>26.0</ele><time>2026-04-11T10:35:37.941Z</time></trkpt><trkpt lat="44.8818433" lon="10.395315"><ele>26.0</ele><time>2026-04-11T10:35:38.941Z</time></trkpt><trkpt lat="44.8820033" lon="10.3953917"><ele>26.333333333333332</ele><time>2026-04-11T10:35:39.94Z</time></trkpt><trkpt lat="44.88216" lon="10.39547"><ele>26.666666666666664</ele><time>2026-04-11T10:35:40.941Z</time></trkpt><trkpt lat="44.88232" lon="10.395545"><ele>27.0</ele><time>2026-04-11T10:35:41.941Z</time></trkpt><trkpt lat="44.8824817" lon="10.395625"><ele>26.666666666666664</ele><time>2026-04-11T10:35:42.941Z</time></trkpt><trkpt lat="44.8826433" lon="10.3957067"><ele>26.333333333333332</ele><time>2026-04-11T10:35:43.941Z</time></trkpt><trkpt lat="44.8828167" lon="10.3957917"><ele>26.0</ele><time>2026-04-11T10:35:44.941Z</time></trkpt><trkpt lat="44.8829867" lon="10.395875"><ele>26.0</ele><time>2026-04-11T10:35:45.941Z</time></trkpt><trkpt lat="44.8831633" lon="10.3959567"><ele>26.0</ele><time>2026-04-11T10:35:46.94Z</time></trkpt><trkpt lat="44.8833367" lon="10.3960467"><ele>26.0</ele><time>2026-04-11T10:35:47.941Z</time></trkpt><trkpt lat="44.8835067" lon="10.3961317"><ele>26.0</ele><time>2026-04-11T10:35:48.941Z</time></trkpt><trkpt lat="44.8836917" lon="10.3962217"><ele>26.0</ele><time>2026-04-11T10:35:49.941Z</time></trkpt><trkpt lat="44.8838767" lon="10.396315"><ele>26.0</ele><time>2026-04-11T10:35:50.941Z</time></trkpt><trkpt lat="44.8840583" lon="10.3964133"><ele>26.0</ele><time>2026-04-11T10:35:51.94Z</time></trkpt><trkpt lat="44.88424" lon="10.3965017"><ele>26.0</ele><time>2026-04-11T10:35:52.941Z</time></trkpt><trkpt lat="44.8844333" lon="10.3965983"><ele>26.0</ele><time>2026-04-11T10:35:53.941Z</time></trkpt><trkpt lat="44.8846167" lon="10.3966933"><ele>26.0</ele><time>2026-04-11T10:35:54.94Z</time></trkpt><trkpt lat="44.8848133" lon="10.39679"><ele>26.0</ele><time>2026-04-11T10:35:55.94Z</time></trkpt><trkpt lat="44.8850017" lon="10.39688"><ele>26.0</ele><time>2026-04-11T10:35:56.94Z</time></trkpt><trkpt lat="44.8851833" lon="10.3969767"><ele>25.666666666666664</ele><time>2026-04-11T10:35:57.94Z</time></trkpt><trkpt lat="44.8853517" lon="10.39706"><ele>25.333333333333336</ele><time>2026-04-11T10:35:58.94Z</time></trkpt><trkpt lat="44.8855233" lon="10.3971433"><ele>25.0</ele><time>2026-04-11T10:35:59.94Z</time></trkpt><trkpt lat="44.885695" lon="10.39723"><ele>25.0</ele><time>2026-04-11T10:36:00.94Z</time></trkpt><trkpt lat="44.885865" lon="10.3973167"><ele>25.0</ele><time>2026-04-11T10:36:01.94Z</time></trkpt><trkpt lat="44.886035" lon="10.3974017"><ele>25.0</ele><time>2026-04-11T10:36:02.94Z</time></trkpt><trkpt lat="44.8862017" lon="10.397485"><ele>25.0</ele><time>2026-04-11T10:36:03.94Z</time></trkpt><trkpt lat="44.8863683" lon="10.3975583"><ele>25.0</ele><time>2026-04-11T10:36:04.939Z</time></trkpt><trkpt lat="44.886535" lon="10.3976433"><ele>25.0</ele><time>2026-04-11T10:36:05.94Z</time></trkpt><trkpt lat="44.8867" lon="10.39772"><ele>25.0</ele><time>2026-04-11T10:36:06.94Z</time></trkpt><trkpt lat="44.8868667" lon="10.3977967"><ele>25.0</ele><time>2026-04-11T10:36:07.94Z</time></trkpt><trkpt lat="44.8870317" lon="10.39788"><ele>25.0</ele><time>2026-04-11T10:36:08.94Z</time></trkpt><trkpt lat="44.8872033" lon="10.397965"><ele>25.0</ele><time>2026-04-11T10:36:09.94Z</time></trkpt><trkpt lat="44.887375" lon="10.3980517"><ele>25.0</ele><time>2026-04-11T10:36:10.94Z</time></trkpt><trkpt lat="44.8875417" lon="10.3981367"><ele>25.0</ele><time>2026-04-11T10:36:11.94Z</time></trkpt><trkpt lat="44.8877033" lon="10.3982217"><ele>25.0</ele><time>2026-04-11T10:36:12.94Z</time></trkpt><trkpt lat="44.8878717" lon="10.3983117"><ele>25.0</ele><time>2026-04-11T10:36:13.94Z</time></trkpt><trkpt lat="44.8880433" lon="10.3983933"><ele>25.0</ele><time>2026-04-11T10:36:14.94Z</time></trkpt><trkpt lat="44.8882133" lon="10.3984817"><ele>25.0</ele><time>2026-04-11T10:36:15.94Z</time></trkpt><trkpt lat="44.8883783" lon="10.3985617"><ele>25.0</ele><time>2026-04-11T10:36:16.94Z</time></trkpt><trkpt lat="44.888545" lon="10.398645"><ele>25.0</ele><time>2026-04-11T10:36:17.94Z</time></trkpt><trkpt lat="44.88871" lon="10.3987283"><ele>25.0</ele><time>2026-04-11T10:36:18.94Z</time></trkpt><trkpt lat="44.8888767" lon="10.3988167"><ele>25.0</ele><time>2026-04-11T10:36:19.94Z</time></trkpt><trkpt lat="44.88904" lon="10.398905"><ele>25.0</ele><time>2026-04-11T10:36:20.94Z</time></trkpt><trkpt lat="44.8892033" lon="10.3989933"><ele>24.333333333333336</ele><time>2026-04-11T10:36:21.94Z</time></trkpt><trkpt lat="44.8893667" lon="10.3990833"><ele>23.666666666666668</ele><time>2026-04-11T10:36:22.939Z</time></trkpt><trkpt lat="44.8895317" lon="10.3991667"><ele>23.0</ele><time>2026-04-11T10:36:23.94Z</time></trkpt><trkpt lat="44.8897033" lon="10.399255"><ele>23.0</ele><time>2026-04-11T10:36:24.94Z</time></trkpt><trkpt lat="44.8898783" lon="10.399345"><ele>23.0</ele><time>2026-04-11T10:36:25.94Z</time></trkpt><trkpt lat="44.890045" lon="10.399425"><ele>23.0</ele><time>2026-04-11T10:36:26.939Z</time></trkpt><trkpt lat="44.89022" lon="10.39951"><ele>23.333333333333336</ele><time>2026-04-11T10:36:27.94Z</time></trkpt><trkpt lat="44.8903817" lon="10.3995817"><ele>23.666666666666668</ele><time>2026-04-11T10:36:28.94Z</time></trkpt><trkpt lat="44.8905367" lon="10.3996533"><ele>24.0</ele><time>2026-04-11T10:36:29.94Z</time></trkpt><trkpt lat="44.8906717" lon="10.3997183"><ele>24.0</ele><time>2026-04-11T10:36:30.94Z</time></trkpt><trkpt lat="44.8907967" lon="10.3997833"><ele>24.0</ele><time>2026-04-11T10:36:31.94Z</time></trkpt><trkpt lat="44.8909233" lon="10.3998433"><ele>24.0</ele><time>2026-04-11T10:36:32.939Z</time></trkpt><trkpt lat="44.8910417" lon="10.399905"><ele>24.0</ele><time>2026-04-11T10:36:33.939Z</time></trkpt><trkpt lat="44.8911567" lon="10.3999683"><ele>24.25</ele><time>2026-04-11T10:36:34.94Z</time></trkpt><trkpt lat="44.891255" lon="10.40007"><ele>24.5</ele><time>2026-04-11T10:36:35.94Z</time></trkpt><trkpt lat="44.8913333" lon="10.4001717"><ele>24.75</ele><time>2026-04-11T10:36:36.94Z</time></trkpt><trkpt lat="44.8914167" lon="10.4002983"><ele>25.0</ele><time>2026-04-11T10:36:37.94Z</time></trkpt><trkpt lat="44.89149" lon="10.4004367"><ele>24.75</ele><time>2026-04-11T10:36:38.94Z</time></trkpt><trkpt lat="44.89154" lon="10.4006017"><ele>24.5</ele><time>2026-04-11T10:36:39.94Z</time></trkpt><trkpt lat="44.8915733" lon="10.4007817"><ele>24.25</ele><time>2026-04-11T10:36:40.94Z</time></trkpt><trkpt lat="44.89158" lon="10.4009783"><ele>24.0</ele><time>2026-04-11T10:36:41.94Z</time></trkpt><trkpt lat="44.89158" lon="10.4011783"><ele>24.333333333333336</ele><time>2026-04-11T10:36:42.94Z</time></trkpt><trkpt lat="44.8915633" lon="10.40139"><ele>24.666666666666668</ele><time>2026-04-11T10:36:43.94Z</time></trkpt><trkpt lat="44.891535" lon="10.40161"><ele>25.0</ele><time>2026-04-11T10:36:44.939Z</time></trkpt><trkpt lat="44.8915117" lon="10.4018217"><ele>25.0</ele><time>2026-04-11T10:36:45.94Z</time></trkpt><trkpt lat="44.8914917" lon="10.4020283"><ele>25.0</ele><time>2026-04-11T10:36:46.939Z</time></trkpt><trkpt lat="44.89147" lon="10.40224"><ele>25.0</ele><time>2026-04-11T10:36:47.94Z</time></trkpt><trkpt lat="44.8914483" lon="10.40245"><ele>25.0</ele><time>2026-04-11T10:36:48.94Z</time></trkpt><trkpt lat="44.89143" lon="10.4026683"><ele>25.0</ele><time>2026-04-11T10:36:49.939Z</time></trkpt><trkpt lat="44.8914083" lon="10.4028933"><ele>25.0</ele><time>2026-04-11T10:36:50.94Z</time></trkpt><trkpt lat="44.8913817" lon="10.403135"><ele>25.0</ele><time>2026-04-11T10:36:51.94Z</time></trkpt><trkpt lat="44.891355" lon="10.403365"><ele>25.0</ele><time>2026-04-11T10:36:52.94Z</time></trkpt><trkpt lat="44.89133" lon="10.4036033"><ele>25.0</ele><time>2026-04-11T10:36:53.94Z</time></trkpt><trkpt lat="44.8913083" lon="10.4038383"><ele>25.0</ele><time>2026-04-11T10:36:54.94Z</time></trkpt><trkpt lat="44.8912867" lon="10.40406"><ele>25.0</ele><time>2026-04-11T10:36:55.94Z</time></trkpt><trkpt lat="44.891265" lon="10.4042667"><ele>25.0</ele><time>2026-04-11T10:36:56.939Z</time></trkpt><trkpt lat="44.8912617" lon="10.4044583"><ele>25.0</ele><time>2026-04-11T10:36:57.94Z</time></trkpt><trkpt lat="44.8912767" lon="10.4046383"><ele>25.0</ele><time>2026-04-11T10:36:58.939Z</time></trkpt><trkpt lat="44.89132" lon="10.4048117"><ele>25.0</ele><time>2026-04-11T10:36:59.94Z</time></trkpt><trkpt lat="44.8913767" lon="10.4049817"><ele>25.0</ele><time>2026-04-11T10:37:00.94Z</time></trkpt><trkpt lat="44.8914533" lon="10.4051467"><ele>25.0</ele><time>2026-04-11T10:37:01.94Z</time></trkpt><trkpt lat="44.8915467" lon="10.405295"><ele>25.0</ele><time>2026-04-11T10:37:02.94Z</time></trkpt><trkpt lat="44.8916617" lon="10.40543"><ele>25.0</ele><time>2026-04-11T10:37:03.94Z</time></trkpt><trkpt lat="44.8918017" lon="10.405545"><ele>25.0</ele><time>2026-04-11T10:37:04.94Z</time></trkpt><trkpt lat="44.891955" lon="10.40565"><ele>25.0</ele><time>2026-04-11T10:37:05.94Z</time></trkpt><trkpt lat="44.8921083" lon="10.4057483"><ele>25.0</ele><time>2026-04-11T10:37:06.939Z</time></trkpt><trkpt lat="44.8922633" lon="10.4058533"><ele>25.0</ele><time>2026-04-11T10:37:07.94Z</time></trkpt><trkpt lat="44.8924317" lon="10.4059617"><ele>25.0</ele><time>2026-04-11T10:37:08.939Z</time></trkpt><trkpt lat="44.892605" lon="10.4060783"><ele>25.0</ele><time>2026-04-11T10:37:09.94Z</time></trkpt><trkpt lat="44.8927867" lon="10.4061967"><ele>25.0</ele><time>2026-04-11T10:37:10.94Z</time></trkpt><trkpt lat="44.8929617" lon="10.4063117"><ele>25.0</ele><time>2026-04-11T10:37:11.94Z</time></trkpt><trkpt lat="44.8931317" lon="10.4064183"><ele>25.0</ele><time>2026-04-11T10:37:12.94Z</time></trkpt><trkpt lat="44.8933" lon="10.4065267"><ele>25.0</ele><time>2026-04-11T10:37:13.94Z</time></trkpt><trkpt lat="44.8934667" lon="10.4066417"><ele>25.0</ele><time>2026-04-11T10:37:14.94Z</time></trkpt><trkpt lat="44.8936367" lon="10.4067567"><ele>25.0</ele><time>2026-04-11T10:37:15.94Z</time></trkpt><trkpt lat="44.8938067" lon="10.40687"><ele>25.0</ele><time>2026-04-11T10:37:16.94Z</time></trkpt><trkpt lat="44.8939767" lon="10.4069883"><ele>25.0</ele><time>2026-04-11T10:37:17.94Z</time></trkpt><trkpt lat="44.89415" lon="10.4071"><ele>25.0</ele><time>2026-04-11T10:37:18.94Z</time></trkpt><trkpt lat="44.89432" lon="10.4072083"><ele>25.0</ele><time>2026-04-11T10:37:19.939Z</time></trkpt><trkpt lat="44.8944917" lon="10.40732"><ele>25.0</ele><time>2026-04-11T10:37:20.94Z</time></trkpt><trkpt lat="44.8946617" lon="10.4074367"><ele>25.0</ele><time>2026-04-11T10:37:21.94Z</time></trkpt><trkpt lat="44.8948283" lon="10.40755"><ele>25.0</ele><time>2026-04-11T10:37:22.94Z</time></trkpt><trkpt lat="44.8949983" lon="10.4076667"><ele>25.333333333333336</ele><time>2026-04-11T10:37:23.94Z</time></trkpt><trkpt lat="44.8951683" lon="10.4077783"><ele>25.666666666666664</ele><time>2026-04-11T10:37:24.94Z</time></trkpt><trkpt lat="44.8953483" lon="10.4078917"><ele>26.0</ele><time>2026-04-11T10:37:25.94Z</time></trkpt><trkpt lat="44.8955233" lon="10.408"><ele>26.0</ele><time>2026-04-11T10:37:26.94Z</time></trkpt><trkpt lat="44.8957" lon="10.4081133"><ele>26.0</ele><time>2026-04-11T10:37:27.94Z</time></trkpt><trkpt lat="44.895875" lon="10.4082317"><ele>26.0</ele><time>2026-04-11T10:37:28.94Z</time></trkpt><trkpt lat="44.8960517" lon="10.4083533"><ele>26.333333333333332</ele><time>2026-04-11T10:37:29.94Z</time></trkpt><trkpt lat="44.8962183" lon="10.4084667"><ele>26.666666666666664</ele><time>2026-04-11T10:37:30.94Z</time></trkpt><trkpt lat="44.8963867" lon="10.408575"><ele>27.0</ele><time>2026-04-11T10:37:31.94Z</time></trkpt><trkpt lat="44.8965383" lon="10.4086783"><ele>27.0</ele><time>2026-04-11T10:37:32.94Z</time></trkpt><trkpt lat="44.8966833" lon="10.4087733"><ele>27.0</ele><time>2026-04-11T10:37:33.94Z</time></trkpt><trkpt lat="44.8968233" lon="10.4088667"><ele>27.0</ele><time>2026-04-11T10:37:34.94Z</time></trkpt><trkpt lat="44.8969517" lon="10.4089517"><ele>26.75</ele><time>2026-04-11T10:37:35.94Z</time></trkpt><trkpt lat="44.89707" lon="10.4090267"><ele>26.5</ele><time>2026-04-11T10:37:36.94Z</time></trkpt><trkpt lat="44.897175" lon="10.4090983"><ele>26.25</ele><time>2026-04-11T10:37:37.939Z</time></trkpt><trkpt lat="44.8972683" lon="10.409165"><ele>26.0</ele><time>2026-04-11T10:37:38.94Z</time></trkpt><trkpt lat="44.897355" lon="10.409245"><ele>25.999999999999996</ele><time>2026-04-11T10:37:39.94Z</time></trkpt><trkpt lat="44.8974283" lon="10.4093267"><ele>26.0</ele><time>2026-04-11T10:37:40.94Z</time></trkpt><trkpt lat="44.8974833" lon="10.409415"><ele>26.0</ele><time>2026-04-11T10:37:41.94Z</time></trkpt><trkpt lat="44.8975383" lon="10.4095067"><ele>26.0</ele><time>2026-04-11T10:37:42.94Z</time></trkpt><trkpt lat="44.897575" lon="10.4096183"><ele>25.999999999999996</ele><time>2026-04-11T10:37:43.94Z</time></trkpt><trkpt lat="44.89761" lon="10.409735"><ele>26.0</ele><time>2026-04-11T10:37:44.94Z</time></trkpt><trkpt lat="44.8976333" lon="10.4098717"><ele>26.0</ele><time>2026-04-11T10:37:45.939Z</time></trkpt><trkpt lat="44.89763" lon="10.410015"><ele>26.0</ele><time>2026-04-11T10:37:46.94Z</time></trkpt><trkpt lat="44.8976167" lon="10.4101733"><ele>26.0</ele><time>2026-04-11T10:37:47.939Z</time></trkpt><trkpt lat="44.8975833" lon="10.4103383"><ele>26.0</ele><time>2026-04-11T10:37:48.94Z</time></trkpt><trkpt lat="44.8975433" lon="10.4105167"><ele>25.5</ele><time>2026-04-11T10:37:49.94Z</time></trkpt><trkpt lat="44.8975017" lon="10.4107017"><ele>25.0</ele><time>2026-04-11T10:37:50.94Z</time></trkpt><trkpt lat="44.8974633" lon="10.4108967"><ele>24.5</ele><time>2026-04-11T10:37:51.94Z</time></trkpt><trkpt lat="44.8974183" lon="10.4110967"><ele>24.0</ele><time>2026-04-11T10:37:52.939Z</time></trkpt><trkpt lat="44.89737" lon="10.4113167"><ele>23.666666666666668</ele><time>2026-04-11T10:37:53.94Z</time></trkpt><trkpt lat="44.8973183" lon="10.411545"><ele>23.333333333333336</ele><time>2026-04-11T10:37:54.94Z</time></trkpt><trkpt lat="44.89727" lon="10.4117717"><ele>23.0</ele><time>2026-04-11T10:37:55.939Z</time></trkpt><trkpt lat="44.8972183" lon="10.412005"><ele>23.0</ele><time>2026-04-11T10:37:56.94Z</time></trkpt><trkpt lat="44.8971717" lon="10.4122283"><ele>23.0</ele><time>2026-04-11T10:37:57.94Z</time></trkpt><trkpt lat="44.8971183" lon="10.4124617"><ele>23.0</ele><time>2026-04-11T10:37:58.94Z</time></trkpt><trkpt lat="44.8970617" lon="10.4127017"><ele>23.0</ele><time>2026-04-11T10:37:59.94Z</time></trkpt><trkpt lat="44.897" lon="10.4129417"><ele>23.0</ele><time>2026-04-11T10:38:00.94Z</time></trkpt><trkpt lat="44.8969267" lon="10.4131917"><ele>23.0</ele><time>2026-04-11T10:38:01.94Z</time></trkpt><trkpt lat="44.896855" lon="10.4134317"><ele>23.333333333333336</ele><time>2026-04-11T10:38:02.94Z</time></trkpt><trkpt lat="44.8967717" lon="10.4136633"><ele>23.666666666666668</ele><time>2026-04-11T10:38:03.94Z</time></trkpt><trkpt lat="44.8966833" lon="10.4138817"><ele>24.0</ele><time>2026-04-11T10:38:04.94Z</time></trkpt><trkpt lat="44.8965917" lon="10.414095"><ele>24.333333333333336</ele><time>2026-04-11T10:38:05.94Z</time></trkpt><trkpt lat="44.8964917" lon="10.4143067"><ele>24.666666666666668</ele><time>2026-04-11T10:38:06.94Z</time></trkpt><trkpt lat="44.896385" lon="10.4145217"><ele>25.0</ele><time>2026-04-11T10:38:07.939Z</time></trkpt><trkpt lat="44.8962783" lon="10.414735"><ele>25.0</ele><time>2026-04-11T10:38:08.94Z</time></trkpt><trkpt lat="44.89618" lon="10.4149383"><ele>25.0</ele><time>2026-04-11T10:38:09.939Z</time></trkpt><trkpt lat="44.8960667" lon="10.4151467"><ele>25.0</ele><time>2026-04-11T10:38:10.939Z</time></trkpt><trkpt lat="44.8959567" lon="10.4153683"><ele>25.333333333333336</ele><time>2026-04-11T10:38:11.94Z</time></trkpt><trkpt lat="44.8958533" lon="10.415595"><ele>25.666666666666664</ele><time>2026-04-11T10:38:12.94Z</time></trkpt><trkpt lat="44.8957483" lon="10.4158233"><ele>26.0</ele><time>2026-04-11T10:38:13.94Z</time></trkpt><trkpt lat="44.895645" lon="10.4160683"><ele>26.0</ele><time>2026-04-11T10:38:14.94Z</time></trkpt><trkpt lat="44.8955583" lon="10.416315"><ele>26.0</ele><time>2026-04-11T10:38:15.94Z</time></trkpt><trkpt lat="44.8954783" lon="10.4165667"><ele>26.0</ele><time>2026-04-11T10:38:16.94Z</time></trkpt><trkpt lat="44.8954067" lon="10.41682"><ele>26.333333333333332</ele><time>2026-04-11T10:38:17.94Z</time></trkpt><trkpt lat="44.8953333" lon="10.4170833"><ele>26.666666666666664</ele><time>2026-04-11T10:38:18.94Z</time></trkpt><trkpt lat="44.8952667" lon="10.4173417"><ele>27.0</ele><time>2026-04-11T10:38:19.94Z</time></trkpt><trkpt lat="44.8952067" lon="10.4176067"><ele>27.333333333333336</ele><time>2026-04-11T10:38:20.94Z</time></trkpt><trkpt lat="44.8951433" lon="10.4178717"><ele>27.666666666666668</ele><time>2026-04-11T10:38:21.94Z</time></trkpt><trkpt lat="44.895085" lon="10.4181433"><ele>28.0</ele><time>2026-04-11T10:38:22.94Z</time></trkpt><trkpt lat="44.8950283" lon="10.418405"><ele>26.666666666666668</ele><time>2026-04-11T10:38:23.94Z</time></trkpt><trkpt lat="44.8949733" lon="10.4186633"><ele>25.333333333333336</ele><time>2026-04-11T10:38:24.94Z</time></trkpt><trkpt lat="44.894915" lon="10.4189267"><ele>24.0</ele><time>2026-04-11T10:38:25.94Z</time></trkpt><trkpt lat="44.8948633" lon="10.41918"><ele>23.666666666666668</ele><time>2026-04-11T10:38:26.94Z</time></trkpt><trkpt lat="44.89481" lon="10.4194267"><ele>23.333333333333336</ele><time>2026-04-11T10:38:27.94Z</time></trkpt><trkpt lat="44.8947517" lon="10.4196883"><ele>23.0</ele><time>2026-04-11T10:38:28.94Z</time></trkpt><trkpt lat="44.89469" lon="10.4199567"><ele>23.333333333333336</ele><time>2026-04-11T10:38:29.94Z</time></trkpt><trkpt lat="44.894635" lon="10.4202233"><ele>23.666666666666668</ele><time>2026-04-11T10:38:30.94Z</time></trkpt><trkpt lat="44.8945833" lon="10.4204933"><ele>24.0</ele><time>2026-04-11T10:38:31.94Z</time></trkpt><trkpt lat="44.8945417" lon="10.42076"><ele>24.0</ele><time>2026-04-11T10:38:32.939Z</time></trkpt><trkpt lat="44.8945" lon="10.4210367"><ele>24.0</ele><time>2026-04-11T10:38:33.94Z</time></trkpt><trkpt lat="44.8944717" lon="10.4213017"><ele>24.0</ele><time>2026-04-11T10:38:34.94Z</time></trkpt><trkpt lat="44.894455" lon="10.4215767"><ele>24.333333333333336</ele><time>2026-04-11T10:38:35.94Z</time></trkpt><trkpt lat="44.89444" lon="10.42185"><ele>24.666666666666668</ele><time>2026-04-11T10:38:36.939Z</time></trkpt><trkpt lat="44.8944267" lon="10.42218"><ele>25.0</ele><time>2026-04-11T10:38:37.94Z</time></trkpt><trkpt lat="44.8944217" lon="10.4224233"><ele>25.0</ele><time>2026-04-11T10:38:38.94Z</time></trkpt><trkpt lat="44.894425" lon="10.4226967"><ele>25.0</ele><time>2026-04-11T10:38:39.94Z</time></trkpt><trkpt lat="44.8944267" lon="10.4229767"><ele>25.0</ele><time>2026-04-11T10:38:40.94Z</time></trkpt><trkpt lat="44.894425" lon="10.4232617"><ele>25.0</ele><time>2026-04-11T10:38:41.94Z</time></trkpt><trkpt lat="44.8944233" lon="10.4235567"><ele>25.0</ele><time>2026-04-11T10:38:42.94Z</time></trkpt><trkpt lat="44.894425" lon="10.4238533"><ele>25.0</ele><time>2026-04-11T10:38:43.94Z</time></trkpt><trkpt lat="44.8944267" lon="10.4241467"><ele>24.666666666666668</ele><time>2026-04-11T10:38:44.94Z</time></trkpt><trkpt lat="44.89442" lon="10.42444"><ele>24.333333333333336</ele><time>2026-04-11T10:38:45.94Z</time></trkpt><trkpt lat="44.8944183" lon="10.4247383"><ele>24.0</ele><time>2026-04-11T10:38:46.94Z</time></trkpt><trkpt lat="44.8944183" lon="10.4250267"><ele>24.0</ele><time>2026-04-11T10:38:47.94Z</time></trkpt><trkpt lat="44.8944067" lon="10.425315"><ele>24.0</ele><time>2026-04-11T10:38:48.94Z</time></trkpt><trkpt lat="44.8943883" lon="10.4256067"><ele>24.0</ele><time>2026-04-11T10:38:49.94Z</time></trkpt><trkpt lat="44.8943717" lon="10.425885"><ele>24.0</ele><time>2026-04-11T10:38:50.94Z</time></trkpt><trkpt lat="44.8943433" lon="10.4261583"><ele>24.0</ele><time>2026-04-11T10:38:51.94Z</time></trkpt><trkpt lat="44.8943033" lon="10.4264383"><ele>24.0</ele><time>2026-04-11T10:38:52.94Z</time></trkpt><trkpt lat="44.8942617" lon="10.426715"><ele>24.0</ele><time>2026-04-11T10:38:53.94Z</time></trkpt><trkpt lat="44.894215" lon="10.4269817"><ele>24.0</ele><time>2026-04-11T10:38:54.94Z</time></trkpt><trkpt lat="44.8941583" lon="10.4272467"><ele>24.0</ele><time>2026-04-11T10:38:55.939Z</time></trkpt><trkpt lat="44.894105" lon="10.4275083"><ele>23.333333333333332</ele><time>2026-04-11T10:38:56.94Z</time></trkpt><trkpt lat="44.894055" lon="10.4277767"><ele>22.666666666666664</ele><time>2026-04-11T10:38:57.94Z</time></trkpt><trkpt lat="44.8939967" lon="10.428045"><ele>22.0</ele><time>2026-04-11T10:38:58.939Z</time></trkpt><trkpt lat="44.8939367" lon="10.4283167"><ele>22.0</ele><time>2026-04-11T10:38:59.939Z</time></trkpt><trkpt lat="44.893875" lon="10.42859"><ele>22.0</ele><time>2026-04-11T10:39:00.939Z</time></trkpt><trkpt lat="44.8938183" lon="10.428865"><ele>22.0</ele><time>2026-04-11T10:39:01.939Z</time></trkpt><trkpt lat="44.8937583" lon="10.4291367"><ele>22.0</ele><time>2026-04-11T10:39:02.938Z</time></trkpt><trkpt lat="44.8937017" lon="10.42941"><ele>22.0</ele><time>2026-04-11T10:39:03.939Z</time></trkpt><trkpt lat="44.893645" lon="10.4296817"><ele>22.0</ele><time>2026-04-11T10:39:04.938Z</time></trkpt><trkpt lat="44.8935917" lon="10.42995"><ele>22.0</ele><time>2026-04-11T10:39:05.939Z</time></trkpt><trkpt lat="44.8935383" lon="10.43023"><ele>22.0</ele><time>2026-04-11T10:39:06.939Z</time></trkpt><trkpt lat="44.8934783" lon="10.4305117"><ele>22.0</ele><time>2026-04-11T10:39:07.939Z</time></trkpt><trkpt lat="44.89342" lon="10.4307733"><ele>22.333333333333332</ele><time>2026-04-11T10:39:08.939Z</time></trkpt><trkpt lat="44.8933783" lon="10.431025"><ele>22.666666666666668</ele><time>2026-04-11T10:39:09.939Z</time></trkpt><trkpt lat="44.8933383" lon="10.4312567"><ele>23.0</ele><time>2026-04-11T10:39:10.939Z</time></trkpt><trkpt lat="44.893295" lon="10.4314817"><ele>23.25</ele><time>2026-04-11T10:39:11.939Z</time></trkpt><trkpt lat="44.8932567" lon="10.4316833"><ele>23.5</ele><time>2026-04-11T10:39:12.939Z</time></trkpt><trkpt lat="44.893225" lon="10.4318633"><ele>23.75</ele><time>2026-04-11T10:39:13.939Z</time></trkpt><trkpt lat="44.8931983" lon="10.432015"><ele>24.0</ele><time>2026-04-11T10:39:14.939Z</time></trkpt><trkpt lat="44.8931767" lon="10.43213"><ele>24.0</ele><time>2026-04-11T10:39:15.939Z</time></trkpt><trkpt lat="44.8931333" lon="10.4322717"><ele>24.0</ele><time>2026-04-11T10:39:17.939Z</time></trkpt><trkpt lat="44.8930683" lon="10.4323633"><ele>24.0</ele><time>2026-04-11T10:39:19.939Z</time></trkpt><trkpt lat="44.893025" lon="10.4324283"><ele>24.0</ele><time>2026-04-11T10:39:20.939Z</time></trkpt><trkpt lat="44.8929733" lon="10.4325067"><ele>24.0</ele><time>2026-04-11T10:39:21.939Z</time></trkpt><trkpt lat="44.8929333" lon="10.4326183"><ele>24.0</ele><time>2026-04-11T10:39:22.939Z</time></trkpt><trkpt lat="44.8929233" lon="10.4327433"><ele>24.5</ele><time>2026-04-11T10:39:23.939Z</time></trkpt><trkpt lat="44.8929717" lon="10.4329983"><ele>25.0</ele><time>2026-04-11T10:39:25.939Z</time></trkpt><trkpt lat="44.893005" lon="10.43313"><ele>25.5</ele><time>2026-04-11T10:39:26.939Z</time></trkpt><trkpt lat="44.8930317" lon="10.4332667"><ele>26.0</ele><time>2026-04-11T10:39:27.939Z</time></trkpt><trkpt lat="44.893045" lon="10.4334033"><ele>26.0</ele><time>2026-04-11T10:39:28.938Z</time></trkpt><trkpt lat="44.8930367" lon="10.4335617"><ele>26.0</ele><time>2026-04-11T10:39:29.939Z</time></trkpt><trkpt lat="44.8930183" lon="10.433755"><ele>26.0</ele><time>2026-04-11T10:39:30.939Z</time></trkpt><trkpt lat="44.8930017" lon="10.4339633"><ele>26.0</ele><time>2026-04-11T10:39:31.939Z</time></trkpt><trkpt lat="44.89299" lon="10.4341683"><ele>25.333333333333332</ele><time>2026-04-11T10:39:32.939Z</time></trkpt><trkpt lat="44.8929783" lon="10.4343783"><ele>24.666666666666664</ele><time>2026-04-11T10:39:33.939Z</time></trkpt><trkpt lat="44.8929617" lon="10.4345983"><ele>24.0</ele><time>2026-04-11T10:39:34.939Z</time></trkpt><trkpt lat="44.8929467" lon="10.4348333"><ele>23.666666666666668</ele><time>2026-04-11T10:39:35.939Z</time></trkpt><trkpt lat="44.8929383" lon="10.4350617"><ele>23.333333333333336</ele><time>2026-04-11T10:39:36.939Z</time></trkpt><trkpt lat="44.8929317" lon="10.4352817"><ele>23.0</ele><time>2026-04-11T10:39:37.939Z</time></trkpt><trkpt lat="44.8929233" lon="10.4355083"><ele>23.0</ele><time>2026-04-11T10:39:38.939Z</time></trkpt><trkpt lat="44.892915" lon="10.43573"><ele>23.0</ele><time>2026-04-11T10:39:39.939Z</time></trkpt><trkpt lat="44.8929067" lon="10.4359767"><ele>23.0</ele><time>2026-04-11T10:39:40.939Z</time></trkpt><trkpt lat="44.8928967" lon="10.4362167"><ele>23.0</ele><time>2026-04-11T10:39:41.939Z</time></trkpt><trkpt lat="44.8928783" lon="10.43647"><ele>23.0</ele><time>2026-04-11T10:39:42.939Z</time></trkpt><trkpt lat="44.8928733" lon="10.436705"><ele>23.0</ele><time>2026-04-11T10:39:43.939Z</time></trkpt><trkpt lat="44.892865" lon="10.4369367"><ele>23.0</ele><time>2026-04-11T10:39:44.939Z</time></trkpt><trkpt lat="44.8928583" lon="10.4371717"><ele>23.0</ele><time>2026-04-11T10:39:45.939Z</time></trkpt><trkpt lat="44.89285" lon="10.437415"><ele>23.0</ele><time>2026-04-11T10:39:46.938Z</time></trkpt><trkpt lat="44.8928367" lon="10.437665"><ele>23.0</ele><time>2026-04-11T10:39:47.939Z</time></trkpt><trkpt lat="44.8928233" lon="10.4379033"><ele>23.0</ele><time>2026-04-11T10:39:48.939Z</time></trkpt><trkpt lat="44.892815" lon="10.4381283"><ele>23.0</ele><time>2026-04-11T10:39:49.939Z</time></trkpt><trkpt lat="44.8928083" lon="10.43834"><ele>23.25</ele><time>2026-04-11T10:39:50.939Z</time></trkpt><trkpt lat="44.892805" lon="10.43853"><ele>23.5</ele><time>2026-04-11T10:39:51.939Z</time></trkpt><trkpt lat="44.8927917" lon="10.4387183"><ele>23.75</ele><time>2026-04-11T10:39:52.939Z</time></trkpt><trkpt lat="44.8927817" lon="10.4388933"><ele>24.0</ele><time>2026-04-11T10:39:53.939Z</time></trkpt><trkpt lat="44.8927767" lon="10.4390617"><ele>24.0</ele><time>2026-04-11T10:39:54.939Z</time></trkpt><trkpt lat="44.89277" lon="10.4392233"><ele>24.0</ele><time>2026-04-11T10:39:55.939Z</time></trkpt><trkpt lat="44.8927717" lon="10.4393817"><ele>24.0</ele><time>2026-04-11T10:39:56.939Z</time></trkpt><trkpt lat="44.8927667" lon="10.4395517"><ele>24.0</ele><time>2026-04-11T10:39:57.938Z</time></trkpt><trkpt lat="44.89276" lon="10.4397283"><ele>24.5</ele><time>2026-04-11T10:39:58.938Z</time></trkpt><trkpt lat="44.8927617" lon="10.4399317"><ele>25.0</ele><time>2026-04-11T10:39:59.939Z</time></trkpt><trkpt lat="44.89276" lon="10.4401333"><ele>25.5</ele><time>2026-04-11T10:40:00.939Z</time></trkpt><trkpt lat="44.8927533" lon="10.4403417"><ele>26.0</ele><time>2026-04-11T10:40:01.938Z</time></trkpt><trkpt lat="44.892735" lon="10.4405533"><ele>26.0</ele><time>2026-04-11T10:40:02.939Z</time></trkpt><trkpt lat="44.8927217" lon="10.4407617"><ele>26.0</ele><time>2026-04-11T10:40:03.939Z</time></trkpt><trkpt lat="44.8927017" lon="10.4409817"><ele>26.0</ele><time>2026-04-11T10:40:04.938Z</time></trkpt><trkpt lat="44.8926883" lon="10.4412083"><ele>25.666666666666664</ele><time>2026-04-11T10:40:05.939Z</time></trkpt><trkpt lat="44.8926783" lon="10.4414383"><ele>25.333333333333336</ele><time>2026-04-11T10:40:06.939Z</time></trkpt><trkpt lat="44.8926717" lon="10.4416567"><ele>25.0</ele><time>2026-04-11T10:40:07.939Z</time></trkpt><trkpt lat="44.89266" lon="10.441885"><ele>25.0</ele><time>2026-04-11T10:40:08.939Z</time></trkpt><trkpt lat="44.8926467" lon="10.4421083"><ele>25.0</ele><time>2026-04-11T10:40:09.939Z</time></trkpt><trkpt lat="44.89263" lon="10.4423467"><ele>25.0</ele><time>2026-04-11T10:40:10.939Z</time></trkpt><trkpt lat="44.89262" lon="10.4425767"><ele>25.0</ele><time>2026-04-11T10:40:11.939Z</time></trkpt><trkpt lat="44.8926033" lon="10.4428133"><ele>25.0</ele><time>2026-04-11T10:40:12.939Z</time></trkpt><trkpt lat="44.892585" lon="10.443055"><ele>25.0</ele><time>2026-04-11T10:40:13.939Z</time></trkpt><trkpt lat="44.892555" lon="10.443305"><ele>24.666666666666668</ele><time>2026-04-11T10:40:14.939Z</time></trkpt><trkpt lat="44.8925383" lon="10.4435483"><ele>24.333333333333336</ele><time>2026-04-11T10:40:15.939Z</time></trkpt><trkpt lat="44.892515" lon="10.4438017"><ele>24.0</ele><time>2026-04-11T10:40:16.939Z</time></trkpt><trkpt lat="44.8924883" lon="10.4440717"><ele>24.0</ele><time>2026-04-11T10:40:17.939Z</time></trkpt><trkpt lat="44.8924683" lon="10.4443317"><ele>24.0</ele><time>2026-04-11T10:40:18.939Z</time></trkpt><trkpt lat="44.892445" lon="10.4445817"><ele>24.0</ele><time>2026-04-11T10:40:19.939Z</time></trkpt><trkpt lat="44.8924233" lon="10.4448283"><ele>24.333333333333336</ele><time>2026-04-11T10:40:20.938Z</time></trkpt><trkpt lat="44.8924" lon="10.445075"><ele>24.666666666666668</ele><time>2026-04-11T10:40:21.939Z</time></trkpt><trkpt lat="44.8923783" lon="10.4453267"><ele>25.0</ele><time>2026-04-11T10:40:22.939Z</time></trkpt><trkpt lat="44.8923533" lon="10.445575"><ele>25.0</ele><time>2026-04-11T10:40:23.939Z</time></trkpt><trkpt lat="44.8923217" lon="10.4458433"><ele>25.0</ele><time>2026-04-11T10:40:24.938Z</time></trkpt><trkpt lat="44.89229" lon="10.4461083"><ele>25.0</ele><time>2026-04-11T10:40:25.939Z</time></trkpt><trkpt lat="44.8922533" lon="10.44639"><ele>25.0</ele><time>2026-04-11T10:40:26.939Z</time></trkpt><trkpt lat="44.8922217" lon="10.446655"><ele>25.0</ele><time>2026-04-11T10:40:27.939Z</time></trkpt><trkpt lat="44.892185" lon="10.4469417"><ele>25.0</ele><time>2026-04-11T10:40:28.939Z</time></trkpt><trkpt lat="44.8921517" lon="10.4472233"><ele>25.333333333333336</ele><time>2026-04-11T10:40:29.939Z</time></trkpt><trkpt lat="44.8921067" lon="10.4475183"><ele>25.666666666666664</ele><time>2026-04-11T10:40:30.938Z</time></trkpt><trkpt lat="44.8920683" lon="10.4478083"><ele>26.0</ele><time>2026-04-11T10:40:31.939Z</time></trkpt><trkpt lat="44.892025" lon="10.4481033"><ele>26.333333333333332</ele><time>2026-04-11T10:40:32.939Z</time></trkpt><trkpt lat="44.8919883" lon="10.4483983"><ele>26.666666666666664</ele><time>2026-04-11T10:40:33.938Z</time></trkpt><trkpt lat="44.8919467" lon="10.448685"><ele>27.0</ele><time>2026-04-11T10:40:34.939Z</time></trkpt><trkpt lat="44.8919033" lon="10.4489767"><ele>27.333333333333336</ele><time>2026-04-11T10:40:35.939Z</time></trkpt><trkpt lat="44.891865" lon="10.44927"><ele>27.666666666666668</ele><time>2026-04-11T10:40:36.939Z</time></trkpt><trkpt lat="44.8918183" lon="10.449575"><ele>28.0</ele><time>2026-04-11T10:40:37.939Z</time></trkpt><trkpt lat="44.8917767" lon="10.449855"><ele>27.333333333333336</ele><time>2026-04-11T10:40:38.938Z</time></trkpt><trkpt lat="44.8917317" lon="10.4501217"><ele>26.666666666666664</ele><time>2026-04-11T10:40:39.939Z</time></trkpt><trkpt lat="44.891695" lon="10.45037"><ele>26.0</ele><time>2026-04-11T10:40:40.939Z</time></trkpt><trkpt lat="44.8916633" lon="10.4506133"><ele>26.0</ele><time>2026-04-11T10:40:41.939Z</time></trkpt><trkpt lat="44.8916283" lon="10.4508533"><ele>26.0</ele><time>2026-04-11T10:40:42.939Z</time></trkpt><trkpt lat="44.8915967" lon="10.45107"><ele>26.0</ele><time>2026-04-11T10:40:43.939Z</time></trkpt><trkpt lat="44.8915633" lon="10.4512817"><ele>25.25</ele><time>2026-04-11T10:40:44.939Z</time></trkpt><trkpt lat="44.8915283" lon="10.4514817"><ele>24.5</ele><time>2026-04-11T10:40:45.939Z</time></trkpt><trkpt lat="44.891495" lon="10.4516667"><ele>23.75</ele><time>2026-04-11T10:40:46.939Z</time></trkpt><trkpt lat="44.8914667" lon="10.4518217"><ele>23.0</ele><time>2026-04-11T10:40:47.939Z</time></trkpt><trkpt lat="44.8914433" lon="10.4519517"><ele>23.0</ele><time>2026-04-11T10:40:48.939Z</time></trkpt><trkpt lat="44.8914083" lon="10.4520667"><ele>23.0</ele><time>2026-04-11T10:40:49.939Z</time></trkpt><trkpt lat="44.8913633" lon="10.4521817"><ele>23.0</ele><time>2026-04-11T10:40:50.939Z</time></trkpt><trkpt lat="44.8913083" lon="10.4522967"><ele>23.0</ele><time>2026-04-11T10:40:51.939Z</time></trkpt><trkpt lat="44.89125" lon="10.45239"><ele>23.0</ele><time>2026-04-11T10:40:52.939Z</time></trkpt><trkpt lat="44.8912" lon="10.4524867"><ele>23.166666666666668</ele><time>2026-04-11T10:40:53.939Z</time></trkpt><trkpt lat="44.8911717" lon="10.4526"><ele>23.333333333333336</ele><time>2026-04-11T10:40:54.939Z</time></trkpt><trkpt lat="44.8911783" lon="10.452705"><ele>23.5</ele><time>2026-04-11T10:40:55.939Z</time></trkpt><trkpt lat="44.891215" lon="10.4528133"><ele>23.666666666666668</ele><time>2026-04-11T10:40:56.939Z</time></trkpt><trkpt lat="44.89127" lon="10.4529017"><ele>23.833333333333332</ele><time>2026-04-11T10:40:57.939Z</time></trkpt><trkpt lat="44.8913467" lon="10.4529583"><ele>24.0</ele><time>2026-04-11T10:40:58.938Z</time></trkpt><trkpt lat="44.8914383" lon="10.4529567"><ele>24.0</ele><time>2026-04-11T10:40:59.939Z</time></trkpt><trkpt lat="44.8915383" lon="10.4529017"><ele>24.0</ele><time>2026-04-11T10:41:00.938Z</time></trkpt><trkpt lat="44.8916517" lon="10.452855"><ele>24.0</ele><time>2026-04-11T10:41:01.939Z</time></trkpt><trkpt lat="44.8917783" lon="10.4528333"><ele>24.0</ele><time>2026-04-11T10:41:02.939Z</time></trkpt><trkpt lat="44.8919233" lon="10.452855"><ele>24.0</ele><time>2026-04-11T10:41:03.939Z</time></trkpt><trkpt lat="44.8920917" lon="10.4529067"><ele>24.0</ele><time>2026-04-11T10:41:04.939Z</time></trkpt><trkpt lat="44.8922533" lon="10.45296"><ele>24.0</ele><time>2026-04-11T10:41:05.939Z</time></trkpt><trkpt lat="44.892405" lon="10.4529983"><ele>24.0</ele><time>2026-04-11T10:41:06.939Z</time></trkpt><trkpt lat="44.892575" lon="10.4530583"><ele>24.0</ele><time>2026-04-11T10:41:07.939Z</time></trkpt><trkpt lat="44.892745" lon="10.453125"><ele>24.0</ele><time>2026-04-11T10:41:08.938Z</time></trkpt><trkpt lat="44.8929183" lon="10.453185"><ele>24.666666666666664</ele><time>2026-04-11T10:41:09.939Z</time></trkpt><trkpt lat="44.8930817" lon="10.4532333"><ele>25.333333333333332</ele><time>2026-04-11T10:41:10.939Z</time></trkpt><trkpt lat="44.8932483" lon="10.4532867"><ele>26.0</ele><time>2026-04-11T10:41:11.939Z</time></trkpt><trkpt lat="44.8934067" lon="10.4533533"><ele>25.666666666666664</ele><time>2026-04-11T10:41:12.939Z</time></trkpt><trkpt lat="44.8935767" lon="10.4534183"><ele>25.333333333333336</ele><time>2026-04-11T10:41:13.938Z</time></trkpt><trkpt lat="44.8937517" lon="10.4534867"><ele>25.0</ele><time>2026-04-11T10:41:14.939Z</time></trkpt><trkpt lat="44.8939267" lon="10.453545"><ele>25.0</ele><time>2026-04-11T10:41:15.939Z</time></trkpt><trkpt lat="44.8941017" lon="10.4536083"><ele>25.0</ele><time>2026-04-11T10:41:16.939Z</time></trkpt><trkpt lat="44.894285" lon="10.4536717"><ele>25.0</ele><time>2026-04-11T10:41:17.939Z</time></trkpt><trkpt lat="44.894465" lon="10.4537167"><ele>25.0</ele><time>2026-04-11T10:41:18.939Z</time></trkpt><trkpt lat="44.8946333" lon="10.4537817"><ele>25.0</ele><time>2026-04-11T10:41:19.939Z</time></trkpt><trkpt lat="44.894785" lon="10.453845"><ele>25.0</ele><time>2026-04-11T10:41:20.939Z</time></trkpt><trkpt lat="44.8949167" lon="10.4539033"><ele>25.0</ele><time>2026-04-11T10:41:21.939Z</time></trkpt><trkpt lat="44.89506" lon="10.4539617"><ele>25.0</ele><time>2026-04-11T10:41:22.939Z</time></trkpt><trkpt lat="44.8951967" lon="10.4540133"><ele>25.0</ele><time>2026-04-11T10:41:23.939Z</time></trkpt><trkpt lat="44.895335" lon="10.4540667"><ele>25.0</ele><time>2026-04-11T10:41:24.939Z</time></trkpt><trkpt lat="44.8954683" lon="10.45412"><ele>25.0</ele><time>2026-04-11T10:41:25.939Z</time></trkpt><trkpt lat="44.8955967" lon="10.45418"><ele>25.0</ele><time>2026-04-11T10:41:26.939Z</time></trkpt><trkpt lat="44.8957217" lon="10.454245"><ele>25.0</ele><time>2026-04-11T10:41:27.939Z</time></trkpt><trkpt lat="44.8958267" lon="10.4543317"><ele>25.0</ele><time>2026-04-11T10:41:28.939Z</time></trkpt><trkpt lat="44.895895" lon="10.4544483"><ele>25.0</ele><time>2026-04-11T10:41:29.939Z</time></trkpt><trkpt lat="44.8959233" lon="10.4546067"><ele>25.0</ele><time>2026-04-11T10:41:30.939Z</time></trkpt><trkpt lat="44.89592" lon="10.4547933"><ele>25.0</ele><time>2026-04-11T10:41:31.938Z</time></trkpt><trkpt lat="44.8958867" lon="10.4549783"><ele>25.0</ele><time>2026-04-11T10:41:32.939Z</time></trkpt><trkpt lat="44.8958417" lon="10.4551783"><ele>24.666666666666668</ele><time>2026-04-11T10:41:33.939Z</time></trkpt><trkpt lat="44.8958033" lon="10.4553833"><ele>24.333333333333336</ele><time>2026-04-11T10:41:34.939Z</time></trkpt><trkpt lat="44.89577" lon="10.45559"><ele>24.0</ele><time>2026-04-11T10:41:35.939Z</time></trkpt><trkpt lat="44.8957367" lon="10.4558067"><ele>23.666666666666668</ele><time>2026-04-11T10:41:36.939Z</time></trkpt><trkpt lat="44.8957" lon="10.4560167"><ele>23.333333333333336</ele><time>2026-04-11T10:41:37.939Z</time></trkpt><trkpt lat="44.8956617" lon="10.4562317"><ele>23.0</ele><time>2026-04-11T10:41:38.939Z</time></trkpt><trkpt lat="44.8956233" lon="10.45646"><ele>23.0</ele><time>2026-04-11T10:41:39.939Z</time></trkpt><trkpt lat="44.8955833" lon="10.45669"><ele>23.0</ele><time>2026-04-11T10:41:40.939Z</time></trkpt><trkpt lat="44.8955433" lon="10.4569383"><ele>23.0</ele><time>2026-04-11T10:41:41.939Z</time></trkpt><trkpt lat="44.8954983" lon="10.4571867"><ele>23.666666666666668</ele><time>2026-04-11T10:41:42.939Z</time></trkpt><trkpt lat="44.8954517" lon="10.4574383"><ele>24.333333333333336</ele><time>2026-04-11T10:41:43.939Z</time></trkpt><trkpt lat="44.8954083" lon="10.4576833"><ele>25.0</ele><time>2026-04-11T10:41:44.939Z</time></trkpt><trkpt lat="44.89536" lon="10.457945"><ele>24.666666666666668</ele><time>2026-04-11T10:41:45.939Z</time></trkpt><trkpt lat="44.8953133" lon="10.4582067"><ele>24.333333333333336</ele><time>2026-04-11T10:41:46.938Z</time></trkpt><trkpt lat="44.8952683" lon="10.4584667"><ele>24.0</ele><time>2026-04-11T10:41:47.939Z</time></trkpt><trkpt lat="44.8952167" lon="10.4587267"><ele>23.666666666666668</ele><time>2026-04-11T10:41:48.939Z</time></trkpt><trkpt lat="44.8951767" lon="10.4589733"><ele>23.333333333333336</ele><time>2026-04-11T10:41:49.939Z</time></trkpt><trkpt lat="44.8951417" lon="10.4592183"><ele>23.0</ele><time>2026-04-11T10:41:50.939Z</time></trkpt><trkpt lat="44.8951133" lon="10.4594567"><ele>23.666666666666668</ele><time>2026-04-11T10:41:51.939Z</time></trkpt><trkpt lat="44.895085" lon="10.4596833"><ele>24.333333333333336</ele><time>2026-04-11T10:41:52.939Z</time></trkpt><trkpt lat="44.895065" lon="10.4598967"><ele>25.0</ele><time>2026-04-11T10:41:53.939Z</time></trkpt><trkpt lat="44.895045" lon="10.4601017"><ele>25.0</ele><time>2026-04-11T10:41:54.939Z</time></trkpt><trkpt lat="44.895025" lon="10.46029"><ele>25.0</ele><time>2026-04-11T10:41:55.939Z</time></trkpt><trkpt lat="44.8950083" lon="10.46046"><ele>25.0</ele><time>2026-04-11T10:41:56.939Z</time></trkpt><trkpt lat="44.8949933" lon="10.4606183"><ele>25.0</ele><time>2026-04-11T10:41:57.939Z</time></trkpt><trkpt lat="44.8949817" lon="10.460745"><ele>24.833333333333336</ele><time>2026-04-11T10:41:58.939Z</time></trkpt><trkpt lat="44.8949567" lon="10.46085"><ele>24.666666666666668</ele><time>2026-04-11T10:41:59.939Z</time></trkpt><trkpt lat="44.8949117" lon="10.4609533"><ele>24.5</ele><time>2026-04-11T10:42:00.939Z</time></trkpt><trkpt lat="44.8948583" lon="10.461055"><ele>24.333333333333336</ele><time>2026-04-11T10:42:01.938Z</time></trkpt><trkpt lat="44.89481" lon="10.4611467"><ele>24.166666666666668</ele><time>2026-04-11T10:42:02.938Z</time></trkpt><trkpt lat="44.8947933" lon="10.461245"><ele>24.0</ele><time>2026-04-11T10:42:03.938Z</time></trkpt><trkpt lat="44.8948" lon="10.46134"><ele>24.0</ele><time>2026-04-11T10:42:04.937Z</time></trkpt><trkpt lat="44.8948417" lon="10.4614167"><ele>24.0</ele><time>2026-04-11T10:42:05.938Z</time></trkpt><trkpt lat="44.894915" lon="10.4614683"><ele>24.0</ele><time>2026-04-11T10:42:06.938Z</time></trkpt><trkpt lat="44.8950067" lon="10.4615067"><ele>24.0</ele><time>2026-04-11T10:42:07.938Z</time></trkpt><trkpt lat="44.8951033" lon="10.4615333"><ele>24.0</ele><time>2026-04-11T10:42:08.937Z</time></trkpt><trkpt lat="44.8952033" lon="10.4615733"><ele>24.0</ele><time>2026-04-11T10:42:09.938Z</time></trkpt><trkpt lat="44.8953" lon="10.4616333"><ele>24.25</ele><time>2026-04-11T10:42:10.938Z</time></trkpt><trkpt lat="44.8954133" lon="10.4617"><ele>24.5</ele><time>2026-04-11T10:42:11.938Z</time></trkpt><trkpt lat="44.895535" lon="10.4617667"><ele>24.75</ele><time>2026-04-11T10:42:12.938Z</time></trkpt><trkpt lat="44.8956533" lon="10.4618267"><ele>25.0</ele><time>2026-04-11T10:42:13.938Z</time></trkpt><trkpt lat="44.8957717" lon="10.4618783"><ele>25.0</ele><time>2026-04-11T10:42:14.938Z</time></trkpt><trkpt lat="44.8958933" lon="10.4619217"><ele>25.0</ele><time>2026-04-11T10:42:15.938Z</time></trkpt><trkpt lat="44.8960083" lon="10.4619883"><ele>25.0</ele><time>2026-04-11T10:42:16.938Z</time></trkpt><trkpt lat="44.8962667" lon="10.4620933"><ele>25.0</ele><time>2026-04-11T10:42:18.938Z</time></trkpt><trkpt lat="44.8964117" lon="10.4621483"><ele>25.0</ele><time>2026-04-11T10:42:19.938Z</time></trkpt><trkpt lat="44.8966867" lon="10.4622683"><ele>25.0</ele><time>2026-04-11T10:42:21.938Z</time></trkpt><trkpt lat="44.89683" lon="10.4623433"><ele>25.5</ele><time>2026-04-11T10:42:22.938Z</time></trkpt><trkpt lat="44.8969583" lon="10.462405"><ele>26.0</ele><time>2026-04-11T10:42:23.937Z</time></trkpt><trkpt lat="44.89709" lon="10.462465"><ele>26.5</ele><time>2026-04-11T10:42:24.938Z</time></trkpt><trkpt lat="44.89722" lon="10.4625167"><ele>27.0</ele><time>2026-04-11T10:42:25.938Z</time></trkpt><trkpt lat="44.897345" lon="10.4625717"><ele>27.0</ele><time>2026-04-11T10:42:26.937Z</time></trkpt><trkpt lat="44.8974733" lon="10.4626433"><ele>27.0</ele><time>2026-04-11T10:42:27.938Z</time></trkpt><trkpt lat="44.8976183" lon="10.4627033"><ele>27.0</ele><time>2026-04-11T10:42:28.938Z</time></trkpt><trkpt lat="44.8977583" lon="10.46276"><ele>27.0</ele><time>2026-04-11T10:42:29.938Z</time></trkpt><trkpt lat="44.8978833" lon="10.462815"><ele>27.0</ele><time>2026-04-11T10:42:30.938Z</time></trkpt><trkpt lat="44.8980117" lon="10.46286"><ele>27.0</ele><time>2026-04-11T10:42:31.937Z</time></trkpt><trkpt lat="44.8981217" lon="10.462915"><ele>27.0</ele><time>2026-04-11T10:42:32.938Z</time></trkpt><trkpt lat="44.8982433" lon="10.4629783"><ele>27.0</ele><time>2026-04-11T10:42:33.938Z</time></trkpt><trkpt lat="44.898355" lon="10.4630167"><ele>26.75</ele><time>2026-04-11T10:42:34.938Z</time></trkpt><trkpt lat="44.898485" lon="10.46307"><ele>26.5</ele><time>2026-04-11T10:42:35.938Z</time></trkpt><trkpt lat="44.8986133" lon="10.4631333"><ele>26.25</ele><time>2026-04-11T10:42:36.938Z</time></trkpt><trkpt lat="44.8987517" lon="10.4631917"><ele>26.0</ele><time>2026-04-11T10:42:37.938Z</time></trkpt><trkpt lat="44.8988983" lon="10.4632433"><ele>26.0</ele><time>2026-04-11T10:42:38.937Z</time></trkpt><trkpt lat="44.8990033" lon="10.4632867"><ele>26.0</ele><time>2026-04-11T10:42:39.938Z</time></trkpt><trkpt lat="44.8991283" lon="10.4633983"><ele>26.0</ele><time>2026-04-11T10:42:40.938Z</time></trkpt><trkpt lat="44.899245" lon="10.4635133"><ele>26.0</ele><time>2026-04-11T10:42:41.937Z</time></trkpt><trkpt lat="44.8993533" lon="10.4636117"><ele>26.25</ele><time>2026-04-11T10:42:42.938Z</time></trkpt><trkpt lat="44.899445" lon="10.4636933"><ele>26.5</ele><time>2026-04-11T10:42:43.938Z</time></trkpt><trkpt lat="44.899545" lon="10.4637817"><ele>26.75</ele><time>2026-04-11T10:42:44.938Z</time></trkpt><trkpt lat="44.8996467" lon="10.46388"><ele>27.0</ele><time>2026-04-11T10:42:45.938Z</time></trkpt><trkpt lat="44.8997417" lon="10.4639783"><ele>27.0</ele><time>2026-04-11T10:42:46.938Z</time></trkpt><trkpt lat="44.89984" lon="10.4640783"><ele>27.000000000000004</ele><time>2026-04-11T10:42:47.938Z</time></trkpt><trkpt lat="44.899935" lon="10.46419"><ele>27.000000000000004</ele><time>2026-04-11T10:42:48.938Z</time></trkpt><trkpt lat="44.8999883" lon="10.464305"><ele>27.0</ele><time>2026-04-11T10:42:49.937Z</time></trkpt><trkpt lat="44.900045" lon="10.4644333"><ele>27.0</ele><time>2026-04-11T10:42:50.938Z</time></trkpt><trkpt lat="44.9000917" lon="10.4645667"><ele>27.25</ele><time>2026-04-11T10:42:51.938Z</time></trkpt><trkpt lat="44.900115" lon="10.4647333"><ele>27.5</ele><time>2026-04-11T10:42:52.937Z</time></trkpt><trkpt lat="44.900145" lon="10.4649083"><ele>27.75</ele><time>2026-04-11T10:42:53.938Z</time></trkpt><trkpt lat="44.9001767" lon="10.46508"><ele>28.0</ele><time>2026-04-11T10:42:54.937Z</time></trkpt><trkpt lat="44.9002" lon="10.4652433"><ele>28.0</ele><time>2026-04-11T10:42:55.938Z</time></trkpt><trkpt lat="44.9002333" lon="10.465385"><ele>28.0</ele><time>2026-04-11T10:42:56.938Z</time></trkpt><trkpt lat="44.9002717" lon="10.4655333"><ele>28.0</ele><time>2026-04-11T10:42:57.938Z</time></trkpt><trkpt lat="44.9003083" lon="10.4656933"><ele>28.0</ele><time>2026-04-11T10:42:58.938Z</time></trkpt><trkpt lat="44.9003317" lon="10.4658533"><ele>28.0</ele><time>2026-04-11T10:42:59.938Z</time></trkpt><trkpt lat="44.900355" lon="10.46601"><ele>27.999999999999996</ele><time>2026-04-11T10:43:00.938Z</time></trkpt><trkpt lat="44.9003833" lon="10.466165"><ele>27.999999999999996</ele><time>2026-04-11T10:43:01.938Z</time></trkpt><trkpt lat="44.9004117" lon="10.4663"><ele>28.0</ele><time>2026-04-11T10:43:02.938Z</time></trkpt><trkpt lat="44.90043" lon="10.4664267"><ele>28.0</ele><time>2026-04-11T10:43:03.938Z</time></trkpt><trkpt lat="44.9004517" lon="10.4665517"><ele>27.833333333333336</ele><time>2026-04-11T10:43:04.938Z</time></trkpt><trkpt lat="44.9004517" lon="10.4666417"><ele>27.666666666666668</ele><time>2026-04-11T10:43:05.938Z</time></trkpt><trkpt lat="44.9004283" lon="10.466765"><ele>27.5</ele><time>2026-04-11T10:43:07.938Z</time></trkpt><trkpt lat="44.9003783" lon="10.4668967"><ele>27.333333333333336</ele><time>2026-04-11T10:43:09.938Z</time></trkpt><trkpt lat="44.9003467" lon="10.46698"><ele>27.166666666666668</ele><time>2026-04-11T10:43:10.938Z</time></trkpt><trkpt lat="44.9002933" lon="10.46709"><ele>27.0</ele><time>2026-04-11T10:43:11.938Z</time></trkpt><trkpt lat="44.900235" lon="10.467195"><ele>27.0</ele><time>2026-04-11T10:43:12.938Z</time></trkpt><trkpt lat="44.9001883" lon="10.4672983"><ele>27.0</ele><time>2026-04-11T10:43:13.938Z</time></trkpt><trkpt lat="44.9001517" lon="10.4673983"><ele>27.0</ele><time>2026-04-11T10:43:14.938Z</time></trkpt><trkpt lat="44.9001083" lon="10.4675183"><ele>27.0</ele><time>2026-04-11T10:43:15.938Z</time></trkpt><trkpt lat="44.9000683" lon="10.467625"><ele>27.0</ele><time>2026-04-11T10:43:16.938Z</time></trkpt><trkpt lat="44.90001" lon="10.467735"><ele>27.0</ele><time>2026-04-11T10:43:18.937Z</time></trkpt><trkpt lat="44.89997" lon="10.4678383"><ele>27.0</ele><time>2026-04-11T10:43:22.938Z</time></trkpt><trkpt lat="44.8999183" lon="10.4678983"><ele>27.000000000000004</ele><time>2026-04-11T10:43:24.938Z</time></trkpt><trkpt lat="44.8998167" lon="10.4679483"><ele>27.000000000000004</ele><time>2026-04-11T10:43:26.938Z</time></trkpt><trkpt lat="44.8996883" lon="10.468015"><ele>27.0</ele><time>2026-04-11T10:43:28.938Z</time></trkpt><trkpt lat="44.8996217" lon="10.46803"><ele>27.0</ele><time>2026-04-11T10:43:29.938Z</time></trkpt><trkpt lat="44.8995517" lon="10.4680583"><ele>27.0</ele><time>2026-04-11T10:43:30.937Z</time></trkpt><trkpt lat="44.8994767" lon="10.4680817"><ele>27.0</ele><time>2026-04-11T10:43:31.938Z</time></trkpt><trkpt lat="44.8994017" lon="10.4681083"><ele>27.0</ele><time>2026-04-11T10:43:32.938Z</time></trkpt><trkpt lat="44.8993367" lon="10.468145"><ele>27.0</ele><time>2026-04-11T10:43:33.937Z</time></trkpt><trkpt lat="44.8992717" lon="10.4681667"><ele>27.0</ele><time>2026-04-11T10:43:34.938Z</time></trkpt><trkpt lat="44.89919" lon="10.4682117"><ele>27.0</ele><time>2026-04-11T10:43:36.938Z</time></trkpt><trkpt lat="44.899125" lon="10.468285"><ele>27.0</ele><time>2026-04-11T10:43:38.938Z</time></trkpt><trkpt lat="44.899105" lon="10.4684433"><ele>27.000000000000004</ele><time>2026-04-11T10:43:40.938Z</time></trkpt><trkpt lat="44.8991083" lon="10.4685683"><ele>27.000000000000004</ele><time>2026-04-11T10:43:41.938Z</time></trkpt><trkpt lat="44.8991283" lon="10.4687167"><ele>27.0</ele><time>2026-04-11T10:43:42.938Z</time></trkpt><trkpt lat="44.89916" lon="10.4688983"><ele>27.0</ele><time>2026-04-11T10:43:43.938Z</time></trkpt><trkpt lat="44.8991983" lon="10.4690967"><ele>27.0</ele><time>2026-04-11T10:43:44.938Z</time></trkpt><trkpt lat="44.8992267" lon="10.4692817"><ele>27.0</ele><time>2026-04-11T10:43:45.937Z</time></trkpt><trkpt lat="44.8992767" lon="10.4694733"><ele>27.0</ele><time>2026-04-11T10:43:46.938Z</time></trkpt><trkpt lat="44.89932" lon="10.4696717"><ele>27.0</ele><time>2026-04-11T10:43:47.938Z</time></trkpt><trkpt lat="44.8993617" lon="10.4698717"><ele>27.0</ele><time>2026-04-11T10:43:48.938Z</time></trkpt><trkpt lat="44.8994017" lon="10.47007"><ele>27.0</ele><time>2026-04-11T10:43:49.938Z</time></trkpt><trkpt lat="44.899435" lon="10.4702933"><ele>27.0</ele><time>2026-04-11T10:43:50.938Z</time></trkpt><trkpt lat="44.8994717" lon="10.470515"><ele>27.0</ele><time>2026-04-11T10:43:51.938Z</time></trkpt><trkpt lat="44.8994983" lon="10.47073"><ele>27.0</ele><time>2026-04-11T10:43:52.937Z</time></trkpt><trkpt lat="44.89952" lon="10.47093"><ele>27.0</ele><time>2026-04-11T10:43:53.938Z</time></trkpt><trkpt lat="44.8995333" lon="10.47112"><ele>27.0</ele><time>2026-04-11T10:43:54.938Z</time></trkpt><trkpt lat="44.8995533" lon="10.4713183"><ele>26.75</ele><time>2026-04-11T10:43:55.938Z</time></trkpt><trkpt lat="44.89957" lon="10.4715233"><ele>26.5</ele><time>2026-04-11T10:43:56.938Z</time></trkpt><trkpt lat="44.8995967" lon="10.471725"><ele>26.25</ele><time>2026-04-11T10:43:57.938Z</time></trkpt><trkpt lat="44.8996267" lon="10.4719233"><ele>26.0</ele><time>2026-04-11T10:43:58.937Z</time></trkpt><trkpt lat="44.89967" lon="10.4721417"><ele>26.666666666666664</ele><time>2026-04-11T10:43:59.938Z</time></trkpt><trkpt lat="44.8997" lon="10.4723633"><ele>27.333333333333336</ele><time>2026-04-11T10:44:00.938Z</time></trkpt><trkpt lat="44.8997183" lon="10.47258"><ele>28.0</ele><time>2026-04-11T10:44:01.938Z</time></trkpt><trkpt lat="44.8997417" lon="10.4728017"><ele>27.666666666666668</ele><time>2026-04-11T10:44:02.938Z</time></trkpt><trkpt lat="44.89977" lon="10.4730167"><ele>27.333333333333336</ele><time>2026-04-11T10:44:03.938Z</time></trkpt><trkpt lat="44.8997883" lon="10.473235"><ele>27.0</ele><time>2026-04-11T10:44:04.938Z</time></trkpt><trkpt lat="44.8998083" lon="10.4734517"><ele>27.0</ele><time>2026-04-11T10:44:05.938Z</time></trkpt><trkpt lat="44.899835" lon="10.4736067"><ele>27.000000000000004</ele><time>2026-04-11T10:44:06.937Z</time></trkpt><trkpt lat="44.89983" lon="10.473725"><ele>27.000000000000004</ele><time>2026-04-11T10:44:07.938Z</time></trkpt><trkpt lat="44.899845" lon="10.4738483"><ele>27.0</ele><time>2026-04-11T10:44:08.937Z</time></trkpt><trkpt lat="44.899815" lon="10.4739717"><ele>27.0</ele><time>2026-04-11T10:44:09.938Z</time></trkpt><trkpt lat="44.8997733" lon="10.4741133"><ele>27.0</ele><time>2026-04-11T10:44:10.937Z</time></trkpt><trkpt lat="44.8997067" lon="10.4742717"><ele>27.0</ele><time>2026-04-11T10:44:11.938Z</time></trkpt><trkpt lat="44.89963" lon="10.4744283"><ele>27.0</ele><time>2026-04-11T10:44:12.938Z</time></trkpt><trkpt lat="44.8995417" lon="10.47459"><ele>27.0</ele><time>2026-04-11T10:44:13.937Z</time></trkpt><trkpt lat="44.8994483" lon="10.474755"><ele>27.0</ele><time>2026-04-11T10:44:14.938Z</time></trkpt><trkpt lat="44.8993667" lon="10.474925"><ele>27.0</ele><time>2026-04-11T10:44:15.938Z</time></trkpt><trkpt lat="44.89927" lon="10.4751283"><ele>27.0</ele><time>2026-04-11T10:44:16.938Z</time></trkpt><trkpt lat="44.89918" lon="10.4753417"><ele>26.0</ele><time>2026-04-11T10:44:17.938Z</time></trkpt><trkpt lat="44.899095" lon="10.4755633"><ele>25.0</ele><time>2026-04-11T10:44:18.938Z</time></trkpt><trkpt lat="44.8990017" lon="10.4757867"><ele>24.0</ele><time>2026-04-11T10:44:19.937Z</time></trkpt><trkpt lat="44.898915" lon="10.4759967"><ele>24.0</ele><time>2026-04-11T10:44:20.938Z</time></trkpt><trkpt lat="44.89884" lon="10.4762067"><ele>24.0</ele><time>2026-04-11T10:44:21.938Z</time></trkpt><trkpt lat="44.89876" lon="10.476425"><ele>24.0</ele><time>2026-04-11T10:44:22.938Z</time></trkpt><trkpt lat="44.898675" lon="10.4766467"><ele>23.666666666666668</ele><time>2026-04-11T10:44:23.938Z</time></trkpt><trkpt lat="44.8985833" lon="10.4768733"><ele>23.333333333333336</ele><time>2026-04-11T10:44:24.938Z</time></trkpt><trkpt lat="44.8985" lon="10.4771067"><ele>23.0</ele><time>2026-04-11T10:44:25.938Z</time></trkpt><trkpt lat="44.898415" lon="10.477325"><ele>23.0</ele><time>2026-04-11T10:44:26.938Z</time></trkpt><trkpt lat="44.89835" lon="10.4775467"><ele>23.0</ele><time>2026-04-11T10:44:27.938Z</time></trkpt><trkpt lat="44.8983" lon="10.4777483"><ele>23.0</ele><time>2026-04-11T10:44:28.938Z</time></trkpt><trkpt lat="44.89826" lon="10.4779483"><ele>23.0</ele><time>2026-04-11T10:44:29.938Z</time></trkpt><trkpt lat="44.89824" lon="10.478155"><ele>23.0</ele><time>2026-04-11T10:44:30.938Z</time></trkpt><trkpt lat="44.8982233" lon="10.478375"><ele>23.0</ele><time>2026-04-11T10:44:31.938Z</time></trkpt><trkpt lat="44.8982117" lon="10.4785717"><ele>23.0</ele><time>2026-04-11T10:44:32.938Z</time></trkpt><trkpt lat="44.8982033" lon="10.4787933"><ele>23.333333333333336</ele><time>2026-04-11T10:44:33.938Z</time></trkpt><trkpt lat="44.8982017" lon="10.4790417"><ele>23.666666666666668</ele><time>2026-04-11T10:44:34.938Z</time></trkpt><trkpt lat="44.898195" lon="10.4792933"><ele>24.0</ele><time>2026-04-11T10:44:35.937Z</time></trkpt><trkpt lat="44.8981917" lon="10.4795433"><ele>25.0</ele><time>2026-04-11T10:44:36.937Z</time></trkpt><trkpt lat="44.8981833" lon="10.4797917"><ele>26.0</ele><time>2026-04-11T10:44:37.938Z</time></trkpt><trkpt lat="44.89817" lon="10.48004"><ele>27.0</ele><time>2026-04-11T10:44:38.938Z</time></trkpt><trkpt lat="44.8981517" lon="10.480255"><ele>26.5</ele><time>2026-04-11T10:44:39.938Z</time></trkpt><trkpt lat="44.8981333" lon="10.48046"><ele>26.0</ele><time>2026-04-11T10:44:40.938Z</time></trkpt><trkpt lat="44.89808" lon="10.4806517"><ele>25.5</ele><time>2026-04-11T10:44:41.938Z</time></trkpt><trkpt lat="44.8980217" lon="10.4808267"><ele>25.0</ele><time>2026-04-11T10:44:42.938Z</time></trkpt><trkpt lat="44.89795" lon="10.481005"><ele>25.0</ele><time>2026-04-11T10:44:43.938Z</time></trkpt><trkpt lat="44.8978683" lon="10.4811667"><ele>25.0</ele><time>2026-04-11T10:44:44.938Z</time></trkpt><trkpt lat="44.89778" lon="10.4813383"><ele>25.0</ele><time>2026-04-11T10:44:45.938Z</time></trkpt><trkpt lat="44.8976933" lon="10.4815183"><ele>25.0</ele><time>2026-04-11T10:44:46.938Z</time></trkpt><trkpt lat="44.8976" lon="10.481695"><ele>25.666666666666668</ele><time>2026-04-11T10:44:47.938Z</time></trkpt><trkpt lat="44.8975" lon="10.4818833"><ele>26.333333333333336</ele><time>2026-04-11T10:44:48.938Z</time></trkpt><trkpt lat="44.8973867" lon="10.4820617"><ele>27.0</ele><time>2026-04-11T10:44:49.938Z</time></trkpt><trkpt lat="44.8972783" lon="10.4822617"><ele>25.666666666666668</ele><time>2026-04-11T10:44:50.937Z</time></trkpt><trkpt lat="44.897175" lon="10.4824367"><ele>24.333333333333336</ele><time>2026-04-11T10:44:51.938Z</time></trkpt><trkpt lat="44.8970667" lon="10.4826"><ele>23.0</ele><time>2026-04-11T10:44:52.938Z</time></trkpt><trkpt lat="44.8969517" lon="10.48276"><ele>23.0</ele><time>2026-04-11T10:44:53.938Z</time></trkpt><trkpt lat="44.89684" lon="10.4829117"><ele>23.0</ele><time>2026-04-11T10:44:54.938Z</time></trkpt><trkpt lat="44.89673" lon="10.4830617"><ele>23.0</ele><time>2026-04-11T10:44:55.937Z</time></trkpt><trkpt lat="44.8966083" lon="10.4832333"><ele>23.0</ele><time>2026-04-11T10:44:56.938Z</time></trkpt><trkpt lat="44.8965067" lon="10.4834133"><ele>23.0</ele><time>2026-04-11T10:44:57.938Z</time></trkpt><trkpt lat="44.8963967" lon="10.4835817"><ele>23.0</ele><time>2026-04-11T10:44:58.938Z</time></trkpt><trkpt lat="44.8962867" lon="10.483775"><ele>23.0</ele><time>2026-04-11T10:44:59.936Z</time></trkpt><trkpt lat="44.896175" lon="10.4839767"><ele>23.0</ele><time>2026-04-11T10:45:00.937Z</time></trkpt><trkpt lat="44.896055" lon="10.4841567"><ele>23.0</ele><time>2026-04-11T10:45:01.937Z</time></trkpt><trkpt lat="44.895935" lon="10.484345"><ele>23.0</ele><time>2026-04-11T10:45:02.937Z</time></trkpt><trkpt lat="44.8958317" lon="10.4845333"><ele>23.0</ele><time>2026-04-11T10:45:03.937Z</time></trkpt><trkpt lat="44.8957267" lon="10.4847183"><ele>23.0</ele><time>2026-04-11T10:45:04.937Z</time></trkpt><trkpt lat="44.895605" lon="10.484905"><ele>22.666666666666668</ele><time>2026-04-11T10:45:05.936Z</time></trkpt><trkpt lat="44.8954967" lon="10.4850917"><ele>22.333333333333332</ele><time>2026-04-11T10:45:06.937Z</time></trkpt><trkpt lat="44.8953833" lon="10.4852733"><ele>22.0</ele><time>2026-04-11T10:45:07.937Z</time></trkpt><trkpt lat="44.8952817" lon="10.4854633"><ele>22.0</ele><time>2026-04-11T10:45:08.937Z</time></trkpt><trkpt lat="44.8951833" lon="10.4856467"><ele>22.0</ele><time>2026-04-11T10:45:09.937Z</time></trkpt><trkpt lat="44.8950967" lon="10.485835"><ele>22.0</ele><time>2026-04-11T10:45:10.936Z</time></trkpt><trkpt lat="44.8950133" lon="10.4860283"><ele>22.0</ele><time>2026-04-11T10:45:11.937Z</time></trkpt><trkpt lat="44.894925" lon="10.4862433"><ele>22.0</ele><time>2026-04-11T10:45:12.937Z</time></trkpt><trkpt lat="44.894855" lon="10.486445"><ele>22.0</ele><time>2026-04-11T10:45:13.937Z</time></trkpt><trkpt lat="44.8947933" lon="10.4866483"><ele>22.0</ele><time>2026-04-11T10:45:14.937Z</time></trkpt><trkpt lat="44.894735" lon="10.4868617"><ele>22.0</ele><time>2026-04-11T10:45:15.937Z</time></trkpt><trkpt lat="44.8946767" lon="10.48708"><ele>22.0</ele><time>2026-04-11T10:45:16.937Z</time></trkpt><trkpt lat="44.89462" lon="10.4873"><ele>22.333333333333332</ele><time>2026-04-11T10:45:17.936Z</time></trkpt><trkpt lat="44.8945933" lon="10.4875183"><ele>22.666666666666668</ele><time>2026-04-11T10:45:18.937Z</time></trkpt><trkpt lat="44.8945467" lon="10.4877583"><ele>23.0</ele><time>2026-04-11T10:45:19.937Z</time></trkpt><trkpt lat="44.8945033" lon="10.487985"><ele>23.0</ele><time>2026-04-11T10:45:20.937Z</time></trkpt><trkpt lat="44.8944567" lon="10.4882333"><ele>23.0</ele><time>2026-04-11T10:45:21.937Z</time></trkpt><trkpt lat="44.894415" lon="10.4884667"><ele>23.0</ele><time>2026-04-11T10:45:22.937Z</time></trkpt><trkpt lat="44.89437" lon="10.4887067"><ele>23.0</ele><time>2026-04-11T10:45:23.937Z</time></trkpt><trkpt lat="44.8943317" lon="10.4889233"><ele>23.0</ele><time>2026-04-11T10:45:24.937Z</time></trkpt><trkpt lat="44.8942933" lon="10.4891467"><ele>23.0</ele><time>2026-04-11T10:45:25.937Z</time></trkpt><trkpt lat="44.894265" lon="10.4893567"><ele>23.666666666666668</ele><time>2026-04-11T10:45:26.937Z</time></trkpt><trkpt lat="44.894235" lon="10.48956"><ele>24.333333333333336</ele><time>2026-04-11T10:45:27.937Z</time></trkpt><trkpt lat="44.8942017" lon="10.4897733"><ele>25.0</ele><time>2026-04-11T10:45:28.936Z</time></trkpt><trkpt lat="44.8941667" lon="10.4899817"><ele>25.0</ele><time>2026-04-11T10:45:29.937Z</time></trkpt><trkpt lat="44.8941333" lon="10.490185"><ele>25.0</ele><time>2026-04-11T10:45:30.937Z</time></trkpt><trkpt lat="44.8940883" lon="10.4904167"><ele>25.0</ele><time>2026-04-11T10:45:31.937Z</time></trkpt><trkpt lat="44.8940517" lon="10.490615"><ele>25.0</ele><time>2026-04-11T10:45:32.936Z</time></trkpt><trkpt lat="44.8940233" lon="10.4908067"><ele>25.0</ele><time>2026-04-11T10:45:33.937Z</time></trkpt><trkpt lat="44.8939983" lon="10.491015"><ele>25.0</ele><time>2026-04-11T10:45:34.937Z</time></trkpt><trkpt lat="44.8939917" lon="10.4912433"><ele>24.666666666666668</ele><time>2026-04-11T10:45:35.937Z</time></trkpt><trkpt lat="44.89399" lon="10.4914733"><ele>24.333333333333336</ele><time>2026-04-11T10:45:36.937Z</time></trkpt><trkpt lat="44.8939833" lon="10.4916883"><ele>24.0</ele><time>2026-04-11T10:45:37.936Z</time></trkpt><trkpt lat="44.8940033" lon="10.491945"><ele>23.666666666666668</ele><time>2026-04-11T10:45:38.937Z</time></trkpt><trkpt lat="44.894" lon="10.492195"><ele>23.333333333333336</ele><time>2026-04-11T10:45:39.937Z</time></trkpt><trkpt lat="44.8939883" lon="10.4924483"><ele>23.0</ele><time>2026-04-11T10:45:40.937Z</time></trkpt><trkpt lat="44.8939667" lon="10.4927117"><ele>22.666666666666668</ele><time>2026-04-11T10:45:41.937Z</time></trkpt><trkpt lat="44.89394" lon="10.4929483"><ele>22.333333333333332</ele><time>2026-04-11T10:45:42.937Z</time></trkpt><trkpt lat="44.8939167" lon="10.4931633"><ele>22.0</ele><time>2026-04-11T10:45:43.937Z</time></trkpt><trkpt lat="44.89387" lon="10.4933817"><ele>22.0</ele><time>2026-04-11T10:45:44.937Z</time></trkpt><trkpt lat="44.8938217" lon="10.4935967"><ele>22.0</ele><time>2026-04-11T10:45:45.937Z</time></trkpt><trkpt lat="44.8937817" lon="10.493805"><ele>22.0</ele><time>2026-04-11T10:45:46.937Z</time></trkpt><trkpt lat="44.893775" lon="10.4940033"><ele>22.0</ele><time>2026-04-11T10:45:47.937Z</time></trkpt><trkpt lat="44.8937783" lon="10.494195"><ele>22.0</ele><time>2026-04-11T10:45:48.937Z</time></trkpt><trkpt lat="44.8938" lon="10.494365"><ele>22.0</ele><time>2026-04-11T10:45:49.936Z</time></trkpt><trkpt lat="44.8938133" lon="10.49455"><ele>22.0</ele><time>2026-04-11T10:45:50.937Z</time></trkpt><trkpt lat="44.8938283" lon="10.49475"><ele>22.0</ele><time>2026-04-11T10:45:51.937Z</time></trkpt><trkpt lat="44.8938617" lon="10.494965"><ele>22.0</ele><time>2026-04-11T10:45:52.937Z</time></trkpt><trkpt lat="44.893905" lon="10.49518"><ele>22.0</ele><time>2026-04-11T10:45:53.937Z</time></trkpt><trkpt lat="44.8939483" lon="10.4953933"><ele>23.0</ele><time>2026-04-11T10:45:54.937Z</time></trkpt><trkpt lat="44.8940117" lon="10.4956417"><ele>24.0</ele><time>2026-04-11T10:45:55.937Z</time></trkpt><trkpt lat="44.8940867" lon="10.4958517"><ele>25.0</ele><time>2026-04-11T10:45:56.937Z</time></trkpt><trkpt lat="44.8941667" lon="10.4960667"><ele>24.666666666666668</ele><time>2026-04-11T10:45:57.937Z</time></trkpt><trkpt lat="44.89425" lon="10.49629"><ele>24.333333333333336</ele><time>2026-04-11T10:45:58.937Z</time></trkpt><trkpt lat="44.8943317" lon="10.4965267"><ele>24.0</ele><time>2026-04-11T10:45:59.936Z</time></trkpt><trkpt lat="44.8944183" lon="10.4967333"><ele>24.0</ele><time>2026-04-11T10:46:00.937Z</time></trkpt><trkpt lat="44.894495" lon="10.4969433"><ele>24.0</ele><time>2026-04-11T10:46:01.937Z</time></trkpt><trkpt lat="44.8945783" lon="10.497155"><ele>24.0</ele><time>2026-04-11T10:46:02.937Z</time></trkpt><trkpt lat="44.8946567" lon="10.4973683"><ele>24.0</ele><time>2026-04-11T10:46:03.936Z</time></trkpt><trkpt lat="44.894735" lon="10.4975883"><ele>24.0</ele><time>2026-04-11T10:46:04.937Z</time></trkpt><trkpt lat="44.894835" lon="10.49777"><ele>24.0</ele><time>2026-04-11T10:46:05.937Z</time></trkpt><trkpt lat="44.8949167" lon="10.4979667"><ele>23.666666666666668</ele><time>2026-04-11T10:46:06.937Z</time></trkpt><trkpt lat="44.8949733" lon="10.4981817"><ele>23.333333333333336</ele><time>2026-04-11T10:46:07.937Z</time></trkpt><trkpt lat="44.8950367" lon="10.4983783"><ele>23.0</ele><time>2026-04-11T10:46:08.937Z</time></trkpt><trkpt lat="44.8951017" lon="10.4986333"><ele>23.0</ele><time>2026-04-11T10:46:09.937Z</time></trkpt><trkpt lat="44.8951867" lon="10.498855"><ele>23.0</ele><time>2026-04-11T10:46:10.937Z</time></trkpt><trkpt lat="44.8952883" lon="10.4990467"><ele>23.0</ele><time>2026-04-11T10:46:11.937Z</time></trkpt><trkpt lat="44.89538" lon="10.4992383"><ele>23.0</ele><time>2026-04-11T10:46:12.937Z</time></trkpt><trkpt lat="44.8954583" lon="10.4994283"><ele>23.0</ele><time>2026-04-11T10:46:13.937Z</time></trkpt><trkpt lat="44.8955333" lon="10.4996"><ele>23.0</ele><time>2026-04-11T10:46:14.937Z</time></trkpt><trkpt lat="44.8955917" lon="10.499755"><ele>23.0</ele><time>2026-04-11T10:46:15.937Z</time></trkpt><trkpt lat="44.895645" lon="10.4999217"><ele>23.25</ele><time>2026-04-11T10:46:16.937Z</time></trkpt><trkpt lat="44.8956817" lon="10.50009"><ele>23.5</ele><time>2026-04-11T10:46:17.937Z</time></trkpt><trkpt lat="44.89572" lon="10.50027"><ele>23.75</ele><time>2026-04-11T10:46:18.937Z</time></trkpt><trkpt lat="44.89575" lon="10.50046"><ele>24.0</ele><time>2026-04-11T10:46:19.937Z</time></trkpt><trkpt lat="44.8957783" lon="10.50064"><ele>24.4</ele><time>2026-04-11T10:46:20.937Z</time></trkpt><trkpt lat="44.8958083" lon="10.5008083"><ele>24.799999999999997</ele><time>2026-04-11T10:46:21.937Z</time></trkpt><trkpt lat="44.895845" lon="10.5009483"><ele>25.200000000000003</ele><time>2026-04-11T10:46:22.937Z</time></trkpt><trkpt lat="44.8958883" lon="10.5010833"><ele>25.6</ele><time>2026-04-11T10:46:23.937Z</time></trkpt><trkpt lat="44.895945" lon="10.501205"><ele>26.0</ele><time>2026-04-11T10:46:24.937Z</time></trkpt><trkpt lat="44.896005" lon="10.5013233"><ele>26.0</ele><time>2026-04-11T10:46:25.937Z</time></trkpt><trkpt lat="44.89608" lon="10.501465"><ele>26.0</ele><time>2026-04-11T10:46:26.937Z</time></trkpt><trkpt lat="44.8961617" lon="10.5016217"><ele>26.0</ele><time>2026-04-11T10:46:27.937Z</time></trkpt><trkpt lat="44.8962433" lon="10.501785"><ele>26.0</ele><time>2026-04-11T10:46:28.937Z</time></trkpt><trkpt lat="44.8963233" lon="10.5019433"><ele>25.333333333333332</ele><time>2026-04-11T10:46:29.937Z</time></trkpt><trkpt lat="44.896415" lon="10.502125"><ele>24.666666666666664</ele><time>2026-04-11T10:46:30.936Z</time></trkpt><trkpt lat="44.8965033" lon="10.5023167"><ele>24.0</ele><time>2026-04-11T10:46:31.937Z</time></trkpt><trkpt lat="44.8965883" lon="10.5025117"><ele>24.0</ele><time>2026-04-11T10:46:32.936Z</time></trkpt><trkpt lat="44.89668" lon="10.5027033"><ele>24.0</ele><time>2026-04-11T10:46:33.937Z</time></trkpt><trkpt lat="44.8967733" lon="10.5029"><ele>24.0</ele><time>2026-04-11T10:46:34.937Z</time></trkpt><trkpt lat="44.896855" lon="10.50308"><ele>24.0</ele><time>2026-04-11T10:46:35.937Z</time></trkpt><trkpt lat="44.89693" lon="10.5032583"><ele>24.0</ele><time>2026-04-11T10:46:36.937Z</time></trkpt><trkpt lat="44.897" lon="10.5034383"><ele>24.0</ele><time>2026-04-11T10:46:37.937Z</time></trkpt><trkpt lat="44.89707" lon="10.50361"><ele>24.0</ele><time>2026-04-11T10:46:38.937Z</time></trkpt><trkpt lat="44.89714" lon="10.5038367"><ele>24.0</ele><time>2026-04-11T10:46:39.937Z</time></trkpt><trkpt lat="44.89722" lon="10.5040433"><ele>24.0</ele><time>2026-04-11T10:46:40.936Z</time></trkpt><trkpt lat="44.89729" lon="10.504265"><ele>24.0</ele><time>2026-04-11T10:46:41.937Z</time></trkpt><trkpt lat="44.89737" lon="10.5044833"><ele>24.0</ele><time>2026-04-11T10:46:42.937Z</time></trkpt><trkpt lat="44.8974467" lon="10.504735"><ele>24.0</ele><time>2026-04-11T10:46:43.937Z</time></trkpt><trkpt lat="44.8975233" lon="10.5049383"><ele>24.0</ele><time>2026-04-11T10:46:44.937Z</time></trkpt><trkpt lat="44.89761" lon="10.50512"><ele>23.666666666666668</ele><time>2026-04-11T10:46:45.937Z</time></trkpt><trkpt lat="44.89769" lon="10.5053117"><ele>23.333333333333336</ele><time>2026-04-11T10:46:46.937Z</time></trkpt><trkpt lat="44.8977433" lon="10.5055167"><ele>23.0</ele><time>2026-04-11T10:46:47.937Z</time></trkpt><trkpt lat="44.8978" lon="10.5057167"><ele>22.666666666666668</ele><time>2026-04-11T10:46:48.937Z</time></trkpt><trkpt lat="44.897875" lon="10.5059533"><ele>22.333333333333332</ele><time>2026-04-11T10:46:49.937Z</time></trkpt><trkpt lat="44.8979417" lon="10.506185"><ele>22.0</ele><time>2026-04-11T10:46:50.937Z</time></trkpt><trkpt lat="44.897995" lon="10.5064033"><ele>22.0</ele><time>2026-04-11T10:46:51.937Z</time></trkpt><trkpt lat="44.89804" lon="10.506595"><ele>22.0</ele><time>2026-04-11T10:46:52.937Z</time></trkpt><trkpt lat="44.8981" lon="10.506815"><ele>22.0</ele><time>2026-04-11T10:46:53.936Z</time></trkpt><trkpt lat="44.8981633" lon="10.5070117"><ele>22.333333333333332</ele><time>2026-04-11T10:46:54.937Z</time></trkpt><trkpt lat="44.89821" lon="10.5072383"><ele>22.666666666666668</ele><time>2026-04-11T10:46:55.937Z</time></trkpt><trkpt lat="44.8982417" lon="10.5074683"><ele>23.0</ele><time>2026-04-11T10:46:56.936Z</time></trkpt><trkpt lat="44.8983017" lon="10.5076883"><ele>23.0</ele><time>2026-04-11T10:46:57.937Z</time></trkpt><trkpt lat="44.8983583" lon="10.5078917"><ele>23.0</ele><time>2026-04-11T10:46:58.936Z</time></trkpt><trkpt lat="44.898395" lon="10.5080783"><ele>23.0</ele><time>2026-04-11T10:46:59.937Z</time></trkpt><trkpt lat="44.8984217" lon="10.5082667"><ele>23.0</ele><time>2026-04-11T10:47:00.937Z</time></trkpt><trkpt lat="44.898435" lon="10.50844"><ele>22.799999999999997</ele><time>2026-04-11T10:47:01.937Z</time></trkpt><trkpt lat="44.8984517" lon="10.5086167"><ele>22.6</ele><time>2026-04-11T10:47:02.937Z</time></trkpt><trkpt lat="44.898495" lon="10.5087683"><ele>22.4</ele><time>2026-04-11T10:47:03.937Z</time></trkpt><trkpt lat="44.8985317" lon="10.5089067"><ele>22.200000000000003</ele><time>2026-04-11T10:47:04.937Z</time></trkpt><trkpt lat="44.89857" lon="10.5090267"><ele>22.0</ele><time>2026-04-11T10:47:05.936Z</time></trkpt><trkpt lat="44.898605" lon="10.5091217"><ele>22.0</ele><time>2026-04-11T10:47:06.937Z</time></trkpt><trkpt lat="44.89864" lon="10.50927"><ele>22.0</ele><time>2026-04-11T10:47:08.937Z</time></trkpt><trkpt lat="44.8986217" lon="10.5093667"><ele>22.0</ele><time>2026-04-11T10:47:10.937Z</time></trkpt><trkpt lat="44.898555" lon="10.5095"><ele>22.0</ele><time>2026-04-11T10:47:12.937Z</time></trkpt><trkpt lat="44.8985333" lon="10.5096617"><ele>22.0</ele><time>2026-04-11T10:47:14.937Z</time></trkpt><trkpt lat="44.89864" lon="10.50979"><ele>22.200000000000003</ele><time>2026-04-11T10:47:16.937Z</time></trkpt><trkpt lat="44.898715" lon="10.509825"><ele>22.4</ele><time>2026-04-11T10:47:17.937Z</time></trkpt><trkpt lat="44.8987983" lon="10.509905"><ele>22.6</ele><time>2026-04-11T10:47:18.937Z</time></trkpt><trkpt lat="44.8988733" lon="10.51002"><ele>22.799999999999997</ele><time>2026-04-11T10:47:19.937Z</time></trkpt><trkpt lat="44.8989367" lon="10.510185"><ele>23.0</ele><time>2026-04-11T10:47:20.936Z</time></trkpt><trkpt lat="44.8990083" lon="10.5103483"><ele>23.25</ele><time>2026-04-11T10:47:21.937Z</time></trkpt><trkpt lat="44.8990717" lon="10.51051"><ele>23.5</ele><time>2026-04-11T10:47:22.937Z</time></trkpt><trkpt lat="44.89915" lon="10.5106567"><ele>23.75</ele><time>2026-04-11T10:47:23.937Z</time></trkpt><trkpt lat="44.8992583" lon="10.5108033"><ele>24.0</ele><time>2026-04-11T10:47:24.937Z</time></trkpt><trkpt lat="44.8993817" lon="10.5109517"><ele>24.666666666666664</ele><time>2026-04-11T10:47:25.936Z</time></trkpt><trkpt lat="44.89953" lon="10.5110833"><ele>25.333333333333332</ele><time>2026-04-11T10:47:26.937Z</time></trkpt><trkpt lat="44.899655" lon="10.5112167"><ele>26.0</ele><time>2026-04-11T10:47:27.937Z</time></trkpt><trkpt lat="44.89978" lon="10.5113383"><ele>26.0</ele><time>2026-04-11T10:47:28.937Z</time></trkpt><trkpt lat="44.899905" lon="10.51147"><ele>26.0</ele><time>2026-04-11T10:47:29.937Z</time></trkpt><trkpt lat="44.9000133" lon="10.51157"><ele>26.0</ele><time>2026-04-11T10:47:30.937Z</time></trkpt><trkpt lat="44.9001167" lon="10.5116633"><ele>26.0</ele><time>2026-04-11T10:47:31.937Z</time></trkpt><trkpt lat="44.9002267" lon="10.51175"><ele>26.0</ele><time>2026-04-11T10:47:32.937Z</time></trkpt><trkpt lat="44.9003117" lon="10.51184"><ele>26.0</ele><time>2026-04-11T10:47:33.937Z</time></trkpt><trkpt lat="44.9003967" lon="10.5119317"><ele>26.0</ele><time>2026-04-11T10:47:34.937Z</time></trkpt><trkpt lat="44.9004733" lon="10.5120283"><ele>26.0</ele><time>2026-04-11T10:47:35.937Z</time></trkpt><trkpt lat="44.90053" lon="10.5121267"><ele>26.0</ele><time>2026-04-11T10:47:36.937Z</time></trkpt><trkpt lat="44.90059" lon="10.5122217"><ele>25.666666666666664</ele><time>2026-04-11T10:47:37.937Z</time></trkpt><trkpt lat="44.9006367" lon="10.5123283"><ele>25.333333333333332</ele><time>2026-04-11T10:47:38.937Z</time></trkpt><trkpt lat="44.90069" lon="10.5124283"><ele>25.0</ele><time>2026-04-11T10:47:39.937Z</time></trkpt><trkpt lat="44.9007283" lon="10.512545"><ele>24.666666666666664</ele><time>2026-04-11T10:47:40.937Z</time></trkpt><trkpt lat="44.9007633" lon="10.5126533"><ele>24.333333333333332</ele><time>2026-04-11T10:47:41.937Z</time></trkpt><trkpt lat="44.9008033" lon="10.5127583"><ele>24.0</ele><time>2026-04-11T10:47:42.937Z</time></trkpt><trkpt lat="44.90083" lon="10.5128533"><ele>24.166666666666668</ele><time>2026-04-11T10:47:43.937Z</time></trkpt><trkpt lat="44.900855" lon="10.5129533"><ele>24.333333333333336</ele><time>2026-04-11T10:47:44.937Z</time></trkpt><trkpt lat="44.900865" lon="10.513045"><ele>24.5</ele><time>2026-04-11T10:47:45.937Z</time></trkpt><trkpt lat="44.9009017" lon="10.5132083"><ele>24.666666666666668</ele><time>2026-04-11T10:47:47.937Z</time></trkpt><trkpt lat="44.900925" lon="10.5133167"><ele>24.833333333333336</ele><time>2026-04-11T10:47:48.937Z</time></trkpt><trkpt lat="44.9009483" lon="10.51343"><ele>25.0</ele><time>2026-04-11T10:47:49.937Z</time></trkpt><trkpt lat="44.900975" lon="10.5135467"><ele>25.000000000000004</ele><time>2026-04-11T10:47:50.937Z</time></trkpt><trkpt lat="44.9010067" lon="10.5136533"><ele>25.0</ele><time>2026-04-11T10:47:51.937Z</time></trkpt><trkpt lat="44.9010333" lon="10.5137583"><ele>25.0</ele><time>2026-04-11T10:47:52.937Z</time></trkpt><trkpt lat="44.9010517" lon="10.513875"><ele>25.0</ele><time>2026-04-11T10:47:53.937Z</time></trkpt><trkpt lat="44.90107" lon="10.51399"><ele>25.000000000000004</ele><time>2026-04-11T10:47:54.937Z</time></trkpt><trkpt lat="44.9011033" lon="10.514115"><ele>25.0</ele><time>2026-04-11T10:47:55.937Z</time></trkpt><trkpt lat="44.9011417" lon="10.51421"><ele>25.2</ele><time>2026-04-11T10:47:56.935Z</time></trkpt><trkpt lat="44.9011517" lon="10.5143683"><ele>25.4</ele><time>2026-04-11T10:47:58.936Z</time></trkpt><trkpt lat="44.9011617" lon="10.5144717"><ele>25.6</ele><time>2026-04-11T10:48:00.936Z</time></trkpt><trkpt lat="44.9011817" lon="10.5145917"><ele>25.8</ele><time>2026-04-11T10:48:02.936Z</time></trkpt><trkpt lat="44.9012033" lon="10.5146833"><ele>26.0</ele><time>2026-04-11T10:48:04.936Z</time></trkpt><trkpt lat="44.901215" lon="10.51485"><ele>26.166666666666664</ele><time>2026-04-11T10:48:13.936Z</time></trkpt><trkpt lat="44.9012367" lon="10.5149733"><ele>26.333333333333332</ele><time>2026-04-11T10:48:16.936Z</time></trkpt><trkpt lat="44.90127" lon="10.5150917"><ele>26.5</ele><time>2026-04-11T10:48:19.936Z</time></trkpt><trkpt lat="44.9012883" lon="10.51519"><ele>26.666666666666664</ele><time>2026-04-11T10:48:22.935Z</time></trkpt><trkpt lat="44.9013317" lon="10.5152967"><ele>26.833333333333332</ele><time>2026-04-11T10:48:25.936Z</time></trkpt><trkpt lat="44.9013567" lon="10.5153817"><ele>27.0</ele><time>2026-04-11T10:48:27.936Z</time></trkpt><trkpt lat="44.90137" lon="10.5155033"><ele>27.166666666666668</ele><time>2026-04-11T10:48:30.936Z</time></trkpt><trkpt lat="44.9013817" lon="10.5156167"><ele>27.333333333333336</ele><time>2026-04-11T10:48:32.936Z</time></trkpt><trkpt lat="44.9013967" lon="10.5157317"><ele>27.5</ele><time>2026-04-11T10:48:34.936Z</time></trkpt><trkpt lat="44.9014133" lon="10.51585"><ele>27.666666666666668</ele><time>2026-04-11T10:48:37.936Z</time></trkpt><trkpt lat="44.901351" lon="10.5158793"><ele>27.833333333333336</ele><time>2026-04-11T10:52:37.041Z</time></trkpt><trkpt lat="44.9012785" lon="10.5158762"><ele>28.0</ele><time>2026-04-11T10:52:40.979Z</time></trkpt><trkpt lat="44.9012155" lon="10.5158713"><ele>28.0</ele><time>2026-04-11T10:52:48.993Z</time></trkpt><trkpt lat="44.90097" lon="10.5157786"><ele>28.0</ele><time>2026-04-11T10:53:28.939Z</time></trkpt><trkpt lat="44.9008899" lon="10.5157725"><ele>28.0</ele><time>2026-04-11T10:53:30.012Z</time></trkpt><trkpt lat="44.9008104" lon="10.515784"><ele>28.0</ele><time>2026-04-11T10:53:32.994Z</time></trkpt><trkpt lat="44.9007547" lon="10.5157221"><ele>27.799999999999997</ele><time>2026-04-11T10:53:38.952Z</time></trkpt><trkpt lat="44.9007169" lon="10.5156503"><ele>27.599999999999998</ele><time>2026-04-11T10:53:41.913Z</time></trkpt><trkpt lat="44.9006595" lon="10.5155424"><ele>27.400000000000002</ele><time>2026-04-11T10:53:45.027Z</time></trkpt><trkpt lat="44.9006475" lon="10.515442"><ele>27.200000000000003</ele><time>2026-04-11T10:53:46.995Z</time></trkpt><trkpt lat="44.9006921" lon="10.5153643"><ele>27.0</ele><time>2026-04-11T10:53:53.008Z</time></trkpt><trkpt lat="44.9007217" lon="10.5155987"><ele>27.0</ele><time>2026-04-11T10:54:16.949Z</time></trkpt><trkpt lat="44.9007988" lon="10.5158735"><ele>27.0</ele><time>2026-04-11T10:54:18.021Z</time></trkpt><trkpt lat="44.9008538" lon="10.516008"><ele>27.0</ele><time>2026-04-11T10:54:18.974Z</time></trkpt><trkpt lat="44.900917" lon="10.51599"><ele>27.0</ele><time>2026-04-11T10:54:21.954Z</time></trkpt><trkpt lat="44.9009948" lon="10.5159535"><ele>27.166666666666668</ele><time>2026-04-11T10:54:25.054Z</time></trkpt><trkpt lat="44.900949" lon="10.5158349"><ele>27.333333333333336</ele><time>2026-04-11T10:54:30.062Z</time></trkpt><trkpt lat="44.900937" lon="10.515741"><ele>27.5</ele><time>2026-04-11T10:54:43.053Z</time></trkpt><trkpt lat="44.9009385" lon="10.5156343"><ele>27.666666666666668</ele><time>2026-04-11T10:54:53.87Z</time></trkpt><trkpt lat="44.9009221" lon="10.5155406"><ele>27.833333333333336</ele><time>2026-04-11T10:55:05.364Z</time></trkpt><trkpt lat="44.9009557" lon="10.5157291"><ele>28.0</ele><time>2026-04-11T10:55:37.623Z</time></trkpt><trkpt lat="44.8996899" lon="10.5158596"><ele>27.0</ele><time>2026-04-11T10:56:03.229Z</time></trkpt><trkpt lat="44.9006929" lon="10.5157984"><ele>27.0</ele><time>2026-04-11T10:56:09.693Z</time></trkpt><trkpt lat="44.9007627" lon="10.515789"><ele>27.0</ele><time>2026-04-11T10:56:13.737Z</time></trkpt><trkpt lat="44.90096" lon="10.5157409"><ele>27.0</ele><time>2026-04-11T10:56:22.839Z</time></trkpt><trkpt lat="44.9011021" lon="10.5157379"><ele>27.0</ele><time>2026-04-11T10:56:26.733Z</time></trkpt><trkpt lat="44.9011716" lon="10.5158968"><ele>27.166666666666668</ele><time>2026-04-11T10:56:32.975Z</time></trkpt><trkpt lat="44.9011518" lon="10.5159857"><ele>27.333333333333336</ele><time>2026-04-11T10:56:41.065Z</time></trkpt><trkpt lat="44.9011694" lon="10.5161084"><ele>27.5</ele><time>2026-04-11T10:57:41.591Z</time></trkpt><trkpt lat="44.9011803" lon="10.5160113"><ele>27.666666666666668</ele><time>2026-04-11T11:01:08.949Z</time></trkpt><trkpt lat="44.9012202" lon="10.5159192"><ele>27.833333333333336</ele><time>2026-04-11T11:01:15.001Z</time></trkpt><trkpt lat="44.9013659" lon="10.5159575"><ele>28.0</ele><time>2026-04-11T11:01:28.005Z</time></trkpt><trkpt lat="44.9014048" lon="10.5158688"><ele>28.0</ele><time>2026-04-11T11:01:52Z</time></trkpt><trkpt lat="44.9014542" lon="10.5159564"><ele>28.0</ele><time>2026-04-11T11:02:49.949Z</time></trkpt><trkpt lat="44.9014791" lon="10.5158101"><ele>28.0</ele><time>2026-04-11T11:02:55.027Z</time></trkpt><trkpt lat="44.9015953" lon="10.5152943"><ele>28.000000000000004</ele><time>2026-04-11T11:02:55.978Z</time></trkpt><trkpt lat="44.9015336" lon="10.5153552"><ele>28.0</ele><time>2026-04-11T11:03:10.007Z</time></trkpt><trkpt lat="44.9014713" lon="10.5153861"><ele>28.0</ele><time>2026-04-11T11:03:21.069Z</time></trkpt><trkpt lat="44.901445" lon="10.5154669"><ele>28.0</ele><time>2026-04-11T11:03:35.949Z</time></trkpt><trkpt lat="44.9014648" lon="10.515555"><ele>28.000000000000004</ele><time>2026-04-11T11:04:42.979Z</time></trkpt><trkpt lat="44.9014504" lon="10.5156473"><ele>28.0</ele><time>2026-04-11T11:04:45.986Z</time></trkpt><trkpt lat="44.901475" lon="10.515895"><ele>28.000000000000004</ele><time>2026-04-11T11:09:39.947Z</time></trkpt><trkpt lat="44.9014667" lon="10.5159833"><ele>28.0</ele><time>2026-04-11T11:09:41.947Z</time></trkpt><trkpt lat="44.90148" lon="10.5161"><ele>28.0</ele><time>2026-04-11T11:09:43.947Z</time></trkpt><trkpt lat="44.90148" lon="10.5162283"><ele>28.0</ele><time>2026-04-11T11:09:45.947Z</time></trkpt><trkpt lat="44.90148" lon="10.51635"><ele>28.000000000000004</ele><time>2026-04-11T11:09:47.947Z</time></trkpt><trkpt lat="44.90148" lon="10.51647"><ele>28.0</ele><time>2026-04-11T11:09:49.947Z</time></trkpt><trkpt lat="44.9014867" lon="10.51659"><ele>27.599999999999998</ele><time>2026-04-11T11:09:51.947Z</time></trkpt><trkpt lat="44.9014967" lon="10.5167017"><ele>27.199999999999996</ele><time>2026-04-11T11:09:54.947Z</time></trkpt><trkpt lat="44.9014833" lon="10.516815"><ele>26.8</ele><time>2026-04-11T11:10:00.947Z</time></trkpt><trkpt lat="44.9014833" lon="10.51695"><ele>26.4</ele><time>2026-04-11T11:10:03.947Z</time></trkpt><trkpt lat="44.901485" lon="10.5170933"><ele>26.0</ele><time>2026-04-11T11:10:05.947Z</time></trkpt><trkpt lat="44.9015017" lon="10.5172333"><ele>25.8</ele><time>2026-04-11T11:10:07.947Z</time></trkpt><trkpt lat="44.901515" lon="10.51736"><ele>25.6</ele><time>2026-04-11T11:10:09.947Z</time></trkpt><trkpt lat="44.9015267" lon="10.5174533"><ele>25.4</ele><time>2026-04-11T11:10:11.947Z</time></trkpt><trkpt lat="44.9016217" lon="10.5175533"><ele>25.2</ele><time>2026-04-11T11:10:21.947Z</time></trkpt><trkpt lat="44.9017067" lon="10.5175417"><ele>25.0</ele><time>2026-04-11T11:10:23.947Z</time></trkpt><trkpt lat="44.9018033" lon="10.51753"><ele>25.000000000000004</ele><time>2026-04-11T11:10:25.947Z</time></trkpt><trkpt lat="44.9018917" lon="10.5175133"><ele>25.0</ele><time>2026-04-11T11:10:27.947Z</time></trkpt><trkpt lat="44.9019583" lon="10.5174633"><ele>25.0</ele><time>2026-04-11T11:10:29.947Z</time></trkpt><trkpt lat="44.90206" lon="10.5175183"><ele>25.0</ele><time>2026-04-11T11:10:36.946Z</time></trkpt><trkpt lat="44.9021033" lon="10.5175933"><ele>25.000000000000004</ele><time>2026-04-11T11:10:37.946Z</time></trkpt><trkpt lat="44.9021383" lon="10.51768"><ele>25.0</ele><time>2026-04-11T11:10:38.946Z</time></trkpt><trkpt lat="44.9021783" lon="10.5177817"><ele>25.000000000000004</ele><time>2026-04-11T11:10:39.946Z</time></trkpt><trkpt lat="44.9022183" lon="10.517895"><ele>25.0</ele><time>2026-04-11T11:10:40.946Z</time></trkpt><trkpt lat="44.9022617" lon="10.51799"><ele>25.0</ele><time>2026-04-11T11:10:41.946Z</time></trkpt><trkpt lat="44.9023167" lon="10.5180917"><ele>25.0</ele><time>2026-04-11T11:10:42.946Z</time></trkpt><trkpt lat="44.90237" lon="10.5182"><ele>25.000000000000004</ele><time>2026-04-11T11:10:43.946Z</time></trkpt><trkpt lat="44.90242" lon="10.5183117"><ele>25.0</ele><time>2026-04-11T11:10:44.946Z</time></trkpt><trkpt lat="44.9024667" lon="10.5184267"><ele>25.2</ele><time>2026-04-11T11:10:45.946Z</time></trkpt><trkpt lat="44.90251" lon="10.5185467"><ele>25.4</ele><time>2026-04-11T11:10:46.946Z</time></trkpt><trkpt lat="44.9025533" lon="10.5186767"><ele>25.6</ele><time>2026-04-11T11:10:47.945Z</time></trkpt><trkpt lat="44.9025917" lon="10.51882"><ele>25.8</ele><time>2026-04-11T11:10:48.946Z</time></trkpt><trkpt lat="44.9026133" lon="10.5189517"><ele>26.0</ele><time>2026-04-11T11:10:49.946Z</time></trkpt><trkpt lat="44.9026317" lon="10.51906"><ele>25.833333333333332</ele><time>2026-04-11T11:10:50.946Z</time></trkpt><trkpt lat="44.9026433" lon="10.5191667"><ele>25.666666666666664</ele><time>2026-04-11T11:10:51.946Z</time></trkpt><trkpt lat="44.902645" lon="10.5192667"><ele>25.5</ele><time>2026-04-11T11:10:52.946Z</time></trkpt><trkpt lat="44.9026467" lon="10.5193833"><ele>25.333333333333336</ele><time>2026-04-11T11:10:53.946Z</time></trkpt><trkpt lat="44.9026433" lon="10.51952"><ele>25.166666666666668</ele><time>2026-04-11T11:10:54.946Z</time></trkpt><trkpt lat="44.9026317" lon="10.5196883"><ele>25.0</ele><time>2026-04-11T11:10:55.946Z</time></trkpt><trkpt lat="44.9026133" lon="10.519885"><ele>25.0</ele><time>2026-04-11T11:10:56.946Z</time></trkpt><trkpt lat="44.9025917" lon="10.5201"><ele>25.0</ele><time>2026-04-11T11:10:57.946Z</time></trkpt><trkpt lat="44.902565" lon="10.5203317"><ele>25.0</ele><time>2026-04-11T11:10:58.946Z</time></trkpt><trkpt lat="44.90254" lon="10.5205683"><ele>25.0</ele><time>2026-04-11T11:10:59.946Z</time></trkpt><trkpt lat="44.902515" lon="10.5208267"><ele>25.0</ele><time>2026-04-11T11:11:00.946Z</time></trkpt><trkpt lat="44.9024933" lon="10.521085"><ele>25.0</ele><time>2026-04-11T11:11:01.946Z</time></trkpt><trkpt lat="44.902475" lon="10.5213267"><ele>25.0</ele><time>2026-04-11T11:11:02.946Z</time></trkpt><trkpt lat="44.9024633" lon="10.521565"><ele>25.0</ele><time>2026-04-11T11:11:03.946Z</time></trkpt><trkpt lat="44.90245" lon="10.5218017"><ele>25.0</ele><time>2026-04-11T11:11:04.946Z</time></trkpt><trkpt lat="44.902445" lon="10.5220367"><ele>25.0</ele><time>2026-04-11T11:11:05.946Z</time></trkpt><trkpt lat="44.90244" lon="10.5222717"><ele>25.0</ele><time>2026-04-11T11:11:06.946Z</time></trkpt><trkpt lat="44.9024367" lon="10.52251"><ele>25.0</ele><time>2026-04-11T11:11:07.946Z</time></trkpt><trkpt lat="44.9024317" lon="10.5227567"><ele>24.666666666666668</ele><time>2026-04-11T11:11:08.946Z</time></trkpt><trkpt lat="44.9024233" lon="10.52302"><ele>24.333333333333336</ele><time>2026-04-11T11:11:09.945Z</time></trkpt><trkpt lat="44.9024183" lon="10.5232867"><ele>24.0</ele><time>2026-04-11T11:11:10.946Z</time></trkpt><trkpt lat="44.9024083" lon="10.5235683"><ele>25.0</ele><time>2026-04-11T11:11:11.946Z</time></trkpt><trkpt lat="44.9023983" lon="10.5238467"><ele>26.0</ele><time>2026-04-11T11:11:12.946Z</time></trkpt><trkpt lat="44.9023933" lon="10.5241167"><ele>27.0</ele><time>2026-04-11T11:11:13.946Z</time></trkpt><trkpt lat="44.90239" lon="10.5243667"><ele>26.333333333333336</ele><time>2026-04-11T11:11:14.946Z</time></trkpt><trkpt lat="44.90238" lon="10.5246167"><ele>25.666666666666668</ele><time>2026-04-11T11:11:15.946Z</time></trkpt><trkpt lat="44.902365" lon="10.5248733"><ele>25.0</ele><time>2026-04-11T11:11:16.946Z</time></trkpt><trkpt lat="44.902355" lon="10.5251233"><ele>25.0</ele><time>2026-04-11T11:11:17.946Z</time></trkpt><trkpt lat="44.90234" lon="10.5253817"><ele>25.0</ele><time>2026-04-11T11:11:18.946Z</time></trkpt><trkpt lat="44.9023267" lon="10.5256267"><ele>25.0</ele><time>2026-04-11T11:11:19.946Z</time></trkpt><trkpt lat="44.90233" lon="10.52585"><ele>25.0</ele><time>2026-04-11T11:11:20.946Z</time></trkpt><trkpt lat="44.902345" lon="10.5260767"><ele>25.0</ele><time>2026-04-11T11:11:21.946Z</time></trkpt><trkpt lat="44.9023683" lon="10.526315"><ele>25.0</ele><time>2026-04-11T11:11:22.946Z</time></trkpt><trkpt lat="44.9023967" lon="10.5265583"><ele>25.0</ele><time>2026-04-11T11:11:23.946Z</time></trkpt><trkpt lat="44.9024283" lon="10.5268083"><ele>25.0</ele><time>2026-04-11T11:11:24.946Z</time></trkpt><trkpt lat="44.9024567" lon="10.527065"><ele>25.0</ele><time>2026-04-11T11:11:25.946Z</time></trkpt><trkpt lat="44.9024967" lon="10.527315"><ele>25.0</ele><time>2026-04-11T11:11:26.946Z</time></trkpt><trkpt lat="44.9025433" lon="10.52757"><ele>25.0</ele><time>2026-04-11T11:11:27.946Z</time></trkpt><trkpt lat="44.9026" lon="10.527815"><ele>25.0</ele><time>2026-04-11T11:11:28.946Z</time></trkpt><trkpt lat="44.9026667" lon="10.528055"><ele>25.0</ele><time>2026-04-11T11:11:29.946Z</time></trkpt><trkpt lat="44.902745" lon="10.5282867"><ele>25.0</ele><time>2026-04-11T11:11:30.946Z</time></trkpt><trkpt lat="44.90283" lon="10.5285233"><ele>25.0</ele><time>2026-04-11T11:11:31.945Z</time></trkpt><trkpt lat="44.902925" lon="10.528755"><ele>24.666666666666668</ele><time>2026-04-11T11:11:32.946Z</time></trkpt><trkpt lat="44.9030267" lon="10.5289883"><ele>24.333333333333336</ele><time>2026-04-11T11:11:33.946Z</time></trkpt><trkpt lat="44.903125" lon="10.5292167"><ele>24.0</ele><time>2026-04-11T11:11:34.946Z</time></trkpt><trkpt lat="44.9032217" lon="10.5294233"><ele>24.0</ele><time>2026-04-11T11:11:35.946Z</time></trkpt><trkpt lat="44.9033167" lon="10.5296283"><ele>24.0</ele><time>2026-04-11T11:11:36.946Z</time></trkpt><trkpt lat="44.90341" lon="10.5298333"><ele>24.0</ele><time>2026-04-11T11:11:37.946Z</time></trkpt><trkpt lat="44.9035067" lon="10.5300367"><ele>24.0</ele><time>2026-04-11T11:11:38.946Z</time></trkpt><trkpt lat="44.9036017" lon="10.53025"><ele>24.0</ele><time>2026-04-11T11:11:39.945Z</time></trkpt><trkpt lat="44.9037017" lon="10.53046"><ele>24.0</ele><time>2026-04-11T11:11:40.946Z</time></trkpt><trkpt lat="44.9038" lon="10.5306683"><ele>24.0</ele><time>2026-04-11T11:11:41.946Z</time></trkpt><trkpt lat="44.9038967" lon="10.5308883"><ele>24.0</ele><time>2026-04-11T11:11:42.946Z</time></trkpt><trkpt lat="44.9040017" lon="10.5311017"><ele>24.0</ele><time>2026-04-11T11:11:43.946Z</time></trkpt><trkpt lat="44.9041067" lon="10.5313067"><ele>24.0</ele><time>2026-04-11T11:11:44.946Z</time></trkpt><trkpt lat="44.90422" lon="10.531505"><ele>24.0</ele><time>2026-04-11T11:11:45.946Z</time></trkpt><trkpt lat="44.90434" lon="10.531695"><ele>24.0</ele><time>2026-04-11T11:11:46.946Z</time></trkpt><trkpt lat="44.9044617" lon="10.531885"><ele>24.666666666666664</ele><time>2026-04-11T11:11:47.946Z</time></trkpt><trkpt lat="44.9045867" lon="10.532075"><ele>25.333333333333332</ele><time>2026-04-11T11:11:48.946Z</time></trkpt><trkpt lat="44.9047167" lon="10.5322617"><ele>26.0</ele><time>2026-04-11T11:11:49.946Z</time></trkpt><trkpt lat="44.9048417" lon="10.532445"><ele>26.0</ele><time>2026-04-11T11:11:50.946Z</time></trkpt><trkpt lat="44.9049733" lon="10.532645"><ele>26.0</ele><time>2026-04-11T11:11:51.946Z</time></trkpt><trkpt lat="44.9051067" lon="10.532835"><ele>26.0</ele><time>2026-04-11T11:11:52.946Z</time></trkpt><trkpt lat="44.9052333" lon="10.5330367"><ele>25.666666666666664</ele><time>2026-04-11T11:11:53.946Z</time></trkpt><trkpt lat="44.9053583" lon="10.5332317"><ele>25.333333333333336</ele><time>2026-04-11T11:11:54.946Z</time></trkpt><trkpt lat="44.9054633" lon="10.5334033"><ele>25.0</ele><time>2026-04-11T11:11:55.946Z</time></trkpt><trkpt lat="44.9055633" lon="10.533575"><ele>25.333333333333336</ele><time>2026-04-11T11:11:56.945Z</time></trkpt><trkpt lat="44.9056433" lon="10.5337583"><ele>25.666666666666664</ele><time>2026-04-11T11:11:57.946Z</time></trkpt><trkpt lat="44.905705" lon="10.53396"><ele>26.0</ele><time>2026-04-11T11:11:58.945Z</time></trkpt><trkpt lat="44.9057467" lon="10.5341767"><ele>26.0</ele><time>2026-04-11T11:11:59.946Z</time></trkpt><trkpt lat="44.9057883" lon="10.534405"><ele>26.0</ele><time>2026-04-11T11:12:00.946Z</time></trkpt><trkpt lat="44.9058167" lon="10.5346433"><ele>26.0</ele><time>2026-04-11T11:12:01.946Z</time></trkpt><trkpt lat="44.9058567" lon="10.5348917"><ele>25.666666666666664</ele><time>2026-04-11T11:12:02.946Z</time></trkpt><trkpt lat="44.905905" lon="10.5351367"><ele>25.333333333333336</ele><time>2026-04-11T11:12:03.946Z</time></trkpt><trkpt lat="44.9059583" lon="10.5353833"><ele>25.0</ele><time>2026-04-11T11:12:04.946Z</time></trkpt><trkpt lat="44.906025" lon="10.535615"><ele>25.666666666666668</ele><time>2026-04-11T11:12:05.946Z</time></trkpt><trkpt lat="44.9061033" lon="10.5358417"><ele>26.333333333333336</ele><time>2026-04-11T11:12:06.946Z</time></trkpt><trkpt lat="44.9061883" lon="10.53605"><ele>27.0</ele><time>2026-04-11T11:12:07.946Z</time></trkpt><trkpt lat="44.90629" lon="10.5362333"><ele>27.0</ele><time>2026-04-11T11:12:08.945Z</time></trkpt><trkpt lat="44.90639" lon="10.536405"><ele>27.0</ele><time>2026-04-11T11:12:09.945Z</time></trkpt><trkpt lat="44.9064883" lon="10.536555"><ele>27.0</ele><time>2026-04-11T11:12:10.946Z</time></trkpt><trkpt lat="44.9065717" lon="10.5367"><ele>27.0</ele><time>2026-04-11T11:12:11.946Z</time></trkpt><trkpt lat="44.9066517" lon="10.5368317"><ele>27.0</ele><time>2026-04-11T11:12:12.945Z</time></trkpt><trkpt lat="44.906725" lon="10.5369633"><ele>27.000000000000004</ele><time>2026-04-11T11:12:13.946Z</time></trkpt><trkpt lat="44.9067967" lon="10.5370867"><ele>27.000000000000004</ele><time>2026-04-11T11:12:14.946Z</time></trkpt><trkpt lat="44.9068583" lon="10.5371967"><ele>27.0</ele><time>2026-04-11T11:12:15.946Z</time></trkpt><trkpt lat="44.906915" lon="10.5373033"><ele>27.0</ele><time>2026-04-11T11:12:16.946Z</time></trkpt><trkpt lat="44.9069567" lon="10.53742"><ele>26.666666666666668</ele><time>2026-04-11T11:12:17.946Z</time></trkpt><trkpt lat="44.9069917" lon="10.5375467"><ele>26.333333333333336</ele><time>2026-04-11T11:12:18.946Z</time></trkpt><trkpt lat="44.9070233" lon="10.5376717"><ele>26.0</ele><time>2026-04-11T11:12:19.945Z</time></trkpt><trkpt lat="44.90706" lon="10.53779"><ele>25.666666666666668</ele><time>2026-04-11T11:12:20.946Z</time></trkpt><trkpt lat="44.9071067" lon="10.5378817"><ele>25.333333333333336</ele><time>2026-04-11T11:12:21.946Z</time></trkpt><trkpt lat="44.9071667" lon="10.5379417"><ele>25.0</ele><time>2026-04-11T11:12:22.946Z</time></trkpt><trkpt lat="44.9072783" lon="10.5379233"><ele>24.8</ele><time>2026-04-11T11:12:24.946Z</time></trkpt><trkpt lat="44.9073367" lon="10.5378467"><ele>24.6</ele><time>2026-04-11T11:12:25.946Z</time></trkpt><trkpt lat="44.9073933" lon="10.5377533"><ele>24.4</ele><time>2026-04-11T11:12:26.946Z</time></trkpt><trkpt lat="44.90746" lon="10.5376717"><ele>24.2</ele><time>2026-04-11T11:12:27.946Z</time></trkpt><trkpt lat="44.9075617" lon="10.5375933"><ele>24.0</ele><time>2026-04-11T11:12:28.946Z</time></trkpt><trkpt lat="44.9076833" lon="10.537525"><ele>24.666666666666664</ele><time>2026-04-11T11:12:29.945Z</time></trkpt><trkpt lat="44.907945" lon="10.537435"><ele>25.333333333333332</ele><time>2026-04-11T11:12:31.946Z</time></trkpt><trkpt lat="44.9080933" lon="10.5373933"><ele>26.0</ele><time>2026-04-11T11:12:32.945Z</time></trkpt><trkpt lat="44.9082433" lon="10.5373517"><ele>26.0</ele><time>2026-04-11T11:12:33.945Z</time></trkpt><trkpt lat="44.9083967" lon="10.5373133"><ele>26.0</ele><time>2026-04-11T11:12:34.945Z</time></trkpt><trkpt lat="44.9085683" lon="10.5372717"><ele>26.0</ele><time>2026-04-11T11:12:35.946Z</time></trkpt><trkpt lat="44.908745" lon="10.5372283"><ele>25.666666666666664</ele><time>2026-04-11T11:12:36.946Z</time></trkpt><trkpt lat="44.9089267" lon="10.537185"><ele>25.333333333333336</ele><time>2026-04-11T11:12:37.946Z</time></trkpt><trkpt lat="44.9091167" lon="10.537145"><ele>25.0</ele><time>2026-04-11T11:12:38.946Z</time></trkpt><trkpt lat="44.9093067" lon="10.537095"><ele>23.0</ele><time>2026-04-11T11:12:39.946Z</time></trkpt><trkpt lat="44.9098867" lon="10.5369483"><ele>21.0</ele><time>2026-04-11T11:12:42.946Z</time></trkpt><trkpt lat="44.9100767" lon="10.5368917"><ele>19.0</ele><time>2026-04-11T11:12:43.946Z</time></trkpt><trkpt lat="44.9104667" lon="10.5367883"><ele>19.0</ele><time>2026-04-11T11:12:45.946Z</time></trkpt><trkpt lat="44.9106617" lon="10.5367517"><ele>19.0</ele><time>2026-04-11T11:12:46.945Z</time></trkpt><trkpt lat="44.910855" lon="10.5367017"><ele>19.0</ele><time>2026-04-11T11:12:47.946Z</time></trkpt><trkpt lat="44.9110467" lon="10.536645"><ele>19.0</ele><time>2026-04-11T11:12:48.946Z</time></trkpt><trkpt lat="44.9112417" lon="10.53659"><ele>19.0</ele><time>2026-04-11T11:12:49.946Z</time></trkpt><trkpt lat="44.911635" lon="10.53649"><ele>19.0</ele><time>2026-04-11T11:12:51.946Z</time></trkpt><trkpt lat="44.9118333" lon="10.5364433"><ele>19.0</ele><time>2026-04-11T11:12:52.946Z</time></trkpt><trkpt lat="44.91203" lon="10.5363917"><ele>19.0</ele><time>2026-04-11T11:12:53.945Z</time></trkpt><trkpt lat="44.91222" lon="10.5363367"><ele>19.0</ele><time>2026-04-11T11:12:54.946Z</time></trkpt><trkpt lat="44.9124133" lon="10.5362867"><ele>19.0</ele><time>2026-04-11T11:12:55.946Z</time></trkpt><trkpt lat="44.9126067" lon="10.5362367"><ele>19.0</ele><time>2026-04-11T11:12:56.946Z</time></trkpt><trkpt lat="44.912795" lon="10.5361967"><ele>19.0</ele><time>2026-04-11T11:12:57.946Z</time></trkpt><trkpt lat="44.91299" lon="10.5361467"><ele>19.0</ele><time>2026-04-11T11:12:58.946Z</time></trkpt><trkpt lat="44.9131783" lon="10.5360967"><ele>19.0</ele><time>2026-04-11T11:12:59.946Z</time></trkpt><trkpt lat="44.91337" lon="10.5360517"><ele>21.666666666666664</ele><time>2026-04-11T11:13:00.946Z</time></trkpt><trkpt lat="44.9135633" lon="10.536"><ele>24.333333333333332</ele><time>2026-04-11T11:13:01.946Z</time></trkpt><trkpt lat="44.9137617" lon="10.5359433"><ele>27.0</ele><time>2026-04-11T11:13:02.946Z</time></trkpt><trkpt lat="44.913955" lon="10.535895"><ele>27.0</ele><time>2026-04-11T11:13:03.946Z</time></trkpt><trkpt lat="44.9141533" lon="10.535845"><ele>27.0</ele><time>2026-04-11T11:13:04.946Z</time></trkpt><trkpt lat="44.91434" lon="10.5357933"><ele>27.0</ele><time>2026-04-11T11:13:05.946Z</time></trkpt><trkpt lat="44.9145267" lon="10.5357433"><ele>27.333333333333336</ele><time>2026-04-11T11:13:06.945Z</time></trkpt><trkpt lat="44.914715" lon="10.5356983"><ele>27.666666666666668</ele><time>2026-04-11T11:13:07.946Z</time></trkpt><trkpt lat="44.9149083" lon="10.535645"><ele>28.0</ele><time>2026-04-11T11:13:08.946Z</time></trkpt><trkpt lat="44.9151017" lon="10.535595"><ele>28.0</ele><time>2026-04-11T11:13:09.945Z</time></trkpt><trkpt lat="44.9152967" lon="10.5355433"><ele>28.0</ele><time>2026-04-11T11:13:10.946Z</time></trkpt><trkpt lat="44.9154933" lon="10.5354917"><ele>28.0</ele><time>2026-04-11T11:13:11.946Z</time></trkpt><trkpt lat="44.91569" lon="10.5354333"><ele>27.666666666666668</ele><time>2026-04-11T11:13:12.946Z</time></trkpt><trkpt lat="44.9158917" lon="10.5353783"><ele>27.333333333333336</ele><time>2026-04-11T11:13:13.946Z</time></trkpt><trkpt lat="44.91609" lon="10.5353183"><ele>27.0</ele><time>2026-04-11T11:13:14.946Z</time></trkpt><trkpt lat="44.9163" lon="10.5352817"><ele>26.666666666666664</ele><time>2026-04-11T11:13:15.946Z</time></trkpt><trkpt lat="44.9165083" lon="10.535235"><ele>26.333333333333332</ele><time>2026-04-11T11:13:16.946Z</time></trkpt><trkpt lat="44.9167233" lon="10.535185"><ele>26.0</ele><time>2026-04-11T11:13:17.946Z</time></trkpt><trkpt lat="44.916935" lon="10.5351283"><ele>26.0</ele><time>2026-04-11T11:13:18.946Z</time></trkpt><trkpt lat="44.9171483" lon="10.5350767"><ele>26.0</ele><time>2026-04-11T11:13:19.946Z</time></trkpt><trkpt lat="44.9173617" lon="10.5350133"><ele>26.0</ele><time>2026-04-11T11:13:20.946Z</time></trkpt><trkpt lat="44.9175767" lon="10.53494"><ele>25.5</ele><time>2026-04-11T11:13:21.946Z</time></trkpt><trkpt lat="44.9177967" lon="10.5348933"><ele>25.0</ele><time>2026-04-11T11:13:22.946Z</time></trkpt><trkpt lat="44.9180217" lon="10.53484"><ele>25.0</ele><time>2026-04-11T11:13:23.946Z</time></trkpt><trkpt lat="44.918255" lon="10.534795"><ele>25.0</ele><time>2026-04-11T11:13:24.946Z</time></trkpt><trkpt lat="44.9184667" lon="10.5347283"><ele>24.5</ele><time>2026-04-11T11:13:25.945Z</time></trkpt><trkpt lat="44.9186867" lon="10.5346633"><ele>24.0</ele><time>2026-04-11T11:13:26.946Z</time></trkpt><trkpt lat="44.9189133" lon="10.5346067"><ele>24.5</ele><time>2026-04-11T11:13:27.946Z</time></trkpt><trkpt lat="44.919135" lon="10.5345517"><ele>25.0</ele><time>2026-04-11T11:13:28.945Z</time></trkpt><trkpt lat="44.9193583" lon="10.534495"><ele>25.5</ele><time>2026-04-11T11:13:29.945Z</time></trkpt><trkpt lat="44.91959" lon="10.5344367"><ele>26.0</ele><time>2026-04-11T11:13:30.945Z</time></trkpt><trkpt lat="44.919825" lon="10.53438"><ele>26.0</ele><time>2026-04-11T11:13:31.945Z</time></trkpt><trkpt lat="44.92006" lon="10.5343217"><ele>26.0</ele><time>2026-04-11T11:13:32.945Z</time></trkpt><trkpt lat="44.9202883" lon="10.5342583"><ele>27.0</ele><time>2026-04-11T11:13:33.944Z</time></trkpt><trkpt lat="44.920515" lon="10.5341933"><ele>28.0</ele><time>2026-04-11T11:13:34.944Z</time></trkpt><trkpt lat="44.92074" lon="10.53412"><ele>27.5</ele><time>2026-04-11T11:13:35.945Z</time></trkpt><trkpt lat="44.92096" lon="10.534035"><ele>27.0</ele><time>2026-04-11T11:13:36.945Z</time></trkpt><trkpt lat="44.9211733" lon="10.53394"><ele>27.0</ele><time>2026-04-11T11:13:37.945Z</time></trkpt><trkpt lat="44.921385" lon="10.533825"><ele>27.0</ele><time>2026-04-11T11:13:38.945Z</time></trkpt><trkpt lat="44.92159" lon="10.5336917"><ele>26.5</ele><time>2026-04-11T11:13:39.945Z</time></trkpt><trkpt lat="44.9217933" lon="10.5335517"><ele>26.0</ele><time>2026-04-11T11:13:40.945Z</time></trkpt><trkpt lat="44.92199" lon="10.5333983"><ele>26.0</ele><time>2026-04-11T11:13:41.945Z</time></trkpt><trkpt lat="44.92218" lon="10.53323"><ele>26.0</ele><time>2026-04-11T11:13:42.945Z</time></trkpt><trkpt lat="44.9223633" lon="10.533045"><ele>26.0</ele><time>2026-04-11T11:13:43.945Z</time></trkpt><trkpt lat="44.9225367" lon="10.5328433"><ele>26.0</ele><time>2026-04-11T11:13:44.945Z</time></trkpt><trkpt lat="44.9227083" lon="10.5326317"><ele>26.0</ele><time>2026-04-11T11:13:45.945Z</time></trkpt><trkpt lat="44.9228717" lon="10.5324083"><ele>26.0</ele><time>2026-04-11T11:13:46.945Z</time></trkpt><trkpt lat="44.9230217" lon="10.5321717"><ele>26.333333333333332</ele><time>2026-04-11T11:13:47.945Z</time></trkpt><trkpt lat="44.923165" lon="10.5319267"><ele>26.666666666666664</ele><time>2026-04-11T11:13:48.945Z</time></trkpt><trkpt lat="44.9233033" lon="10.53168"><ele>27.0</ele><time>2026-04-11T11:13:49.945Z</time></trkpt><trkpt lat="44.923435" lon="10.5314233"><ele>27.0</ele><time>2026-04-11T11:13:50.945Z</time></trkpt><trkpt lat="44.9235533" lon="10.5311633"><ele>27.0</ele><time>2026-04-11T11:13:51.945Z</time></trkpt><trkpt lat="44.9236667" lon="10.53089"><ele>27.0</ele><time>2026-04-11T11:13:52.945Z</time></trkpt><trkpt lat="44.923765" lon="10.530605"><ele>27.666666666666664</ele><time>2026-04-11T11:13:53.945Z</time></trkpt><trkpt lat="44.92385" lon="10.5303183"><ele>28.333333333333332</ele><time>2026-04-11T11:13:54.945Z</time></trkpt><trkpt lat="44.92393" lon="10.53004"><ele>29.0</ele><time>2026-04-11T11:13:55.945Z</time></trkpt><trkpt lat="44.9240017" lon="10.5297533"><ele>28.333333333333332</ele><time>2026-04-11T11:13:56.945Z</time></trkpt><trkpt lat="44.924055" lon="10.5294467"><ele>27.666666666666664</ele><time>2026-04-11T11:13:57.945Z</time></trkpt><trkpt lat="44.9241" lon="10.5291417"><ele>27.0</ele><time>2026-04-11T11:13:58.945Z</time></trkpt><trkpt lat="44.924135" lon="10.5288333"><ele>26.0</ele><time>2026-04-11T11:13:59.944Z</time></trkpt><trkpt lat="44.9241617" lon="10.5285217"><ele>25.0</ele><time>2026-04-11T11:14:00.945Z</time></trkpt><trkpt lat="44.9241817" lon="10.5282117"><ele>24.0</ele><time>2026-04-11T11:14:01.945Z</time></trkpt><trkpt lat="44.9241783" lon="10.5279133"><ele>24.0</ele><time>2026-04-11T11:14:02.945Z</time></trkpt><trkpt lat="44.92417" lon="10.5276017"><ele>24.0</ele><time>2026-04-11T11:14:03.945Z</time></trkpt><trkpt lat="44.924155" lon="10.5273067"><ele>24.0</ele><time>2026-04-11T11:14:04.945Z</time></trkpt><trkpt lat="44.924135" lon="10.527"><ele>24.666666666666664</ele><time>2026-04-11T11:14:05.945Z</time></trkpt><trkpt lat="44.9240967" lon="10.5267233"><ele>25.333333333333332</ele><time>2026-04-11T11:14:06.944Z</time></trkpt><trkpt lat="44.92406" lon="10.5264517"><ele>26.0</ele><time>2026-04-11T11:14:07.945Z</time></trkpt><trkpt lat="44.9240233" lon="10.5261833"><ele>26.333333333333332</ele><time>2026-04-11T11:14:08.945Z</time></trkpt><trkpt lat="44.9239967" lon="10.5259683"><ele>26.666666666666664</ele><time>2026-04-11T11:14:09.945Z</time></trkpt><trkpt lat="44.92397" lon="10.5257517"><ele>27.0</ele><time>2026-04-11T11:14:10.945Z</time></trkpt><trkpt lat="44.9239467" lon="10.5255317"><ele>26.25</ele><time>2026-04-11T11:14:11.945Z</time></trkpt><trkpt lat="44.9239167" lon="10.5253333"><ele>25.5</ele><time>2026-04-11T11:14:12.945Z</time></trkpt><trkpt lat="44.923885" lon="10.525135"><ele>24.75</ele><time>2026-04-11T11:14:13.945Z</time></trkpt><trkpt lat="44.923855" lon="10.52495"><ele>24.0</ele><time>2026-04-11T11:14:14.945Z</time></trkpt><trkpt lat="44.9238317" lon="10.524785"><ele>24.0</ele><time>2026-04-11T11:14:15.945Z</time></trkpt><trkpt lat="44.9238117" lon="10.5246217"><ele>24.0</ele><time>2026-04-11T11:14:16.945Z</time></trkpt><trkpt lat="44.92379" lon="10.5244733"><ele>24.0</ele><time>2026-04-11T11:14:17.945Z</time></trkpt><trkpt lat="44.9237683" lon="10.5243417"><ele>24.0</ele><time>2026-04-11T11:14:18.945Z</time></trkpt><trkpt lat="44.9237533" lon="10.5242267"><ele>24.0</ele><time>2026-04-11T11:14:19.945Z</time></trkpt><trkpt lat="44.923735" lon="10.52412"><ele>24.333333333333332</ele><time>2026-04-11T11:14:20.945Z</time></trkpt><trkpt lat="44.923725" lon="10.5240233"><ele>24.666666666666664</ele><time>2026-04-11T11:14:21.945Z</time></trkpt><trkpt lat="44.9237133" lon="10.5238817"><ele>25.0</ele><time>2026-04-11T11:14:23.945Z</time></trkpt><trkpt lat="44.923705" lon="10.5237633"><ele>25.333333333333332</ele><time>2026-04-11T11:14:26.944Z</time></trkpt><trkpt lat="44.9236733" lon="10.5236417"><ele>25.666666666666664</ele><time>2026-04-11T11:14:51.945Z</time></trkpt><trkpt lat="44.9236617" lon="10.5235517"><ele>26.0</ele><time>2026-04-11T11:14:52.945Z</time></trkpt><trkpt lat="44.923645" lon="10.5234533"><ele>26.200000000000003</ele><time>2026-04-11T11:14:53.945Z</time></trkpt><trkpt lat="44.9236267" lon="10.5233567"><ele>26.400000000000002</ele><time>2026-04-11T11:14:54.945Z</time></trkpt><trkpt lat="44.923605" lon="10.52324"><ele>26.6</ele><time>2026-04-11T11:14:55.945Z</time></trkpt><trkpt lat="44.92358" lon="10.5230933"><ele>26.8</ele><time>2026-04-11T11:14:56.945Z</time></trkpt><trkpt lat="44.9235517" lon="10.522915"><ele>27.0</ele><time>2026-04-11T11:14:57.945Z</time></trkpt><trkpt lat="44.9235233" lon="10.52273"><ele>27.0</ele><time>2026-04-11T11:14:58.944Z</time></trkpt><trkpt lat="44.9235" lon="10.522555"><ele>27.0</ele><time>2026-04-11T11:14:59.945Z</time></trkpt><trkpt lat="44.92348" lon="10.5223717"><ele>27.0</ele><time>2026-04-11T11:15:00.945Z</time></trkpt><trkpt lat="44.92346" lon="10.52218"><ele>27.0</ele><time>2026-04-11T11:15:01.945Z</time></trkpt><trkpt lat="44.9234333" lon="10.52199"><ele>26.75</ele><time>2026-04-11T11:15:02.945Z</time></trkpt><trkpt lat="44.923415" lon="10.5218017"><ele>26.5</ele><time>2026-04-11T11:15:03.945Z</time></trkpt><trkpt lat="44.9233983" lon="10.5216133"><ele>26.25</ele><time>2026-04-11T11:15:04.945Z</time></trkpt><trkpt lat="44.9233883" lon="10.5214267"><ele>26.0</ele><time>2026-04-11T11:15:05.945Z</time></trkpt><trkpt lat="44.92338" lon="10.521235"><ele>26.0</ele><time>2026-04-11T11:15:06.945Z</time></trkpt><trkpt lat="44.9233833" lon="10.5210467"><ele>26.0</ele><time>2026-04-11T11:15:07.945Z</time></trkpt><trkpt lat="44.92339" lon="10.520855"><ele>26.0</ele><time>2026-04-11T11:15:08.944Z</time></trkpt><trkpt lat="44.9234033" lon="10.5206617"><ele>26.0</ele><time>2026-04-11T11:15:09.945Z</time></trkpt><trkpt lat="44.9234217" lon="10.5204667"><ele>25.666666666666664</ele><time>2026-04-11T11:15:10.945Z</time></trkpt><trkpt lat="44.9234567" lon="10.5202533"><ele>25.333333333333336</ele><time>2026-04-11T11:15:11.945Z</time></trkpt><trkpt lat="44.9234833" lon="10.52001"><ele>25.0</ele><time>2026-04-11T11:15:12.945Z</time></trkpt><trkpt lat="44.9235217" lon="10.5197683"><ele>25.333333333333336</ele><time>2026-04-11T11:15:13.945Z</time></trkpt><trkpt lat="44.9235667" lon="10.5195217"><ele>25.666666666666664</ele><time>2026-04-11T11:15:14.945Z</time></trkpt><trkpt lat="44.92362" lon="10.5192767"><ele>26.0</ele><time>2026-04-11T11:15:15.945Z</time></trkpt><trkpt lat="44.9236783" lon="10.5190433"><ele>26.0</ele><time>2026-04-11T11:15:16.945Z</time></trkpt><trkpt lat="44.9237483" lon="10.5188033"><ele>26.0</ele><time>2026-04-11T11:15:17.944Z</time></trkpt><trkpt lat="44.923815" lon="10.518575"><ele>26.0</ele><time>2026-04-11T11:15:18.945Z</time></trkpt><trkpt lat="44.9238733" lon="10.5183633"><ele>26.0</ele><time>2026-04-11T11:15:19.945Z</time></trkpt><trkpt lat="44.923935" lon="10.5181517"><ele>26.0</ele><time>2026-04-11T11:15:20.945Z</time></trkpt><trkpt lat="44.9239983" lon="10.51796"><ele>26.0</ele><time>2026-04-11T11:15:21.945Z</time></trkpt><trkpt lat="44.9240667" lon="10.517755"><ele>26.0</ele><time>2026-04-11T11:15:22.945Z</time></trkpt><trkpt lat="44.9241217" lon="10.5175467"><ele>26.0</ele><time>2026-04-11T11:15:23.945Z</time></trkpt><trkpt lat="44.92418" lon="10.51733"><ele>26.0</ele><time>2026-04-11T11:15:24.945Z</time></trkpt><trkpt lat="44.9242567" lon="10.5171167"><ele>26.0</ele><time>2026-04-11T11:15:25.945Z</time></trkpt><trkpt lat="44.9243167" lon="10.5169133"><ele>26.0</ele><time>2026-04-11T11:15:26.945Z</time></trkpt><trkpt lat="44.9243817" lon="10.51671"><ele>26.0</ele><time>2026-04-11T11:15:27.945Z</time></trkpt><trkpt lat="44.924445" lon="10.5165117"><ele>26.0</ele><time>2026-04-11T11:15:28.945Z</time></trkpt><trkpt lat="44.92451" lon="10.5163067"><ele>26.0</ele><time>2026-04-11T11:15:29.945Z</time></trkpt><trkpt lat="44.92456" lon="10.5161033"><ele>26.0</ele><time>2026-04-11T11:15:30.945Z</time></trkpt><trkpt lat="44.9246167" lon="10.5159217"><ele>26.0</ele><time>2026-04-11T11:15:31.944Z</time></trkpt><trkpt lat="44.924665" lon="10.51574"><ele>26.0</ele><time>2026-04-11T11:15:32.944Z</time></trkpt><trkpt lat="44.9247183" lon="10.5155767"><ele>26.0</ele><time>2026-04-11T11:15:33.945Z</time></trkpt><trkpt lat="44.9247517" lon="10.51545"><ele>26.0</ele><time>2026-04-11T11:15:34.945Z</time></trkpt><trkpt lat="44.92479" lon="10.5153183"><ele>25.75</ele><time>2026-04-11T11:15:35.945Z</time></trkpt><trkpt lat="44.9248333" lon="10.5151933"><ele>25.5</ele><time>2026-04-11T11:15:36.945Z</time></trkpt><trkpt lat="44.9248717" lon="10.51505"><ele>25.25</ele><time>2026-04-11T11:15:37.944Z</time></trkpt><trkpt lat="44.9249233" lon="10.514895"><ele>25.0</ele><time>2026-04-11T11:15:38.945Z</time></trkpt><trkpt lat="44.9249683" lon="10.5147217"><ele>25.0</ele><time>2026-04-11T11:15:39.945Z</time></trkpt><trkpt lat="44.9250217" lon="10.5145317"><ele>25.0</ele><time>2026-04-11T11:15:40.945Z</time></trkpt><trkpt lat="44.925085" lon="10.5143267"><ele>25.0</ele><time>2026-04-11T11:15:41.944Z</time></trkpt><trkpt lat="44.9251533" lon="10.5141317"><ele>25.0</ele><time>2026-04-11T11:15:42.945Z</time></trkpt><trkpt lat="44.9252233" lon="10.5139267"><ele>25.0</ele><time>2026-04-11T11:15:43.944Z</time></trkpt><trkpt lat="44.925285" lon="10.5137233"><ele>25.0</ele><time>2026-04-11T11:15:44.945Z</time></trkpt><trkpt lat="44.9253417" lon="10.5135333"><ele>25.0</ele><time>2026-04-11T11:15:45.945Z</time></trkpt><trkpt lat="44.92539" lon="10.513345"><ele>25.0</ele><time>2026-04-11T11:15:46.945Z</time></trkpt><trkpt lat="44.9254483" lon="10.5131533"><ele>25.0</ele><time>2026-04-11T11:15:47.945Z</time></trkpt><trkpt lat="44.9255117" lon="10.5129383"><ele>24.666666666666668</ele><time>2026-04-11T11:15:48.945Z</time></trkpt><trkpt lat="44.9255767" lon="10.5127"><ele>24.333333333333336</ele><time>2026-04-11T11:15:49.945Z</time></trkpt><trkpt lat="44.9256417" lon="10.512475"><ele>24.0</ele><time>2026-04-11T11:15:50.944Z</time></trkpt><trkpt lat="44.9257017" lon="10.5122667"><ele>24.333333333333336</ele><time>2026-04-11T11:15:51.945Z</time></trkpt><trkpt lat="44.9257517" lon="10.5120533"><ele>24.666666666666668</ele><time>2026-04-11T11:15:52.945Z</time></trkpt><trkpt lat="44.9258117" lon="10.511855"><ele>25.0</ele><time>2026-04-11T11:15:53.945Z</time></trkpt><trkpt lat="44.9258667" lon="10.511645"><ele>25.333333333333336</ele><time>2026-04-11T11:15:54.944Z</time></trkpt><trkpt lat="44.9259167" lon="10.511435"><ele>25.666666666666664</ele><time>2026-04-11T11:15:55.945Z</time></trkpt><trkpt lat="44.9259667" lon="10.51122"><ele>26.0</ele><time>2026-04-11T11:15:56.945Z</time></trkpt><trkpt lat="44.9260217" lon="10.51102"><ele>26.0</ele><time>2026-04-11T11:15:57.945Z</time></trkpt><trkpt lat="44.926095" lon="10.5108233"><ele>26.0</ele><time>2026-04-11T11:15:58.945Z</time></trkpt><trkpt lat="44.92618" lon="10.5106283"><ele>26.0</ele><time>2026-04-11T11:15:59.945Z</time></trkpt><trkpt lat="44.9262717" lon="10.5104283"><ele>26.0</ele><time>2026-04-11T11:16:00.945Z</time></trkpt><trkpt lat="44.9263633" lon="10.5102333"><ele>26.0</ele><time>2026-04-11T11:16:01.945Z</time></trkpt><trkpt lat="44.9264517" lon="10.5100483"><ele>26.0</ele><time>2026-04-11T11:16:02.945Z</time></trkpt><trkpt lat="44.92655" lon="10.509875"><ele>26.0</ele><time>2026-04-11T11:16:03.945Z</time></trkpt><trkpt lat="44.926655" lon="10.5097"><ele>26.0</ele><time>2026-04-11T11:16:04.945Z</time></trkpt><trkpt lat="44.9267617" lon="10.5095233"><ele>26.0</ele><time>2026-04-11T11:16:05.945Z</time></trkpt><trkpt lat="44.926865" lon="10.5093367"><ele>26.0</ele><time>2026-04-11T11:16:06.945Z</time></trkpt><trkpt lat="44.9269733" lon="10.5091483"><ele>26.0</ele><time>2026-04-11T11:16:07.945Z</time></trkpt><trkpt lat="44.9270833" lon="10.5089567"><ele>26.0</ele><time>2026-04-11T11:16:08.945Z</time></trkpt><trkpt lat="44.9272017" lon="10.5087617"><ele>26.0</ele><time>2026-04-11T11:16:09.945Z</time></trkpt><trkpt lat="44.9273217" lon="10.5085633"><ele>26.0</ele><time>2026-04-11T11:16:10.945Z</time></trkpt><trkpt lat="44.92744" lon="10.508365"><ele>26.0</ele><time>2026-04-11T11:16:11.945Z</time></trkpt><trkpt lat="44.927555" lon="10.50817"><ele>25.333333333333332</ele><time>2026-04-11T11:16:12.945Z</time></trkpt><trkpt lat="44.9276667" lon="10.5079767"><ele>24.666666666666664</ele><time>2026-04-11T11:16:13.945Z</time></trkpt><trkpt lat="44.9277783" lon="10.507785"><ele>24.0</ele><time>2026-04-11T11:16:14.945Z</time></trkpt><trkpt lat="44.9278883" lon="10.5075767"><ele>23.666666666666668</ele><time>2026-04-11T11:16:15.945Z</time></trkpt><trkpt lat="44.9279967" lon="10.5073767"><ele>23.333333333333336</ele><time>2026-04-11T11:16:16.945Z</time></trkpt><trkpt lat="44.9281117" lon="10.5071667"><ele>23.0</ele><time>2026-04-11T11:16:17.945Z</time></trkpt><trkpt lat="44.928225" lon="10.5069617"><ele>23.0</ele><time>2026-04-11T11:16:18.945Z</time></trkpt><trkpt lat="44.9283417" lon="10.50675"><ele>23.0</ele><time>2026-04-11T11:16:19.945Z</time></trkpt><trkpt lat="44.92846" lon="10.50654"><ele>23.0</ele><time>2026-04-11T11:16:20.945Z</time></trkpt><trkpt lat="44.92858" lon="10.50633"><ele>23.0</ele><time>2026-04-11T11:16:21.945Z</time></trkpt><trkpt lat="44.9286967" lon="10.5061167"><ele>23.0</ele><time>2026-04-11T11:16:22.945Z</time></trkpt><trkpt lat="44.92881" lon="10.5059133"><ele>23.0</ele><time>2026-04-11T11:16:23.945Z</time></trkpt><trkpt lat="44.9289267" lon="10.50571"><ele>23.0</ele><time>2026-04-11T11:16:24.945Z</time></trkpt><trkpt lat="44.9290433" lon="10.505515"><ele>23.0</ele><time>2026-04-11T11:16:25.944Z</time></trkpt><trkpt lat="44.9291483" lon="10.5053317"><ele>23.0</ele><time>2026-04-11T11:16:26.944Z</time></trkpt><trkpt lat="44.9292633" lon="10.5051367"><ele>23.333333333333336</ele><time>2026-04-11T11:16:27.944Z</time></trkpt><trkpt lat="44.92938" lon="10.5049367"><ele>23.666666666666668</ele><time>2026-04-11T11:16:28.944Z</time></trkpt><trkpt lat="44.9294967" lon="10.50473"><ele>24.0</ele><time>2026-04-11T11:16:29.944Z</time></trkpt><trkpt lat="44.9296133" lon="10.5045167"><ele>24.0</ele><time>2026-04-11T11:16:30.944Z</time></trkpt><trkpt lat="44.9297367" lon="10.5043017"><ele>24.0</ele><time>2026-04-11T11:16:31.944Z</time></trkpt><trkpt lat="44.9298633" lon="10.50408"><ele>24.0</ele><time>2026-04-11T11:16:32.944Z</time></trkpt><trkpt lat="44.9299917" lon="10.5038533"><ele>24.0</ele><time>2026-04-11T11:16:33.943Z</time></trkpt><trkpt lat="44.9301217" lon="10.5036217"><ele>24.0</ele><time>2026-04-11T11:16:34.943Z</time></trkpt><trkpt lat="44.930255" lon="10.5033833"><ele>24.0</ele><time>2026-04-11T11:16:35.944Z</time></trkpt><trkpt lat="44.9303917" lon="10.503145"><ele>23.333333333333332</ele><time>2026-04-11T11:16:36.944Z</time></trkpt><trkpt lat="44.9305233" lon="10.5029133"><ele>22.666666666666664</ele><time>2026-04-11T11:16:37.944Z</time></trkpt><trkpt lat="44.930655" lon="10.5026867"><ele>22.0</ele><time>2026-04-11T11:16:38.944Z</time></trkpt><trkpt lat="44.9307867" lon="10.5024517"><ele>21.666666666666664</ele><time>2026-04-11T11:16:39.944Z</time></trkpt><trkpt lat="44.9309183" lon="10.502215"><ele>21.333333333333332</ele><time>2026-04-11T11:16:40.944Z</time></trkpt><trkpt lat="44.9310483" lon="10.5019867"><ele>21.0</ele><time>2026-04-11T11:16:41.943Z</time></trkpt><trkpt lat="44.9311817" lon="10.50176"><ele>21.0</ele><time>2026-04-11T11:16:42.943Z</time></trkpt><trkpt lat="44.93131" lon="10.5015267"><ele>21.0</ele><time>2026-04-11T11:16:43.944Z</time></trkpt><trkpt lat="44.93144" lon="10.5013"><ele>21.0</ele><time>2026-04-11T11:16:44.944Z</time></trkpt><trkpt lat="44.9315667" lon="10.501085"><ele>20.333333333333332</ele><time>2026-04-11T11:16:45.944Z</time></trkpt><trkpt lat="44.9316933" lon="10.5008717"><ele>19.666666666666664</ele><time>2026-04-11T11:16:46.944Z</time></trkpt><trkpt lat="44.9318167" lon="10.5006583"><ele>19.0</ele><time>2026-04-11T11:16:47.944Z</time></trkpt><trkpt lat="44.9319283" lon="10.5004583"><ele>20.0</ele><time>2026-04-11T11:16:48.944Z</time></trkpt><trkpt lat="44.9320417" lon="10.50027"><ele>21.0</ele><time>2026-04-11T11:16:49.944Z</time></trkpt><trkpt lat="44.9321467" lon="10.500085"><ele>22.0</ele><time>2026-04-11T11:16:50.943Z</time></trkpt><trkpt lat="44.932245" lon="10.499915"><ele>22.0</ele><time>2026-04-11T11:16:51.944Z</time></trkpt><trkpt lat="44.9323417" lon="10.4997467"><ele>22.0</ele><time>2026-04-11T11:16:52.944Z</time></trkpt><trkpt lat="44.932435" lon="10.499575"><ele>22.0</ele><time>2026-04-11T11:16:53.943Z</time></trkpt><trkpt lat="44.9325233" lon="10.4994083"><ele>21.75</ele><time>2026-04-11T11:16:54.944Z</time></trkpt><trkpt lat="44.9326033" lon="10.4992483"><ele>21.5</ele><time>2026-04-11T11:16:55.944Z</time></trkpt><trkpt lat="44.93269" lon="10.4990917"><ele>21.25</ele><time>2026-04-11T11:16:56.944Z</time></trkpt><trkpt lat="44.9327783" lon="10.49894"><ele>21.0</ele><time>2026-04-11T11:16:57.944Z</time></trkpt><trkpt lat="44.93287" lon="10.4987883"><ele>21.0</ele><time>2026-04-11T11:16:58.944Z</time></trkpt><trkpt lat="44.93296" lon="10.4986367"><ele>21.0</ele><time>2026-04-11T11:16:59.944Z</time></trkpt><trkpt lat="44.93305" lon="10.498485"><ele>21.0</ele><time>2026-04-11T11:17:00.944Z</time></trkpt><trkpt lat="44.9331417" lon="10.4983317"><ele>21.0</ele><time>2026-04-11T11:17:01.944Z</time></trkpt><trkpt lat="44.9332233" lon="10.4981733"><ele>21.0</ele><time>2026-04-11T11:17:02.943Z</time></trkpt><trkpt lat="44.9333083" lon="10.4980133"><ele>21.0</ele><time>2026-04-11T11:17:03.944Z</time></trkpt><trkpt lat="44.9333983" lon="10.4978467"><ele>21.0</ele><time>2026-04-11T11:17:04.944Z</time></trkpt><trkpt lat="44.9334867" lon="10.4976883"><ele>21.0</ele><time>2026-04-11T11:17:05.944Z</time></trkpt><trkpt lat="44.933575" lon="10.4975283"><ele>21.0</ele><time>2026-04-11T11:17:06.944Z</time></trkpt><trkpt lat="44.9336667" lon="10.4973667"><ele>21.0</ele><time>2026-04-11T11:17:07.943Z</time></trkpt><trkpt lat="44.9337567" lon="10.497205"><ele>21.0</ele><time>2026-04-11T11:17:08.944Z</time></trkpt><trkpt lat="44.9338517" lon="10.497045"><ele>21.0</ele><time>2026-04-11T11:17:09.943Z</time></trkpt><trkpt lat="44.9339417" lon="10.4968783"><ele>21.25</ele><time>2026-04-11T11:17:10.944Z</time></trkpt><trkpt lat="44.9340333" lon="10.49672"><ele>21.5</ele><time>2026-04-11T11:17:11.944Z</time></trkpt><trkpt lat="44.9341233" lon="10.496555"><ele>21.75</ele><time>2026-04-11T11:17:12.944Z</time></trkpt><trkpt lat="44.9342183" lon="10.4963933"><ele>22.0</ele><time>2026-04-11T11:17:13.943Z</time></trkpt><trkpt lat="44.9343067" lon="10.4962333"><ele>22.0</ele><time>2026-04-11T11:17:14.944Z</time></trkpt><trkpt lat="44.9343967" lon="10.4960667"><ele>22.0</ele><time>2026-04-11T11:17:15.944Z</time></trkpt><trkpt lat="44.9344883" lon="10.4958983"><ele>22.0</ele><time>2026-04-11T11:17:16.944Z</time></trkpt><trkpt lat="44.9345783" lon="10.4957333"><ele>22.0</ele><time>2026-04-11T11:17:17.944Z</time></trkpt><trkpt lat="44.9346767" lon="10.4955617"><ele>21.333333333333332</ele><time>2026-04-11T11:17:18.944Z</time></trkpt><trkpt lat="44.9347733" lon="10.4953967"><ele>20.666666666666668</ele><time>2026-04-11T11:17:19.944Z</time></trkpt><trkpt lat="44.9348717" lon="10.4952283"><ele>20.0</ele><time>2026-04-11T11:17:20.944Z</time></trkpt><trkpt lat="44.9349733" lon="10.4950633"><ele>21.333333333333336</ele><time>2026-04-11T11:17:21.944Z</time></trkpt><trkpt lat="44.9350767" lon="10.4948817"><ele>22.666666666666668</ele><time>2026-04-11T11:17:22.944Z</time></trkpt><trkpt lat="44.93518" lon="10.4947"><ele>24.0</ele><time>2026-04-11T11:17:23.944Z</time></trkpt><trkpt lat="44.935285" lon="10.494515"><ele>24.0</ele><time>2026-04-11T11:17:24.944Z</time></trkpt><trkpt lat="44.9353867" lon="10.4943267"><ele>24.0</ele><time>2026-04-11T11:17:25.944Z</time></trkpt><trkpt lat="44.93549" lon="10.4941383"><ele>24.0</ele><time>2026-04-11T11:17:26.944Z</time></trkpt><trkpt lat="44.9356017" lon="10.4939483"><ele>24.0</ele><time>2026-04-11T11:17:27.944Z</time></trkpt><trkpt lat="44.9357033" lon="10.4937617"><ele>24.0</ele><time>2026-04-11T11:17:28.944Z</time></trkpt><trkpt lat="44.9358017" lon="10.4935817"><ele>24.0</ele><time>2026-04-11T11:17:29.944Z</time></trkpt><trkpt lat="44.9358967" lon="10.4934167"><ele>24.0</ele><time>2026-04-11T11:17:30.944Z</time></trkpt><trkpt lat="44.9359917" lon="10.493245"><ele>24.0</ele><time>2026-04-11T11:17:31.944Z</time></trkpt><trkpt lat="44.9360917" lon="10.4930733"><ele>24.0</ele><time>2026-04-11T11:17:32.944Z</time></trkpt><trkpt lat="44.936185" lon="10.4929033"><ele>23.666666666666668</ele><time>2026-04-11T11:17:33.944Z</time></trkpt><trkpt lat="44.9362783" lon="10.492735"><ele>23.333333333333336</ele><time>2026-04-11T11:17:34.944Z</time></trkpt><trkpt lat="44.9363733" lon="10.4925667"><ele>23.0</ele><time>2026-04-11T11:17:35.944Z</time></trkpt><trkpt lat="44.9364733" lon="10.492395"><ele>23.0</ele><time>2026-04-11T11:17:36.944Z</time></trkpt><trkpt lat="44.9365683" lon="10.492235"><ele>23.0</ele><time>2026-04-11T11:17:37.944Z</time></trkpt><trkpt lat="44.9366733" lon="10.4920633"><ele>23.0</ele><time>2026-04-11T11:17:38.943Z</time></trkpt><trkpt lat="44.9367783" lon="10.4919"><ele>23.333333333333336</ele><time>2026-04-11T11:17:39.944Z</time></trkpt><trkpt lat="44.9368883" lon="10.491735"><ele>23.666666666666668</ele><time>2026-04-11T11:17:40.944Z</time></trkpt><trkpt lat="44.9369967" lon="10.4915767"><ele>24.0</ele><time>2026-04-11T11:17:41.944Z</time></trkpt><trkpt lat="44.9371133" lon="10.491425"><ele>24.0</ele><time>2026-04-11T11:17:42.944Z</time></trkpt><trkpt lat="44.93723" lon="10.4912817"><ele>24.0</ele><time>2026-04-11T11:17:43.944Z</time></trkpt><trkpt lat="44.937355" lon="10.4911433"><ele>24.0</ele><time>2026-04-11T11:17:44.944Z</time></trkpt><trkpt lat="44.9374767" lon="10.4910133"><ele>24.333333333333336</ele><time>2026-04-11T11:17:45.943Z</time></trkpt><trkpt lat="44.937605" lon="10.4908817"><ele>24.666666666666668</ele><time>2026-04-11T11:17:46.944Z</time></trkpt><trkpt lat="44.9377317" lon="10.4907567"><ele>25.0</ele><time>2026-04-11T11:17:47.944Z</time></trkpt><trkpt lat="44.9378517" lon="10.4906417"><ele>25.0</ele><time>2026-04-11T11:17:48.944Z</time></trkpt><trkpt lat="44.9379667" lon="10.4905483"><ele>25.0</ele><time>2026-04-11T11:17:49.944Z</time></trkpt><trkpt lat="44.9380717" lon="10.4904717"><ele>25.0</ele><time>2026-04-11T11:17:50.944Z</time></trkpt><trkpt lat="44.9381683" lon="10.4903933"><ele>25.0</ele><time>2026-04-11T11:17:51.944Z</time></trkpt><trkpt lat="44.93826" lon="10.4903283"><ele>25.000000000000004</ele><time>2026-04-11T11:17:52.944Z</time></trkpt><trkpt lat="44.9383383" lon="10.4902617"><ele>25.0</ele><time>2026-04-11T11:17:53.944Z</time></trkpt><trkpt lat="44.9384067" lon="10.490205"><ele>25.0</ele><time>2026-04-11T11:17:54.943Z</time></trkpt><trkpt lat="44.9384733" lon="10.49015"><ele>25.0</ele><time>2026-04-11T11:17:55.944Z</time></trkpt><trkpt lat="44.93853" lon="10.4901067"><ele>25.000000000000004</ele><time>2026-04-11T11:17:56.944Z</time></trkpt><trkpt lat="44.938615" lon="10.4900317"><ele>25.0</ele><time>2026-04-11T11:17:58.944Z</time></trkpt><trkpt lat="44.9386767" lon="10.4899867"><ele>25.0</ele><time>2026-04-11T11:18:00.944Z</time></trkpt><trkpt lat="44.93876" lon="10.4899433"><ele>25.0</ele><time>2026-04-11T11:18:03.944Z</time></trkpt><trkpt lat="44.9388633" lon="10.4898417"><ele>25.0</ele><time>2026-04-11T11:18:37.944Z</time></trkpt><trkpt lat="44.9389483" lon="10.4897717"><ele>25.0</ele><time>2026-04-11T11:18:38.944Z</time></trkpt><trkpt lat="44.9390483" lon="10.489685"><ele>25.0</ele><time>2026-04-11T11:18:39.944Z</time></trkpt><trkpt lat="44.9391667" lon="10.4895783"><ele>24.333333333333336</ele><time>2026-04-11T11:18:40.944Z</time></trkpt><trkpt lat="44.9392983" lon="10.4894617"><ele>23.666666666666668</ele><time>2026-04-11T11:18:41.944Z</time></trkpt><trkpt lat="44.9394333" lon="10.4893383"><ele>23.0</ele><time>2026-04-11T11:18:42.944Z</time></trkpt><trkpt lat="44.9395817" lon="10.4892067"><ele>23.0</ele><time>2026-04-11T11:18:43.944Z</time></trkpt><trkpt lat="44.9397233" lon="10.4890783"><ele>23.0</ele><time>2026-04-11T11:18:44.944Z</time></trkpt><trkpt lat="44.939855" lon="10.48897"><ele>23.0</ele><time>2026-04-11T11:18:45.944Z</time></trkpt><trkpt lat="44.9399783" lon="10.4888617"><ele>22.75</ele><time>2026-04-11T11:18:46.944Z</time></trkpt><trkpt lat="44.9400867" lon="10.4887567"><ele>22.5</ele><time>2026-04-11T11:18:47.944Z</time></trkpt><trkpt lat="44.94019" lon="10.48865"><ele>22.25</ele><time>2026-04-11T11:18:48.944Z</time></trkpt><trkpt lat="44.9402917" lon="10.4885317"><ele>22.0</ele><time>2026-04-11T11:18:49.944Z</time></trkpt><trkpt lat="44.940385" lon="10.48841"><ele>22.0</ele><time>2026-04-11T11:18:50.944Z</time></trkpt><trkpt lat="44.9404667" lon="10.4882833"><ele>22.0</ele><time>2026-04-11T11:18:51.944Z</time></trkpt><trkpt lat="44.9405467" lon="10.4881367"><ele>22.0</ele><time>2026-04-11T11:18:52.944Z</time></trkpt><trkpt lat="44.94064" lon="10.48796"><ele>22.0</ele><time>2026-04-11T11:18:53.944Z</time></trkpt><trkpt lat="44.9407433" lon="10.4877667"><ele>22.333333333333332</ele><time>2026-04-11T11:18:54.944Z</time></trkpt><trkpt lat="44.9408517" lon="10.48756"><ele>22.666666666666668</ele><time>2026-04-11T11:18:55.944Z</time></trkpt><trkpt lat="44.9409583" lon="10.4873467"><ele>23.0</ele><time>2026-04-11T11:18:56.944Z</time></trkpt><trkpt lat="44.9410617" lon="10.4871233"><ele>22.333333333333336</ele><time>2026-04-11T11:18:57.944Z</time></trkpt><trkpt lat="44.9411583" lon="10.486895"><ele>21.666666666666668</ele><time>2026-04-11T11:18:58.944Z</time></trkpt><trkpt lat="44.94126" lon="10.4866667"><ele>21.0</ele><time>2026-04-11T11:18:59.944Z</time></trkpt><trkpt lat="44.9413633" lon="10.4864383"><ele>22.0</ele><time>2026-04-11T11:19:00.944Z</time></trkpt><trkpt lat="44.9414567" lon="10.4862017"><ele>23.0</ele><time>2026-04-11T11:19:01.944Z</time></trkpt><trkpt lat="44.941545" lon="10.4859717"><ele>24.0</ele><time>2026-04-11T11:19:02.944Z</time></trkpt><trkpt lat="44.9416267" lon="10.48574"><ele>24.0</ele><time>2026-04-11T11:19:03.944Z</time></trkpt><trkpt lat="44.9417067" lon="10.4855167"><ele>24.0</ele><time>2026-04-11T11:19:04.944Z</time></trkpt><trkpt lat="44.9417767" lon="10.485295"><ele>24.0</ele><time>2026-04-11T11:19:05.944Z</time></trkpt><trkpt lat="44.9418333" lon="10.4850717"><ele>24.333333333333336</ele><time>2026-04-11T11:19:06.944Z</time></trkpt><trkpt lat="44.9418833" lon="10.4848417"><ele>24.666666666666668</ele><time>2026-04-11T11:19:07.944Z</time></trkpt><trkpt lat="44.94193" lon="10.484605"><ele>25.0</ele><time>2026-04-11T11:19:08.944Z</time></trkpt><trkpt lat="44.941965" lon="10.4843667"><ele>25.0</ele><time>2026-04-11T11:19:09.944Z</time></trkpt><trkpt lat="44.9419883" lon="10.4841233"><ele>25.0</ele><time>2026-04-11T11:19:10.944Z</time></trkpt><trkpt lat="44.9419967" lon="10.48388"><ele>25.0</ele><time>2026-04-11T11:19:11.944Z</time></trkpt><trkpt lat="44.9420017" lon="10.48365"><ele>25.0</ele><time>2026-04-11T11:19:12.944Z</time></trkpt><trkpt lat="44.9420017" lon="10.48342"><ele>25.0</ele><time>2026-04-11T11:19:13.943Z</time></trkpt><trkpt lat="44.9420017" lon="10.483205"><ele>25.0</ele><time>2026-04-11T11:19:14.944Z</time></trkpt><trkpt lat="44.9420017" lon="10.4830033"><ele>24.75</ele><time>2026-04-11T11:19:15.944Z</time></trkpt><trkpt lat="44.942005" lon="10.4828083"><ele>24.5</ele><time>2026-04-11T11:19:16.944Z</time></trkpt><trkpt lat="44.9420067" lon="10.4826283"><ele>24.25</ele><time>2026-04-11T11:19:17.944Z</time></trkpt><trkpt lat="44.9420133" lon="10.4824667"><ele>24.0</ele><time>2026-04-11T11:19:18.944Z</time></trkpt><trkpt lat="44.9420267" lon="10.48232"><ele>24.0</ele><time>2026-04-11T11:19:19.944Z</time></trkpt><trkpt lat="44.94204" lon="10.4821833"><ele>24.0</ele><time>2026-04-11T11:19:20.943Z</time></trkpt><trkpt lat="44.9420533" lon="10.4820667"><ele>24.0</ele><time>2026-04-11T11:19:21.944Z</time></trkpt><trkpt lat="44.942065" lon="10.4819633"><ele>24.0</ele><time>2026-04-11T11:19:22.944Z</time></trkpt><trkpt lat="44.9420767" lon="10.4818733"><ele>24.0</ele><time>2026-04-11T11:19:23.943Z</time></trkpt><trkpt lat="44.9420933" lon="10.481735"><ele>24.0</ele><time>2026-04-11T11:19:25.944Z</time></trkpt><trkpt lat="44.9421017" lon="10.4816333"><ele>23.799999999999997</ele><time>2026-04-11T11:19:27.943Z</time></trkpt><trkpt lat="44.9421167" lon="10.4815067"><ele>23.599999999999998</ele><time>2026-04-11T11:19:29.943Z</time></trkpt><trkpt lat="44.94214" lon="10.4813383"><ele>23.4</ele><time>2026-04-11T11:19:31.943Z</time></trkpt><trkpt lat="44.9421633" lon="10.4811717"><ele>23.2</ele><time>2026-04-11T11:19:33.943Z</time></trkpt><trkpt lat="44.9421817" lon="10.481025"><ele>23.0</ele><time>2026-04-11T11:19:35.943Z</time></trkpt><trkpt lat="44.9422067" lon="10.4808983"><ele>23.5</ele><time>2026-04-11T11:19:37.943Z</time></trkpt><trkpt lat="44.9422283" lon="10.4807183"><ele>24.0</ele><time>2026-04-11T11:19:39.942Z</time></trkpt><trkpt lat="44.9422383" lon="10.48058"><ele>24.5</ele><time>2026-04-11T11:19:40.942Z</time></trkpt><trkpt lat="44.94225" lon="10.48042"><ele>25.0</ele><time>2026-04-11T11:19:41.942Z</time></trkpt><trkpt lat="44.9422767" lon="10.480245"><ele>25.0</ele><time>2026-04-11T11:19:42.943Z</time></trkpt><trkpt lat="44.9423117" lon="10.4800583"><ele>25.0</ele><time>2026-04-11T11:19:43.943Z</time></trkpt><trkpt lat="44.94236" lon="10.47988"><ele>25.0</ele><time>2026-04-11T11:19:44.943Z</time></trkpt><trkpt lat="44.942415" lon="10.479715"><ele>25.0</ele><time>2026-04-11T11:19:45.943Z</time></trkpt><trkpt lat="44.9424683" lon="10.4795483"><ele>25.0</ele><time>2026-04-11T11:19:46.943Z</time></trkpt><trkpt lat="44.9425333" lon="10.4793767"><ele>25.0</ele><time>2026-04-11T11:19:47.943Z</time></trkpt><trkpt lat="44.94262" lon="10.4791983"><ele>25.0</ele><time>2026-04-11T11:19:48.943Z</time></trkpt><trkpt lat="44.9427183" lon="10.4790133"><ele>24.666666666666668</ele><time>2026-04-11T11:19:49.943Z</time></trkpt><trkpt lat="44.94287" lon="10.4788667"><ele>24.333333333333336</ele><time>2026-04-11T11:19:50.943Z</time></trkpt><trkpt lat="44.943005" lon="10.47871"><ele>24.0</ele><time>2026-04-11T11:19:51.943Z</time></trkpt><trkpt lat="44.94313" lon="10.47857"><ele>24.0</ele><time>2026-04-11T11:19:52.943Z</time></trkpt><trkpt lat="44.9432583" lon="10.4784317"><ele>24.0</ele><time>2026-04-11T11:19:53.943Z</time></trkpt><trkpt lat="44.9433867" lon="10.4782917"><ele>24.0</ele><time>2026-04-11T11:19:54.943Z</time></trkpt><trkpt lat="44.9435167" lon="10.4781633"><ele>24.0</ele><time>2026-04-11T11:19:55.943Z</time></trkpt><trkpt lat="44.943645" lon="10.4780383"><ele>24.0</ele><time>2026-04-11T11:19:56.943Z</time></trkpt><trkpt lat="44.9437767" lon="10.4779117"><ele>24.0</ele><time>2026-04-11T11:19:57.943Z</time></trkpt><trkpt lat="44.94391" lon="10.4777717"><ele>24.333333333333336</ele><time>2026-04-11T11:19:58.943Z</time></trkpt><trkpt lat="44.944045" lon="10.4776483"><ele>24.666666666666668</ele><time>2026-04-11T11:19:59.943Z</time></trkpt><trkpt lat="44.9441767" lon="10.4774967"><ele>25.0</ele><time>2026-04-11T11:20:00.943Z</time></trkpt><trkpt lat="44.94432" lon="10.4773533"><ele>25.0</ele><time>2026-04-11T11:20:01.943Z</time></trkpt><trkpt lat="44.9444683" lon="10.47721"><ele>25.0</ele><time>2026-04-11T11:20:02.943Z</time></trkpt><trkpt lat="44.94461" lon="10.477065"><ele>25.0</ele><time>2026-04-11T11:20:03.943Z</time></trkpt><trkpt lat="44.9447533" lon="10.476915"><ele>25.0</ele><time>2026-04-11T11:20:04.943Z</time></trkpt><trkpt lat="44.944895" lon="10.4767667"><ele>25.0</ele><time>2026-04-11T11:20:05.943Z</time></trkpt><trkpt lat="44.9450383" lon="10.4766233"><ele>25.0</ele><time>2026-04-11T11:20:06.943Z</time></trkpt><trkpt lat="44.9451783" lon="10.4764783"><ele>25.0</ele><time>2026-04-11T11:20:07.943Z</time></trkpt><trkpt lat="44.945325" lon="10.47634"><ele>25.0</ele><time>2026-04-11T11:20:08.943Z</time></trkpt><trkpt lat="44.945475" lon="10.47619"><ele>25.0</ele><time>2026-04-11T11:20:09.943Z</time></trkpt><trkpt lat="44.9456267" lon="10.47603"><ele>25.0</ele><time>2026-04-11T11:20:10.943Z</time></trkpt><trkpt lat="44.9457783" lon="10.4758817"><ele>25.0</ele><time>2026-04-11T11:20:11.943Z</time></trkpt><trkpt lat="44.94592" lon="10.4757283"><ele>25.0</ele><time>2026-04-11T11:20:12.943Z</time></trkpt><trkpt lat="44.9460617" lon="10.4755817"><ele>24.666666666666668</ele><time>2026-04-11T11:20:13.943Z</time></trkpt><trkpt lat="44.946205" lon="10.475435"><ele>24.333333333333336</ele><time>2026-04-11T11:20:14.943Z</time></trkpt><trkpt lat="44.9463583" lon="10.4752867"><ele>24.0</ele><time>2026-04-11T11:20:15.943Z</time></trkpt><trkpt lat="44.9465067" lon="10.4751367"><ele>24.0</ele><time>2026-04-11T11:20:16.943Z</time></trkpt><trkpt lat="44.9466583" lon="10.474985"><ele>24.0</ele><time>2026-04-11T11:20:17.943Z</time></trkpt><trkpt lat="44.9468133" lon="10.4748233"><ele>24.0</ele><time>2026-04-11T11:20:18.942Z</time></trkpt><trkpt lat="44.94697" lon="10.4746633"><ele>24.0</ele><time>2026-04-11T11:20:19.943Z</time></trkpt><trkpt lat="44.947125" lon="10.4745033"><ele>24.0</ele><time>2026-04-11T11:20:20.943Z</time></trkpt><trkpt lat="44.9472817" lon="10.47435"><ele>24.0</ele><time>2026-04-11T11:20:21.943Z</time></trkpt><trkpt lat="44.9474417" lon="10.474185"><ele>24.0</ele><time>2026-04-11T11:20:22.943Z</time></trkpt><trkpt lat="44.9476033" lon="10.474025"><ele>24.0</ele><time>2026-04-11T11:20:23.943Z</time></trkpt><trkpt lat="44.94777" lon="10.4738617"><ele>24.0</ele><time>2026-04-11T11:20:24.943Z</time></trkpt><trkpt lat="44.9479333" lon="10.4736917"><ele>24.0</ele><time>2026-04-11T11:20:25.943Z</time></trkpt><trkpt lat="44.9480983" lon="10.4735217"><ele>24.0</ele><time>2026-04-11T11:20:26.943Z</time></trkpt><trkpt lat="44.9482667" lon="10.47335"><ele>24.0</ele><time>2026-04-11T11:20:27.943Z</time></trkpt><trkpt lat="44.948435" lon="10.4731767"><ele>25.0</ele><time>2026-04-11T11:20:28.942Z</time></trkpt><trkpt lat="44.9485983" lon="10.4730033"><ele>26.0</ele><time>2026-04-11T11:20:29.943Z</time></trkpt><trkpt lat="44.9487517" lon="10.4728267"><ele>27.0</ele><time>2026-04-11T11:20:30.943Z</time></trkpt><trkpt lat="44.9488967" lon="10.4726517"><ele>27.0</ele><time>2026-04-11T11:20:31.943Z</time></trkpt><trkpt lat="44.9490417" lon="10.47248"><ele>27.0</ele><time>2026-04-11T11:20:32.942Z</time></trkpt><trkpt lat="44.94918" lon="10.4723117"><ele>27.0</ele><time>2026-04-11T11:20:33.943Z</time></trkpt><trkpt lat="44.949325" lon="10.4721467"><ele>26.0</ele><time>2026-04-11T11:20:34.943Z</time></trkpt><trkpt lat="44.9494667" lon="10.471985"><ele>25.0</ele><time>2026-04-11T11:20:35.943Z</time></trkpt><trkpt lat="44.9496167" lon="10.47182"><ele>24.0</ele><time>2026-04-11T11:20:36.943Z</time></trkpt><trkpt lat="44.9497617" lon="10.47167"><ele>24.0</ele><time>2026-04-11T11:20:37.943Z</time></trkpt><trkpt lat="44.94992" lon="10.471545"><ele>24.0</ele><time>2026-04-11T11:20:38.943Z</time></trkpt><trkpt lat="44.9500883" lon="10.4714433"><ele>24.0</ele><time>2026-04-11T11:20:39.942Z</time></trkpt><trkpt lat="44.9502583" lon="10.4713567"><ele>24.0</ele><time>2026-04-11T11:20:40.943Z</time></trkpt><trkpt lat="44.950435" lon="10.47129"><ele>24.0</ele><time>2026-04-11T11:20:41.943Z</time></trkpt><trkpt lat="44.9506117" lon="10.4712517"><ele>24.0</ele><time>2026-04-11T11:20:42.943Z</time></trkpt><trkpt lat="44.950795" lon="10.4712467"><ele>24.0</ele><time>2026-04-11T11:20:43.943Z</time></trkpt><trkpt lat="44.9509717" lon="10.4712517"><ele>24.0</ele><time>2026-04-11T11:20:44.942Z</time></trkpt><trkpt lat="44.9511333" lon="10.47127"><ele>24.0</ele><time>2026-04-11T11:20:45.943Z</time></trkpt><trkpt lat="44.95128" lon="10.4712983"><ele>24.0</ele><time>2026-04-11T11:20:46.942Z</time></trkpt><trkpt lat="44.9514217" lon="10.471315"><ele>24.0</ele><time>2026-04-11T11:20:47.943Z</time></trkpt><trkpt lat="44.95155" lon="10.471335"><ele>24.0</ele><time>2026-04-11T11:20:48.942Z</time></trkpt><trkpt lat="44.95168" lon="10.4713583"><ele>24.0</ele><time>2026-04-11T11:20:49.943Z</time></trkpt><trkpt lat="44.951795" lon="10.471375"><ele>23.4</ele><time>2026-04-11T11:20:50.943Z</time></trkpt><trkpt lat="44.9518967" lon="10.4713967"><ele>22.799999999999997</ele><time>2026-04-11T11:20:51.943Z</time></trkpt><trkpt lat="44.9519917" lon="10.4714233"><ele>22.200000000000003</ele><time>2026-04-11T11:20:52.943Z</time></trkpt><trkpt lat="44.95208" lon="10.4714533"><ele>21.6</ele><time>2026-04-11T11:20:53.943Z</time></trkpt><trkpt lat="44.9521617" lon="10.4714917"><ele>21.0</ele><time>2026-04-11T11:20:54.943Z</time></trkpt><trkpt lat="44.95223" lon="10.4715383"><ele>21.0</ele><time>2026-04-11T11:20:55.943Z</time></trkpt><trkpt lat="44.9522967" lon="10.4716033"><ele>21.0</ele><time>2026-04-11T11:20:56.943Z</time></trkpt><trkpt lat="44.952355" lon="10.4716533"><ele>21.0</ele><time>2026-04-11T11:20:57.943Z</time></trkpt><trkpt lat="44.95246" lon="10.471715"><ele>21.0</ele><time>2026-04-11T11:20:59.943Z</time></trkpt><trkpt lat="44.9525867" lon="10.4716717"><ele>21.0</ele><time>2026-04-11T11:21:01.943Z</time></trkpt><trkpt lat="44.95265" lon="10.471635"><ele>21.166666666666668</ele><time>2026-04-11T11:21:02.943Z</time></trkpt><trkpt lat="44.9527217" lon="10.4716"><ele>21.333333333333332</ele><time>2026-04-11T11:21:03.943Z</time></trkpt><trkpt lat="44.952795" lon="10.4715733"><ele>21.5</ele><time>2026-04-11T11:21:04.943Z</time></trkpt><trkpt lat="44.95287" lon="10.4715667"><ele>21.666666666666664</ele><time>2026-04-11T11:21:05.943Z</time></trkpt><trkpt lat="44.952945" lon="10.4715667"><ele>21.833333333333332</ele><time>2026-04-11T11:21:06.943Z</time></trkpt><trkpt lat="44.9530233" lon="10.4715767"><ele>22.0</ele><time>2026-04-11T11:21:07.943Z</time></trkpt><trkpt lat="44.9531033" lon="10.4715833"><ele>22.0</ele><time>2026-04-11T11:21:08.943Z</time></trkpt><trkpt lat="44.9531867" lon="10.4715917"><ele>22.0</ele><time>2026-04-11T11:21:09.943Z</time></trkpt><trkpt lat="44.9532667" lon="10.4716067"><ele>22.0</ele><time>2026-04-11T11:21:10.943Z</time></trkpt><trkpt lat="44.9533483" lon="10.4716217"><ele>22.0</ele><time>2026-04-11T11:21:11.943Z</time></trkpt><trkpt lat="44.95343" lon="10.471635"><ele>22.0</ele><time>2026-04-11T11:21:12.943Z</time></trkpt><trkpt lat="44.9535333" lon="10.4716433"><ele>22.0</ele><time>2026-04-11T11:21:13.943Z</time></trkpt><trkpt lat="44.9536733" lon="10.4716617"><ele>21.666666666666664</ele><time>2026-04-11T11:21:14.943Z</time></trkpt><trkpt lat="44.9538333" lon="10.471695"><ele>21.333333333333332</ele><time>2026-04-11T11:21:15.943Z</time></trkpt><trkpt lat="44.9539933" lon="10.471745"><ele>21.0</ele><time>2026-04-11T11:21:16.943Z</time></trkpt><trkpt lat="44.9541617" lon="10.4718033"><ele>22.0</ele><time>2026-04-11T11:21:17.943Z</time></trkpt><trkpt lat="44.9543317" lon="10.4718683"><ele>23.0</ele><time>2026-04-11T11:21:18.943Z</time></trkpt><trkpt lat="44.9544983" lon="10.471935"><ele>24.0</ele><time>2026-04-11T11:21:19.943Z</time></trkpt><trkpt lat="44.95465" lon="10.4720117"><ele>24.0</ele><time>2026-04-11T11:21:20.943Z</time></trkpt><trkpt lat="44.9547867" lon="10.47209"><ele>24.0</ele><time>2026-04-11T11:21:21.942Z</time></trkpt><trkpt lat="44.95493" lon="10.472175"><ele>24.0</ele><time>2026-04-11T11:21:22.943Z</time></trkpt><trkpt lat="44.95507" lon="10.4722683"><ele>24.0</ele><time>2026-04-11T11:21:23.943Z</time></trkpt><trkpt lat="44.9552133" lon="10.4723617"><ele>24.0</ele><time>2026-04-11T11:21:24.942Z</time></trkpt><trkpt lat="44.9553533" lon="10.472455"><ele>24.0</ele><time>2026-04-11T11:21:25.943Z</time></trkpt><trkpt lat="44.9555083" lon="10.472555"><ele>24.0</ele><time>2026-04-11T11:21:26.943Z</time></trkpt><trkpt lat="44.95566" lon="10.472645"><ele>24.0</ele><time>2026-04-11T11:21:27.943Z</time></trkpt><trkpt lat="44.9558133" lon="10.472735"><ele>24.0</ele><time>2026-04-11T11:21:28.942Z</time></trkpt><trkpt lat="44.955975" lon="10.4728333"><ele>24.0</ele><time>2026-04-11T11:21:29.943Z</time></trkpt><trkpt lat="44.9561183" lon="10.472925"><ele>24.0</ele><time>2026-04-11T11:21:30.943Z</time></trkpt><trkpt lat="44.95626" lon="10.473005"><ele>24.0</ele><time>2026-04-11T11:21:31.943Z</time></trkpt><trkpt lat="44.9563983" lon="10.4730833"><ele>24.0</ele><time>2026-04-11T11:21:32.943Z</time></trkpt><trkpt lat="44.9565367" lon="10.47317"><ele>24.0</ele><time>2026-04-11T11:21:33.943Z</time></trkpt><trkpt lat="44.9566717" lon="10.4732583"><ele>24.0</ele><time>2026-04-11T11:21:34.943Z</time></trkpt><trkpt lat="44.956805" lon="10.47336"><ele>24.0</ele><time>2026-04-11T11:21:35.943Z</time></trkpt><trkpt lat="44.9569367" lon="10.4734617"><ele>24.0</ele><time>2026-04-11T11:21:36.942Z</time></trkpt><trkpt lat="44.9570667" lon="10.4735667"><ele>24.0</ele><time>2026-04-11T11:21:37.943Z</time></trkpt><trkpt lat="44.9571933" lon="10.4736767"><ele>24.0</ele><time>2026-04-11T11:21:38.943Z</time></trkpt><trkpt lat="44.95733" lon="10.4737983"><ele>24.0</ele><time>2026-04-11T11:21:39.943Z</time></trkpt><trkpt lat="44.9574583" lon="10.4739167"><ele>24.0</ele><time>2026-04-11T11:21:40.943Z</time></trkpt><trkpt lat="44.9575917" lon="10.4740333"><ele>24.0</ele><time>2026-04-11T11:21:41.942Z</time></trkpt><trkpt lat="44.9577217" lon="10.4741483"><ele>23.666666666666668</ele><time>2026-04-11T11:21:42.943Z</time></trkpt><trkpt lat="44.957855" lon="10.4742667"><ele>23.333333333333336</ele><time>2026-04-11T11:21:43.943Z</time></trkpt><trkpt lat="44.95799" lon="10.4743983"><ele>23.0</ele><time>2026-04-11T11:21:44.943Z</time></trkpt><trkpt lat="44.9581283" lon="10.4745267"><ele>23.333333333333336</ele><time>2026-04-11T11:21:45.943Z</time></trkpt><trkpt lat="44.9582717" lon="10.4746433"><ele>23.666666666666668</ele><time>2026-04-11T11:21:46.943Z</time></trkpt><trkpt lat="44.95842" lon="10.474755"><ele>24.0</ele><time>2026-04-11T11:21:47.943Z</time></trkpt><trkpt lat="44.9585633" lon="10.474865"><ele>24.0</ele><time>2026-04-11T11:21:48.943Z</time></trkpt><trkpt lat="44.9587133" lon="10.474955"><ele>24.0</ele><time>2026-04-11T11:21:49.943Z</time></trkpt><trkpt lat="44.958875" lon="10.4750583"><ele>24.0</ele><time>2026-04-11T11:21:50.943Z</time></trkpt><trkpt lat="44.9590283" lon="10.47515"><ele>24.0</ele><time>2026-04-11T11:21:51.943Z</time></trkpt><trkpt lat="44.9591817" lon="10.47523"><ele>24.0</ele><time>2026-04-11T11:21:52.943Z</time></trkpt><trkpt lat="44.9593383" lon="10.4753"><ele>24.0</ele><time>2026-04-11T11:21:53.943Z</time></trkpt><trkpt lat="44.95949" lon="10.475375"><ele>24.333333333333336</ele><time>2026-04-11T11:21:54.943Z</time></trkpt><trkpt lat="44.95965" lon="10.4754333"><ele>24.666666666666668</ele><time>2026-04-11T11:21:55.942Z</time></trkpt><trkpt lat="44.9598083" lon="10.4754983"><ele>25.0</ele><time>2026-04-11T11:21:56.943Z</time></trkpt><trkpt lat="44.9599533" lon="10.4755583"><ele>25.0</ele><time>2026-04-11T11:21:57.943Z</time></trkpt><trkpt lat="44.960085" lon="10.4756167"><ele>25.0</ele><time>2026-04-11T11:21:58.943Z</time></trkpt><trkpt lat="44.9602267" lon="10.4756633"><ele>25.0</ele><time>2026-04-11T11:21:59.943Z</time></trkpt><trkpt lat="44.9603567" lon="10.475715"><ele>25.0</ele><time>2026-04-11T11:22:00.943Z</time></trkpt><trkpt lat="44.9604767" lon="10.475765"><ele>25.0</ele><time>2026-04-11T11:22:01.943Z</time></trkpt><trkpt lat="44.9605917" lon="10.475815"><ele>25.0</ele><time>2026-04-11T11:22:02.943Z</time></trkpt><trkpt lat="44.9606917" lon="10.47586"><ele>25.0</ele><time>2026-04-11T11:22:03.943Z</time></trkpt><trkpt lat="44.9607917" lon="10.4759033"><ele>25.0</ele><time>2026-04-11T11:22:04.943Z</time></trkpt><trkpt lat="44.9608767" lon="10.4759517"><ele>25.0</ele><time>2026-04-11T11:22:05.943Z</time></trkpt><trkpt lat="44.9609733" lon="10.4759933"><ele>24.833333333333336</ele><time>2026-04-11T11:22:06.943Z</time></trkpt><trkpt lat="44.9610533" lon="10.4760317"><ele>24.666666666666668</ele><time>2026-04-11T11:22:07.943Z</time></trkpt><trkpt lat="44.9611317" lon="10.4760583"><ele>24.5</ele><time>2026-04-11T11:22:08.943Z</time></trkpt><trkpt lat="44.961195" lon="10.4760867"><ele>24.333333333333336</ele><time>2026-04-11T11:22:09.943Z</time></trkpt><trkpt lat="44.9612833" lon="10.476125"><ele>24.166666666666668</ele><time>2026-04-11T11:22:11.943Z</time></trkpt><trkpt lat="44.9613567" lon="10.4761517"><ele>24.0</ele><time>2026-04-11T11:22:15.943Z</time></trkpt><trkpt lat="44.96144" lon="10.4761933"><ele>24.0</ele><time>2026-04-11T11:22:35.942Z</time></trkpt><trkpt lat="44.9615433" lon="10.4762217"><ele>24.0</ele><time>2026-04-11T11:22:37.942Z</time></trkpt><trkpt lat="44.961615" lon="10.476255"><ele>24.0</ele><time>2026-04-11T11:22:38.942Z</time></trkpt><trkpt lat="44.9616867" lon="10.4762917"><ele>24.0</ele><time>2026-04-11T11:22:39.941Z</time></trkpt><trkpt lat="44.961765" lon="10.4763267"><ele>24.0</ele><time>2026-04-11T11:22:40.942Z</time></trkpt><trkpt lat="44.961845" lon="10.4763667"><ele>24.0</ele><time>2026-04-11T11:22:41.942Z</time></trkpt><trkpt lat="44.9619333" lon="10.4764017"><ele>24.2</ele><time>2026-04-11T11:22:42.942Z</time></trkpt><trkpt lat="44.9620167" lon="10.476445"><ele>24.4</ele><time>2026-04-11T11:22:43.942Z</time></trkpt><trkpt lat="44.9621067" lon="10.4764867"><ele>24.6</ele><time>2026-04-11T11:22:44.942Z</time></trkpt><trkpt lat="44.9622" lon="10.47653"><ele>24.8</ele><time>2026-04-11T11:22:45.942Z</time></trkpt><trkpt lat="44.9623067" lon="10.4765717"><ele>25.0</ele><time>2026-04-11T11:22:46.941Z</time></trkpt><trkpt lat="44.962415" lon="10.476625"><ele>24.5</ele><time>2026-04-11T11:22:47.942Z</time></trkpt><trkpt lat="44.9625333" lon="10.4766767"><ele>24.0</ele><time>2026-04-11T11:22:48.942Z</time></trkpt><trkpt lat="44.9626533" lon="10.4767133"><ele>23.5</ele><time>2026-04-11T11:22:49.942Z</time></trkpt><trkpt lat="44.962775" lon="10.476765"><ele>23.0</ele><time>2026-04-11T11:22:50.942Z</time></trkpt><trkpt lat="44.9628967" lon="10.47682"><ele>23.0</ele><time>2026-04-11T11:22:51.942Z</time></trkpt><trkpt lat="44.96302" lon="10.4768617"><ele>23.0</ele><time>2026-04-11T11:22:52.942Z</time></trkpt><trkpt lat="44.96314" lon="10.4768983"><ele>23.0</ele><time>2026-04-11T11:22:53.942Z</time></trkpt><trkpt lat="44.96326" lon="10.4769217"><ele>23.0</ele><time>2026-04-11T11:22:54.942Z</time></trkpt><trkpt lat="44.9633783" lon="10.4769267"><ele>22.5</ele><time>2026-04-11T11:22:55.942Z</time></trkpt><trkpt lat="44.9634917" lon="10.4769217"><ele>22.0</ele><time>2026-04-11T11:22:56.941Z</time></trkpt><trkpt lat="44.963615" lon="10.4769083"><ele>21.5</ele><time>2026-04-11T11:22:57.942Z</time></trkpt><trkpt lat="44.9637317" lon="10.47689"><ele>21.0</ele><time>2026-04-11T11:22:58.942Z</time></trkpt><trkpt lat="44.96385" lon="10.4768633"><ele>21.0</ele><time>2026-04-11T11:22:59.942Z</time></trkpt><trkpt lat="44.96397" lon="10.4768217"><ele>21.0</ele><time>2026-04-11T11:23:00.942Z</time></trkpt><trkpt lat="44.9640883" lon="10.4767683"><ele>21.0</ele><time>2026-04-11T11:23:01.942Z</time></trkpt><trkpt lat="44.9642133" lon="10.4766967"><ele>21.0</ele><time>2026-04-11T11:23:02.942Z</time></trkpt><trkpt lat="44.96433" lon="10.4766133"><ele>21.25</ele><time>2026-04-11T11:23:03.942Z</time></trkpt><trkpt lat="44.96445" lon="10.4765183"><ele>21.5</ele><time>2026-04-11T11:23:04.942Z</time></trkpt><trkpt lat="44.9645667" lon="10.4764067"><ele>21.75</ele><time>2026-04-11T11:23:05.942Z</time></trkpt><trkpt lat="44.9646733" lon="10.476295"><ele>22.0</ele><time>2026-04-11T11:23:06.942Z</time></trkpt><trkpt lat="44.96477" lon="10.4762"><ele>22.0</ele><time>2026-04-11T11:23:07.942Z</time></trkpt><trkpt lat="44.9648683" lon="10.4761133"><ele>22.0</ele><time>2026-04-11T11:23:08.942Z</time></trkpt><trkpt lat="44.96496" lon="10.476025"><ele>22.0</ele><time>2026-04-11T11:23:09.942Z</time></trkpt><trkpt lat="44.96505" lon="10.4759417"><ele>22.0</ele><time>2026-04-11T11:23:10.942Z</time></trkpt><trkpt lat="44.96514" lon="10.4758517"><ele>22.0</ele><time>2026-04-11T11:23:11.942Z</time></trkpt><trkpt lat="44.9652283" lon="10.47577"><ele>22.166666666666664</ele><time>2026-04-11T11:23:12.942Z</time></trkpt><trkpt lat="44.9653117" lon="10.4756917"><ele>22.333333333333332</ele><time>2026-04-11T11:23:13.942Z</time></trkpt><trkpt lat="44.9653867" lon="10.47563"><ele>22.5</ele><time>2026-04-11T11:23:14.942Z</time></trkpt><trkpt lat="44.9654633" lon="10.4755633"><ele>22.666666666666668</ele><time>2026-04-11T11:23:15.942Z</time></trkpt><trkpt lat="44.96553" lon="10.475495"><ele>22.833333333333336</ele><time>2026-04-11T11:23:16.941Z</time></trkpt><trkpt lat="44.9655933" lon="10.4754283"><ele>23.0</ele><time>2026-04-11T11:23:17.942Z</time></trkpt><trkpt lat="44.9656467" lon="10.4753667"><ele>23.0</ele><time>2026-04-11T11:23:18.942Z</time></trkpt><trkpt lat="44.9657017" lon="10.4753083"><ele>23.0</ele><time>2026-04-11T11:23:19.942Z</time></trkpt><trkpt lat="44.9658033" lon="10.4752067"><ele>23.0</ele><time>2026-04-11T11:23:21.942Z</time></trkpt><trkpt lat="44.9658567" lon="10.4751583"><ele>23.0</ele><time>2026-04-11T11:23:22.942Z</time></trkpt><trkpt lat="44.9659117" lon="10.4751083"><ele>23.0</ele><time>2026-04-11T11:23:23.942Z</time></trkpt><trkpt lat="44.96598" lon="10.47507"><ele>23.0</ele><time>2026-04-11T11:23:24.942Z</time></trkpt><trkpt lat="44.9660583" lon="10.4750433"><ele>23.0</ele><time>2026-04-11T11:23:25.942Z</time></trkpt><trkpt lat="44.9661283" lon="10.4749983"><ele>23.0</ele><time>2026-04-11T11:23:26.942Z</time></trkpt><trkpt lat="44.966185" lon="10.4749383"><ele>23.0</ele><time>2026-04-11T11:23:27.942Z</time></trkpt><trkpt lat="44.9662167" lon="10.4748533"><ele>23.0</ele><time>2026-04-11T11:23:28.942Z</time></trkpt><trkpt lat="44.9662333" lon="10.4747583"><ele>23.0</ele><time>2026-04-11T11:23:29.942Z</time></trkpt><trkpt lat="44.9662317" lon="10.4746583"><ele>23.0</ele><time>2026-04-11T11:23:30.941Z</time></trkpt><trkpt lat="44.96623" lon="10.47454"><ele>23.0</ele><time>2026-04-11T11:23:31.942Z</time></trkpt><trkpt lat="44.96624" lon="10.4744183"><ele>23.0</ele><time>2026-04-11T11:23:32.942Z</time></trkpt><trkpt lat="44.9662783" lon="10.47429"><ele>23.0</ele><time>2026-04-11T11:23:33.941Z</time></trkpt><trkpt lat="44.9663333" lon="10.4741533"><ele>23.0</ele><time>2026-04-11T11:23:34.942Z</time></trkpt><trkpt lat="44.9663933" lon="10.474015"><ele>23.0</ele><time>2026-04-11T11:23:35.942Z</time></trkpt><trkpt lat="44.9664517" lon="10.4738717"><ele>23.0</ele><time>2026-04-11T11:23:36.942Z</time></trkpt><trkpt lat="44.96651" lon="10.4737217"><ele>23.0</ele><time>2026-04-11T11:23:37.941Z</time></trkpt><trkpt lat="44.9665667" lon="10.4735717"><ele>23.0</ele><time>2026-04-11T11:23:38.942Z</time></trkpt><trkpt lat="44.9666317" lon="10.4734067"><ele>23.0</ele><time>2026-04-11T11:23:39.942Z</time></trkpt><trkpt lat="44.96669" lon="10.4732417"><ele>23.0</ele><time>2026-04-11T11:23:40.942Z</time></trkpt><trkpt lat="44.966755" lon="10.4730683"><ele>23.25</ele><time>2026-04-11T11:23:41.942Z</time></trkpt><trkpt lat="44.9668217" lon="10.4728867"><ele>23.5</ele><time>2026-04-11T11:23:42.942Z</time></trkpt><trkpt lat="44.9668983" lon="10.4726983"><ele>23.75</ele><time>2026-04-11T11:23:43.942Z</time></trkpt><trkpt lat="44.96697" lon="10.472515"><ele>24.0</ele><time>2026-04-11T11:23:44.942Z</time></trkpt><trkpt lat="44.9670417" lon="10.47233"><ele>24.0</ele><time>2026-04-11T11:23:45.942Z</time></trkpt><trkpt lat="44.96711" lon="10.4721417"><ele>24.0</ele><time>2026-04-11T11:23:46.941Z</time></trkpt><trkpt lat="44.96718" lon="10.4719467"><ele>24.0</ele><time>2026-04-11T11:23:47.942Z</time></trkpt><trkpt lat="44.9672517" lon="10.471745"><ele>24.333333333333336</ele><time>2026-04-11T11:23:48.942Z</time></trkpt><trkpt lat="44.9673283" lon="10.4715433"><ele>24.666666666666668</ele><time>2026-04-11T11:23:49.942Z</time></trkpt><trkpt lat="44.96741" lon="10.47133"><ele>25.0</ele><time>2026-04-11T11:23:50.942Z</time></trkpt><trkpt lat="44.96749" lon="10.4711167"><ele>23.666666666666668</ele><time>2026-04-11T11:23:51.942Z</time></trkpt><trkpt lat="44.96757" lon="10.4709017"><ele>22.333333333333336</ele><time>2026-04-11T11:23:52.942Z</time></trkpt><trkpt lat="44.9676483" lon="10.4706833"><ele>21.0</ele><time>2026-04-11T11:23:53.942Z</time></trkpt><trkpt lat="44.9677367" lon="10.4704633"><ele>20.333333333333332</ele><time>2026-04-11T11:23:54.942Z</time></trkpt><trkpt lat="44.9678267" lon="10.4702383"><ele>19.666666666666664</ele><time>2026-04-11T11:23:55.942Z</time></trkpt><trkpt lat="44.967915" lon="10.4700117"><ele>19.0</ele><time>2026-04-11T11:23:56.942Z</time></trkpt><trkpt lat="44.9679967" lon="10.4697983"><ele>19.333333333333332</ele><time>2026-04-11T11:23:57.942Z</time></trkpt><trkpt lat="44.9680783" lon="10.4695883"><ele>19.666666666666668</ele><time>2026-04-11T11:23:58.942Z</time></trkpt><trkpt lat="44.9681567" lon="10.4693817"><ele>20.0</ele><time>2026-04-11T11:23:59.942Z</time></trkpt><trkpt lat="44.9682317" lon="10.4691767"><ele>20.0</ele><time>2026-04-11T11:24:00.942Z</time></trkpt><trkpt lat="44.968305" lon="10.46897"><ele>20.0</ele><time>2026-04-11T11:24:01.942Z</time></trkpt><trkpt lat="44.9683817" lon="10.4687567"><ele>20.0</ele><time>2026-04-11T11:24:02.941Z</time></trkpt><trkpt lat="44.96846" lon="10.4685467"><ele>20.333333333333336</ele><time>2026-04-11T11:24:03.942Z</time></trkpt><trkpt lat="44.9685433" lon="10.4683367"><ele>20.666666666666668</ele><time>2026-04-11T11:24:04.942Z</time></trkpt><trkpt lat="44.968625" lon="10.4681267"><ele>21.0</ele><time>2026-04-11T11:24:05.942Z</time></trkpt><trkpt lat="44.968705" lon="10.4679183"><ele>21.333333333333332</ele><time>2026-04-11T11:24:06.942Z</time></trkpt><trkpt lat="44.9687817" lon="10.467715"><ele>21.666666666666664</ele><time>2026-04-11T11:24:07.942Z</time></trkpt><trkpt lat="44.968855" lon="10.467515"><ele>22.0</ele><time>2026-04-11T11:24:08.942Z</time></trkpt><trkpt lat="44.9689317" lon="10.4673117"><ele>21.0</ele><time>2026-04-11T11:24:09.942Z</time></trkpt><trkpt lat="44.9690133" lon="10.4671083"><ele>20.0</ele><time>2026-04-11T11:24:10.942Z</time></trkpt><trkpt lat="44.969095" lon="10.4669033"><ele>19.0</ele><time>2026-04-11T11:24:11.941Z</time></trkpt><trkpt lat="44.9691717" lon="10.4667017"><ele>19.0</ele><time>2026-04-11T11:24:12.942Z</time></trkpt><trkpt lat="44.9692517" lon="10.4664883"><ele>19.0</ele><time>2026-04-11T11:24:13.942Z</time></trkpt><trkpt lat="44.96934" lon="10.4662717"><ele>19.0</ele><time>2026-04-11T11:24:14.942Z</time></trkpt><trkpt lat="44.969425" lon="10.46606"><ele>19.666666666666664</ele><time>2026-04-11T11:24:15.942Z</time></trkpt><trkpt lat="44.9695133" lon="10.4658483"><ele>20.333333333333332</ele><time>2026-04-11T11:24:16.941Z</time></trkpt><trkpt lat="44.9696" lon="10.4656317"><ele>21.0</ele><time>2026-04-11T11:24:17.942Z</time></trkpt><trkpt lat="44.9696867" lon="10.4654133"><ele>21.0</ele><time>2026-04-11T11:24:18.942Z</time></trkpt><trkpt lat="44.9697733" lon="10.46519"><ele>21.0</ele><time>2026-04-11T11:24:19.942Z</time></trkpt><trkpt lat="44.9698617" lon="10.4649683"><ele>21.0</ele><time>2026-04-11T11:24:20.942Z</time></trkpt><trkpt lat="44.9699517" lon="10.464745"><ele>20.666666666666668</ele><time>2026-04-11T11:24:21.942Z</time></trkpt><trkpt lat="44.970045" lon="10.46452"><ele>20.333333333333336</ele><time>2026-04-11T11:24:22.942Z</time></trkpt><trkpt lat="44.97013" lon="10.4643"><ele>20.0</ele><time>2026-04-11T11:24:23.942Z</time></trkpt><trkpt lat="44.9702183" lon="10.4640683"><ele>20.0</ele><time>2026-04-11T11:24:24.942Z</time></trkpt><trkpt lat="44.9702967" lon="10.4638333"><ele>20.0</ele><time>2026-04-11T11:24:25.942Z</time></trkpt><trkpt lat="44.9703767" lon="10.4635983"><ele>20.0</ele><time>2026-04-11T11:24:26.942Z</time></trkpt><trkpt lat="44.97046" lon="10.46337"><ele>20.333333333333336</ele><time>2026-04-11T11:24:27.942Z</time></trkpt><trkpt lat="44.970545" lon="10.4631283"><ele>20.666666666666668</ele><time>2026-04-11T11:24:28.942Z</time></trkpt><trkpt lat="44.9706317" lon="10.4628917"><ele>21.0</ele><time>2026-04-11T11:24:29.942Z</time></trkpt><trkpt lat="44.9707083" lon="10.4626667"><ele>21.0</ele><time>2026-04-11T11:24:30.942Z</time></trkpt><trkpt lat="44.97079" lon="10.46244"><ele>21.0</ele><time>2026-04-11T11:24:31.942Z</time></trkpt><trkpt lat="44.9708667" lon="10.462225"><ele>21.0</ele><time>2026-04-11T11:24:32.941Z</time></trkpt><trkpt lat="44.9709467" lon="10.462015"><ele>20.333333333333332</ele><time>2026-04-11T11:24:33.942Z</time></trkpt><trkpt lat="44.971025" lon="10.4618133"><ele>19.666666666666664</ele><time>2026-04-11T11:24:34.942Z</time></trkpt><trkpt lat="44.9711033" lon="10.4616083"><ele>19.0</ele><time>2026-04-11T11:24:35.942Z</time></trkpt><trkpt lat="44.9711767" lon="10.4614133"><ele>19.666666666666664</ele><time>2026-04-11T11:24:36.942Z</time></trkpt><trkpt lat="44.97125" lon="10.461225"><ele>20.333333333333332</ele><time>2026-04-11T11:24:37.942Z</time></trkpt><trkpt lat="44.9713267" lon="10.4610233"><ele>21.0</ele><time>2026-04-11T11:24:38.941Z</time></trkpt><trkpt lat="44.9714" lon="10.460825"><ele>21.0</ele><time>2026-04-11T11:24:39.942Z</time></trkpt><trkpt lat="44.9714767" lon="10.4606267"><ele>21.0</ele><time>2026-04-11T11:24:40.942Z</time></trkpt><trkpt lat="44.9715533" lon="10.460425"><ele>21.0</ele><time>2026-04-11T11:24:41.942Z</time></trkpt><trkpt lat="44.97163" lon="10.460215"><ele>21.333333333333332</ele><time>2026-04-11T11:24:42.942Z</time></trkpt><trkpt lat="44.9717133" lon="10.4599983"><ele>21.666666666666664</ele><time>2026-04-11T11:24:43.942Z</time></trkpt><trkpt lat="44.971795" lon="10.459785"><ele>22.0</ele><time>2026-04-11T11:24:44.941Z</time></trkpt><trkpt lat="44.97187" lon="10.45958"><ele>22.5</ele><time>2026-04-11T11:24:45.942Z</time></trkpt><trkpt lat="44.9719467" lon="10.4593867"><ele>23.0</ele><time>2026-04-11T11:24:46.942Z</time></trkpt><trkpt lat="44.9720133" lon="10.4592117"><ele>23.5</ele><time>2026-04-11T11:24:47.942Z</time></trkpt><trkpt lat="44.9720833" lon="10.45903"><ele>24.0</ele><time>2026-04-11T11:24:48.942Z</time></trkpt><trkpt lat="44.9721517" lon="10.4588533"><ele>24.25</ele><time>2026-04-11T11:24:49.942Z</time></trkpt><trkpt lat="44.97222" lon="10.45867"><ele>24.5</ele><time>2026-04-11T11:24:50.942Z</time></trkpt><trkpt lat="44.9722867" lon="10.45849"><ele>24.75</ele><time>2026-04-11T11:24:51.941Z</time></trkpt><trkpt lat="44.97235" lon="10.4583233"><ele>25.0</ele><time>2026-04-11T11:24:52.942Z</time></trkpt><trkpt lat="44.97241" lon="10.45817"><ele>25.0</ele><time>2026-04-11T11:24:53.942Z</time></trkpt><trkpt lat="44.9724667" lon="10.4580167"><ele>25.0</ele><time>2026-04-11T11:24:54.942Z</time></trkpt><trkpt lat="44.9725233" lon="10.4578583"><ele>25.0</ele><time>2026-04-11T11:24:55.942Z</time></trkpt><trkpt lat="44.972595" lon="10.4577083"><ele>25.0</ele><time>2026-04-11T11:24:56.942Z</time></trkpt><trkpt lat="44.9726567" lon="10.4575483"><ele>24.5</ele><time>2026-04-11T11:24:57.942Z</time></trkpt><trkpt lat="44.9727217" lon="10.4573783"><ele>24.0</ele><time>2026-04-11T11:24:58.942Z</time></trkpt><trkpt lat="44.9727817" lon="10.4572183"><ele>23.5</ele><time>2026-04-11T11:24:59.942Z</time></trkpt><trkpt lat="44.9728467" lon="10.4570433"><ele>23.0</ele><time>2026-04-11T11:25:00.942Z</time></trkpt><trkpt lat="44.972915" lon="10.4568717"><ele>23.0</ele><time>2026-04-11T11:25:01.942Z</time></trkpt><trkpt lat="44.97298" lon="10.456695"><ele>23.0</ele><time>2026-04-11T11:25:02.942Z</time></trkpt><trkpt lat="44.9730483" lon="10.4565117"><ele>23.0</ele><time>2026-04-11T11:25:03.942Z</time></trkpt><trkpt lat="44.9731167" lon="10.4563283"><ele>23.0</ele><time>2026-04-11T11:25:04.942Z</time></trkpt><trkpt lat="44.97318" lon="10.45615"><ele>23.0</ele><time>2026-04-11T11:25:05.942Z</time></trkpt><trkpt lat="44.9732483" lon="10.4559667"><ele>23.0</ele><time>2026-04-11T11:25:06.942Z</time></trkpt><trkpt lat="44.9733133" lon="10.4557817"><ele>23.0</ele><time>2026-04-11T11:25:07.942Z</time></trkpt><trkpt lat="44.9733833" lon="10.4555933"><ele>23.0</ele><time>2026-04-11T11:25:08.942Z</time></trkpt><trkpt lat="44.973455" lon="10.4554083"><ele>23.333333333333336</ele><time>2026-04-11T11:25:09.942Z</time></trkpt><trkpt lat="44.9735233" lon="10.45523"><ele>23.666666666666668</ele><time>2026-04-11T11:25:10.942Z</time></trkpt><trkpt lat="44.9736" lon="10.455045"><ele>24.0</ele><time>2026-04-11T11:25:11.942Z</time></trkpt><trkpt lat="44.973675" lon="10.4548517"><ele>24.0</ele><time>2026-04-11T11:25:12.942Z</time></trkpt><trkpt lat="44.97375" lon="10.4546617"><ele>24.0</ele><time>2026-04-11T11:25:13.942Z</time></trkpt><trkpt lat="44.9738267" lon="10.4544717"><ele>24.0</ele><time>2026-04-11T11:25:14.942Z</time></trkpt><trkpt lat="44.9738967" lon="10.4542833"><ele>24.0</ele><time>2026-04-11T11:25:15.942Z</time></trkpt><trkpt lat="44.9739717" lon="10.45409"><ele>24.0</ele><time>2026-04-11T11:25:16.942Z</time></trkpt><trkpt lat="44.97404" lon="10.4538967"><ele>24.0</ele><time>2026-04-11T11:25:17.942Z</time></trkpt><trkpt lat="44.9741033" lon="10.4536967"><ele>24.0</ele><time>2026-04-11T11:25:18.942Z</time></trkpt><trkpt lat="44.974165" lon="10.4534967"><ele>24.0</ele><time>2026-04-11T11:25:19.942Z</time></trkpt><trkpt lat="44.9742217" lon="10.45331"><ele>24.0</ele><time>2026-04-11T11:25:20.942Z</time></trkpt><trkpt lat="44.974275" lon="10.4531233"><ele>24.0</ele><time>2026-04-11T11:25:21.942Z</time></trkpt><trkpt lat="44.9743167" lon="10.4529533"><ele>23.75</ele><time>2026-04-11T11:25:22.942Z</time></trkpt><trkpt lat="44.9743617" lon="10.4527833"><ele>23.5</ele><time>2026-04-11T11:25:23.941Z</time></trkpt><trkpt lat="44.9743967" lon="10.452615"><ele>23.25</ele><time>2026-04-11T11:25:24.941Z</time></trkpt><trkpt lat="44.9744317" lon="10.4524467"><ele>23.0</ele><time>2026-04-11T11:25:25.941Z</time></trkpt><trkpt lat="44.9744717" lon="10.4522733"><ele>23.5</ele><time>2026-04-11T11:25:26.941Z</time></trkpt><trkpt lat="44.974515" lon="10.452095"><ele>24.0</ele><time>2026-04-11T11:25:27.941Z</time></trkpt><trkpt lat="44.9745517" lon="10.4519183"><ele>24.5</ele><time>2026-04-11T11:25:28.941Z</time></trkpt><trkpt lat="44.9745883" lon="10.45175"><ele>25.0</ele><time>2026-04-11T11:25:29.941Z</time></trkpt><trkpt lat="44.9746267" lon="10.451595"><ele>25.0</ele><time>2026-04-11T11:25:30.941Z</time></trkpt><trkpt lat="44.97466" lon="10.4514467"><ele>25.0</ele><time>2026-04-11T11:25:31.941Z</time></trkpt><trkpt lat="44.9746867" lon="10.4513017"><ele>25.0</ele><time>2026-04-11T11:25:32.941Z</time></trkpt><trkpt lat="44.97472" lon="10.4511483"><ele>25.0</ele><time>2026-04-11T11:25:33.941Z</time></trkpt><trkpt lat="44.9747617" lon="10.4509833"><ele>25.0</ele><time>2026-04-11T11:25:34.941Z</time></trkpt><trkpt lat="44.9748017" lon="10.45082"><ele>25.0</ele><time>2026-04-11T11:25:35.94Z</time></trkpt><trkpt lat="44.9748433" lon="10.4506517"><ele>25.0</ele><time>2026-04-11T11:25:36.941Z</time></trkpt><trkpt lat="44.9748833" lon="10.4504917"><ele>25.0</ele><time>2026-04-11T11:25:37.941Z</time></trkpt><trkpt lat="44.974925" lon="10.4503467"><ele>25.0</ele><time>2026-04-11T11:25:38.941Z</time></trkpt><trkpt lat="44.9749567" lon="10.4501883"><ele>25.0</ele><time>2026-04-11T11:25:39.94Z</time></trkpt><trkpt lat="44.974995" lon="10.4500517"><ele>25.0</ele><time>2026-04-11T11:25:40.941Z</time></trkpt><trkpt lat="44.9750333" lon="10.4499183"><ele>25.0</ele><time>2026-04-11T11:25:41.941Z</time></trkpt><trkpt lat="44.9750667" lon="10.449775"><ele>25.0</ele><time>2026-04-11T11:25:42.941Z</time></trkpt><trkpt lat="44.9751083" lon="10.44961"><ele>24.75</ele><time>2026-04-11T11:25:43.941Z</time></trkpt><trkpt lat="44.97515" lon="10.44945"><ele>24.5</ele><time>2026-04-11T11:25:44.941Z</time></trkpt><trkpt lat="44.9751917" lon="10.44929"><ele>24.25</ele><time>2026-04-11T11:25:45.941Z</time></trkpt><trkpt lat="44.975225" lon="10.44912"><ele>24.0</ele><time>2026-04-11T11:25:46.941Z</time></trkpt><trkpt lat="44.9752667" lon="10.44896"><ele>24.0</ele><time>2026-04-11T11:25:47.941Z</time></trkpt><trkpt lat="44.975295" lon="10.448795"><ele>24.0</ele><time>2026-04-11T11:25:48.941Z</time></trkpt><trkpt lat="44.9753167" lon="10.44865"><ele>24.0</ele><time>2026-04-11T11:25:49.941Z</time></trkpt><trkpt lat="44.9753283" lon="10.4484817"><ele>24.0</ele><time>2026-04-11T11:25:50.941Z</time></trkpt><trkpt lat="44.9753367" lon="10.4483067"><ele>24.0</ele><time>2026-04-11T11:25:51.941Z</time></trkpt><trkpt lat="44.9753417" lon="10.4481483"><ele>24.0</ele><time>2026-04-11T11:25:52.941Z</time></trkpt><trkpt lat="44.9753383" lon="10.4479833"><ele>24.0</ele><time>2026-04-11T11:25:53.941Z</time></trkpt><trkpt lat="44.97535" lon="10.447815"><ele>24.0</ele><time>2026-04-11T11:25:54.941Z</time></trkpt><trkpt lat="44.9753417" lon="10.44765"><ele>24.0</ele><time>2026-04-11T11:25:55.941Z</time></trkpt><trkpt lat="44.9753383" lon="10.447485"><ele>24.0</ele><time>2026-04-11T11:25:56.941Z</time></trkpt><trkpt lat="44.9753283" lon="10.447325"><ele>24.0</ele><time>2026-04-11T11:25:57.941Z</time></trkpt><trkpt lat="44.9753333" lon="10.447155"><ele>24.0</ele><time>2026-04-11T11:25:58.941Z</time></trkpt><trkpt lat="44.9753417" lon="10.446995"><ele>24.0</ele><time>2026-04-11T11:25:59.941Z</time></trkpt><trkpt lat="44.9753533" lon="10.446825"><ele>24.0</ele><time>2026-04-11T11:26:00.94Z</time></trkpt><trkpt lat="44.97536" lon="10.4466417"><ele>24.0</ele><time>2026-04-11T11:26:01.941Z</time></trkpt><trkpt lat="44.9753817" lon="10.4464783"><ele>24.0</ele><time>2026-04-11T11:26:02.941Z</time></trkpt><trkpt lat="44.9754183" lon="10.4462883"><ele>24.25</ele><time>2026-04-11T11:26:03.941Z</time></trkpt><trkpt lat="44.9754617" lon="10.4460983"><ele>24.5</ele><time>2026-04-11T11:26:04.941Z</time></trkpt><trkpt lat="44.97551" lon="10.445915"><ele>24.75</ele><time>2026-04-11T11:26:05.941Z</time></trkpt><trkpt lat="44.97556" lon="10.4457567"><ele>25.0</ele><time>2026-04-11T11:26:06.941Z</time></trkpt><trkpt lat="44.9756067" lon="10.4455683"><ele>25.0</ele><time>2026-04-11T11:26:07.941Z</time></trkpt><trkpt lat="44.9756167" lon="10.445375"><ele>25.0</ele><time>2026-04-11T11:26:08.941Z</time></trkpt><trkpt lat="44.9756017" lon="10.4451883"><ele>25.0</ele><time>2026-04-11T11:26:09.941Z</time></trkpt><trkpt lat="44.9755783" lon="10.445"><ele>25.0</ele><time>2026-04-11T11:26:10.941Z</time></trkpt><trkpt lat="44.9755467" lon="10.4448233"><ele>25.0</ele><time>2026-04-11T11:26:11.94Z</time></trkpt><trkpt lat="44.97551" lon="10.4446517"><ele>25.0</ele><time>2026-04-11T11:26:12.941Z</time></trkpt><trkpt lat="44.975465" lon="10.44447"><ele>25.0</ele><time>2026-04-11T11:26:13.941Z</time></trkpt><trkpt lat="44.97544" lon="10.4442717"><ele>25.0</ele><time>2026-04-11T11:26:14.941Z</time></trkpt><trkpt lat="44.975435" lon="10.4440733"><ele>24.75</ele><time>2026-04-11T11:26:15.941Z</time></trkpt><trkpt lat="44.975455" lon="10.4438783"><ele>24.5</ele><time>2026-04-11T11:26:16.94Z</time></trkpt><trkpt lat="44.9754783" lon="10.4436983"><ele>24.25</ele><time>2026-04-11T11:26:17.941Z</time></trkpt><trkpt lat="44.9755217" lon="10.443525"><ele>24.0</ele><time>2026-04-11T11:26:18.941Z</time></trkpt><trkpt lat="44.9755583" lon="10.443345"><ele>24.0</ele><time>2026-04-11T11:26:19.941Z</time></trkpt><trkpt lat="44.9755833" lon="10.4431633"><ele>24.0</ele><time>2026-04-11T11:26:20.941Z</time></trkpt><trkpt lat="44.9756133" lon="10.4429767"><ele>24.0</ele><time>2026-04-11T11:26:21.941Z</time></trkpt><trkpt lat="44.9756333" lon="10.4427883"><ele>24.0</ele><time>2026-04-11T11:26:22.941Z</time></trkpt><trkpt lat="44.9756533" lon="10.4425917"><ele>24.25</ele><time>2026-04-11T11:26:23.941Z</time></trkpt><trkpt lat="44.9756667" lon="10.4423933"><ele>24.5</ele><time>2026-04-11T11:26:24.941Z</time></trkpt><trkpt lat="44.9756783" lon="10.442185"><ele>24.75</ele><time>2026-04-11T11:26:25.941Z</time></trkpt><trkpt lat="44.9756883" lon="10.4419733"><ele>25.0</ele><time>2026-04-11T11:26:26.941Z</time></trkpt><trkpt lat="44.975685" lon="10.4417517"><ele>25.0</ele><time>2026-04-11T11:26:27.941Z</time></trkpt><trkpt lat="44.9756867" lon="10.4415283"><ele>25.0</ele><time>2026-04-11T11:26:28.94Z</time></trkpt><trkpt lat="44.9756967" lon="10.4413183"><ele>25.0</ele><time>2026-04-11T11:26:29.94Z</time></trkpt><trkpt lat="44.975705" lon="10.4410967"><ele>24.333333333333336</ele><time>2026-04-11T11:26:30.941Z</time></trkpt><trkpt lat="44.9757117" lon="10.4408717"><ele>23.666666666666668</ele><time>2026-04-11T11:26:31.941Z</time></trkpt><trkpt lat="44.9757217" lon="10.4406467"><ele>23.0</ele><time>2026-04-11T11:26:32.941Z</time></trkpt><trkpt lat="44.9757267" lon="10.440415"><ele>23.0</ele><time>2026-04-11T11:26:33.94Z</time></trkpt><trkpt lat="44.97574" lon="10.440185"><ele>23.0</ele><time>2026-04-11T11:26:34.941Z</time></trkpt><trkpt lat="44.9757533" lon="10.4399417"><ele>23.0</ele><time>2026-04-11T11:26:35.941Z</time></trkpt><trkpt lat="44.9757617" lon="10.4397117"><ele>23.0</ele><time>2026-04-11T11:26:36.941Z</time></trkpt><trkpt lat="44.975775" lon="10.4394883"><ele>23.0</ele><time>2026-04-11T11:26:37.941Z</time></trkpt><trkpt lat="44.97578" lon="10.4392567"><ele>23.0</ele><time>2026-04-11T11:26:38.941Z</time></trkpt><trkpt lat="44.9757917" lon="10.4390233"><ele>23.0</ele><time>2026-04-11T11:26:39.941Z</time></trkpt><trkpt lat="44.9758017" lon="10.4388033"><ele>23.0</ele><time>2026-04-11T11:26:40.941Z</time></trkpt><trkpt lat="44.9758133" lon="10.4385817"><ele>23.0</ele><time>2026-04-11T11:26:41.941Z</time></trkpt><trkpt lat="44.9758233" lon="10.438355"><ele>23.0</ele><time>2026-04-11T11:26:42.94Z</time></trkpt><trkpt lat="44.97583" lon="10.4381467"><ele>23.0</ele><time>2026-04-11T11:26:43.941Z</time></trkpt><trkpt lat="44.9758417" lon="10.437925"><ele>23.0</ele><time>2026-04-11T11:26:44.941Z</time></trkpt><trkpt lat="44.9758517" lon="10.43769"><ele>23.0</ele><time>2026-04-11T11:26:45.941Z</time></trkpt><trkpt lat="44.97586" lon="10.437445"><ele>23.0</ele><time>2026-04-11T11:26:46.941Z</time></trkpt><trkpt lat="44.9758683" lon="10.4371917"><ele>23.0</ele><time>2026-04-11T11:26:47.941Z</time></trkpt><trkpt lat="44.9758783" lon="10.4369533"><ele>23.0</ele><time>2026-04-11T11:26:48.941Z</time></trkpt><trkpt lat="44.975895" lon="10.436725"><ele>23.0</ele><time>2026-04-11T11:26:49.941Z</time></trkpt><trkpt lat="44.975905" lon="10.4364983"><ele>23.0</ele><time>2026-04-11T11:26:50.941Z</time></trkpt><trkpt lat="44.975915" lon="10.4362733"><ele>23.333333333333336</ele><time>2026-04-11T11:26:51.941Z</time></trkpt><trkpt lat="44.975925" lon="10.436055"><ele>23.666666666666668</ele><time>2026-04-11T11:26:52.941Z</time></trkpt><trkpt lat="44.9759317" lon="10.43584"><ele>24.0</ele><time>2026-04-11T11:26:53.941Z</time></trkpt><trkpt lat="44.9759433" lon="10.4356267"><ele>23.75</ele><time>2026-04-11T11:26:54.941Z</time></trkpt><trkpt lat="44.9759517" lon="10.4354167"><ele>23.5</ele><time>2026-04-11T11:26:55.94Z</time></trkpt><trkpt lat="44.9759583" lon="10.4352117"><ele>23.25</ele><time>2026-04-11T11:26:56.941Z</time></trkpt><trkpt lat="44.975965" lon="10.435005"><ele>23.0</ele><time>2026-04-11T11:26:57.941Z</time></trkpt><trkpt lat="44.975975" lon="10.4348033"><ele>23.5</ele><time>2026-04-11T11:26:58.941Z</time></trkpt><trkpt lat="44.97598" lon="10.4345983"><ele>24.0</ele><time>2026-04-11T11:26:59.941Z</time></trkpt><trkpt lat="44.9759933" lon="10.4344"><ele>24.5</ele><time>2026-04-11T11:27:00.941Z</time></trkpt><trkpt lat="44.9760017" lon="10.4342017"><ele>25.0</ele><time>2026-04-11T11:27:01.941Z</time></trkpt><trkpt lat="44.97601" lon="10.434"><ele>25.0</ele><time>2026-04-11T11:27:02.941Z</time></trkpt><trkpt lat="44.9760167" lon="10.4337967"><ele>25.0</ele><time>2026-04-11T11:27:03.94Z</time></trkpt><trkpt lat="44.9760233" lon="10.4335983"><ele>25.0</ele><time>2026-04-11T11:27:04.94Z</time></trkpt><trkpt lat="44.976035" lon="10.4333883"><ele>25.0</ele><time>2026-04-11T11:27:05.941Z</time></trkpt><trkpt lat="44.9760483" lon="10.43317"><ele>25.25</ele><time>2026-04-11T11:27:06.941Z</time></trkpt><trkpt lat="44.9760583" lon="10.43295"><ele>25.5</ele><time>2026-04-11T11:27:07.941Z</time></trkpt><trkpt lat="44.9760667" lon="10.4327533"><ele>25.75</ele><time>2026-04-11T11:27:08.941Z</time></trkpt><trkpt lat="44.9760717" lon="10.4325633"><ele>26.0</ele><time>2026-04-11T11:27:09.941Z</time></trkpt><trkpt lat="44.9760783" lon="10.432385"><ele>26.0</ele><time>2026-04-11T11:27:10.941Z</time></trkpt><trkpt lat="44.97609" lon="10.4321967"><ele>26.0</ele><time>2026-04-11T11:27:11.941Z</time></trkpt><trkpt lat="44.9761017" lon="10.4320067"><ele>26.0</ele><time>2026-04-11T11:27:12.941Z</time></trkpt><trkpt lat="44.9761133" lon="10.4318067"><ele>26.0</ele><time>2026-04-11T11:27:13.941Z</time></trkpt><trkpt lat="44.97613" lon="10.43161"><ele>25.75</ele><time>2026-04-11T11:27:14.941Z</time></trkpt><trkpt lat="44.9761583" lon="10.4314133"><ele>25.5</ele><time>2026-04-11T11:27:15.941Z</time></trkpt><trkpt lat="44.9761917" lon="10.4312083"><ele>25.25</ele><time>2026-04-11T11:27:16.941Z</time></trkpt><trkpt lat="44.976225" lon="10.4310267"><ele>25.0</ele><time>2026-04-11T11:27:17.941Z</time></trkpt><trkpt lat="44.9762583" lon="10.43085"><ele>25.4</ele><time>2026-04-11T11:27:18.94Z</time></trkpt><trkpt lat="44.976295" lon="10.430685"><ele>25.8</ele><time>2026-04-11T11:27:19.941Z</time></trkpt><trkpt lat="44.97633" lon="10.4305333"><ele>26.200000000000003</ele><time>2026-04-11T11:27:20.941Z</time></trkpt><trkpt lat="44.9763667" lon="10.4303917"><ele>26.6</ele><time>2026-04-11T11:27:21.941Z</time></trkpt><trkpt lat="44.9764" lon="10.43027"><ele>27.0</ele><time>2026-04-11T11:27:22.941Z</time></trkpt><trkpt lat="44.97643" lon="10.4301633"><ele>27.0</ele><time>2026-04-11T11:27:23.941Z</time></trkpt><trkpt lat="44.9764517" lon="10.4300717"><ele>27.000000000000004</ele><time>2026-04-11T11:27:24.941Z</time></trkpt><trkpt lat="44.976495" lon="10.4299267"><ele>27.000000000000004</ele><time>2026-04-11T11:27:26.941Z</time></trkpt><trkpt lat="44.9765533" lon="10.4298017"><ele>27.0</ele><time>2026-04-11T11:27:28.94Z</time></trkpt><trkpt lat="44.976625" lon="10.4297067"><ele>27.0</ele><time>2026-04-11T11:27:30.941Z</time></trkpt><trkpt lat="44.9766733" lon="10.4296383"><ele>26.833333333333332</ele><time>2026-04-11T11:27:31.941Z</time></trkpt><trkpt lat="44.9767033" lon="10.4295367"><ele>26.666666666666664</ele><time>2026-04-11T11:27:32.94Z</time></trkpt><trkpt lat="44.9767133" lon="10.429425"><ele>26.5</ele><time>2026-04-11T11:27:33.94Z</time></trkpt><trkpt lat="44.97671" lon="10.429305"><ele>26.333333333333332</ele><time>2026-04-11T11:27:34.941Z</time></trkpt><trkpt lat="44.9767083" lon="10.429185"><ele>26.166666666666664</ele><time>2026-04-11T11:27:35.941Z</time></trkpt><trkpt lat="44.9767267" lon="10.429075"><ele>26.0</ele><time>2026-04-11T11:27:36.941Z</time></trkpt><trkpt lat="44.9767483" lon="10.4289583"><ele>26.0</ele><time>2026-04-11T11:27:37.941Z</time></trkpt><trkpt lat="44.976785" lon="10.4288283"><ele>26.0</ele><time>2026-04-11T11:27:38.94Z</time></trkpt><trkpt lat="44.976825" lon="10.4286833"><ele>26.0</ele><time>2026-04-11T11:27:39.941Z</time></trkpt><trkpt lat="44.9768633" lon="10.4285433"><ele>26.0</ele><time>2026-04-11T11:27:40.941Z</time></trkpt><trkpt lat="44.9769" lon="10.4283917"><ele>26.0</ele><time>2026-04-11T11:27:41.941Z</time></trkpt><trkpt lat="44.9769367" lon="10.4282367"><ele>26.25</ele><time>2026-04-11T11:27:42.941Z</time></trkpt><trkpt lat="44.976975" lon="10.428085"><ele>26.5</ele><time>2026-04-11T11:27:43.941Z</time></trkpt><trkpt lat="44.9770167" lon="10.427935"><ele>26.75</ele><time>2026-04-11T11:27:44.941Z</time></trkpt><trkpt lat="44.9770533" lon="10.4277683"><ele>27.0</ele><time>2026-04-11T11:27:45.941Z</time></trkpt><trkpt lat="44.9770917" lon="10.42762"><ele>27.0</ele><time>2026-04-11T11:27:46.941Z</time></trkpt><trkpt lat="44.9771317" lon="10.427455"><ele>27.0</ele><time>2026-04-11T11:27:47.94Z</time></trkpt><trkpt lat="44.97718" lon="10.42729"><ele>27.0</ele><time>2026-04-11T11:27:48.94Z</time></trkpt><trkpt lat="44.9772283" lon="10.4271183"><ele>27.0</ele><time>2026-04-11T11:27:49.941Z</time></trkpt><trkpt lat="44.9772767" lon="10.4269417"><ele>27.0</ele><time>2026-04-11T11:27:50.941Z</time></trkpt><trkpt lat="44.9773233" lon="10.42676"><ele>27.0</ele><time>2026-04-11T11:27:51.941Z</time></trkpt><trkpt lat="44.9773717" lon="10.4265917"><ele>27.0</ele><time>2026-04-11T11:27:52.941Z</time></trkpt><trkpt lat="44.9774183" lon="10.42643"><ele>27.0</ele><time>2026-04-11T11:27:53.941Z</time></trkpt><trkpt lat="44.9774633" lon="10.42627"><ele>26.75</ele><time>2026-04-11T11:27:54.941Z</time></trkpt><trkpt lat="44.9775183" lon="10.4261117"><ele>26.5</ele><time>2026-04-11T11:27:55.941Z</time></trkpt><trkpt lat="44.977585" lon="10.425945"><ele>26.25</ele><time>2026-04-11T11:27:56.941Z</time></trkpt><trkpt lat="44.9776583" lon="10.42578"><ele>26.0</ele><time>2026-04-11T11:27:57.941Z</time></trkpt><trkpt lat="44.977735" lon="10.42561"><ele>25.75</ele><time>2026-04-11T11:27:58.941Z</time></trkpt><trkpt lat="44.9778233" lon="10.4254467"><ele>25.5</ele><time>2026-04-11T11:27:59.941Z</time></trkpt><trkpt lat="44.9779217" lon="10.42529"><ele>25.25</ele><time>2026-04-11T11:28:00.941Z</time></trkpt><trkpt lat="44.97803" lon="10.4251383"><ele>25.0</ele><time>2026-04-11T11:28:01.941Z</time></trkpt><trkpt lat="44.9781433" lon="10.4250233"><ele>25.0</ele><time>2026-04-11T11:28:02.941Z</time></trkpt><trkpt lat="44.9782667" lon="10.4249167"><ele>25.0</ele><time>2026-04-11T11:28:03.941Z</time></trkpt><trkpt lat="44.9783917" lon="10.4248417"><ele>25.0</ele><time>2026-04-11T11:28:04.941Z</time></trkpt><trkpt lat="44.9785117" lon="10.4247867"><ele>25.0</ele><time>2026-04-11T11:28:05.941Z</time></trkpt><trkpt lat="44.978635" lon="10.4247517"><ele>24.75</ele><time>2026-04-11T11:28:06.941Z</time></trkpt><trkpt lat="44.9787467" lon="10.4247217"><ele>24.5</ele><time>2026-04-11T11:28:07.941Z</time></trkpt><trkpt lat="44.9788567" lon="10.4246967"><ele>24.25</ele><time>2026-04-11T11:28:08.941Z</time></trkpt><trkpt lat="44.97898" lon="10.4246817"><ele>24.0</ele><time>2026-04-11T11:28:09.941Z</time></trkpt><trkpt lat="44.9790933" lon="10.424665"><ele>24.0</ele><time>2026-04-11T11:28:10.941Z</time></trkpt><trkpt lat="44.9792033" lon="10.4246283"><ele>24.0</ele><time>2026-04-11T11:28:11.941Z</time></trkpt><trkpt lat="44.979295" lon="10.424565"><ele>24.0</ele><time>2026-04-11T11:28:12.941Z</time></trkpt><trkpt lat="44.97938" lon="10.42449"><ele>24.0</ele><time>2026-04-11T11:28:13.941Z</time></trkpt><trkpt lat="44.9794483" lon="10.4243967"><ele>24.0</ele><time>2026-04-11T11:28:14.941Z</time></trkpt><trkpt lat="44.9795067" lon="10.42427"><ele>24.0</ele><time>2026-04-11T11:28:15.941Z</time></trkpt><trkpt lat="44.97955" lon="10.4241367"><ele>24.0</ele><time>2026-04-11T11:28:16.941Z</time></trkpt><trkpt lat="44.9795917" lon="10.423995"><ele>24.0</ele><time>2026-04-11T11:28:17.941Z</time></trkpt><trkpt lat="44.9796417" lon="10.42385"><ele>24.0</ele><time>2026-04-11T11:28:18.941Z</time></trkpt><trkpt lat="44.9796933" lon="10.4236983"><ele>24.0</ele><time>2026-04-11T11:28:19.94Z</time></trkpt><trkpt lat="44.9797617" lon="10.4235583"><ele>24.0</ele><time>2026-04-11T11:28:20.941Z</time></trkpt><trkpt lat="44.9798517" lon="10.423435"><ele>24.0</ele><time>2026-04-11T11:28:21.941Z</time></trkpt><trkpt lat="44.9799483" lon="10.4233317"><ele>24.0</ele><time>2026-04-11T11:28:22.94Z</time></trkpt><trkpt lat="44.9800667" lon="10.423245"><ele>24.0</ele><time>2026-04-11T11:28:23.94Z</time></trkpt><trkpt lat="44.9801883" lon="10.4231783"><ele>24.25</ele><time>2026-04-11T11:28:24.94Z</time></trkpt><trkpt lat="44.9803233" lon="10.42312"><ele>24.5</ele><time>2026-04-11T11:28:25.94Z</time></trkpt><trkpt lat="44.9804617" lon="10.423055"><ele>24.75</ele><time>2026-04-11T11:28:26.94Z</time></trkpt><trkpt lat="44.9806117" lon="10.423"><ele>25.0</ele><time>2026-04-11T11:28:27.94Z</time></trkpt><trkpt lat="44.9807667" lon="10.4229617"><ele>25.25</ele><time>2026-04-11T11:28:28.94Z</time></trkpt><trkpt lat="44.9809117" lon="10.42294"><ele>25.5</ele><time>2026-04-11T11:28:29.94Z</time></trkpt><trkpt lat="44.9810567" lon="10.4229217"><ele>25.75</ele><time>2026-04-11T11:28:30.94Z</time></trkpt><trkpt lat="44.9812" lon="10.4229233"><ele>26.0</ele><time>2026-04-11T11:28:31.94Z</time></trkpt><trkpt lat="44.9813383" lon="10.422905"><ele>26.0</ele><time>2026-04-11T11:28:32.939Z</time></trkpt><trkpt lat="44.981475" lon="10.4228883"><ele>26.0</ele><time>2026-04-11T11:28:33.94Z</time></trkpt><trkpt lat="44.9815983" lon="10.4228683"><ele>26.0</ele><time>2026-04-11T11:28:34.94Z</time></trkpt><trkpt lat="44.9817217" lon="10.4228617"><ele>26.0</ele><time>2026-04-11T11:28:35.94Z</time></trkpt><trkpt lat="44.98185" lon="10.4228517"><ele>25.75</ele><time>2026-04-11T11:28:36.94Z</time></trkpt><trkpt lat="44.9819583" lon="10.4228383"><ele>25.5</ele><time>2026-04-11T11:28:37.939Z</time></trkpt><trkpt lat="44.9820667" lon="10.4228133"><ele>25.25</ele><time>2026-04-11T11:28:38.94Z</time></trkpt><trkpt lat="44.98218" lon="10.4227883"><ele>25.0</ele><time>2026-04-11T11:28:39.939Z</time></trkpt><trkpt lat="44.9822983" lon="10.4227767"><ele>25.0</ele><time>2026-04-11T11:28:40.94Z</time></trkpt><trkpt lat="44.9824217" lon="10.422765"><ele>25.0</ele><time>2026-04-11T11:28:41.939Z</time></trkpt><trkpt lat="44.9825517" lon="10.422755"><ele>25.0</ele><time>2026-04-11T11:28:42.94Z</time></trkpt><trkpt lat="44.9826733" lon="10.4227433"><ele>25.0</ele><time>2026-04-11T11:28:43.94Z</time></trkpt><trkpt lat="44.9827917" lon="10.422715"><ele>25.2</ele><time>2026-04-11T11:28:44.939Z</time></trkpt><trkpt lat="44.9828933" lon="10.4227017"><ele>25.4</ele><time>2026-04-11T11:28:45.94Z</time></trkpt><trkpt lat="44.9829983" lon="10.4226633"><ele>25.6</ele><time>2026-04-11T11:28:46.94Z</time></trkpt><trkpt lat="44.9831" lon="10.4226517"><ele>25.8</ele><time>2026-04-11T11:28:47.94Z</time></trkpt><trkpt lat="44.9831817" lon="10.42265"><ele>26.0</ele><time>2026-04-11T11:28:48.94Z</time></trkpt><trkpt lat="44.9832483" lon="10.4226483"><ele>26.0</ele><time>2026-04-11T11:28:49.94Z</time></trkpt><trkpt lat="44.9833183" lon="10.4226667"><ele>26.0</ele><time>2026-04-11T11:28:50.94Z</time></trkpt><trkpt lat="44.9834183" lon="10.422655"><ele>26.0</ele><time>2026-04-11T11:28:52.94Z</time></trkpt><trkpt lat="44.9835033" lon="10.422645"><ele>26.0</ele><time>2026-04-11T11:28:54.94Z</time></trkpt><trkpt lat="44.983595" lon="10.4226383"><ele>26.0</ele><time>2026-04-11T11:28:56.94Z</time></trkpt><trkpt lat="44.98371" lon="10.4226383"><ele>26.166666666666664</ele><time>2026-04-11T11:28:58.94Z</time></trkpt><trkpt lat="44.983785" lon="10.4226533"><ele>26.333333333333332</ele><time>2026-04-11T11:28:59.94Z</time></trkpt><trkpt lat="44.9838583" lon="10.4226683"><ele>26.5</ele><time>2026-04-11T11:29:00.94Z</time></trkpt><trkpt lat="44.9839283" lon="10.4226617"><ele>26.666666666666664</ele><time>2026-04-11T11:29:01.939Z</time></trkpt><trkpt lat="44.9839967" lon="10.4226367"><ele>26.833333333333332</ele><time>2026-04-11T11:29:02.94Z</time></trkpt><trkpt lat="44.984075" lon="10.4226017"><ele>27.0</ele><time>2026-04-11T11:29:03.94Z</time></trkpt><trkpt lat="44.9841733" lon="10.422555"><ele>26.8</ele><time>2026-04-11T11:29:04.94Z</time></trkpt><trkpt lat="44.984275" lon="10.4225283"><ele>26.6</ele><time>2026-04-11T11:29:05.94Z</time></trkpt><trkpt lat="44.9843717" lon="10.4225133"><ele>26.400000000000002</ele><time>2026-04-11T11:29:06.94Z</time></trkpt><trkpt lat="44.984465" lon="10.422505"><ele>26.200000000000003</ele><time>2026-04-11T11:29:07.94Z</time></trkpt><trkpt lat="44.9845533" lon="10.42249"><ele>26.0</ele><time>2026-04-11T11:29:08.94Z</time></trkpt><trkpt lat="44.9846517" lon="10.42248"><ele>26.0</ele><time>2026-04-11T11:29:09.94Z</time></trkpt><trkpt lat="44.9847483" lon="10.4224667"><ele>26.0</ele><time>2026-04-11T11:29:10.94Z</time></trkpt><trkpt lat="44.9848317" lon="10.4224483"><ele>26.0</ele><time>2026-04-11T11:29:11.94Z</time></trkpt><trkpt lat="44.9849" lon="10.422445"><ele>26.0</ele><time>2026-04-11T11:29:12.94Z</time></trkpt><trkpt lat="44.9850033" lon="10.422435"><ele>26.0</ele><time>2026-04-11T11:29:14.94Z</time></trkpt><trkpt lat="44.9851167" lon="10.42241"><ele>26.166666666666664</ele><time>2026-04-11T11:29:16.94Z</time></trkpt><trkpt lat="44.9851867" lon="10.4223983"><ele>26.333333333333332</ele><time>2026-04-11T11:29:17.94Z</time></trkpt><trkpt lat="44.9852733" lon="10.422395"><ele>26.5</ele><time>2026-04-11T11:29:18.94Z</time></trkpt><trkpt lat="44.9853617" lon="10.4223767"><ele>26.666666666666664</ele><time>2026-04-11T11:29:19.94Z</time></trkpt><trkpt lat="44.9854583" lon="10.422365"><ele>26.833333333333332</ele><time>2026-04-11T11:29:20.94Z</time></trkpt><trkpt lat="44.98556" lon="10.4223567"><ele>27.0</ele><time>2026-04-11T11:29:21.94Z</time></trkpt><trkpt lat="44.985665" lon="10.4223417"><ele>27.0</ele><time>2026-04-11T11:29:22.94Z</time></trkpt><trkpt lat="44.9857683" lon="10.4223217"><ele>27.000000000000004</ele><time>2026-04-11T11:29:23.94Z</time></trkpt><trkpt lat="44.9858667" lon="10.4223217"><ele>27.000000000000004</ele><time>2026-04-11T11:29:24.94Z</time></trkpt><trkpt lat="44.9859633" lon="10.422325"><ele>27.0</ele><time>2026-04-11T11:29:25.94Z</time></trkpt><trkpt lat="44.986065" lon="10.4223117"><ele>27.0</ele><time>2026-04-11T11:29:26.94Z</time></trkpt><trkpt lat="44.98617" lon="10.4223"><ele>26.8</ele><time>2026-04-11T11:29:27.94Z</time></trkpt><trkpt lat="44.986275" lon="10.42229"><ele>26.6</ele><time>2026-04-11T11:29:28.94Z</time></trkpt><trkpt lat="44.9863867" lon="10.4222783"><ele>26.400000000000002</ele><time>2026-04-11T11:29:29.94Z</time></trkpt><trkpt lat="44.9864983" lon="10.42227"><ele>26.200000000000003</ele><time>2026-04-11T11:29:30.94Z</time></trkpt><trkpt lat="44.9866033" lon="10.42225"><ele>26.0</ele><time>2026-04-11T11:29:31.94Z</time></trkpt><trkpt lat="44.9867183" lon="10.42224"><ele>26.0</ele><time>2026-04-11T11:29:32.94Z</time></trkpt><trkpt lat="44.9868317" lon="10.4222217"><ele>26.0</ele><time>2026-04-11T11:29:33.939Z</time></trkpt><trkpt lat="44.98695" lon="10.4222133"><ele>26.0</ele><time>2026-04-11T11:29:34.939Z</time></trkpt><trkpt lat="44.9870733" lon="10.422205"><ele>26.0</ele><time>2026-04-11T11:29:35.94Z</time></trkpt><trkpt lat="44.9871967" lon="10.422185"><ele>26.0</ele><time>2026-04-11T11:29:36.94Z</time></trkpt><trkpt lat="44.9873283" lon="10.4221767"><ele>26.0</ele><time>2026-04-11T11:29:37.94Z</time></trkpt><trkpt lat="44.987455" lon="10.4221617"><ele>26.0</ele><time>2026-04-11T11:29:38.94Z</time></trkpt><trkpt lat="44.9875817" lon="10.4221483"><ele>26.0</ele><time>2026-04-11T11:29:39.94Z</time></trkpt><trkpt lat="44.987705" lon="10.4221267"><ele>26.0</ele><time>2026-04-11T11:29:40.94Z</time></trkpt><trkpt lat="44.9878333" lon="10.42211"><ele>26.0</ele><time>2026-04-11T11:29:41.94Z</time></trkpt><trkpt lat="44.9879683" lon="10.4220833"><ele>26.0</ele><time>2026-04-11T11:29:42.94Z</time></trkpt><trkpt lat="44.98809" lon="10.4220683"><ele>26.0</ele><time>2026-04-11T11:29:43.94Z</time></trkpt><trkpt lat="44.9882017" lon="10.42202"><ele>26.0</ele><time>2026-04-11T11:29:44.939Z</time></trkpt><trkpt lat="44.9883167" lon="10.42195"><ele>26.0</ele><time>2026-04-11T11:29:45.94Z</time></trkpt><trkpt lat="44.9884167" lon="10.4219033"><ele>26.0</ele><time>2026-04-11T11:29:46.94Z</time></trkpt><trkpt lat="44.9885" lon="10.421835"><ele>26.0</ele><time>2026-04-11T11:29:47.94Z</time></trkpt><trkpt lat="44.9885733" lon="10.4217717"><ele>26.0</ele><time>2026-04-11T11:29:48.94Z</time></trkpt><trkpt lat="44.9886333" lon="10.4217233"><ele>25.8</ele><time>2026-04-11T11:29:49.94Z</time></trkpt><trkpt lat="44.9887367" lon="10.421625"><ele>25.6</ele><time>2026-04-11T11:29:51.94Z</time></trkpt><trkpt lat="44.9888283" lon="10.4215483"><ele>25.4</ele><time>2026-04-11T11:29:53.94Z</time></trkpt><trkpt lat="44.988925" lon="10.4215167"><ele>25.2</ele><time>2026-04-11T11:29:55.94Z</time></trkpt><trkpt lat="44.98899" lon="10.4215017"><ele>25.0</ele><time>2026-04-11T11:29:56.94Z</time></trkpt><trkpt lat="44.9890517" lon="10.421465"><ele>25.000000000000004</ele><time>2026-04-11T11:29:57.94Z</time></trkpt><trkpt lat="44.9891" lon="10.4214"><ele>25.0</ele><time>2026-04-11T11:29:58.94Z</time></trkpt><trkpt lat="44.9891367" lon="10.42131"><ele>25.0</ele><time>2026-04-11T11:29:59.94Z</time></trkpt><trkpt lat="44.9891617" lon="10.4212017"><ele>25.0</ele><time>2026-04-11T11:30:00.94Z</time></trkpt><trkpt lat="44.98918" lon="10.4211"><ele>25.0</ele><time>2026-04-11T11:30:01.94Z</time></trkpt><trkpt lat="44.989205" lon="10.4210017"><ele>25.000000000000004</ele><time>2026-04-11T11:30:02.94Z</time></trkpt><trkpt lat="44.9892483" lon="10.4209083"><ele>25.0</ele><time>2026-04-11T11:30:03.94Z</time></trkpt><trkpt lat="44.98931" lon="10.4208"><ele>24.8</ele><time>2026-04-11T11:30:04.94Z</time></trkpt><trkpt lat="44.9893783" lon="10.42069"><ele>24.6</ele><time>2026-04-11T11:30:05.94Z</time></trkpt><trkpt lat="44.989455" lon="10.4205867"><ele>24.4</ele><time>2026-04-11T11:30:06.94Z</time></trkpt><trkpt lat="44.9895283" lon="10.4204883"><ele>24.2</ele><time>2026-04-11T11:30:07.94Z</time></trkpt><trkpt lat="44.9896033" lon="10.4204017"><ele>24.0</ele><time>2026-04-11T11:30:08.94Z</time></trkpt><trkpt lat="44.9896783" lon="10.4203167"><ele>24.0</ele><time>2026-04-11T11:30:09.94Z</time></trkpt><trkpt lat="44.9897617" lon="10.4202417"><ele>24.0</ele><time>2026-04-11T11:30:10.94Z</time></trkpt><trkpt lat="44.9898617" lon="10.4201633"><ele>24.0</ele><time>2026-04-11T11:30:11.94Z</time></trkpt><trkpt lat="44.98998" lon="10.4200967"><ele>24.0</ele><time>2026-04-11T11:30:12.94Z</time></trkpt><trkpt lat="44.9901017" lon="10.4200333"><ele>24.25</ele><time>2026-04-11T11:30:13.94Z</time></trkpt><trkpt lat="44.9902283" lon="10.41996"><ele>24.5</ele><time>2026-04-11T11:30:14.939Z</time></trkpt><trkpt lat="44.99036" lon="10.4198983"><ele>24.75</ele><time>2026-04-11T11:30:15.94Z</time></trkpt><trkpt lat="44.990495" lon="10.4198283"><ele>25.0</ele><time>2026-04-11T11:30:16.94Z</time></trkpt><trkpt lat="44.990635" lon="10.4197567"><ele>25.0</ele><time>2026-04-11T11:30:17.94Z</time></trkpt><trkpt lat="44.9907667" lon="10.4196917"><ele>25.0</ele><time>2026-04-11T11:30:18.94Z</time></trkpt><trkpt lat="44.9908983" lon="10.41963"><ele>25.0</ele><time>2026-04-11T11:30:19.94Z</time></trkpt><trkpt lat="44.9910267" lon="10.4195667"><ele>25.0</ele><time>2026-04-11T11:30:20.94Z</time></trkpt><trkpt lat="44.991155" lon="10.4195083"><ele>25.25</ele><time>2026-04-11T11:30:21.94Z</time></trkpt><trkpt lat="44.9912883" lon="10.4194367"><ele>25.5</ele><time>2026-04-11T11:30:22.94Z</time></trkpt><trkpt lat="44.99142" lon="10.419365"><ele>25.75</ele><time>2026-04-11T11:30:23.94Z</time></trkpt><trkpt lat="44.9915567" lon="10.4192967"><ele>26.0</ele><time>2026-04-11T11:30:24.94Z</time></trkpt><trkpt lat="44.9916933" lon="10.4192383"><ele>26.0</ele><time>2026-04-11T11:30:25.94Z</time></trkpt><trkpt lat="44.9918283" lon="10.41917"><ele>26.0</ele><time>2026-04-11T11:30:26.94Z</time></trkpt><trkpt lat="44.9919617" lon="10.4190983"><ele>26.0</ele><time>2026-04-11T11:30:27.94Z</time></trkpt><trkpt lat="44.9920867" lon="10.4190317"><ele>26.0</ele><time>2026-04-11T11:30:28.94Z</time></trkpt><trkpt lat="44.9922017" lon="10.4189733"><ele>26.0</ele><time>2026-04-11T11:30:29.94Z</time></trkpt><trkpt lat="44.992315" lon="10.41892"><ele>26.0</ele><time>2026-04-11T11:30:30.94Z</time></trkpt><trkpt lat="44.9924183" lon="10.41887"><ele>26.0</ele><time>2026-04-11T11:30:31.94Z</time></trkpt><trkpt lat="44.9925233" lon="10.4188167"><ele>26.0</ele><time>2026-04-11T11:30:32.94Z</time></trkpt><trkpt lat="44.9926383" lon="10.41876"><ele>26.0</ele><time>2026-04-11T11:30:33.939Z</time></trkpt><trkpt lat="44.9927533" lon="10.4186983"><ele>26.0</ele><time>2026-04-11T11:30:34.94Z</time></trkpt><trkpt lat="44.9928767" lon="10.41865"><ele>26.0</ele><time>2026-04-11T11:30:35.939Z</time></trkpt><trkpt lat="44.992985" lon="10.4185883"><ele>26.0</ele><time>2026-04-11T11:30:36.94Z</time></trkpt><trkpt lat="44.99308" lon="10.4185317"><ele>26.0</ele><time>2026-04-11T11:30:37.939Z</time></trkpt><trkpt lat="44.9931733" lon="10.4184867"><ele>26.0</ele><time>2026-04-11T11:30:38.94Z</time></trkpt><trkpt lat="44.9932667" lon="10.4184467"><ele>26.0</ele><time>2026-04-11T11:30:39.94Z</time></trkpt><trkpt lat="44.99336" lon="10.4184033"><ele>26.0</ele><time>2026-04-11T11:30:40.94Z</time></trkpt><trkpt lat="44.9934417" lon="10.4183533"><ele>26.0</ele><time>2026-04-11T11:30:41.94Z</time></trkpt><trkpt lat="44.993515" lon="10.41831"><ele>26.166666666666664</ele><time>2026-04-11T11:30:42.939Z</time></trkpt><trkpt lat="44.9935833" lon="10.4182783"><ele>26.333333333333332</ele><time>2026-04-11T11:30:43.94Z</time></trkpt><trkpt lat="44.9936817" lon="10.41819"><ele>26.5</ele><time>2026-04-11T11:30:45.94Z</time></trkpt><trkpt lat="44.993745" lon="10.4181683"><ele>26.666666666666664</ele><time>2026-04-11T11:30:46.94Z</time></trkpt><trkpt lat="44.993825" lon="10.4181433"><ele>26.833333333333332</ele><time>2026-04-11T11:30:47.94Z</time></trkpt><trkpt lat="44.9939033" lon="10.4181183"><ele>27.0</ele><time>2026-04-11T11:30:48.94Z</time></trkpt><trkpt lat="44.9939833" lon="10.4180683"><ele>27.0</ele><time>2026-04-11T11:30:49.94Z</time></trkpt><trkpt lat="44.994075" lon="10.4179983"><ele>27.0</ele><time>2026-04-11T11:30:50.94Z</time></trkpt><trkpt lat="44.9941883" lon="10.4179267"><ele>27.0</ele><time>2026-04-11T11:30:51.94Z</time></trkpt><trkpt lat="44.99432" lon="10.4178317"><ele>27.0</ele><time>2026-04-11T11:30:52.939Z</time></trkpt><trkpt lat="44.99446" lon="10.41776"><ele>26.5</ele><time>2026-04-11T11:30:53.939Z</time></trkpt><trkpt lat="44.9945783" lon="10.4177"><ele>26.0</ele><time>2026-04-11T11:30:54.94Z</time></trkpt><trkpt lat="44.994705" lon="10.4176483"><ele>25.5</ele><time>2026-04-11T11:30:55.94Z</time></trkpt><trkpt lat="44.994825" lon="10.4175867"><ele>25.0</ele><time>2026-04-11T11:30:56.94Z</time></trkpt><trkpt lat="44.9949483" lon="10.41753"><ele>25.5</ele><time>2026-04-11T11:30:57.94Z</time></trkpt><trkpt lat="44.9950817" lon="10.4174667"><ele>26.0</ele><time>2026-04-11T11:30:58.94Z</time></trkpt><trkpt lat="44.995215" lon="10.417405"><ele>26.5</ele><time>2026-04-11T11:30:59.94Z</time></trkpt><trkpt lat="44.9953533" lon="10.4173383"><ele>27.0</ele><time>2026-04-11T11:31:00.94Z</time></trkpt><trkpt lat="44.9954967" lon="10.4172683"><ele>27.0</ele><time>2026-04-11T11:31:01.939Z</time></trkpt><trkpt lat="44.9956267" lon="10.41719"><ele>27.0</ele><time>2026-04-11T11:31:02.94Z</time></trkpt><trkpt lat="44.9957533" lon="10.417125"><ele>27.0</ele><time>2026-04-11T11:31:03.94Z</time></trkpt><trkpt lat="44.99586" lon="10.4170717"><ele>27.0</ele><time>2026-04-11T11:31:04.94Z</time></trkpt><trkpt lat="44.995955" lon="10.4170217"><ele>26.8</ele><time>2026-04-11T11:31:05.94Z</time></trkpt><trkpt lat="44.9960483" lon="10.416975"><ele>26.6</ele><time>2026-04-11T11:31:06.94Z</time></trkpt><trkpt lat="44.9961367" lon="10.4169333"><ele>26.400000000000002</ele><time>2026-04-11T11:31:07.94Z</time></trkpt><trkpt lat="44.9962183" lon="10.4168883"><ele>26.200000000000003</ele><time>2026-04-11T11:31:08.94Z</time></trkpt><trkpt lat="44.9963033" lon="10.4168417"><ele>26.0</ele><time>2026-04-11T11:31:09.94Z</time></trkpt><trkpt lat="44.996395" lon="10.416795"><ele>26.0</ele><time>2026-04-11T11:31:10.94Z</time></trkpt><trkpt lat="44.9964883" lon="10.4167467"><ele>26.0</ele><time>2026-04-11T11:31:11.94Z</time></trkpt><trkpt lat="44.9965817" lon="10.4166983"><ele>26.0</ele><time>2026-04-11T11:31:12.94Z</time></trkpt><trkpt lat="44.9966667" lon="10.4166533"><ele>26.0</ele><time>2026-04-11T11:31:13.94Z</time></trkpt><trkpt lat="44.9967517" lon="10.4166117"><ele>26.0</ele><time>2026-04-11T11:31:14.94Z</time></trkpt><trkpt lat="44.996835" lon="10.416575"><ele>26.166666666666664</ele><time>2026-04-11T11:31:15.94Z</time></trkpt><trkpt lat="44.9969067" lon="10.4165433"><ele>26.333333333333332</ele><time>2026-04-11T11:31:16.94Z</time></trkpt><trkpt lat="44.99697" lon="10.4165117"><ele>26.5</ele><time>2026-04-11T11:31:17.94Z</time></trkpt><trkpt lat="44.997045" lon="10.4164817"><ele>26.666666666666664</ele><time>2026-04-11T11:31:18.939Z</time></trkpt><trkpt lat="44.9971283" lon="10.4164367"><ele>26.833333333333332</ele><time>2026-04-11T11:31:19.939Z</time></trkpt><trkpt lat="44.9972167" lon="10.4163933"><ele>27.0</ele><time>2026-04-11T11:31:20.939Z</time></trkpt><trkpt lat="44.997305" lon="10.4163483"><ele>26.8</ele><time>2026-04-11T11:31:21.939Z</time></trkpt><trkpt lat="44.9973967" lon="10.4163033"><ele>26.6</ele><time>2026-04-11T11:31:22.938Z</time></trkpt><trkpt lat="44.997495" lon="10.4162567"><ele>26.400000000000002</ele><time>2026-04-11T11:31:23.939Z</time></trkpt><trkpt lat="44.9976" lon="10.416195"><ele>26.200000000000003</ele><time>2026-04-11T11:31:24.939Z</time></trkpt><trkpt lat="44.9976917" lon="10.4161383"><ele>26.0</ele><time>2026-04-11T11:31:25.938Z</time></trkpt><trkpt lat="44.997785" lon="10.4160817"><ele>25.833333333333332</ele><time>2026-04-11T11:31:26.939Z</time></trkpt><trkpt lat="44.99788" lon="10.4160483"><ele>25.666666666666664</ele><time>2026-04-11T11:31:27.939Z</time></trkpt><trkpt lat="44.9979633" lon="10.4160133"><ele>25.5</ele><time>2026-04-11T11:31:28.939Z</time></trkpt><trkpt lat="44.99804" lon="10.4159733"><ele>25.333333333333336</ele><time>2026-04-11T11:31:29.939Z</time></trkpt><trkpt lat="44.998115" lon="10.4159383"><ele>25.166666666666668</ele><time>2026-04-11T11:31:30.939Z</time></trkpt><trkpt lat="44.99819" lon="10.4158967"><ele>25.0</ele><time>2026-04-11T11:31:31.939Z</time></trkpt><trkpt lat="44.9982733" lon="10.41585"><ele>25.0</ele><time>2026-04-11T11:31:32.939Z</time></trkpt><trkpt lat="44.9983567" lon="10.4158033"><ele>25.0</ele><time>2026-04-11T11:31:33.939Z</time></trkpt><trkpt lat="44.99845" lon="10.4157583"><ele>25.0</ele><time>2026-04-11T11:31:34.939Z</time></trkpt><trkpt lat="44.9985433" lon="10.4157183"><ele>25.0</ele><time>2026-04-11T11:31:35.939Z</time></trkpt><trkpt lat="44.9986267" lon="10.4156783"><ele>25.0</ele><time>2026-04-11T11:31:36.939Z</time></trkpt><trkpt lat="44.9987033" lon="10.4156217"><ele>25.000000000000004</ele><time>2026-04-11T11:31:37.939Z</time></trkpt><trkpt lat="44.9987933" lon="10.415585"><ele>25.0</ele><time>2026-04-11T11:31:38.939Z</time></trkpt><trkpt lat="44.9988783" lon="10.41554"><ele>25.0</ele><time>2026-04-11T11:31:39.939Z</time></trkpt><trkpt lat="44.9989583" lon="10.4155017"><ele>25.0</ele><time>2026-04-11T11:31:40.939Z</time></trkpt><trkpt lat="44.999035" lon="10.4154633"><ele>25.000000000000004</ele><time>2026-04-11T11:31:41.939Z</time></trkpt><trkpt lat="44.99912" lon="10.41542"><ele>25.0</ele><time>2026-04-11T11:31:42.939Z</time></trkpt><trkpt lat="44.9992033" lon="10.4153717"><ele>25.2</ele><time>2026-04-11T11:31:43.939Z</time></trkpt><trkpt lat="44.9992883" lon="10.41533"><ele>25.4</ele><time>2026-04-11T11:31:44.939Z</time></trkpt><trkpt lat="44.999385" lon="10.4152783"><ele>25.6</ele><time>2026-04-11T11:31:45.938Z</time></trkpt><trkpt lat="44.9994783" lon="10.41523"><ele>25.8</ele><time>2026-04-11T11:31:46.939Z</time></trkpt><trkpt lat="44.9995733" lon="10.4151833"><ele>26.0</ele><time>2026-04-11T11:31:47.939Z</time></trkpt><trkpt lat="44.9996633" lon="10.41514"><ele>25.999999999999996</ele><time>2026-04-11T11:31:48.939Z</time></trkpt><trkpt lat="44.9997433" lon="10.415095"><ele>26.0</ele><time>2026-04-11T11:31:49.939Z</time></trkpt><trkpt lat="44.9998283" lon="10.4150583"><ele>26.0</ele><time>2026-04-11T11:31:50.939Z</time></trkpt><trkpt lat="44.99991" lon="10.4150167"><ele>26.0</ele><time>2026-04-11T11:31:51.938Z</time></trkpt><trkpt lat="44.999995" lon="10.414975"><ele>25.999999999999996</ele><time>2026-04-11T11:31:52.939Z</time></trkpt><trkpt lat="45.0000817" lon="10.414935"><ele>26.0</ele><time>2026-04-11T11:31:53.938Z</time></trkpt><trkpt lat="45.000165" lon="10.41489"><ele>25.999999999999996</ele><time>2026-04-11T11:31:54.939Z</time></trkpt><trkpt lat="45.0002417" lon="10.4148367"><ele>26.0</ele><time>2026-04-11T11:31:55.939Z</time></trkpt><trkpt lat="45.0003267" lon="10.4148067"><ele>26.0</ele><time>2026-04-11T11:31:56.939Z</time></trkpt><trkpt lat="45.00041" lon="10.41476"><ele>26.0</ele><time>2026-04-11T11:31:57.939Z</time></trkpt><trkpt lat="45.0004967" lon="10.41472"><ele>25.999999999999996</ele><time>2026-04-11T11:31:58.939Z</time></trkpt><trkpt lat="45.000575" lon="10.4146833"><ele>26.0</ele><time>2026-04-11T11:31:59.939Z</time></trkpt><trkpt lat="45.0006517" lon="10.4146483"><ele>25.833333333333332</ele><time>2026-04-11T11:32:00.939Z</time></trkpt><trkpt lat="45.0007283" lon="10.4146117"><ele>25.666666666666664</ele><time>2026-04-11T11:32:01.939Z</time></trkpt><trkpt lat="45.0008067" lon="10.41457"><ele>25.5</ele><time>2026-04-11T11:32:02.939Z</time></trkpt><trkpt lat="45.0009" lon="10.414515"><ele>25.333333333333336</ele><time>2026-04-11T11:32:03.939Z</time></trkpt><trkpt lat="45.0009817" lon="10.41447"><ele>25.166666666666668</ele><time>2026-04-11T11:32:04.939Z</time></trkpt><trkpt lat="45.0010583" lon="10.41441"><ele>25.0</ele><time>2026-04-11T11:32:05.939Z</time></trkpt><trkpt lat="45.0011183" lon="10.4143767"><ele>25.000000000000004</ele><time>2026-04-11T11:32:06.938Z</time></trkpt><trkpt lat="45.0011933" lon="10.4143367"><ele>25.0</ele><time>2026-04-11T11:32:08.939Z</time></trkpt><trkpt lat="45.001255" lon="10.4142483"><ele>25.0</ele><time>2026-04-11T11:32:19.939Z</time></trkpt><trkpt lat="45.0012683" lon="10.4141583"><ele>25.0</ele><time>2026-04-11T11:32:20.939Z</time></trkpt><trkpt lat="45.0012833" lon="10.4140283"><ele>25.000000000000004</ele><time>2026-04-11T11:32:21.939Z</time></trkpt><trkpt lat="45.001295" lon="10.4138733"><ele>25.0</ele><time>2026-04-11T11:32:22.939Z</time></trkpt><trkpt lat="45.0013183" lon="10.4136933"><ele>24.666666666666668</ele><time>2026-04-11T11:32:23.939Z</time></trkpt><trkpt lat="45.0013433" lon="10.41347"><ele>24.333333333333336</ele><time>2026-04-11T11:32:24.939Z</time></trkpt><trkpt lat="45.0013717" lon="10.41324"><ele>24.0</ele><time>2026-04-11T11:32:25.939Z</time></trkpt><trkpt lat="45.0013983" lon="10.4130083"><ele>24.0</ele><time>2026-04-11T11:32:26.939Z</time></trkpt><trkpt lat="45.001425" lon="10.4127733"><ele>24.0</ele><time>2026-04-11T11:32:27.939Z</time></trkpt><trkpt lat="45.0014433" lon="10.412475"><ele>24.0</ele><time>2026-04-11T11:32:28.939Z</time></trkpt><trkpt lat="45.0014833" lon="10.4121967"><ele>24.333333333333336</ele><time>2026-04-11T11:32:29.938Z</time></trkpt><trkpt lat="45.0015333" lon="10.4119467"><ele>24.666666666666668</ele><time>2026-04-11T11:32:30.939Z</time></trkpt><trkpt lat="45.0015933" lon="10.4116667"><ele>25.0</ele><time>2026-04-11T11:32:31.939Z</time></trkpt><trkpt lat="45.0016467" lon="10.4114183"><ele>25.0</ele><time>2026-04-11T11:32:32.939Z</time></trkpt><trkpt lat="45.0016867" lon="10.4111917"><ele>25.0</ele><time>2026-04-11T11:32:33.939Z</time></trkpt><trkpt lat="45.0017283" lon="10.41098"><ele>25.0</ele><time>2026-04-11T11:32:34.939Z</time></trkpt><trkpt lat="45.0017617" lon="10.4107767"><ele>25.0</ele><time>2026-04-11T11:32:35.939Z</time></trkpt><trkpt lat="45.0018017" lon="10.4105617"><ele>25.0</ele><time>2026-04-11T11:32:36.939Z</time></trkpt><trkpt lat="45.0018483" lon="10.410355"><ele>25.0</ele><time>2026-04-11T11:32:37.939Z</time></trkpt><trkpt lat="45.0018917" lon="10.410145"><ele>25.0</ele><time>2026-04-11T11:32:38.939Z</time></trkpt><trkpt lat="45.0019417" lon="10.40993"><ele>25.0</ele><time>2026-04-11T11:32:39.939Z</time></trkpt><trkpt lat="45.0019867" lon="10.4097033"><ele>25.0</ele><time>2026-04-11T11:32:40.939Z</time></trkpt><trkpt lat="45.0020317" lon="10.40949"><ele>25.0</ele><time>2026-04-11T11:32:41.939Z</time></trkpt><trkpt lat="45.0020717" lon="10.4092767"><ele>25.0</ele><time>2026-04-11T11:32:42.939Z</time></trkpt><trkpt lat="45.002115" lon="10.4090633"><ele>25.0</ele><time>2026-04-11T11:32:43.939Z</time></trkpt><trkpt lat="45.0021733" lon="10.408855"><ele>24.666666666666668</ele><time>2026-04-11T11:32:44.939Z</time></trkpt><trkpt lat="45.0022467" lon="10.4086467"><ele>24.333333333333336</ele><time>2026-04-11T11:32:45.938Z</time></trkpt><trkpt lat="45.0023267" lon="10.4084367"><ele>24.0</ele><time>2026-04-11T11:32:46.939Z</time></trkpt><trkpt lat="45.0024117" lon="10.408235"><ele>24.0</ele><time>2026-04-11T11:32:47.939Z</time></trkpt><trkpt lat="45.002505" lon="10.40804"><ele>24.0</ele><time>2026-04-11T11:32:48.939Z</time></trkpt><trkpt lat="45.002605" lon="10.4078383"><ele>24.0</ele><time>2026-04-11T11:32:49.938Z</time></trkpt><trkpt lat="45.0027117" lon="10.407645"><ele>24.0</ele><time>2026-04-11T11:32:50.939Z</time></trkpt><trkpt lat="45.0028217" lon="10.40745"><ele>24.0</ele><time>2026-04-11T11:32:51.939Z</time></trkpt><trkpt lat="45.0029217" lon="10.4072517"><ele>24.0</ele><time>2026-04-11T11:32:52.939Z</time></trkpt><trkpt lat="45.0030133" lon="10.4070417"><ele>24.0</ele><time>2026-04-11T11:32:53.939Z</time></trkpt><trkpt lat="45.003085" lon="10.4068083"><ele>24.0</ele><time>2026-04-11T11:32:54.939Z</time></trkpt><trkpt lat="45.00315" lon="10.40656"><ele>24.0</ele><time>2026-04-11T11:32:55.939Z</time></trkpt><trkpt lat="45.0032067" lon="10.4063133"><ele>23.666666666666668</ele><time>2026-04-11T11:32:56.939Z</time></trkpt><trkpt lat="45.0032617" lon="10.4060667"><ele>23.333333333333336</ele><time>2026-04-11T11:32:57.939Z</time></trkpt><trkpt lat="45.00332" lon="10.4058267"><ele>23.0</ele><time>2026-04-11T11:32:58.939Z</time></trkpt><trkpt lat="45.0033767" lon="10.405585"><ele>23.333333333333336</ele><time>2026-04-11T11:32:59.939Z</time></trkpt><trkpt lat="45.003435" lon="10.405335"><ele>23.666666666666668</ele><time>2026-04-11T11:33:00.939Z</time></trkpt><trkpt lat="45.0034917" lon="10.4050933"><ele>24.0</ele><time>2026-04-11T11:33:01.939Z</time></trkpt><trkpt lat="45.0035517" lon="10.4048517"><ele>24.0</ele><time>2026-04-11T11:33:02.939Z</time></trkpt><trkpt lat="45.0036133" lon="10.4045933"><ele>24.0</ele><time>2026-04-11T11:33:03.939Z</time></trkpt><trkpt lat="45.0036783" lon="10.404325"><ele>24.0</ele><time>2026-04-11T11:33:04.938Z</time></trkpt><trkpt lat="45.0037417" lon="10.4040567"><ele>24.333333333333336</ele><time>2026-04-11T11:33:05.938Z</time></trkpt><trkpt lat="45.0038083" lon="10.40379"><ele>24.666666666666668</ele><time>2026-04-11T11:33:06.939Z</time></trkpt><trkpt lat="45.003875" lon="10.40352"><ele>25.0</ele><time>2026-04-11T11:33:07.939Z</time></trkpt><trkpt lat="45.0039367" lon="10.4032483"><ele>25.0</ele><time>2026-04-11T11:33:08.938Z</time></trkpt><trkpt lat="45.004" lon="10.4029667"><ele>25.0</ele><time>2026-04-11T11:33:09.939Z</time></trkpt><trkpt lat="45.0040633" lon="10.4026967"><ele>25.0</ele><time>2026-04-11T11:33:10.939Z</time></trkpt><trkpt lat="45.0041317" lon="10.40242"><ele>24.333333333333336</ele><time>2026-04-11T11:33:11.939Z</time></trkpt><trkpt lat="45.004195" lon="10.4021367"><ele>23.666666666666668</ele><time>2026-04-11T11:33:12.938Z</time></trkpt><trkpt lat="45.0042567" lon="10.40187"><ele>23.0</ele><time>2026-04-11T11:33:13.939Z</time></trkpt><trkpt lat="45.0043217" lon="10.4015983"><ele>23.333333333333336</ele><time>2026-04-11T11:33:14.939Z</time></trkpt><trkpt lat="45.0043883" lon="10.401315"><ele>23.666666666666668</ele><time>2026-04-11T11:33:15.939Z</time></trkpt><trkpt lat="45.0044517" lon="10.4010417"><ele>24.0</ele><time>2026-04-11T11:33:16.939Z</time></trkpt><trkpt lat="45.004515" lon="10.4007783"><ele>24.0</ele><time>2026-04-11T11:33:17.939Z</time></trkpt><trkpt lat="45.0045767" lon="10.4005167"><ele>24.0</ele><time>2026-04-11T11:33:18.939Z</time></trkpt><trkpt lat="45.00464" lon="10.4002683"><ele>24.0</ele><time>2026-04-11T11:33:19.938Z</time></trkpt><trkpt lat="45.0046967" lon="10.4000133"><ele>24.333333333333336</ele><time>2026-04-11T11:33:20.939Z</time></trkpt><trkpt lat="45.0047533" lon="10.3997683"><ele>24.666666666666668</ele><time>2026-04-11T11:33:21.939Z</time></trkpt><trkpt lat="45.00481" lon="10.3995383"><ele>25.0</ele><time>2026-04-11T11:33:22.939Z</time></trkpt><trkpt lat="45.004865" lon="10.3993117"><ele>25.0</ele><time>2026-04-11T11:33:23.938Z</time></trkpt><trkpt lat="45.00492" lon="10.3990983"><ele>25.0</ele><time>2026-04-11T11:33:24.939Z</time></trkpt><trkpt lat="45.0049683" lon="10.398895"><ele>25.0</ele><time>2026-04-11T11:33:25.939Z</time></trkpt><trkpt lat="45.005015" lon="10.3987033"><ele>24.75</ele><time>2026-04-11T11:33:26.939Z</time></trkpt><trkpt lat="45.005065" lon="10.398505"><ele>24.5</ele><time>2026-04-11T11:33:27.938Z</time></trkpt><trkpt lat="45.0051133" lon="10.3983067"><ele>24.25</ele><time>2026-04-11T11:33:28.939Z</time></trkpt><trkpt lat="45.00516" lon="10.3981067"><ele>24.0</ele><time>2026-04-11T11:33:29.939Z</time></trkpt><trkpt lat="45.0052" lon="10.3979133"><ele>24.0</ele><time>2026-04-11T11:33:30.939Z</time></trkpt><trkpt lat="45.0052433" lon="10.3977183"><ele>24.0</ele><time>2026-04-11T11:33:31.939Z</time></trkpt><trkpt lat="45.005285" lon="10.3975233"><ele>24.0</ele><time>2026-04-11T11:33:32.939Z</time></trkpt><trkpt lat="45.00533" lon="10.397335"><ele>24.0</ele><time>2026-04-11T11:33:33.939Z</time></trkpt><trkpt lat="45.0053733" lon="10.3971583"><ele>24.5</ele><time>2026-04-11T11:33:34.939Z</time></trkpt><trkpt lat="45.0054167" lon="10.396985"><ele>25.0</ele><time>2026-04-11T11:33:35.939Z</time></trkpt><trkpt lat="45.0054583" lon="10.3968183"><ele>25.5</ele><time>2026-04-11T11:33:36.939Z</time></trkpt><trkpt lat="45.005495" lon="10.396645"><ele>26.0</ele><time>2026-04-11T11:33:37.939Z</time></trkpt><trkpt lat="45.0055383" lon="10.3964617"><ele>25.666666666666664</ele><time>2026-04-11T11:33:38.939Z</time></trkpt><trkpt lat="45.0055933" lon="10.3962717"><ele>25.333333333333336</ele><time>2026-04-11T11:33:39.939Z</time></trkpt><trkpt lat="45.0056517" lon="10.3960767"><ele>25.0</ele><time>2026-04-11T11:33:40.939Z</time></trkpt><trkpt lat="45.005705" lon="10.39587"><ele>25.0</ele><time>2026-04-11T11:33:41.939Z</time></trkpt><trkpt lat="45.0057567" lon="10.3956633"><ele>25.0</ele><time>2026-04-11T11:33:42.938Z</time></trkpt><trkpt lat="45.0058033" lon="10.395455"><ele>25.0</ele><time>2026-04-11T11:33:43.939Z</time></trkpt><trkpt lat="45.0058533" lon="10.395225"><ele>25.0</ele><time>2026-04-11T11:33:44.939Z</time></trkpt><trkpt lat="45.0058933" lon="10.3949833"><ele>25.0</ele><time>2026-04-11T11:33:45.939Z</time></trkpt><trkpt lat="45.0059283" lon="10.39471"><ele>25.0</ele><time>2026-04-11T11:33:46.939Z</time></trkpt><trkpt lat="45.0059617" lon="10.3944117"><ele>25.0</ele><time>2026-04-11T11:33:47.938Z</time></trkpt><trkpt lat="45.0060067" lon="10.3941017"><ele>25.0</ele><time>2026-04-11T11:33:48.939Z</time></trkpt><trkpt lat="45.00606" lon="10.39376"><ele>24.0</ele><time>2026-04-11T11:33:49.938Z</time></trkpt><trkpt lat="45.0061167" lon="10.3934067"><ele>23.0</ele><time>2026-04-11T11:33:50.939Z</time></trkpt><trkpt lat="45.0061833" lon="10.3930517"><ele>23.5</ele><time>2026-04-11T11:33:51.939Z</time></trkpt><trkpt lat="45.0062417" lon="10.3926867"><ele>24.0</ele><time>2026-04-11T11:33:52.939Z</time></trkpt><trkpt lat="45.00631" lon="10.39231"><ele>23.5</ele><time>2026-04-11T11:33:53.939Z</time></trkpt><trkpt lat="45.00637" lon="10.3919167"><ele>23.0</ele><time>2026-04-11T11:33:54.939Z</time></trkpt><trkpt lat="45.0064317" lon="10.391525"><ele>22.0</ele><time>2026-04-11T11:33:55.939Z</time></trkpt><trkpt lat="45.0064933" lon="10.3911317"><ele>21.0</ele><time>2026-04-11T11:33:56.939Z</time></trkpt><trkpt lat="45.0065567" lon="10.3907417"><ele>21.5</ele><time>2026-04-11T11:33:57.939Z</time></trkpt><trkpt lat="45.0066233" lon="10.3903467"><ele>22.0</ele><time>2026-04-11T11:33:58.939Z</time></trkpt><trkpt lat="45.0066867" lon="10.3899417"><ele>23.0</ele><time>2026-04-11T11:33:59.939Z</time></trkpt><trkpt lat="45.0067517" lon="10.3895383"><ele>24.0</ele><time>2026-04-11T11:34:00.939Z</time></trkpt><trkpt lat="45.0068117" lon="10.3891333"><ele>24.5</ele><time>2026-04-11T11:34:01.939Z</time></trkpt><trkpt lat="45.0068733" lon="10.388725"><ele>25.0</ele><time>2026-04-11T11:34:02.939Z</time></trkpt><trkpt lat="45.0069383" lon="10.38831"><ele>25.5</ele><time>2026-04-11T11:34:03.939Z</time></trkpt><trkpt lat="45.0069983" lon="10.3879017"><ele>26.0</ele><time>2026-04-11T11:34:04.939Z</time></trkpt><trkpt lat="45.0070617" lon="10.3874917"><ele>26.5</ele><time>2026-04-11T11:34:05.939Z</time></trkpt><trkpt lat="45.0071217" lon="10.3871033"><ele>27.0</ele><time>2026-04-11T11:34:06.939Z</time></trkpt><trkpt lat="45.00718" lon="10.3867483"><ele>27.0</ele><time>2026-04-11T11:34:07.939Z</time></trkpt><trkpt lat="45.007235" lon="10.3864067"><ele>27.0</ele><time>2026-04-11T11:34:08.939Z</time></trkpt><trkpt lat="45.0072883" lon="10.3860933"><ele>26.666666666666664</ele><time>2026-04-11T11:34:09.939Z</time></trkpt><trkpt lat="45.0073333" lon="10.3857933"><ele>26.333333333333332</ele><time>2026-04-11T11:34:10.938Z</time></trkpt><trkpt lat="45.00738" lon="10.3855167"><ele>26.0</ele><time>2026-04-11T11:34:11.939Z</time></trkpt><trkpt lat="45.007425" lon="10.3852383"><ele>25.666666666666664</ele><time>2026-04-11T11:34:12.939Z</time></trkpt><trkpt lat="45.0074633" lon="10.384965"><ele>25.333333333333336</ele><time>2026-04-11T11:34:13.938Z</time></trkpt><trkpt lat="45.0074883" lon="10.38468"><ele>25.0</ele><time>2026-04-11T11:34:14.938Z</time></trkpt><trkpt lat="45.0075117" lon="10.38439"><ele>25.0</ele><time>2026-04-11T11:34:15.937Z</time></trkpt><trkpt lat="45.0075383" lon="10.3840933"><ele>25.0</ele><time>2026-04-11T11:34:16.937Z</time></trkpt><trkpt lat="45.0075583" lon="10.3838033"><ele>25.0</ele><time>2026-04-11T11:34:17.938Z</time></trkpt><trkpt lat="45.0075717" lon="10.38351"><ele>25.0</ele><time>2026-04-11T11:34:18.938Z</time></trkpt><trkpt lat="45.0075767" lon="10.3832267"><ele>25.0</ele><time>2026-04-11T11:34:19.938Z</time></trkpt><trkpt lat="45.0075667" lon="10.3829467"><ele>25.0</ele><time>2026-04-11T11:34:20.938Z</time></trkpt><trkpt lat="45.0075533" lon="10.3826767"><ele>24.666666666666668</ele><time>2026-04-11T11:34:21.937Z</time></trkpt><trkpt lat="45.0075467" lon="10.3824117"><ele>24.333333333333336</ele><time>2026-04-11T11:34:22.938Z</time></trkpt><trkpt lat="45.0075333" lon="10.3821483"><ele>24.0</ele><time>2026-04-11T11:34:23.938Z</time></trkpt><trkpt lat="45.0075233" lon="10.38189"><ele>24.666666666666664</ele><time>2026-04-11T11:34:24.938Z</time></trkpt><trkpt lat="45.0075133" lon="10.3816467"><ele>25.333333333333332</ele><time>2026-04-11T11:34:25.938Z</time></trkpt><trkpt lat="45.0075" lon="10.3814133"><ele>26.0</ele><time>2026-04-11T11:34:26.937Z</time></trkpt><trkpt lat="45.007495" lon="10.38119"><ele>26.0</ele><time>2026-04-11T11:34:27.938Z</time></trkpt><trkpt lat="45.0074917" lon="10.3809767"><ele>26.0</ele><time>2026-04-11T11:34:28.938Z</time></trkpt><trkpt lat="45.0074833" lon="10.3807617"><ele>26.0</ele><time>2026-04-11T11:34:29.938Z</time></trkpt><trkpt lat="45.0074783" lon="10.380545"><ele>25.666666666666664</ele><time>2026-04-11T11:34:30.938Z</time></trkpt><trkpt lat="45.007465" lon="10.3803267"><ele>25.333333333333336</ele><time>2026-04-11T11:34:31.938Z</time></trkpt><trkpt lat="45.007455" lon="10.3800933"><ele>25.0</ele><time>2026-04-11T11:34:32.938Z</time></trkpt><trkpt lat="45.00744" lon="10.3798633"><ele>25.333333333333336</ele><time>2026-04-11T11:34:33.938Z</time></trkpt><trkpt lat="45.0074283" lon="10.3796133"><ele>25.666666666666664</ele><time>2026-04-11T11:34:34.938Z</time></trkpt><trkpt lat="45.0074217" lon="10.379355"><ele>26.0</ele><time>2026-04-11T11:34:35.938Z</time></trkpt><trkpt lat="45.0074083" lon="10.37909"><ele>26.0</ele><time>2026-04-11T11:34:36.938Z</time></trkpt><trkpt lat="45.0073967" lon="10.378825"><ele>26.0</ele><time>2026-04-11T11:34:37.938Z</time></trkpt><trkpt lat="45.00739" lon="10.3785567"><ele>26.0</ele><time>2026-04-11T11:34:38.938Z</time></trkpt><trkpt lat="45.0073883" lon="10.3782967"><ele>26.0</ele><time>2026-04-11T11:34:39.937Z</time></trkpt><trkpt lat="45.0073983" lon="10.37803"><ele>26.0</ele><time>2026-04-11T11:34:40.938Z</time></trkpt><trkpt lat="45.0074217" lon="10.3777617"><ele>26.0</ele><time>2026-04-11T11:34:41.938Z</time></trkpt><trkpt lat="45.007455" lon="10.3774917"><ele>26.333333333333332</ele><time>2026-04-11T11:34:42.938Z</time></trkpt><trkpt lat="45.0075167" lon="10.377235"><ele>26.666666666666664</ele><time>2026-04-11T11:34:43.938Z</time></trkpt><trkpt lat="45.007575" lon="10.3769717"><ele>27.0</ele><time>2026-04-11T11:34:44.938Z</time></trkpt><trkpt lat="45.0076383" lon="10.3767167"><ele>26.333333333333336</ele><time>2026-04-11T11:34:45.938Z</time></trkpt><trkpt lat="45.0077117" lon="10.3764583"><ele>25.666666666666668</ele><time>2026-04-11T11:34:46.938Z</time></trkpt><trkpt lat="45.0077833" lon="10.3762"><ele>25.0</ele><time>2026-04-11T11:34:47.938Z</time></trkpt><trkpt lat="45.0078483" lon="10.3759417"><ele>25.0</ele><time>2026-04-11T11:34:48.938Z</time></trkpt><trkpt lat="45.0079183" lon="10.3756783"><ele>25.0</ele><time>2026-04-11T11:34:49.938Z</time></trkpt><trkpt lat="45.007985" lon="10.3754117"><ele>25.0</ele><time>2026-04-11T11:34:50.938Z</time></trkpt><trkpt lat="45.0080533" lon="10.3751467"><ele>25.333333333333336</ele><time>2026-04-11T11:34:51.938Z</time></trkpt><trkpt lat="45.0081233" lon="10.3748783"><ele>25.666666666666664</ele><time>2026-04-11T11:34:52.938Z</time></trkpt><trkpt lat="45.00819" lon="10.3746"><ele>26.0</ele><time>2026-04-11T11:34:53.938Z</time></trkpt><trkpt lat="45.00825" lon="10.3743283"><ele>26.0</ele><time>2026-04-11T11:34:54.938Z</time></trkpt><trkpt lat="45.0083117" lon="10.3740483"><ele>26.0</ele><time>2026-04-11T11:34:55.938Z</time></trkpt><trkpt lat="45.0083783" lon="10.3737683"><ele>26.0</ele><time>2026-04-11T11:34:56.938Z</time></trkpt><trkpt lat="45.0084333" lon="10.3734833"><ele>26.0</ele><time>2026-04-11T11:34:57.937Z</time></trkpt><trkpt lat="45.0084817" lon="10.3732"><ele>26.0</ele><time>2026-04-11T11:34:58.938Z</time></trkpt><trkpt lat="45.0085383" lon="10.3729183"><ele>26.0</ele><time>2026-04-11T11:34:59.938Z</time></trkpt><trkpt lat="45.0085983" lon="10.3726417"><ele>26.0</ele><time>2026-04-11T11:35:00.938Z</time></trkpt><trkpt lat="45.0086517" lon="10.37236"><ele>26.0</ele><time>2026-04-11T11:35:01.938Z</time></trkpt><trkpt lat="45.0087017" lon="10.3720717"><ele>26.0</ele><time>2026-04-11T11:35:02.938Z</time></trkpt><trkpt lat="45.008755" lon="10.3718033"><ele>25.666666666666664</ele><time>2026-04-11T11:35:03.938Z</time></trkpt><trkpt lat="45.0088033" lon="10.3715533"><ele>25.333333333333336</ele><time>2026-04-11T11:35:04.938Z</time></trkpt><trkpt lat="45.0088533" lon="10.3713217"><ele>25.0</ele><time>2026-04-11T11:35:05.937Z</time></trkpt><trkpt lat="45.0089017" lon="10.3710883"><ele>25.0</ele><time>2026-04-11T11:35:06.938Z</time></trkpt><trkpt lat="45.0089517" lon="10.370865"><ele>25.0</ele><time>2026-04-11T11:35:07.938Z</time></trkpt><trkpt lat="45.0089983" lon="10.37064"><ele>25.0</ele><time>2026-04-11T11:35:08.938Z</time></trkpt><trkpt lat="45.0090433" lon="10.370405"><ele>25.0</ele><time>2026-04-11T11:35:09.938Z</time></trkpt><trkpt lat="45.0090883" lon="10.3701717"><ele>25.0</ele><time>2026-04-11T11:35:10.938Z</time></trkpt><trkpt lat="45.0091333" lon="10.3699417"><ele>25.0</ele><time>2026-04-11T11:35:11.937Z</time></trkpt><trkpt lat="45.009185" lon="10.3697067"><ele>25.0</ele><time>2026-04-11T11:35:12.937Z</time></trkpt><trkpt lat="45.0092267" lon="10.3694783"><ele>25.0</ele><time>2026-04-11T11:35:13.938Z</time></trkpt><trkpt lat="45.00927" lon="10.3692517"><ele>25.0</ele><time>2026-04-11T11:35:14.937Z</time></trkpt><trkpt lat="45.0093133" lon="10.3690383"><ele>24.666666666666668</ele><time>2026-04-11T11:35:15.938Z</time></trkpt><trkpt lat="45.0093567" lon="10.3688283"><ele>24.333333333333336</ele><time>2026-04-11T11:35:16.938Z</time></trkpt><trkpt lat="45.009395" lon="10.3686167"><ele>24.0</ele><time>2026-04-11T11:35:17.938Z</time></trkpt><trkpt lat="45.0094333" lon="10.368405"><ele>24.0</ele><time>2026-04-11T11:35:18.938Z</time></trkpt><trkpt lat="45.0094767" lon="10.3681933"><ele>24.0</ele><time>2026-04-11T11:35:19.938Z</time></trkpt><trkpt lat="45.00952" lon="10.3679883"><ele>24.0</ele><time>2026-04-11T11:35:20.938Z</time></trkpt><trkpt lat="45.00956" lon="10.367795"><ele>24.0</ele><time>2026-04-11T11:35:21.938Z</time></trkpt><trkpt lat="45.0095917" lon="10.3676017"><ele>24.0</ele><time>2026-04-11T11:35:22.938Z</time></trkpt><trkpt lat="45.009625" lon="10.3674"><ele>24.0</ele><time>2026-04-11T11:35:23.938Z</time></trkpt><trkpt lat="45.0096533" lon="10.36719"><ele>24.0</ele><time>2026-04-11T11:35:24.938Z</time></trkpt><trkpt lat="45.009675" lon="10.3669717"><ele>24.0</ele><time>2026-04-11T11:35:25.938Z</time></trkpt><trkpt lat="45.0097033" lon="10.3667483"><ele>24.0</ele><time>2026-04-11T11:35:26.938Z</time></trkpt><trkpt lat="45.0097283" lon="10.3665283"><ele>24.0</ele><time>2026-04-11T11:35:27.938Z</time></trkpt><trkpt lat="45.0097483" lon="10.3662983"><ele>24.666666666666664</ele><time>2026-04-11T11:35:28.937Z</time></trkpt><trkpt lat="45.0097733" lon="10.366065"><ele>25.333333333333332</ele><time>2026-04-11T11:35:29.938Z</time></trkpt><trkpt lat="45.0097933" lon="10.365825"><ele>26.0</ele><time>2026-04-11T11:35:30.938Z</time></trkpt><trkpt lat="45.0098233" lon="10.3655883"><ele>25.666666666666664</ele><time>2026-04-11T11:35:31.938Z</time></trkpt><trkpt lat="45.0098433" lon="10.365355"><ele>25.333333333333336</ele><time>2026-04-11T11:35:32.938Z</time></trkpt><trkpt lat="45.00986" lon="10.3651267"><ele>25.0</ele><time>2026-04-11T11:35:33.938Z</time></trkpt><trkpt lat="45.0098667" lon="10.3649083"><ele>25.0</ele><time>2026-04-11T11:35:34.938Z</time></trkpt><trkpt lat="45.0098717" lon="10.3646983"><ele>25.0</ele><time>2026-04-11T11:35:35.938Z</time></trkpt><trkpt lat="45.00988" lon="10.3644817"><ele>25.0</ele><time>2026-04-11T11:35:36.938Z</time></trkpt><trkpt lat="45.0098867" lon="10.3642583"><ele>25.0</ele><time>2026-04-11T11:35:37.938Z</time></trkpt><trkpt lat="45.0098933" lon="10.36405"><ele>25.0</ele><time>2026-04-11T11:35:38.938Z</time></trkpt><trkpt lat="45.009905" lon="10.3638367"><ele>25.0</ele><time>2026-04-11T11:35:39.938Z</time></trkpt><trkpt lat="45.0099167" lon="10.3636183"><ele>25.0</ele><time>2026-04-11T11:35:40.938Z</time></trkpt><trkpt lat="45.0099217" lon="10.3633967"><ele>25.0</ele><time>2026-04-11T11:35:41.938Z</time></trkpt><trkpt lat="45.0099333" lon="10.363165"><ele>25.0</ele><time>2026-04-11T11:35:42.938Z</time></trkpt><trkpt lat="45.0099483" lon="10.36294"><ele>25.666666666666668</ele><time>2026-04-11T11:35:43.938Z</time></trkpt><trkpt lat="45.0099583" lon="10.3627267"><ele>26.333333333333336</ele><time>2026-04-11T11:35:44.938Z</time></trkpt><trkpt lat="45.009965" lon="10.362505"><ele>27.0</ele><time>2026-04-11T11:35:45.938Z</time></trkpt><trkpt lat="45.0099683" lon="10.3622883"><ele>26.75</ele><time>2026-04-11T11:35:46.938Z</time></trkpt><trkpt lat="45.0099733" lon="10.3620733"><ele>26.5</ele><time>2026-04-11T11:35:47.938Z</time></trkpt><trkpt lat="45.0099817" lon="10.3618633"><ele>26.25</ele><time>2026-04-11T11:35:48.937Z</time></trkpt><trkpt lat="45.0099867" lon="10.3616533"><ele>26.0</ele><time>2026-04-11T11:35:49.938Z</time></trkpt><trkpt lat="45.00999" lon="10.3614483"><ele>26.0</ele><time>2026-04-11T11:35:50.938Z</time></trkpt><trkpt lat="45.0100033" lon="10.361245"><ele>26.0</ele><time>2026-04-11T11:35:51.938Z</time></trkpt><trkpt lat="45.0100133" lon="10.3610333"><ele>26.0</ele><time>2026-04-11T11:35:52.938Z</time></trkpt><trkpt lat="45.0100267" lon="10.3608217"><ele>26.0</ele><time>2026-04-11T11:35:53.938Z</time></trkpt><trkpt lat="45.0100417" lon="10.3606133"><ele>25.666666666666664</ele><time>2026-04-11T11:35:54.938Z</time></trkpt><trkpt lat="45.010055" lon="10.3603967"><ele>25.333333333333336</ele><time>2026-04-11T11:35:55.938Z</time></trkpt><trkpt lat="45.0100667" lon="10.3601833"><ele>25.0</ele><time>2026-04-11T11:35:56.938Z</time></trkpt><trkpt lat="45.0100833" lon="10.3599617"><ele>25.0</ele><time>2026-04-11T11:35:57.938Z</time></trkpt><trkpt lat="45.0100967" lon="10.359745"><ele>25.0</ele><time>2026-04-11T11:35:58.938Z</time></trkpt><trkpt lat="45.010115" lon="10.35953"><ele>25.0</ele><time>2026-04-11T11:35:59.937Z</time></trkpt><trkpt lat="45.0101267" lon="10.3593283"><ele>25.5</ele><time>2026-04-11T11:36:00.937Z</time></trkpt><trkpt lat="45.0101383" lon="10.35914"><ele>26.0</ele><time>2026-04-11T11:36:01.937Z</time></trkpt><trkpt lat="45.0101433" lon="10.358955"><ele>26.5</ele><time>2026-04-11T11:36:02.938Z</time></trkpt><trkpt lat="45.0101483" lon="10.35878"><ele>27.0</ele><time>2026-04-11T11:36:03.938Z</time></trkpt><trkpt lat="45.0101533" lon="10.3586183"><ele>27.0</ele><time>2026-04-11T11:36:04.938Z</time></trkpt><trkpt lat="45.0101633" lon="10.3584617"><ele>27.000000000000004</ele><time>2026-04-11T11:36:05.938Z</time></trkpt><trkpt lat="45.01017" lon="10.3583133"><ele>27.000000000000004</ele><time>2026-04-11T11:36:06.938Z</time></trkpt><trkpt lat="45.0101733" lon="10.35816"><ele>27.0</ele><time>2026-04-11T11:36:07.938Z</time></trkpt><trkpt lat="45.0101783" lon="10.358"><ele>27.0</ele><time>2026-04-11T11:36:08.938Z</time></trkpt><trkpt lat="45.0101883" lon="10.3578333"><ele>27.0</ele><time>2026-04-11T11:36:09.938Z</time></trkpt><trkpt lat="45.010185" lon="10.3576583"><ele>27.0</ele><time>2026-04-11T11:36:10.938Z</time></trkpt><trkpt lat="45.010195" lon="10.3574817"><ele>27.0</ele><time>2026-04-11T11:36:11.938Z</time></trkpt><trkpt lat="45.0101883" lon="10.3572917"><ele>27.0</ele><time>2026-04-11T11:36:12.938Z</time></trkpt><trkpt lat="45.010195" lon="10.3571067"><ele>27.0</ele><time>2026-04-11T11:36:13.938Z</time></trkpt><trkpt lat="45.0101967" lon="10.3569133"><ele>27.0</ele><time>2026-04-11T11:36:14.938Z</time></trkpt><trkpt lat="45.0101983" lon="10.3567183"><ele>27.0</ele><time>2026-04-11T11:36:15.938Z</time></trkpt><trkpt lat="45.0102017" lon="10.3565233"><ele>27.0</ele><time>2026-04-11T11:36:16.938Z</time></trkpt><trkpt lat="45.0102033" lon="10.3563267"><ele>27.25</ele><time>2026-04-11T11:36:17.938Z</time></trkpt><trkpt lat="45.0102033" lon="10.35614"><ele>27.5</ele><time>2026-04-11T11:36:18.938Z</time></trkpt><trkpt lat="45.01021" lon="10.3559367"><ele>27.75</ele><time>2026-04-11T11:36:19.938Z</time></trkpt><trkpt lat="45.0102217" lon="10.3557467"><ele>28.0</ele><time>2026-04-11T11:36:20.938Z</time></trkpt><trkpt lat="45.0102217" lon="10.3555617"><ele>27.75</ele><time>2026-04-11T11:36:21.938Z</time></trkpt><trkpt lat="45.010225" lon="10.35538"><ele>27.5</ele><time>2026-04-11T11:36:22.938Z</time></trkpt><trkpt lat="45.0102267" lon="10.35521"><ele>27.25</ele><time>2026-04-11T11:36:23.938Z</time></trkpt><trkpt lat="45.0102317" lon="10.3550367"><ele>27.0</ele><time>2026-04-11T11:36:24.938Z</time></trkpt><trkpt lat="45.010235" lon="10.3548817"><ele>27.0</ele><time>2026-04-11T11:36:25.938Z</time></trkpt><trkpt lat="45.010235" lon="10.35472"><ele>27.0</ele><time>2026-04-11T11:36:26.937Z</time></trkpt><trkpt lat="45.0102383" lon="10.35456"><ele>27.0</ele><time>2026-04-11T11:36:27.938Z</time></trkpt><trkpt lat="45.0102433" lon="10.3543817"><ele>27.0</ele><time>2026-04-11T11:36:28.938Z</time></trkpt><trkpt lat="45.0102433" lon="10.3541983"><ele>27.0</ele><time>2026-04-11T11:36:29.938Z</time></trkpt><trkpt lat="45.0102433" lon="10.35401"><ele>27.0</ele><time>2026-04-11T11:36:30.938Z</time></trkpt><trkpt lat="45.010255" lon="10.3538217"><ele>27.0</ele><time>2026-04-11T11:36:31.938Z</time></trkpt><trkpt lat="45.010255" lon="10.3536283"><ele>27.0</ele><time>2026-04-11T11:36:32.938Z</time></trkpt><trkpt lat="45.01026" lon="10.3534417"><ele>27.0</ele><time>2026-04-11T11:36:33.937Z</time></trkpt><trkpt lat="45.01026" lon="10.3532733"><ele>27.0</ele><time>2026-04-11T11:36:34.938Z</time></trkpt><trkpt lat="45.0102583" lon="10.35311"><ele>27.0</ele><time>2026-04-11T11:36:35.938Z</time></trkpt><trkpt lat="45.0102617" lon="10.352945"><ele>27.0</ele><time>2026-04-11T11:36:36.938Z</time></trkpt><trkpt lat="45.010265" lon="10.3527767"><ele>27.0</ele><time>2026-04-11T11:36:37.938Z</time></trkpt><trkpt lat="45.0102667" lon="10.3526233"><ele>27.000000000000004</ele><time>2026-04-11T11:36:38.938Z</time></trkpt><trkpt lat="45.010275" lon="10.3524683"><ele>27.000000000000004</ele><time>2026-04-11T11:36:39.938Z</time></trkpt><trkpt lat="45.0102967" lon="10.3523267"><ele>27.0</ele><time>2026-04-11T11:36:40.937Z</time></trkpt><trkpt lat="45.0103" lon="10.352185"><ele>27.0</ele><time>2026-04-11T11:36:41.938Z</time></trkpt><trkpt lat="45.0103033" lon="10.352045"><ele>27.0</ele><time>2026-04-11T11:36:42.938Z</time></trkpt><trkpt lat="45.0103033" lon="10.3519183"><ele>27.000000000000004</ele><time>2026-04-11T11:36:43.938Z</time></trkpt><trkpt lat="45.0102967" lon="10.3517767"><ele>27.000000000000004</ele><time>2026-04-11T11:36:44.938Z</time></trkpt><trkpt lat="45.0103" lon="10.3516467"><ele>27.0</ele><time>2026-04-11T11:36:45.938Z</time></trkpt><trkpt lat="45.010305" lon="10.3515367"><ele>27.0</ele><time>2026-04-11T11:36:46.938Z</time></trkpt><trkpt lat="45.0103083" lon="10.35138"><ele>27.0</ele><time>2026-04-11T11:36:48.938Z</time></trkpt><trkpt lat="45.01032" lon="10.3512583"><ele>27.0</ele><time>2026-04-11T11:36:50.938Z</time></trkpt><trkpt lat="45.0103367" lon="10.3511433"><ele>27.0</ele><time>2026-04-11T11:36:52.937Z</time></trkpt><trkpt lat="45.0103217" lon="10.351"><ele>27.0</ele><time>2026-04-11T11:36:54.938Z</time></trkpt><trkpt lat="45.0103033" lon="10.35091"><ele>27.0</ele><time>2026-04-11T11:36:55.938Z</time></trkpt><trkpt lat="45.0103017" lon="10.3508033"><ele>27.0</ele><time>2026-04-11T11:36:56.938Z</time></trkpt><trkpt lat="45.0103067" lon="10.3507"><ele>27.0</ele><time>2026-04-11T11:36:57.938Z</time></trkpt><trkpt lat="45.01031" lon="10.3505983"><ele>27.0</ele><time>2026-04-11T11:36:58.938Z</time></trkpt><trkpt lat="45.01032" lon="10.3504967"><ele>27.0</ele><time>2026-04-11T11:36:59.938Z</time></trkpt><trkpt lat="45.0103367" lon="10.3503817"><ele>27.0</ele><time>2026-04-11T11:37:00.938Z</time></trkpt><trkpt lat="45.0103617" lon="10.3502633"><ele>27.0</ele><time>2026-04-11T11:37:01.938Z</time></trkpt><trkpt lat="45.0103917" lon="10.35013"><ele>27.0</ele><time>2026-04-11T11:37:02.938Z</time></trkpt><trkpt lat="45.0104283" lon="10.34999"><ele>27.25</ele><time>2026-04-11T11:37:03.938Z</time></trkpt><trkpt lat="45.0104717" lon="10.3498467"><ele>27.5</ele><time>2026-04-11T11:37:04.938Z</time></trkpt><trkpt lat="45.0105133" lon="10.3496933"><ele>27.75</ele><time>2026-04-11T11:37:05.937Z</time></trkpt><trkpt lat="45.01056" lon="10.3495367"><ele>28.0</ele><time>2026-04-11T11:37:06.938Z</time></trkpt><trkpt lat="45.0106067" lon="10.34937"><ele>28.0</ele><time>2026-04-11T11:37:07.938Z</time></trkpt><trkpt lat="45.0106567" lon="10.3492"><ele>28.0</ele><time>2026-04-11T11:37:08.938Z</time></trkpt><trkpt lat="45.0107017" lon="10.3490167"><ele>28.0</ele><time>2026-04-11T11:37:09.938Z</time></trkpt><trkpt lat="45.0107517" lon="10.348835"><ele>28.0</ele><time>2026-04-11T11:37:10.938Z</time></trkpt><trkpt lat="45.0108083" lon="10.3486633"><ele>28.0</ele><time>2026-04-11T11:37:11.938Z</time></trkpt><trkpt lat="45.0108483" lon="10.348485"><ele>28.0</ele><time>2026-04-11T11:37:12.938Z</time></trkpt><trkpt lat="45.01089" lon="10.34831"><ele>28.0</ele><time>2026-04-11T11:37:13.938Z</time></trkpt><trkpt lat="45.01093" lon="10.34814"><ele>28.0</ele><time>2026-04-11T11:37:14.938Z</time></trkpt><trkpt lat="45.010975" lon="10.3479633"><ele>28.0</ele><time>2026-04-11T11:37:15.937Z</time></trkpt><trkpt lat="45.011025" lon="10.3477933"><ele>28.0</ele><time>2026-04-11T11:37:16.937Z</time></trkpt><trkpt lat="45.0110683" lon="10.3476117"><ele>28.0</ele><time>2026-04-11T11:37:17.937Z</time></trkpt><trkpt lat="45.0111133" lon="10.3474333"><ele>28.0</ele><time>2026-04-11T11:37:18.937Z</time></trkpt><trkpt lat="45.0111583" lon="10.3472617"><ele>28.0</ele><time>2026-04-11T11:37:19.937Z</time></trkpt><trkpt lat="45.01121" lon="10.3470917"><ele>28.0</ele><time>2026-04-11T11:37:20.937Z</time></trkpt><trkpt lat="45.01125" lon="10.34692"><ele>28.0</ele><time>2026-04-11T11:37:21.937Z</time></trkpt><trkpt lat="45.01129" lon="10.3467483"><ele>28.0</ele><time>2026-04-11T11:37:22.937Z</time></trkpt><trkpt lat="45.0113417" lon="10.3465783"><ele>28.0</ele><time>2026-04-11T11:37:23.936Z</time></trkpt><trkpt lat="45.0113883" lon="10.34641"><ele>28.0</ele><time>2026-04-11T11:37:24.937Z</time></trkpt><trkpt lat="45.0114233" lon="10.3462433"><ele>28.0</ele><time>2026-04-11T11:37:25.937Z</time></trkpt><trkpt lat="45.0114583" lon="10.346065"><ele>28.0</ele><time>2026-04-11T11:37:26.937Z</time></trkpt><trkpt lat="45.0114867" lon="10.3458917"><ele>27.75</ele><time>2026-04-11T11:37:27.937Z</time></trkpt><trkpt lat="45.01151" lon="10.345725"><ele>27.5</ele><time>2026-04-11T11:37:28.937Z</time></trkpt><trkpt lat="45.01154" lon="10.34555"><ele>27.25</ele><time>2026-04-11T11:37:29.937Z</time></trkpt><trkpt lat="45.011545" lon="10.345375"><ele>27.0</ele><time>2026-04-11T11:37:30.937Z</time></trkpt><trkpt lat="45.0115567" lon="10.345195"><ele>27.0</ele><time>2026-04-11T11:37:31.937Z</time></trkpt><trkpt lat="45.01157" lon="10.3450117"><ele>27.0</ele><time>2026-04-11T11:37:32.937Z</time></trkpt><trkpt lat="45.0115983" lon="10.3448283"><ele>27.0</ele><time>2026-04-11T11:37:33.937Z</time></trkpt><trkpt lat="45.011615" lon="10.34464"><ele>27.0</ele><time>2026-04-11T11:37:34.937Z</time></trkpt><trkpt lat="45.0116317" lon="10.344435"><ele>27.0</ele><time>2026-04-11T11:37:35.937Z</time></trkpt><trkpt lat="45.01165" lon="10.344215"><ele>27.0</ele><time>2026-04-11T11:37:36.937Z</time></trkpt><trkpt lat="45.0116667" lon="10.344"><ele>27.0</ele><time>2026-04-11T11:37:37.936Z</time></trkpt><trkpt lat="45.0116817" lon="10.34379"><ele>26.75</ele><time>2026-04-11T11:37:38.936Z</time></trkpt><trkpt lat="45.0116867" lon="10.3435933"><ele>26.5</ele><time>2026-04-11T11:37:39.937Z</time></trkpt><trkpt lat="45.011695" lon="10.3434133"><ele>26.25</ele><time>2026-04-11T11:37:40.937Z</time></trkpt><trkpt lat="45.0116983" lon="10.3432217"><ele>26.0</ele><time>2026-04-11T11:37:41.937Z</time></trkpt><trkpt lat="45.0117083" lon="10.343015"><ele>26.0</ele><time>2026-04-11T11:37:42.937Z</time></trkpt><trkpt lat="45.011715" lon="10.34279"><ele>26.0</ele><time>2026-04-11T11:37:43.936Z</time></trkpt><trkpt lat="45.01173" lon="10.342535"><ele>26.0</ele><time>2026-04-11T11:37:44.937Z</time></trkpt><trkpt lat="45.011745" lon="10.3422717"><ele>26.0</ele><time>2026-04-11T11:37:45.937Z</time></trkpt><trkpt lat="45.0117567" lon="10.3420033"><ele>26.0</ele><time>2026-04-11T11:37:46.937Z</time></trkpt><trkpt lat="45.0117733" lon="10.3417217"><ele>26.0</ele><time>2026-04-11T11:37:47.936Z</time></trkpt><trkpt lat="45.0117833" lon="10.3414383"><ele>26.333333333333332</ele><time>2026-04-11T11:37:48.937Z</time></trkpt><trkpt lat="45.0117817" lon="10.3411617"><ele>26.666666666666664</ele><time>2026-04-11T11:37:49.937Z</time></trkpt><trkpt lat="45.011765" lon="10.3408733"><ele>27.0</ele><time>2026-04-11T11:37:50.936Z</time></trkpt><trkpt lat="45.01174" lon="10.3405717"><ele>27.0</ele><time>2026-04-11T11:37:51.937Z</time></trkpt><trkpt lat="45.0117067" lon="10.3402583"><ele>27.0</ele><time>2026-04-11T11:37:52.937Z</time></trkpt><trkpt lat="45.011685" lon="10.3399567"><ele>27.0</ele><time>2026-04-11T11:37:53.937Z</time></trkpt><trkpt lat="45.01166" lon="10.33965"><ele>26.666666666666664</ele><time>2026-04-11T11:37:54.937Z</time></trkpt><trkpt lat="45.0116367" lon="10.3393433"><ele>26.333333333333332</ele><time>2026-04-11T11:37:55.937Z</time></trkpt><trkpt lat="45.0116167" lon="10.3390383"><ele>26.0</ele><time>2026-04-11T11:37:56.937Z</time></trkpt><trkpt lat="45.0115967" lon="10.3387433"><ele>26.0</ele><time>2026-04-11T11:37:57.937Z</time></trkpt><trkpt lat="45.01158" lon="10.3384533"><ele>26.0</ele><time>2026-04-11T11:37:58.937Z</time></trkpt><trkpt lat="45.01155" lon="10.33816"><ele>26.0</ele><time>2026-04-11T11:37:59.937Z</time></trkpt><trkpt lat="45.0115267" lon="10.3378583"><ele>25.666666666666664</ele><time>2026-04-11T11:38:00.937Z</time></trkpt><trkpt lat="45.0115067" lon="10.3375483"><ele>25.333333333333336</ele><time>2026-04-11T11:38:01.937Z</time></trkpt><trkpt lat="45.0114817" lon="10.3372533"><ele>25.0</ele><time>2026-04-11T11:38:02.937Z</time></trkpt><trkpt lat="45.01146" lon="10.3369483"><ele>25.0</ele><time>2026-04-11T11:38:03.936Z</time></trkpt><trkpt lat="45.0114367" lon="10.33662"><ele>25.0</ele><time>2026-04-11T11:38:04.937Z</time></trkpt><trkpt lat="45.0114083" lon="10.3362883"><ele>26.0</ele><time>2026-04-11T11:38:05.937Z</time></trkpt><trkpt lat="45.0113833" lon="10.3359583"><ele>27.0</ele><time>2026-04-11T11:38:06.937Z</time></trkpt><trkpt lat="45.0113533" lon="10.335625"><ele>27.0</ele><time>2026-04-11T11:38:07.937Z</time></trkpt><trkpt lat="45.0113317" lon="10.335315"><ele>27.0</ele><time>2026-04-11T11:38:08.937Z</time></trkpt><trkpt lat="45.0113117" lon="10.3350167"><ele>27.0</ele><time>2026-04-11T11:38:09.937Z</time></trkpt><trkpt lat="45.011295" lon="10.3347383"><ele>27.0</ele><time>2026-04-11T11:38:10.937Z</time></trkpt><trkpt lat="45.011275" lon="10.3344767"><ele>27.0</ele><time>2026-04-11T11:38:11.937Z</time></trkpt><trkpt lat="45.0112517" lon="10.3342433"><ele>27.0</ele><time>2026-04-11T11:38:12.937Z</time></trkpt><trkpt lat="45.01124" lon="10.334005"><ele>27.0</ele><time>2026-04-11T11:38:13.937Z</time></trkpt><trkpt lat="45.0112417" lon="10.33376"><ele>27.0</ele><time>2026-04-11T11:38:14.937Z</time></trkpt><trkpt lat="45.0112483" lon="10.333495"><ele>27.0</ele><time>2026-04-11T11:38:15.937Z</time></trkpt><trkpt lat="45.0112633" lon="10.333235"><ele>26.333333333333336</ele><time>2026-04-11T11:38:16.937Z</time></trkpt><trkpt lat="45.0112883" lon="10.3329767"><ele>25.666666666666668</ele><time>2026-04-11T11:38:17.936Z</time></trkpt><trkpt lat="45.0113217" lon="10.33271"><ele>25.0</ele><time>2026-04-11T11:38:18.936Z</time></trkpt><trkpt lat="45.0113633" lon="10.332435"><ele>26.0</ele><time>2026-04-11T11:38:19.937Z</time></trkpt><trkpt lat="45.0114117" lon="10.33218"><ele>27.0</ele><time>2026-04-11T11:38:20.937Z</time></trkpt><trkpt lat="45.0114683" lon="10.33194"><ele>28.0</ele><time>2026-04-11T11:38:21.937Z</time></trkpt><trkpt lat="45.0115283" lon="10.3317117"><ele>28.0</ele><time>2026-04-11T11:38:22.937Z</time></trkpt><trkpt lat="45.0115883" lon="10.3314883"><ele>28.0</ele><time>2026-04-11T11:38:23.937Z</time></trkpt><trkpt lat="45.0116583" lon="10.3312617"><ele>28.0</ele><time>2026-04-11T11:38:24.937Z</time></trkpt><trkpt lat="45.0117467" lon="10.3310317"><ele>27.666666666666668</ele><time>2026-04-11T11:38:25.937Z</time></trkpt><trkpt lat="45.0118467" lon="10.330805"><ele>27.333333333333336</ele><time>2026-04-11T11:38:26.937Z</time></trkpt><trkpt lat="45.0119467" lon="10.330575"><ele>27.0</ele><time>2026-04-11T11:38:27.937Z</time></trkpt><trkpt lat="45.0120583" lon="10.330325"><ele>27.0</ele><time>2026-04-11T11:38:28.937Z</time></trkpt><trkpt lat="45.0121767" lon="10.330085"><ele>27.0</ele><time>2026-04-11T11:38:29.937Z</time></trkpt><trkpt lat="45.0123083" lon="10.3298383"><ele>27.0</ele><time>2026-04-11T11:38:30.937Z</time></trkpt><trkpt lat="45.0124517" lon="10.329595"><ele>26.0</ele><time>2026-04-11T11:38:31.937Z</time></trkpt><trkpt lat="45.0126017" lon="10.3293533"><ele>25.0</ele><time>2026-04-11T11:38:32.937Z</time></trkpt><trkpt lat="45.01276" lon="10.32912"><ele>25.0</ele><time>2026-04-11T11:38:33.937Z</time></trkpt><trkpt lat="45.0129217" lon="10.328895"><ele>25.0</ele><time>2026-04-11T11:38:34.937Z</time></trkpt><trkpt lat="45.013085" lon="10.328665"><ele>25.0</ele><time>2026-04-11T11:38:35.937Z</time></trkpt><trkpt lat="45.01325" lon="10.32843"><ele>25.0</ele><time>2026-04-11T11:38:36.936Z</time></trkpt><trkpt lat="45.0134167" lon="10.328195"><ele>25.0</ele><time>2026-04-11T11:38:37.937Z</time></trkpt><trkpt lat="45.0135767" lon="10.327955"><ele>25.0</ele><time>2026-04-11T11:38:38.937Z</time></trkpt><trkpt lat="45.013735" lon="10.3277117"><ele>25.0</ele><time>2026-04-11T11:38:39.937Z</time></trkpt><trkpt lat="45.01389" lon="10.3274633"><ele>25.0</ele><time>2026-04-11T11:38:40.937Z</time></trkpt><trkpt lat="45.0140467" lon="10.3272117"><ele>25.5</ele><time>2026-04-11T11:38:41.937Z</time></trkpt><trkpt lat="45.014205" lon="10.326955"><ele>26.0</ele><time>2026-04-11T11:38:42.937Z</time></trkpt><trkpt lat="45.0143583" lon="10.3266983"><ele>26.0</ele><time>2026-04-11T11:38:43.937Z</time></trkpt><trkpt lat="45.0145167" lon="10.3264267"><ele>26.0</ele><time>2026-04-11T11:38:44.937Z</time></trkpt><trkpt lat="45.0146617" lon="10.326155"><ele>26.0</ele><time>2026-04-11T11:38:45.937Z</time></trkpt><trkpt lat="45.0148033" lon="10.3258767"><ele>26.0</ele><time>2026-04-11T11:38:46.937Z</time></trkpt><trkpt lat="45.0149417" lon="10.3255883"><ele>25.5</ele><time>2026-04-11T11:38:47.937Z</time></trkpt><trkpt lat="45.0150817" lon="10.3252933"><ele>25.0</ele><time>2026-04-11T11:38:48.937Z</time></trkpt><trkpt lat="45.0152183" lon="10.3250033"><ele>25.0</ele><time>2026-04-11T11:38:49.937Z</time></trkpt><trkpt lat="45.0153617" lon="10.324715"><ele>25.0</ele><time>2026-04-11T11:38:50.936Z</time></trkpt><trkpt lat="45.0155" lon="10.324425"><ele>25.0</ele><time>2026-04-11T11:38:51.937Z</time></trkpt><trkpt lat="45.0156367" lon="10.324135"><ele>25.0</ele><time>2026-04-11T11:38:52.937Z</time></trkpt><trkpt lat="45.01578" lon="10.3238367"><ele>25.0</ele><time>2026-04-11T11:38:53.937Z</time></trkpt><trkpt lat="45.0159233" lon="10.3235483"><ele>25.0</ele><time>2026-04-11T11:38:54.937Z</time></trkpt><trkpt lat="45.016065" lon="10.3232583"><ele>25.0</ele><time>2026-04-11T11:38:55.937Z</time></trkpt><trkpt lat="45.0162067" lon="10.3229667"><ele>25.0</ele><time>2026-04-11T11:38:56.936Z</time></trkpt><trkpt lat="45.0163517" lon="10.3226683"><ele>25.0</ele><time>2026-04-11T11:38:57.937Z</time></trkpt><trkpt lat="45.0164983" lon="10.32237"><ele>25.0</ele><time>2026-04-11T11:38:58.937Z</time></trkpt><trkpt lat="45.0166433" lon="10.322075"><ele>26.5</ele><time>2026-04-11T11:38:59.937Z</time></trkpt><trkpt lat="45.0167883" lon="10.3217767"><ele>28.0</ele><time>2026-04-11T11:39:00.937Z</time></trkpt><trkpt lat="45.0169383" lon="10.321475"><ele>29.5</ele><time>2026-04-11T11:39:01.937Z</time></trkpt><trkpt lat="45.01709" lon="10.3211717"><ele>31.0</ele><time>2026-04-11T11:39:02.937Z</time></trkpt><trkpt lat="45.017235" lon="10.3208833"><ele>31.0</ele><time>2026-04-11T11:39:03.937Z</time></trkpt><trkpt lat="45.0173867" lon="10.32058"><ele>31.0</ele><time>2026-04-11T11:39:04.937Z</time></trkpt><trkpt lat="45.01754" lon="10.3202933"><ele>28.0</ele><time>2026-04-11T11:39:05.937Z</time></trkpt><trkpt lat="45.0176967" lon="10.32001"><ele>25.0</ele><time>2026-04-11T11:39:06.937Z</time></trkpt><trkpt lat="45.0178583" lon="10.3197233"><ele>25.0</ele><time>2026-04-11T11:39:07.937Z</time></trkpt><trkpt lat="45.0180233" lon="10.3194367"><ele>25.0</ele><time>2026-04-11T11:39:08.936Z</time></trkpt><trkpt lat="45.0181867" lon="10.319155"><ele>26.5</ele><time>2026-04-11T11:39:09.937Z</time></trkpt><trkpt lat="45.0183517" lon="10.3188767"><ele>28.0</ele><time>2026-04-11T11:39:10.937Z</time></trkpt><trkpt lat="45.0185167" lon="10.3186017"><ele>28.0</ele><time>2026-04-11T11:39:11.937Z</time></trkpt><trkpt lat="45.01868" lon="10.3183217"><ele>28.0</ele><time>2026-04-11T11:39:12.937Z</time></trkpt><trkpt lat="45.0188367" lon="10.31804"><ele>29.0</ele><time>2026-04-11T11:39:13.937Z</time></trkpt><trkpt lat="45.0189983" lon="10.3177583"><ele>30.0</ele><time>2026-04-11T11:39:14.936Z</time></trkpt><trkpt lat="45.0191617" lon="10.3174683"><ele>29.0</ele><time>2026-04-11T11:39:15.937Z</time></trkpt><trkpt lat="45.0193183" lon="10.3171817"><ele>28.0</ele><time>2026-04-11T11:39:16.937Z</time></trkpt><trkpt lat="45.01948" lon="10.3168917"><ele>28.0</ele><time>2026-04-11T11:39:17.937Z</time></trkpt><trkpt lat="45.0196417" lon="10.3166"><ele>28.0</ele><time>2026-04-11T11:39:18.937Z</time></trkpt><trkpt lat="45.0198" lon="10.3163117"><ele>27.5</ele><time>2026-04-11T11:39:19.937Z</time></trkpt><trkpt lat="45.0199633" lon="10.3160167"><ele>27.0</ele><time>2026-04-11T11:39:20.937Z</time></trkpt><trkpt lat="45.0201167" lon="10.3157383"><ele>26.0</ele><time>2026-04-11T11:39:21.937Z</time></trkpt><trkpt lat="45.02026" lon="10.3154717"><ele>25.0</ele><time>2026-04-11T11:39:22.937Z</time></trkpt><trkpt lat="45.0203917" lon="10.315225"><ele>25.0</ele><time>2026-04-11T11:39:23.937Z</time></trkpt><trkpt lat="45.0205217" lon="10.3149983"><ele>25.0</ele><time>2026-04-11T11:39:24.937Z</time></trkpt><trkpt lat="45.0206383" lon="10.31478"><ele>25.0</ele><time>2026-04-11T11:39:25.937Z</time></trkpt><trkpt lat="45.0207517" lon="10.3145733"><ele>26.0</ele><time>2026-04-11T11:39:26.936Z</time></trkpt><trkpt lat="45.0208633" lon="10.3143767"><ele>27.0</ele><time>2026-04-11T11:39:27.937Z</time></trkpt><trkpt lat="45.0209783" lon="10.3141917"><ele>28.0</ele><time>2026-04-11T11:39:28.937Z</time></trkpt><trkpt lat="45.0210983" lon="10.3140167"><ele>28.333333333333336</ele><time>2026-04-11T11:39:29.936Z</time></trkpt><trkpt lat="45.0212283" lon="10.3138517"><ele>28.666666666666664</ele><time>2026-04-11T11:39:30.937Z</time></trkpt><trkpt lat="45.0213683" lon="10.3136933"><ele>29.0</ele><time>2026-04-11T11:39:31.937Z</time></trkpt><trkpt lat="45.02151" lon="10.3135383"><ele>28.666666666666664</ele><time>2026-04-11T11:39:32.937Z</time></trkpt><trkpt lat="45.0216533" lon="10.3133967"><ele>28.333333333333336</ele><time>2026-04-11T11:39:33.937Z</time></trkpt><trkpt lat="45.0218083" lon="10.313265"><ele>28.0</ele><time>2026-04-11T11:39:34.937Z</time></trkpt><trkpt lat="45.02198" lon="10.3131417"><ele>27.666666666666668</ele><time>2026-04-11T11:39:35.937Z</time></trkpt><trkpt lat="45.02216" lon="10.3130217"><ele>27.333333333333336</ele><time>2026-04-11T11:39:36.937Z</time></trkpt><trkpt lat="45.0223517" lon="10.3129117"><ele>27.0</ele><time>2026-04-11T11:39:37.937Z</time></trkpt><trkpt lat="45.0225533" lon="10.3128067"><ele>26.5</ele><time>2026-04-11T11:39:38.937Z</time></trkpt><trkpt lat="45.0227717" lon="10.3127133"><ele>26.0</ele><time>2026-04-11T11:39:39.937Z</time></trkpt><trkpt lat="45.0229983" lon="10.3126133"><ele>26.0</ele><time>2026-04-11T11:39:40.937Z</time></trkpt><trkpt lat="45.0232283" lon="10.3125183"><ele>26.0</ele><time>2026-04-11T11:39:41.937Z</time></trkpt><trkpt lat="45.0234567" lon="10.3124233"><ele>25.5</ele><time>2026-04-11T11:39:42.937Z</time></trkpt><trkpt lat="45.02369" lon="10.3123267"><ele>25.0</ele><time>2026-04-11T11:39:43.937Z</time></trkpt><trkpt lat="45.0239217" lon="10.31223"><ele>25.5</ele><time>2026-04-11T11:39:44.937Z</time></trkpt><trkpt lat="45.0241517" lon="10.3121367"><ele>26.0</ele><time>2026-04-11T11:39:45.937Z</time></trkpt><trkpt lat="45.0243867" lon="10.3120333"><ele>26.0</ele><time>2026-04-11T11:39:46.937Z</time></trkpt><trkpt lat="45.0246267" lon="10.3119317"><ele>26.0</ele><time>2026-04-11T11:39:47.937Z</time></trkpt><trkpt lat="45.0248683" lon="10.3118267"><ele>26.0</ele><time>2026-04-11T11:39:48.937Z</time></trkpt><trkpt lat="45.0251067" lon="10.3117233"><ele>26.0</ele><time>2026-04-11T11:39:49.937Z</time></trkpt><trkpt lat="45.025355" lon="10.3116133"><ele>26.0</ele><time>2026-04-11T11:39:50.937Z</time></trkpt><trkpt lat="45.0255967" lon="10.31151"><ele>26.0</ele><time>2026-04-11T11:39:51.937Z</time></trkpt><trkpt lat="45.02584" lon="10.3114083"><ele>26.5</ele><time>2026-04-11T11:39:52.937Z</time></trkpt><trkpt lat="45.026085" lon="10.3113083"><ele>27.0</ele><time>2026-04-11T11:39:53.937Z</time></trkpt><trkpt lat="45.0263283" lon="10.311205"><ele>27.0</ele><time>2026-04-11T11:39:54.937Z</time></trkpt><trkpt lat="45.0265683" lon="10.3111067"><ele>27.0</ele><time>2026-04-11T11:39:55.937Z</time></trkpt><trkpt lat="45.0268133" lon="10.3110017"><ele>27.0</ele><time>2026-04-11T11:39:56.937Z</time></trkpt><trkpt lat="45.0270517" lon="10.3108883"><ele>27.0</ele><time>2026-04-11T11:39:57.937Z</time></trkpt><trkpt lat="45.0273017" lon="10.3107817"><ele>26.0</ele><time>2026-04-11T11:39:58.937Z</time></trkpt><trkpt lat="45.027545" lon="10.3106783"><ele>25.0</ele><time>2026-04-11T11:39:59.937Z</time></trkpt><trkpt lat="45.0277917" lon="10.310575"><ele>26.0</ele><time>2026-04-11T11:40:00.936Z</time></trkpt><trkpt lat="45.0280333" lon="10.3104717"><ele>27.0</ele><time>2026-04-11T11:40:01.937Z</time></trkpt><trkpt lat="45.0282683" lon="10.3103667"><ele>27.0</ele><time>2026-04-11T11:40:02.937Z</time></trkpt><trkpt lat="45.0284933" lon="10.3102567"><ele>27.0</ele><time>2026-04-11T11:40:03.937Z</time></trkpt><trkpt lat="45.028705" lon="10.31015"><ele>27.0</ele><time>2026-04-11T11:40:04.937Z</time></trkpt><trkpt lat="45.0289017" lon="10.3100367"><ele>27.0</ele><time>2026-04-11T11:40:05.937Z</time></trkpt><trkpt lat="45.02909" lon="10.3099233"><ele>27.0</ele><time>2026-04-11T11:40:06.937Z</time></trkpt><trkpt lat="45.0292733" lon="10.3097833"><ele>28.0</ele><time>2026-04-11T11:40:07.936Z</time></trkpt><trkpt lat="45.0294567" lon="10.309625"><ele>29.0</ele><time>2026-04-11T11:40:08.937Z</time></trkpt><trkpt lat="45.029635" lon="10.309445"><ele>30.0</ele><time>2026-04-11T11:40:09.937Z</time></trkpt><trkpt lat="45.0298017" lon="10.30925"><ele>30.0</ele><time>2026-04-11T11:40:10.936Z</time></trkpt><trkpt lat="45.0299667" lon="10.3090267"><ele>30.0</ele><time>2026-04-11T11:40:11.937Z</time></trkpt><trkpt lat="45.03012" lon="10.308805"><ele>30.0</ele><time>2026-04-11T11:40:12.936Z</time></trkpt><trkpt lat="45.030265" lon="10.30856"><ele>29.0</ele><time>2026-04-11T11:40:13.936Z</time></trkpt><trkpt lat="45.03041" lon="10.3083083"><ele>28.0</ele><time>2026-04-11T11:40:14.937Z</time></trkpt><trkpt lat="45.0305567" lon="10.3080467"><ele>28.0</ele><time>2026-04-11T11:40:15.937Z</time></trkpt><trkpt lat="45.030705" lon="10.3077817"><ele>28.0</ele><time>2026-04-11T11:40:16.936Z</time></trkpt><trkpt lat="45.030855" lon="10.3075233"><ele>27.5</ele><time>2026-04-11T11:40:17.936Z</time></trkpt><trkpt lat="45.0310067" lon="10.307265"><ele>27.0</ele><time>2026-04-11T11:40:18.936Z</time></trkpt><trkpt lat="45.031155" lon="10.30701"><ele>27.0</ele><time>2026-04-11T11:40:19.937Z</time></trkpt><trkpt lat="45.0313067" lon="10.3067517"><ele>27.0</ele><time>2026-04-11T11:40:20.937Z</time></trkpt><trkpt lat="45.0314533" lon="10.3064883"><ele>27.0</ele><time>2026-04-11T11:40:21.937Z</time></trkpt><trkpt lat="45.0316083" lon="10.30622"><ele>27.0</ele><time>2026-04-11T11:40:22.937Z</time></trkpt><trkpt lat="45.03176" lon="10.305955"><ele>27.0</ele><time>2026-04-11T11:40:23.937Z</time></trkpt><trkpt lat="45.0319167" lon="10.305685"><ele>27.0</ele><time>2026-04-11T11:40:24.936Z</time></trkpt><trkpt lat="45.0320733" lon="10.305415"><ele>26.5</ele><time>2026-04-11T11:40:25.936Z</time></trkpt><trkpt lat="45.0322333" lon="10.3051433"><ele>26.0</ele><time>2026-04-11T11:40:26.935Z</time></trkpt><trkpt lat="45.0323933" lon="10.3048733"><ele>26.0</ele><time>2026-04-11T11:40:27.936Z</time></trkpt><trkpt lat="45.0325517" lon="10.3046"><ele>26.0</ele><time>2026-04-11T11:40:28.936Z</time></trkpt><trkpt lat="45.0327083" lon="10.3043117"><ele>26.0</ele><time>2026-04-11T11:40:29.935Z</time></trkpt><trkpt lat="45.0328733" lon="10.3040267"><ele>26.0</ele><time>2026-04-11T11:40:30.936Z</time></trkpt><trkpt lat="45.0330333" lon="10.30374"><ele>26.0</ele><time>2026-04-11T11:40:31.936Z</time></trkpt><trkpt lat="45.0332017" lon="10.3034483"><ele>26.0</ele><time>2026-04-11T11:40:32.935Z</time></trkpt><trkpt lat="45.033375" lon="10.3031633"><ele>26.0</ele><time>2026-04-11T11:40:33.935Z</time></trkpt><trkpt lat="45.03354" lon="10.3028733"><ele>26.0</ele><time>2026-04-11T11:40:34.936Z</time></trkpt><trkpt lat="45.0337117" lon="10.3025867"><ele>26.0</ele><time>2026-04-11T11:40:35.936Z</time></trkpt><trkpt lat="45.03388" lon="10.302295"><ele>26.0</ele><time>2026-04-11T11:40:36.936Z</time></trkpt><trkpt lat="45.0340533" lon="10.3019917"><ele>26.0</ele><time>2026-04-11T11:40:37.936Z</time></trkpt><trkpt lat="45.0342233" lon="10.30169"><ele>26.0</ele><time>2026-04-11T11:40:38.936Z</time></trkpt><trkpt lat="45.0344" lon="10.30139"><ele>26.0</ele><time>2026-04-11T11:40:39.936Z</time></trkpt><trkpt lat="45.0345733" lon="10.3010833"><ele>26.0</ele><time>2026-04-11T11:40:40.935Z</time></trkpt><trkpt lat="45.0347467" lon="10.300785"><ele>26.0</ele><time>2026-04-11T11:40:41.936Z</time></trkpt><trkpt lat="45.03492" lon="10.3004783"><ele>26.0</ele><time>2026-04-11T11:40:42.936Z</time></trkpt><trkpt lat="45.03509" lon="10.300175"><ele>26.0</ele><time>2026-04-11T11:40:43.936Z</time></trkpt><trkpt lat="45.0352617" lon="10.299875"><ele>26.0</ele><time>2026-04-11T11:40:44.936Z</time></trkpt><trkpt lat="45.035435" lon="10.2995783"><ele>26.0</ele><time>2026-04-11T11:40:45.936Z</time></trkpt><trkpt lat="45.0356083" lon="10.299275"><ele>26.0</ele><time>2026-04-11T11:40:46.936Z</time></trkpt><trkpt lat="45.0357817" lon="10.29898"><ele>27.0</ele><time>2026-04-11T11:40:47.936Z</time></trkpt><trkpt lat="45.0359567" lon="10.2986817"><ele>28.0</ele><time>2026-04-11T11:40:48.936Z</time></trkpt><trkpt lat="45.03613" lon="10.29838"><ele>27.5</ele><time>2026-04-11T11:40:49.936Z</time></trkpt><trkpt lat="45.036305" lon="10.2980817"><ele>27.0</ele><time>2026-04-11T11:40:50.936Z</time></trkpt><trkpt lat="45.036475" lon="10.2977817"><ele>27.0</ele><time>2026-04-11T11:40:51.936Z</time></trkpt><trkpt lat="45.03665" lon="10.297475"><ele>27.0</ele><time>2026-04-11T11:40:52.936Z</time></trkpt><trkpt lat="45.0368217" lon="10.2971767"><ele>26.5</ele><time>2026-04-11T11:40:53.936Z</time></trkpt><trkpt lat="45.0369933" lon="10.2968683"><ele>26.0</ele><time>2026-04-11T11:40:54.936Z</time></trkpt><trkpt lat="45.03716" lon="10.2965633"><ele>26.0</ele><time>2026-04-11T11:40:55.936Z</time></trkpt><trkpt lat="45.0373233" lon="10.2962567"><ele>26.0</ele><time>2026-04-11T11:40:56.936Z</time></trkpt><trkpt lat="45.0374917" lon="10.2959417"><ele>26.0</ele><time>2026-04-11T11:40:57.936Z</time></trkpt><trkpt lat="45.03766" lon="10.295635"><ele>26.0</ele><time>2026-04-11T11:40:58.936Z</time></trkpt><trkpt lat="45.03782" lon="10.2953283"><ele>26.5</ele><time>2026-04-11T11:40:59.936Z</time></trkpt><trkpt lat="45.0379867" lon="10.2950167"><ele>27.0</ele><time>2026-04-11T11:41:00.936Z</time></trkpt><trkpt lat="45.0381533" lon="10.2947017"><ele>26.0</ele><time>2026-04-11T11:41:01.936Z</time></trkpt><trkpt lat="45.038315" lon="10.2943883"><ele>25.0</ele><time>2026-04-11T11:41:02.936Z</time></trkpt><trkpt lat="45.038485" lon="10.294075"><ele>25.0</ele><time>2026-04-11T11:41:03.936Z</time></trkpt><trkpt lat="45.0386533" lon="10.2937583"><ele>25.0</ele><time>2026-04-11T11:41:04.936Z</time></trkpt><trkpt lat="45.0388217" lon="10.2934383"><ele>25.0</ele><time>2026-04-11T11:41:05.936Z</time></trkpt><trkpt lat="45.03899" lon="10.2931217"><ele>25.0</ele><time>2026-04-11T11:41:06.936Z</time></trkpt><trkpt lat="45.0391617" lon="10.2928033"><ele>25.0</ele><time>2026-04-11T11:41:07.936Z</time></trkpt><trkpt lat="45.03933" lon="10.29249"><ele>25.0</ele><time>2026-04-11T11:41:08.936Z</time></trkpt><trkpt lat="45.039495" lon="10.292175"><ele>25.0</ele><time>2026-04-11T11:41:09.936Z</time></trkpt><trkpt lat="45.03966" lon="10.2918583"><ele>25.0</ele><time>2026-04-11T11:41:10.935Z</time></trkpt><trkpt lat="45.0398267" lon="10.2915383"><ele>27.0</ele><time>2026-04-11T11:41:11.935Z</time></trkpt><trkpt lat="45.0399983" lon="10.291215"><ele>29.0</ele><time>2026-04-11T11:41:12.936Z</time></trkpt><trkpt lat="45.0401717" lon="10.2908967"><ele>28.5</ele><time>2026-04-11T11:41:13.936Z</time></trkpt><trkpt lat="45.0403433" lon="10.2905733"><ele>28.0</ele><time>2026-04-11T11:41:14.936Z</time></trkpt><trkpt lat="45.0405117" lon="10.2902517"><ele>28.0</ele><time>2026-04-11T11:41:15.936Z</time></trkpt><trkpt lat="45.0406833" lon="10.28993"><ele>28.0</ele><time>2026-04-11T11:41:16.936Z</time></trkpt><trkpt lat="45.0408533" lon="10.289605"><ele>28.0</ele><time>2026-04-11T11:41:17.936Z</time></trkpt><trkpt lat="45.0410233" lon="10.2892783"><ele>28.0</ele><time>2026-04-11T11:41:18.936Z</time></trkpt><trkpt lat="45.041195" lon="10.2889583"><ele>27.0</ele><time>2026-04-11T11:41:19.936Z</time></trkpt><trkpt lat="45.0413667" lon="10.2886267"><ele>26.0</ele><time>2026-04-11T11:41:20.936Z</time></trkpt><trkpt lat="45.0415383" lon="10.2883033"><ele>26.0</ele><time>2026-04-11T11:41:21.936Z</time></trkpt><trkpt lat="45.0417117" lon="10.2879717"><ele>26.0</ele><time>2026-04-11T11:41:22.936Z</time></trkpt><trkpt lat="45.041885" lon="10.2876433"><ele>26.0</ele><time>2026-04-11T11:41:23.936Z</time></trkpt><trkpt lat="45.04206" lon="10.2873167"><ele>26.0</ele><time>2026-04-11T11:41:24.936Z</time></trkpt><trkpt lat="45.0422383" lon="10.2869867"><ele>26.0</ele><time>2026-04-11T11:41:25.936Z</time></trkpt><trkpt lat="45.0424133" lon="10.2866517"><ele>26.0</ele><time>2026-04-11T11:41:26.936Z</time></trkpt><trkpt lat="45.0425883" lon="10.286325"><ele>26.0</ele><time>2026-04-11T11:41:27.936Z</time></trkpt><trkpt lat="45.0427633" lon="10.2859933"><ele>26.0</ele><time>2026-04-11T11:41:28.936Z</time></trkpt><trkpt lat="45.042935" lon="10.2856633"><ele>25.5</ele><time>2026-04-11T11:41:29.936Z</time></trkpt><trkpt lat="45.0431117" lon="10.285325"><ele>25.0</ele><time>2026-04-11T11:41:30.936Z</time></trkpt><trkpt lat="45.04329" lon="10.2849867"><ele>27.0</ele><time>2026-04-11T11:41:31.936Z</time></trkpt><trkpt lat="45.0434617" lon="10.2846617"><ele>29.0</ele><time>2026-04-11T11:41:32.936Z</time></trkpt><trkpt lat="45.04364" lon="10.2843267"><ele>29.0</ele><time>2026-04-11T11:41:33.936Z</time></trkpt><trkpt lat="45.04382" lon="10.2839867"><ele>29.0</ele><time>2026-04-11T11:41:34.936Z</time></trkpt><trkpt lat="45.0440017" lon="10.2836517"><ele>28.0</ele><time>2026-04-11T11:41:35.935Z</time></trkpt><trkpt lat="45.0441817" lon="10.283315"><ele>27.0</ele><time>2026-04-11T11:41:36.936Z</time></trkpt><trkpt lat="45.0443533" lon="10.2829783"><ele>27.0</ele><time>2026-04-11T11:41:37.936Z</time></trkpt><trkpt lat="45.04453" lon="10.2826383"><ele>27.0</ele><time>2026-04-11T11:41:38.936Z</time></trkpt><trkpt lat="45.0447117" lon="10.2822983"><ele>26.5</ele><time>2026-04-11T11:41:39.936Z</time></trkpt><trkpt lat="45.0448933" lon="10.281955"><ele>26.0</ele><time>2026-04-11T11:41:40.936Z</time></trkpt><trkpt lat="45.045075" lon="10.2816167"><ele>26.5</ele><time>2026-04-11T11:41:41.936Z</time></trkpt><trkpt lat="45.0452533" lon="10.28128"><ele>27.0</ele><time>2026-04-11T11:41:42.936Z</time></trkpt><trkpt lat="45.0454317" lon="10.2809483"><ele>27.0</ele><time>2026-04-11T11:41:43.936Z</time></trkpt><trkpt lat="45.0456083" lon="10.2806017"><ele>27.0</ele><time>2026-04-11T11:41:44.936Z</time></trkpt><trkpt lat="45.0457867" lon="10.2802617"><ele>27.0</ele><time>2026-04-11T11:41:45.936Z</time></trkpt><trkpt lat="45.045965" lon="10.279925"><ele>27.0</ele><time>2026-04-11T11:41:46.936Z</time></trkpt><trkpt lat="45.0461483" lon="10.27959"><ele>27.0</ele><time>2026-04-11T11:41:47.936Z</time></trkpt><trkpt lat="45.04633" lon="10.2792517"><ele>27.0</ele><time>2026-04-11T11:41:48.936Z</time></trkpt><trkpt lat="45.0465067" lon="10.2789133"><ele>27.5</ele><time>2026-04-11T11:41:49.936Z</time></trkpt><trkpt lat="45.0466817" lon="10.278575"><ele>28.0</ele><time>2026-04-11T11:41:50.936Z</time></trkpt><trkpt lat="45.04685" lon="10.2782567"><ele>27.5</ele><time>2026-04-11T11:41:51.936Z</time></trkpt><trkpt lat="45.0470083" lon="10.2779533"><ele>27.0</ele><time>2026-04-11T11:41:52.936Z</time></trkpt><trkpt lat="45.04716" lon="10.277675"><ele>27.0</ele><time>2026-04-11T11:41:53.936Z</time></trkpt><trkpt lat="45.0473083" lon="10.277415"><ele>27.0</ele><time>2026-04-11T11:41:54.936Z</time></trkpt><trkpt lat="45.0474467" lon="10.2771667"><ele>27.0</ele><time>2026-04-11T11:41:55.936Z</time></trkpt><trkpt lat="45.0475717" lon="10.276925"><ele>27.0</ele><time>2026-04-11T11:41:56.936Z</time></trkpt><trkpt lat="45.0476917" lon="10.27669"><ele>27.0</ele><time>2026-04-11T11:41:57.936Z</time></trkpt><trkpt lat="45.04781" lon="10.2764667"><ele>27.0</ele><time>2026-04-11T11:41:58.936Z</time></trkpt><trkpt lat="45.0479283" lon="10.27623"><ele>27.0</ele><time>2026-04-11T11:41:59.936Z</time></trkpt><trkpt lat="45.048055" lon="10.2759867"><ele>27.0</ele><time>2026-04-11T11:42:00.936Z</time></trkpt><trkpt lat="45.0481867" lon="10.275745"><ele>27.333333333333336</ele><time>2026-04-11T11:42:01.936Z</time></trkpt><trkpt lat="45.0483167" lon="10.2754967"><ele>27.666666666666668</ele><time>2026-04-11T11:42:02.936Z</time></trkpt><trkpt lat="45.048455" lon="10.27524"><ele>28.0</ele><time>2026-04-11T11:42:03.936Z</time></trkpt><trkpt lat="45.048595" lon="10.2749817"><ele>27.5</ele><time>2026-04-11T11:42:04.936Z</time></trkpt><trkpt lat="45.0487317" lon="10.2747167"><ele>27.0</ele><time>2026-04-11T11:42:05.935Z</time></trkpt><trkpt lat="45.0488783" lon="10.2744417"><ele>27.0</ele><time>2026-04-11T11:42:06.936Z</time></trkpt><trkpt lat="45.0490233" lon="10.27416"><ele>27.0</ele><time>2026-04-11T11:42:07.935Z</time></trkpt><trkpt lat="45.0491667" lon="10.27389"><ele>27.0</ele><time>2026-04-11T11:42:08.936Z</time></trkpt><trkpt lat="45.049315" lon="10.2736017"><ele>27.0</ele><time>2026-04-11T11:42:09.936Z</time></trkpt><trkpt lat="45.04947" lon="10.273315"><ele>27.5</ele><time>2026-04-11T11:42:10.936Z</time></trkpt><trkpt lat="45.0496217" lon="10.273035"><ele>28.0</ele><time>2026-04-11T11:42:11.936Z</time></trkpt><trkpt lat="45.0497717" lon="10.27275"><ele>28.0</ele><time>2026-04-11T11:42:12.936Z</time></trkpt><trkpt lat="45.0499267" lon="10.2724583"><ele>28.0</ele><time>2026-04-11T11:42:13.936Z</time></trkpt><trkpt lat="45.05008" lon="10.272165"><ele>27.5</ele><time>2026-04-11T11:42:14.936Z</time></trkpt><trkpt lat="45.0502333" lon="10.271875"><ele>27.0</ele><time>2026-04-11T11:42:15.936Z</time></trkpt><trkpt lat="45.0503867" lon="10.2715817"><ele>28.0</ele><time>2026-04-11T11:42:16.935Z</time></trkpt><trkpt lat="45.0505483" lon="10.2712783"><ele>29.0</ele><time>2026-04-11T11:42:17.936Z</time></trkpt><trkpt lat="45.0507067" lon="10.2709783"><ele>29.0</ele><time>2026-04-11T11:42:18.936Z</time></trkpt><trkpt lat="45.0508617" lon="10.2706717"><ele>29.0</ele><time>2026-04-11T11:42:19.936Z</time></trkpt><trkpt lat="45.05102" lon="10.27037"><ele>28.5</ele><time>2026-04-11T11:42:20.936Z</time></trkpt><trkpt lat="45.0511783" lon="10.2700733"><ele>28.0</ele><time>2026-04-11T11:42:21.936Z</time></trkpt><trkpt lat="45.0513383" lon="10.269775"><ele>28.0</ele><time>2026-04-11T11:42:22.935Z</time></trkpt><trkpt lat="45.0515017" lon="10.2694683"><ele>28.0</ele><time>2026-04-11T11:42:23.936Z</time></trkpt><trkpt lat="45.051665" lon="10.269155"><ele>28.0</ele><time>2026-04-11T11:42:24.936Z</time></trkpt><trkpt lat="45.0518283" lon="10.2688517"><ele>28.0</ele><time>2026-04-11T11:42:25.936Z</time></trkpt><trkpt lat="45.0519933" lon="10.2685467"><ele>28.0</ele><time>2026-04-11T11:42:26.936Z</time></trkpt><trkpt lat="45.0521567" lon="10.26825"><ele>28.0</ele><time>2026-04-11T11:42:27.936Z</time></trkpt><trkpt lat="45.0523167" lon="10.2679483"><ele>27.5</ele><time>2026-04-11T11:42:28.935Z</time></trkpt><trkpt lat="45.0524733" lon="10.2676517"><ele>27.0</ele><time>2026-04-11T11:42:29.936Z</time></trkpt><trkpt lat="45.0526367" lon="10.26735"><ele>27.5</ele><time>2026-04-11T11:42:30.936Z</time></trkpt><trkpt lat="45.0527917" lon="10.26705"><ele>28.0</ele><time>2026-04-11T11:42:31.936Z</time></trkpt><trkpt lat="45.05295" lon="10.2667417"><ele>27.5</ele><time>2026-04-11T11:42:32.936Z</time></trkpt><trkpt lat="45.0531133" lon="10.266435"><ele>27.0</ele><time>2026-04-11T11:42:33.936Z</time></trkpt><trkpt lat="45.0532817" lon="10.2661283"><ele>27.0</ele><time>2026-04-11T11:42:34.936Z</time></trkpt><trkpt lat="45.0534517" lon="10.2658117"><ele>27.0</ele><time>2026-04-11T11:42:35.936Z</time></trkpt><trkpt lat="45.0536233" lon="10.2654933"><ele>27.0</ele><time>2026-04-11T11:42:36.936Z</time></trkpt><trkpt lat="45.05379" lon="10.2651817"><ele>27.0</ele><time>2026-04-11T11:42:37.936Z</time></trkpt><trkpt lat="45.0539533" lon="10.2648617"><ele>27.5</ele><time>2026-04-11T11:42:38.936Z</time></trkpt><trkpt lat="45.0541217" lon="10.264535"><ele>28.0</ele><time>2026-04-11T11:42:39.936Z</time></trkpt><trkpt lat="45.0542933" lon="10.264215"><ele>28.0</ele><time>2026-04-11T11:42:40.936Z</time></trkpt><trkpt lat="45.0544617" lon="10.2639"><ele>28.0</ele><time>2026-04-11T11:42:41.936Z</time></trkpt><trkpt lat="45.0546233" lon="10.2635933"><ele>28.0</ele><time>2026-04-11T11:42:42.936Z</time></trkpt><trkpt lat="45.0547833" lon="10.2632933"><ele>28.0</ele><time>2026-04-11T11:42:43.936Z</time></trkpt><trkpt lat="45.054935" lon="10.2630083"><ele>28.5</ele><time>2026-04-11T11:42:44.935Z</time></trkpt><trkpt lat="45.05508" lon="10.2627417"><ele>29.0</ele><time>2026-04-11T11:42:45.936Z</time></trkpt><trkpt lat="45.0552133" lon="10.26249"><ele>29.0</ele><time>2026-04-11T11:42:46.936Z</time></trkpt><trkpt lat="45.0553367" lon="10.2622533"><ele>29.0</ele><time>2026-04-11T11:42:47.936Z</time></trkpt><trkpt lat="45.05545" lon="10.2620217"><ele>29.0</ele><time>2026-04-11T11:42:48.935Z</time></trkpt><trkpt lat="45.0555583" lon="10.2618033"><ele>29.0</ele><time>2026-04-11T11:42:49.936Z</time></trkpt><trkpt lat="45.0556683" lon="10.2615983"><ele>29.0</ele><time>2026-04-11T11:42:50.936Z</time></trkpt><trkpt lat="45.0557733" lon="10.2614083"><ele>29.0</ele><time>2026-04-11T11:42:51.936Z</time></trkpt><trkpt lat="45.0558717" lon="10.261225"><ele>29.333333333333332</ele><time>2026-04-11T11:42:52.936Z</time></trkpt><trkpt lat="45.0559683" lon="10.26105"><ele>29.666666666666664</ele><time>2026-04-11T11:42:53.936Z</time></trkpt><trkpt lat="45.05606" lon="10.260885"><ele>30.0</ele><time>2026-04-11T11:42:54.936Z</time></trkpt><trkpt lat="45.0561483" lon="10.2607233"><ele>30.0</ele><time>2026-04-11T11:42:55.936Z</time></trkpt><trkpt lat="45.0562367" lon="10.26056"><ele>30.0</ele><time>2026-04-11T11:42:56.936Z</time></trkpt><trkpt lat="45.05633" lon="10.260375"><ele>30.0</ele><time>2026-04-11T11:42:57.936Z</time></trkpt><trkpt lat="45.0564183" lon="10.2601967"><ele>30.0</ele><time>2026-04-11T11:42:58.936Z</time></trkpt><trkpt lat="45.0565167" lon="10.2600217"><ele>30.0</ele><time>2026-04-11T11:42:59.936Z</time></trkpt><trkpt lat="45.0566183" lon="10.2598333"><ele>30.0</ele><time>2026-04-11T11:43:00.936Z</time></trkpt><trkpt lat="45.05672" lon="10.2596383"><ele>30.666666666666664</ele><time>2026-04-11T11:43:01.936Z</time></trkpt><trkpt lat="45.056825" lon="10.2594433"><ele>31.333333333333332</ele><time>2026-04-11T11:43:02.936Z</time></trkpt><trkpt lat="45.056935" lon="10.259235"><ele>32.0</ele><time>2026-04-11T11:43:03.936Z</time></trkpt><trkpt lat="45.0570483" lon="10.259025"><ele>31.666666666666664</ele><time>2026-04-11T11:43:04.935Z</time></trkpt><trkpt lat="45.0571633" lon="10.258815"><ele>31.333333333333336</ele><time>2026-04-11T11:43:05.936Z</time></trkpt><trkpt lat="45.05727" lon="10.2586033"><ele>31.0</ele><time>2026-04-11T11:43:06.936Z</time></trkpt><trkpt lat="45.0573783" lon="10.2583883"><ele>31.0</ele><time>2026-04-11T11:43:07.936Z</time></trkpt><trkpt lat="45.0574967" lon="10.258175"><ele>31.0</ele><time>2026-04-11T11:43:08.935Z</time></trkpt><trkpt lat="45.05761" lon="10.257965"><ele>31.0</ele><time>2026-04-11T11:43:09.936Z</time></trkpt><trkpt lat="45.0577217" lon="10.2577517"><ele>30.666666666666668</ele><time>2026-04-11T11:43:10.936Z</time></trkpt><trkpt lat="45.0578367" lon="10.2575233"><ele>30.333333333333336</ele><time>2026-04-11T11:43:11.936Z</time></trkpt><trkpt lat="45.057955" lon="10.2572967"><ele>30.0</ele><time>2026-04-11T11:43:12.936Z</time></trkpt><trkpt lat="45.0580733" lon="10.2570733"><ele>29.666666666666664</ele><time>2026-04-11T11:43:13.936Z</time></trkpt><trkpt lat="45.0581917" lon="10.256865"><ele>29.333333333333332</ele><time>2026-04-11T11:43:14.936Z</time></trkpt><trkpt lat="45.0583117" lon="10.25664"><ele>29.0</ele><time>2026-04-11T11:43:15.936Z</time></trkpt><trkpt lat="45.05843" lon="10.2564183"><ele>28.333333333333332</ele><time>2026-04-11T11:43:16.936Z</time></trkpt><trkpt lat="45.0585533" lon="10.2561867"><ele>27.666666666666664</ele><time>2026-04-11T11:43:17.936Z</time></trkpt><trkpt lat="45.0586717" lon="10.2559617"><ele>27.0</ele><time>2026-04-11T11:43:18.936Z</time></trkpt><trkpt lat="45.05879" lon="10.2557333"><ele>27.333333333333336</ele><time>2026-04-11T11:43:19.936Z</time></trkpt><trkpt lat="45.0588983" lon="10.255505"><ele>27.666666666666668</ele><time>2026-04-11T11:43:20.935Z</time></trkpt><trkpt lat="45.05899" lon="10.255275"><ele>28.0</ele><time>2026-04-11T11:43:21.936Z</time></trkpt><trkpt lat="45.0590667" lon="10.255025"><ele>27.666666666666668</ele><time>2026-04-11T11:43:22.936Z</time></trkpt><trkpt lat="45.0591233" lon="10.2547717"><ele>27.333333333333336</ele><time>2026-04-11T11:43:23.936Z</time></trkpt><trkpt lat="45.05917" lon="10.254505"><ele>27.0</ele><time>2026-04-11T11:43:24.936Z</time></trkpt><trkpt lat="45.0592117" lon="10.254225"><ele>27.0</ele><time>2026-04-11T11:43:25.936Z</time></trkpt><trkpt lat="45.0592533" lon="10.2539433"><ele>27.0</ele><time>2026-04-11T11:43:26.936Z</time></trkpt><trkpt lat="45.05929" lon="10.2536483"><ele>27.0</ele><time>2026-04-11T11:43:27.936Z</time></trkpt><trkpt lat="45.0593333" lon="10.2533467"><ele>27.0</ele><time>2026-04-11T11:43:28.936Z</time></trkpt><trkpt lat="45.0593733" lon="10.2530433"><ele>27.0</ele><time>2026-04-11T11:43:29.936Z</time></trkpt><trkpt lat="45.0594167" lon="10.252735"><ele>27.0</ele><time>2026-04-11T11:43:30.936Z</time></trkpt><trkpt lat="45.0594567" lon="10.25242"><ele>26.0</ele><time>2026-04-11T11:43:31.936Z</time></trkpt><trkpt lat="45.0594967" lon="10.2521017"><ele>25.0</ele><time>2026-04-11T11:43:32.936Z</time></trkpt><trkpt lat="45.059535" lon="10.2517933"><ele>25.0</ele><time>2026-04-11T11:43:33.936Z</time></trkpt><trkpt lat="45.0595717" lon="10.251485"><ele>25.0</ele><time>2026-04-11T11:43:34.936Z</time></trkpt><trkpt lat="45.05962" lon="10.2511733"><ele>25.0</ele><time>2026-04-11T11:43:35.936Z</time></trkpt><trkpt lat="45.0596683" lon="10.25086"><ele>26.0</ele><time>2026-04-11T11:43:36.936Z</time></trkpt><trkpt lat="45.0597133" lon="10.25055"><ele>27.0</ele><time>2026-04-11T11:43:37.936Z</time></trkpt><trkpt lat="45.0597533" lon="10.2502417"><ele>28.0</ele><time>2026-04-11T11:43:38.936Z</time></trkpt><trkpt lat="45.0597967" lon="10.2499383"><ele>28.0</ele><time>2026-04-11T11:43:39.936Z</time></trkpt><trkpt lat="45.0598433" lon="10.2496267"><ele>28.0</ele><time>2026-04-11T11:43:40.936Z</time></trkpt><trkpt lat="45.05989" lon="10.2493367"><ele>28.0</ele><time>2026-04-11T11:43:41.936Z</time></trkpt><trkpt lat="45.0599217" lon="10.2490217"><ele>28.0</ele><time>2026-04-11T11:43:42.935Z</time></trkpt><trkpt lat="45.05996" lon="10.248695"><ele>28.0</ele><time>2026-04-11T11:43:43.935Z</time></trkpt><trkpt lat="45.06" lon="10.248375"><ele>27.5</ele><time>2026-04-11T11:43:44.935Z</time></trkpt><trkpt lat="45.0600467" lon="10.2480583"><ele>27.0</ele><time>2026-04-11T11:43:45.934Z</time></trkpt><trkpt lat="45.0600933" lon="10.2477383"><ele>27.0</ele><time>2026-04-11T11:43:46.935Z</time></trkpt><trkpt lat="45.0601317" lon="10.2474167"><ele>27.0</ele><time>2026-04-11T11:43:47.935Z</time></trkpt><trkpt lat="45.060175" lon="10.2471017"><ele>27.0</ele><time>2026-04-11T11:43:48.935Z</time></trkpt><trkpt lat="45.0602167" lon="10.2467833"><ele>27.0</ele><time>2026-04-11T11:43:49.935Z</time></trkpt><trkpt lat="45.0602633" lon="10.2464617"><ele>27.5</ele><time>2026-04-11T11:43:50.935Z</time></trkpt><trkpt lat="45.0603033" lon="10.2461367"><ele>28.0</ele><time>2026-04-11T11:43:51.935Z</time></trkpt><trkpt lat="45.060345" lon="10.2458133"><ele>28.0</ele><time>2026-04-11T11:43:52.935Z</time></trkpt><trkpt lat="45.0603783" lon="10.24549"><ele>28.0</ele><time>2026-04-11T11:43:53.935Z</time></trkpt><trkpt lat="45.0604017" lon="10.2451733"><ele>28.0</ele><time>2026-04-11T11:43:54.934Z</time></trkpt><trkpt lat="45.0604283" lon="10.2448467"><ele>28.0</ele><time>2026-04-11T11:43:55.935Z</time></trkpt><trkpt lat="45.0604483" lon="10.244525"><ele>28.0</ele><time>2026-04-11T11:43:56.935Z</time></trkpt><trkpt lat="45.060465" lon="10.24421"><ele>28.0</ele><time>2026-04-11T11:43:57.935Z</time></trkpt><trkpt lat="45.0604783" lon="10.2438917"><ele>28.0</ele><time>2026-04-11T11:43:58.935Z</time></trkpt><trkpt lat="45.060495" lon="10.2435633"><ele>29.0</ele><time>2026-04-11T11:43:59.935Z</time></trkpt><trkpt lat="45.060515" lon="10.2432383"><ele>30.0</ele><time>2026-04-11T11:44:00.935Z</time></trkpt><trkpt lat="45.0605367" lon="10.2429167"><ele>30.0</ele><time>2026-04-11T11:44:01.935Z</time></trkpt><trkpt lat="45.0605567" lon="10.2426017"><ele>30.0</ele><time>2026-04-11T11:44:02.935Z</time></trkpt><trkpt lat="45.060575" lon="10.242285"><ele>30.0</ele><time>2026-04-11T11:44:03.935Z</time></trkpt><trkpt lat="45.060595" lon="10.24196"><ele>29.5</ele><time>2026-04-11T11:44:04.935Z</time></trkpt><trkpt lat="45.0606083" lon="10.2416317"><ele>29.0</ele><time>2026-04-11T11:44:05.935Z</time></trkpt><trkpt lat="45.0606283" lon="10.2413017"><ele>28.0</ele><time>2026-04-11T11:44:06.935Z</time></trkpt><trkpt lat="45.0606467" lon="10.2409733"><ele>27.0</ele><time>2026-04-11T11:44:07.935Z</time></trkpt><trkpt lat="45.0606667" lon="10.2406467"><ele>26.5</ele><time>2026-04-11T11:44:08.935Z</time></trkpt><trkpt lat="45.0606833" lon="10.2403183"><ele>26.0</ele><time>2026-04-11T11:44:09.935Z</time></trkpt><trkpt lat="45.0607083" lon="10.2399867"><ele>26.5</ele><time>2026-04-11T11:44:10.935Z</time></trkpt><trkpt lat="45.0607317" lon="10.2396517"><ele>27.0</ele><time>2026-04-11T11:44:11.935Z</time></trkpt><trkpt lat="45.0607517" lon="10.2393183"><ele>27.0</ele><time>2026-04-11T11:44:12.935Z</time></trkpt><trkpt lat="45.0607667" lon="10.2389817"><ele>27.0</ele><time>2026-04-11T11:44:13.935Z</time></trkpt><trkpt lat="45.0607933" lon="10.23864"><ele>27.5</ele><time>2026-04-11T11:44:14.935Z</time></trkpt><trkpt lat="45.06081" lon="10.2383"><ele>28.0</ele><time>2026-04-11T11:44:15.935Z</time></trkpt><trkpt lat="45.06083" lon="10.237965"><ele>28.5</ele><time>2026-04-11T11:44:16.935Z</time></trkpt><trkpt lat="45.060855" lon="10.237615"><ele>29.0</ele><time>2026-04-11T11:44:17.935Z</time></trkpt><trkpt lat="45.06088" lon="10.2372717"><ele>29.5</ele><time>2026-04-11T11:44:18.935Z</time></trkpt><trkpt lat="45.0609017" lon="10.2369317"><ele>30.0</ele><time>2026-04-11T11:44:19.935Z</time></trkpt><trkpt lat="45.060915" lon="10.23659"><ele>30.0</ele><time>2026-04-11T11:44:20.935Z</time></trkpt><trkpt lat="45.06093" lon="10.236245"><ele>30.0</ele><time>2026-04-11T11:44:21.935Z</time></trkpt><trkpt lat="45.06096" lon="10.2359033"><ele>29.0</ele><time>2026-04-11T11:44:22.935Z</time></trkpt><trkpt lat="45.060975" lon="10.2355533"><ele>28.0</ele><time>2026-04-11T11:44:23.935Z</time></trkpt><trkpt lat="45.060995" lon="10.2352067"><ele>28.0</ele><time>2026-04-11T11:44:24.935Z</time></trkpt><trkpt lat="45.0610133" lon="10.23486"><ele>28.0</ele><time>2026-04-11T11:44:25.935Z</time></trkpt><trkpt lat="45.061035" lon="10.2345033"><ele>27.5</ele><time>2026-04-11T11:44:26.935Z</time></trkpt><trkpt lat="45.061055" lon="10.2341517"><ele>27.0</ele><time>2026-04-11T11:44:27.934Z</time></trkpt><trkpt lat="45.06107" lon="10.2338067"><ele>28.0</ele><time>2026-04-11T11:44:28.935Z</time></trkpt><trkpt lat="45.0610917" lon="10.2334567"><ele>29.0</ele><time>2026-04-11T11:44:29.935Z</time></trkpt><trkpt lat="45.0611083" lon="10.2331167"><ele>29.0</ele><time>2026-04-11T11:44:30.934Z</time></trkpt><trkpt lat="45.0611283" lon="10.232785"><ele>29.0</ele><time>2026-04-11T11:44:31.935Z</time></trkpt><trkpt lat="45.06115" lon="10.232455"><ele>28.5</ele><time>2026-04-11T11:44:32.935Z</time></trkpt><trkpt lat="45.0611683" lon="10.2321183"><ele>28.0</ele><time>2026-04-11T11:44:33.935Z</time></trkpt><trkpt lat="45.0611933" lon="10.2317817"><ele>27.5</ele><time>2026-04-11T11:44:34.935Z</time></trkpt><trkpt lat="45.0612117" lon="10.231455"><ele>27.0</ele><time>2026-04-11T11:44:35.935Z</time></trkpt><trkpt lat="45.061235" lon="10.23113"><ele>27.0</ele><time>2026-04-11T11:44:36.935Z</time></trkpt><trkpt lat="45.06125" lon="10.2308"><ele>27.0</ele><time>2026-04-11T11:44:37.935Z</time></trkpt><trkpt lat="45.0612717" lon="10.2304717"><ele>27.0</ele><time>2026-04-11T11:44:38.935Z</time></trkpt><trkpt lat="45.0612917" lon="10.23013"><ele>27.0</ele><time>2026-04-11T11:44:39.935Z</time></trkpt><trkpt lat="45.06131" lon="10.229795"><ele>28.0</ele><time>2026-04-11T11:44:40.935Z</time></trkpt><trkpt lat="45.06133" lon="10.229445"><ele>29.0</ele><time>2026-04-11T11:44:41.935Z</time></trkpt><trkpt lat="45.0613517" lon="10.22909"><ele>29.0</ele><time>2026-04-11T11:44:42.935Z</time></trkpt><trkpt lat="45.0613783" lon="10.2287317"><ele>29.0</ele><time>2026-04-11T11:44:43.935Z</time></trkpt><trkpt lat="45.0614017" lon="10.22838"><ele>28.5</ele><time>2026-04-11T11:44:44.935Z</time></trkpt><trkpt lat="45.061425" lon="10.2280267"><ele>28.0</ele><time>2026-04-11T11:44:45.935Z</time></trkpt><trkpt lat="45.0614417" lon="10.22767"><ele>28.0</ele><time>2026-04-11T11:44:46.935Z</time></trkpt><trkpt lat="45.0614617" lon="10.227315"><ele>28.0</ele><time>2026-04-11T11:44:47.935Z</time></trkpt><trkpt lat="45.0614817" lon="10.2269583"><ele>28.5</ele><time>2026-04-11T11:44:48.935Z</time></trkpt><trkpt lat="45.0615033" lon="10.226595"><ele>29.0</ele><time>2026-04-11T11:44:49.935Z</time></trkpt><trkpt lat="45.0615283" lon="10.2262333"><ele>29.0</ele><time>2026-04-11T11:44:50.935Z</time></trkpt><trkpt lat="45.0615417" lon="10.2258717"><ele>29.0</ele><time>2026-04-11T11:44:51.935Z</time></trkpt><trkpt lat="45.061565" lon="10.2255133"><ele>28.5</ele><time>2026-04-11T11:44:52.935Z</time></trkpt><trkpt lat="45.061585" lon="10.22517"><ele>28.0</ele><time>2026-04-11T11:44:53.934Z</time></trkpt><trkpt lat="45.06161" lon="10.2248533"><ele>28.666666666666668</ele><time>2026-04-11T11:44:54.935Z</time></trkpt><trkpt lat="45.061635" lon="10.224555"><ele>29.333333333333336</ele><time>2026-04-11T11:44:55.935Z</time></trkpt><trkpt lat="45.0616617" lon="10.2242733"><ele>30.0</ele><time>2026-04-11T11:44:56.935Z</time></trkpt><trkpt lat="45.0616967" lon="10.22401"><ele>29.666666666666664</ele><time>2026-04-11T11:44:57.935Z</time></trkpt><trkpt lat="45.0617467" lon="10.2237617"><ele>29.333333333333332</ele><time>2026-04-11T11:44:58.935Z</time></trkpt><trkpt lat="45.0618167" lon="10.22351"><ele>29.0</ele><time>2026-04-11T11:44:59.935Z</time></trkpt><trkpt lat="45.0619" lon="10.2232617"><ele>29.0</ele><time>2026-04-11T11:45:00.935Z</time></trkpt><trkpt lat="45.061985" lon="10.22301"><ele>29.0</ele><time>2026-04-11T11:45:01.935Z</time></trkpt><trkpt lat="45.0620783" lon="10.22275"><ele>29.0</ele><time>2026-04-11T11:45:02.935Z</time></trkpt><trkpt lat="45.062175" lon="10.2224783"><ele>28.666666666666664</ele><time>2026-04-11T11:45:03.935Z</time></trkpt><trkpt lat="45.0622733" lon="10.222205"><ele>28.333333333333336</ele><time>2026-04-11T11:45:04.935Z</time></trkpt><trkpt lat="45.0623733" lon="10.2219233"><ele>28.0</ele><time>2026-04-11T11:45:05.935Z</time></trkpt><trkpt lat="45.0624633" lon="10.2216167"><ele>28.0</ele><time>2026-04-11T11:45:06.935Z</time></trkpt><trkpt lat="45.0625533" lon="10.2213017"><ele>28.0</ele><time>2026-04-11T11:45:07.935Z</time></trkpt><trkpt lat="45.0626283" lon="10.22098"><ele>28.0</ele><time>2026-04-11T11:45:08.935Z</time></trkpt><trkpt lat="45.0627067" lon="10.22066"><ele>28.0</ele><time>2026-04-11T11:45:09.935Z</time></trkpt><trkpt lat="45.0627933" lon="10.2203417"><ele>28.5</ele><time>2026-04-11T11:45:10.935Z</time></trkpt><trkpt lat="45.0628817" lon="10.2200217"><ele>29.0</ele><time>2026-04-11T11:45:11.935Z</time></trkpt><trkpt lat="45.0629633" lon="10.2197033"><ele>29.0</ele><time>2026-04-11T11:45:12.935Z</time></trkpt><trkpt lat="45.0630433" lon="10.219385"><ele>29.0</ele><time>2026-04-11T11:45:13.935Z</time></trkpt><trkpt lat="45.0631267" lon="10.2190617"><ele>28.5</ele><time>2026-04-11T11:45:14.934Z</time></trkpt><trkpt lat="45.0632067" lon="10.2187467"><ele>28.0</ele><time>2026-04-11T11:45:15.935Z</time></trkpt><trkpt lat="45.06328" lon="10.21842"><ele>28.0</ele><time>2026-04-11T11:45:16.935Z</time></trkpt><trkpt lat="45.06334" lon="10.2181"><ele>28.0</ele><time>2026-04-11T11:45:17.935Z</time></trkpt><trkpt lat="45.0633883" lon="10.2177783"><ele>28.0</ele><time>2026-04-11T11:45:18.935Z</time></trkpt><trkpt lat="45.06343" lon="10.2174583"><ele>28.0</ele><time>2026-04-11T11:45:19.935Z</time></trkpt><trkpt lat="45.0634683" lon="10.2171367"><ele>27.666666666666668</ele><time>2026-04-11T11:45:20.935Z</time></trkpt><trkpt lat="45.0635" lon="10.2168267"><ele>27.333333333333336</ele><time>2026-04-11T11:45:21.935Z</time></trkpt><trkpt lat="45.0635283" lon="10.2165317"><ele>27.0</ele><time>2026-04-11T11:45:22.935Z</time></trkpt><trkpt lat="45.0635483" lon="10.216255"><ele>28.0</ele><time>2026-04-11T11:45:23.935Z</time></trkpt><trkpt lat="45.0635467" lon="10.2159983"><ele>29.0</ele><time>2026-04-11T11:45:24.935Z</time></trkpt><trkpt lat="45.0635317" lon="10.2157433"><ele>30.0</ele><time>2026-04-11T11:45:25.935Z</time></trkpt><trkpt lat="45.0634917" lon="10.2154767"><ele>30.333333333333336</ele><time>2026-04-11T11:45:26.935Z</time></trkpt><trkpt lat="45.0634467" lon="10.21521"><ele>30.666666666666668</ele><time>2026-04-11T11:45:27.935Z</time></trkpt><trkpt lat="45.0634" lon="10.214945"><ele>31.0</ele><time>2026-04-11T11:45:28.935Z</time></trkpt><trkpt lat="45.0633517" lon="10.2146767"><ele>30.333333333333336</ele><time>2026-04-11T11:45:29.935Z</time></trkpt><trkpt lat="45.0633" lon="10.2143917"><ele>29.666666666666664</ele><time>2026-04-11T11:45:30.935Z</time></trkpt><trkpt lat="45.06325" lon="10.2141067"><ele>29.0</ele><time>2026-04-11T11:45:31.935Z</time></trkpt><trkpt lat="45.0631967" lon="10.2138133"><ele>28.333333333333332</ele><time>2026-04-11T11:45:32.935Z</time></trkpt><trkpt lat="45.06314" lon="10.213525"><ele>27.666666666666664</ele><time>2026-04-11T11:45:33.935Z</time></trkpt><trkpt lat="45.0630733" lon="10.2132417"><ele>27.0</ele><time>2026-04-11T11:45:34.935Z</time></trkpt><trkpt lat="45.063005" lon="10.2129767"><ele>27.0</ele><time>2026-04-11T11:45:35.935Z</time></trkpt><trkpt lat="45.0629433" lon="10.2127283"><ele>27.0</ele><time>2026-04-11T11:45:36.935Z</time></trkpt><trkpt lat="45.0628817" lon="10.2124767"><ele>27.0</ele><time>2026-04-11T11:45:37.935Z</time></trkpt><trkpt lat="45.062825" lon="10.2122417"><ele>27.333333333333336</ele><time>2026-04-11T11:45:38.935Z</time></trkpt><trkpt lat="45.0627717" lon="10.2120233"><ele>27.666666666666668</ele><time>2026-04-11T11:45:39.935Z</time></trkpt><trkpt lat="45.062715" lon="10.2117967"><ele>28.0</ele><time>2026-04-11T11:45:40.934Z</time></trkpt><trkpt lat="45.062655" lon="10.211585"><ele>28.0</ele><time>2026-04-11T11:45:41.935Z</time></trkpt><trkpt lat="45.0625867" lon="10.2113633"><ele>28.0</ele><time>2026-04-11T11:45:42.935Z</time></trkpt><trkpt lat="45.0624967" lon="10.2111467"><ele>28.0</ele><time>2026-04-11T11:45:43.935Z</time></trkpt><trkpt lat="45.0623917" lon="10.2109333"><ele>28.666666666666668</ele><time>2026-04-11T11:45:44.935Z</time></trkpt><trkpt lat="45.0622733" lon="10.2107167"><ele>29.333333333333336</ele><time>2026-04-11T11:45:45.935Z</time></trkpt><trkpt lat="45.0621583" lon="10.2105033"><ele>30.0</ele><time>2026-04-11T11:45:46.935Z</time></trkpt><trkpt lat="45.06205" lon="10.2102783"><ele>30.0</ele><time>2026-04-11T11:45:47.935Z</time></trkpt><trkpt lat="45.0619333" lon="10.210055"><ele>30.0</ele><time>2026-04-11T11:45:48.935Z</time></trkpt><trkpt lat="45.0618033" lon="10.2098233"><ele>30.0</ele><time>2026-04-11T11:45:49.935Z</time></trkpt><trkpt lat="45.0616633" lon="10.2096033"><ele>30.0</ele><time>2026-04-11T11:45:50.935Z</time></trkpt><trkpt lat="45.06152" lon="10.2093917"><ele>30.0</ele><time>2026-04-11T11:45:51.935Z</time></trkpt><trkpt lat="45.0613717" lon="10.209175"><ele>30.0</ele><time>2026-04-11T11:45:52.935Z</time></trkpt><trkpt lat="45.0612133" lon="10.2089667"><ele>29.333333333333336</ele><time>2026-04-11T11:45:53.935Z</time></trkpt><trkpt lat="45.06105" lon="10.2087667"><ele>28.666666666666668</ele><time>2026-04-11T11:45:54.935Z</time></trkpt><trkpt lat="45.0608883" lon="10.2085633"><ele>28.0</ele><time>2026-04-11T11:45:55.935Z</time></trkpt><trkpt lat="45.0607267" lon="10.2083583"><ele>28.0</ele><time>2026-04-11T11:45:56.935Z</time></trkpt><trkpt lat="45.0605767" lon="10.20816"><ele>28.0</ele><time>2026-04-11T11:45:57.935Z</time></trkpt><trkpt lat="45.06044" lon="10.2079633"><ele>28.0</ele><time>2026-04-11T11:45:58.935Z</time></trkpt><trkpt lat="45.0603167" lon="10.2077733"><ele>28.0</ele><time>2026-04-11T11:45:59.935Z</time></trkpt><trkpt lat="45.0602" lon="10.2075817"><ele>28.0</ele><time>2026-04-11T11:46:00.935Z</time></trkpt><trkpt lat="45.0600917" lon="10.207405"><ele>28.0</ele><time>2026-04-11T11:46:01.935Z</time></trkpt><trkpt lat="45.0599917" lon="10.2072383"><ele>27.5</ele><time>2026-04-11T11:46:02.935Z</time></trkpt><trkpt lat="45.0598967" lon="10.2070783"><ele>27.0</ele><time>2026-04-11T11:46:03.935Z</time></trkpt><trkpt lat="45.0598033" lon="10.2069267"><ele>26.5</ele><time>2026-04-11T11:46:04.935Z</time></trkpt><trkpt lat="45.0597183" lon="10.2067767"><ele>26.0</ele><time>2026-04-11T11:46:05.935Z</time></trkpt><trkpt lat="45.0596567" lon="10.2066067"><ele>26.666666666666664</ele><time>2026-04-11T11:46:06.935Z</time></trkpt><trkpt lat="45.05961" lon="10.2064083"><ele>27.333333333333336</ele><time>2026-04-11T11:46:07.935Z</time></trkpt><trkpt lat="45.0595817" lon="10.206195"><ele>28.0</ele><time>2026-04-11T11:46:08.935Z</time></trkpt><trkpt lat="45.0595717" lon="10.2059617"><ele>28.0</ele><time>2026-04-11T11:46:09.935Z</time></trkpt><trkpt lat="45.0595867" lon="10.20572"><ele>28.0</ele><time>2026-04-11T11:46:10.935Z</time></trkpt><trkpt lat="45.0596233" lon="10.2054683"><ele>28.0</ele><time>2026-04-11T11:46:11.935Z</time></trkpt><trkpt lat="45.05967" lon="10.205215"><ele>28.0</ele><time>2026-04-11T11:46:12.935Z</time></trkpt><trkpt lat="45.0597117" lon="10.2049433"><ele>28.0</ele><time>2026-04-11T11:46:13.935Z</time></trkpt><trkpt lat="45.0597533" lon="10.2046583"><ele>28.0</ele><time>2026-04-11T11:46:14.935Z</time></trkpt><trkpt lat="45.0597983" lon="10.204365"><ele>28.0</ele><time>2026-04-11T11:46:15.934Z</time></trkpt><trkpt lat="45.0598433" lon="10.204065"><ele>28.0</ele><time>2026-04-11T11:46:16.935Z</time></trkpt><trkpt lat="45.059895" lon="10.2037667"><ele>28.0</ele><time>2026-04-11T11:46:17.935Z</time></trkpt><trkpt lat="45.0599433" lon="10.2034467"><ele>28.5</ele><time>2026-04-11T11:46:18.935Z</time></trkpt><trkpt lat="45.0599967" lon="10.2031333"><ele>29.0</ele><time>2026-04-11T11:46:19.935Z</time></trkpt><trkpt lat="45.0600467" lon="10.2028117"><ele>29.0</ele><time>2026-04-11T11:46:20.935Z</time></trkpt><trkpt lat="45.060095" lon="10.2024867"><ele>29.0</ele><time>2026-04-11T11:46:21.935Z</time></trkpt><trkpt lat="45.0601483" lon="10.20215"><ele>28.5</ele><time>2026-04-11T11:46:22.935Z</time></trkpt><trkpt lat="45.0601917" lon="10.201825"><ele>28.0</ele><time>2026-04-11T11:46:23.935Z</time></trkpt><trkpt lat="45.0602417" lon="10.2014917"><ele>27.5</ele><time>2026-04-11T11:46:24.935Z</time></trkpt><trkpt lat="45.0602933" lon="10.2011567"><ele>27.0</ele><time>2026-04-11T11:46:25.935Z</time></trkpt><trkpt lat="45.060345" lon="10.2008283"><ele>27.5</ele><time>2026-04-11T11:46:26.935Z</time></trkpt><trkpt lat="45.060395" lon="10.2005033"><ele>28.0</ele><time>2026-04-11T11:46:27.935Z</time></trkpt><trkpt lat="45.0604483" lon="10.2001683"><ele>28.0</ele><time>2026-04-11T11:46:28.935Z</time></trkpt><trkpt lat="45.0605033" lon="10.1998367"><ele>28.0</ele><time>2026-04-11T11:46:29.935Z</time></trkpt><trkpt lat="45.060555" lon="10.1995133"><ele>28.0</ele><time>2026-04-11T11:46:30.935Z</time></trkpt><trkpt lat="45.0606067" lon="10.1991917"><ele>28.0</ele><time>2026-04-11T11:46:31.935Z</time></trkpt><trkpt lat="45.0606567" lon="10.1988733"><ele>28.0</ele><time>2026-04-11T11:46:32.935Z</time></trkpt><trkpt lat="45.0607067" lon="10.1985533"><ele>28.0</ele><time>2026-04-11T11:46:33.935Z</time></trkpt><trkpt lat="45.0607567" lon="10.1982417"><ele>28.0</ele><time>2026-04-11T11:46:34.935Z</time></trkpt><trkpt lat="45.0608067" lon="10.1979183"><ele>28.0</ele><time>2026-04-11T11:46:35.935Z</time></trkpt><trkpt lat="45.06085" lon="10.197605"><ele>28.0</ele><time>2026-04-11T11:46:36.935Z</time></trkpt><trkpt lat="45.0608967" lon="10.197295"><ele>28.0</ele><time>2026-04-11T11:46:37.935Z</time></trkpt><trkpt lat="45.060945" lon="10.196985"><ele>28.0</ele><time>2026-04-11T11:46:38.935Z</time></trkpt><trkpt lat="45.06099" lon="10.1966767"><ele>28.333333333333336</ele><time>2026-04-11T11:46:39.935Z</time></trkpt><trkpt lat="45.061035" lon="10.19637"><ele>28.666666666666664</ele><time>2026-04-11T11:46:40.935Z</time></trkpt><trkpt lat="45.06108" lon="10.1960667"><ele>29.0</ele><time>2026-04-11T11:46:41.935Z</time></trkpt><trkpt lat="45.0611217" lon="10.1957617"><ele>28.666666666666664</ele><time>2026-04-11T11:46:42.935Z</time></trkpt><trkpt lat="45.06117" lon="10.1954567"><ele>28.333333333333336</ele><time>2026-04-11T11:46:43.934Z</time></trkpt><trkpt lat="45.061225" lon="10.19515"><ele>28.0</ele><time>2026-04-11T11:46:44.935Z</time></trkpt><trkpt lat="45.0612717" lon="10.19485"><ele>28.333333333333336</ele><time>2026-04-11T11:46:45.935Z</time></trkpt><trkpt lat="45.0613183" lon="10.19455"><ele>28.666666666666664</ele><time>2026-04-11T11:46:46.935Z</time></trkpt><trkpt lat="45.061365" lon="10.194235"><ele>29.0</ele><time>2026-04-11T11:46:47.935Z</time></trkpt><trkpt lat="45.0614117" lon="10.1939217"><ele>29.0</ele><time>2026-04-11T11:46:48.935Z</time></trkpt><trkpt lat="45.061455" lon="10.1936283"><ele>29.0</ele><time>2026-04-11T11:46:49.934Z</time></trkpt><trkpt lat="45.061495" lon="10.1933583"><ele>29.0</ele><time>2026-04-11T11:46:50.935Z</time></trkpt><trkpt lat="45.0615383" lon="10.1930967"><ele>29.0</ele><time>2026-04-11T11:46:51.934Z</time></trkpt><trkpt lat="45.0615783" lon="10.1928533"><ele>29.0</ele><time>2026-04-11T11:46:52.935Z</time></trkpt><trkpt lat="45.061615" lon="10.192625"><ele>29.0</ele><time>2026-04-11T11:46:53.935Z</time></trkpt><trkpt lat="45.0616533" lon="10.1924117"><ele>28.75</ele><time>2026-04-11T11:46:54.935Z</time></trkpt><trkpt lat="45.0616833" lon="10.192215"><ele>28.5</ele><time>2026-04-11T11:46:55.934Z</time></trkpt><trkpt lat="45.0617133" lon="10.19203"><ele>28.25</ele><time>2026-04-11T11:46:56.935Z</time></trkpt><trkpt lat="45.0617367" lon="10.1918633"><ele>28.0</ele><time>2026-04-11T11:46:57.935Z</time></trkpt><trkpt lat="45.0617633" lon="10.1917133"><ele>28.000000000000004</ele><time>2026-04-11T11:46:58.935Z</time></trkpt><trkpt lat="45.0617867" lon="10.19158"><ele>28.0</ele><time>2026-04-11T11:46:59.935Z</time></trkpt><trkpt lat="45.061815" lon="10.1914617"><ele>28.0</ele><time>2026-04-11T11:47:00.935Z</time></trkpt><trkpt lat="45.0618533" lon="10.1913533"><ele>28.0</ele><time>2026-04-11T11:47:01.935Z</time></trkpt><trkpt lat="45.0618967" lon="10.1912633"><ele>28.000000000000004</ele><time>2026-04-11T11:47:02.935Z</time></trkpt><trkpt lat="45.061945" lon="10.1911833"><ele>28.0</ele><time>2026-04-11T11:47:03.935Z</time></trkpt><trkpt lat="45.061985" lon="10.191105"><ele>28.000000000000004</ele><time>2026-04-11T11:47:04.935Z</time></trkpt><trkpt lat="45.062015" lon="10.1910133"><ele>28.0</ele><time>2026-04-11T11:47:05.935Z</time></trkpt><trkpt lat="45.0620267" lon="10.1909017"><ele>28.0</ele><time>2026-04-11T11:47:06.935Z</time></trkpt><trkpt lat="45.0620083" lon="10.1907817"><ele>28.0</ele><time>2026-04-11T11:47:07.934Z</time></trkpt><trkpt lat="45.061985" lon="10.19066"><ele>28.000000000000004</ele><time>2026-04-11T11:47:08.934Z</time></trkpt><trkpt lat="45.06197" lon="10.1905217"><ele>28.0</ele><time>2026-04-11T11:47:09.934Z</time></trkpt><trkpt lat="45.06197" lon="10.1903667"><ele>28.25</ele><time>2026-04-11T11:47:10.933Z</time></trkpt><trkpt lat="45.06199" lon="10.1901967"><ele>28.5</ele><time>2026-04-11T11:47:11.934Z</time></trkpt><trkpt lat="45.0620217" lon="10.1900017"><ele>28.75</ele><time>2026-04-11T11:47:12.934Z</time></trkpt><trkpt lat="45.06205" lon="10.189815"><ele>29.0</ele><time>2026-04-11T11:47:13.933Z</time></trkpt><trkpt lat="45.0620867" lon="10.1895967"><ele>29.333333333333332</ele><time>2026-04-11T11:47:14.934Z</time></trkpt><trkpt lat="45.0621233" lon="10.1893817"><ele>29.666666666666664</ele><time>2026-04-11T11:47:15.934Z</time></trkpt><trkpt lat="45.0621617" lon="10.1891517"><ele>30.0</ele><time>2026-04-11T11:47:16.934Z</time></trkpt><trkpt lat="45.0621967" lon="10.1889167"><ele>29.333333333333336</ele><time>2026-04-11T11:47:17.934Z</time></trkpt><trkpt lat="45.0622333" lon="10.1886917"><ele>28.666666666666668</ele><time>2026-04-11T11:47:18.934Z</time></trkpt><trkpt lat="45.06227" lon="10.1884783"><ele>28.0</ele><time>2026-04-11T11:47:19.934Z</time></trkpt><trkpt lat="45.062305" lon="10.1882783"><ele>29.0</ele><time>2026-04-11T11:47:20.934Z</time></trkpt><trkpt lat="45.062335" lon="10.1880667"><ele>30.0</ele><time>2026-04-11T11:47:21.934Z</time></trkpt><trkpt lat="45.062365" lon="10.1878583"><ele>31.0</ele><time>2026-04-11T11:47:22.934Z</time></trkpt><trkpt lat="45.062395" lon="10.18764"><ele>31.0</ele><time>2026-04-11T11:47:23.934Z</time></trkpt><trkpt lat="45.0624217" lon="10.18743"><ele>31.0</ele><time>2026-04-11T11:47:24.934Z</time></trkpt><trkpt lat="45.062455" lon="10.1872233"><ele>31.0</ele><time>2026-04-11T11:47:25.934Z</time></trkpt><trkpt lat="45.06249" lon="10.1870117"><ele>30.666666666666668</ele><time>2026-04-11T11:47:26.934Z</time></trkpt><trkpt lat="45.0625217" lon="10.18679"><ele>30.333333333333336</ele><time>2026-04-11T11:47:27.934Z</time></trkpt><trkpt lat="45.0625533" lon="10.1865667"><ele>30.0</ele><time>2026-04-11T11:47:28.934Z</time></trkpt><trkpt lat="45.0625933" lon="10.1863383"><ele>30.666666666666664</ele><time>2026-04-11T11:47:29.934Z</time></trkpt><trkpt lat="45.06263" lon="10.1860983"><ele>31.333333333333332</ele><time>2026-04-11T11:47:30.934Z</time></trkpt><trkpt lat="45.0626667" lon="10.18586"><ele>32.0</ele><time>2026-04-11T11:47:31.934Z</time></trkpt><trkpt lat="45.06271" lon="10.1856417"><ele>32.25</ele><time>2026-04-11T11:47:32.934Z</time></trkpt><trkpt lat="45.062745" lon="10.185425"><ele>32.5</ele><time>2026-04-11T11:47:33.934Z</time></trkpt><trkpt lat="45.0627783" lon="10.18522"><ele>32.75</ele><time>2026-04-11T11:47:34.934Z</time></trkpt><trkpt lat="45.0628033" lon="10.1850233"><ele>33.0</ele><time>2026-04-11T11:47:35.934Z</time></trkpt><trkpt lat="45.0628317" lon="10.184855"><ele>32.5</ele><time>2026-04-11T11:47:36.934Z</time></trkpt><trkpt lat="45.0628583" lon="10.1846867"><ele>32.0</ele><time>2026-04-11T11:47:37.934Z</time></trkpt><trkpt lat="45.06289" lon="10.1845283"><ele>31.5</ele><time>2026-04-11T11:47:38.934Z</time></trkpt><trkpt lat="45.0629133" lon="10.1843483"><ele>31.0</ele><time>2026-04-11T11:47:39.934Z</time></trkpt><trkpt lat="45.0629433" lon="10.1841667"><ele>31.0</ele><time>2026-04-11T11:47:40.934Z</time></trkpt><trkpt lat="45.06298" lon="10.1839833"><ele>31.0</ele><time>2026-04-11T11:47:41.934Z</time></trkpt><trkpt lat="45.0630217" lon="10.1837933"><ele>31.0</ele><time>2026-04-11T11:47:42.934Z</time></trkpt><trkpt lat="45.0630683" lon="10.1835917"><ele>31.0</ele><time>2026-04-11T11:47:43.934Z</time></trkpt><trkpt lat="45.0631367" lon="10.1833933"><ele>31.0</ele><time>2026-04-11T11:47:44.934Z</time></trkpt><trkpt lat="45.063215" lon="10.1831883"><ele>31.0</ele><time>2026-04-11T11:47:45.934Z</time></trkpt><trkpt lat="45.0633" lon="10.182985"><ele>31.0</ele><time>2026-04-11T11:47:46.934Z</time></trkpt><trkpt lat="45.0633867" lon="10.182775"><ele>31.333333333333336</ele><time>2026-04-11T11:47:47.934Z</time></trkpt><trkpt lat="45.06347" lon="10.1825683"><ele>31.666666666666664</ele><time>2026-04-11T11:47:48.934Z</time></trkpt><trkpt lat="45.063555" lon="10.1823617"><ele>32.0</ele><time>2026-04-11T11:47:49.934Z</time></trkpt><trkpt lat="45.06364" lon="10.1821583"><ele>32.0</ele><time>2026-04-11T11:47:50.934Z</time></trkpt><trkpt lat="45.06372" lon="10.1819717"><ele>32.0</ele><time>2026-04-11T11:47:51.933Z</time></trkpt><trkpt lat="45.063795" lon="10.18179"><ele>32.0</ele><time>2026-04-11T11:47:52.934Z</time></trkpt><trkpt lat="45.063875" lon="10.181625"><ele>32.0</ele><time>2026-04-11T11:47:53.934Z</time></trkpt><trkpt lat="45.063945" lon="10.1814717"><ele>32.0</ele><time>2026-04-11T11:47:54.934Z</time></trkpt><trkpt lat="45.0640017" lon="10.1813233"><ele>32.0</ele><time>2026-04-11T11:47:55.934Z</time></trkpt><trkpt lat="45.0640583" lon="10.1811883"><ele>32.0</ele><time>2026-04-11T11:47:56.933Z</time></trkpt><trkpt lat="45.06412" lon="10.181065"><ele>32.0</ele><time>2026-04-11T11:47:57.934Z</time></trkpt><trkpt lat="45.0641783" lon="10.1809383"><ele>32.0</ele><time>2026-04-11T11:47:58.934Z</time></trkpt><trkpt lat="45.064245" lon="10.180815"><ele>32.2</ele><time>2026-04-11T11:47:59.934Z</time></trkpt><trkpt lat="45.0643067" lon="10.180685"><ele>32.400000000000006</ele><time>2026-04-11T11:48:00.934Z</time></trkpt><trkpt lat="45.0643633" lon="10.180565"><ele>32.599999999999994</ele><time>2026-04-11T11:48:01.934Z</time></trkpt><trkpt lat="45.064435" lon="10.180465"><ele>32.8</ele><time>2026-04-11T11:48:02.934Z</time></trkpt><trkpt lat="45.0645167" lon="10.1803767"><ele>33.0</ele><time>2026-04-11T11:48:03.934Z</time></trkpt><trkpt lat="45.0646133" lon="10.1803017"><ele>33.0</ele><time>2026-04-11T11:48:04.934Z</time></trkpt><trkpt lat="45.064705" lon="10.1802183"><ele>33.0</ele><time>2026-04-11T11:48:05.934Z</time></trkpt><trkpt lat="45.0647983" lon="10.1801217"><ele>33.0</ele><time>2026-04-11T11:48:06.934Z</time></trkpt><trkpt lat="45.0648983" lon="10.1800117"><ele>33.0</ele><time>2026-04-11T11:48:07.934Z</time></trkpt><trkpt lat="45.065" lon="10.1799067"><ele>33.6</ele><time>2026-04-11T11:48:08.934Z</time></trkpt><trkpt lat="45.06509" lon="10.179795"><ele>34.199999999999996</ele><time>2026-04-11T11:48:09.934Z</time></trkpt><trkpt lat="45.065175" lon="10.17969"><ele>34.8</ele><time>2026-04-11T11:48:10.934Z</time></trkpt><trkpt lat="45.06525" lon="10.1796033"><ele>35.4</ele><time>2026-04-11T11:48:11.934Z</time></trkpt><trkpt lat="45.0653217" lon="10.17953"><ele>36.0</ele><time>2026-04-11T11:48:12.934Z</time></trkpt><trkpt lat="45.0653833" lon="10.17946"><ele>36.0</ele><time>2026-04-11T11:48:13.934Z</time></trkpt><trkpt lat="45.065435" lon="10.179395"><ele>36.0</ele><time>2026-04-11T11:48:14.934Z</time></trkpt><trkpt lat="45.0654883" lon="10.179335"><ele>36.0</ele><time>2026-04-11T11:48:15.934Z</time></trkpt><trkpt lat="45.0655467" lon="10.17928"><ele>36.0</ele><time>2026-04-11T11:48:16.933Z</time></trkpt><trkpt lat="45.0655967" lon="10.1792183"><ele>36.0</ele><time>2026-04-11T11:48:17.934Z</time></trkpt><trkpt lat="45.0656483" lon="10.1791617"><ele>36.0</ele><time>2026-04-11T11:48:18.934Z</time></trkpt><trkpt lat="45.06574" lon="10.1790617"><ele>35.4</ele><time>2026-04-11T11:48:20.933Z</time></trkpt><trkpt lat="45.0658183" lon="10.178925"><ele>34.8</ele><time>2026-04-11T11:48:22.934Z</time></trkpt><trkpt lat="45.0658717" lon="10.1788217"><ele>34.199999999999996</ele><time>2026-04-11T11:48:23.934Z</time></trkpt><trkpt lat="45.065925" lon="10.1786917"><ele>33.6</ele><time>2026-04-11T11:48:24.934Z</time></trkpt><trkpt lat="45.0659933" lon="10.178545"><ele>33.0</ele><time>2026-04-11T11:48:25.934Z</time></trkpt><trkpt lat="45.06606" lon="10.1783833"><ele>33.0</ele><time>2026-04-11T11:48:26.934Z</time></trkpt><trkpt lat="45.066125" lon="10.17822"><ele>33.0</ele><time>2026-04-11T11:48:27.934Z</time></trkpt><trkpt lat="45.0661917" lon="10.1780433"><ele>33.0</ele><time>2026-04-11T11:48:28.934Z</time></trkpt><trkpt lat="45.0662583" lon="10.17786"><ele>33.0</ele><time>2026-04-11T11:48:29.934Z</time></trkpt><trkpt lat="45.0663267" lon="10.1776767"><ele>33.0</ele><time>2026-04-11T11:48:30.933Z</time></trkpt><trkpt lat="45.0663867" lon="10.1774783"><ele>33.0</ele><time>2026-04-11T11:48:31.934Z</time></trkpt><trkpt lat="45.0664467" lon="10.1773017"><ele>33.0</ele><time>2026-04-11T11:48:32.934Z</time></trkpt><trkpt lat="45.0665117" lon="10.17713"><ele>33.0</ele><time>2026-04-11T11:48:33.934Z</time></trkpt><trkpt lat="45.0665817" lon="10.17696"><ele>33.0</ele><time>2026-04-11T11:48:34.934Z</time></trkpt><trkpt lat="45.066645" lon="10.1767883"><ele>33.0</ele><time>2026-04-11T11:48:35.933Z</time></trkpt><trkpt lat="45.0667117" lon="10.1766017"><ele>33.0</ele><time>2026-04-11T11:48:36.934Z</time></trkpt><trkpt lat="45.066785" lon="10.1764117"><ele>33.0</ele><time>2026-04-11T11:48:37.933Z</time></trkpt><trkpt lat="45.0668567" lon="10.1762283"><ele>33.0</ele><time>2026-04-11T11:48:38.934Z</time></trkpt><trkpt lat="45.066925" lon="10.1760433"><ele>33.0</ele><time>2026-04-11T11:48:39.934Z</time></trkpt><trkpt lat="45.066985" lon="10.1758717"><ele>33.0</ele><time>2026-04-11T11:48:40.934Z</time></trkpt><trkpt lat="45.067045" lon="10.1757133"><ele>33.0</ele><time>2026-04-11T11:48:41.934Z</time></trkpt><trkpt lat="45.0671067" lon="10.17555"><ele>33.0</ele><time>2026-04-11T11:48:42.933Z</time></trkpt><trkpt lat="45.067175" lon="10.1753767"><ele>33.0</ele><time>2026-04-11T11:48:43.934Z</time></trkpt><trkpt lat="45.0672467" lon="10.1752067"><ele>33.0</ele><time>2026-04-11T11:48:44.934Z</time></trkpt><trkpt lat="45.0673117" lon="10.1750283"><ele>33.0</ele><time>2026-04-11T11:48:45.933Z</time></trkpt><trkpt lat="45.06737" lon="10.1748583"><ele>33.0</ele><time>2026-04-11T11:48:46.934Z</time></trkpt><trkpt lat="45.0674183" lon="10.17471"><ele>33.0</ele><time>2026-04-11T11:48:47.934Z</time></trkpt><trkpt lat="45.0674667" lon="10.1745733"><ele>33.0</ele><time>2026-04-11T11:48:48.934Z</time></trkpt><trkpt lat="45.0675183" lon="10.1744333"><ele>33.0</ele><time>2026-04-11T11:48:49.934Z</time></trkpt><trkpt lat="45.0675767" lon="10.174295"><ele>33.0</ele><time>2026-04-11T11:48:50.934Z</time></trkpt><trkpt lat="45.067635" lon="10.1741533"><ele>33.0</ele><time>2026-04-11T11:48:51.934Z</time></trkpt><trkpt lat="45.0676867" lon="10.17401"><ele>33.0</ele><time>2026-04-11T11:48:52.934Z</time></trkpt><trkpt lat="45.0677467" lon="10.1738667"><ele>33.0</ele><time>2026-04-11T11:48:53.934Z</time></trkpt><trkpt lat="45.0677967" lon="10.1737183"><ele>33.0</ele><time>2026-04-11T11:48:54.934Z</time></trkpt><trkpt lat="45.067845" lon="10.1735667"><ele>33.0</ele><time>2026-04-11T11:48:55.934Z</time></trkpt><trkpt lat="45.0678817" lon="10.1733983"><ele>33.0</ele><time>2026-04-11T11:48:56.934Z</time></trkpt><trkpt lat="45.067905" lon="10.1732233"><ele>33.0</ele><time>2026-04-11T11:48:57.934Z</time></trkpt><trkpt lat="45.0679133" lon="10.1730383"><ele>33.0</ele><time>2026-04-11T11:48:58.934Z</time></trkpt><trkpt lat="45.0679117" lon="10.1728633"><ele>33.25</ele><time>2026-04-11T11:48:59.933Z</time></trkpt><trkpt lat="45.0679033" lon="10.1727017"><ele>33.5</ele><time>2026-04-11T11:49:00.934Z</time></trkpt><trkpt lat="45.0679317" lon="10.17254"><ele>33.75</ele><time>2026-04-11T11:49:01.934Z</time></trkpt><trkpt lat="45.067995" lon="10.1723883"><ele>34.0</ele><time>2026-04-11T11:49:02.934Z</time></trkpt><trkpt lat="45.068085" lon="10.1722667"><ele>34.0</ele><time>2026-04-11T11:49:03.934Z</time></trkpt><trkpt lat="45.0682017" lon="10.17215"><ele>34.0</ele><time>2026-04-11T11:49:04.934Z</time></trkpt><trkpt lat="45.06833" lon="10.1720317"><ele>34.0</ele><time>2026-04-11T11:49:05.934Z</time></trkpt><trkpt lat="45.0684617" lon="10.1719067"><ele>34.66666666666667</ele><time>2026-04-11T11:49:06.934Z</time></trkpt><trkpt lat="45.06859" lon="10.1717783"><ele>35.333333333333336</ele><time>2026-04-11T11:49:07.933Z</time></trkpt><trkpt lat="45.06872" lon="10.1716533"><ele>36.0</ele><time>2026-04-11T11:49:08.934Z</time></trkpt><trkpt lat="45.0688533" lon="10.1715317"><ele>36.333333333333336</ele><time>2026-04-11T11:49:09.934Z</time></trkpt><trkpt lat="45.0689917" lon="10.17141"><ele>36.66666666666667</ele><time>2026-04-11T11:49:10.934Z</time></trkpt><trkpt lat="45.0691233" lon="10.171275"><ele>37.0</ele><time>2026-04-11T11:49:11.934Z</time></trkpt><trkpt lat="45.069255" lon="10.1711117"><ele>35.66666666666667</ele><time>2026-04-11T11:49:12.933Z</time></trkpt><trkpt lat="45.0693883" lon="10.1709483"><ele>34.333333333333336</ele><time>2026-04-11T11:49:13.934Z</time></trkpt><trkpt lat="45.0695217" lon="10.1707783"><ele>33.0</ele><time>2026-04-11T11:49:14.934Z</time></trkpt><trkpt lat="45.0696583" lon="10.1706067"><ele>32.333333333333336</ele><time>2026-04-11T11:49:15.934Z</time></trkpt><trkpt lat="45.069795" lon="10.1704333"><ele>31.666666666666668</ele><time>2026-04-11T11:49:16.934Z</time></trkpt><trkpt lat="45.0699317" lon="10.17026"><ele>31.0</ele><time>2026-04-11T11:49:17.934Z</time></trkpt><trkpt lat="45.07007" lon="10.1700983"><ele>31.0</ele><time>2026-04-11T11:49:18.934Z</time></trkpt><trkpt lat="45.0702117" lon="10.16994"><ele>31.0</ele><time>2026-04-11T11:49:19.934Z</time></trkpt><trkpt lat="45.070355" lon="10.1697883"><ele>31.0</ele><time>2026-04-11T11:49:20.934Z</time></trkpt><trkpt lat="45.0704983" lon="10.1696483"><ele>31.0</ele><time>2026-04-11T11:49:21.934Z</time></trkpt><trkpt lat="45.070635" lon="10.1695033"><ele>31.0</ele><time>2026-04-11T11:49:22.934Z</time></trkpt><trkpt lat="45.0707733" lon="10.1693567"><ele>31.0</ele><time>2026-04-11T11:49:23.934Z</time></trkpt><trkpt lat="45.0709033" lon="10.1692233"><ele>30.666666666666668</ele><time>2026-04-11T11:49:24.934Z</time></trkpt><trkpt lat="45.0710283" lon="10.169085"><ele>30.333333333333336</ele><time>2026-04-11T11:49:25.934Z</time></trkpt><trkpt lat="45.07115" lon="10.1689583"><ele>30.0</ele><time>2026-04-11T11:49:26.933Z</time></trkpt><trkpt lat="45.0712667" lon="10.1688333"><ele>30.0</ele><time>2026-04-11T11:49:27.934Z</time></trkpt><trkpt lat="45.071385" lon="10.168705"><ele>30.0</ele><time>2026-04-11T11:49:28.934Z</time></trkpt><trkpt lat="45.0715117" lon="10.1685683"><ele>30.0</ele><time>2026-04-11T11:49:29.934Z</time></trkpt><trkpt lat="45.07163" lon="10.16843"><ele>30.0</ele><time>2026-04-11T11:49:30.934Z</time></trkpt><trkpt lat="45.07174" lon="10.1683083"><ele>30.0</ele><time>2026-04-11T11:49:31.934Z</time></trkpt><trkpt lat="45.07185" lon="10.1681933"><ele>30.0</ele><time>2026-04-11T11:49:32.933Z</time></trkpt><trkpt lat="45.0719567" lon="10.1680767"><ele>30.0</ele><time>2026-04-11T11:49:33.934Z</time></trkpt><trkpt lat="45.07207" lon="10.16796"><ele>30.0</ele><time>2026-04-11T11:49:34.934Z</time></trkpt><trkpt lat="45.072185" lon="10.16783"><ele>30.0</ele><time>2026-04-11T11:49:35.934Z</time></trkpt><trkpt lat="45.0723033" lon="10.1677"><ele>30.0</ele><time>2026-04-11T11:49:36.934Z</time></trkpt><trkpt lat="45.0724183" lon="10.1675567"><ele>30.0</ele><time>2026-04-11T11:49:37.934Z</time></trkpt><trkpt lat="45.072525" lon="10.167395"><ele>30.0</ele><time>2026-04-11T11:49:38.934Z</time></trkpt><trkpt lat="45.0726283" lon="10.1672267"><ele>30.0</ele><time>2026-04-11T11:49:39.934Z</time></trkpt><trkpt lat="45.0727233" lon="10.1670483"><ele>30.0</ele><time>2026-04-11T11:49:40.934Z</time></trkpt><trkpt lat="45.0728133" lon="10.1668667"><ele>30.0</ele><time>2026-04-11T11:49:41.934Z</time></trkpt><trkpt lat="45.0728933" lon="10.1666783"><ele>30.0</ele><time>2026-04-11T11:49:42.934Z</time></trkpt><trkpt lat="45.0729733" lon="10.16647"><ele>29.666666666666664</ele><time>2026-04-11T11:49:43.933Z</time></trkpt><trkpt lat="45.0730417" lon="10.1662583"><ele>29.333333333333332</ele><time>2026-04-11T11:49:44.934Z</time></trkpt><trkpt lat="45.0731" lon="10.1660417"><ele>29.0</ele><time>2026-04-11T11:49:45.934Z</time></trkpt><trkpt lat="45.073155" lon="10.16581"><ele>29.0</ele><time>2026-04-11T11:49:46.934Z</time></trkpt><trkpt lat="45.0731967" lon="10.1655683"><ele>29.0</ele><time>2026-04-11T11:49:47.934Z</time></trkpt><trkpt lat="45.07323" lon="10.1653267"><ele>29.0</ele><time>2026-04-11T11:49:48.934Z</time></trkpt><trkpt lat="45.073255" lon="10.1650817"><ele>29.0</ele><time>2026-04-11T11:49:49.934Z</time></trkpt><trkpt lat="45.0732733" lon="10.164835"><ele>29.0</ele><time>2026-04-11T11:49:50.934Z</time></trkpt><trkpt lat="45.0732917" lon="10.1645767"><ele>29.0</ele><time>2026-04-11T11:49:51.934Z</time></trkpt><trkpt lat="45.073315" lon="10.1643217"><ele>29.0</ele><time>2026-04-11T11:49:52.934Z</time></trkpt><trkpt lat="45.073335" lon="10.1640633"><ele>29.0</ele><time>2026-04-11T11:49:53.934Z</time></trkpt><trkpt lat="45.0733533" lon="10.1638033"><ele>29.0</ele><time>2026-04-11T11:49:54.934Z</time></trkpt><trkpt lat="45.0733783" lon="10.1635417"><ele>29.0</ele><time>2026-04-11T11:49:55.934Z</time></trkpt><trkpt lat="45.0733933" lon="10.1632783"><ele>29.0</ele><time>2026-04-11T11:49:56.933Z</time></trkpt><trkpt lat="45.0734183" lon="10.16301"><ele>29.0</ele><time>2026-04-11T11:49:57.934Z</time></trkpt><trkpt lat="45.073445" lon="10.1627317"><ele>29.0</ele><time>2026-04-11T11:49:58.934Z</time></trkpt><trkpt lat="45.073465" lon="10.1624517"><ele>29.0</ele><time>2026-04-11T11:49:59.934Z</time></trkpt><trkpt lat="45.07349" lon="10.162175"><ele>29.0</ele><time>2026-04-11T11:50:00.934Z</time></trkpt><trkpt lat="45.0735117" lon="10.1618983"><ele>29.333333333333332</ele><time>2026-04-11T11:50:01.934Z</time></trkpt><trkpt lat="45.073535" lon="10.1616217"><ele>29.666666666666664</ele><time>2026-04-11T11:50:02.934Z</time></trkpt><trkpt lat="45.0735567" lon="10.1613333"><ele>30.0</ele><time>2026-04-11T11:50:03.934Z</time></trkpt><trkpt lat="45.0735767" lon="10.1610433"><ele>30.666666666666664</ele><time>2026-04-11T11:50:04.933Z</time></trkpt><trkpt lat="45.0736017" lon="10.1607583"><ele>31.333333333333332</ele><time>2026-04-11T11:50:05.934Z</time></trkpt><trkpt lat="45.07363" lon="10.160465"><ele>32.0</ele><time>2026-04-11T11:50:06.934Z</time></trkpt><trkpt lat="45.073655" lon="10.1601717"><ele>32.0</ele><time>2026-04-11T11:50:07.934Z</time></trkpt><trkpt lat="45.07368" lon="10.1598783"><ele>32.0</ele><time>2026-04-11T11:50:08.934Z</time></trkpt><trkpt lat="45.073705" lon="10.1595817"><ele>32.0</ele><time>2026-04-11T11:50:09.934Z</time></trkpt><trkpt lat="45.07373" lon="10.15929"><ele>31.333333333333332</ele><time>2026-04-11T11:50:10.934Z</time></trkpt><trkpt lat="45.07375" lon="10.1589933"><ele>30.666666666666664</ele><time>2026-04-11T11:50:11.934Z</time></trkpt><trkpt lat="45.0737717" lon="10.1586933"><ele>30.0</ele><time>2026-04-11T11:50:12.934Z</time></trkpt><trkpt lat="45.0737933" lon="10.1583933"><ele>30.0</ele><time>2026-04-11T11:50:13.933Z</time></trkpt><trkpt lat="45.0738133" lon="10.15809"><ele>30.0</ele><time>2026-04-11T11:50:14.934Z</time></trkpt><trkpt lat="45.0738367" lon="10.15779"><ele>30.0</ele><time>2026-04-11T11:50:15.934Z</time></trkpt><trkpt lat="45.0738667" lon="10.1574783"><ele>30.0</ele><time>2026-04-11T11:50:16.934Z</time></trkpt><trkpt lat="45.0738917" lon="10.1571767"><ele>30.0</ele><time>2026-04-11T11:50:17.934Z</time></trkpt><trkpt lat="45.0739117" lon="10.1568717"><ele>30.0</ele><time>2026-04-11T11:50:18.933Z</time></trkpt><trkpt lat="45.0739367" lon="10.1565617"><ele>30.333333333333336</ele><time>2026-04-11T11:50:19.934Z</time></trkpt><trkpt lat="45.073965" lon="10.1562483"><ele>30.666666666666668</ele><time>2026-04-11T11:50:20.934Z</time></trkpt><trkpt lat="45.0739917" lon="10.1559333"><ele>31.0</ele><time>2026-04-11T11:50:21.934Z</time></trkpt><trkpt lat="45.07402" lon="10.1556067"><ele>33.0</ele><time>2026-04-11T11:50:22.934Z</time></trkpt><trkpt lat="45.07405" lon="10.1552833"><ele>35.0</ele><time>2026-04-11T11:50:23.934Z</time></trkpt><trkpt lat="45.074075" lon="10.15496"><ele>34.5</ele><time>2026-04-11T11:50:24.934Z</time></trkpt><trkpt lat="45.0741" lon="10.1546317"><ele>34.0</ele><time>2026-04-11T11:50:25.934Z</time></trkpt><trkpt lat="45.0741217" lon="10.1542967"><ele>32.0</ele><time>2026-04-11T11:50:26.934Z</time></trkpt><trkpt lat="45.07415" lon="10.153975"><ele>30.0</ele><time>2026-04-11T11:50:27.934Z</time></trkpt><trkpt lat="45.0741717" lon="10.153655"><ele>30.0</ele><time>2026-04-11T11:50:28.933Z</time></trkpt><trkpt lat="45.0742" lon="10.1533233"><ele>30.0</ele><time>2026-04-11T11:50:29.933Z</time></trkpt><trkpt lat="45.07423" lon="10.1529967"><ele>30.0</ele><time>2026-04-11T11:50:30.933Z</time></trkpt><trkpt lat="45.0742517" lon="10.1526783"><ele>30.0</ele><time>2026-04-11T11:50:31.933Z</time></trkpt><trkpt lat="45.07428" lon="10.15236"><ele>29.0</ele><time>2026-04-11T11:50:32.933Z</time></trkpt><trkpt lat="45.0743083" lon="10.1520417"><ele>28.0</ele><time>2026-04-11T11:50:33.933Z</time></trkpt><trkpt lat="45.0743367" lon="10.151725"><ele>28.666666666666668</ele><time>2026-04-11T11:50:34.933Z</time></trkpt><trkpt lat="45.0743617" lon="10.151415"><ele>29.333333333333336</ele><time>2026-04-11T11:50:35.933Z</time></trkpt><trkpt lat="45.0743883" lon="10.1510967"><ele>30.0</ele><time>2026-04-11T11:50:36.932Z</time></trkpt><trkpt lat="45.0744117" lon="10.1507817"><ele>30.666666666666664</ele><time>2026-04-11T11:50:37.933Z</time></trkpt><trkpt lat="45.07444" lon="10.1504667"><ele>31.333333333333332</ele><time>2026-04-11T11:50:38.933Z</time></trkpt><trkpt lat="45.0744683" lon="10.150155"><ele>32.0</ele><time>2026-04-11T11:50:39.933Z</time></trkpt><trkpt lat="45.074495" lon="10.14983"><ele>32.0</ele><time>2026-04-11T11:50:40.933Z</time></trkpt><trkpt lat="45.0745233" lon="10.14952"><ele>32.0</ele><time>2026-04-11T11:50:41.933Z</time></trkpt><trkpt lat="45.0745483" lon="10.1492217"><ele>32.0</ele><time>2026-04-11T11:50:42.933Z</time></trkpt><trkpt lat="45.0745767" lon="10.1489133"><ele>32.0</ele><time>2026-04-11T11:50:43.933Z</time></trkpt><trkpt lat="45.0746" lon="10.1486017"><ele>32.0</ele><time>2026-04-11T11:50:44.933Z</time></trkpt><trkpt lat="45.0746217" lon="10.1482983"><ele>32.0</ele><time>2026-04-11T11:50:45.933Z</time></trkpt><trkpt lat="45.074645" lon="10.1480017"><ele>32.0</ele><time>2026-04-11T11:50:46.933Z</time></trkpt><trkpt lat="45.0746667" lon="10.1476983"><ele>32.0</ele><time>2026-04-11T11:50:47.933Z</time></trkpt><trkpt lat="45.0746933" lon="10.1473883"><ele>32.0</ele><time>2026-04-11T11:50:48.933Z</time></trkpt><trkpt lat="45.0747233" lon="10.1470883"><ele>32.33333333333333</ele><time>2026-04-11T11:50:49.933Z</time></trkpt><trkpt lat="45.074745" lon="10.14679"><ele>32.666666666666664</ele><time>2026-04-11T11:50:50.933Z</time></trkpt><trkpt lat="45.0747667" lon="10.1464833"><ele>33.0</ele><time>2026-04-11T11:50:51.933Z</time></trkpt><trkpt lat="45.0747867" lon="10.1461817"><ele>33.0</ele><time>2026-04-11T11:50:52.933Z</time></trkpt><trkpt lat="45.074815" lon="10.1458833"><ele>33.0</ele><time>2026-04-11T11:50:53.932Z</time></trkpt><trkpt lat="45.0748367" lon="10.1455833"><ele>33.0</ele><time>2026-04-11T11:50:54.933Z</time></trkpt><trkpt lat="45.0748617" lon="10.1452717"><ele>32.333333333333336</ele><time>2026-04-11T11:50:55.933Z</time></trkpt><trkpt lat="45.0748883" lon="10.14496"><ele>31.666666666666668</ele><time>2026-04-11T11:50:56.933Z</time></trkpt><trkpt lat="45.074915" lon="10.1446517"><ele>31.0</ele><time>2026-04-11T11:50:57.933Z</time></trkpt><trkpt lat="45.0749417" lon="10.1443433"><ele>31.0</ele><time>2026-04-11T11:50:58.933Z</time></trkpt><trkpt lat="45.074965" lon="10.14402"><ele>31.0</ele><time>2026-04-11T11:50:59.933Z</time></trkpt><trkpt lat="45.0749917" lon="10.143705"><ele>31.0</ele><time>2026-04-11T11:51:00.933Z</time></trkpt><trkpt lat="45.075015" lon="10.1433817"><ele>31.0</ele><time>2026-04-11T11:51:01.933Z</time></trkpt><trkpt lat="45.0750433" lon="10.14306"><ele>31.0</ele><time>2026-04-11T11:51:02.933Z</time></trkpt><trkpt lat="45.0750717" lon="10.1427383"><ele>31.0</ele><time>2026-04-11T11:51:03.933Z</time></trkpt><trkpt lat="45.0751" lon="10.14241"><ele>31.0</ele><time>2026-04-11T11:51:04.933Z</time></trkpt><trkpt lat="45.075125" lon="10.1420883"><ele>31.0</ele><time>2026-04-11T11:51:05.933Z</time></trkpt><trkpt lat="45.07515" lon="10.1417767"><ele>31.333333333333336</ele><time>2026-04-11T11:51:06.932Z</time></trkpt><trkpt lat="45.0751733" lon="10.1414867"><ele>31.666666666666664</ele><time>2026-04-11T11:51:07.933Z</time></trkpt><trkpt lat="45.0751983" lon="10.1412083"><ele>32.0</ele><time>2026-04-11T11:51:08.933Z</time></trkpt><trkpt lat="45.0752183" lon="10.1409433"><ele>32.0</ele><time>2026-04-11T11:51:09.933Z</time></trkpt><trkpt lat="45.0752367" lon="10.1406933"><ele>32.0</ele><time>2026-04-11T11:51:10.933Z</time></trkpt><trkpt lat="45.0752567" lon="10.1404583"><ele>32.0</ele><time>2026-04-11T11:51:11.933Z</time></trkpt><trkpt lat="45.0752767" lon="10.1402317"><ele>32.0</ele><time>2026-04-11T11:51:12.933Z</time></trkpt><trkpt lat="45.075295" lon="10.1400117"><ele>32.0</ele><time>2026-04-11T11:51:13.933Z</time></trkpt><trkpt lat="45.0753117" lon="10.1397883"><ele>32.0</ele><time>2026-04-11T11:51:14.933Z</time></trkpt><trkpt lat="45.075335" lon="10.1395483"><ele>31.666666666666664</ele><time>2026-04-11T11:51:15.932Z</time></trkpt><trkpt lat="45.07536" lon="10.1392983"><ele>31.333333333333336</ele><time>2026-04-11T11:51:16.933Z</time></trkpt><trkpt lat="45.075395" lon="10.1390417"><ele>31.0</ele><time>2026-04-11T11:51:17.933Z</time></trkpt><trkpt lat="45.0754333" lon="10.1387767"><ele>31.0</ele><time>2026-04-11T11:51:18.933Z</time></trkpt><trkpt lat="45.0754917" lon="10.1385117"><ele>31.0</ele><time>2026-04-11T11:51:19.933Z</time></trkpt><trkpt lat="45.0755733" lon="10.1382383"><ele>31.0</ele><time>2026-04-11T11:51:20.933Z</time></trkpt><trkpt lat="45.0756667" lon="10.1379667"><ele>31.0</ele><time>2026-04-11T11:51:21.933Z</time></trkpt><trkpt lat="45.0757683" lon="10.1376867"><ele>31.0</ele><time>2026-04-11T11:51:22.933Z</time></trkpt><trkpt lat="45.0758667" lon="10.1374133"><ele>31.0</ele><time>2026-04-11T11:51:23.933Z</time></trkpt><trkpt lat="45.0759717" lon="10.1371333"><ele>31.666666666666668</ele><time>2026-04-11T11:51:24.933Z</time></trkpt><trkpt lat="45.076075" lon="10.1368483"><ele>32.333333333333336</ele><time>2026-04-11T11:51:25.933Z</time></trkpt><trkpt lat="45.0761733" lon="10.136565"><ele>33.0</ele><time>2026-04-11T11:51:26.933Z</time></trkpt><trkpt lat="45.076275" lon="10.1362733"><ele>33.0</ele><time>2026-04-11T11:51:27.932Z</time></trkpt><trkpt lat="45.076385" lon="10.1359833"><ele>33.0</ele><time>2026-04-11T11:51:28.933Z</time></trkpt><trkpt lat="45.0764883" lon="10.1357"><ele>32.5</ele><time>2026-04-11T11:51:29.933Z</time></trkpt><trkpt lat="45.0765917" lon="10.135415"><ele>32.0</ele><time>2026-04-11T11:51:30.933Z</time></trkpt><trkpt lat="45.0766933" lon="10.1351233"><ele>31.5</ele><time>2026-04-11T11:51:31.933Z</time></trkpt><trkpt lat="45.0767917" lon="10.1348367"><ele>31.0</ele><time>2026-04-11T11:51:32.933Z</time></trkpt><trkpt lat="45.0768933" lon="10.13455"><ele>31.0</ele><time>2026-04-11T11:51:33.933Z</time></trkpt><trkpt lat="45.077" lon="10.134255"><ele>31.0</ele><time>2026-04-11T11:51:34.933Z</time></trkpt><trkpt lat="45.0771017" lon="10.1339733"><ele>31.0</ele><time>2026-04-11T11:51:35.933Z</time></trkpt><trkpt lat="45.07721" lon="10.1337"><ele>31.0</ele><time>2026-04-11T11:51:36.933Z</time></trkpt><trkpt lat="45.0773167" lon="10.1334183"><ele>31.0</ele><time>2026-04-11T11:51:37.933Z</time></trkpt><trkpt lat="45.0774233" lon="10.1331433"><ele>31.333333333333336</ele><time>2026-04-11T11:51:38.933Z</time></trkpt><trkpt lat="45.0775283" lon="10.1328717"><ele>31.666666666666664</ele><time>2026-04-11T11:51:39.933Z</time></trkpt><trkpt lat="45.0776317" lon="10.1326017"><ele>32.0</ele><time>2026-04-11T11:51:40.933Z</time></trkpt><trkpt lat="45.0777317" lon="10.1323383"><ele>32.0</ele><time>2026-04-11T11:51:41.933Z</time></trkpt><trkpt lat="45.0778317" lon="10.132085"><ele>32.0</ele><time>2026-04-11T11:51:42.933Z</time></trkpt><trkpt lat="45.0779267" lon="10.131835"><ele>32.0</ele><time>2026-04-11T11:51:43.932Z</time></trkpt><trkpt lat="45.0780217" lon="10.1315833"><ele>32.0</ele><time>2026-04-11T11:51:44.933Z</time></trkpt><trkpt lat="45.07812" lon="10.13134"><ele>32.0</ele><time>2026-04-11T11:51:45.932Z</time></trkpt><trkpt lat="45.0782167" lon="10.1310883"><ele>32.0</ele><time>2026-04-11T11:51:46.932Z</time></trkpt><trkpt lat="45.0783183" lon="10.13084"><ele>31.666666666666664</ele><time>2026-04-11T11:51:47.933Z</time></trkpt><trkpt lat="45.0784183" lon="10.1305967"><ele>31.333333333333336</ele><time>2026-04-11T11:51:48.933Z</time></trkpt><trkpt lat="45.0785283" lon="10.1303717"><ele>31.0</ele><time>2026-04-11T11:51:49.933Z</time></trkpt><trkpt lat="45.0786533" lon="10.1301567"><ele>31.0</ele><time>2026-04-11T11:51:50.933Z</time></trkpt><trkpt lat="45.0787883" lon="10.1299617"><ele>31.0</ele><time>2026-04-11T11:51:51.933Z</time></trkpt><trkpt lat="45.0789433" lon="10.12978"><ele>31.0</ele><time>2026-04-11T11:51:52.933Z</time></trkpt><trkpt lat="45.0791117" lon="10.1296183"><ele>31.333333333333336</ele><time>2026-04-11T11:51:53.933Z</time></trkpt><trkpt lat="45.0792833" lon="10.1294567"><ele>31.666666666666664</ele><time>2026-04-11T11:51:54.933Z</time></trkpt><trkpt lat="45.0794633" lon="10.12929"><ele>32.0</ele><time>2026-04-11T11:51:55.933Z</time></trkpt><trkpt lat="45.079645" lon="10.1291233"><ele>32.0</ele><time>2026-04-11T11:51:56.933Z</time></trkpt><trkpt lat="45.0798267" lon="10.1289583"><ele>32.0</ele><time>2026-04-11T11:51:57.933Z</time></trkpt><trkpt lat="45.080005" lon="10.1287917"><ele>32.0</ele><time>2026-04-11T11:51:58.933Z</time></trkpt><trkpt lat="45.0801883" lon="10.1286317"><ele>31.666666666666664</ele><time>2026-04-11T11:51:59.933Z</time></trkpt><trkpt lat="45.0803767" lon="10.1284633"><ele>31.333333333333336</ele><time>2026-04-11T11:52:00.933Z</time></trkpt><trkpt lat="45.0805617" lon="10.1283"><ele>31.0</ele><time>2026-04-11T11:52:01.933Z</time></trkpt><trkpt lat="45.0807517" lon="10.128135"><ele>30.0</ele><time>2026-04-11T11:52:02.932Z</time></trkpt><trkpt lat="45.0809433" lon="10.1279717"><ele>29.0</ele><time>2026-04-11T11:52:03.933Z</time></trkpt><trkpt lat="45.081135" lon="10.127805"><ele>28.0</ele><time>2026-04-11T11:52:04.933Z</time></trkpt><trkpt lat="45.08132" lon="10.1276433"><ele>28.0</ele><time>2026-04-11T11:52:05.933Z</time></trkpt><trkpt lat="45.0815117" lon="10.1274867"><ele>28.0</ele><time>2026-04-11T11:52:06.932Z</time></trkpt><trkpt lat="45.0817167" lon="10.1273433"><ele>29.5</ele><time>2026-04-11T11:52:07.933Z</time></trkpt><trkpt lat="45.0819217" lon="10.1272117"><ele>31.0</ele><time>2026-04-11T11:52:08.932Z</time></trkpt><trkpt lat="45.08213" lon="10.127085"><ele>31.0</ele><time>2026-04-11T11:52:09.933Z</time></trkpt><trkpt lat="45.082335" lon="10.126975"><ele>31.0</ele><time>2026-04-11T11:52:10.933Z</time></trkpt><trkpt lat="45.082545" lon="10.1268767"><ele>31.0</ele><time>2026-04-11T11:52:11.933Z</time></trkpt><trkpt lat="45.0827467" lon="10.1267867"><ele>31.333333333333336</ele><time>2026-04-11T11:52:12.933Z</time></trkpt><trkpt lat="45.08294" lon="10.1267133"><ele>31.666666666666664</ele><time>2026-04-11T11:52:13.933Z</time></trkpt><trkpt lat="45.0831267" lon="10.1266467"><ele>32.0</ele><time>2026-04-11T11:52:14.933Z</time></trkpt><trkpt lat="45.0833033" lon="10.1265933"><ele>32.0</ele><time>2026-04-11T11:52:15.933Z</time></trkpt><trkpt lat="45.0834667" lon="10.1265533"><ele>32.0</ele><time>2026-04-11T11:52:16.932Z</time></trkpt><trkpt lat="45.0836283" lon="10.1265167"><ele>32.0</ele><time>2026-04-11T11:52:17.933Z</time></trkpt><trkpt lat="45.0837917" lon="10.126485"><ele>32.0</ele><time>2026-04-11T11:52:18.932Z</time></trkpt><trkpt lat="45.0839667" lon="10.1264567"><ele>32.0</ele><time>2026-04-11T11:52:19.933Z</time></trkpt><trkpt lat="45.0841417" lon="10.1264317"><ele>32.0</ele><time>2026-04-11T11:52:20.933Z</time></trkpt><trkpt lat="45.0843217" lon="10.1264017"><ele>32.666666666666664</ele><time>2026-04-11T11:52:21.932Z</time></trkpt><trkpt lat="45.0844967" lon="10.1263733"><ele>33.333333333333336</ele><time>2026-04-11T11:52:22.933Z</time></trkpt><trkpt lat="45.08466" lon="10.1263483"><ele>34.0</ele><time>2026-04-11T11:52:23.933Z</time></trkpt><trkpt lat="45.08482" lon="10.1263283"><ele>34.0</ele><time>2026-04-11T11:52:24.933Z</time></trkpt><trkpt lat="45.08497" lon="10.1263033"><ele>34.0</ele><time>2026-04-11T11:52:25.932Z</time></trkpt><trkpt lat="45.08511" lon="10.1262867"><ele>34.0</ele><time>2026-04-11T11:52:26.933Z</time></trkpt><trkpt lat="45.0852417" lon="10.12627"><ele>34.0</ele><time>2026-04-11T11:52:27.933Z</time></trkpt><trkpt lat="45.0853767" lon="10.12626"><ele>34.0</ele><time>2026-04-11T11:52:28.933Z</time></trkpt><trkpt lat="45.085505" lon="10.126255"><ele>34.0</ele><time>2026-04-11T11:52:29.933Z</time></trkpt><trkpt lat="45.0856317" lon="10.1262467"><ele>34.0</ele><time>2026-04-11T11:52:30.933Z</time></trkpt><trkpt lat="45.0857533" lon="10.1262317"><ele>34.0</ele><time>2026-04-11T11:52:31.933Z</time></trkpt><trkpt lat="45.0858783" lon="10.1262167"><ele>33.75</ele><time>2026-04-11T11:52:32.932Z</time></trkpt><trkpt lat="45.0860067" lon="10.1262017"><ele>33.5</ele><time>2026-04-11T11:52:33.933Z</time></trkpt><trkpt lat="45.086155" lon="10.12619"><ele>33.25</ele><time>2026-04-11T11:52:34.933Z</time></trkpt><trkpt lat="45.0862967" lon="10.1261833"><ele>33.0</ele><time>2026-04-11T11:52:35.932Z</time></trkpt><trkpt lat="45.0864417" lon="10.12617"><ele>33.0</ele><time>2026-04-11T11:52:36.933Z</time></trkpt><trkpt lat="45.0865767" lon="10.1261567"><ele>33.0</ele><time>2026-04-11T11:52:37.933Z</time></trkpt><trkpt lat="45.0867267" lon="10.1261433"><ele>33.0</ele><time>2026-04-11T11:52:38.933Z</time></trkpt><trkpt lat="45.08688" lon="10.126135"><ele>33.0</ele><time>2026-04-11T11:52:39.933Z</time></trkpt><trkpt lat="45.087035" lon="10.1261267"><ele>33.0</ele><time>2026-04-11T11:52:40.933Z</time></trkpt><trkpt lat="45.0871783" lon="10.12611"><ele>33.0</ele><time>2026-04-11T11:52:41.933Z</time></trkpt><trkpt lat="45.0873133" lon="10.1260817"><ele>33.0</ele><time>2026-04-11T11:52:42.933Z</time></trkpt><trkpt lat="45.0874383" lon="10.1260333"><ele>33.0</ele><time>2026-04-11T11:52:43.933Z</time></trkpt><trkpt lat="45.0875517" lon="10.12597"><ele>33.199999999999996</ele><time>2026-04-11T11:52:44.932Z</time></trkpt><trkpt lat="45.08765" lon="10.1258967"><ele>33.4</ele><time>2026-04-11T11:52:45.933Z</time></trkpt><trkpt lat="45.0877467" lon="10.1258167"><ele>33.599999999999994</ele><time>2026-04-11T11:52:46.933Z</time></trkpt><trkpt lat="45.0878383" lon="10.125735"><ele>33.8</ele><time>2026-04-11T11:52:47.932Z</time></trkpt><trkpt lat="45.087935" lon="10.1256517"><ele>34.0</ele><time>2026-04-11T11:52:48.933Z</time></trkpt><trkpt lat="45.0880367" lon="10.1255583"><ele>34.25</ele><time>2026-04-11T11:52:49.933Z</time></trkpt><trkpt lat="45.0881317" lon="10.1254483"><ele>34.5</ele><time>2026-04-11T11:52:50.933Z</time></trkpt><trkpt lat="45.0882433" lon="10.12535"><ele>34.75</ele><time>2026-04-11T11:52:51.933Z</time></trkpt><trkpt lat="45.0883533" lon="10.1252333"><ele>35.0</ele><time>2026-04-11T11:52:52.933Z</time></trkpt><trkpt lat="45.08846" lon="10.1251183"><ele>35.0</ele><time>2026-04-11T11:52:53.933Z</time></trkpt><trkpt lat="45.0885583" lon="10.12501"><ele>35.0</ele><time>2026-04-11T11:52:54.933Z</time></trkpt><trkpt lat="45.0886467" lon="10.1249033"><ele>35.0</ele><time>2026-04-11T11:52:55.933Z</time></trkpt><trkpt lat="45.0887417" lon="10.1248167"><ele>35.0</ele><time>2026-04-11T11:52:56.933Z</time></trkpt><trkpt lat="45.0888267" lon="10.124735"><ele>34.666666666666664</ele><time>2026-04-11T11:52:57.933Z</time></trkpt><trkpt lat="45.0889033" lon="10.12466"><ele>34.33333333333333</ele><time>2026-04-11T11:52:58.933Z</time></trkpt><trkpt lat="45.0889783" lon="10.1245867"><ele>34.0</ele><time>2026-04-11T11:52:59.932Z</time></trkpt><trkpt lat="45.0890417" lon="10.1245267"><ele>33.666666666666664</ele><time>2026-04-11T11:53:00.933Z</time></trkpt><trkpt lat="45.0890967" lon="10.124475"><ele>33.333333333333336</ele><time>2026-04-11T11:53:01.933Z</time></trkpt><trkpt lat="45.0891633" lon="10.1243783"><ele>33.0</ele><time>2026-04-11T11:53:03.933Z</time></trkpt><trkpt lat="45.0892183" lon="10.1242733"><ele>33.4</ele><time>2026-04-11T11:53:05.932Z</time></trkpt><trkpt lat="45.0892883" lon="10.1241717"><ele>33.8</ele><time>2026-04-11T11:53:07.932Z</time></trkpt><trkpt lat="45.0893733" lon="10.1240183"><ele>34.2</ele><time>2026-04-11T11:53:09.933Z</time></trkpt><trkpt lat="45.089425" lon="10.12392"><ele>34.6</ele><time>2026-04-11T11:53:10.933Z</time></trkpt><trkpt lat="45.0894783" lon="10.1238183"><ele>35.0</ele><time>2026-04-11T11:53:11.933Z</time></trkpt><trkpt lat="45.0895283" lon="10.1237117"><ele>35.0</ele><time>2026-04-11T11:53:12.933Z</time></trkpt><trkpt lat="45.0895817" lon="10.1236033"><ele>35.0</ele><time>2026-04-11T11:53:13.933Z</time></trkpt><trkpt lat="45.0896383" lon="10.1235033"><ele>35.0</ele><time>2026-04-11T11:53:14.933Z</time></trkpt><trkpt lat="45.0897017" lon="10.1233867"><ele>35.0</ele><time>2026-04-11T11:53:15.933Z</time></trkpt><trkpt lat="45.0897683" lon="10.1232667"><ele>35.0</ele><time>2026-04-11T11:53:16.933Z</time></trkpt><trkpt lat="45.0898383" lon="10.1231333"><ele>34.75</ele><time>2026-04-11T11:53:17.933Z</time></trkpt><trkpt lat="45.0899117" lon="10.1229983"><ele>34.5</ele><time>2026-04-11T11:53:18.933Z</time></trkpt><trkpt lat="45.089975" lon="10.1228683"><ele>34.25</ele><time>2026-04-11T11:53:19.933Z</time></trkpt><trkpt lat="45.0900383" lon="10.1227383"><ele>34.0</ele><time>2026-04-11T11:53:20.933Z</time></trkpt><trkpt lat="45.0900983" lon="10.1226067"><ele>34.25</ele><time>2026-04-11T11:53:21.933Z</time></trkpt><trkpt lat="45.0901683" lon="10.122475"><ele>34.5</ele><time>2026-04-11T11:53:22.932Z</time></trkpt><trkpt lat="45.0902467" lon="10.1223283"><ele>34.75</ele><time>2026-04-11T11:53:23.933Z</time></trkpt><trkpt lat="45.09032" lon="10.1221917"><ele>35.0</ele><time>2026-04-11T11:53:24.932Z</time></trkpt><trkpt lat="45.0903933" lon="10.1220617"><ele>35.0</ele><time>2026-04-11T11:53:25.933Z</time></trkpt><trkpt lat="45.0904583" lon="10.1219433"><ele>35.0</ele><time>2026-04-11T11:53:26.933Z</time></trkpt><trkpt lat="45.0905133" lon="10.1218283"><ele>35.0</ele><time>2026-04-11T11:53:27.932Z</time></trkpt><trkpt lat="45.090565" lon="10.12172"><ele>35.0</ele><time>2026-04-11T11:53:28.933Z</time></trkpt><trkpt lat="45.0906183" lon="10.1216067"><ele>35.0</ele><time>2026-04-11T11:53:29.933Z</time></trkpt><trkpt lat="45.0906867" lon="10.121475"><ele>34.75</ele><time>2026-04-11T11:53:30.932Z</time></trkpt><trkpt lat="45.0907567" lon="10.1213417"><ele>34.5</ele><time>2026-04-11T11:53:31.933Z</time></trkpt><trkpt lat="45.0908367" lon="10.1211967"><ele>34.25</ele><time>2026-04-11T11:53:32.933Z</time></trkpt><trkpt lat="45.09092" lon="10.121045"><ele>34.0</ele><time>2026-04-11T11:53:33.933Z</time></trkpt><trkpt lat="45.090995" lon="10.120885"><ele>34.25</ele><time>2026-04-11T11:53:34.933Z</time></trkpt><trkpt lat="45.09107" lon="10.12074"><ele>34.5</ele><time>2026-04-11T11:53:35.933Z</time></trkpt><trkpt lat="45.091125" lon="10.120595"><ele>34.75</ele><time>2026-04-11T11:53:36.933Z</time></trkpt><trkpt lat="45.0911667" lon="10.1204467"><ele>35.0</ele><time>2026-04-11T11:53:37.933Z</time></trkpt><trkpt lat="45.0911933" lon="10.1202817"><ele>35.0</ele><time>2026-04-11T11:53:38.933Z</time></trkpt><trkpt lat="45.0912217" lon="10.120115"><ele>35.0</ele><time>2026-04-11T11:53:39.932Z</time></trkpt><trkpt lat="45.091245" lon="10.1199367"><ele>35.0</ele><time>2026-04-11T11:53:40.933Z</time></trkpt><trkpt lat="45.09127" lon="10.1197417"><ele>35.0</ele><time>2026-04-11T11:53:41.933Z</time></trkpt><trkpt lat="45.0912917" lon="10.119535"><ele>34.5</ele><time>2026-04-11T11:53:42.933Z</time></trkpt><trkpt lat="45.091315" lon="10.11934"><ele>34.0</ele><time>2026-04-11T11:53:43.933Z</time></trkpt><trkpt lat="45.0913333" lon="10.119135"><ele>33.5</ele><time>2026-04-11T11:53:44.933Z</time></trkpt><trkpt lat="45.0913183" lon="10.1189517"><ele>33.0</ele><time>2026-04-11T11:53:45.933Z</time></trkpt><trkpt lat="45.0912967" lon="10.1187667"><ele>33.0</ele><time>2026-04-11T11:53:46.933Z</time></trkpt><trkpt lat="45.0912633" lon="10.11858"><ele>33.0</ele><time>2026-04-11T11:53:47.932Z</time></trkpt><trkpt lat="45.091235" lon="10.118405"><ele>33.0</ele><time>2026-04-11T11:53:48.932Z</time></trkpt><trkpt lat="45.0912083" lon="10.1182483"><ele>33.0</ele><time>2026-04-11T11:53:49.932Z</time></trkpt><trkpt lat="45.0911833" lon="10.1181017"><ele>33.5</ele><time>2026-04-11T11:53:50.932Z</time></trkpt><trkpt lat="45.0911617" lon="10.117955"><ele>34.0</ele><time>2026-04-11T11:53:51.932Z</time></trkpt><trkpt lat="45.091145" lon="10.117795"><ele>34.5</ele><time>2026-04-11T11:53:52.932Z</time></trkpt><trkpt lat="45.0911217" lon="10.1176167"><ele>35.0</ele><time>2026-04-11T11:53:53.932Z</time></trkpt><trkpt lat="45.091095" lon="10.1174083"><ele>34.666666666666664</ele><time>2026-04-11T11:53:54.932Z</time></trkpt><trkpt lat="45.0910633" lon="10.11718"><ele>34.333333333333336</ele><time>2026-04-11T11:53:55.932Z</time></trkpt><trkpt lat="45.091045" lon="10.1169267"><ele>34.0</ele><time>2026-04-11T11:53:56.932Z</time></trkpt><trkpt lat="45.0910083" lon="10.116655"><ele>34.0</ele><time>2026-04-11T11:53:57.932Z</time></trkpt><trkpt lat="45.0909717" lon="10.1163617"><ele>34.0</ele><time>2026-04-11T11:53:58.932Z</time></trkpt><trkpt lat="45.0909367" lon="10.11607"><ele>34.0</ele><time>2026-04-11T11:53:59.932Z</time></trkpt><trkpt lat="45.0908983" lon="10.1157783"><ele>33.66666666666667</ele><time>2026-04-11T11:54:00.932Z</time></trkpt><trkpt lat="45.0908617" lon="10.1154817"><ele>33.333333333333336</ele><time>2026-04-11T11:54:01.932Z</time></trkpt><trkpt lat="45.090825" lon="10.1151783"><ele>33.0</ele><time>2026-04-11T11:54:02.932Z</time></trkpt><trkpt lat="45.0907883" lon="10.1148767"><ele>33.666666666666664</ele><time>2026-04-11T11:54:03.932Z</time></trkpt><trkpt lat="45.0907517" lon="10.1145733"><ele>34.33333333333333</ele><time>2026-04-11T11:54:04.932Z</time></trkpt><trkpt lat="45.090715" lon="10.114265"><ele>35.0</ele><time>2026-04-11T11:54:05.932Z</time></trkpt><trkpt lat="45.0906717" lon="10.1139517"><ele>35.0</ele><time>2026-04-11T11:54:06.932Z</time></trkpt><trkpt lat="45.0906317" lon="10.11364"><ele>35.0</ele><time>2026-04-11T11:54:07.932Z</time></trkpt><trkpt lat="45.0905917" lon="10.1133317"><ele>35.0</ele><time>2026-04-11T11:54:08.932Z</time></trkpt><trkpt lat="45.0905583" lon="10.1130183"><ele>33.666666666666664</ele><time>2026-04-11T11:54:09.932Z</time></trkpt><trkpt lat="45.0905183" lon="10.1127067"><ele>32.333333333333336</ele><time>2026-04-11T11:54:10.932Z</time></trkpt><trkpt lat="45.0904817" lon="10.112405"><ele>31.0</ele><time>2026-04-11T11:54:11.932Z</time></trkpt><trkpt lat="45.0904383" lon="10.1121267"><ele>31.0</ele><time>2026-04-11T11:54:12.932Z</time></trkpt><trkpt lat="45.0903833" lon="10.1118733"><ele>31.0</ele><time>2026-04-11T11:54:13.932Z</time></trkpt><trkpt lat="45.0903133" lon="10.1116333"><ele>31.0</ele><time>2026-04-11T11:54:14.932Z</time></trkpt><trkpt lat="45.0902333" lon="10.11139"><ele>30.666666666666668</ele><time>2026-04-11T11:54:15.932Z</time></trkpt><trkpt lat="45.090145" lon="10.1111433"><ele>30.333333333333336</ele><time>2026-04-11T11:54:16.932Z</time></trkpt><trkpt lat="45.0900633" lon="10.110905"><ele>30.0</ele><time>2026-04-11T11:54:17.932Z</time></trkpt><trkpt lat="45.0899833" lon="10.110675"><ele>31.333333333333336</ele><time>2026-04-11T11:54:18.932Z</time></trkpt><trkpt lat="45.0899233" lon="10.110455"><ele>32.66666666666667</ele><time>2026-04-11T11:54:19.932Z</time></trkpt><trkpt lat="45.0898833" lon="10.1102283"><ele>34.0</ele><time>2026-04-11T11:54:20.932Z</time></trkpt><trkpt lat="45.0898567" lon="10.1099917"><ele>34.333333333333336</ele><time>2026-04-11T11:54:21.932Z</time></trkpt><trkpt lat="45.0898333" lon="10.109735"><ele>34.666666666666664</ele><time>2026-04-11T11:54:22.932Z</time></trkpt><trkpt lat="45.0898283" lon="10.1094633"><ele>35.0</ele><time>2026-04-11T11:54:23.932Z</time></trkpt><trkpt lat="45.08982" lon="10.1091883"><ele>34.33333333333333</ele><time>2026-04-11T11:54:24.932Z</time></trkpt><trkpt lat="45.08982" lon="10.1089017"><ele>33.666666666666664</ele><time>2026-04-11T11:54:25.932Z</time></trkpt><trkpt lat="45.0898167" lon="10.108605"><ele>33.0</ele><time>2026-04-11T11:54:26.932Z</time></trkpt><trkpt lat="45.0898133" lon="10.1083083"><ele>33.333333333333336</ele><time>2026-04-11T11:54:27.932Z</time></trkpt><trkpt lat="45.0898117" lon="10.1079983"><ele>33.66666666666667</ele><time>2026-04-11T11:54:28.932Z</time></trkpt><trkpt lat="45.089815" lon="10.1076883"><ele>34.0</ele><time>2026-04-11T11:54:29.932Z</time></trkpt><trkpt lat="45.0898167" lon="10.1073783"><ele>34.0</ele><time>2026-04-11T11:54:30.932Z</time></trkpt><trkpt lat="45.0898233" lon="10.1070583"><ele>34.0</ele><time>2026-04-11T11:54:31.932Z</time></trkpt><trkpt lat="45.0898283" lon="10.1067583"><ele>34.0</ele><time>2026-04-11T11:54:32.932Z</time></trkpt><trkpt lat="45.0898483" lon="10.1064617"><ele>34.0</ele><time>2026-04-11T11:54:33.932Z</time></trkpt><trkpt lat="45.0898833" lon="10.10617"><ele>34.0</ele><time>2026-04-11T11:54:34.932Z</time></trkpt><trkpt lat="45.08993" lon="10.1058733"><ele>34.0</ele><time>2026-04-11T11:54:35.932Z</time></trkpt><trkpt lat="45.089985" lon="10.10558"><ele>34.333333333333336</ele><time>2026-04-11T11:54:36.932Z</time></trkpt><trkpt lat="45.09004" lon="10.105285"><ele>34.666666666666664</ele><time>2026-04-11T11:54:37.932Z</time></trkpt><trkpt lat="45.090095" lon="10.104995"><ele>35.0</ele><time>2026-04-11T11:54:38.932Z</time></trkpt><trkpt lat="45.0901533" lon="10.1046983"><ele>35.0</ele><time>2026-04-11T11:54:39.931Z</time></trkpt><trkpt lat="45.09021" lon="10.1044033"><ele>35.0</ele><time>2026-04-11T11:54:40.932Z</time></trkpt><trkpt lat="45.090265" lon="10.1041117"><ele>35.0</ele><time>2026-04-11T11:54:41.932Z</time></trkpt><trkpt lat="45.0903183" lon="10.10382"><ele>34.33333333333333</ele><time>2026-04-11T11:54:42.932Z</time></trkpt><trkpt lat="45.0903817" lon="10.103525"><ele>33.666666666666664</ele><time>2026-04-11T11:54:43.932Z</time></trkpt><trkpt lat="45.090455" lon="10.10323"><ele>33.0</ele><time>2026-04-11T11:54:44.932Z</time></trkpt><trkpt lat="45.0905367" lon="10.10294"><ele>33.0</ele><time>2026-04-11T11:54:45.932Z</time></trkpt><trkpt lat="45.0906233" lon="10.1026533"><ele>33.0</ele><time>2026-04-11T11:54:46.932Z</time></trkpt><trkpt lat="45.090715" lon="10.1023683"><ele>33.0</ele><time>2026-04-11T11:54:47.932Z</time></trkpt><trkpt lat="45.0908167" lon="10.102095"><ele>33.0</ele><time>2026-04-11T11:54:48.932Z</time></trkpt><trkpt lat="45.0909267" lon="10.10183"><ele>33.0</ele><time>2026-04-11T11:54:49.932Z</time></trkpt><trkpt lat="45.09104" lon="10.1015767"><ele>33.0</ele><time>2026-04-11T11:54:50.932Z</time></trkpt><trkpt lat="45.091155" lon="10.1013183"><ele>33.0</ele><time>2026-04-11T11:54:51.931Z</time></trkpt><trkpt lat="45.0912733" lon="10.1010583"><ele>33.0</ele><time>2026-04-11T11:54:52.932Z</time></trkpt><trkpt lat="45.0913917" lon="10.1007967"><ele>33.0</ele><time>2026-04-11T11:54:53.932Z</time></trkpt><trkpt lat="45.0915117" lon="10.1005233"><ele>32.5</ele><time>2026-04-11T11:54:54.932Z</time></trkpt><trkpt lat="45.0916283" lon="10.1002517"><ele>32.0</ele><time>2026-04-11T11:54:55.932Z</time></trkpt><trkpt lat="45.0917483" lon="10.0999683"><ele>32.0</ele><time>2026-04-11T11:54:56.931Z</time></trkpt><trkpt lat="45.0918633" lon="10.09968"><ele>32.0</ele><time>2026-04-11T11:54:57.932Z</time></trkpt><trkpt lat="45.0919767" lon="10.0993883"><ele>32.0</ele><time>2026-04-11T11:54:58.932Z</time></trkpt><trkpt lat="45.092095" lon="10.0990933"><ele>32.0</ele><time>2026-04-11T11:54:59.932Z</time></trkpt><trkpt lat="45.0922133" lon="10.0987933"><ele>33.5</ele><time>2026-04-11T11:55:00.932Z</time></trkpt><trkpt lat="45.0923317" lon="10.0984983"><ele>35.0</ele><time>2026-04-11T11:55:01.932Z</time></trkpt><trkpt lat="45.0924483" lon="10.0981983"><ele>35.0</ele><time>2026-04-11T11:55:02.932Z</time></trkpt><trkpt lat="45.0925583" lon="10.0979"><ele>35.0</ele><time>2026-04-11T11:55:03.932Z</time></trkpt><trkpt lat="45.092665" lon="10.0976017"><ele>35.5</ele><time>2026-04-11T11:55:04.932Z</time></trkpt><trkpt lat="45.0927717" lon="10.0973117"><ele>36.0</ele><time>2026-04-11T11:55:05.932Z</time></trkpt><trkpt lat="45.0928817" lon="10.0970283"><ele>36.0</ele><time>2026-04-11T11:55:06.932Z</time></trkpt><trkpt lat="45.09299" lon="10.0967533"><ele>36.0</ele><time>2026-04-11T11:55:07.932Z</time></trkpt><trkpt lat="45.0931" lon="10.0964767"><ele>36.0</ele><time>2026-04-11T11:55:08.932Z</time></trkpt><trkpt lat="45.0932067" lon="10.0962117"><ele>35.666666666666664</ele><time>2026-04-11T11:55:09.932Z</time></trkpt><trkpt lat="45.0933167" lon="10.0959417"><ele>35.33333333333333</ele><time>2026-04-11T11:55:10.932Z</time></trkpt><trkpt lat="45.093435" lon="10.0956867"><ele>35.0</ele><time>2026-04-11T11:55:11.932Z</time></trkpt><trkpt lat="45.0935483" lon="10.0954217"><ele>34.666666666666664</ele><time>2026-04-11T11:55:12.932Z</time></trkpt><trkpt lat="45.0936617" lon="10.09516"><ele>34.333333333333336</ele><time>2026-04-11T11:55:13.932Z</time></trkpt><trkpt lat="45.0937717" lon="10.0948967"><ele>34.0</ele><time>2026-04-11T11:55:14.932Z</time></trkpt><trkpt lat="45.0938883" lon="10.0946267"><ele>34.0</ele><time>2026-04-11T11:55:15.932Z</time></trkpt><trkpt lat="45.0940067" lon="10.09436"><ele>34.0</ele><time>2026-04-11T11:55:16.932Z</time></trkpt><trkpt lat="45.0941233" lon="10.0940917"><ele>34.0</ele><time>2026-04-11T11:55:17.932Z</time></trkpt><trkpt lat="45.094235" lon="10.0938283"><ele>34.66666666666667</ele><time>2026-04-11T11:55:18.932Z</time></trkpt><trkpt lat="45.09435" lon="10.0935567"><ele>35.333333333333336</ele><time>2026-04-11T11:55:19.932Z</time></trkpt><trkpt lat="45.0944617" lon="10.0933017"><ele>36.0</ele><time>2026-04-11T11:55:20.932Z</time></trkpt><trkpt lat="45.0945667" lon="10.0930583"><ele>36.0</ele><time>2026-04-11T11:55:21.932Z</time></trkpt><trkpt lat="45.0946683" lon="10.0928317"><ele>36.0</ele><time>2026-04-11T11:55:22.932Z</time></trkpt><trkpt lat="45.0947617" lon="10.0926233"><ele>36.0</ele><time>2026-04-11T11:55:23.932Z</time></trkpt><trkpt lat="45.0948617" lon="10.09243"><ele>36.0</ele><time>2026-04-11T11:55:24.932Z</time></trkpt><trkpt lat="45.09496" lon="10.0922517"><ele>36.0</ele><time>2026-04-11T11:55:25.932Z</time></trkpt><trkpt lat="45.0950617" lon="10.092075"><ele>36.0</ele><time>2026-04-11T11:55:26.932Z</time></trkpt><trkpt lat="45.09517" lon="10.0919083"><ele>36.0</ele><time>2026-04-11T11:55:27.932Z</time></trkpt><trkpt lat="45.09528" lon="10.091745"><ele>36.0</ele><time>2026-04-11T11:55:28.932Z</time></trkpt><trkpt lat="45.09541" lon="10.091615"><ele>36.0</ele><time>2026-04-11T11:55:29.932Z</time></trkpt><trkpt lat="45.0955467" lon="10.09149"><ele>36.0</ele><time>2026-04-11T11:55:30.932Z</time></trkpt><trkpt lat="45.0956833" lon="10.0913583"><ele>36.0</ele><time>2026-04-11T11:55:31.932Z</time></trkpt><trkpt lat="45.09583" lon="10.091225"><ele>36.0</ele><time>2026-04-11T11:55:32.931Z</time></trkpt><trkpt lat="45.0959817" lon="10.091085"><ele>36.0</ele><time>2026-04-11T11:55:33.932Z</time></trkpt><trkpt lat="45.0961433" lon="10.0909467"><ele>36.0</ele><time>2026-04-11T11:55:34.932Z</time></trkpt><trkpt lat="45.0963033" lon="10.090795"><ele>36.0</ele><time>2026-04-11T11:55:35.932Z</time></trkpt><trkpt lat="45.0964733" lon="10.090645"><ele>36.333333333333336</ele><time>2026-04-11T11:55:36.932Z</time></trkpt><trkpt lat="45.0966417" lon="10.0904833"><ele>36.66666666666667</ele><time>2026-04-11T11:55:37.932Z</time></trkpt><trkpt lat="45.096815" lon="10.0903217"><ele>37.0</ele><time>2026-04-11T11:55:38.932Z</time></trkpt><trkpt lat="45.0969867" lon="10.09015"><ele>37.0</ele><time>2026-04-11T11:55:39.932Z</time></trkpt><trkpt lat="45.097155" lon="10.08996"><ele>37.0</ele><time>2026-04-11T11:55:40.931Z</time></trkpt><trkpt lat="45.097315" lon="10.0897717"><ele>37.0</ele><time>2026-04-11T11:55:41.932Z</time></trkpt><trkpt lat="45.0974883" lon="10.089585"><ele>36.0</ele><time>2026-04-11T11:55:42.932Z</time></trkpt><trkpt lat="45.09766" lon="10.08939"><ele>35.0</ele><time>2026-04-11T11:55:43.932Z</time></trkpt><trkpt lat="45.09784" lon="10.0891883"><ele>35.5</ele><time>2026-04-11T11:55:44.932Z</time></trkpt><trkpt lat="45.0980167" lon="10.088985"><ele>36.0</ele><time>2026-04-11T11:55:45.932Z</time></trkpt><trkpt lat="45.0981967" lon="10.0887867"><ele>35.5</ele><time>2026-04-11T11:55:46.932Z</time></trkpt><trkpt lat="45.0983783" lon="10.0885817"><ele>35.0</ele><time>2026-04-11T11:55:47.932Z</time></trkpt><trkpt lat="45.0985633" lon="10.088385"><ele>35.5</ele><time>2026-04-11T11:55:48.932Z</time></trkpt><trkpt lat="45.0987517" lon="10.0881883"><ele>36.0</ele><time>2026-04-11T11:55:49.932Z</time></trkpt><trkpt lat="45.0989383" lon="10.0880067"><ele>36.5</ele><time>2026-04-11T11:55:50.932Z</time></trkpt><trkpt lat="45.0991433" lon="10.0878267"><ele>37.0</ele><time>2026-04-11T11:55:51.932Z</time></trkpt><trkpt lat="45.0993433" lon="10.0876433"><ele>37.0</ele><time>2026-04-11T11:55:52.932Z</time></trkpt><trkpt lat="45.0995467" lon="10.0874617"><ele>37.0</ele><time>2026-04-11T11:55:53.932Z</time></trkpt><trkpt lat="45.09974" lon="10.0872867"><ele>37.333333333333336</ele><time>2026-04-11T11:55:54.932Z</time></trkpt><trkpt lat="45.0999217" lon="10.0871183"><ele>37.666666666666664</ele><time>2026-04-11T11:55:55.932Z</time></trkpt><trkpt lat="45.100095" lon="10.0869517"><ele>38.0</ele><time>2026-04-11T11:55:56.932Z</time></trkpt><trkpt lat="45.1002633" lon="10.08677"><ele>37.666666666666664</ele><time>2026-04-11T11:55:57.932Z</time></trkpt><trkpt lat="45.1004267" lon="10.0865733"><ele>37.333333333333336</ele><time>2026-04-11T11:55:58.932Z</time></trkpt><trkpt lat="45.100585" lon="10.0863683"><ele>37.0</ele><time>2026-04-11T11:55:59.932Z</time></trkpt><trkpt lat="45.100745" lon="10.0861467"><ele>37.0</ele><time>2026-04-11T11:56:00.932Z</time></trkpt><trkpt lat="45.1009033" lon="10.0859283"><ele>37.0</ele><time>2026-04-11T11:56:01.932Z</time></trkpt><trkpt lat="45.1010617" lon="10.0857083"><ele>37.0</ele><time>2026-04-11T11:56:02.932Z</time></trkpt><trkpt lat="45.10123" lon="10.0854817"><ele>36.66666666666667</ele><time>2026-04-11T11:56:03.932Z</time></trkpt><trkpt lat="45.1013933" lon="10.0852583"><ele>36.333333333333336</ele><time>2026-04-11T11:56:04.931Z</time></trkpt><trkpt lat="45.1015483" lon="10.0850483"><ele>36.0</ele><time>2026-04-11T11:56:05.932Z</time></trkpt><trkpt lat="45.1016983" lon="10.0848483"><ele>36.0</ele><time>2026-04-11T11:56:06.932Z</time></trkpt><trkpt lat="45.1018383" lon="10.08464"><ele>36.0</ele><time>2026-04-11T11:56:07.932Z</time></trkpt><trkpt lat="45.1019617" lon="10.0844233"><ele>36.0</ele><time>2026-04-11T11:56:08.932Z</time></trkpt><trkpt lat="45.1020867" lon="10.0841917"><ele>36.333333333333336</ele><time>2026-04-11T11:56:09.932Z</time></trkpt><trkpt lat="45.10221" lon="10.083955"><ele>36.66666666666667</ele><time>2026-04-11T11:56:10.931Z</time></trkpt><trkpt lat="45.10233" lon="10.083715"><ele>37.0</ele><time>2026-04-11T11:56:11.932Z</time></trkpt><trkpt lat="45.102455" lon="10.08348"><ele>37.0</ele><time>2026-04-11T11:56:12.932Z</time></trkpt><trkpt lat="45.102585" lon="10.0832567"><ele>37.0</ele><time>2026-04-11T11:56:13.932Z</time></trkpt><trkpt lat="45.1027167" lon="10.0830367"><ele>37.0</ele><time>2026-04-11T11:56:14.932Z</time></trkpt><trkpt lat="45.1028433" lon="10.082825"><ele>37.0</ele><time>2026-04-11T11:56:15.932Z</time></trkpt><trkpt lat="45.10296" lon="10.0826317"><ele>37.0</ele><time>2026-04-11T11:56:16.932Z</time></trkpt><trkpt lat="45.103085" lon="10.0824483"><ele>37.0</ele><time>2026-04-11T11:56:17.931Z</time></trkpt><trkpt lat="45.1032067" lon="10.0822767"><ele>38.0</ele><time>2026-04-11T11:56:18.932Z</time></trkpt><trkpt lat="45.1033383" lon="10.0821333"><ele>39.0</ele><time>2026-04-11T11:56:19.931Z</time></trkpt><trkpt lat="45.1034833" lon="10.0820133"><ele>40.0</ele><time>2026-04-11T11:56:20.932Z</time></trkpt><trkpt lat="45.1036367" lon="10.0819"><ele>40.0</ele><time>2026-04-11T11:56:21.932Z</time></trkpt><trkpt lat="45.1037933" lon="10.0818083"><ele>40.0</ele><time>2026-04-11T11:56:22.932Z</time></trkpt><trkpt lat="45.1039533" lon="10.0817267"><ele>40.0</ele><time>2026-04-11T11:56:23.932Z</time></trkpt><trkpt lat="45.1041033" lon="10.0816533"><ele>40.333333333333336</ele><time>2026-04-11T11:56:24.932Z</time></trkpt><trkpt lat="45.1042383" lon="10.08156"><ele>40.666666666666664</ele><time>2026-04-11T11:56:25.932Z</time></trkpt><trkpt lat="45.10438" lon="10.0814467"><ele>41.0</ele><time>2026-04-11T11:56:26.932Z</time></trkpt><trkpt lat="45.1045183" lon="10.0813017"><ele>41.0</ele><time>2026-04-11T11:56:27.932Z</time></trkpt><trkpt lat="45.104655" lon="10.081145"><ele>41.0</ele><time>2026-04-11T11:56:28.932Z</time></trkpt><trkpt lat="45.10479" lon="10.080975"><ele>41.0</ele><time>2026-04-11T11:56:29.932Z</time></trkpt><trkpt lat="45.1049233" lon="10.0807817"><ele>40.33333333333333</ele><time>2026-04-11T11:56:30.932Z</time></trkpt><trkpt lat="45.1050517" lon="10.080575"><ele>39.666666666666664</ele><time>2026-04-11T11:56:31.932Z</time></trkpt><trkpt lat="45.1051767" lon="10.0803683"><ele>39.0</ele><time>2026-04-11T11:56:32.932Z</time></trkpt><trkpt lat="45.1052967" lon="10.0801567"><ele>39.0</ele><time>2026-04-11T11:56:33.932Z</time></trkpt><trkpt lat="45.1054133" lon="10.0799517"><ele>39.0</ele><time>2026-04-11T11:56:34.932Z</time></trkpt><trkpt lat="45.1055317" lon="10.07975"><ele>39.0</ele><time>2026-04-11T11:56:35.932Z</time></trkpt><trkpt lat="45.10566" lon="10.07955"><ele>38.0</ele><time>2026-04-11T11:56:36.932Z</time></trkpt><trkpt lat="45.1057867" lon="10.0793567"><ele>37.0</ele><time>2026-04-11T11:56:37.932Z</time></trkpt><trkpt lat="45.10592" lon="10.079165"><ele>36.0</ele><time>2026-04-11T11:56:38.931Z</time></trkpt><trkpt lat="45.1060583" lon="10.0789767"><ele>36.0</ele><time>2026-04-11T11:56:39.932Z</time></trkpt><trkpt lat="45.1061983" lon="10.078785"><ele>36.0</ele><time>2026-04-11T11:56:40.932Z</time></trkpt><trkpt lat="45.1063383" lon="10.07859"><ele>36.0</ele><time>2026-04-11T11:56:41.932Z</time></trkpt><trkpt lat="45.1064783" lon="10.0783983"><ele>36.666666666666664</ele><time>2026-04-11T11:56:42.932Z</time></trkpt><trkpt lat="45.1066233" lon="10.0782033"><ele>37.33333333333333</ele><time>2026-04-11T11:56:43.932Z</time></trkpt><trkpt lat="45.10677" lon="10.078015"><ele>38.0</ele><time>2026-04-11T11:56:44.932Z</time></trkpt><trkpt lat="45.106915" lon="10.0778217"><ele>38.0</ele><time>2026-04-11T11:56:45.932Z</time></trkpt><trkpt lat="45.107055" lon="10.077635"><ele>38.0</ele><time>2026-04-11T11:56:46.931Z</time></trkpt><trkpt lat="45.107185" lon="10.0774367"><ele>38.0</ele><time>2026-04-11T11:56:47.932Z</time></trkpt><trkpt lat="45.107315" lon="10.0772483"><ele>38.666666666666664</ele><time>2026-04-11T11:56:48.932Z</time></trkpt><trkpt lat="45.1074233" lon="10.0770567"><ele>39.333333333333336</ele><time>2026-04-11T11:56:49.932Z</time></trkpt><trkpt lat="45.10753" lon="10.0768783"><ele>40.0</ele><time>2026-04-11T11:56:50.932Z</time></trkpt><trkpt lat="45.1076283" lon="10.0767133"><ele>39.333333333333336</ele><time>2026-04-11T11:56:51.932Z</time></trkpt><trkpt lat="45.1077333" lon="10.076565"><ele>38.666666666666664</ele><time>2026-04-11T11:56:52.932Z</time></trkpt><trkpt lat="45.107855" lon="10.0764317"><ele>38.0</ele><time>2026-04-11T11:56:53.932Z</time></trkpt><trkpt lat="45.1079833" lon="10.0763217"><ele>38.0</ele><time>2026-04-11T11:56:54.932Z</time></trkpt><trkpt lat="45.1081267" lon="10.0762183"><ele>38.0</ele><time>2026-04-11T11:56:55.932Z</time></trkpt><trkpt lat="45.1082883" lon="10.0761217"><ele>38.0</ele><time>2026-04-11T11:56:56.932Z</time></trkpt><trkpt lat="45.10844" lon="10.0760433"><ele>37.666666666666664</ele><time>2026-04-11T11:56:57.931Z</time></trkpt><trkpt lat="45.1085833" lon="10.07595"><ele>37.333333333333336</ele><time>2026-04-11T11:56:58.932Z</time></trkpt><trkpt lat="45.10871" lon="10.0758217"><ele>37.0</ele><time>2026-04-11T11:56:59.932Z</time></trkpt><trkpt lat="45.1088083" lon="10.0756717"><ele>37.0</ele><time>2026-04-11T11:57:00.932Z</time></trkpt><trkpt lat="45.1089" lon="10.07549"><ele>37.0</ele><time>2026-04-11T11:57:01.931Z</time></trkpt><trkpt lat="45.10897" lon="10.0752717"><ele>37.0</ele><time>2026-04-11T11:57:02.932Z</time></trkpt><trkpt lat="45.109035" lon="10.07504"><ele>37.66666666666667</ele><time>2026-04-11T11:57:03.931Z</time></trkpt><trkpt lat="45.1091" lon="10.0747933"><ele>38.333333333333336</ele><time>2026-04-11T11:57:04.932Z</time></trkpt><trkpt lat="45.1091683" lon="10.0745567"><ele>39.0</ele><time>2026-04-11T11:57:05.932Z</time></trkpt><trkpt lat="45.10925" lon="10.074345"><ele>39.0</ele><time>2026-04-11T11:57:06.932Z</time></trkpt><trkpt lat="45.1093417" lon="10.074155"><ele>39.0</ele><time>2026-04-11T11:57:07.931Z</time></trkpt><trkpt lat="45.10944" lon="10.0739717"><ele>39.0</ele><time>2026-04-11T11:57:08.931Z</time></trkpt><trkpt lat="45.1095367" lon="10.0737833"><ele>39.666666666666664</ele><time>2026-04-11T11:57:09.931Z</time></trkpt><trkpt lat="45.1096433" lon="10.0735917"><ele>40.33333333333333</ele><time>2026-04-11T11:57:10.931Z</time></trkpt><trkpt lat="45.1097567" lon="10.073385"><ele>41.0</ele><time>2026-04-11T11:57:11.931Z</time></trkpt><trkpt lat="45.1098717" lon="10.073185"><ele>40.33333333333333</ele><time>2026-04-11T11:57:12.931Z</time></trkpt><trkpt lat="45.109985" lon="10.0729817"><ele>39.666666666666664</ele><time>2026-04-11T11:57:13.931Z</time></trkpt><trkpt lat="45.1100917" lon="10.0727717"><ele>39.0</ele><time>2026-04-11T11:57:14.931Z</time></trkpt><trkpt lat="45.1101917" lon="10.0725533"><ele>39.666666666666664</ele><time>2026-04-11T11:57:15.931Z</time></trkpt><trkpt lat="45.11028" lon="10.0723317"><ele>40.33333333333333</ele><time>2026-04-11T11:57:16.931Z</time></trkpt><trkpt lat="45.110365" lon="10.0721167"><ele>41.0</ele><time>2026-04-11T11:57:17.931Z</time></trkpt><trkpt lat="45.110455" lon="10.0718933"><ele>41.0</ele><time>2026-04-11T11:57:18.931Z</time></trkpt><trkpt lat="45.1105333" lon="10.07167"><ele>41.0</ele><time>2026-04-11T11:57:19.931Z</time></trkpt><trkpt lat="45.1106083" lon="10.0714633"><ele>41.0</ele><time>2026-04-11T11:57:20.931Z</time></trkpt><trkpt lat="45.11069" lon="10.0712567"><ele>41.0</ele><time>2026-04-11T11:57:21.931Z</time></trkpt><trkpt lat="45.11078" lon="10.0710483"><ele>41.0</ele><time>2026-04-11T11:57:22.931Z</time></trkpt><trkpt lat="45.1108683" lon="10.070865"><ele>41.0</ele><time>2026-04-11T11:57:23.931Z</time></trkpt><trkpt lat="45.1109683" lon="10.0706983"><ele>40.33333333333333</ele><time>2026-04-11T11:57:24.931Z</time></trkpt><trkpt lat="45.111075" lon="10.0705517"><ele>39.666666666666664</ele><time>2026-04-11T11:57:25.931Z</time></trkpt><trkpt lat="45.111205" lon="10.0704217"><ele>39.0</ele><time>2026-04-11T11:57:26.931Z</time></trkpt><trkpt lat="45.11134" lon="10.070325"><ele>39.0</ele><time>2026-04-11T11:57:27.931Z</time></trkpt><trkpt lat="45.11149" lon="10.070275"><ele>39.0</ele><time>2026-04-11T11:57:28.931Z</time></trkpt><trkpt lat="45.1116367" lon="10.070245"><ele>39.0</ele><time>2026-04-11T11:57:29.931Z</time></trkpt><trkpt lat="45.11179" lon="10.07022"><ele>38.666666666666664</ele><time>2026-04-11T11:57:30.931Z</time></trkpt><trkpt lat="45.1119567" lon="10.0701983"><ele>38.33333333333333</ele><time>2026-04-11T11:57:31.93Z</time></trkpt><trkpt lat="45.1121233" lon="10.0701633"><ele>38.0</ele><time>2026-04-11T11:57:32.931Z</time></trkpt><trkpt lat="45.1122717" lon="10.070125"><ele>38.0</ele><time>2026-04-11T11:57:33.931Z</time></trkpt><trkpt lat="45.112405" lon="10.0700967"><ele>38.0</ele><time>2026-04-11T11:57:34.93Z</time></trkpt><trkpt lat="45.11252" lon="10.0700533"><ele>38.0</ele><time>2026-04-11T11:57:35.931Z</time></trkpt><trkpt lat="45.1126467" lon="10.0699667"><ele>38.0</ele><time>2026-04-11T11:57:36.931Z</time></trkpt><trkpt lat="45.1127717" lon="10.0698517"><ele>38.0</ele><time>2026-04-11T11:57:37.931Z</time></trkpt><trkpt lat="45.1128967" lon="10.06967"><ele>38.0</ele><time>2026-04-11T11:57:38.931Z</time></trkpt><trkpt lat="45.1130017" lon="10.06948"><ele>38.0</ele><time>2026-04-11T11:57:39.931Z</time></trkpt><trkpt lat="45.113115" lon="10.0692867"><ele>38.0</ele><time>2026-04-11T11:57:40.931Z</time></trkpt><trkpt lat="45.1132333" lon="10.0691167"><ele>38.0</ele><time>2026-04-11T11:57:41.931Z</time></trkpt><trkpt lat="45.1133583" lon="10.0689783"><ele>38.0</ele><time>2026-04-11T11:57:42.931Z</time></trkpt><trkpt lat="45.113505" lon="10.0688533"><ele>37.33333333333333</ele><time>2026-04-11T11:57:43.931Z</time></trkpt><trkpt lat="45.1136467" lon="10.0687217"><ele>36.666666666666664</ele><time>2026-04-11T11:57:44.931Z</time></trkpt><trkpt lat="45.1137967" lon="10.0685783"><ele>36.0</ele><time>2026-04-11T11:57:45.931Z</time></trkpt><trkpt lat="45.113935" lon="10.0684433"><ele>36.0</ele><time>2026-04-11T11:57:46.931Z</time></trkpt><trkpt lat="45.1140633" lon="10.06832"><ele>36.0</ele><time>2026-04-11T11:57:47.931Z</time></trkpt><trkpt lat="45.1142017" lon="10.0682033"><ele>36.0</ele><time>2026-04-11T11:57:48.931Z</time></trkpt><trkpt lat="45.1143367" lon="10.0681183"><ele>36.0</ele><time>2026-04-11T11:57:49.931Z</time></trkpt><trkpt lat="45.1144817" lon="10.0680733"><ele>36.0</ele><time>2026-04-11T11:57:50.931Z</time></trkpt><trkpt lat="45.1146267" lon="10.0680433"><ele>36.0</ele><time>2026-04-11T11:57:51.931Z</time></trkpt><trkpt lat="45.114775" lon="10.0680217"><ele>36.0</ele><time>2026-04-11T11:57:52.931Z</time></trkpt><trkpt lat="45.1149067" lon="10.0679933"><ele>36.0</ele><time>2026-04-11T11:57:53.931Z</time></trkpt><trkpt lat="45.1150333" lon="10.0679517"><ele>36.0</ele><time>2026-04-11T11:57:54.93Z</time></trkpt><trkpt lat="45.1151417" lon="10.0679117"><ele>36.0</ele><time>2026-04-11T11:57:55.931Z</time></trkpt><trkpt lat="45.1152367" lon="10.0678933"><ele>36.0</ele><time>2026-04-11T11:57:56.931Z</time></trkpt><trkpt lat="45.1153317" lon="10.0678883"><ele>36.0</ele><time>2026-04-11T11:57:57.931Z</time></trkpt><trkpt lat="45.115415" lon="10.0679067"><ele>36.0</ele><time>2026-04-11T11:57:58.931Z</time></trkpt><trkpt lat="45.1154817" lon="10.0679033"><ele>36.0</ele><time>2026-04-11T11:57:59.931Z</time></trkpt><trkpt lat="45.1155567" lon="10.06779"><ele>36.0</ele><time>2026-04-11T11:58:01.93Z</time></trkpt><trkpt lat="45.115505" lon="10.0676567"><ele>36.0</ele><time>2026-04-11T11:58:03.931Z</time></trkpt><trkpt lat="45.1153917" lon="10.06766"><ele>36.0</ele><time>2026-04-11T11:58:05.931Z</time></trkpt><trkpt lat="45.115335" lon="10.0678067"><ele>36.0</ele><time>2026-04-11T11:58:07.931Z</time></trkpt><trkpt lat="45.1154067" lon="10.0679283"><ele>36.0</ele><time>2026-04-11T11:58:09.931Z</time></trkpt><trkpt lat="45.1155" lon="10.0679033"><ele>36.0</ele><time>2026-04-11T11:58:11.931Z</time></trkpt><trkpt lat="45.11557" lon="10.0677533"><ele>36.0</ele><time>2026-04-11T11:58:13.931Z</time></trkpt><trkpt lat="45.1155967" lon="10.0676383"><ele>36.0</ele><time>2026-04-11T11:58:14.931Z</time></trkpt><trkpt lat="45.1156333" lon="10.0675033"><ele>35.75</ele><time>2026-04-11T11:58:15.931Z</time></trkpt><trkpt lat="45.1156967" lon="10.0673767"><ele>35.5</ele><time>2026-04-11T11:58:16.931Z</time></trkpt><trkpt lat="45.1157883" lon="10.0672667"><ele>35.25</ele><time>2026-04-11T11:58:17.931Z</time></trkpt><trkpt lat="45.1159" lon="10.0671683"><ele>35.0</ele><time>2026-04-11T11:58:18.931Z</time></trkpt><trkpt lat="45.1160067" lon="10.0670817"><ele>35.0</ele><time>2026-04-11T11:58:19.93Z</time></trkpt><trkpt lat="45.11611" lon="10.0669867"><ele>35.0</ele><time>2026-04-11T11:58:20.931Z</time></trkpt><trkpt lat="45.11622" lon="10.0669"><ele>35.0</ele><time>2026-04-11T11:58:21.93Z</time></trkpt><trkpt lat="45.1163283" lon="10.0668017"><ele>35.0</ele><time>2026-04-11T11:58:22.931Z</time></trkpt><trkpt lat="45.116445" lon="10.0666917"><ele>35.0</ele><time>2026-04-11T11:58:23.931Z</time></trkpt><trkpt lat="45.1165617" lon="10.0665767"><ele>35.0</ele><time>2026-04-11T11:58:24.931Z</time></trkpt><trkpt lat="45.1166817" lon="10.0664667"><ele>35.0</ele><time>2026-04-11T11:58:25.931Z</time></trkpt><trkpt lat="45.1168033" lon="10.0663567"><ele>35.0</ele><time>2026-04-11T11:58:26.931Z</time></trkpt><trkpt lat="45.11691" lon="10.0662533"><ele>35.0</ele><time>2026-04-11T11:58:27.931Z</time></trkpt><trkpt lat="45.1169883" lon="10.0661317"><ele>35.0</ele><time>2026-04-11T11:58:28.93Z</time></trkpt><trkpt lat="45.117055" lon="10.0659867"><ele>35.0</ele><time>2026-04-11T11:58:29.931Z</time></trkpt><trkpt lat="45.1171" lon="10.06581"><ele>35.0</ele><time>2026-04-11T11:58:30.931Z</time></trkpt><trkpt lat="45.1171267" lon="10.0656283"><ele>35.0</ele><time>2026-04-11T11:58:31.931Z</time></trkpt><trkpt lat="45.1171333" lon="10.06543"><ele>35.0</ele><time>2026-04-11T11:58:32.931Z</time></trkpt><trkpt lat="45.1171317" lon="10.0652083"><ele>35.0</ele><time>2026-04-11T11:58:33.931Z</time></trkpt><trkpt lat="45.1171333" lon="10.0649733"><ele>35.0</ele><time>2026-04-11T11:58:34.931Z</time></trkpt><trkpt lat="45.1171367" lon="10.0647317"><ele>35.0</ele><time>2026-04-11T11:58:35.93Z</time></trkpt><trkpt lat="45.1171483" lon="10.0645117"><ele>35.0</ele><time>2026-04-11T11:58:36.931Z</time></trkpt><trkpt lat="45.1171567" lon="10.0642867"><ele>34.75</ele><time>2026-04-11T11:58:37.931Z</time></trkpt><trkpt lat="45.1171583" lon="10.0640717"><ele>34.5</ele><time>2026-04-11T11:58:38.931Z</time></trkpt><trkpt lat="45.11716" lon="10.063865"><ele>34.25</ele><time>2026-04-11T11:58:39.93Z</time></trkpt><trkpt lat="45.1171633" lon="10.0636533"><ele>34.0</ele><time>2026-04-11T11:58:40.931Z</time></trkpt><trkpt lat="45.1171767" lon="10.0634417"><ele>35.0</ele><time>2026-04-11T11:58:41.931Z</time></trkpt><trkpt lat="45.1171967" lon="10.0632117"><ele>36.0</ele><time>2026-04-11T11:58:42.931Z</time></trkpt><trkpt lat="45.1172183" lon="10.062975"><ele>37.0</ele><time>2026-04-11T11:58:43.931Z</time></trkpt><trkpt lat="45.11725" lon="10.0627533"><ele>37.0</ele><time>2026-04-11T11:58:44.931Z</time></trkpt><trkpt lat="45.11729" lon="10.06253"><ele>37.0</ele><time>2026-04-11T11:58:45.931Z</time></trkpt><trkpt lat="45.1173317" lon="10.0623117"><ele>37.0</ele><time>2026-04-11T11:58:46.931Z</time></trkpt><trkpt lat="45.1173767" lon="10.0620967"><ele>37.0</ele><time>2026-04-11T11:58:47.931Z</time></trkpt><trkpt lat="45.1174217" lon="10.0618717"><ele>37.0</ele><time>2026-04-11T11:58:48.931Z</time></trkpt><trkpt lat="45.1174783" lon="10.0616467"><ele>37.0</ele><time>2026-04-11T11:58:49.931Z</time></trkpt><trkpt lat="45.1175483" lon="10.0614117"><ele>36.66666666666667</ele><time>2026-04-11T11:58:50.931Z</time></trkpt><trkpt lat="45.1176167" lon="10.0611883"><ele>36.333333333333336</ele><time>2026-04-11T11:58:51.931Z</time></trkpt><trkpt lat="45.1176883" lon="10.0609783"><ele>36.0</ele><time>2026-04-11T11:58:52.931Z</time></trkpt><trkpt lat="45.1177567" lon="10.06077"><ele>36.0</ele><time>2026-04-11T11:58:53.931Z</time></trkpt><trkpt lat="45.1178317" lon="10.060555"><ele>36.0</ele><time>2026-04-11T11:58:54.931Z</time></trkpt><trkpt lat="45.1179133" lon="10.0603417"><ele>36.0</ele><time>2026-04-11T11:58:55.931Z</time></trkpt><trkpt lat="45.1179967" lon="10.06013"><ele>35.666666666666664</ele><time>2026-04-11T11:58:56.931Z</time></trkpt><trkpt lat="45.1180817" lon="10.0599133"><ele>35.33333333333333</ele><time>2026-04-11T11:58:57.931Z</time></trkpt><trkpt lat="45.1181667" lon="10.05969"><ele>35.0</ele><time>2026-04-11T11:58:58.931Z</time></trkpt><trkpt lat="45.118255" lon="10.0594533"><ele>35.33333333333333</ele><time>2026-04-11T11:58:59.931Z</time></trkpt><trkpt lat="45.1183483" lon="10.0592033"><ele>35.666666666666664</ele><time>2026-04-11T11:59:00.931Z</time></trkpt><trkpt lat="45.11844" lon="10.0589567"><ele>36.0</ele><time>2026-04-11T11:59:01.931Z</time></trkpt><trkpt lat="45.1185367" lon="10.0586983"><ele>36.0</ele><time>2026-04-11T11:59:02.931Z</time></trkpt><trkpt lat="45.1186283" lon="10.05845"><ele>36.0</ele><time>2026-04-11T11:59:03.931Z</time></trkpt><trkpt lat="45.1187167" lon="10.0582133"><ele>36.0</ele><time>2026-04-11T11:59:04.93Z</time></trkpt><trkpt lat="45.118805" lon="10.057975"><ele>35.666666666666664</ele><time>2026-04-11T11:59:05.931Z</time></trkpt><trkpt lat="45.11889" lon="10.057745"><ele>35.33333333333333</ele><time>2026-04-11T11:59:06.931Z</time></trkpt><trkpt lat="45.118975" lon="10.0575117"><ele>35.0</ele><time>2026-04-11T11:59:07.931Z</time></trkpt><trkpt lat="45.1190567" lon="10.057265"><ele>35.0</ele><time>2026-04-11T11:59:08.93Z</time></trkpt><trkpt lat="45.1191467" lon="10.0570417"><ele>35.0</ele><time>2026-04-11T11:59:09.931Z</time></trkpt><trkpt lat="45.1192333" lon="10.0567983"><ele>35.0</ele><time>2026-04-11T11:59:10.931Z</time></trkpt><trkpt lat="45.119325" lon="10.0565467"><ele>35.0</ele><time>2026-04-11T11:59:11.931Z</time></trkpt><trkpt lat="45.1194183" lon="10.0562967"><ele>35.0</ele><time>2026-04-11T11:59:12.931Z</time></trkpt><trkpt lat="45.119515" lon="10.0560433"><ele>35.0</ele><time>2026-04-11T11:59:13.931Z</time></trkpt><trkpt lat="45.11961" lon="10.055775"><ele>34.666666666666664</ele><time>2026-04-11T11:59:14.931Z</time></trkpt><trkpt lat="45.119705" lon="10.055535"><ele>34.333333333333336</ele><time>2026-04-11T11:59:15.931Z</time></trkpt><trkpt lat="45.1197967" lon="10.0552917"><ele>34.0</ele><time>2026-04-11T11:59:16.931Z</time></trkpt><trkpt lat="45.1198883" lon="10.0550667"><ele>35.0</ele><time>2026-04-11T11:59:17.931Z</time></trkpt><trkpt lat="45.1199767" lon="10.054855"><ele>36.0</ele><time>2026-04-11T11:59:18.931Z</time></trkpt><trkpt lat="45.1200733" lon="10.0546483"><ele>37.0</ele><time>2026-04-11T11:59:19.931Z</time></trkpt><trkpt lat="45.1201717" lon="10.0544383"><ele>37.0</ele><time>2026-04-11T11:59:20.931Z</time></trkpt><trkpt lat="45.1202783" lon="10.0542383"><ele>37.0</ele><time>2026-04-11T11:59:21.931Z</time></trkpt><trkpt lat="45.1203933" lon="10.0540383"><ele>37.0</ele><time>2026-04-11T11:59:22.931Z</time></trkpt><trkpt lat="45.1205217" lon="10.0538467"><ele>36.66666666666667</ele><time>2026-04-11T11:59:23.931Z</time></trkpt><trkpt lat="45.1206517" lon="10.05366"><ele>36.333333333333336</ele><time>2026-04-11T11:59:24.93Z</time></trkpt><trkpt lat="45.1207917" lon="10.0534683"><ele>36.0</ele><time>2026-04-11T11:59:25.931Z</time></trkpt><trkpt lat="45.1209383" lon="10.05327"><ele>35.0</ele><time>2026-04-11T11:59:26.931Z</time></trkpt><trkpt lat="45.12109" lon="10.0530667"><ele>34.0</ele><time>2026-04-11T11:59:27.93Z</time></trkpt><trkpt lat="45.1212417" lon="10.0528633"><ele>33.0</ele><time>2026-04-11T11:59:28.93Z</time></trkpt><trkpt lat="45.1213917" lon="10.0526567"><ele>33.0</ele><time>2026-04-11T11:59:29.931Z</time></trkpt><trkpt lat="45.121535" lon="10.0524567"><ele>33.0</ele><time>2026-04-11T11:59:30.931Z</time></trkpt><trkpt lat="45.1216733" lon="10.052255"><ele>33.0</ele><time>2026-04-11T11:59:31.931Z</time></trkpt><trkpt lat="45.1218033" lon="10.0520517"><ele>33.666666666666664</ele><time>2026-04-11T11:59:32.931Z</time></trkpt><trkpt lat="45.1219267" lon="10.0518483"><ele>34.33333333333333</ele><time>2026-04-11T11:59:33.931Z</time></trkpt><trkpt lat="45.1220383" lon="10.0516433"><ele>35.0</ele><time>2026-04-11T11:59:34.931Z</time></trkpt><trkpt lat="45.1221483" lon="10.0514283"><ele>35.666666666666664</ele><time>2026-04-11T11:59:35.931Z</time></trkpt><trkpt lat="45.122245" lon="10.0512017"><ele>36.333333333333336</ele><time>2026-04-11T11:59:36.93Z</time></trkpt><trkpt lat="45.1223267" lon="10.0509817"><ele>37.0</ele><time>2026-04-11T11:59:37.93Z</time></trkpt><trkpt lat="45.1224083" lon="10.0507483"><ele>37.0</ele><time>2026-04-11T11:59:38.931Z</time></trkpt><trkpt lat="45.122495" lon="10.0505267"><ele>37.0</ele><time>2026-04-11T11:59:39.931Z</time></trkpt><trkpt lat="45.1225767" lon="10.0503033"><ele>37.0</ele><time>2026-04-11T11:59:40.931Z</time></trkpt><trkpt lat="45.122665" lon="10.0500783"><ele>36.66666666666667</ele><time>2026-04-11T11:59:41.93Z</time></trkpt><trkpt lat="45.1227417" lon="10.0498533"><ele>36.333333333333336</ele><time>2026-04-11T11:59:42.931Z</time></trkpt><trkpt lat="45.122825" lon="10.0496283"><ele>36.0</ele><time>2026-04-11T11:59:43.931Z</time></trkpt><trkpt lat="45.122905" lon="10.0494033"><ele>36.0</ele><time>2026-04-11T11:59:44.931Z</time></trkpt><trkpt lat="45.1229933" lon="10.0491733"><ele>36.0</ele><time>2026-04-11T11:59:45.931Z</time></trkpt><trkpt lat="45.1230867" lon="10.0489333"><ele>36.0</ele><time>2026-04-11T11:59:46.931Z</time></trkpt><trkpt lat="45.12318" lon="10.04869"><ele>36.0</ele><time>2026-04-11T11:59:47.93Z</time></trkpt><trkpt lat="45.12328" lon="10.0484467"><ele>36.0</ele><time>2026-04-11T11:59:48.931Z</time></trkpt><trkpt lat="45.1233767" lon="10.04821"><ele>36.0</ele><time>2026-04-11T11:59:49.931Z</time></trkpt><trkpt lat="45.1234583" lon="10.0479617"><ele>36.0</ele><time>2026-04-11T11:59:50.931Z</time></trkpt><trkpt lat="45.1235533" lon="10.0477167"><ele>36.0</ele><time>2026-04-11T11:59:51.931Z</time></trkpt><trkpt lat="45.1236467" lon="10.04747"><ele>36.0</ele><time>2026-04-11T11:59:52.931Z</time></trkpt><trkpt lat="45.1237367" lon="10.0472317"><ele>36.0</ele><time>2026-04-11T11:59:53.931Z</time></trkpt><trkpt lat="45.1238217" lon="10.0469983"><ele>36.0</ele><time>2026-04-11T11:59:54.931Z</time></trkpt><trkpt lat="45.123905" lon="10.046775"><ele>36.0</ele><time>2026-04-11T11:59:55.93Z</time></trkpt><trkpt lat="45.1239767" lon="10.04657"><ele>36.0</ele><time>2026-04-11T11:59:56.931Z</time></trkpt><trkpt lat="45.124055" lon="10.0463667"><ele>36.0</ele><time>2026-04-11T11:59:57.931Z</time></trkpt><trkpt lat="45.1241333" lon="10.0461767"><ele>36.0</ele><time>2026-04-11T11:59:58.931Z</time></trkpt><trkpt lat="45.1242067" lon="10.0459833"><ele>36.0</ele><time>2026-04-11T11:59:59.931Z</time></trkpt><trkpt lat="45.124275" lon="10.045795"><ele>36.0</ele><time>2026-04-11T12:00:00.931Z</time></trkpt><trkpt lat="45.1243517" lon="10.04559"><ele>36.0</ele><time>2026-04-11T12:00:01.931Z</time></trkpt><trkpt lat="45.1244283" lon="10.0453817"><ele>36.0</ele><time>2026-04-11T12:00:02.931Z</time></trkpt><trkpt lat="45.1245083" lon="10.0451767"><ele>36.0</ele><time>2026-04-11T12:00:03.931Z</time></trkpt><trkpt lat="45.1245833" lon="10.0449817"><ele>36.0</ele><time>2026-04-11T12:00:04.93Z</time></trkpt><trkpt lat="45.1246567" lon="10.0447933"><ele>36.25</ele><time>2026-04-11T12:00:05.931Z</time></trkpt><trkpt lat="45.12472" lon="10.0446117"><ele>36.5</ele><time>2026-04-11T12:00:06.931Z</time></trkpt><trkpt lat="45.12478" lon="10.0444467"><ele>36.75</ele><time>2026-04-11T12:00:07.931Z</time></trkpt><trkpt lat="45.1248383" lon="10.0442833"><ele>37.0</ele><time>2026-04-11T12:00:08.931Z</time></trkpt><trkpt lat="45.1248983" lon="10.0441283"><ele>37.0</ele><time>2026-04-11T12:00:09.931Z</time></trkpt><trkpt lat="45.1249467" lon="10.0439817"><ele>37.0</ele><time>2026-04-11T12:00:10.931Z</time></trkpt><trkpt lat="45.1249967" lon="10.0438333"><ele>37.0</ele><time>2026-04-11T12:00:11.931Z</time></trkpt><trkpt lat="45.1250433" lon="10.043695"><ele>37.0</ele><time>2026-04-11T12:00:12.93Z</time></trkpt><trkpt lat="45.1251217" lon="10.0434417"><ele>37.0</ele><time>2026-04-11T12:00:14.931Z</time></trkpt><trkpt lat="45.1251483" lon="10.04335"><ele>37.0</ele><time>2026-04-11T12:00:15.931Z</time></trkpt><trkpt lat="45.12521" lon="10.0431917"><ele>37.0</ele><time>2026-04-11T12:00:18.931Z</time></trkpt><trkpt lat="45.125255" lon="10.0431183"><ele>37.0</ele><time>2026-04-11T12:00:20.931Z</time></trkpt><trkpt lat="45.1253367" lon="10.0430717"><ele>37.0</ele><time>2026-04-11T12:00:22.931Z</time></trkpt><trkpt lat="45.1254" lon="10.0430783"><ele>37.0</ele><time>2026-04-11T12:00:23.93Z</time></trkpt><trkpt lat="45.125475" lon="10.0431067"><ele>37.0</ele><time>2026-04-11T12:00:24.93Z</time></trkpt><trkpt lat="45.1255583" lon="10.0431417"><ele>37.0</ele><time>2026-04-11T12:00:25.93Z</time></trkpt><trkpt lat="45.1256533" lon="10.043175"><ele>37.0</ele><time>2026-04-11T12:00:26.93Z</time></trkpt><trkpt lat="45.1257417" lon="10.0432267"><ele>37.0</ele><time>2026-04-11T12:00:27.93Z</time></trkpt><trkpt lat="45.1258417" lon="10.0432833"><ele>37.0</ele><time>2026-04-11T12:00:28.93Z</time></trkpt><trkpt lat="45.1259417" lon="10.0433717"><ele>37.0</ele><time>2026-04-11T12:00:29.93Z</time></trkpt><trkpt lat="45.1260433" lon="10.0434517"><ele>37.0</ele><time>2026-04-11T12:00:30.93Z</time></trkpt><trkpt lat="45.1261467" lon="10.0435533"><ele>37.0</ele><time>2026-04-11T12:00:31.93Z</time></trkpt><trkpt lat="45.1262483" lon="10.0436783"><ele>37.0</ele><time>2026-04-11T12:00:32.93Z</time></trkpt><trkpt lat="45.126345" lon="10.04383"><ele>37.0</ele><time>2026-04-11T12:00:33.93Z</time></trkpt><trkpt lat="45.12644" lon="10.043975"><ele>37.0</ele><time>2026-04-11T12:00:34.93Z</time></trkpt><trkpt lat="45.12654" lon="10.044125"><ele>37.0</ele><time>2026-04-11T12:00:35.93Z</time></trkpt><trkpt lat="45.126635" lon="10.0442683"><ele>37.0</ele><time>2026-04-11T12:00:36.93Z</time></trkpt><trkpt lat="45.1267233" lon="10.0443967"><ele>36.6</ele><time>2026-04-11T12:00:37.93Z</time></trkpt><trkpt lat="45.1268" lon="10.0445083"><ele>36.2</ele><time>2026-04-11T12:00:38.929Z</time></trkpt><trkpt lat="45.1268667" lon="10.0446083"><ele>35.8</ele><time>2026-04-11T12:00:39.93Z</time></trkpt><trkpt lat="45.1269283" lon="10.0447"><ele>35.4</ele><time>2026-04-11T12:00:40.93Z</time></trkpt><trkpt lat="45.12698" lon="10.0447767"><ele>35.0</ele><time>2026-04-11T12:00:41.93Z</time></trkpt><trkpt lat="45.12706" lon="10.0448783"><ele>35.0</ele><time>2026-04-11T12:00:43.93Z</time></trkpt><trkpt lat="45.1271183" lon="10.0449517"><ele>35.0</ele><time>2026-04-11T12:00:45.93Z</time></trkpt><trkpt lat="45.127185" lon="10.0450317"><ele>35.0</ele><time>2026-04-11T12:00:47.93Z</time></trkpt><trkpt lat="45.1273" lon="10.0451617"><ele>35.0</ele><time>2026-04-11T12:00:49.93Z</time></trkpt><trkpt lat="45.12737" lon="10.0452433"><ele>35.0</ele><time>2026-04-11T12:00:50.929Z</time></trkpt><trkpt lat="45.1274433" lon="10.04533"><ele>36.0</ele><time>2026-04-11T12:00:51.93Z</time></trkpt><trkpt lat="45.12751" lon="10.0454133"><ele>37.0</ele><time>2026-04-11T12:00:52.93Z</time></trkpt><trkpt lat="45.1275817" lon="10.0454917"><ele>38.0</ele><time>2026-04-11T12:00:53.93Z</time></trkpt><trkpt lat="45.1276467" lon="10.0455667"><ele>39.0</ele><time>2026-04-11T12:00:54.93Z</time></trkpt><trkpt lat="45.12771" lon="10.04563"><ele>40.0</ele><time>2026-04-11T12:00:55.93Z</time></trkpt><trkpt lat="45.1277767" lon="10.04569"><ele>41.0</ele><time>2026-04-11T12:00:56.929Z</time></trkpt><trkpt lat="45.1278433" lon="10.0457533"><ele>41.4</ele><time>2026-04-11T12:00:57.93Z</time></trkpt><trkpt lat="45.1279017" lon="10.0458317"><ele>41.8</ele><time>2026-04-11T12:00:58.93Z</time></trkpt><trkpt lat="45.1279817" lon="10.045915"><ele>42.199999999999996</ele><time>2026-04-11T12:00:59.93Z</time></trkpt><trkpt lat="45.12806" lon="10.0459967"><ele>42.599999999999994</ele><time>2026-04-11T12:01:00.93Z</time></trkpt><trkpt lat="45.1281183" lon="10.0460533"><ele>43.0</ele><time>2026-04-11T12:01:01.93Z</time></trkpt><trkpt lat="45.12821" lon="10.0461383"><ele>43.4</ele><time>2026-04-11T12:01:03.93Z</time></trkpt><trkpt lat="45.128275" lon="10.0462017"><ele>43.8</ele><time>2026-04-11T12:01:05.93Z</time></trkpt><trkpt lat="45.1283683" lon="10.04629"><ele>44.2</ele><time>2026-04-11T12:01:07.93Z</time></trkpt><trkpt lat="45.12843" lon="10.0463467"><ele>44.6</ele><time>2026-04-11T12:01:08.93Z</time></trkpt><trkpt lat="45.1285067" lon="10.046415"><ele>45.0</ele><time>2026-04-11T12:01:09.93Z</time></trkpt><trkpt lat="45.1285867" lon="10.0465"><ele>45.0</ele><time>2026-04-11T12:01:10.93Z</time></trkpt><trkpt lat="45.1286817" lon="10.0465917"><ele>45.0</ele><time>2026-04-11T12:01:11.93Z</time></trkpt><trkpt lat="45.1287833" lon="10.0466417"><ele>45.0</ele><time>2026-04-11T12:01:12.93Z</time></trkpt><trkpt lat="45.1288667" lon="10.046725"><ele>45.0</ele><time>2026-04-11T12:01:13.93Z</time></trkpt><trkpt lat="45.1289467" lon="10.0468"><ele>45.0</ele><time>2026-04-11T12:01:14.929Z</time></trkpt><trkpt lat="45.1290317" lon="10.0468767"><ele>45.0</ele><time>2026-04-11T12:01:15.93Z</time></trkpt><trkpt lat="45.129115" lon="10.0469583"><ele>45.0</ele><time>2026-04-11T12:01:16.93Z</time></trkpt><trkpt lat="45.1292017" lon="10.04704"><ele>45.0</ele><time>2026-04-11T12:01:17.93Z</time></trkpt><trkpt lat="45.1292933" lon="10.0471267"><ele>45.0</ele><time>2026-04-11T12:01:18.929Z</time></trkpt><trkpt lat="45.1293767" lon="10.0472267"><ele>45.0</ele><time>2026-04-11T12:01:19.93Z</time></trkpt><trkpt lat="45.12946" lon="10.0473183"><ele>45.0</ele><time>2026-04-11T12:01:20.93Z</time></trkpt><trkpt lat="45.1295383" lon="10.0473933"><ele>45.0</ele><time>2026-04-11T12:01:21.93Z</time></trkpt><trkpt lat="45.1296067" lon="10.04746"><ele>45.0</ele><time>2026-04-11T12:01:22.93Z</time></trkpt><trkpt lat="45.1296667" lon="10.0474967"><ele>45.0</ele><time>2026-04-11T12:01:23.93Z</time></trkpt><trkpt lat="45.1297467" lon="10.0475583"><ele>45.0</ele><time>2026-04-11T12:01:25.93Z</time></trkpt><trkpt lat="45.1297917" lon="10.0476417"><ele>45.0</ele><time>2026-04-11T12:01:29.93Z</time></trkpt><trkpt lat="45.1297733" lon="10.04779"><ele>45.0</ele><time>2026-04-11T12:01:32.93Z</time></trkpt><trkpt lat="45.129735" lon="10.04791"><ele>45.0</ele><time>2026-04-11T12:01:34.93Z</time></trkpt><trkpt lat="45.1297633" lon="10.0480283"><ele>45.0</ele><time>2026-04-11T12:01:44.93Z</time></trkpt><trkpt lat="45.12983" lon="10.0480717"><ele>45.0</ele><time>2026-04-11T12:01:46.93Z</time></trkpt><trkpt lat="45.12988" lon="10.047995"><ele>45.0</ele><time>2026-04-11T12:01:49.93Z</time></trkpt><trkpt lat="45.129855" lon="10.0478933"><ele>45.0</ele><time>2026-04-11T12:01:52.93Z</time></trkpt><trkpt lat="45.12988" lon="10.047765"><ele>45.0</ele><time>2026-04-11T12:01:59.93Z</time></trkpt><trkpt lat="45.1299183" lon="10.0476667"><ele>45.0</ele><time>2026-04-11T12:02:00.93Z</time></trkpt><trkpt lat="45.1299617" lon="10.0475517"><ele>45.0</ele><time>2026-04-11T12:02:01.93Z</time></trkpt><trkpt lat="45.1300083" lon="10.047405"><ele>45.0</ele><time>2026-04-11T12:02:02.93Z</time></trkpt><trkpt lat="45.1300683" lon="10.047245"><ele>45.0</ele><time>2026-04-11T12:02:03.93Z</time></trkpt><trkpt lat="45.1301333" lon="10.0470883"><ele>45.0</ele><time>2026-04-11T12:02:04.93Z</time></trkpt><trkpt lat="45.1301967" lon="10.046925"><ele>45.0</ele><time>2026-04-11T12:02:05.929Z</time></trkpt><trkpt lat="45.1302633" lon="10.0467617"><ele>45.0</ele><time>2026-04-11T12:02:06.929Z</time></trkpt><trkpt lat="45.1303367" lon="10.04658"><ele>45.0</ele><time>2026-04-11T12:02:07.93Z</time></trkpt><trkpt lat="45.130415" lon="10.0464033"><ele>45.0</ele><time>2026-04-11T12:02:08.93Z</time></trkpt><trkpt lat="45.1304917" lon="10.0462233"><ele>45.0</ele><time>2026-04-11T12:02:09.93Z</time></trkpt><trkpt lat="45.130575" lon="10.046055"><ele>45.0</ele><time>2026-04-11T12:02:10.93Z</time></trkpt><trkpt lat="45.1306517" lon="10.0459067"><ele>45.0</ele><time>2026-04-11T12:02:11.93Z</time></trkpt><trkpt lat="45.1307267" lon="10.04576"><ele>45.4</ele><time>2026-04-11T12:02:12.93Z</time></trkpt><trkpt lat="45.1307967" lon="10.0456233"><ele>45.8</ele><time>2026-04-11T12:02:13.93Z</time></trkpt><trkpt lat="45.1308417" lon="10.0454983"><ele>46.2</ele><time>2026-04-11T12:02:14.93Z</time></trkpt><trkpt lat="45.1308967" lon="10.0453917"><ele>46.6</ele><time>2026-04-11T12:02:15.93Z</time></trkpt><trkpt lat="45.1309433" lon="10.0453033"><ele>47.0</ele><time>2026-04-11T12:02:16.93Z</time></trkpt><trkpt lat="45.1309933" lon="10.04518"><ele>47.0</ele><time>2026-04-11T12:02:18.93Z</time></trkpt><trkpt lat="45.1310367" lon="10.0450267"><ele>47.0</ele><time>2026-04-11T12:02:20.93Z</time></trkpt><trkpt lat="45.13108" lon="10.0449317"><ele>47.0</ele><time>2026-04-11T12:02:21.93Z</time></trkpt><trkpt lat="45.13113" lon="10.0447983"><ele>47.0</ele><time>2026-04-11T12:02:22.93Z</time></trkpt><trkpt lat="45.1311917" lon="10.0446367"><ele>47.0</ele><time>2026-04-11T12:02:23.93Z</time></trkpt><trkpt lat="45.13127" lon="10.0444583"><ele>47.0</ele><time>2026-04-11T12:02:24.93Z</time></trkpt><trkpt lat="45.1313533" lon="10.0442767"><ele>47.0</ele><time>2026-04-11T12:02:25.93Z</time></trkpt><trkpt lat="45.13143" lon="10.044105"><ele>47.0</ele><time>2026-04-11T12:02:26.93Z</time></trkpt><trkpt lat="45.131505" lon="10.0439433"><ele>47.0</ele><time>2026-04-11T12:02:27.929Z</time></trkpt><trkpt lat="45.131575" lon="10.0437983"><ele>46.25</ele><time>2026-04-11T12:02:28.93Z</time></trkpt><trkpt lat="45.1316483" lon="10.04365"><ele>45.5</ele><time>2026-04-11T12:02:29.93Z</time></trkpt><trkpt lat="45.1317283" lon="10.0434917"><ele>44.75</ele><time>2026-04-11T12:02:30.93Z</time></trkpt><trkpt lat="45.1317967" lon="10.043345"><ele>44.0</ele><time>2026-04-11T12:02:31.93Z</time></trkpt><trkpt lat="45.1318633" lon="10.04321"><ele>43.5</ele><time>2026-04-11T12:02:32.93Z</time></trkpt><trkpt lat="45.13192" lon="10.0430733"><ele>43.0</ele><time>2026-04-11T12:02:33.93Z</time></trkpt><trkpt lat="45.131985" lon="10.0429433"><ele>42.5</ele><time>2026-04-11T12:02:34.93Z</time></trkpt><trkpt lat="45.1320533" lon="10.0428183"><ele>42.0</ele><time>2026-04-11T12:02:35.93Z</time></trkpt><trkpt lat="45.1321217" lon="10.0426883"><ele>42.0</ele><time>2026-04-11T12:02:36.93Z</time></trkpt><trkpt lat="45.1321833" lon="10.0425483"><ele>42.0</ele><time>2026-04-11T12:02:37.93Z</time></trkpt><trkpt lat="45.1322317" lon="10.0424317"><ele>42.0</ele><time>2026-04-11T12:02:38.93Z</time></trkpt><trkpt lat="45.132285" lon="10.0423067"><ele>42.0</ele><time>2026-04-11T12:02:39.93Z</time></trkpt><trkpt lat="45.1323467" lon="10.042165"><ele>42.0</ele><time>2026-04-11T12:02:40.93Z</time></trkpt><trkpt lat="45.13241" lon="10.0420317"><ele>42.25</ele><time>2026-04-11T12:02:41.93Z</time></trkpt><trkpt lat="45.1324667" lon="10.041895"><ele>42.5</ele><time>2026-04-11T12:02:42.93Z</time></trkpt><trkpt lat="45.132525" lon="10.0417583"><ele>42.75</ele><time>2026-04-11T12:02:43.93Z</time></trkpt><trkpt lat="45.132585" lon="10.041625"><ele>43.0</ele><time>2026-04-11T12:02:44.93Z</time></trkpt><trkpt lat="45.1326567" lon="10.0414833"><ele>43.0</ele><time>2026-04-11T12:02:45.93Z</time></trkpt><trkpt lat="45.1327317" lon="10.041345"><ele>43.0</ele><time>2026-04-11T12:02:46.93Z</time></trkpt><trkpt lat="45.1327917" lon="10.04122"><ele>43.0</ele><time>2026-04-11T12:02:47.93Z</time></trkpt><trkpt lat="45.1328467" lon="10.0411"><ele>43.0</ele><time>2026-04-11T12:02:48.93Z</time></trkpt><trkpt lat="45.1329" lon="10.040975"><ele>43.0</ele><time>2026-04-11T12:02:49.93Z</time></trkpt><trkpt lat="45.132945" lon="10.040865"><ele>42.833333333333336</ele><time>2026-04-11T12:02:50.93Z</time></trkpt><trkpt lat="45.132995" lon="10.04077"><ele>42.66666666666667</ele><time>2026-04-11T12:02:51.93Z</time></trkpt><trkpt lat="45.1330417" lon="10.0406683"><ele>42.5</ele><time>2026-04-11T12:02:52.93Z</time></trkpt><trkpt lat="45.1330867" lon="10.0405767"><ele>42.333333333333336</ele><time>2026-04-11T12:02:53.93Z</time></trkpt><trkpt lat="45.1331283" lon="10.0404917"><ele>42.166666666666664</ele><time>2026-04-11T12:02:54.929Z</time></trkpt><trkpt lat="45.1331667" lon="10.0404083"><ele>42.0</ele><time>2026-04-11T12:02:55.93Z</time></trkpt><trkpt lat="45.1332333" lon="10.04029"><ele>42.0</ele><time>2026-04-11T12:02:57.93Z</time></trkpt><trkpt lat="45.13327" lon="10.0402133"><ele>42.0</ele><time>2026-04-11T12:02:59.93Z</time></trkpt><trkpt lat="45.1333433" lon="10.04008"><ele>42.0</ele><time>2026-04-11T12:03:12.93Z</time></trkpt><trkpt lat="45.133395" lon="10.03998"><ele>42.0</ele><time>2026-04-11T12:03:13.93Z</time></trkpt><trkpt lat="45.1334517" lon="10.039845"><ele>42.0</ele><time>2026-04-11T12:03:14.93Z</time></trkpt><trkpt lat="45.133515" lon="10.03969"><ele>42.0</ele><time>2026-04-11T12:03:15.93Z</time></trkpt><trkpt lat="45.1335817" lon="10.03952"><ele>42.0</ele><time>2026-04-11T12:03:16.93Z</time></trkpt><trkpt lat="45.1336633" lon="10.0393517"><ele>42.0</ele><time>2026-04-11T12:03:17.93Z</time></trkpt><trkpt lat="45.1337383" lon="10.0391867"><ele>42.0</ele><time>2026-04-11T12:03:18.93Z</time></trkpt><trkpt lat="45.1338083" lon="10.0390183"><ele>42.0</ele><time>2026-04-11T12:03:19.93Z</time></trkpt><trkpt lat="45.1338783" lon="10.0388283"><ele>42.0</ele><time>2026-04-11T12:03:20.93Z</time></trkpt><trkpt lat="45.1339517" lon="10.038655"><ele>42.0</ele><time>2026-04-11T12:03:21.93Z</time></trkpt><trkpt lat="45.1340217" lon="10.038475"><ele>42.0</ele><time>2026-04-11T12:03:22.93Z</time></trkpt><trkpt lat="45.1341017" lon="10.0383367"><ele>42.5</ele><time>2026-04-11T12:03:23.93Z</time></trkpt><trkpt lat="45.1341717" lon="10.0382117"><ele>43.0</ele><time>2026-04-11T12:03:24.93Z</time></trkpt><trkpt lat="45.1342217" lon="10.0381233"><ele>43.5</ele><time>2026-04-11T12:03:25.93Z</time></trkpt><trkpt lat="45.13426" lon="10.03805"><ele>44.0</ele><time>2026-04-11T12:03:26.93Z</time></trkpt><trkpt lat="45.13431" lon="10.0379533"><ele>44.5</ele><time>2026-04-11T12:03:28.93Z</time></trkpt><trkpt lat="45.1343267" lon="10.0378383"><ele>45.0</ele><time>2026-04-11T12:03:50.929Z</time></trkpt><trkpt lat="45.134375" lon="10.03772"><ele>45.0</ele><time>2026-04-11T12:03:51.929Z</time></trkpt><trkpt lat="45.1344583" lon="10.0375567"><ele>45.0</ele><time>2026-04-11T12:03:52.928Z</time></trkpt><trkpt lat="45.1345483" lon="10.03738"><ele>45.0</ele><time>2026-04-11T12:03:53.929Z</time></trkpt><trkpt lat="45.134635" lon="10.0372083"><ele>45.0</ele><time>2026-04-11T12:03:54.929Z</time></trkpt><trkpt lat="45.1347167" lon="10.037045"><ele>44.666666666666664</ele><time>2026-04-11T12:03:55.929Z</time></trkpt><trkpt lat="45.134805" lon="10.0368817"><ele>44.33333333333333</ele><time>2026-04-11T12:03:56.929Z</time></trkpt><trkpt lat="45.1348967" lon="10.0367017"><ele>44.0</ele><time>2026-04-11T12:03:57.929Z</time></trkpt><trkpt lat="45.1349967" lon="10.036495"><ele>44.5</ele><time>2026-04-11T12:03:58.929Z</time></trkpt><trkpt lat="45.135085" lon="10.0363117"><ele>45.0</ele><time>2026-04-11T12:03:59.928Z</time></trkpt><trkpt lat="45.13516" lon="10.0361583"><ele>45.5</ele><time>2026-04-11T12:04:00.929Z</time></trkpt><trkpt lat="45.1352167" lon="10.036035"><ele>46.0</ele><time>2026-04-11T12:04:01.929Z</time></trkpt><trkpt lat="45.135255" lon="10.0359517"><ele>46.0</ele><time>2026-04-11T12:04:02.929Z</time></trkpt><trkpt lat="45.1353067" lon="10.03583"><ele>46.0</ele><time>2026-04-11T12:04:04.929Z</time></trkpt><trkpt lat="45.13534" lon="10.0357267"><ele>46.0</ele><time>2026-04-11T12:04:32.929Z</time></trkpt><trkpt lat="45.1354033" lon="10.0356017"><ele>46.0</ele><time>2026-04-11T12:04:34.929Z</time></trkpt><trkpt lat="45.1354583" lon="10.0355183"><ele>46.0</ele><time>2026-04-11T12:04:35.929Z</time></trkpt><trkpt lat="45.13552" lon="10.0354067"><ele>46.66666666666667</ele><time>2026-04-11T12:04:36.929Z</time></trkpt><trkpt lat="45.1355867" lon="10.0352667"><ele>47.333333333333336</ele><time>2026-04-11T12:04:37.929Z</time></trkpt><trkpt lat="45.1356817" lon="10.0350833"><ele>48.0</ele><time>2026-04-11T12:04:38.929Z</time></trkpt><trkpt lat="45.1357883" lon="10.0348783"><ele>48.0</ele><time>2026-04-11T12:04:39.928Z</time></trkpt><trkpt lat="45.13589" lon="10.0346933"><ele>48.0</ele><time>2026-04-11T12:04:40.929Z</time></trkpt><trkpt lat="45.1359867" lon="10.0345017"><ele>48.0</ele><time>2026-04-11T12:04:41.929Z</time></trkpt><trkpt lat="45.1361" lon="10.0342867"><ele>48.0</ele><time>2026-04-11T12:04:42.929Z</time></trkpt><trkpt lat="45.1361917" lon="10.0341083"><ele>48.0</ele><time>2026-04-11T12:04:43.929Z</time></trkpt><trkpt lat="45.1362833" lon="10.0339317"><ele>48.0</ele><time>2026-04-11T12:04:44.929Z</time></trkpt><trkpt lat="45.1363683" lon="10.0337567"><ele>48.0</ele><time>2026-04-11T12:04:45.929Z</time></trkpt><trkpt lat="45.1364467" lon="10.0335733"><ele>48.0</ele><time>2026-04-11T12:04:46.929Z</time></trkpt><trkpt lat="45.1365333" lon="10.0334167"><ele>48.0</ele><time>2026-04-11T12:04:47.929Z</time></trkpt><trkpt lat="45.13661" lon="10.0332433"><ele>48.0</ele><time>2026-04-11T12:04:48.929Z</time></trkpt><trkpt lat="45.136705" lon="10.0330933"><ele>47.8</ele><time>2026-04-11T12:04:49.929Z</time></trkpt><trkpt lat="45.1367783" lon="10.0329483"><ele>47.599999999999994</ele><time>2026-04-11T12:04:50.929Z</time></trkpt><trkpt lat="45.1368517" lon="10.0328233"><ele>47.400000000000006</ele><time>2026-04-11T12:04:51.929Z</time></trkpt><trkpt lat="45.1369117" lon="10.0327233"><ele>47.2</ele><time>2026-04-11T12:04:52.928Z</time></trkpt><trkpt lat="45.13696" lon="10.0326183"><ele>47.0</ele><time>2026-04-11T12:04:53.929Z</time></trkpt><trkpt lat="45.1370017" lon="10.0325333"><ele>47.5</ele><time>2026-04-11T12:04:54.929Z</time></trkpt><trkpt lat="45.1370383" lon="10.03245"><ele>48.0</ele><time>2026-04-11T12:04:55.929Z</time></trkpt><trkpt lat="45.1371083" lon="10.0323633"><ele>48.5</ele><time>2026-04-11T12:04:57.929Z</time></trkpt><trkpt lat="45.137185" lon="10.0323483"><ele>49.0</ele><time>2026-04-11T12:05:49.929Z</time></trkpt><trkpt lat="45.13724" lon="10.0322583"><ele>49.50000000000001</ele><time>2026-04-11T12:05:50.928Z</time></trkpt><trkpt lat="45.1373017" lon="10.0321517"><ele>50.0</ele><time>2026-04-11T12:05:51.928Z</time></trkpt><trkpt lat="45.1373633" lon="10.0320517"><ele>49.8</ele><time>2026-04-11T12:05:52.929Z</time></trkpt><trkpt lat="45.1374117" lon="10.0319567"><ele>49.6</ele><time>2026-04-11T12:05:53.928Z</time></trkpt><trkpt lat="45.1374567" lon="10.03188"><ele>49.400000000000006</ele><time>2026-04-11T12:05:54.929Z</time></trkpt><trkpt lat="45.1374983" lon="10.03181"><ele>49.2</ele><time>2026-04-11T12:05:55.929Z</time></trkpt><trkpt lat="45.137575" lon="10.0316833"><ele>49.0</ele><time>2026-04-11T12:05:57.929Z</time></trkpt><trkpt lat="45.1376483" lon="10.0315483"><ele>49.33333333333333</ele><time>2026-04-11T12:05:59.929Z</time></trkpt><trkpt lat="45.137695" lon="10.0314733"><ele>49.666666666666664</ele><time>2026-04-11T12:06:00.928Z</time></trkpt><trkpt lat="45.13775" lon="10.0313917"><ele>50.0</ele><time>2026-04-11T12:06:01.929Z</time></trkpt><trkpt lat="45.137805" lon="10.0312983"><ele>50.33333333333333</ele><time>2026-04-11T12:06:02.929Z</time></trkpt><trkpt lat="45.1378633" lon="10.0312017"><ele>50.666666666666664</ele><time>2026-04-11T12:06:03.929Z</time></trkpt><trkpt lat="45.13792" lon="10.0310933"><ele>51.0</ele><time>2026-04-11T12:06:04.929Z</time></trkpt><trkpt lat="45.1379733" lon="10.03099"><ele>51.0</ele><time>2026-04-11T12:06:05.929Z</time></trkpt><trkpt lat="45.13803" lon="10.0308767"><ele>51.0</ele><time>2026-04-11T12:06:06.929Z</time></trkpt><trkpt lat="45.138085" lon="10.0307483"><ele>51.0</ele><time>2026-04-11T12:06:07.929Z</time></trkpt><trkpt lat="45.1381433" lon="10.0306383"><ele>51.0</ele><time>2026-04-11T12:06:08.928Z</time></trkpt><trkpt lat="45.138205" lon="10.0305167"><ele>51.0</ele><time>2026-04-11T12:06:09.929Z</time></trkpt><trkpt lat="45.1382683" lon="10.0303933"><ele>51.199999999999996</ele><time>2026-04-11T12:06:10.929Z</time></trkpt><trkpt lat="45.1383367" lon="10.0302783"><ele>51.4</ele><time>2026-04-11T12:06:11.929Z</time></trkpt><trkpt lat="45.1384067" lon="10.030155"><ele>51.6</ele><time>2026-04-11T12:06:12.929Z</time></trkpt><trkpt lat="45.1384667" lon="10.0300383"><ele>51.8</ele><time>2026-04-11T12:06:13.929Z</time></trkpt><trkpt lat="45.13854" lon="10.02991"><ele>52.0</ele><time>2026-04-11T12:06:14.929Z</time></trkpt><trkpt lat="45.1386117" lon="10.029795"><ele>51.6</ele><time>2026-04-11T12:06:15.928Z</time></trkpt><trkpt lat="45.138675" lon="10.0296717"><ele>51.2</ele><time>2026-04-11T12:06:16.929Z</time></trkpt><trkpt lat="45.13873" lon="10.029545"><ele>50.8</ele><time>2026-04-11T12:06:17.929Z</time></trkpt><trkpt lat="45.138785" lon="10.0294267"><ele>50.4</ele><time>2026-04-11T12:06:18.929Z</time></trkpt><trkpt lat="45.1388533" lon="10.029315"><ele>50.0</ele><time>2026-04-11T12:06:19.929Z</time></trkpt><trkpt lat="45.1389317" lon="10.0291983"><ele>49.8</ele><time>2026-04-11T12:06:20.929Z</time></trkpt><trkpt lat="45.13901" lon="10.02909"><ele>49.6</ele><time>2026-04-11T12:06:21.928Z</time></trkpt><trkpt lat="45.1390733" lon="10.0289667"><ele>49.400000000000006</ele><time>2026-04-11T12:06:22.929Z</time></trkpt><trkpt lat="45.1391333" lon="10.028835"><ele>49.2</ele><time>2026-04-11T12:06:23.929Z</time></trkpt><trkpt lat="45.1391917" lon="10.028705"><ele>49.0</ele><time>2026-04-11T12:06:24.929Z</time></trkpt><trkpt lat="45.1392533" lon="10.028585"><ele>49.0</ele><time>2026-04-11T12:06:25.929Z</time></trkpt><trkpt lat="45.13931" lon="10.0284567"><ele>49.0</ele><time>2026-04-11T12:06:26.929Z</time></trkpt><trkpt lat="45.1393583" lon="10.02834"><ele>49.0</ele><time>2026-04-11T12:06:27.929Z</time></trkpt><trkpt lat="45.1394167" lon="10.0282183"><ele>49.0</ele><time>2026-04-11T12:06:28.929Z</time></trkpt><trkpt lat="45.1394817" lon="10.0280883"><ele>49.0</ele><time>2026-04-11T12:06:29.929Z</time></trkpt><trkpt lat="45.139545" lon="10.0279383"><ele>49.5</ele><time>2026-04-11T12:06:30.929Z</time></trkpt><trkpt lat="45.1395967" lon="10.02778"><ele>50.0</ele><time>2026-04-11T12:06:31.928Z</time></trkpt><trkpt lat="45.1396467" lon="10.0276233"><ele>50.5</ele><time>2026-04-11T12:06:32.929Z</time></trkpt><trkpt lat="45.1396967" lon="10.0274517"><ele>51.0</ele><time>2026-04-11T12:06:33.928Z</time></trkpt><trkpt lat="45.139745" lon="10.02729"><ele>51.0</ele><time>2026-04-11T12:06:34.929Z</time></trkpt><trkpt lat="45.13978" lon="10.0271233"><ele>51.0</ele><time>2026-04-11T12:06:35.929Z</time></trkpt><trkpt lat="45.1398367" lon="10.0269833"><ele>51.0</ele><time>2026-04-11T12:06:36.929Z</time></trkpt><trkpt lat="45.13989" lon="10.02684"><ele>51.0</ele><time>2026-04-11T12:06:37.928Z</time></trkpt><trkpt lat="45.1399417" lon="10.0266983"><ele>50.25</ele><time>2026-04-11T12:06:38.928Z</time></trkpt><trkpt lat="45.140005" lon="10.0265533"><ele>49.5</ele><time>2026-04-11T12:06:39.929Z</time></trkpt><trkpt lat="45.140065" lon="10.026405"><ele>48.75</ele><time>2026-04-11T12:06:40.929Z</time></trkpt><trkpt lat="45.14012" lon="10.0262533"><ele>48.0</ele><time>2026-04-11T12:06:41.929Z</time></trkpt><trkpt lat="45.1401633" lon="10.0260833"><ele>48.0</ele><time>2026-04-11T12:06:42.929Z</time></trkpt><trkpt lat="45.14021" lon="10.02591"><ele>48.0</ele><time>2026-04-11T12:06:43.929Z</time></trkpt><trkpt lat="45.1402583" lon="10.02575"><ele>48.0</ele><time>2026-04-11T12:06:44.928Z</time></trkpt><trkpt lat="45.1403017" lon="10.0255917"><ele>48.0</ele><time>2026-04-11T12:06:45.928Z</time></trkpt><trkpt lat="45.1403467" lon="10.0254517"><ele>48.0</ele><time>2026-04-11T12:06:46.928Z</time></trkpt><trkpt lat="45.1403833" lon="10.0252983"><ele>48.0</ele><time>2026-04-11T12:06:47.928Z</time></trkpt><trkpt lat="45.1404283" lon="10.02515"><ele>48.0</ele><time>2026-04-11T12:06:48.928Z</time></trkpt><trkpt lat="45.1404833" lon="10.024995"><ele>48.0</ele><time>2026-04-11T12:06:49.928Z</time></trkpt><trkpt lat="45.14054" lon="10.0248383"><ele>47.75</ele><time>2026-04-11T12:06:50.928Z</time></trkpt><trkpt lat="45.1405967" lon="10.0246733"><ele>47.5</ele><time>2026-04-11T12:06:51.927Z</time></trkpt><trkpt lat="45.140645" lon="10.0245267"><ele>47.25</ele><time>2026-04-11T12:06:52.928Z</time></trkpt><trkpt lat="45.1406867" lon="10.0243783"><ele>47.0</ele><time>2026-04-11T12:06:53.928Z</time></trkpt><trkpt lat="45.140725" lon="10.0242283"><ele>47.25</ele><time>2026-04-11T12:06:54.928Z</time></trkpt><trkpt lat="45.14077" lon="10.02409"><ele>47.5</ele><time>2026-04-11T12:06:55.928Z</time></trkpt><trkpt lat="45.140815" lon="10.023945"><ele>47.75</ele><time>2026-04-11T12:06:56.928Z</time></trkpt><trkpt lat="45.1408633" lon="10.023795"><ele>48.0</ele><time>2026-04-11T12:06:57.928Z</time></trkpt><trkpt lat="45.1409133" lon="10.02364"><ele>48.0</ele><time>2026-04-11T12:06:58.928Z</time></trkpt><trkpt lat="45.140965" lon="10.02348"><ele>48.0</ele><time>2026-04-11T12:06:59.928Z</time></trkpt><trkpt lat="45.1410167" lon="10.0233233"><ele>48.0</ele><time>2026-04-11T12:07:00.928Z</time></trkpt><trkpt lat="45.1410617" lon="10.0231717"><ele>48.0</ele><time>2026-04-11T12:07:01.928Z</time></trkpt><trkpt lat="45.14111" lon="10.0230083"><ele>48.0</ele><time>2026-04-11T12:07:02.928Z</time></trkpt><trkpt lat="45.1411583" lon="10.02285"><ele>48.0</ele><time>2026-04-11T12:07:03.928Z</time></trkpt><trkpt lat="45.1412067" lon="10.02269"><ele>48.0</ele><time>2026-04-11T12:07:04.928Z</time></trkpt><trkpt lat="45.14125" lon="10.02253"><ele>48.0</ele><time>2026-04-11T12:07:05.928Z</time></trkpt><trkpt lat="45.1412967" lon="10.02236"><ele>48.0</ele><time>2026-04-11T12:07:06.928Z</time></trkpt><trkpt lat="45.1413433" lon="10.0221617"><ele>48.0</ele><time>2026-04-11T12:07:07.928Z</time></trkpt><trkpt lat="45.1414" lon="10.0219783"><ele>48.0</ele><time>2026-04-11T12:07:08.927Z</time></trkpt><trkpt lat="45.1414533" lon="10.0217983"><ele>48.0</ele><time>2026-04-11T12:07:09.928Z</time></trkpt><trkpt lat="45.141505" lon="10.0216183"><ele>48.0</ele><time>2026-04-11T12:07:10.928Z</time></trkpt><trkpt lat="45.1415583" lon="10.0214333"><ele>48.0</ele><time>2026-04-11T12:07:11.927Z</time></trkpt><trkpt lat="45.1416167" lon="10.0212567"><ele>48.0</ele><time>2026-04-11T12:07:12.927Z</time></trkpt><trkpt lat="45.1416783" lon="10.0210817"><ele>48.0</ele><time>2026-04-11T12:07:13.928Z</time></trkpt><trkpt lat="45.1417383" lon="10.0209"><ele>48.5</ele><time>2026-04-11T12:07:14.928Z</time></trkpt><trkpt lat="45.1417883" lon="10.0207017"><ele>49.0</ele><time>2026-04-11T12:07:15.928Z</time></trkpt><trkpt lat="45.1418383" lon="10.0205133"><ele>49.5</ele><time>2026-04-11T12:07:16.928Z</time></trkpt><trkpt lat="45.1418867" lon="10.0203383"><ele>50.0</ele><time>2026-04-11T12:07:17.928Z</time></trkpt><trkpt lat="45.1419283" lon="10.0201567"><ele>49.75</ele><time>2026-04-11T12:07:18.928Z</time></trkpt><trkpt lat="45.1419667" lon="10.01997"><ele>49.5</ele><time>2026-04-11T12:07:19.928Z</time></trkpt><trkpt lat="45.1420017" lon="10.0197933"><ele>49.25</ele><time>2026-04-11T12:07:20.928Z</time></trkpt><trkpt lat="45.1420333" lon="10.0196133"><ele>49.0</ele><time>2026-04-11T12:07:21.928Z</time></trkpt><trkpt lat="45.1420517" lon="10.019425"><ele>49.0</ele><time>2026-04-11T12:07:22.928Z</time></trkpt><trkpt lat="45.1420717" lon="10.0192567"><ele>49.0</ele><time>2026-04-11T12:07:23.928Z</time></trkpt><trkpt lat="45.1420783" lon="10.0190967"><ele>49.0</ele><time>2026-04-11T12:07:24.928Z</time></trkpt><trkpt lat="45.1420817" lon="10.0189267"><ele>49.0</ele><time>2026-04-11T12:07:25.928Z</time></trkpt><trkpt lat="45.1420983" lon="10.0187583"><ele>49.0</ele><time>2026-04-11T12:07:26.928Z</time></trkpt><trkpt lat="45.14212" lon="10.0185833"><ele>49.0</ele><time>2026-04-11T12:07:27.928Z</time></trkpt><trkpt lat="45.14213" lon="10.0183917"><ele>49.0</ele><time>2026-04-11T12:07:28.928Z</time></trkpt><trkpt lat="45.1421433" lon="10.01821"><ele>49.0</ele><time>2026-04-11T12:07:29.928Z</time></trkpt><trkpt lat="45.1421517" lon="10.0180367"><ele>49.2</ele><time>2026-04-11T12:07:30.928Z</time></trkpt><trkpt lat="45.14215" lon="10.017865"><ele>49.400000000000006</ele><time>2026-04-11T12:07:31.928Z</time></trkpt><trkpt lat="45.1421533" lon="10.0177033"><ele>49.6</ele><time>2026-04-11T12:07:32.928Z</time></trkpt><trkpt lat="45.1421567" lon="10.01755"><ele>49.8</ele><time>2026-04-11T12:07:33.928Z</time></trkpt><trkpt lat="45.1421667" lon="10.01741"><ele>50.0</ele><time>2026-04-11T12:07:34.928Z</time></trkpt><trkpt lat="45.14217" lon="10.0172583"><ele>50.2</ele><time>2026-04-11T12:07:35.928Z</time></trkpt><trkpt lat="45.14217" lon="10.01711"><ele>50.4</ele><time>2026-04-11T12:07:36.928Z</time></trkpt><trkpt lat="45.1421817" lon="10.016965"><ele>50.599999999999994</ele><time>2026-04-11T12:07:37.928Z</time></trkpt><trkpt lat="45.1421867" lon="10.0168283"><ele>50.8</ele><time>2026-04-11T12:07:38.928Z</time></trkpt><trkpt lat="45.14219" lon="10.0166983"><ele>51.0</ele><time>2026-04-11T12:07:39.928Z</time></trkpt><trkpt lat="45.1421933" lon="10.016575"><ele>51.0</ele><time>2026-04-11T12:07:40.928Z</time></trkpt><trkpt lat="45.1421917" lon="10.016445"><ele>51.0</ele><time>2026-04-11T12:07:41.928Z</time></trkpt><trkpt lat="45.1421817" lon="10.0163117"><ele>51.0</ele><time>2026-04-11T12:07:42.928Z</time></trkpt><trkpt lat="45.1421717" lon="10.0161967"><ele>51.0</ele><time>2026-04-11T12:07:43.928Z</time></trkpt><trkpt lat="45.1421683" lon="10.0160917"><ele>51.0</ele><time>2026-04-11T12:07:44.928Z</time></trkpt><trkpt lat="45.1421633" lon="10.0159917"><ele>51.0</ele><time>2026-04-11T12:07:45.928Z</time></trkpt><trkpt lat="45.14217" lon="10.01589"><ele>50.8</ele><time>2026-04-11T12:07:46.928Z</time></trkpt><trkpt lat="45.14218" lon="10.0157933"><ele>50.599999999999994</ele><time>2026-04-11T12:07:47.928Z</time></trkpt><trkpt lat="45.1422267" lon="10.01564"><ele>50.4</ele><time>2026-04-11T12:07:49.928Z</time></trkpt><trkpt lat="45.14226" lon="10.0154717"><ele>50.2</ele><time>2026-04-11T12:07:51.928Z</time></trkpt><trkpt lat="45.1423133" lon="10.015325"><ele>50.0</ele><time>2026-04-11T12:07:53.928Z</time></trkpt><trkpt lat="45.1424217" lon="10.0152317"><ele>49.833333333333336</ele><time>2026-04-11T12:07:55.928Z</time></trkpt><trkpt lat="45.1424883" lon="10.0152033"><ele>49.66666666666667</ele><time>2026-04-11T12:07:56.928Z</time></trkpt><trkpt lat="45.1425633" lon="10.0151533"><ele>49.5</ele><time>2026-04-11T12:07:57.928Z</time></trkpt><trkpt lat="45.142635" lon="10.0151133"><ele>49.33333333333333</ele><time>2026-04-11T12:07:58.928Z</time></trkpt><trkpt lat="45.1427033" lon="10.015055"><ele>49.166666666666664</ele><time>2026-04-11T12:07:59.928Z</time></trkpt><trkpt lat="45.1427567" lon="10.01498"><ele>49.0</ele><time>2026-04-11T12:08:00.928Z</time></trkpt><trkpt lat="45.14279" lon="10.014885"><ele>49.0</ele><time>2026-04-11T12:08:01.928Z</time></trkpt><trkpt lat="45.1428183" lon="10.0147867"><ele>49.0</ele><time>2026-04-11T12:08:02.928Z</time></trkpt><trkpt lat="45.14285" lon="10.0146517"><ele>49.0</ele><time>2026-04-11T12:08:03.928Z</time></trkpt><trkpt lat="45.14286" lon="10.0145117"><ele>49.0</ele><time>2026-04-11T12:08:04.928Z</time></trkpt><trkpt lat="45.14286" lon="10.01437"><ele>49.0</ele><time>2026-04-11T12:08:05.928Z</time></trkpt><trkpt lat="45.1428583" lon="10.0142283"><ele>49.2</ele><time>2026-04-11T12:08:06.928Z</time></trkpt><trkpt lat="45.1428617" lon="10.0141083"><ele>49.400000000000006</ele><time>2026-04-11T12:08:07.928Z</time></trkpt><trkpt lat="45.1428617" lon="10.0139867"><ele>49.6</ele><time>2026-04-11T12:08:08.927Z</time></trkpt><trkpt lat="45.14286" lon="10.0138567"><ele>49.8</ele><time>2026-04-11T12:08:09.928Z</time></trkpt><trkpt lat="45.1428533" lon="10.0137283"><ele>50.0</ele><time>2026-04-11T12:08:10.928Z</time></trkpt><trkpt lat="45.1428383" lon="10.01359"><ele>50.0</ele><time>2026-04-11T12:08:11.928Z</time></trkpt><trkpt lat="45.1428383" lon="10.0134467"><ele>50.0</ele><time>2026-04-11T12:08:12.928Z</time></trkpt><trkpt lat="45.14283" lon="10.0133033"><ele>50.0</ele><time>2026-04-11T12:08:13.928Z</time></trkpt><trkpt lat="45.14283" lon="10.0131567"><ele>50.0</ele><time>2026-04-11T12:08:14.928Z</time></trkpt><trkpt lat="45.1428333" lon="10.0130067"><ele>50.0</ele><time>2026-04-11T12:08:15.927Z</time></trkpt><trkpt lat="45.1428367" lon="10.0128467"><ele>49.833333333333336</ele><time>2026-04-11T12:08:16.928Z</time></trkpt><trkpt lat="45.1428367" lon="10.01271"><ele>49.66666666666667</ele><time>2026-04-11T12:08:17.928Z</time></trkpt><trkpt lat="45.1428367" lon="10.0125717"><ele>49.5</ele><time>2026-04-11T12:08:18.928Z</time></trkpt><trkpt lat="45.1428367" lon="10.012435"><ele>49.33333333333333</ele><time>2026-04-11T12:08:19.927Z</time></trkpt><trkpt lat="45.1428283" lon="10.0123217"><ele>49.166666666666664</ele><time>2026-04-11T12:08:20.928Z</time></trkpt><trkpt lat="45.1428217" lon="10.012215"><ele>49.0</ele><time>2026-04-11T12:08:21.928Z</time></trkpt><trkpt lat="45.1428217" lon="10.0121167"><ele>49.0</ele><time>2026-04-11T12:08:22.928Z</time></trkpt><trkpt lat="45.142815" lon="10.012015"><ele>49.0</ele><time>2026-04-11T12:08:23.928Z</time></trkpt><trkpt lat="45.1428067" lon="10.0119217"><ele>49.0</ele><time>2026-04-11T12:08:24.928Z</time></trkpt><trkpt lat="45.1428083" lon="10.0118317"><ele>49.0</ele><time>2026-04-11T12:08:25.928Z</time></trkpt><trkpt lat="45.1428067" lon="10.0117333"><ele>49.0</ele><time>2026-04-11T12:08:26.928Z</time></trkpt><trkpt lat="45.1427983" lon="10.0116317"><ele>49.0</ele><time>2026-04-11T12:08:27.928Z</time></trkpt><trkpt lat="45.1428" lon="10.011525"><ele>49.0</ele><time>2026-04-11T12:08:28.928Z</time></trkpt><trkpt lat="45.1427983" lon="10.01141"><ele>48.400000000000006</ele><time>2026-04-11T12:08:29.928Z</time></trkpt><trkpt lat="45.1428017" lon="10.0112883"><ele>47.8</ele><time>2026-04-11T12:08:30.928Z</time></trkpt><trkpt lat="45.1428133" lon="10.01116"><ele>47.2</ele><time>2026-04-11T12:08:31.928Z</time></trkpt><trkpt lat="45.1428367" lon="10.0110333"><ele>46.599999999999994</ele><time>2026-04-11T12:08:32.928Z</time></trkpt><trkpt lat="45.1428833" lon="10.0109233"><ele>46.0</ele><time>2026-04-11T12:08:33.928Z</time></trkpt><trkpt lat="45.1429433" lon="10.0108117"><ele>46.0</ele><time>2026-04-11T12:08:34.928Z</time></trkpt><trkpt lat="45.1430067" lon="10.0107083"><ele>46.0</ele><time>2026-04-11T12:08:35.928Z</time></trkpt><trkpt lat="45.1430667" lon="10.0106033"><ele>46.0</ele><time>2026-04-11T12:08:36.928Z</time></trkpt><trkpt lat="45.1431183" lon="10.0105017"><ele>46.0</ele><time>2026-04-11T12:08:37.928Z</time></trkpt><trkpt lat="45.1431783" lon="10.0104233"><ele>46.0</ele><time>2026-04-11T12:08:38.928Z</time></trkpt><trkpt lat="45.1432517" lon="10.0103733"><ele>46.0</ele><time>2026-04-11T12:08:39.927Z</time></trkpt><trkpt lat="45.1433333" lon="10.0103467"><ele>45.599999999999994</ele><time>2026-04-11T12:08:40.928Z</time></trkpt><trkpt lat="45.1434567" lon="10.01033"><ele>45.2</ele><time>2026-04-11T12:08:41.928Z</time></trkpt><trkpt lat="45.1435767" lon="10.0103367"><ele>44.8</ele><time>2026-04-11T12:08:42.928Z</time></trkpt><trkpt lat="45.1436783" lon="10.0103217"><ele>44.400000000000006</ele><time>2026-04-11T12:08:43.928Z</time></trkpt><trkpt lat="45.1437583" lon="10.0103017"><ele>44.0</ele><time>2026-04-11T12:08:44.928Z</time></trkpt><trkpt lat="45.1438317" lon="10.0102667"><ele>44.0</ele><time>2026-04-11T12:08:45.928Z</time></trkpt><trkpt lat="45.1438817" lon="10.0102083"><ele>44.0</ele><time>2026-04-11T12:08:46.928Z</time></trkpt><trkpt lat="45.1439233" lon="10.0101317"><ele>44.0</ele><time>2026-04-11T12:08:47.928Z</time></trkpt><trkpt lat="45.1439383" lon="10.0100367"><ele>44.0</ele><time>2026-04-11T12:08:48.928Z</time></trkpt><trkpt lat="45.143935" lon="10.0099217"><ele>44.0</ele><time>2026-04-11T12:08:49.928Z</time></trkpt><trkpt lat="45.143935" lon="10.009785"><ele>44.0</ele><time>2026-04-11T12:08:50.928Z</time></trkpt><trkpt lat="45.1439367" lon="10.0096233"><ele>44.25</ele><time>2026-04-11T12:08:51.928Z</time></trkpt><trkpt lat="45.1439383" lon="10.0094483"><ele>44.5</ele><time>2026-04-11T12:08:52.928Z</time></trkpt><trkpt lat="45.143955" lon="10.009275"><ele>44.75</ele><time>2026-04-11T12:08:53.928Z</time></trkpt><trkpt lat="45.143955" lon="10.0090833"><ele>45.0</ele><time>2026-04-11T12:08:54.928Z</time></trkpt><trkpt lat="45.1439733" lon="10.008905"><ele>44.5</ele><time>2026-04-11T12:08:55.928Z</time></trkpt><trkpt lat="45.1440067" lon="10.0087533"><ele>44.0</ele><time>2026-04-11T12:08:56.928Z</time></trkpt><trkpt lat="45.1440617" lon="10.0086083"><ele>43.5</ele><time>2026-04-11T12:08:57.928Z</time></trkpt><trkpt lat="45.144125" lon="10.0084683"><ele>43.0</ele><time>2026-04-11T12:08:58.928Z</time></trkpt><trkpt lat="45.144195" lon="10.0083233"><ele>42.599999999999994</ele><time>2026-04-11T12:08:59.928Z</time></trkpt><trkpt lat="45.144255" lon="10.008195"><ele>42.199999999999996</ele><time>2026-04-11T12:09:00.928Z</time></trkpt><trkpt lat="45.14432" lon="10.0080767"><ele>41.8</ele><time>2026-04-11T12:09:01.927Z</time></trkpt><trkpt lat="45.1443683" lon="10.00796"><ele>41.4</ele><time>2026-04-11T12:09:02.927Z</time></trkpt><trkpt lat="45.1444183" lon="10.0078583"><ele>41.0</ele><time>2026-04-11T12:09:03.928Z</time></trkpt><trkpt lat="45.1444717" lon="10.0077533"><ele>41.0</ele><time>2026-04-11T12:09:04.928Z</time></trkpt><trkpt lat="45.144525" lon="10.0076433"><ele>41.0</ele><time>2026-04-11T12:09:05.928Z</time></trkpt><trkpt lat="45.1445817" lon="10.0075417"><ele>41.0</ele><time>2026-04-11T12:09:06.928Z</time></trkpt><trkpt lat="45.144635" lon="10.00744"><ele>41.0</ele><time>2026-04-11T12:09:07.928Z</time></trkpt><trkpt lat="45.14469" lon="10.00735"><ele>41.0</ele><time>2026-04-11T12:09:08.928Z</time></trkpt><trkpt lat="45.1447317" lon="10.007265"><ele>41.0</ele><time>2026-04-11T12:09:09.928Z</time></trkpt><trkpt lat="45.144785" lon="10.0071867"><ele>41.4</ele><time>2026-04-11T12:09:10.928Z</time></trkpt><trkpt lat="45.14483" lon="10.00711"><ele>41.8</ele><time>2026-04-11T12:09:11.928Z</time></trkpt><trkpt lat="45.1449033" lon="10.0069783"><ele>42.199999999999996</ele><time>2026-04-11T12:09:13.928Z</time></trkpt><trkpt lat="45.1449983" lon="10.00686"><ele>42.599999999999994</ele><time>2026-04-11T12:09:15.928Z</time></trkpt><trkpt lat="45.1450517" lon="10.0067917"><ele>43.0</ele><time>2026-04-11T12:09:16.928Z</time></trkpt><trkpt lat="45.1451083" lon="10.0067217"><ele>43.16666666666667</ele><time>2026-04-11T12:09:17.927Z</time></trkpt><trkpt lat="45.1451667" lon="10.00665"><ele>43.333333333333336</ele><time>2026-04-11T12:09:18.928Z</time></trkpt><trkpt lat="45.1452283" lon="10.0065733"><ele>43.5</ele><time>2026-04-11T12:09:19.928Z</time></trkpt><trkpt lat="45.1452983" lon="10.0065067"><ele>43.666666666666664</ele><time>2026-04-11T12:09:20.928Z</time></trkpt><trkpt lat="45.1453717" lon="10.006445"><ele>43.83333333333333</ele><time>2026-04-11T12:09:21.928Z</time></trkpt><trkpt lat="45.1454367" lon="10.0063883"><ele>44.0</ele><time>2026-04-11T12:09:22.927Z</time></trkpt><trkpt lat="45.1455067" lon="10.0063183"><ele>44.0</ele><time>2026-04-11T12:09:23.928Z</time></trkpt><trkpt lat="45.1455883" lon="10.00625"><ele>44.0</ele><time>2026-04-11T12:09:24.928Z</time></trkpt><trkpt lat="45.14567" lon="10.006175"><ele>44.0</ele><time>2026-04-11T12:09:25.928Z</time></trkpt><trkpt lat="45.1457517" lon="10.0060983"><ele>44.0</ele><time>2026-04-11T12:09:26.928Z</time></trkpt><trkpt lat="45.1458383" lon="10.00602"><ele>44.0</ele><time>2026-04-11T12:09:27.928Z</time></trkpt><trkpt lat="45.14592" lon="10.0059433"><ele>44.0</ele><time>2026-04-11T12:09:28.928Z</time></trkpt><trkpt lat="45.146" lon="10.0058617"><ele>44.0</ele><time>2026-04-11T12:09:29.928Z</time></trkpt><trkpt lat="45.1460717" lon="10.0057733"><ele>44.0</ele><time>2026-04-11T12:09:30.928Z</time></trkpt><trkpt lat="45.1461417" lon="10.0056867"><ele>44.0</ele><time>2026-04-11T12:09:31.928Z</time></trkpt><trkpt lat="45.1462083" lon="10.0055967"><ele>44.0</ele><time>2026-04-11T12:09:32.928Z</time></trkpt><trkpt lat="45.1462783" lon="10.005505"><ele>44.0</ele><time>2026-04-11T12:09:33.928Z</time></trkpt><trkpt lat="45.146345" lon="10.0054117"><ele>44.0</ele><time>2026-04-11T12:09:34.928Z</time></trkpt><trkpt lat="45.1464133" lon="10.0053217"><ele>44.0</ele><time>2026-04-11T12:09:35.927Z</time></trkpt><trkpt lat="45.1464867" lon="10.0052317"><ele>44.0</ele><time>2026-04-11T12:09:36.928Z</time></trkpt><trkpt lat="45.1465567" lon="10.005135"><ele>44.0</ele><time>2026-04-11T12:09:37.928Z</time></trkpt><trkpt lat="45.1466217" lon="10.005045"><ele>44.2</ele><time>2026-04-11T12:09:38.928Z</time></trkpt><trkpt lat="45.1466783" lon="10.0049483"><ele>44.400000000000006</ele><time>2026-04-11T12:09:39.928Z</time></trkpt><trkpt lat="45.1467383" lon="10.004855"><ele>44.6</ele><time>2026-04-11T12:09:40.928Z</time></trkpt><trkpt lat="45.1468033" lon="10.0047683"><ele>44.8</ele><time>2026-04-11T12:09:41.928Z</time></trkpt><trkpt lat="45.1468667" lon="10.0046683"><ele>45.0</ele><time>2026-04-11T12:09:42.927Z</time></trkpt><trkpt lat="45.1469367" lon="10.004575"><ele>45.0</ele><time>2026-04-11T12:09:43.927Z</time></trkpt><trkpt lat="45.1470133" lon="10.004475"><ele>45.0</ele><time>2026-04-11T12:09:44.928Z</time></trkpt><trkpt lat="45.1470883" lon="10.0043717"><ele>45.0</ele><time>2026-04-11T12:09:45.928Z</time></trkpt><trkpt lat="45.1471617" lon="10.0042633"><ele>45.0</ele><time>2026-04-11T12:09:46.928Z</time></trkpt><trkpt lat="45.1472417" lon="10.0041433"><ele>45.0</ele><time>2026-04-11T12:09:47.928Z</time></trkpt><trkpt lat="45.1473283" lon="10.0040283"><ele>44.75</ele><time>2026-04-11T12:09:48.927Z</time></trkpt><trkpt lat="45.1474167" lon="10.0039083"><ele>44.5</ele><time>2026-04-11T12:09:49.928Z</time></trkpt><trkpt lat="45.147505" lon="10.0037867"><ele>44.25</ele><time>2026-04-11T12:09:50.926Z</time></trkpt><trkpt lat="45.1476017" lon="10.0036717"><ele>44.0</ele><time>2026-04-11T12:09:51.927Z</time></trkpt><trkpt lat="45.1476883" lon="10.0035533"><ele>44.0</ele><time>2026-04-11T12:09:52.926Z</time></trkpt><trkpt lat="45.1477767" lon="10.0034417"><ele>44.0</ele><time>2026-04-11T12:09:53.927Z</time></trkpt><trkpt lat="45.1478683" lon="10.0033267"><ele>44.0</ele><time>2026-04-11T12:09:54.926Z</time></trkpt><trkpt lat="45.14795" lon="10.00322"><ele>44.0</ele><time>2026-04-11T12:09:55.926Z</time></trkpt><trkpt lat="45.148015" lon="10.0031283"><ele>44.0</ele><time>2026-04-11T12:09:56.926Z</time></trkpt><trkpt lat="45.148075" lon="10.0030467"><ele>44.400000000000006</ele><time>2026-04-11T12:09:57.927Z</time></trkpt><trkpt lat="45.14813" lon="10.0029817"><ele>44.8</ele><time>2026-04-11T12:09:58.927Z</time></trkpt><trkpt lat="45.148215" lon="10.00287"><ele>45.2</ele><time>2026-04-11T12:10:00.927Z</time></trkpt><trkpt lat="45.1482883" lon="10.00279"><ele>45.599999999999994</ele><time>2026-04-11T12:10:02.927Z</time></trkpt><trkpt lat="45.1483717" lon="10.002695"><ele>46.0</ele><time>2026-04-11T12:10:04.926Z</time></trkpt><trkpt lat="45.1484433" lon="10.0025583"><ele>45.833333333333336</ele><time>2026-04-11T12:10:06.927Z</time></trkpt><trkpt lat="45.1484917" lon="10.0024733"><ele>45.66666666666667</ele><time>2026-04-11T12:10:07.927Z</time></trkpt><trkpt lat="45.1485533" lon="10.002385"><ele>45.5</ele><time>2026-04-11T12:10:08.927Z</time></trkpt><trkpt lat="45.148615" lon="10.002305"><ele>45.333333333333336</ele><time>2026-04-11T12:10:09.927Z</time></trkpt><trkpt lat="45.14867" lon="10.0022383"><ele>45.166666666666664</ele><time>2026-04-11T12:10:10.927Z</time></trkpt><trkpt lat="45.14872" lon="10.0021717"><ele>45.0</ele><time>2026-04-11T12:10:11.927Z</time></trkpt><trkpt lat="45.1487717" lon="10.0021167"><ele>45.0</ele><time>2026-04-11T12:10:12.927Z</time></trkpt><trkpt lat="45.1488483" lon="10.0020467"><ele>45.0</ele><time>2026-04-11T12:10:14.927Z</time></trkpt><trkpt lat="45.1489167" lon="10.0020217"><ele>45.0</ele><time>2026-04-11T12:10:17.927Z</time></trkpt><trkpt lat="45.14898" lon="10.0020217"><ele>45.0</ele><time>2026-04-11T12:10:19.927Z</time></trkpt><trkpt lat="45.1490817" lon="10.0020417"><ele>45.0</ele><time>2026-04-11T12:10:21.927Z</time></trkpt><trkpt lat="45.1491633" lon="10.002065"><ele>45.0</ele><time>2026-04-11T12:10:22.927Z</time></trkpt><trkpt lat="45.1492733" lon="10.0020983"><ele>45.0</ele><time>2026-04-11T12:10:23.927Z</time></trkpt><trkpt lat="45.14938" lon="10.00213"><ele>45.0</ele><time>2026-04-11T12:10:24.926Z</time></trkpt><trkpt lat="45.1494783" lon="10.0021383"><ele>45.0</ele><time>2026-04-11T12:10:25.927Z</time></trkpt><trkpt lat="45.1495633" lon="10.002105"><ele>45.0</ele><time>2026-04-11T12:10:26.927Z</time></trkpt><trkpt lat="45.1496417" lon="10.0020433"><ele>45.0</ele><time>2026-04-11T12:10:27.927Z</time></trkpt><trkpt lat="45.149705" lon="10.0019583"><ele>45.0</ele><time>2026-04-11T12:10:28.927Z</time></trkpt><trkpt lat="45.1497483" lon="10.0018383"><ele>45.0</ele><time>2026-04-11T12:10:29.927Z</time></trkpt><trkpt lat="45.14978" lon="10.0017117"><ele>45.0</ele><time>2026-04-11T12:10:30.927Z</time></trkpt><trkpt lat="45.149785" lon="10.001555"><ele>45.0</ele><time>2026-04-11T12:10:31.927Z</time></trkpt><trkpt lat="45.1497817" lon="10.0014033"><ele>45.0</ele><time>2026-04-11T12:10:32.927Z</time></trkpt><trkpt lat="45.1497783" lon="10.00124"><ele>45.0</ele><time>2026-04-11T12:10:33.927Z</time></trkpt><trkpt lat="45.1497883" lon="10.001075"><ele>45.0</ele><time>2026-04-11T12:10:34.927Z</time></trkpt><trkpt lat="45.14982" lon="10.0009117"><ele>45.0</ele><time>2026-04-11T12:10:35.927Z</time></trkpt><trkpt lat="45.1498767" lon="10.0007483"><ele>45.0</ele><time>2026-04-11T12:10:36.927Z</time></trkpt><trkpt lat="45.1499517" lon="10.0006117"><ele>45.5</ele><time>2026-04-11T12:10:37.927Z</time></trkpt><trkpt lat="45.150035" lon="10.000485"><ele>46.0</ele><time>2026-04-11T12:10:38.927Z</time></trkpt><trkpt lat="45.1501183" lon="10.00037"><ele>46.5</ele><time>2026-04-11T12:10:39.927Z</time></trkpt><trkpt lat="45.1502033" lon="10.0002533"><ele>47.0</ele><time>2026-04-11T12:10:40.927Z</time></trkpt><trkpt lat="45.15029" lon="10.00014"><ele>47.0</ele><time>2026-04-11T12:10:41.927Z</time></trkpt><trkpt lat="45.1503767" lon="10.00003"><ele>47.0</ele><time>2026-04-11T12:10:42.927Z</time></trkpt><trkpt lat="45.1504717" lon="9.99991"><ele>47.0</ele><time>2026-04-11T12:10:43.927Z</time></trkpt><trkpt lat="45.15057" lon="9.999795"><ele>47.0</ele><time>2026-04-11T12:10:44.927Z</time></trkpt><trkpt lat="45.15065" lon="9.9996917"><ele>46.6</ele><time>2026-04-11T12:10:45.926Z</time></trkpt><trkpt lat="45.1507333" lon="9.9995933"><ele>46.2</ele><time>2026-04-11T12:10:46.927Z</time></trkpt><trkpt lat="45.15081" lon="9.9995083"><ele>45.8</ele><time>2026-04-11T12:10:47.927Z</time></trkpt><trkpt lat="45.15088" lon="9.99944"><ele>45.4</ele><time>2026-04-11T12:10:48.927Z</time></trkpt><trkpt lat="45.1509733" lon="9.999375"><ele>45.0</ele><time>2026-04-11T12:10:50.927Z</time></trkpt><trkpt lat="45.1510617" lon="9.9993617"><ele>45.0</ele><time>2026-04-11T12:10:54.927Z</time></trkpt><trkpt lat="45.1511967" lon="9.9993417"><ele>45.0</ele><time>2026-04-11T12:10:56.927Z</time></trkpt><trkpt lat="45.15127" lon="9.9993067"><ele>45.0</ele><time>2026-04-11T12:10:57.927Z</time></trkpt><trkpt lat="45.151345" lon="9.9992567"><ele>45.0</ele><time>2026-04-11T12:10:58.927Z</time></trkpt><trkpt lat="45.151395" lon="9.99919"><ele>45.0</ele><time>2026-04-11T12:10:59.927Z</time></trkpt><trkpt lat="45.151445" lon="9.9990933"><ele>45.0</ele><time>2026-04-11T12:11:00.927Z</time></trkpt><trkpt lat="45.1514833" lon="9.9989867"><ele>45.333333333333336</ele><time>2026-04-11T12:11:01.927Z</time></trkpt><trkpt lat="45.15151" lon="9.9988717"><ele>45.666666666666664</ele><time>2026-04-11T12:11:02.927Z</time></trkpt><trkpt lat="45.1515217" lon="9.9987617"><ele>46.0</ele><time>2026-04-11T12:11:03.927Z</time></trkpt><trkpt lat="45.1515317" lon="9.9986517"><ele>46.33333333333333</ele><time>2026-04-11T12:11:04.927Z</time></trkpt><trkpt lat="45.1515517" lon="9.99854"><ele>46.666666666666664</ele><time>2026-04-11T12:11:05.927Z</time></trkpt><trkpt lat="45.1515883" lon="9.998425"><ele>47.0</ele><time>2026-04-11T12:11:06.927Z</time></trkpt><trkpt lat="45.151645" lon="9.998315"><ele>47.25</ele><time>2026-04-11T12:11:07.927Z</time></trkpt><trkpt lat="45.1517117" lon="9.9982"><ele>47.5</ele><time>2026-04-11T12:11:08.927Z</time></trkpt><trkpt lat="45.1517933" lon="9.9980867"><ele>47.75</ele><time>2026-04-11T12:11:09.927Z</time></trkpt><trkpt lat="45.15188" lon="9.9979683"><ele>48.0</ele><time>2026-04-11T12:11:10.927Z</time></trkpt><trkpt lat="45.1519683" lon="9.9978483"><ele>48.0</ele><time>2026-04-11T12:11:11.927Z</time></trkpt><trkpt lat="45.1520567" lon="9.9977283"><ele>48.0</ele><time>2026-04-11T12:11:12.927Z</time></trkpt><trkpt lat="45.1521533" lon="9.9975983"><ele>48.0</ele><time>2026-04-11T12:11:13.927Z</time></trkpt><trkpt lat="45.1522517" lon="9.99746"><ele>48.0</ele><time>2026-04-11T12:11:14.927Z</time></trkpt><trkpt lat="45.15236" lon="9.9973"><ele>48.0</ele><time>2026-04-11T12:11:15.927Z</time></trkpt><trkpt lat="45.152475" lon="9.9971067"><ele>48.0</ele><time>2026-04-11T12:11:16.927Z</time></trkpt><trkpt lat="45.1526183" lon="9.996905"><ele>48.0</ele><time>2026-04-11T12:11:17.927Z</time></trkpt><trkpt lat="45.1527667" lon="9.99669"><ele>48.0</ele><time>2026-04-11T12:11:18.927Z</time></trkpt><trkpt lat="45.15291" lon="9.9964717"><ele>48.0</ele><time>2026-04-11T12:11:19.927Z</time></trkpt><trkpt lat="45.153065" lon="9.996255"><ele>48.0</ele><time>2026-04-11T12:11:20.926Z</time></trkpt><trkpt lat="45.1532267" lon="9.9960317"><ele>48.0</ele><time>2026-04-11T12:11:21.927Z</time></trkpt><trkpt lat="45.1533917" lon="9.9958083"><ele>48.0</ele><time>2026-04-11T12:11:22.927Z</time></trkpt><trkpt lat="45.1535567" lon="9.9955967"><ele>48.0</ele><time>2026-04-11T12:11:23.927Z</time></trkpt><trkpt lat="45.1537133" lon="9.9953867"><ele>48.0</ele><time>2026-04-11T12:11:24.926Z</time></trkpt><trkpt lat="45.15388" lon="9.9951733"><ele>48.0</ele><time>2026-04-11T12:11:25.927Z</time></trkpt><trkpt lat="45.15404" lon="9.9949517"><ele>47.333333333333336</ele><time>2026-04-11T12:11:26.927Z</time></trkpt><trkpt lat="45.1542017" lon="9.9947283"><ele>46.66666666666667</ele><time>2026-04-11T12:11:27.927Z</time></trkpt><trkpt lat="45.1543517" lon="9.99451"><ele>46.0</ele><time>2026-04-11T12:11:28.927Z</time></trkpt><trkpt lat="45.1545083" lon="9.994285"><ele>46.0</ele><time>2026-04-11T12:11:29.927Z</time></trkpt><trkpt lat="45.154665" lon="9.99406"><ele>46.0</ele><time>2026-04-11T12:11:30.927Z</time></trkpt><trkpt lat="45.1548183" lon="9.9938283"><ele>46.0</ele><time>2026-04-11T12:11:31.926Z</time></trkpt><trkpt lat="45.1549767" lon="9.99359"><ele>46.0</ele><time>2026-04-11T12:11:32.927Z</time></trkpt><trkpt lat="45.15514" lon="9.993345"><ele>46.0</ele><time>2026-04-11T12:11:33.927Z</time></trkpt><trkpt lat="45.155305" lon="9.99311"><ele>45.5</ele><time>2026-04-11T12:11:34.927Z</time></trkpt><trkpt lat="45.15547" lon="9.9928733"><ele>45.0</ele><time>2026-04-11T12:11:35.927Z</time></trkpt><trkpt lat="45.15565" lon="9.99263"><ele>46.0</ele><time>2026-04-11T12:11:36.927Z</time></trkpt><trkpt lat="45.155835" lon="9.9923917"><ele>47.0</ele><time>2026-04-11T12:11:37.927Z</time></trkpt><trkpt lat="45.1560117" lon="9.9921633"><ele>47.0</ele><time>2026-04-11T12:11:38.927Z</time></trkpt><trkpt lat="45.1561933" lon="9.991935"><ele>47.0</ele><time>2026-04-11T12:11:39.927Z</time></trkpt><trkpt lat="45.1563733" lon="9.9916983"><ele>46.0</ele><time>2026-04-11T12:11:40.927Z</time></trkpt><trkpt lat="45.1565517" lon="9.9914533"><ele>45.0</ele><time>2026-04-11T12:11:41.927Z</time></trkpt><trkpt lat="45.156725" lon="9.9912033"><ele>45.0</ele><time>2026-04-11T12:11:42.927Z</time></trkpt><trkpt lat="45.1568983" lon="9.9909583"><ele>45.0</ele><time>2026-04-11T12:11:43.927Z</time></trkpt><trkpt lat="45.15708" lon="9.9907183"><ele>46.0</ele><time>2026-04-11T12:11:44.927Z</time></trkpt><trkpt lat="45.15726" lon="9.9904717"><ele>47.0</ele><time>2026-04-11T12:11:45.927Z</time></trkpt><trkpt lat="45.1574367" lon="9.9902267"><ele>49.0</ele><time>2026-04-11T12:11:46.927Z</time></trkpt><trkpt lat="45.1576167" lon="9.9899783"><ele>51.0</ele><time>2026-04-11T12:11:47.927Z</time></trkpt><trkpt lat="45.15779" lon="9.9897383"><ele>51.0</ele><time>2026-04-11T12:11:48.927Z</time></trkpt><trkpt lat="45.1579517" lon="9.98951"><ele>51.0</ele><time>2026-04-11T12:11:49.926Z</time></trkpt><trkpt lat="45.158105" lon="9.9892933"><ele>51.0</ele><time>2026-04-11T12:11:50.927Z</time></trkpt><trkpt lat="45.1582483" lon="9.9890833"><ele>49.666666666666664</ele><time>2026-04-11T12:11:51.927Z</time></trkpt><trkpt lat="45.1583833" lon="9.9888967"><ele>48.33333333333333</ele><time>2026-04-11T12:11:52.927Z</time></trkpt><trkpt lat="45.158495" lon="9.988745"><ele>47.0</ele><time>2026-04-11T12:11:53.927Z</time></trkpt><trkpt lat="45.1585883" lon="9.9886167"><ele>47.0</ele><time>2026-04-11T12:11:54.926Z</time></trkpt><trkpt lat="45.158665" lon="9.9885333"><ele>47.0</ele><time>2026-04-11T12:11:55.927Z</time></trkpt><trkpt lat="45.1587467" lon="9.988475"><ele>47.0</ele><time>2026-04-11T12:11:56.926Z</time></trkpt><trkpt lat="45.1588383" lon="9.98846"><ele>47.0</ele><time>2026-04-11T12:11:57.927Z</time></trkpt><trkpt lat="45.1589317" lon="9.98844"><ele>47.0</ele><time>2026-04-11T12:11:58.927Z</time></trkpt><trkpt lat="45.1590183" lon="9.9883983"><ele>46.2</ele><time>2026-04-11T12:11:59.927Z</time></trkpt><trkpt lat="45.15909" lon="9.98832"><ele>45.400000000000006</ele><time>2026-04-11T12:12:00.927Z</time></trkpt><trkpt lat="45.1591417" lon="9.9882017"><ele>44.599999999999994</ele><time>2026-04-11T12:12:01.927Z</time></trkpt><trkpt lat="45.1591767" lon="9.9880533"><ele>43.8</ele><time>2026-04-11T12:12:02.927Z</time></trkpt><trkpt lat="45.1591933" lon="9.9878933"><ele>43.0</ele><time>2026-04-11T12:12:03.927Z</time></trkpt><trkpt lat="45.1592267" lon="9.9877383"><ele>43.0</ele><time>2026-04-11T12:12:04.927Z</time></trkpt><trkpt lat="45.1592833" lon="9.9875933"><ele>43.0</ele><time>2026-04-11T12:12:05.927Z</time></trkpt><trkpt lat="45.159365" lon="9.987465"><ele>43.0</ele><time>2026-04-11T12:12:06.927Z</time></trkpt><trkpt lat="45.1594717" lon="9.9873383"><ele>43.0</ele><time>2026-04-11T12:12:07.927Z</time></trkpt><trkpt lat="45.1595883" lon="9.987195"><ele>44.333333333333336</ele><time>2026-04-11T12:12:08.927Z</time></trkpt><trkpt lat="45.1597067" lon="9.987035"><ele>45.666666666666664</ele><time>2026-04-11T12:12:09.927Z</time></trkpt><trkpt lat="45.1598317" lon="9.9868583"><ele>47.0</ele><time>2026-04-11T12:12:10.927Z</time></trkpt><trkpt lat="45.159965" lon="9.9866767"><ele>47.33333333333333</ele><time>2026-04-11T12:12:11.926Z</time></trkpt><trkpt lat="45.1600933" lon="9.9864967"><ele>47.666666666666664</ele><time>2026-04-11T12:12:12.927Z</time></trkpt><trkpt lat="45.1602133" lon="9.98633"><ele>48.0</ele><time>2026-04-11T12:12:13.927Z</time></trkpt><trkpt lat="45.1603367" lon="9.98616"><ele>48.0</ele><time>2026-04-11T12:12:14.927Z</time></trkpt><trkpt lat="45.1604733" lon="9.9859783"><ele>48.0</ele><time>2026-04-11T12:12:15.927Z</time></trkpt><trkpt lat="45.16061" lon="9.9857833"><ele>48.0</ele><time>2026-04-11T12:12:16.927Z</time></trkpt><trkpt lat="45.1607467" lon="9.985575"><ele>48.33333333333333</ele><time>2026-04-11T12:12:17.927Z</time></trkpt><trkpt lat="45.1608817" lon="9.985355"><ele>48.666666666666664</ele><time>2026-04-11T12:12:18.927Z</time></trkpt><trkpt lat="45.161015" lon="9.98512"><ele>49.0</ele><time>2026-04-11T12:12:19.927Z</time></trkpt><trkpt lat="45.161135" lon="9.9848833"><ele>49.33333333333333</ele><time>2026-04-11T12:12:20.927Z</time></trkpt><trkpt lat="45.161255" lon="9.9846517"><ele>49.66666666666667</ele><time>2026-04-11T12:12:21.926Z</time></trkpt><trkpt lat="45.161375" lon="9.9844233"><ele>50.0</ele><time>2026-04-11T12:12:22.927Z</time></trkpt><trkpt lat="45.1614983" lon="9.984185"><ele>49.333333333333336</ele><time>2026-04-11T12:12:23.927Z</time></trkpt><trkpt lat="45.16163" lon="9.98395"><ele>48.66666666666667</ele><time>2026-04-11T12:12:24.927Z</time></trkpt><trkpt lat="45.161755" lon="9.983705"><ele>48.0</ele><time>2026-04-11T12:12:25.927Z</time></trkpt><trkpt lat="45.1618817" lon="9.9834583"><ele>48.33333333333333</ele><time>2026-04-11T12:12:26.927Z</time></trkpt><trkpt lat="45.1620133" lon="9.983205"><ele>48.666666666666664</ele><time>2026-04-11T12:12:27.927Z</time></trkpt><trkpt lat="45.1621467" lon="9.9829517"><ele>49.0</ele><time>2026-04-11T12:12:28.927Z</time></trkpt><trkpt lat="45.1622717" lon="9.9827083"><ele>48.33333333333333</ele><time>2026-04-11T12:12:29.926Z</time></trkpt><trkpt lat="45.1623933" lon="9.9824733"><ele>47.666666666666664</ele><time>2026-04-11T12:12:30.927Z</time></trkpt><trkpt lat="45.1625183" lon="9.9822333"><ele>47.0</ele><time>2026-04-11T12:12:31.927Z</time></trkpt><trkpt lat="45.1626483" lon="9.98199"><ele>47.0</ele><time>2026-04-11T12:12:32.927Z</time></trkpt><trkpt lat="45.1627717" lon="9.981745"><ele>47.0</ele><time>2026-04-11T12:12:33.927Z</time></trkpt><trkpt lat="45.1629" lon="9.9814967"><ele>47.0</ele><time>2026-04-11T12:12:34.927Z</time></trkpt><trkpt lat="45.16303" lon="9.9812417"><ele>47.5</ele><time>2026-04-11T12:12:35.927Z</time></trkpt><trkpt lat="45.1631633" lon="9.9809833"><ele>48.0</ele><time>2026-04-11T12:12:36.926Z</time></trkpt><trkpt lat="45.163305" lon="9.9807217"><ele>49.5</ele><time>2026-04-11T12:12:37.927Z</time></trkpt><trkpt lat="45.1634433" lon="9.980455"><ele>51.0</ele><time>2026-04-11T12:12:38.927Z</time></trkpt><trkpt lat="45.163585" lon="9.9801867"><ele>50.5</ele><time>2026-04-11T12:12:39.927Z</time></trkpt><trkpt lat="45.1637233" lon="9.9799283"><ele>50.0</ele><time>2026-04-11T12:12:40.926Z</time></trkpt><trkpt lat="45.163865" lon="9.979665"><ele>50.0</ele><time>2026-04-11T12:12:41.927Z</time></trkpt><trkpt lat="45.1639967" lon="9.9794067"><ele>50.0</ele><time>2026-04-11T12:12:42.927Z</time></trkpt><trkpt lat="45.1641367" lon="9.9791417"><ele>50.0</ele><time>2026-04-11T12:12:43.927Z</time></trkpt><trkpt lat="45.164275" lon="9.9788783"><ele>50.0</ele><time>2026-04-11T12:12:44.927Z</time></trkpt><trkpt lat="45.1644067" lon="9.978625"><ele>50.0</ele><time>2026-04-11T12:12:45.927Z</time></trkpt><trkpt lat="45.1645383" lon="9.9783817"><ele>50.0</ele><time>2026-04-11T12:12:46.927Z</time></trkpt><trkpt lat="45.1646667" lon="9.97815"><ele>50.0</ele><time>2026-04-11T12:12:47.927Z</time></trkpt><trkpt lat="45.1647883" lon="9.9779183"><ele>50.333333333333336</ele><time>2026-04-11T12:12:48.927Z</time></trkpt><trkpt lat="45.1649117" lon="9.9776833"><ele>50.66666666666667</ele><time>2026-04-11T12:12:49.927Z</time></trkpt><trkpt lat="45.1650317" lon="9.977455"><ele>51.0</ele><time>2026-04-11T12:12:50.927Z</time></trkpt><trkpt lat="45.1651533" lon="9.9772267"><ele>51.0</ele><time>2026-04-11T12:12:51.927Z</time></trkpt><trkpt lat="45.1652683" lon="9.977"><ele>51.0</ele><time>2026-04-11T12:12:52.927Z</time></trkpt><trkpt lat="45.1653867" lon="9.9767783"><ele>51.0</ele><time>2026-04-11T12:12:53.926Z</time></trkpt><trkpt lat="45.1654983" lon="9.9765483"><ele>51.0</ele><time>2026-04-11T12:12:54.926Z</time></trkpt><trkpt lat="45.1656183" lon="9.9763117"><ele>51.0</ele><time>2026-04-11T12:12:55.926Z</time></trkpt><trkpt lat="45.165735" lon="9.9760783"><ele>51.0</ele><time>2026-04-11T12:12:56.926Z</time></trkpt><trkpt lat="45.1658533" lon="9.9758517"><ele>51.0</ele><time>2026-04-11T12:12:57.926Z</time></trkpt><trkpt lat="45.1659633" lon="9.97564"><ele>51.0</ele><time>2026-04-11T12:12:58.926Z</time></trkpt><trkpt lat="45.1660767" lon="9.9754383"><ele>51.0</ele><time>2026-04-11T12:12:59.926Z</time></trkpt><trkpt lat="45.1661833" lon="9.9752483"><ele>51.0</ele><time>2026-04-11T12:13:00.926Z</time></trkpt><trkpt lat="45.1662833" lon="9.9750533"><ele>51.0</ele><time>2026-04-11T12:13:01.926Z</time></trkpt><trkpt lat="45.1663833" lon="9.9748533"><ele>51.0</ele><time>2026-04-11T12:13:02.925Z</time></trkpt><trkpt lat="45.1664883" lon="9.974655"><ele>50.33333333333333</ele><time>2026-04-11T12:13:03.926Z</time></trkpt><trkpt lat="45.1665933" lon="9.9744533"><ele>49.666666666666664</ele><time>2026-04-11T12:13:04.926Z</time></trkpt><trkpt lat="45.166695" lon="9.9742567"><ele>49.0</ele><time>2026-04-11T12:13:05.926Z</time></trkpt><trkpt lat="45.166795" lon="9.97408"><ele>49.0</ele><time>2026-04-11T12:13:06.925Z</time></trkpt><trkpt lat="45.1668883" lon="9.9739167"><ele>49.0</ele><time>2026-04-11T12:13:07.926Z</time></trkpt><trkpt lat="45.16697" lon="9.9737717"><ele>49.0</ele><time>2026-04-11T12:13:08.925Z</time></trkpt><trkpt lat="45.1670417" lon="9.973645"><ele>49.0</ele><time>2026-04-11T12:13:09.926Z</time></trkpt><trkpt lat="45.1671133" lon="9.973535"><ele>49.0</ele><time>2026-04-11T12:13:10.926Z</time></trkpt><trkpt lat="45.1671783" lon="9.97345"><ele>49.0</ele><time>2026-04-11T12:13:11.926Z</time></trkpt><trkpt lat="45.16726" lon="9.97338"><ele>49.0</ele><time>2026-04-11T12:13:12.926Z</time></trkpt><trkpt lat="45.1673517" lon="9.973325"><ele>49.0</ele><time>2026-04-11T12:13:13.926Z</time></trkpt><trkpt lat="45.1674317" lon="9.9732683"><ele>49.0</ele><time>2026-04-11T12:13:14.926Z</time></trkpt><trkpt lat="45.1674967" lon="9.9731933"><ele>49.5</ele><time>2026-04-11T12:13:15.925Z</time></trkpt><trkpt lat="45.16754" lon="9.97307"><ele>50.0</ele><time>2026-04-11T12:13:16.926Z</time></trkpt><trkpt lat="45.1675617" lon="9.972915"><ele>50.5</ele><time>2026-04-11T12:13:17.926Z</time></trkpt><trkpt lat="45.1675767" lon="9.9727417"><ele>51.0</ele><time>2026-04-11T12:13:18.926Z</time></trkpt><trkpt lat="45.1676117" lon="9.97257"><ele>51.0</ele><time>2026-04-11T12:13:19.926Z</time></trkpt><trkpt lat="45.1676833" lon="9.9724017"><ele>51.0</ele><time>2026-04-11T12:13:20.926Z</time></trkpt><trkpt lat="45.1677683" lon="9.9722267"><ele>51.0</ele><time>2026-04-11T12:13:21.926Z</time></trkpt><trkpt lat="45.1678617" lon="9.97204"><ele>51.0</ele><time>2026-04-11T12:13:22.926Z</time></trkpt><trkpt lat="45.1679583" lon="9.971845"><ele>51.0</ele><time>2026-04-11T12:13:23.926Z</time></trkpt><trkpt lat="45.1680583" lon="9.971655"><ele>51.0</ele><time>2026-04-11T12:13:24.926Z</time></trkpt><trkpt lat="45.16816" lon="9.97146"><ele>51.0</ele><time>2026-04-11T12:13:25.926Z</time></trkpt><trkpt lat="45.16827" lon="9.971255"><ele>51.0</ele><time>2026-04-11T12:13:26.926Z</time></trkpt><trkpt lat="45.16838" lon="9.971035"><ele>51.0</ele><time>2026-04-11T12:13:27.926Z</time></trkpt><trkpt lat="45.1684933" lon="9.9708133"><ele>51.33333333333333</ele><time>2026-04-11T12:13:28.926Z</time></trkpt><trkpt lat="45.168615" lon="9.970595"><ele>51.666666666666664</ele><time>2026-04-11T12:13:29.926Z</time></trkpt><trkpt lat="45.1687367" lon="9.9703733"><ele>52.0</ele><time>2026-04-11T12:13:30.926Z</time></trkpt><trkpt lat="45.1688533" lon="9.9701467"><ele>51.666666666666664</ele><time>2026-04-11T12:13:31.926Z</time></trkpt><trkpt lat="45.1689783" lon="9.9699067"><ele>51.33333333333333</ele><time>2026-04-11T12:13:32.926Z</time></trkpt><trkpt lat="45.1691" lon="9.969665"><ele>51.0</ele><time>2026-04-11T12:13:33.926Z</time></trkpt><trkpt lat="45.169225" lon="9.9694317"><ele>50.66666666666667</ele><time>2026-04-11T12:13:34.926Z</time></trkpt><trkpt lat="45.169355" lon="9.9691917"><ele>50.333333333333336</ele><time>2026-04-11T12:13:35.926Z</time></trkpt><trkpt lat="45.169485" lon="9.9689517"><ele>50.0</ele><time>2026-04-11T12:13:36.926Z</time></trkpt><trkpt lat="45.1696017" lon="9.96872"><ele>50.0</ele><time>2026-04-11T12:13:37.926Z</time></trkpt><trkpt lat="45.169715" lon="9.96851"><ele>50.0</ele><time>2026-04-11T12:13:38.926Z</time></trkpt><trkpt lat="45.1698267" lon="9.968305"><ele>50.0</ele><time>2026-04-11T12:13:39.926Z</time></trkpt><trkpt lat="45.1699267" lon="9.96812"><ele>50.66666666666667</ele><time>2026-04-11T12:13:40.926Z</time></trkpt><trkpt lat="45.1700467" lon="9.9679483"><ele>51.33333333333333</ele><time>2026-04-11T12:13:41.926Z</time></trkpt><trkpt lat="45.170165" lon="9.967785"><ele>52.0</ele><time>2026-04-11T12:13:42.926Z</time></trkpt><trkpt lat="45.1702867" lon="9.9676183"><ele>52.0</ele><time>2026-04-11T12:13:43.926Z</time></trkpt><trkpt lat="45.170405" lon="9.96746"><ele>52.0</ele><time>2026-04-11T12:13:44.926Z</time></trkpt><trkpt lat="45.1705367" lon="9.9673033"><ele>52.0</ele><time>2026-04-11T12:13:45.926Z</time></trkpt><trkpt lat="45.1706583" lon="9.9671533"><ele>51.666666666666664</ele><time>2026-04-11T12:13:46.926Z</time></trkpt><trkpt lat="45.170765" lon="9.9670017"><ele>51.33333333333333</ele><time>2026-04-11T12:13:47.926Z</time></trkpt><trkpt lat="45.1708667" lon="9.9668317"><ele>51.0</ele><time>2026-04-11T12:13:48.926Z</time></trkpt><trkpt lat="45.1709517" lon="9.9666333"><ele>50.66666666666667</ele><time>2026-04-11T12:13:49.926Z</time></trkpt><trkpt lat="45.1710333" lon="9.9664117"><ele>50.333333333333336</ele><time>2026-04-11T12:13:50.926Z</time></trkpt><trkpt lat="45.1711083" lon="9.9661883"><ele>50.0</ele><time>2026-04-11T12:13:51.926Z</time></trkpt><trkpt lat="45.1711833" lon="9.9659517"><ele>50.0</ele><time>2026-04-11T12:13:52.926Z</time></trkpt><trkpt lat="45.17128" lon="9.9656933"><ele>50.0</ele><time>2026-04-11T12:13:53.926Z</time></trkpt><trkpt lat="45.17139" lon="9.9654333"><ele>50.0</ele><time>2026-04-11T12:13:54.926Z</time></trkpt><trkpt lat="45.1715017" lon="9.9651783"><ele>49.333333333333336</ele><time>2026-04-11T12:13:55.925Z</time></trkpt><trkpt lat="45.1716233" lon="9.9649167"><ele>48.66666666666667</ele><time>2026-04-11T12:13:56.926Z</time></trkpt><trkpt lat="45.17175" lon="9.964655"><ele>48.0</ele><time>2026-04-11T12:13:57.926Z</time></trkpt><trkpt lat="45.1718933" lon="9.964395"><ele>48.0</ele><time>2026-04-11T12:13:58.926Z</time></trkpt><trkpt lat="45.17204" lon="9.96412"><ele>48.0</ele><time>2026-04-11T12:13:59.926Z</time></trkpt><trkpt lat="45.172185" lon="9.963855"><ele>48.0</ele><time>2026-04-11T12:14:00.926Z</time></trkpt><trkpt lat="45.172325" lon="9.963605"><ele>48.0</ele><time>2026-04-11T12:14:01.925Z</time></trkpt><trkpt lat="45.1724583" lon="9.9633517"><ele>48.0</ele><time>2026-04-11T12:14:02.926Z</time></trkpt><trkpt lat="45.1725917" lon="9.9631"><ele>47.5</ele><time>2026-04-11T12:14:03.926Z</time></trkpt><trkpt lat="45.172725" lon="9.9628433"><ele>47.0</ele><time>2026-04-11T12:14:04.926Z</time></trkpt><trkpt lat="45.1728633" lon="9.9625783"><ele>46.0</ele><time>2026-04-11T12:14:05.926Z</time></trkpt><trkpt lat="45.1730033" lon="9.9623117"><ele>45.0</ele><time>2026-04-11T12:14:06.926Z</time></trkpt><trkpt lat="45.1731417" lon="9.9620467"><ele>45.0</ele><time>2026-04-11T12:14:07.926Z</time></trkpt><trkpt lat="45.173285" lon="9.9617867"><ele>45.0</ele><time>2026-04-11T12:14:08.926Z</time></trkpt><trkpt lat="45.173425" lon="9.9615183"><ele>45.5</ele><time>2026-04-11T12:14:09.926Z</time></trkpt><trkpt lat="45.17357" lon="9.9612517"><ele>46.0</ele><time>2026-04-11T12:14:10.926Z</time></trkpt><trkpt lat="45.1737167" lon="9.960975"><ele>46.5</ele><time>2026-04-11T12:14:11.926Z</time></trkpt><trkpt lat="45.173865" lon="9.9606917"><ele>47.0</ele><time>2026-04-11T12:14:12.926Z</time></trkpt><trkpt lat="45.174015" lon="9.96041"><ele>47.0</ele><time>2026-04-11T12:14:13.926Z</time></trkpt><trkpt lat="45.1741583" lon="9.9601283"><ele>47.0</ele><time>2026-04-11T12:14:14.926Z</time></trkpt><trkpt lat="45.1743017" lon="9.9598467"><ele>47.0</ele><time>2026-04-11T12:14:15.926Z</time></trkpt><trkpt lat="45.174445" lon="9.9595717"><ele>47.0</ele><time>2026-04-11T12:14:16.926Z</time></trkpt><trkpt lat="45.1745817" lon="9.9593017"><ele>47.0</ele><time>2026-04-11T12:14:17.926Z</time></trkpt><trkpt lat="45.1747217" lon="9.959025"><ele>47.0</ele><time>2026-04-11T12:14:18.926Z</time></trkpt><trkpt lat="45.17485" lon="9.9587433"><ele>47.0</ele><time>2026-04-11T12:14:19.926Z</time></trkpt><trkpt lat="45.1749767" lon="9.958465"><ele>47.0</ele><time>2026-04-11T12:14:20.926Z</time></trkpt><trkpt lat="45.17509" lon="9.9581817"><ele>47.0</ele><time>2026-04-11T12:14:21.926Z</time></trkpt><trkpt lat="45.1752" lon="9.9578967"><ele>47.0</ele><time>2026-04-11T12:14:22.926Z</time></trkpt><trkpt lat="45.1753017" lon="9.9576017"><ele>46.5</ele><time>2026-04-11T12:14:23.926Z</time></trkpt><trkpt lat="45.17539" lon="9.9573017"><ele>46.0</ele><time>2026-04-11T12:14:24.926Z</time></trkpt><trkpt lat="45.1754717" lon="9.9570067"><ele>46.0</ele><time>2026-04-11T12:14:25.926Z</time></trkpt><trkpt lat="45.1755567" lon="9.9567183"><ele>46.0</ele><time>2026-04-11T12:14:26.926Z</time></trkpt><trkpt lat="45.17565" lon="9.9564333"><ele>46.0</ele><time>2026-04-11T12:14:27.926Z</time></trkpt><trkpt lat="45.1757567" lon="9.9561433"><ele>46.0</ele><time>2026-04-11T12:14:28.926Z</time></trkpt><trkpt lat="45.1758733" lon="9.9558567"><ele>46.0</ele><time>2026-04-11T12:14:29.926Z</time></trkpt><trkpt lat="45.176" lon="9.95559"><ele>46.0</ele><time>2026-04-11T12:14:30.926Z</time></trkpt><trkpt lat="45.17612" lon="9.955305"><ele>46.0</ele><time>2026-04-11T12:14:31.926Z</time></trkpt><trkpt lat="45.1762583" lon="9.95504"><ele>46.5</ele><time>2026-04-11T12:14:32.926Z</time></trkpt><trkpt lat="45.1764167" lon="9.9547783"><ele>47.0</ele><time>2026-04-11T12:14:33.925Z</time></trkpt><trkpt lat="45.1765767" lon="9.95452"><ele>47.0</ele><time>2026-04-11T12:14:34.926Z</time></trkpt><trkpt lat="45.1767383" lon="9.954265"><ele>47.0</ele><time>2026-04-11T12:14:35.926Z</time></trkpt><trkpt lat="45.1769067" lon="9.9540167"><ele>47.0</ele><time>2026-04-11T12:14:36.926Z</time></trkpt><trkpt lat="45.177085" lon="9.9537817"><ele>47.0</ele><time>2026-04-11T12:14:37.926Z</time></trkpt><trkpt lat="45.177265" lon="9.9535567"><ele>48.0</ele><time>2026-04-11T12:14:38.926Z</time></trkpt><trkpt lat="45.17745" lon="9.9533317"><ele>49.0</ele><time>2026-04-11T12:14:39.926Z</time></trkpt><trkpt lat="45.1776383" lon="9.9530983"><ele>49.0</ele><time>2026-04-11T12:14:40.926Z</time></trkpt><trkpt lat="45.1778217" lon="9.95287"><ele>49.0</ele><time>2026-04-11T12:14:41.926Z</time></trkpt><trkpt lat="45.1780017" lon="9.95263"><ele>49.0</ele><time>2026-04-11T12:14:42.925Z</time></trkpt><trkpt lat="45.178175" lon="9.952375"><ele>49.0</ele><time>2026-04-11T12:14:43.926Z</time></trkpt><trkpt lat="45.17834" lon="9.9521033"><ele>48.5</ele><time>2026-04-11T12:14:44.926Z</time></trkpt><trkpt lat="45.1784983" lon="9.9518283"><ele>48.0</ele><time>2026-04-11T12:14:45.926Z</time></trkpt><trkpt lat="45.1786667" lon="9.951545"><ele>48.0</ele><time>2026-04-11T12:14:46.926Z</time></trkpt><trkpt lat="45.1788217" lon="9.95125"><ele>48.0</ele><time>2026-04-11T12:14:47.926Z</time></trkpt><trkpt lat="45.1789767" lon="9.9509583"><ele>49.0</ele><time>2026-04-11T12:14:48.926Z</time></trkpt><trkpt lat="45.1791267" lon="9.9506633"><ele>50.0</ele><time>2026-04-11T12:14:49.926Z</time></trkpt><trkpt lat="45.17928" lon="9.9503667"><ele>50.0</ele><time>2026-04-11T12:14:50.926Z</time></trkpt><trkpt lat="45.1794333" lon="9.9500667"><ele>50.0</ele><time>2026-04-11T12:14:51.926Z</time></trkpt><trkpt lat="45.17959" lon="9.949765"><ele>49.0</ele><time>2026-04-11T12:14:52.926Z</time></trkpt><trkpt lat="45.1797467" lon="9.9494617"><ele>48.0</ele><time>2026-04-11T12:14:53.926Z</time></trkpt><trkpt lat="45.1799067" lon="9.9491717"><ele>48.0</ele><time>2026-04-11T12:14:54.926Z</time></trkpt><trkpt lat="45.1800633" lon="9.9488817"><ele>48.0</ele><time>2026-04-11T12:14:55.926Z</time></trkpt><trkpt lat="45.1802217" lon="9.9485867"><ele>47.5</ele><time>2026-04-11T12:14:56.926Z</time></trkpt><trkpt lat="45.1803683" lon="9.9482933"><ele>47.0</ele><time>2026-04-11T12:14:57.926Z</time></trkpt><trkpt lat="45.18053" lon="9.9479883"><ele>47.5</ele><time>2026-04-11T12:14:58.926Z</time></trkpt><trkpt lat="45.18069" lon="9.94769"><ele>48.0</ele><time>2026-04-11T12:14:59.926Z</time></trkpt><trkpt lat="45.18085" lon="9.947385"><ele>48.0</ele><time>2026-04-11T12:15:00.926Z</time></trkpt><trkpt lat="45.181005" lon="9.9470817"><ele>48.0</ele><time>2026-04-11T12:15:01.926Z</time></trkpt><trkpt lat="45.1811633" lon="9.94678"><ele>48.0</ele><time>2026-04-11T12:15:02.926Z</time></trkpt><trkpt lat="45.18133" lon="9.9464733"><ele>48.0</ele><time>2026-04-11T12:15:03.926Z</time></trkpt><trkpt lat="45.1814967" lon="9.9461667"><ele>48.0</ele><time>2026-04-11T12:15:04.926Z</time></trkpt><trkpt lat="45.1816633" lon="9.9458617"><ele>48.0</ele><time>2026-04-11T12:15:05.926Z</time></trkpt><trkpt lat="45.1818283" lon="9.9455483"><ele>48.0</ele><time>2026-04-11T12:15:06.926Z</time></trkpt><trkpt lat="45.1819883" lon="9.945235"><ele>48.0</ele><time>2026-04-11T12:15:07.926Z</time></trkpt><trkpt lat="45.1821467" lon="9.944925"><ele>48.0</ele><time>2026-04-11T12:15:08.926Z</time></trkpt><trkpt lat="45.1823067" lon="9.9446167"><ele>48.0</ele><time>2026-04-11T12:15:09.925Z</time></trkpt><trkpt lat="45.1824717" lon="9.9443017"><ele>48.0</ele><time>2026-04-11T12:15:10.926Z</time></trkpt><trkpt lat="45.1826333" lon="9.94399"><ele>48.0</ele><time>2026-04-11T12:15:11.926Z</time></trkpt><trkpt lat="45.1828" lon="9.94368"><ele>48.0</ele><time>2026-04-11T12:15:12.926Z</time></trkpt><trkpt lat="45.18296" lon="9.9433633"><ele>48.0</ele><time>2026-04-11T12:15:13.926Z</time></trkpt><trkpt lat="45.1831183" lon="9.9430583"><ele>49.5</ele><time>2026-04-11T12:15:14.926Z</time></trkpt><trkpt lat="45.1832767" lon="9.942755"><ele>51.0</ele><time>2026-04-11T12:15:15.925Z</time></trkpt><trkpt lat="45.183435" lon="9.9424567"><ele>51.0</ele><time>2026-04-11T12:15:16.926Z</time></trkpt><trkpt lat="45.1835883" lon="9.9421683"><ele>51.0</ele><time>2026-04-11T12:15:17.926Z</time></trkpt><trkpt lat="45.1837533" lon="9.9418833"><ele>50.5</ele><time>2026-04-11T12:15:18.926Z</time></trkpt><trkpt lat="45.1839083" lon="9.9415983"><ele>50.0</ele><time>2026-04-11T12:15:19.926Z</time></trkpt><trkpt lat="45.1840667" lon="9.9413017"><ele>50.0</ele><time>2026-04-11T12:15:20.926Z</time></trkpt><trkpt lat="45.18422" lon="9.94101"><ele>50.0</ele><time>2026-04-11T12:15:21.926Z</time></trkpt><trkpt lat="45.18437" lon="9.9407167"><ele>49.0</ele><time>2026-04-11T12:15:22.926Z</time></trkpt><trkpt lat="45.1845217" lon="9.940425"><ele>48.0</ele><time>2026-04-11T12:15:23.926Z</time></trkpt><trkpt lat="45.1846833" lon="9.940125"><ele>49.5</ele><time>2026-04-11T12:15:24.926Z</time></trkpt><trkpt lat="45.1848467" lon="9.9398217"><ele>51.0</ele><time>2026-04-11T12:15:25.926Z</time></trkpt><trkpt lat="45.18501" lon="9.9395183"><ele>51.0</ele><time>2026-04-11T12:15:26.925Z</time></trkpt><trkpt lat="45.1851683" lon="9.9392183"><ele>51.0</ele><time>2026-04-11T12:15:27.926Z</time></trkpt><trkpt lat="45.1853283" lon="9.9389133"><ele>51.0</ele><time>2026-04-11T12:15:28.926Z</time></trkpt><trkpt lat="45.1854833" lon="9.9386117"><ele>51.0</ele><time>2026-04-11T12:15:29.926Z</time></trkpt><trkpt lat="45.1856383" lon="9.9383017"><ele>50.5</ele><time>2026-04-11T12:15:30.926Z</time></trkpt><trkpt lat="45.1858" lon="9.9379983"><ele>50.0</ele><time>2026-04-11T12:15:31.926Z</time></trkpt><trkpt lat="45.1859567" lon="9.937695"><ele>50.0</ele><time>2026-04-11T12:15:32.926Z</time></trkpt><trkpt lat="45.1861183" lon="9.93739"><ele>50.0</ele><time>2026-04-11T12:15:33.926Z</time></trkpt><trkpt lat="45.1862817" lon="9.9370817"><ele>50.0</ele><time>2026-04-11T12:15:34.925Z</time></trkpt><trkpt lat="45.1864367" lon="9.9367683"><ele>50.0</ele><time>2026-04-11T12:15:35.926Z</time></trkpt><trkpt lat="45.1865983" lon="9.9364517"><ele>50.0</ele><time>2026-04-11T12:15:36.926Z</time></trkpt><trkpt lat="45.1867633" lon="9.9361467"><ele>50.0</ele><time>2026-04-11T12:15:37.926Z</time></trkpt><trkpt lat="45.1869333" lon="9.9358383"><ele>50.5</ele><time>2026-04-11T12:15:38.926Z</time></trkpt><trkpt lat="45.1871067" lon="9.9355317"><ele>51.0</ele><time>2026-04-11T12:15:39.926Z</time></trkpt><trkpt lat="45.1872717" lon="9.935215"><ele>52.0</ele><time>2026-04-11T12:15:40.926Z</time></trkpt><trkpt lat="45.1874383" lon="9.9349083"><ele>53.0</ele><time>2026-04-11T12:15:41.926Z</time></trkpt><trkpt lat="45.187595" lon="9.9345983"><ele>53.0</ele><time>2026-04-11T12:15:42.926Z</time></trkpt><trkpt lat="45.1877533" lon="9.9342883"><ele>53.0</ele><time>2026-04-11T12:15:43.926Z</time></trkpt><trkpt lat="45.1879133" lon="9.9339733"><ele>52.5</ele><time>2026-04-11T12:15:44.926Z</time></trkpt><trkpt lat="45.1880833" lon="9.9336617"><ele>52.0</ele><time>2026-04-11T12:15:45.926Z</time></trkpt><trkpt lat="45.188245" lon="9.933355"><ele>52.0</ele><time>2026-04-11T12:15:46.926Z</time></trkpt><trkpt lat="45.1884067" lon="9.933045"><ele>52.0</ele><time>2026-04-11T12:15:47.926Z</time></trkpt><trkpt lat="45.1885767" lon="9.93273"><ele>51.5</ele><time>2026-04-11T12:15:48.926Z</time></trkpt><trkpt lat="45.1887417" lon="9.9324167"><ele>51.0</ele><time>2026-04-11T12:15:49.925Z</time></trkpt><trkpt lat="45.188905" lon="9.9320983"><ele>51.0</ele><time>2026-04-11T12:15:50.926Z</time></trkpt><trkpt lat="45.18907" lon="9.93179"><ele>51.0</ele><time>2026-04-11T12:15:51.926Z</time></trkpt><trkpt lat="45.1892333" lon="9.93148"><ele>50.5</ele><time>2026-04-11T12:15:52.926Z</time></trkpt><trkpt lat="45.1893933" lon="9.931165"><ele>50.0</ele><time>2026-04-11T12:15:53.926Z</time></trkpt><trkpt lat="45.1895617" lon="9.9308533"><ele>51.0</ele><time>2026-04-11T12:15:54.926Z</time></trkpt><trkpt lat="45.189725" lon="9.93054"><ele>52.0</ele><time>2026-04-11T12:15:55.926Z</time></trkpt><trkpt lat="45.1898983" lon="9.9302233"><ele>51.5</ele><time>2026-04-11T12:15:56.925Z</time></trkpt><trkpt lat="45.1900633" lon="9.9299067"><ele>51.0</ele><time>2026-04-11T12:15:57.926Z</time></trkpt><trkpt lat="45.1902233" lon="9.9295933"><ele>51.0</ele><time>2026-04-11T12:15:58.925Z</time></trkpt><trkpt lat="45.19039" lon="9.9292733"><ele>51.0</ele><time>2026-04-11T12:15:59.925Z</time></trkpt><trkpt lat="45.19055" lon="9.9289483"><ele>51.0</ele><time>2026-04-11T12:16:00.925Z</time></trkpt><trkpt lat="45.19071" lon="9.9286217"><ele>51.0</ele><time>2026-04-11T12:16:01.925Z</time></trkpt><trkpt lat="45.1908667" lon="9.92829"><ele>51.0</ele><time>2026-04-11T12:16:02.925Z</time></trkpt><trkpt lat="45.1910283" lon="9.92796"><ele>51.0</ele><time>2026-04-11T12:16:03.925Z</time></trkpt><trkpt lat="45.19119" lon="9.9276267"><ele>51.0</ele><time>2026-04-11T12:16:04.925Z</time></trkpt><trkpt lat="45.1913567" lon="9.927295"><ele>51.0</ele><time>2026-04-11T12:16:05.925Z</time></trkpt><trkpt lat="45.191515" lon="9.9269583"><ele>52.0</ele><time>2026-04-11T12:16:06.925Z</time></trkpt><trkpt lat="45.191665" lon="9.9266183"><ele>53.0</ele><time>2026-04-11T12:16:07.925Z</time></trkpt><trkpt lat="45.191825" lon="9.9262733"><ele>53.0</ele><time>2026-04-11T12:16:08.925Z</time></trkpt><trkpt lat="45.1919817" lon="9.925935"><ele>53.0</ele><time>2026-04-11T12:16:09.925Z</time></trkpt><trkpt lat="45.192145" lon="9.9255933"><ele>52.5</ele><time>2026-04-11T12:16:10.925Z</time></trkpt><trkpt lat="45.1923017" lon="9.9252467"><ele>52.0</ele><time>2026-04-11T12:16:11.925Z</time></trkpt><trkpt lat="45.19246" lon="9.9249117"><ele>53.0</ele><time>2026-04-11T12:16:12.925Z</time></trkpt><trkpt lat="45.1926167" lon="9.92458"><ele>54.0</ele><time>2026-04-11T12:16:13.924Z</time></trkpt><trkpt lat="45.19278" lon="9.9242433"><ele>53.0</ele><time>2026-04-11T12:16:14.925Z</time></trkpt><trkpt lat="45.1929383" lon="9.9238967"><ele>52.0</ele><time>2026-04-11T12:16:15.925Z</time></trkpt><trkpt lat="45.1931033" lon="9.9235617"><ele>52.0</ele><time>2026-04-11T12:16:16.925Z</time></trkpt><trkpt lat="45.1932683" lon="9.9232233"><ele>52.0</ele><time>2026-04-11T12:16:17.925Z</time></trkpt><trkpt lat="45.1934217" lon="9.92289"><ele>52.0</ele><time>2026-04-11T12:16:18.925Z</time></trkpt><trkpt lat="45.193575" lon="9.922565"><ele>52.0</ele><time>2026-04-11T12:16:19.924Z</time></trkpt><trkpt lat="45.19373" lon="9.922235"><ele>52.5</ele><time>2026-04-11T12:16:20.925Z</time></trkpt><trkpt lat="45.1938817" lon="9.92191"><ele>53.0</ele><time>2026-04-11T12:16:21.925Z</time></trkpt><trkpt lat="45.1940267" lon="9.92158"><ele>53.5</ele><time>2026-04-11T12:16:22.925Z</time></trkpt><trkpt lat="45.1941783" lon="9.9212633"><ele>54.0</ele><time>2026-04-11T12:16:23.925Z</time></trkpt><trkpt lat="45.1943233" lon="9.9209417"><ele>53.5</ele><time>2026-04-11T12:16:24.924Z</time></trkpt><trkpt lat="45.19447" lon="9.9206133"><ele>53.0</ele><time>2026-04-11T12:16:25.925Z</time></trkpt><trkpt lat="45.1946283" lon="9.920275"><ele>52.5</ele><time>2026-04-11T12:16:26.925Z</time></trkpt><trkpt lat="45.1947867" lon="9.9199583"><ele>52.0</ele><time>2026-04-11T12:16:27.925Z</time></trkpt><trkpt lat="45.1949417" lon="9.9196233"><ele>52.0</ele><time>2026-04-11T12:16:28.925Z</time></trkpt><trkpt lat="45.1951" lon="9.91931"><ele>52.0</ele><time>2026-04-11T12:16:29.924Z</time></trkpt><trkpt lat="45.1952583" lon="9.9189833"><ele>52.0</ele><time>2026-04-11T12:16:30.925Z</time></trkpt><trkpt lat="45.195405" lon="9.9186733"><ele>52.0</ele><time>2026-04-11T12:16:31.925Z</time></trkpt><trkpt lat="45.1955467" lon="9.91837"><ele>52.0</ele><time>2026-04-11T12:16:32.925Z</time></trkpt><trkpt lat="45.1956783" lon="9.918085"><ele>52.0</ele><time>2026-04-11T12:16:33.924Z</time></trkpt><trkpt lat="45.1958" lon="9.91783"><ele>52.0</ele><time>2026-04-11T12:16:34.925Z</time></trkpt><trkpt lat="45.195915" lon="9.9175883"><ele>52.0</ele><time>2026-04-11T12:16:35.925Z</time></trkpt><trkpt lat="45.196025" lon="9.91736"><ele>52.0</ele><time>2026-04-11T12:16:36.925Z</time></trkpt><trkpt lat="45.19613" lon="9.9171367"><ele>52.0</ele><time>2026-04-11T12:16:37.925Z</time></trkpt><trkpt lat="45.1962317" lon="9.9169267"><ele>52.0</ele><time>2026-04-11T12:16:38.925Z</time></trkpt><trkpt lat="45.19633" lon="9.9167233"><ele>52.0</ele><time>2026-04-11T12:16:39.925Z</time></trkpt><trkpt lat="45.196425" lon="9.9165217"><ele>52.0</ele><time>2026-04-11T12:16:40.925Z</time></trkpt><trkpt lat="45.1965167" lon="9.9163267"><ele>52.0</ele><time>2026-04-11T12:16:41.925Z</time></trkpt><trkpt lat="45.196605" lon="9.916125"><ele>52.0</ele><time>2026-04-11T12:16:42.925Z</time></trkpt><trkpt lat="45.196705" lon="9.9159333"><ele>52.0</ele><time>2026-04-11T12:16:43.925Z</time></trkpt><trkpt lat="45.1967933" lon="9.9157367"><ele>52.0</ele><time>2026-04-11T12:16:44.925Z</time></trkpt><trkpt lat="45.19689" lon="9.9155333"><ele>52.0</ele><time>2026-04-11T12:16:45.925Z</time></trkpt><trkpt lat="45.1969933" lon="9.9153133"><ele>52.0</ele><time>2026-04-11T12:16:46.925Z</time></trkpt><trkpt lat="45.1970967" lon="9.9150917"><ele>52.0</ele><time>2026-04-11T12:16:47.925Z</time></trkpt><trkpt lat="45.197205" lon="9.9148633"><ele>52.0</ele><time>2026-04-11T12:16:48.925Z</time></trkpt><trkpt lat="45.1973117" lon="9.91463"><ele>52.0</ele><time>2026-04-11T12:16:49.925Z</time></trkpt><trkpt lat="45.1974267" lon="9.914385"><ele>52.0</ele><time>2026-04-11T12:16:50.925Z</time></trkpt><trkpt lat="45.1975467" lon="9.9141333"><ele>52.0</ele><time>2026-04-11T12:16:51.925Z</time></trkpt><trkpt lat="45.1976717" lon="9.9138667"><ele>52.0</ele><time>2026-04-11T12:16:52.925Z</time></trkpt><trkpt lat="45.1978017" lon="9.9135933"><ele>52.0</ele><time>2026-04-11T12:16:53.925Z</time></trkpt><trkpt lat="45.1979283" lon="9.9133217"><ele>52.5</ele><time>2026-04-11T12:16:54.925Z</time></trkpt><trkpt lat="45.1980617" lon="9.91304"><ele>53.0</ele><time>2026-04-11T12:16:55.925Z</time></trkpt><trkpt lat="45.19819" lon="9.9127533"><ele>53.0</ele><time>2026-04-11T12:16:56.925Z</time></trkpt><trkpt lat="45.198315" lon="9.9124617"><ele>53.0</ele><time>2026-04-11T12:16:57.925Z</time></trkpt><trkpt lat="45.19845" lon="9.9121717"><ele>53.0</ele><time>2026-04-11T12:16:58.925Z</time></trkpt><trkpt lat="45.19859" lon="9.9118733"><ele>53.0</ele><time>2026-04-11T12:16:59.925Z</time></trkpt><trkpt lat="45.198735" lon="9.9115783"><ele>53.0</ele><time>2026-04-11T12:17:00.925Z</time></trkpt><trkpt lat="45.198875" lon="9.9112833"><ele>53.0</ele><time>2026-04-11T12:17:01.925Z</time></trkpt><trkpt lat="45.199015" lon="9.9109783"><ele>53.0</ele><time>2026-04-11T12:17:02.925Z</time></trkpt><trkpt lat="45.19916" lon="9.91068"><ele>53.0</ele><time>2026-04-11T12:17:03.925Z</time></trkpt><trkpt lat="45.1993017" lon="9.9103683"><ele>53.0</ele><time>2026-04-11T12:17:04.925Z</time></trkpt><trkpt lat="45.1994533" lon="9.9100667"><ele>53.0</ele><time>2026-04-11T12:17:05.925Z</time></trkpt><trkpt lat="45.1996017" lon="9.9097617"><ele>53.0</ele><time>2026-04-11T12:17:06.925Z</time></trkpt><trkpt lat="45.19975" lon="9.9094483"><ele>53.0</ele><time>2026-04-11T12:17:07.925Z</time></trkpt><trkpt lat="45.1998933" lon="9.9091317"><ele>53.5</ele><time>2026-04-11T12:17:08.925Z</time></trkpt><trkpt lat="45.2000417" lon="9.9088133"><ele>54.0</ele><time>2026-04-11T12:17:09.925Z</time></trkpt><trkpt lat="45.2001933" lon="9.9085"><ele>53.5</ele><time>2026-04-11T12:17:10.925Z</time></trkpt><trkpt lat="45.2003533" lon="9.908185"><ele>53.0</ele><time>2026-04-11T12:17:11.925Z</time></trkpt><trkpt lat="45.2005017" lon="9.9078633"><ele>53.0</ele><time>2026-04-11T12:17:12.925Z</time></trkpt><trkpt lat="45.2006467" lon="9.9075433"><ele>53.0</ele><time>2026-04-11T12:17:13.925Z</time></trkpt><trkpt lat="45.2007983" lon="9.907215"><ele>53.5</ele><time>2026-04-11T12:17:14.925Z</time></trkpt><trkpt lat="45.2009467" lon="9.9068867"><ele>54.0</ele><time>2026-04-11T12:17:15.925Z</time></trkpt><trkpt lat="45.2010883" lon="9.906595"><ele>54.0</ele><time>2026-04-11T12:17:16.925Z</time></trkpt><trkpt lat="45.2012183" lon="9.90632"><ele>54.0</ele><time>2026-04-11T12:17:17.925Z</time></trkpt><trkpt lat="45.2013483" lon="9.9060483"><ele>53.66666666666667</ele><time>2026-04-11T12:17:18.925Z</time></trkpt><trkpt lat="45.2014717" lon="9.9057967"><ele>53.333333333333336</ele><time>2026-04-11T12:17:19.925Z</time></trkpt><trkpt lat="45.2015883" lon="9.9055517"><ele>53.0</ele><time>2026-04-11T12:17:20.925Z</time></trkpt><trkpt lat="45.2016967" lon="9.9053167"><ele>53.66666666666667</ele><time>2026-04-11T12:17:21.925Z</time></trkpt><trkpt lat="45.2018" lon="9.9051017"><ele>54.33333333333333</ele><time>2026-04-11T12:17:22.925Z</time></trkpt><trkpt lat="45.2019033" lon="9.904885"><ele>55.0</ele><time>2026-04-11T12:17:23.925Z</time></trkpt><trkpt lat="45.2020133" lon="9.9046633"><ele>55.0</ele><time>2026-04-11T12:17:24.925Z</time></trkpt><trkpt lat="45.2021167" lon="9.9044367"><ele>55.0</ele><time>2026-04-11T12:17:25.925Z</time></trkpt><trkpt lat="45.20222" lon="9.9042117"><ele>55.0</ele><time>2026-04-11T12:17:26.925Z</time></trkpt><trkpt lat="45.2023267" lon="9.9039767"><ele>54.33333333333333</ele><time>2026-04-11T12:17:27.925Z</time></trkpt><trkpt lat="45.20244" lon="9.90373"><ele>53.66666666666667</ele><time>2026-04-11T12:17:28.925Z</time></trkpt><trkpt lat="45.2025617" lon="9.9034783"><ele>53.0</ele><time>2026-04-11T12:17:29.925Z</time></trkpt><trkpt lat="45.202675" lon="9.90322"><ele>52.66666666666667</ele><time>2026-04-11T12:17:30.925Z</time></trkpt><trkpt lat="45.202795" lon="9.9029633"><ele>52.33333333333333</ele><time>2026-04-11T12:17:31.925Z</time></trkpt><trkpt lat="45.2029133" lon="9.9027133"><ele>52.0</ele><time>2026-04-11T12:17:32.925Z</time></trkpt><trkpt lat="45.2030283" lon="9.9024767"><ele>52.0</ele><time>2026-04-11T12:17:33.925Z</time></trkpt><trkpt lat="45.20314" lon="9.9022417"><ele>52.0</ele><time>2026-04-11T12:17:34.925Z</time></trkpt><trkpt lat="45.20325" lon="9.90201"><ele>52.0</ele><time>2026-04-11T12:17:35.925Z</time></trkpt><trkpt lat="45.203355" lon="9.9017817"><ele>52.33333333333333</ele><time>2026-04-11T12:17:36.925Z</time></trkpt><trkpt lat="45.2034567" lon="9.9015583"><ele>52.66666666666667</ele><time>2026-04-11T12:17:37.925Z</time></trkpt><trkpt lat="45.203555" lon="9.9013383"><ele>53.0</ele><time>2026-04-11T12:17:38.925Z</time></trkpt><trkpt lat="45.20366" lon="9.90112"><ele>53.0</ele><time>2026-04-11T12:17:39.924Z</time></trkpt><trkpt lat="45.20377" lon="9.9008917"><ele>53.0</ele><time>2026-04-11T12:17:40.925Z</time></trkpt><trkpt lat="45.2038817" lon="9.9006617"><ele>53.0</ele><time>2026-04-11T12:17:41.925Z</time></trkpt><trkpt lat="45.2039933" lon="9.900425"><ele>53.0</ele><time>2026-04-11T12:17:42.924Z</time></trkpt><trkpt lat="45.20411" lon="9.90017"><ele>53.0</ele><time>2026-04-11T12:17:43.925Z</time></trkpt><trkpt lat="45.20423" lon="9.8999"><ele>53.0</ele><time>2026-04-11T12:17:44.925Z</time></trkpt><trkpt lat="45.204345" lon="9.899615"><ele>52.5</ele><time>2026-04-11T12:17:45.925Z</time></trkpt><trkpt lat="45.20448" lon="9.8993183"><ele>52.0</ele><time>2026-04-11T12:17:46.925Z</time></trkpt><trkpt lat="45.2046217" lon="9.8990217"><ele>52.0</ele><time>2026-04-11T12:17:47.925Z</time></trkpt><trkpt lat="45.2047733" lon="9.89872"><ele>52.0</ele><time>2026-04-11T12:17:48.925Z</time></trkpt><trkpt lat="45.20492" lon="9.89842"><ele>53.0</ele><time>2026-04-11T12:17:49.925Z</time></trkpt><trkpt lat="45.2050767" lon="9.8981133"><ele>54.0</ele><time>2026-04-11T12:17:50.925Z</time></trkpt><trkpt lat="45.205225" lon="9.8978117"><ele>54.5</ele><time>2026-04-11T12:17:51.925Z</time></trkpt><trkpt lat="45.2053767" lon="9.8975067"><ele>55.0</ele><time>2026-04-11T12:17:52.925Z</time></trkpt><trkpt lat="45.205515" lon="9.8971967"><ele>55.0</ele><time>2026-04-11T12:17:53.925Z</time></trkpt><trkpt lat="45.2056583" lon="9.8968933"><ele>55.0</ele><time>2026-04-11T12:17:54.925Z</time></trkpt><trkpt lat="45.2057933" lon="9.8966167"><ele>54.0</ele><time>2026-04-11T12:17:55.925Z</time></trkpt><trkpt lat="45.20593" lon="9.8963367"><ele>53.0</ele><time>2026-04-11T12:17:56.925Z</time></trkpt><trkpt lat="45.2060583" lon="9.8960583"><ele>53.5</ele><time>2026-04-11T12:17:57.925Z</time></trkpt><trkpt lat="45.2061867" lon="9.89579"><ele>54.0</ele><time>2026-04-11T12:17:58.925Z</time></trkpt><trkpt lat="45.2063083" lon="9.895525"><ele>54.0</ele><time>2026-04-11T12:17:59.925Z</time></trkpt><trkpt lat="45.206435" lon="9.8952567"><ele>54.0</ele><time>2026-04-11T12:18:00.925Z</time></trkpt><trkpt lat="45.2065533" lon="9.8949967"><ele>54.0</ele><time>2026-04-11T12:18:01.925Z</time></trkpt><trkpt lat="45.2066717" lon="9.8947367"><ele>54.0</ele><time>2026-04-11T12:18:02.925Z</time></trkpt><trkpt lat="45.2067867" lon="9.89448"><ele>54.0</ele><time>2026-04-11T12:18:03.925Z</time></trkpt><trkpt lat="45.206905" lon="9.8942317"><ele>54.0</ele><time>2026-04-11T12:18:04.925Z</time></trkpt><trkpt lat="45.2070183" lon="9.89398"><ele>54.0</ele><time>2026-04-11T12:18:05.925Z</time></trkpt><trkpt lat="45.20714" lon="9.89374"><ele>54.0</ele><time>2026-04-11T12:18:06.925Z</time></trkpt><trkpt lat="45.207265" lon="9.89349"><ele>54.0</ele><time>2026-04-11T12:18:07.925Z</time></trkpt><trkpt lat="45.2073767" lon="9.8932433"><ele>53.66666666666667</ele><time>2026-04-11T12:18:08.925Z</time></trkpt><trkpt lat="45.2074933" lon="9.89299"><ele>53.333333333333336</ele><time>2026-04-11T12:18:09.925Z</time></trkpt><trkpt lat="45.207605" lon="9.8927417"><ele>53.0</ele><time>2026-04-11T12:18:10.925Z</time></trkpt><trkpt lat="45.2077267" lon="9.8924817"><ele>52.5</ele><time>2026-04-11T12:18:11.925Z</time></trkpt><trkpt lat="45.207855" lon="9.8922183"><ele>52.0</ele><time>2026-04-11T12:18:12.925Z</time></trkpt><trkpt lat="45.2079833" lon="9.8919383"><ele>51.5</ele><time>2026-04-11T12:18:13.925Z</time></trkpt><trkpt lat="45.2081117" lon="9.89167"><ele>51.0</ele><time>2026-04-11T12:18:14.925Z</time></trkpt><trkpt lat="45.2082383" lon="9.8914017"><ele>52.5</ele><time>2026-04-11T12:18:15.925Z</time></trkpt><trkpt lat="45.2083617" lon="9.891135"><ele>54.0</ele><time>2026-04-11T12:18:16.925Z</time></trkpt><trkpt lat="45.20849" lon="9.8908583"><ele>54.0</ele><time>2026-04-11T12:18:17.925Z</time></trkpt><trkpt lat="45.20862" lon="9.8905617"><ele>54.0</ele><time>2026-04-11T12:18:18.925Z</time></trkpt><trkpt lat="45.2087533" lon="9.8902533"><ele>54.0</ele><time>2026-04-11T12:18:19.925Z</time></trkpt><trkpt lat="45.20889" lon="9.8899367"><ele>54.0</ele><time>2026-04-11T12:18:20.925Z</time></trkpt><trkpt lat="45.209035" lon="9.889625"><ele>53.5</ele><time>2026-04-11T12:18:21.925Z</time></trkpt><trkpt lat="45.209185" lon="9.8893283"><ele>53.0</ele><time>2026-04-11T12:18:22.925Z</time></trkpt><trkpt lat="45.2093233" lon="9.88905"><ele>53.0</ele><time>2026-04-11T12:18:23.925Z</time></trkpt><trkpt lat="45.2094583" lon="9.88877"><ele>53.0</ele><time>2026-04-11T12:18:24.925Z</time></trkpt><trkpt lat="45.20959" lon="9.88851"><ele>54.0</ele><time>2026-04-11T12:18:25.925Z</time></trkpt><trkpt lat="45.2097183" lon="9.8882333"><ele>55.0</ele><time>2026-04-11T12:18:26.924Z</time></trkpt><trkpt lat="45.2098467" lon="9.8879667"><ele>55.0</ele><time>2026-04-11T12:18:27.925Z</time></trkpt><trkpt lat="45.2099833" lon="9.8876917"><ele>55.0</ele><time>2026-04-11T12:18:28.925Z</time></trkpt><trkpt lat="45.21011" lon="9.88741"><ele>53.5</ele><time>2026-04-11T12:18:29.924Z</time></trkpt><trkpt lat="45.21023" lon="9.8871083"><ele>52.0</ele><time>2026-04-11T12:18:30.925Z</time></trkpt><trkpt lat="45.210365" lon="9.8868033"><ele>52.0</ele><time>2026-04-11T12:18:31.924Z</time></trkpt><trkpt lat="45.210515" lon="9.8864917"><ele>52.0</ele><time>2026-04-11T12:18:32.925Z</time></trkpt><trkpt lat="45.2106733" lon="9.8861767"><ele>52.0</ele><time>2026-04-11T12:18:33.925Z</time></trkpt><trkpt lat="45.2108417" lon="9.885845"><ele>52.0</ele><time>2026-04-11T12:18:34.925Z</time></trkpt><trkpt lat="45.211005" lon="9.8855167"><ele>52.0</ele><time>2026-04-11T12:18:35.924Z</time></trkpt><trkpt lat="45.2111667" lon="9.8851767"><ele>52.0</ele><time>2026-04-11T12:18:36.925Z</time></trkpt><trkpt lat="45.2113333" lon="9.8848333"><ele>52.5</ele><time>2026-04-11T12:18:37.925Z</time></trkpt><trkpt lat="45.2115017" lon="9.8844833"><ele>53.0</ele><time>2026-04-11T12:18:38.925Z</time></trkpt><trkpt lat="45.21167" lon="9.8841383"><ele>53.5</ele><time>2026-04-11T12:18:39.925Z</time></trkpt><trkpt lat="45.211835" lon="9.8837867"><ele>54.0</ele><time>2026-04-11T12:18:40.925Z</time></trkpt><trkpt lat="45.2119983" lon="9.8834283"><ele>54.5</ele><time>2026-04-11T12:18:41.925Z</time></trkpt><trkpt lat="45.21217" lon="9.8830517"><ele>55.0</ele><time>2026-04-11T12:18:42.925Z</time></trkpt><trkpt lat="45.21234" lon="9.8826867"><ele>54.0</ele><time>2026-04-11T12:18:43.925Z</time></trkpt><trkpt lat="45.2125033" lon="9.882325"><ele>53.0</ele><time>2026-04-11T12:18:44.924Z</time></trkpt><trkpt lat="45.212675" lon="9.88196"><ele>53.0</ele><time>2026-04-11T12:18:45.925Z</time></trkpt><trkpt lat="45.2128483" lon="9.8815917"><ele>53.0</ele><time>2026-04-11T12:18:46.925Z</time></trkpt><trkpt lat="45.2130233" lon="9.8812233"><ele>53.5</ele><time>2026-04-11T12:18:47.925Z</time></trkpt><trkpt lat="45.2131917" lon="9.88088"><ele>54.0</ele><time>2026-04-11T12:18:48.925Z</time></trkpt><trkpt lat="45.2134883" lon="9.88025"><ele>53.5</ele><time>2026-04-11T12:18:50.925Z</time></trkpt><trkpt lat="45.2136217" lon="9.879965"><ele>53.0</ele><time>2026-04-11T12:18:51.925Z</time></trkpt><trkpt lat="45.2137483" lon="9.879685"><ele>53.0</ele><time>2026-04-11T12:18:52.925Z</time></trkpt><trkpt lat="45.21388" lon="9.8794133"><ele>53.0</ele><time>2026-04-11T12:18:53.924Z</time></trkpt><trkpt lat="45.2140117" lon="9.87914"><ele>54.0</ele><time>2026-04-11T12:18:54.925Z</time></trkpt><trkpt lat="45.2141433" lon="9.87887"><ele>55.0</ele><time>2026-04-11T12:18:55.925Z</time></trkpt><trkpt lat="45.2142733" lon="9.878595"><ele>54.5</ele><time>2026-04-11T12:18:56.925Z</time></trkpt><trkpt lat="45.2144033" lon="9.8783133"><ele>54.0</ele><time>2026-04-11T12:18:57.925Z</time></trkpt><trkpt lat="45.21454" lon="9.8780267"><ele>54.0</ele><time>2026-04-11T12:18:58.925Z</time></trkpt><trkpt lat="45.2146867" lon="9.8777533"><ele>54.0</ele><time>2026-04-11T12:18:59.925Z</time></trkpt><trkpt lat="45.2148383" lon="9.877485"><ele>53.5</ele><time>2026-04-11T12:19:00.925Z</time></trkpt><trkpt lat="45.2149933" lon="9.87722"><ele>53.0</ele><time>2026-04-11T12:19:01.925Z</time></trkpt><trkpt lat="45.2151483" lon="9.8769683"><ele>53.0</ele><time>2026-04-11T12:19:02.925Z</time></trkpt><trkpt lat="45.2153083" lon="9.8767283"><ele>53.0</ele><time>2026-04-11T12:19:03.925Z</time></trkpt><trkpt lat="45.21547" lon="9.876495"><ele>53.0</ele><time>2026-04-11T12:19:04.925Z</time></trkpt><trkpt lat="45.2156367" lon="9.8762667"><ele>53.0</ele><time>2026-04-11T12:19:05.924Z</time></trkpt><trkpt lat="45.2157967" lon="9.8760583"><ele>53.0</ele><time>2026-04-11T12:19:06.925Z</time></trkpt><trkpt lat="45.2159533" lon="9.87586"><ele>53.333333333333336</ele><time>2026-04-11T12:19:07.925Z</time></trkpt><trkpt lat="45.21612" lon="9.87565"><ele>53.66666666666667</ele><time>2026-04-11T12:19:08.925Z</time></trkpt><trkpt lat="45.2162917" lon="9.8754583"><ele>54.0</ele><time>2026-04-11T12:19:09.925Z</time></trkpt><trkpt lat="45.2164583" lon="9.8752667"><ele>54.0</ele><time>2026-04-11T12:19:10.925Z</time></trkpt><trkpt lat="45.216635" lon="9.875085"><ele>54.0</ele><time>2026-04-11T12:19:11.925Z</time></trkpt><trkpt lat="45.2168183" lon="9.8749067"><ele>54.0</ele><time>2026-04-11T12:19:12.925Z</time></trkpt><trkpt lat="45.2169917" lon="9.8747233"><ele>54.0</ele><time>2026-04-11T12:19:13.925Z</time></trkpt><trkpt lat="45.2171717" lon="9.8745517"><ele>54.0</ele><time>2026-04-11T12:19:14.925Z</time></trkpt><trkpt lat="45.217355" lon="9.8743733"><ele>54.0</ele><time>2026-04-11T12:19:15.924Z</time></trkpt><trkpt lat="45.2175417" lon="9.8741867"><ele>54.5</ele><time>2026-04-11T12:19:16.924Z</time></trkpt><trkpt lat="45.2177333" lon="9.8740017"><ele>55.0</ele><time>2026-04-11T12:19:17.924Z</time></trkpt><trkpt lat="45.2179217" lon="9.8738217"><ele>55.0</ele><time>2026-04-11T12:19:18.923Z</time></trkpt><trkpt lat="45.2181183" lon="9.87364"><ele>55.0</ele><time>2026-04-11T12:19:19.924Z</time></trkpt><trkpt lat="45.218305" lon="9.87345"><ele>55.0</ele><time>2026-04-11T12:19:20.924Z</time></trkpt><trkpt lat="45.2185017" lon="9.8732617"><ele>55.0</ele><time>2026-04-11T12:19:21.923Z</time></trkpt><trkpt lat="45.2186967" lon="9.8730783"><ele>55.0</ele><time>2026-04-11T12:19:22.924Z</time></trkpt><trkpt lat="45.2188833" lon="9.8728867"><ele>55.0</ele><time>2026-04-11T12:19:23.924Z</time></trkpt><trkpt lat="45.2190767" lon="9.8726967"><ele>54.5</ele><time>2026-04-11T12:19:24.924Z</time></trkpt><trkpt lat="45.2192767" lon="9.8725017"><ele>54.0</ele><time>2026-04-11T12:19:25.924Z</time></trkpt><trkpt lat="45.219475" lon="9.8723067"><ele>54.0</ele><time>2026-04-11T12:19:26.924Z</time></trkpt><trkpt lat="45.2196717" lon="9.8721183"><ele>54.0</ele><time>2026-04-11T12:19:27.923Z</time></trkpt><trkpt lat="45.219865" lon="9.8719283"><ele>54.5</ele><time>2026-04-11T12:19:28.923Z</time></trkpt><trkpt lat="45.220055" lon="9.8717317"><ele>55.0</ele><time>2026-04-11T12:19:29.924Z</time></trkpt><trkpt lat="45.2202483" lon="9.8715517"><ele>55.0</ele><time>2026-04-11T12:19:30.924Z</time></trkpt><trkpt lat="45.2204417" lon="9.8713517"><ele>55.0</ele><time>2026-04-11T12:19:31.924Z</time></trkpt><trkpt lat="45.220645" lon="9.8711483"><ele>54.5</ele><time>2026-04-11T12:19:32.924Z</time></trkpt><trkpt lat="45.22085" lon="9.8709383"><ele>54.0</ele><time>2026-04-11T12:19:33.924Z</time></trkpt><trkpt lat="45.2210717" lon="9.8707133"><ele>54.0</ele><time>2026-04-11T12:19:34.924Z</time></trkpt><trkpt lat="45.221305" lon="9.870475"><ele>54.0</ele><time>2026-04-11T12:19:35.924Z</time></trkpt><trkpt lat="45.2215333" lon="9.87024"><ele>54.5</ele><time>2026-04-11T12:19:36.924Z</time></trkpt><trkpt lat="45.22178" lon="9.8700033"><ele>55.0</ele><time>2026-04-11T12:19:37.924Z</time></trkpt><trkpt lat="45.222025" lon="9.8697817"><ele>55.0</ele><time>2026-04-11T12:19:38.924Z</time></trkpt><trkpt lat="45.2222667" lon="9.869545"><ele>55.0</ele><time>2026-04-11T12:19:39.924Z</time></trkpt><trkpt lat="45.22252" lon="9.86931"><ele>55.5</ele><time>2026-04-11T12:19:40.924Z</time></trkpt><trkpt lat="45.2227633" lon="9.869075"><ele>56.0</ele><time>2026-04-11T12:19:41.924Z</time></trkpt><trkpt lat="45.2230083" lon="9.8688367"><ele>55.5</ele><time>2026-04-11T12:19:42.923Z</time></trkpt><trkpt lat="45.2232483" lon="9.868595"><ele>55.0</ele><time>2026-04-11T12:19:43.924Z</time></trkpt><trkpt lat="45.2234917" lon="9.8683533"><ele>54.5</ele><time>2026-04-11T12:19:44.924Z</time></trkpt><trkpt lat="45.2237433" lon="9.8681133"><ele>54.0</ele><time>2026-04-11T12:19:45.924Z</time></trkpt><trkpt lat="45.2239833" lon="9.867875"><ele>54.0</ele><time>2026-04-11T12:19:46.924Z</time></trkpt><trkpt lat="45.2242333" lon="9.8676367"><ele>54.0</ele><time>2026-04-11T12:19:47.924Z</time></trkpt><trkpt lat="45.2244817" lon="9.86739"><ele>54.0</ele><time>2026-04-11T12:19:48.923Z</time></trkpt><trkpt lat="45.2247333" lon="9.867145"><ele>54.0</ele><time>2026-04-11T12:19:49.923Z</time></trkpt><trkpt lat="45.2249833" lon="9.8669083"><ele>54.0</ele><time>2026-04-11T12:19:50.924Z</time></trkpt><trkpt lat="45.2252283" lon="9.8666667"><ele>54.0</ele><time>2026-04-11T12:19:51.924Z</time></trkpt><trkpt lat="45.2254767" lon="9.86642"><ele>54.0</ele><time>2026-04-11T12:19:52.924Z</time></trkpt><trkpt lat="45.2257283" lon="9.8661767"><ele>54.0</ele><time>2026-04-11T12:19:53.924Z</time></trkpt><trkpt lat="45.2259833" lon="9.8659283"><ele>54.0</ele><time>2026-04-11T12:19:54.924Z</time></trkpt><trkpt lat="45.226235" lon="9.8656833"><ele>54.0</ele><time>2026-04-11T12:19:55.923Z</time></trkpt><trkpt lat="45.226485" lon="9.865435"><ele>54.0</ele><time>2026-04-11T12:19:56.924Z</time></trkpt><trkpt lat="45.2267383" lon="9.8651833"><ele>54.0</ele><time>2026-04-11T12:19:57.924Z</time></trkpt><trkpt lat="45.2269967" lon="9.8649333"><ele>54.0</ele><time>2026-04-11T12:19:58.924Z</time></trkpt><trkpt lat="45.2272517" lon="9.864685"><ele>54.0</ele><time>2026-04-11T12:19:59.924Z</time></trkpt><trkpt lat="45.2275083" lon="9.8644317"><ele>54.5</ele><time>2026-04-11T12:20:00.924Z</time></trkpt><trkpt lat="45.2277617" lon="9.8641783"><ele>55.0</ele><time>2026-04-11T12:20:01.924Z</time></trkpt><trkpt lat="45.2280233" lon="9.863925"><ele>55.0</ele><time>2026-04-11T12:20:02.924Z</time></trkpt><trkpt lat="45.22828" lon="9.86367"><ele>55.0</ele><time>2026-04-11T12:20:03.924Z</time></trkpt><trkpt lat="45.2285383" lon="9.863415"><ele>55.0</ele><time>2026-04-11T12:20:04.923Z</time></trkpt><trkpt lat="45.2287933" lon="9.8631633"><ele>55.0</ele><time>2026-04-11T12:20:05.924Z</time></trkpt><trkpt lat="45.2290433" lon="9.86292"><ele>55.0</ele><time>2026-04-11T12:20:06.924Z</time></trkpt><trkpt lat="45.2292783" lon="9.8626883"><ele>55.0</ele><time>2026-04-11T12:20:07.924Z</time></trkpt><trkpt lat="45.229495" lon="9.86247"><ele>55.0</ele><time>2026-04-11T12:20:08.924Z</time></trkpt><trkpt lat="45.229695" lon="9.8622517"><ele>55.0</ele><time>2026-04-11T12:20:09.924Z</time></trkpt><trkpt lat="45.22989" lon="9.8620267"><ele>55.0</ele><time>2026-04-11T12:20:10.924Z</time></trkpt><trkpt lat="45.2300833" lon="9.8617967"><ele>55.0</ele><time>2026-04-11T12:20:11.924Z</time></trkpt><trkpt lat="45.230275" lon="9.8615533"><ele>55.0</ele><time>2026-04-11T12:20:12.924Z</time></trkpt><trkpt lat="45.2304633" lon="9.8613"><ele>55.0</ele><time>2026-04-11T12:20:13.924Z</time></trkpt><trkpt lat="45.2306483" lon="9.8610367"><ele>55.0</ele><time>2026-04-11T12:20:14.924Z</time></trkpt><trkpt lat="45.2308367" lon="9.8607733"><ele>55.0</ele><time>2026-04-11T12:20:15.924Z</time></trkpt><trkpt lat="45.2310283" lon="9.8605017"><ele>55.0</ele><time>2026-04-11T12:20:16.924Z</time></trkpt><trkpt lat="45.2312233" lon="9.8602217"><ele>55.0</ele><time>2026-04-11T12:20:17.924Z</time></trkpt><trkpt lat="45.2314233" lon="9.8599383"><ele>55.0</ele><time>2026-04-11T12:20:18.923Z</time></trkpt><trkpt lat="45.2316183" lon="9.8596567"><ele>55.0</ele><time>2026-04-11T12:20:19.924Z</time></trkpt><trkpt lat="45.2318233" lon="9.8593783"><ele>54.0</ele><time>2026-04-11T12:20:20.924Z</time></trkpt><trkpt lat="45.2320267" lon="9.8590983"><ele>53.0</ele><time>2026-04-11T12:20:21.924Z</time></trkpt><trkpt lat="45.2322317" lon="9.8588167"><ele>53.5</ele><time>2026-04-11T12:20:22.924Z</time></trkpt><trkpt lat="45.232435" lon="9.858525"><ele>54.0</ele><time>2026-04-11T12:20:23.923Z</time></trkpt><trkpt lat="45.232635" lon="9.8582283"><ele>54.5</ele><time>2026-04-11T12:20:24.924Z</time></trkpt><trkpt lat="45.23284" lon="9.857935"><ele>55.0</ele><time>2026-04-11T12:20:25.924Z</time></trkpt><trkpt lat="45.2330483" lon="9.857635"><ele>54.5</ele><time>2026-04-11T12:20:26.924Z</time></trkpt><trkpt lat="45.233245" lon="9.8573367"><ele>54.0</ele><time>2026-04-11T12:20:27.924Z</time></trkpt><trkpt lat="45.2334483" lon="9.85705"><ele>54.0</ele><time>2026-04-11T12:20:28.924Z</time></trkpt><trkpt lat="45.2336367" lon="9.856755"><ele>54.0</ele><time>2026-04-11T12:20:29.924Z</time></trkpt><trkpt lat="45.2338333" lon="9.8564517"><ele>54.5</ele><time>2026-04-11T12:20:30.924Z</time></trkpt><trkpt lat="45.2340217" lon="9.8561383"><ele>55.0</ele><time>2026-04-11T12:20:31.924Z</time></trkpt><trkpt lat="45.2342067" lon="9.85583"><ele>55.0</ele><time>2026-04-11T12:20:32.924Z</time></trkpt><trkpt lat="45.2343867" lon="9.85551"><ele>55.0</ele><time>2026-04-11T12:20:33.924Z</time></trkpt><trkpt lat="45.23456" lon="9.8551917"><ele>54.5</ele><time>2026-04-11T12:20:34.923Z</time></trkpt><trkpt lat="45.2347417" lon="9.8548733"><ele>54.0</ele><time>2026-04-11T12:20:35.924Z</time></trkpt><trkpt lat="45.2349183" lon="9.8545483"><ele>55.0</ele><time>2026-04-11T12:20:36.924Z</time></trkpt><trkpt lat="45.2350917" lon="9.854235"><ele>56.0</ele><time>2026-04-11T12:20:37.924Z</time></trkpt><trkpt lat="45.2352667" lon="9.85392"><ele>56.0</ele><time>2026-04-11T12:20:38.924Z</time></trkpt><trkpt lat="45.2354483" lon="9.85361"><ele>56.0</ele><time>2026-04-11T12:20:39.924Z</time></trkpt><trkpt lat="45.23563" lon="9.8532983"><ele>56.0</ele><time>2026-04-11T12:20:40.924Z</time></trkpt><trkpt lat="45.2358033" lon="9.853"><ele>56.0</ele><time>2026-04-11T12:20:41.924Z</time></trkpt><trkpt lat="45.2359967" lon="9.8527"><ele>56.0</ele><time>2026-04-11T12:20:42.923Z</time></trkpt><trkpt lat="45.2361783" lon="9.852425"><ele>56.0</ele><time>2026-04-11T12:20:43.924Z</time></trkpt><trkpt lat="45.23637" lon="9.852165"><ele>56.0</ele><time>2026-04-11T12:20:44.924Z</time></trkpt><trkpt lat="45.236575" lon="9.8519033"><ele>56.0</ele><time>2026-04-11T12:20:45.924Z</time></trkpt><trkpt lat="45.236785" lon="9.8516417"><ele>56.0</ele><time>2026-04-11T12:20:46.924Z</time></trkpt><trkpt lat="45.2369883" lon="9.85138"><ele>56.0</ele><time>2026-04-11T12:20:47.923Z</time></trkpt><trkpt lat="45.2371867" lon="9.85111"><ele>55.5</ele><time>2026-04-11T12:20:48.924Z</time></trkpt><trkpt lat="45.2373817" lon="9.85083"><ele>55.0</ele><time>2026-04-11T12:20:49.924Z</time></trkpt><trkpt lat="45.23757" lon="9.8505433"><ele>55.0</ele><time>2026-04-11T12:20:50.924Z</time></trkpt><trkpt lat="45.23776" lon="9.8502533"><ele>55.0</ele><time>2026-04-11T12:20:51.924Z</time></trkpt><trkpt lat="45.2379417" lon="9.8499567"><ele>55.0</ele><time>2026-04-11T12:20:52.924Z</time></trkpt><trkpt lat="45.2381233" lon="9.8496583"><ele>55.0</ele><time>2026-04-11T12:20:53.924Z</time></trkpt><trkpt lat="45.238305" lon="9.8493617"><ele>55.0</ele><time>2026-04-11T12:20:54.924Z</time></trkpt><trkpt lat="45.2384867" lon="9.84906"><ele>55.0</ele><time>2026-04-11T12:20:55.924Z</time></trkpt><trkpt lat="45.23867" lon="9.8487633"><ele>55.0</ele><time>2026-04-11T12:20:56.924Z</time></trkpt><trkpt lat="45.2388467" lon="9.84846"><ele>55.0</ele><time>2026-04-11T12:20:57.924Z</time></trkpt><trkpt lat="45.2390317" lon="9.8481583"><ele>55.0</ele><time>2026-04-11T12:20:58.924Z</time></trkpt><trkpt lat="45.2392133" lon="9.8478583"><ele>55.0</ele><time>2026-04-11T12:20:59.924Z</time></trkpt><trkpt lat="45.2393967" lon="9.8475583"><ele>55.0</ele><time>2026-04-11T12:21:00.924Z</time></trkpt><trkpt lat="45.2395767" lon="9.8472467"><ele>55.0</ele><time>2026-04-11T12:21:01.924Z</time></trkpt><trkpt lat="45.2397617" lon="9.8469367"><ele>55.5</ele><time>2026-04-11T12:21:02.923Z</time></trkpt><trkpt lat="45.2399483" lon="9.846625"><ele>56.0</ele><time>2026-04-11T12:21:03.924Z</time></trkpt><trkpt lat="45.24014" lon="9.8463167"><ele>56.0</ele><time>2026-04-11T12:21:04.924Z</time></trkpt><trkpt lat="45.24034" lon="9.846015"><ele>56.0</ele><time>2026-04-11T12:21:05.924Z</time></trkpt><trkpt lat="45.2405433" lon="9.845715"><ele>56.5</ele><time>2026-04-11T12:21:06.924Z</time></trkpt><trkpt lat="45.2407583" lon="9.8454267"><ele>57.0</ele><time>2026-04-11T12:21:07.924Z</time></trkpt><trkpt lat="45.2409717" lon="9.8451417"><ele>57.5</ele><time>2026-04-11T12:21:08.924Z</time></trkpt><trkpt lat="45.2411867" lon="9.8448517"><ele>58.0</ele><time>2026-04-11T12:21:09.924Z</time></trkpt><trkpt lat="45.241405" lon="9.844565"><ele>59.0</ele><time>2026-04-11T12:21:10.924Z</time></trkpt><trkpt lat="45.241615" lon="9.844285"><ele>60.0</ele><time>2026-04-11T12:21:11.924Z</time></trkpt><trkpt lat="45.2418067" lon="9.84403"><ele>60.0</ele><time>2026-04-11T12:21:12.924Z</time></trkpt><trkpt lat="45.2419983" lon="9.8437783"><ele>60.0</ele><time>2026-04-11T12:21:13.924Z</time></trkpt><trkpt lat="45.2421783" lon="9.8435533"><ele>59.5</ele><time>2026-04-11T12:21:14.923Z</time></trkpt><trkpt lat="45.2423533" lon="9.84333"><ele>59.0</ele><time>2026-04-11T12:21:15.924Z</time></trkpt><trkpt lat="45.2425183" lon="9.8431267"><ele>59.0</ele><time>2026-04-11T12:21:16.924Z</time></trkpt><trkpt lat="45.24267" lon="9.8429367"><ele>59.0</ele><time>2026-04-11T12:21:17.923Z</time></trkpt><trkpt lat="45.2428167" lon="9.8427583"><ele>59.0</ele><time>2026-04-11T12:21:18.924Z</time></trkpt><trkpt lat="45.242975" lon="9.8425833"><ele>59.333333333333336</ele><time>2026-04-11T12:21:19.924Z</time></trkpt><trkpt lat="45.24314" lon="9.842415"><ele>59.66666666666667</ele><time>2026-04-11T12:21:20.924Z</time></trkpt><trkpt lat="45.243315" lon="9.84226"><ele>60.0</ele><time>2026-04-11T12:21:21.924Z</time></trkpt><trkpt lat="45.2435017" lon="9.8421167"><ele>60.0</ele><time>2026-04-11T12:21:22.924Z</time></trkpt><trkpt lat="45.2436983" lon="9.8419817"><ele>60.0</ele><time>2026-04-11T12:21:23.924Z</time></trkpt><trkpt lat="45.24391" lon="9.8418617"><ele>60.0</ele><time>2026-04-11T12:21:24.924Z</time></trkpt><trkpt lat="45.2441317" lon="9.8417483"><ele>59.5</ele><time>2026-04-11T12:21:25.924Z</time></trkpt><trkpt lat="45.244355" lon="9.841655"><ele>59.0</ele><time>2026-04-11T12:21:26.924Z</time></trkpt><trkpt lat="45.2445883" lon="9.8415767"><ele>58.5</ele><time>2026-04-11T12:21:27.924Z</time></trkpt><trkpt lat="45.2448267" lon="9.84149"><ele>58.0</ele><time>2026-04-11T12:21:28.923Z</time></trkpt><trkpt lat="45.2450717" lon="9.8414033"><ele>58.0</ele><time>2026-04-11T12:21:29.924Z</time></trkpt><trkpt lat="45.2453183" lon="9.8413133"><ele>58.0</ele><time>2026-04-11T12:21:30.924Z</time></trkpt><trkpt lat="45.2455733" lon="9.8412317"><ele>57.5</ele><time>2026-04-11T12:21:31.924Z</time></trkpt><trkpt lat="45.2458267" lon="9.841145"><ele>57.0</ele><time>2026-04-11T12:21:32.924Z</time></trkpt><trkpt lat="45.2460833" lon="9.8410567"><ele>57.0</ele><time>2026-04-11T12:21:33.924Z</time></trkpt><trkpt lat="45.2463433" lon="9.84097"><ele>57.0</ele><time>2026-04-11T12:21:34.923Z</time></trkpt><trkpt lat="45.2466033" lon="9.84088"><ele>57.5</ele><time>2026-04-11T12:21:35.924Z</time></trkpt><trkpt lat="45.246865" lon="9.84079"><ele>58.0</ele><time>2026-04-11T12:21:36.924Z</time></trkpt><trkpt lat="45.2471267" lon="9.840705"><ele>59.5</ele><time>2026-04-11T12:21:37.924Z</time></trkpt><trkpt lat="45.24738" lon="9.840615"><ele>61.0</ele><time>2026-04-11T12:21:38.924Z</time></trkpt><trkpt lat="45.2476133" lon="9.8405367"><ele>61.0</ele><time>2026-04-11T12:21:39.924Z</time></trkpt><trkpt lat="45.24784" lon="9.840465"><ele>61.0</ele><time>2026-04-11T12:21:40.924Z</time></trkpt><trkpt lat="45.24805" lon="9.8403933"><ele>61.0</ele><time>2026-04-11T12:21:41.924Z</time></trkpt><trkpt lat="45.2482517" lon="9.8403267"><ele>61.0</ele><time>2026-04-11T12:21:42.924Z</time></trkpt><trkpt lat="45.2484533" lon="9.8402517"><ele>61.0</ele><time>2026-04-11T12:21:43.924Z</time></trkpt><trkpt lat="45.2486533" lon="9.8401733"><ele>61.0</ele><time>2026-04-11T12:21:44.924Z</time></trkpt><trkpt lat="45.2488617" lon="9.8400817"><ele>59.666666666666664</ele><time>2026-04-11T12:21:45.924Z</time></trkpt><trkpt lat="45.2490717" lon="9.839975"><ele>58.33333333333333</ele><time>2026-04-11T12:21:46.924Z</time></trkpt><trkpt lat="45.2492767" lon="9.83985"><ele>57.0</ele><time>2026-04-11T12:21:47.924Z</time></trkpt><trkpt lat="45.2494767" lon="9.839715"><ele>57.0</ele><time>2026-04-11T12:21:48.924Z</time></trkpt><trkpt lat="45.2496717" lon="9.839565"><ele>57.0</ele><time>2026-04-11T12:21:49.924Z</time></trkpt><trkpt lat="45.2498617" lon="9.8393933"><ele>57.0</ele><time>2026-04-11T12:21:50.924Z</time></trkpt><trkpt lat="45.2500467" lon="9.8392183"><ele>57.66666666666667</ele><time>2026-04-11T12:21:51.924Z</time></trkpt><trkpt lat="45.2502183" lon="9.8390333"><ele>58.333333333333336</ele><time>2026-04-11T12:21:52.924Z</time></trkpt><trkpt lat="45.2503883" lon="9.8388367"><ele>59.0</ele><time>2026-04-11T12:21:53.924Z</time></trkpt><trkpt lat="45.2505567" lon="9.8386317"><ele>58.66666666666667</ele><time>2026-04-11T12:21:54.924Z</time></trkpt><trkpt lat="45.2507183" lon="9.83841"><ele>58.33333333333333</ele><time>2026-04-11T12:21:55.924Z</time></trkpt><trkpt lat="45.25086" lon="9.838175"><ele>58.0</ele><time>2026-04-11T12:21:56.924Z</time></trkpt><trkpt lat="45.2510033" lon="9.837945"><ele>58.0</ele><time>2026-04-11T12:21:57.924Z</time></trkpt><trkpt lat="45.25113" lon="9.83771"><ele>58.0</ele><time>2026-04-11T12:21:58.924Z</time></trkpt><trkpt lat="45.2512583" lon="9.8374783"><ele>58.0</ele><time>2026-04-11T12:21:59.924Z</time></trkpt><trkpt lat="45.2513833" lon="9.8372383"><ele>58.0</ele><time>2026-04-11T12:22:00.924Z</time></trkpt><trkpt lat="45.2515" lon="9.8370017"><ele>58.0</ele><time>2026-04-11T12:22:01.924Z</time></trkpt><trkpt lat="45.2516283" lon="9.8367667"><ele>58.0</ele><time>2026-04-11T12:22:02.924Z</time></trkpt><trkpt lat="45.2517533" lon="9.8365317"><ele>58.0</ele><time>2026-04-11T12:22:03.924Z</time></trkpt><trkpt lat="45.2518817" lon="9.8362983"><ele>58.0</ele><time>2026-04-11T12:22:04.924Z</time></trkpt><trkpt lat="45.2520133" lon="9.8360517"><ele>58.0</ele><time>2026-04-11T12:22:05.924Z</time></trkpt><trkpt lat="45.2521367" lon="9.8358117"><ele>58.0</ele><time>2026-04-11T12:22:06.924Z</time></trkpt><trkpt lat="45.252265" lon="9.8355717"><ele>58.0</ele><time>2026-04-11T12:22:07.923Z</time></trkpt><trkpt lat="45.252395" lon="9.8353367"><ele>58.0</ele><time>2026-04-11T12:22:08.924Z</time></trkpt><trkpt lat="45.252515" lon="9.835095"><ele>58.0</ele><time>2026-04-11T12:22:09.924Z</time></trkpt><trkpt lat="45.2526433" lon="9.8348467"><ele>58.0</ele><time>2026-04-11T12:22:10.924Z</time></trkpt><trkpt lat="45.2527717" lon="9.8345983"><ele>58.0</ele><time>2026-04-11T12:22:11.924Z</time></trkpt><trkpt lat="45.252895" lon="9.83436"><ele>58.0</ele><time>2026-04-11T12:22:12.924Z</time></trkpt><trkpt lat="45.2530283" lon="9.83411"><ele>58.0</ele><time>2026-04-11T12:22:13.923Z</time></trkpt><trkpt lat="45.253165" lon="9.83387"><ele>58.0</ele><time>2026-04-11T12:22:14.924Z</time></trkpt><trkpt lat="45.2533067" lon="9.8336283"><ele>58.33333333333333</ele><time>2026-04-11T12:22:15.924Z</time></trkpt><trkpt lat="45.2534533" lon="9.8333883"><ele>58.66666666666667</ele><time>2026-04-11T12:22:16.924Z</time></trkpt><trkpt lat="45.2536017" lon="9.8331517"><ele>59.0</ele><time>2026-04-11T12:22:17.924Z</time></trkpt><trkpt lat="45.253755" lon="9.8329283"><ele>59.0</ele><time>2026-04-11T12:22:18.924Z</time></trkpt><trkpt lat="45.25392" lon="9.83271"><ele>59.0</ele><time>2026-04-11T12:22:19.924Z</time></trkpt><trkpt lat="45.254085" lon="9.8324933"><ele>59.0</ele><time>2026-04-11T12:22:20.924Z</time></trkpt><trkpt lat="45.254245" lon="9.8322717"><ele>59.0</ele><time>2026-04-11T12:22:21.923Z</time></trkpt><trkpt lat="45.2544067" lon="9.8320517"><ele>59.0</ele><time>2026-04-11T12:22:22.924Z</time></trkpt><trkpt lat="45.254565" lon="9.8318317"><ele>58.66666666666667</ele><time>2026-04-11T12:22:23.924Z</time></trkpt><trkpt lat="45.2547267" lon="9.8316167"><ele>58.33333333333333</ele><time>2026-04-11T12:22:24.924Z</time></trkpt><trkpt lat="45.2548867" lon="9.8313967"><ele>58.0</ele><time>2026-04-11T12:22:25.924Z</time></trkpt><trkpt lat="45.25504" lon="9.8311917"><ele>58.0</ele><time>2026-04-11T12:22:26.924Z</time></trkpt><trkpt lat="45.2551917" lon="9.8309917"><ele>58.0</ele><time>2026-04-11T12:22:27.924Z</time></trkpt><trkpt lat="45.2553367" lon="9.8307983"><ele>58.0</ele><time>2026-04-11T12:22:28.924Z</time></trkpt><trkpt lat="45.2554817" lon="9.8305967"><ele>57.33333333333333</ele><time>2026-04-11T12:22:29.924Z</time></trkpt><trkpt lat="45.25563" lon="9.8303983"><ele>56.66666666666667</ele><time>2026-04-11T12:22:30.924Z</time></trkpt><trkpt lat="45.25578" lon="9.8302"><ele>56.0</ele><time>2026-04-11T12:22:31.924Z</time></trkpt><trkpt lat="45.255925" lon="9.8300067"><ele>56.0</ele><time>2026-04-11T12:22:32.924Z</time></trkpt><trkpt lat="45.25608" lon="9.82981"><ele>56.0</ele><time>2026-04-11T12:22:33.924Z</time></trkpt><trkpt lat="45.25624" lon="9.8296067"><ele>56.0</ele><time>2026-04-11T12:22:34.924Z</time></trkpt><trkpt lat="45.2564" lon="9.8293867"><ele>56.0</ele><time>2026-04-11T12:22:35.923Z</time></trkpt><trkpt lat="45.2565517" lon="9.829165"><ele>56.0</ele><time>2026-04-11T12:22:36.923Z</time></trkpt><trkpt lat="45.2567033" lon="9.8289433"><ele>56.0</ele><time>2026-04-11T12:22:37.923Z</time></trkpt><trkpt lat="45.25684" lon="9.828715"><ele>55.66666666666667</ele><time>2026-04-11T12:22:38.923Z</time></trkpt><trkpt lat="45.2569733" lon="9.8284717"><ele>55.33333333333333</ele><time>2026-04-11T12:22:39.923Z</time></trkpt><trkpt lat="45.2571017" lon="9.8282267"><ele>55.0</ele><time>2026-04-11T12:22:40.923Z</time></trkpt><trkpt lat="45.2572367" lon="9.8279867"><ele>55.666666666666664</ele><time>2026-04-11T12:22:41.923Z</time></trkpt><trkpt lat="45.2573733" lon="9.827745"><ele>56.33333333333333</ele><time>2026-04-11T12:22:42.923Z</time></trkpt><trkpt lat="45.2575" lon="9.8275133"><ele>57.0</ele><time>2026-04-11T12:22:43.923Z</time></trkpt><trkpt lat="45.2576267" lon="9.8272767"><ele>57.0</ele><time>2026-04-11T12:22:44.923Z</time></trkpt><trkpt lat="45.2577583" lon="9.827045"><ele>57.0</ele><time>2026-04-11T12:22:45.923Z</time></trkpt><trkpt lat="45.2578867" lon="9.8268183"><ele>57.0</ele><time>2026-04-11T12:22:46.923Z</time></trkpt><trkpt lat="45.25801" lon="9.8265917"><ele>57.33333333333333</ele><time>2026-04-11T12:22:47.923Z</time></trkpt><trkpt lat="45.258135" lon="9.8263617"><ele>57.666666666666664</ele><time>2026-04-11T12:22:48.922Z</time></trkpt><trkpt lat="45.2582633" lon="9.8261333"><ele>58.0</ele><time>2026-04-11T12:22:49.923Z</time></trkpt><trkpt lat="45.25839" lon="9.8259033"><ele>57.33333333333333</ele><time>2026-04-11T12:22:50.923Z</time></trkpt><trkpt lat="45.2585083" lon="9.8256733"><ele>56.66666666666667</ele><time>2026-04-11T12:22:51.923Z</time></trkpt><trkpt lat="45.2586267" lon="9.8254517"><ele>56.0</ele><time>2026-04-11T12:22:52.923Z</time></trkpt><trkpt lat="45.2587383" lon="9.8252317"><ele>55.333333333333336</ele><time>2026-04-11T12:22:53.923Z</time></trkpt><trkpt lat="45.2588633" lon="9.8250167"><ele>54.66666666666667</ele><time>2026-04-11T12:22:54.923Z</time></trkpt><trkpt lat="45.2589817" lon="9.8248117"><ele>54.0</ele><time>2026-04-11T12:22:55.923Z</time></trkpt><trkpt lat="45.2590933" lon="9.8246033"><ele>55.0</ele><time>2026-04-11T12:22:56.923Z</time></trkpt><trkpt lat="45.2592067" lon="9.82441"><ele>56.0</ele><time>2026-04-11T12:22:57.923Z</time></trkpt><trkpt lat="45.25932" lon="9.824205"><ele>57.0</ele><time>2026-04-11T12:22:58.923Z</time></trkpt><trkpt lat="45.2594383" lon="9.8239983"><ele>57.0</ele><time>2026-04-11T12:22:59.923Z</time></trkpt><trkpt lat="45.259555" lon="9.8237883"><ele>57.0</ele><time>2026-04-11T12:23:00.923Z</time></trkpt><trkpt lat="45.2596717" lon="9.8235817"><ele>57.0</ele><time>2026-04-11T12:23:01.923Z</time></trkpt><trkpt lat="45.2597883" lon="9.8233617"><ele>57.66666666666667</ele><time>2026-04-11T12:23:02.923Z</time></trkpt><trkpt lat="45.2598883" lon="9.8231267"><ele>58.333333333333336</ele><time>2026-04-11T12:23:03.922Z</time></trkpt><trkpt lat="45.2599883" lon="9.82289"><ele>59.0</ele><time>2026-04-11T12:23:04.923Z</time></trkpt><trkpt lat="45.2600767" lon="9.82266"><ele>58.66666666666667</ele><time>2026-04-11T12:23:05.923Z</time></trkpt><trkpt lat="45.2601633" lon="9.8224167"><ele>58.33333333333333</ele><time>2026-04-11T12:23:06.923Z</time></trkpt><trkpt lat="45.2602417" lon="9.8221717"><ele>58.0</ele><time>2026-04-11T12:23:07.923Z</time></trkpt><trkpt lat="45.26031" lon="9.8219167"><ele>57.666666666666664</ele><time>2026-04-11T12:23:08.923Z</time></trkpt><trkpt lat="45.2603683" lon="9.8216633"><ele>57.33333333333333</ele><time>2026-04-11T12:23:09.922Z</time></trkpt><trkpt lat="45.2604217" lon="9.82141"><ele>57.0</ele><time>2026-04-11T12:23:10.923Z</time></trkpt><trkpt lat="45.2604717" lon="9.8211617"><ele>56.0</ele><time>2026-04-11T12:23:11.923Z</time></trkpt><trkpt lat="45.260525" lon="9.8209033"><ele>55.0</ele><time>2026-04-11T12:23:12.923Z</time></trkpt><trkpt lat="45.2605667" lon="9.8206417"><ele>54.0</ele><time>2026-04-11T12:23:13.923Z</time></trkpt><trkpt lat="45.260605" lon="9.8203817"><ele>56.33333333333333</ele><time>2026-04-11T12:23:14.923Z</time></trkpt><trkpt lat="45.2606383" lon="9.8201183"><ele>58.666666666666664</ele><time>2026-04-11T12:23:15.923Z</time></trkpt><trkpt lat="45.2606567" lon="9.81985"><ele>61.0</ele><time>2026-04-11T12:23:16.923Z</time></trkpt><trkpt lat="45.2606683" lon="9.81957"><ele>60.33333333333333</ele><time>2026-04-11T12:23:17.923Z</time></trkpt><trkpt lat="45.260675" lon="9.8192967"><ele>59.66666666666667</ele><time>2026-04-11T12:23:18.923Z</time></trkpt><trkpt lat="45.2606817" lon="9.8190133"><ele>59.0</ele><time>2026-04-11T12:23:19.923Z</time></trkpt><trkpt lat="45.2606783" lon="9.8187267"><ele>59.66666666666667</ele><time>2026-04-11T12:23:20.923Z</time></trkpt><trkpt lat="45.26067" lon="9.818435"><ele>60.33333333333333</ele><time>2026-04-11T12:23:21.922Z</time></trkpt><trkpt lat="45.26066" lon="9.8181383"><ele>61.0</ele><time>2026-04-11T12:23:22.923Z</time></trkpt><trkpt lat="45.2606567" lon="9.81784"><ele>60.0</ele><time>2026-04-11T12:23:23.923Z</time></trkpt><trkpt lat="45.2606583" lon="9.8175317"><ele>59.0</ele><time>2026-04-11T12:23:24.923Z</time></trkpt><trkpt lat="45.2606433" lon="9.81724"><ele>58.0</ele><time>2026-04-11T12:23:25.923Z</time></trkpt><trkpt lat="45.260625" lon="9.816965"><ele>57.666666666666664</ele><time>2026-04-11T12:23:26.923Z</time></trkpt><trkpt lat="45.260615" lon="9.8166967"><ele>57.33333333333333</ele><time>2026-04-11T12:23:27.922Z</time></trkpt><trkpt lat="45.2606117" lon="9.8164317"><ele>57.0</ele><time>2026-04-11T12:23:28.922Z</time></trkpt><trkpt lat="45.2606183" lon="9.8161667"><ele>56.33333333333333</ele><time>2026-04-11T12:23:29.923Z</time></trkpt><trkpt lat="45.2606117" lon="9.8158967"><ele>55.666666666666664</ele><time>2026-04-11T12:23:30.923Z</time></trkpt><trkpt lat="45.2606" lon="9.8156283"><ele>55.0</ele><time>2026-04-11T12:23:31.923Z</time></trkpt><trkpt lat="45.260595" lon="9.8153733"><ele>54.33333333333333</ele><time>2026-04-11T12:23:32.923Z</time></trkpt><trkpt lat="45.2605967" lon="9.8151217"><ele>53.66666666666667</ele><time>2026-04-11T12:23:33.922Z</time></trkpt><trkpt lat="45.2605983" lon="9.81487"><ele>53.0</ele><time>2026-04-11T12:23:34.922Z</time></trkpt><trkpt lat="45.2605883" lon="9.814625"><ele>53.0</ele><time>2026-04-11T12:23:35.923Z</time></trkpt><trkpt lat="45.26058" lon="9.81438"><ele>53.0</ele><time>2026-04-11T12:23:36.923Z</time></trkpt><trkpt lat="45.2605767" lon="9.8141383"><ele>53.0</ele><time>2026-04-11T12:23:37.923Z</time></trkpt><trkpt lat="45.260575" lon="9.8138917"><ele>52.66666666666667</ele><time>2026-04-11T12:23:38.923Z</time></trkpt><trkpt lat="45.26057" lon="9.8136517"><ele>52.33333333333333</ele><time>2026-04-11T12:23:39.922Z</time></trkpt><trkpt lat="45.2605667" lon="9.8134017"><ele>52.0</ele><time>2026-04-11T12:23:40.923Z</time></trkpt><trkpt lat="45.2605583" lon="9.813145"><ele>53.0</ele><time>2026-04-11T12:23:41.923Z</time></trkpt><trkpt lat="45.2605533" lon="9.81289"><ele>54.0</ele><time>2026-04-11T12:23:42.923Z</time></trkpt><trkpt lat="45.2605467" lon="9.81263"><ele>55.0</ele><time>2026-04-11T12:23:43.923Z</time></trkpt><trkpt lat="45.2605417" lon="9.8123717"><ele>55.33333333333333</ele><time>2026-04-11T12:23:44.923Z</time></trkpt><trkpt lat="45.26054" lon="9.81211"><ele>55.66666666666667</ele><time>2026-04-11T12:23:45.922Z</time></trkpt><trkpt lat="45.26053" lon="9.8118517"><ele>56.0</ele><time>2026-04-11T12:23:46.923Z</time></trkpt><trkpt lat="45.2605267" lon="9.8115983"><ele>56.0</ele><time>2026-04-11T12:23:47.923Z</time></trkpt><trkpt lat="45.2605167" lon="9.8113383"><ele>56.0</ele><time>2026-04-11T12:23:48.923Z</time></trkpt><trkpt lat="45.260505" lon="9.811085"><ele>56.0</ele><time>2026-04-11T12:23:49.923Z</time></trkpt><trkpt lat="45.2604933" lon="9.8108217"><ele>55.66666666666667</ele><time>2026-04-11T12:23:50.923Z</time></trkpt><trkpt lat="45.2604867" lon="9.8105467"><ele>55.33333333333333</ele><time>2026-04-11T12:23:51.923Z</time></trkpt><trkpt lat="45.260485" lon="9.8102733"><ele>55.0</ele><time>2026-04-11T12:23:52.923Z</time></trkpt><trkpt lat="45.2604867" lon="9.809985"><ele>55.0</ele><time>2026-04-11T12:23:53.923Z</time></trkpt><trkpt lat="45.260495" lon="9.8096983"><ele>55.0</ele><time>2026-04-11T12:23:54.923Z</time></trkpt><trkpt lat="45.2605017" lon="9.8094133"><ele>55.0</ele><time>2026-04-11T12:23:55.923Z</time></trkpt><trkpt lat="45.2605167" lon="9.80913"><ele>55.33333333333333</ele><time>2026-04-11T12:23:56.922Z</time></trkpt><trkpt lat="45.2605333" lon="9.80886"><ele>55.66666666666667</ele><time>2026-04-11T12:23:57.923Z</time></trkpt><trkpt lat="45.2605567" lon="9.8085817"><ele>56.0</ele><time>2026-04-11T12:23:58.923Z</time></trkpt><trkpt lat="45.26059" lon="9.8083117"><ele>56.0</ele><time>2026-04-11T12:23:59.923Z</time></trkpt><trkpt lat="45.26063" lon="9.8080367"><ele>56.0</ele><time>2026-04-11T12:24:00.923Z</time></trkpt><trkpt lat="45.2606733" lon="9.8077633"><ele>56.0</ele><time>2026-04-11T12:24:01.923Z</time></trkpt><trkpt lat="45.26072" lon="9.80749"><ele>55.66666666666667</ele><time>2026-04-11T12:24:02.923Z</time></trkpt><trkpt lat="45.260775" lon="9.807225"><ele>55.33333333333333</ele><time>2026-04-11T12:24:03.923Z</time></trkpt><trkpt lat="45.2608383" lon="9.80697"><ele>55.0</ele><time>2026-04-11T12:24:04.923Z</time></trkpt><trkpt lat="45.2609017" lon="9.8067133"><ele>55.0</ele><time>2026-04-11T12:24:05.923Z</time></trkpt><trkpt lat="45.2609717" lon="9.8064783"><ele>55.0</ele><time>2026-04-11T12:24:06.923Z</time></trkpt><trkpt lat="45.261045" lon="9.806235"><ele>55.0</ele><time>2026-04-11T12:24:07.923Z</time></trkpt><trkpt lat="45.2611333" lon="9.80599"><ele>55.33333333333333</ele><time>2026-04-11T12:24:08.923Z</time></trkpt><trkpt lat="45.2612333" lon="9.8057533"><ele>55.66666666666667</ele><time>2026-04-11T12:24:09.923Z</time></trkpt><trkpt lat="45.2613383" lon="9.8055333"><ele>56.0</ele><time>2026-04-11T12:24:10.922Z</time></trkpt><trkpt lat="45.26144" lon="9.8053183"><ele>57.0</ele><time>2026-04-11T12:24:11.923Z</time></trkpt><trkpt lat="45.2615433" lon="9.8051067"><ele>58.0</ele><time>2026-04-11T12:24:12.923Z</time></trkpt><trkpt lat="45.2616533" lon="9.8049"><ele>59.0</ele><time>2026-04-11T12:24:13.923Z</time></trkpt><trkpt lat="45.2617617" lon="9.8047067"><ele>59.0</ele><time>2026-04-11T12:24:14.923Z</time></trkpt><trkpt lat="45.2618767" lon="9.80452"><ele>59.0</ele><time>2026-04-11T12:24:15.922Z</time></trkpt><trkpt lat="45.2619917" lon="9.804335"><ele>59.0</ele><time>2026-04-11T12:24:16.923Z</time></trkpt><trkpt lat="45.262115" lon="9.8041483"><ele>59.0</ele><time>2026-04-11T12:24:17.923Z</time></trkpt><trkpt lat="45.2622467" lon="9.8039633"><ele>59.0</ele><time>2026-04-11T12:24:18.923Z</time></trkpt><trkpt lat="45.2623833" lon="9.8037867"><ele>59.0</ele><time>2026-04-11T12:24:19.923Z</time></trkpt><trkpt lat="45.2625167" lon="9.803625"><ele>59.0</ele><time>2026-04-11T12:24:20.923Z</time></trkpt><trkpt lat="45.2626583" lon="9.8034633"><ele>59.0</ele><time>2026-04-11T12:24:21.923Z</time></trkpt><trkpt lat="45.262805" lon="9.8033"><ele>59.0</ele><time>2026-04-11T12:24:22.923Z</time></trkpt><trkpt lat="45.2629667" lon="9.803135"><ele>58.66666666666667</ele><time>2026-04-11T12:24:23.923Z</time></trkpt><trkpt lat="45.2631317" lon="9.8029567"><ele>58.33333333333333</ele><time>2026-04-11T12:24:24.923Z</time></trkpt><trkpt lat="45.263315" lon="9.8027617"><ele>58.0</ele><time>2026-04-11T12:24:25.923Z</time></trkpt><trkpt lat="45.2635067" lon="9.80255"><ele>58.0</ele><time>2026-04-11T12:24:26.923Z</time></trkpt><trkpt lat="45.2637083" lon="9.8023433"><ele>58.0</ele><time>2026-04-11T12:24:27.923Z</time></trkpt><trkpt lat="45.26391" lon="9.8021467"><ele>58.0</ele><time>2026-04-11T12:24:28.923Z</time></trkpt><trkpt lat="45.2641033" lon="9.8019633"><ele>58.0</ele><time>2026-04-11T12:24:29.923Z</time></trkpt><trkpt lat="45.264285" lon="9.801775"><ele>58.0</ele><time>2026-04-11T12:24:30.923Z</time></trkpt><trkpt lat="45.2644667" lon="9.801595"><ele>58.0</ele><time>2026-04-11T12:24:31.923Z</time></trkpt><trkpt lat="45.26464" lon="9.8014067"><ele>58.0</ele><time>2026-04-11T12:24:32.923Z</time></trkpt><trkpt lat="45.2648183" lon="9.8012083"><ele>58.5</ele><time>2026-04-11T12:24:33.923Z</time></trkpt><trkpt lat="45.2649983" lon="9.8010017"><ele>59.0</ele><time>2026-04-11T12:24:34.923Z</time></trkpt><trkpt lat="45.2651983" lon="9.8007983"><ele>58.0</ele><time>2026-04-11T12:24:35.923Z</time></trkpt><trkpt lat="45.2654033" lon="9.8006"><ele>57.0</ele><time>2026-04-11T12:24:36.923Z</time></trkpt><trkpt lat="45.265605" lon="9.8004033"><ele>57.5</ele><time>2026-04-11T12:24:37.923Z</time></trkpt><trkpt lat="45.2657933" lon="9.8002183"><ele>58.0</ele><time>2026-04-11T12:24:38.923Z</time></trkpt><trkpt lat="45.26598" lon="9.8000267"><ele>58.0</ele><time>2026-04-11T12:24:39.923Z</time></trkpt><trkpt lat="45.2661617" lon="9.7998317"><ele>58.0</ele><time>2026-04-11T12:24:40.923Z</time></trkpt><trkpt lat="45.2663467" lon="9.7996317"><ele>58.0</ele><time>2026-04-11T12:24:41.923Z</time></trkpt><trkpt lat="45.266535" lon="9.7994433"><ele>58.0</ele><time>2026-04-11T12:24:42.923Z</time></trkpt><trkpt lat="45.266725" lon="9.7992533"><ele>58.0</ele><time>2026-04-11T12:24:43.923Z</time></trkpt><trkpt lat="45.2669017" lon="9.7990617"><ele>58.0</ele><time>2026-04-11T12:24:44.923Z</time></trkpt><trkpt lat="45.26707" lon="9.7988867"><ele>58.0</ele><time>2026-04-11T12:24:45.923Z</time></trkpt><trkpt lat="45.26724" lon="9.7987183"><ele>58.0</ele><time>2026-04-11T12:24:46.923Z</time></trkpt><trkpt lat="45.26741" lon="9.7985383"><ele>58.0</ele><time>2026-04-11T12:24:47.923Z</time></trkpt><trkpt lat="45.2675917" lon="9.7983383"><ele>58.0</ele><time>2026-04-11T12:24:48.923Z</time></trkpt><trkpt lat="45.2677833" lon="9.7981317"><ele>58.0</ele><time>2026-04-11T12:24:49.923Z</time></trkpt><trkpt lat="45.267985" lon="9.79791"><ele>58.0</ele><time>2026-04-11T12:24:50.923Z</time></trkpt><trkpt lat="45.2682017" lon="9.7976967"><ele>59.0</ele><time>2026-04-11T12:24:51.923Z</time></trkpt><trkpt lat="45.268415" lon="9.797465"><ele>60.0</ele><time>2026-04-11T12:24:52.923Z</time></trkpt><trkpt lat="45.2686433" lon="9.7972333"><ele>60.0</ele><time>2026-04-11T12:24:53.923Z</time></trkpt><trkpt lat="45.26888" lon="9.7970033"><ele>60.0</ele><time>2026-04-11T12:24:54.923Z</time></trkpt><trkpt lat="45.26911" lon="9.796765"><ele>59.5</ele><time>2026-04-11T12:24:55.923Z</time></trkpt><trkpt lat="45.269325" lon="9.7965467"><ele>59.0</ele><time>2026-04-11T12:24:56.923Z</time></trkpt><trkpt lat="45.2695167" lon="9.796335"><ele>59.0</ele><time>2026-04-11T12:24:57.923Z</time></trkpt><trkpt lat="45.269705" lon="9.7961467"><ele>59.0</ele><time>2026-04-11T12:24:58.923Z</time></trkpt><trkpt lat="45.2698917" lon="9.795955"><ele>59.0</ele><time>2026-04-11T12:24:59.923Z</time></trkpt><trkpt lat="45.27008" lon="9.7957583"><ele>59.0</ele><time>2026-04-11T12:25:00.923Z</time></trkpt><trkpt lat="45.2702767" lon="9.79556"><ele>59.0</ele><time>2026-04-11T12:25:01.923Z</time></trkpt><trkpt lat="45.270475" lon="9.7953633"><ele>59.0</ele><time>2026-04-11T12:25:02.923Z</time></trkpt><trkpt lat="45.2706683" lon="9.79516"><ele>59.5</ele><time>2026-04-11T12:25:03.923Z</time></trkpt><trkpt lat="45.270855" lon="9.79496"><ele>60.0</ele><time>2026-04-11T12:25:04.923Z</time></trkpt><trkpt lat="45.2710333" lon="9.794765"><ele>60.0</ele><time>2026-04-11T12:25:05.923Z</time></trkpt><trkpt lat="45.2711983" lon="9.7945583"><ele>60.0</ele><time>2026-04-11T12:25:06.923Z</time></trkpt><trkpt lat="45.2713717" lon="9.7943483"><ele>60.0</ele><time>2026-04-11T12:25:07.923Z</time></trkpt><trkpt lat="45.2715317" lon="9.7941317"><ele>59.66666666666667</ele><time>2026-04-11T12:25:08.923Z</time></trkpt><trkpt lat="45.27169" lon="9.7939183"><ele>59.333333333333336</ele><time>2026-04-11T12:25:09.922Z</time></trkpt><trkpt lat="45.2718483" lon="9.7937117"><ele>59.0</ele><time>2026-04-11T12:25:10.922Z</time></trkpt><trkpt lat="45.272" lon="9.7935117"><ele>59.0</ele><time>2026-04-11T12:25:11.923Z</time></trkpt><trkpt lat="45.2721483" lon="9.7933233"><ele>59.0</ele><time>2026-04-11T12:25:12.923Z</time></trkpt><trkpt lat="45.2723017" lon="9.7931167"><ele>59.0</ele><time>2026-04-11T12:25:13.923Z</time></trkpt><trkpt lat="45.27245" lon="9.79292"><ele>59.0</ele><time>2026-04-11T12:25:14.923Z</time></trkpt><trkpt lat="45.272615" lon="9.79273"><ele>59.0</ele><time>2026-04-11T12:25:15.922Z</time></trkpt><trkpt lat="45.2727733" lon="9.792535"><ele>59.0</ele><time>2026-04-11T12:25:16.923Z</time></trkpt><trkpt lat="45.2729267" lon="9.7923317"><ele>59.0</ele><time>2026-04-11T12:25:17.923Z</time></trkpt><trkpt lat="45.2730867" lon="9.7921417"><ele>59.0</ele><time>2026-04-11T12:25:18.922Z</time></trkpt><trkpt lat="45.2732383" lon="9.7919467"><ele>59.0</ele><time>2026-04-11T12:25:19.923Z</time></trkpt><trkpt lat="45.27339" lon="9.79175"><ele>59.0</ele><time>2026-04-11T12:25:20.923Z</time></trkpt><trkpt lat="45.2735433" lon="9.7915533"><ele>59.0</ele><time>2026-04-11T12:25:21.923Z</time></trkpt><trkpt lat="45.2736933" lon="9.7913517"><ele>59.0</ele><time>2026-04-11T12:25:22.923Z</time></trkpt><trkpt lat="45.2738517" lon="9.7911433"><ele>58.66666666666667</ele><time>2026-04-11T12:25:23.923Z</time></trkpt><trkpt lat="45.27401" lon="9.790935"><ele>58.33333333333333</ele><time>2026-04-11T12:25:24.923Z</time></trkpt><trkpt lat="45.27417" lon="9.7907283"><ele>58.0</ele><time>2026-04-11T12:25:25.923Z</time></trkpt><trkpt lat="45.2743317" lon="9.7905233"><ele>58.0</ele><time>2026-04-11T12:25:26.923Z</time></trkpt><trkpt lat="45.27449" lon="9.7903117"><ele>58.0</ele><time>2026-04-11T12:25:27.922Z</time></trkpt><trkpt lat="45.2746483" lon="9.7901033"><ele>58.0</ele><time>2026-04-11T12:25:28.923Z</time></trkpt><trkpt lat="45.2748067" lon="9.789895"><ele>57.666666666666664</ele><time>2026-04-11T12:25:29.922Z</time></trkpt><trkpt lat="45.2749683" lon="9.7896933"><ele>57.33333333333333</ele><time>2026-04-11T12:25:30.922Z</time></trkpt><trkpt lat="45.275135" lon="9.7894883"><ele>57.0</ele><time>2026-04-11T12:25:31.923Z</time></trkpt><trkpt lat="45.275295" lon="9.7892883"><ele>57.0</ele><time>2026-04-11T12:25:32.923Z</time></trkpt><trkpt lat="45.2754467" lon="9.7890883"><ele>57.0</ele><time>2026-04-11T12:25:33.923Z</time></trkpt><trkpt lat="45.2755933" lon="9.7888733"><ele>57.0</ele><time>2026-04-11T12:25:34.922Z</time></trkpt><trkpt lat="45.2757333" lon="9.788655"><ele>57.33333333333333</ele><time>2026-04-11T12:25:35.923Z</time></trkpt><trkpt lat="45.2758733" lon="9.7884217"><ele>57.666666666666664</ele><time>2026-04-11T12:25:36.923Z</time></trkpt><trkpt lat="45.275995" lon="9.7881733"><ele>58.0</ele><time>2026-04-11T12:25:37.923Z</time></trkpt><trkpt lat="45.2761117" lon="9.7879217"><ele>57.33333333333333</ele><time>2026-04-11T12:25:38.922Z</time></trkpt><trkpt lat="45.276215" lon="9.7876683"><ele>56.66666666666667</ele><time>2026-04-11T12:25:39.922Z</time></trkpt><trkpt lat="45.27632" lon="9.7874033"><ele>56.0</ele><time>2026-04-11T12:25:40.923Z</time></trkpt><trkpt lat="45.27643" lon="9.7871483"><ele>56.333333333333336</ele><time>2026-04-11T12:25:41.923Z</time></trkpt><trkpt lat="45.276535" lon="9.7868933"><ele>56.66666666666667</ele><time>2026-04-11T12:25:42.923Z</time></trkpt><trkpt lat="45.2766383" lon="9.7866467"><ele>57.0</ele><time>2026-04-11T12:25:43.923Z</time></trkpt><trkpt lat="45.2767367" lon="9.786395"><ele>57.33333333333333</ele><time>2026-04-11T12:25:44.923Z</time></trkpt><trkpt lat="45.2768433" lon="9.7861417"><ele>57.666666666666664</ele><time>2026-04-11T12:25:45.923Z</time></trkpt><trkpt lat="45.27695" lon="9.7858933"><ele>58.0</ele><time>2026-04-11T12:25:46.923Z</time></trkpt><trkpt lat="45.2770517" lon="9.7856567"><ele>58.0</ele><time>2026-04-11T12:25:47.923Z</time></trkpt><trkpt lat="45.2771483" lon="9.78542"><ele>58.0</ele><time>2026-04-11T12:25:48.923Z</time></trkpt><trkpt lat="45.2772433" lon="9.7851867"><ele>58.0</ele><time>2026-04-11T12:25:49.923Z</time></trkpt><trkpt lat="45.277335" lon="9.7849517"><ele>58.0</ele><time>2026-04-11T12:25:50.923Z</time></trkpt><trkpt lat="45.2774233" lon="9.7847183"><ele>58.0</ele><time>2026-04-11T12:25:51.923Z</time></trkpt><trkpt lat="45.2775167" lon="9.7844767"><ele>58.0</ele><time>2026-04-11T12:25:52.922Z</time></trkpt><trkpt lat="45.27761" lon="9.7842367"><ele>57.666666666666664</ele><time>2026-04-11T12:25:53.923Z</time></trkpt><trkpt lat="45.2777083" lon="9.7839967"><ele>57.33333333333333</ele><time>2026-04-11T12:25:54.923Z</time></trkpt><trkpt lat="45.2778083" lon="9.7837433"><ele>57.0</ele><time>2026-04-11T12:25:55.923Z</time></trkpt><trkpt lat="45.277915" lon="9.7834633"><ele>56.5</ele><time>2026-04-11T12:25:56.923Z</time></trkpt><trkpt lat="45.2780417" lon="9.7831533"><ele>56.0</ele><time>2026-04-11T12:25:57.922Z</time></trkpt><trkpt lat="45.27818" lon="9.782825"><ele>57.0</ele><time>2026-04-11T12:25:58.922Z</time></trkpt><trkpt lat="45.2783233" lon="9.7824833"><ele>58.0</ele><time>2026-04-11T12:25:59.922Z</time></trkpt><trkpt lat="45.27847" lon="9.7821533"><ele>57.5</ele><time>2026-04-11T12:26:00.922Z</time></trkpt><trkpt lat="45.2786083" lon="9.781835"><ele>57.0</ele><time>2026-04-11T12:26:01.922Z</time></trkpt><trkpt lat="45.2787383" lon="9.7815333"><ele>57.0</ele><time>2026-04-11T12:26:02.922Z</time></trkpt><trkpt lat="45.2788633" lon="9.78124"><ele>57.0</ele><time>2026-04-11T12:26:03.922Z</time></trkpt><trkpt lat="45.27899" lon="9.780935"><ele>56.5</ele><time>2026-04-11T12:26:04.922Z</time></trkpt><trkpt lat="45.2791167" lon="9.7806267"><ele>56.0</ele><time>2026-04-11T12:26:05.922Z</time></trkpt><trkpt lat="45.279235" lon="9.7803183"><ele>55.5</ele><time>2026-04-11T12:26:06.921Z</time></trkpt><trkpt lat="45.279355" lon="9.7799917"><ele>55.0</ele><time>2026-04-11T12:26:07.922Z</time></trkpt><trkpt lat="45.2794867" lon="9.7796717"><ele>54.5</ele><time>2026-04-11T12:26:08.922Z</time></trkpt><trkpt lat="45.2796283" lon="9.7793467"><ele>54.0</ele><time>2026-04-11T12:26:09.922Z</time></trkpt><trkpt lat="45.279775" lon="9.7790183"><ele>54.0</ele><time>2026-04-11T12:26:10.922Z</time></trkpt><trkpt lat="45.2799133" lon="9.7786917"><ele>54.0</ele><time>2026-04-11T12:26:11.922Z</time></trkpt><trkpt lat="45.2800567" lon="9.7783617"><ele>54.0</ele><time>2026-04-11T12:26:12.922Z</time></trkpt><trkpt lat="45.2802017" lon="9.7780267"><ele>54.0</ele><time>2026-04-11T12:26:13.922Z</time></trkpt><trkpt lat="45.2803417" lon="9.7776917"><ele>54.5</ele><time>2026-04-11T12:26:14.922Z</time></trkpt><trkpt lat="45.280485" lon="9.7773483"><ele>55.0</ele><time>2026-04-11T12:26:15.922Z</time></trkpt><trkpt lat="45.2806267" lon="9.777005"><ele>55.0</ele><time>2026-04-11T12:26:16.922Z</time></trkpt><trkpt lat="45.2807683" lon="9.7766567"><ele>55.0</ele><time>2026-04-11T12:26:17.921Z</time></trkpt><trkpt lat="45.2809117" lon="9.7763183"><ele>55.0</ele><time>2026-04-11T12:26:18.922Z</time></trkpt><trkpt lat="45.2810533" lon="9.7759867"><ele>55.0</ele><time>2026-04-11T12:26:19.922Z</time></trkpt><trkpt lat="45.2811967" lon="9.7756483"><ele>55.0</ele><time>2026-04-11T12:26:20.922Z</time></trkpt><trkpt lat="45.2813417" lon="9.77531"><ele>55.0</ele><time>2026-04-11T12:26:21.922Z</time></trkpt><trkpt lat="45.2814867" lon="9.7749633"><ele>55.0</ele><time>2026-04-11T12:26:22.922Z</time></trkpt><trkpt lat="45.281625" lon="9.7746167"><ele>55.0</ele><time>2026-04-11T12:26:23.922Z</time></trkpt><trkpt lat="45.2817617" lon="9.7742783"><ele>54.5</ele><time>2026-04-11T12:26:24.922Z</time></trkpt><trkpt lat="45.281905" lon="9.773935"><ele>54.0</ele><time>2026-04-11T12:26:25.922Z</time></trkpt><trkpt lat="45.2820517" lon="9.7735917"><ele>54.0</ele><time>2026-04-11T12:26:26.922Z</time></trkpt><trkpt lat="45.2821967" lon="9.7732467"><ele>54.0</ele><time>2026-04-11T12:26:27.922Z</time></trkpt><trkpt lat="45.282345" lon="9.7729017"><ele>54.5</ele><time>2026-04-11T12:26:28.922Z</time></trkpt><trkpt lat="45.282485" lon="9.7725583"><ele>55.0</ele><time>2026-04-11T12:26:29.921Z</time></trkpt><trkpt lat="45.28263" lon="9.7722133"><ele>55.0</ele><time>2026-04-11T12:26:30.921Z</time></trkpt><trkpt lat="45.2827717" lon="9.771875"><ele>55.0</ele><time>2026-04-11T12:26:31.922Z</time></trkpt><trkpt lat="45.282915" lon="9.7715333"><ele>55.5</ele><time>2026-04-11T12:26:32.922Z</time></trkpt><trkpt lat="45.2830583" lon="9.7711917"><ele>56.0</ele><time>2026-04-11T12:26:33.922Z</time></trkpt><trkpt lat="45.2832083" lon="9.77085"><ele>56.0</ele><time>2026-04-11T12:26:34.922Z</time></trkpt><trkpt lat="45.2833533" lon="9.7705"><ele>56.0</ele><time>2026-04-11T12:26:35.922Z</time></trkpt><trkpt lat="45.283495" lon="9.77015"><ele>56.0</ele><time>2026-04-11T12:26:36.922Z</time></trkpt><trkpt lat="45.2836333" lon="9.7698033"><ele>56.0</ele><time>2026-04-11T12:26:37.922Z</time></trkpt><trkpt lat="45.28378" lon="9.769465"><ele>55.5</ele><time>2026-04-11T12:26:38.922Z</time></trkpt><trkpt lat="45.28392" lon="9.769115"><ele>55.0</ele><time>2026-04-11T12:26:39.922Z</time></trkpt><trkpt lat="45.2840617" lon="9.76877"><ele>55.0</ele><time>2026-04-11T12:26:40.922Z</time></trkpt><trkpt lat="45.284205" lon="9.768425"><ele>55.0</ele><time>2026-04-11T12:26:41.921Z</time></trkpt><trkpt lat="45.2843483" lon="9.7680717"><ele>55.0</ele><time>2026-04-11T12:26:42.922Z</time></trkpt><trkpt lat="45.284495" lon="9.76772"><ele>55.0</ele><time>2026-04-11T12:26:43.922Z</time></trkpt><trkpt lat="45.2846417" lon="9.7673767"><ele>55.0</ele><time>2026-04-11T12:26:44.922Z</time></trkpt><trkpt lat="45.28479" lon="9.7670233"><ele>55.0</ele><time>2026-04-11T12:26:45.922Z</time></trkpt><trkpt lat="45.2849333" lon="9.7666817"><ele>55.0</ele><time>2026-04-11T12:26:46.922Z</time></trkpt><trkpt lat="45.28507" lon="9.7663333"><ele>55.0</ele><time>2026-04-11T12:26:47.922Z</time></trkpt><trkpt lat="45.285215" lon="9.7659883"><ele>54.0</ele><time>2026-04-11T12:26:48.922Z</time></trkpt><trkpt lat="45.2853533" lon="9.765645"><ele>53.0</ele><time>2026-04-11T12:26:49.922Z</time></trkpt><trkpt lat="45.2854983" lon="9.7653017"><ele>54.0</ele><time>2026-04-11T12:26:50.922Z</time></trkpt><trkpt lat="45.2856333" lon="9.7649567"><ele>55.0</ele><time>2026-04-11T12:26:51.922Z</time></trkpt><trkpt lat="45.2857717" lon="9.76461"><ele>55.5</ele><time>2026-04-11T12:26:52.922Z</time></trkpt><trkpt lat="45.2859183" lon="9.7642533"><ele>56.0</ele><time>2026-04-11T12:26:53.922Z</time></trkpt><trkpt lat="45.2860633" lon="9.7639117"><ele>56.0</ele><time>2026-04-11T12:26:54.922Z</time></trkpt><trkpt lat="45.28621" lon="9.763565"><ele>56.0</ele><time>2026-04-11T12:26:55.922Z</time></trkpt><trkpt lat="45.2863517" lon="9.7632167"><ele>56.0</ele><time>2026-04-11T12:26:56.922Z</time></trkpt><trkpt lat="45.2864967" lon="9.7628583"><ele>56.0</ele><time>2026-04-11T12:26:57.922Z</time></trkpt><trkpt lat="45.2866367" lon="9.7625017"><ele>56.0</ele><time>2026-04-11T12:26:58.922Z</time></trkpt><trkpt lat="45.2867833" lon="9.7621483"><ele>56.0</ele><time>2026-04-11T12:26:59.922Z</time></trkpt><trkpt lat="45.2869333" lon="9.761795"><ele>56.5</ele><time>2026-04-11T12:27:00.922Z</time></trkpt><trkpt lat="45.28708" lon="9.7614383"><ele>57.0</ele><time>2026-04-11T12:27:01.922Z</time></trkpt><trkpt lat="45.28723" lon="9.761075"><ele>56.5</ele><time>2026-04-11T12:27:02.922Z</time></trkpt><trkpt lat="45.2873767" lon="9.76072"><ele>56.0</ele><time>2026-04-11T12:27:03.922Z</time></trkpt><trkpt lat="45.28752" lon="9.7603633"><ele>56.0</ele><time>2026-04-11T12:27:04.922Z</time></trkpt><trkpt lat="45.2876667" lon="9.76001"><ele>56.0</ele><time>2026-04-11T12:27:05.922Z</time></trkpt><trkpt lat="45.287815" lon="9.7596533"><ele>55.5</ele><time>2026-04-11T12:27:06.922Z</time></trkpt><trkpt lat="45.2879633" lon="9.7593033"><ele>55.0</ele><time>2026-04-11T12:27:07.922Z</time></trkpt><trkpt lat="45.2881083" lon="9.7589683"><ele>55.0</ele><time>2026-04-11T12:27:08.922Z</time></trkpt><trkpt lat="45.2882417" lon="9.7586567"><ele>55.0</ele><time>2026-04-11T12:27:09.922Z</time></trkpt><trkpt lat="45.2883617" lon="9.7583583"><ele>55.0</ele><time>2026-04-11T12:27:10.922Z</time></trkpt><trkpt lat="45.2884833" lon="9.7580867"><ele>55.0</ele><time>2026-04-11T12:27:11.921Z</time></trkpt><trkpt lat="45.288615" lon="9.7578417"><ele>55.0</ele><time>2026-04-11T12:27:12.921Z</time></trkpt><trkpt lat="45.288755" lon="9.7576183"><ele>55.33333333333333</ele><time>2026-04-11T12:27:13.922Z</time></trkpt><trkpt lat="45.2888867" lon="9.7574183"><ele>55.66666666666667</ele><time>2026-04-11T12:27:14.922Z</time></trkpt><trkpt lat="45.289025" lon="9.7572383"><ele>56.0</ele><time>2026-04-11T12:27:15.922Z</time></trkpt><trkpt lat="45.2891467" lon="9.7571"><ele>56.0</ele><time>2026-04-11T12:27:16.922Z</time></trkpt><trkpt lat="45.2892617" lon="9.7569783"><ele>56.0</ele><time>2026-04-11T12:27:17.922Z</time></trkpt><trkpt lat="45.2893667" lon="9.7568783"><ele>56.0</ele><time>2026-04-11T12:27:18.922Z</time></trkpt><trkpt lat="45.2894667" lon="9.7568067"><ele>56.0</ele><time>2026-04-11T12:27:19.922Z</time></trkpt><trkpt lat="45.28956" lon="9.7567633"><ele>56.0</ele><time>2026-04-11T12:27:20.922Z</time></trkpt><trkpt lat="45.2896517" lon="9.7567533"><ele>55.99999999999999</ele><time>2026-04-11T12:27:21.922Z</time></trkpt><trkpt lat="45.289745" lon="9.7567583"><ele>55.99999999999999</ele><time>2026-04-11T12:27:22.922Z</time></trkpt><trkpt lat="45.2898433" lon="9.756735"><ele>56.0</ele><time>2026-04-11T12:27:23.922Z</time></trkpt><trkpt lat="45.2899367" lon="9.7566733"><ele>56.0</ele><time>2026-04-11T12:27:24.922Z</time></trkpt><trkpt lat="45.290025" lon="9.7565583"><ele>56.25</ele><time>2026-04-11T12:27:25.922Z</time></trkpt><trkpt lat="45.2901067" lon="9.7564217"><ele>56.5</ele><time>2026-04-11T12:27:26.921Z</time></trkpt><trkpt lat="45.290205" lon="9.7563083"><ele>56.75</ele><time>2026-04-11T12:27:27.922Z</time></trkpt><trkpt lat="45.290335" lon="9.7562183"><ele>57.0</ele><time>2026-04-11T12:27:28.922Z</time></trkpt><trkpt lat="45.29049" lon="9.7561417"><ele>57.0</ele><time>2026-04-11T12:27:29.922Z</time></trkpt><trkpt lat="45.2906517" lon="9.756085"><ele>57.0</ele><time>2026-04-11T12:27:30.922Z</time></trkpt><trkpt lat="45.2908167" lon="9.7560383"><ele>57.0</ele><time>2026-04-11T12:27:31.922Z</time></trkpt><trkpt lat="45.2909883" lon="9.7559867"><ele>57.0</ele><time>2026-04-11T12:27:32.922Z</time></trkpt><trkpt lat="45.2911667" lon="9.7559333"><ele>57.0</ele><time>2026-04-11T12:27:33.922Z</time></trkpt><trkpt lat="45.2913467" lon="9.7558667"><ele>57.0</ele><time>2026-04-11T12:27:34.922Z</time></trkpt><trkpt lat="45.2915283" lon="9.7558"><ele>57.0</ele><time>2026-04-11T12:27:35.922Z</time></trkpt><trkpt lat="45.29171" lon="9.755745"><ele>57.0</ele><time>2026-04-11T12:27:36.922Z</time></trkpt><trkpt lat="45.291895" lon="9.7556883"><ele>57.0</ele><time>2026-04-11T12:27:37.922Z</time></trkpt><trkpt lat="45.292075" lon="9.75563"><ele>57.0</ele><time>2026-04-11T12:27:38.922Z</time></trkpt><trkpt lat="45.2922483" lon="9.755555"><ele>57.0</ele><time>2026-04-11T12:27:39.921Z</time></trkpt><trkpt lat="45.2924217" lon="9.7554883"><ele>57.0</ele><time>2026-04-11T12:27:40.922Z</time></trkpt><trkpt lat="45.2925967" lon="9.755435"><ele>57.33333333333333</ele><time>2026-04-11T12:27:41.922Z</time></trkpt><trkpt lat="45.2927683" lon="9.755375"><ele>57.666666666666664</ele><time>2026-04-11T12:27:42.922Z</time></trkpt><trkpt lat="45.2929517" lon="9.755315"><ele>58.0</ele><time>2026-04-11T12:27:43.921Z</time></trkpt><trkpt lat="45.2931333" lon="9.7552483"><ele>57.666666666666664</ele><time>2026-04-11T12:27:44.922Z</time></trkpt><trkpt lat="45.293305" lon="9.7551883"><ele>57.33333333333333</ele><time>2026-04-11T12:27:45.922Z</time></trkpt><trkpt lat="45.2934783" lon="9.755135"><ele>57.0</ele><time>2026-04-11T12:27:46.922Z</time></trkpt><trkpt lat="45.293645" lon="9.755075"><ele>57.0</ele><time>2026-04-11T12:27:47.922Z</time></trkpt><trkpt lat="45.2938167" lon="9.755015"><ele>57.0</ele><time>2026-04-11T12:27:48.922Z</time></trkpt><trkpt lat="45.2939917" lon="9.7549583"><ele>57.0</ele><time>2026-04-11T12:27:49.921Z</time></trkpt><trkpt lat="45.29417" lon="9.7548983"><ele>56.66666666666667</ele><time>2026-04-11T12:27:50.922Z</time></trkpt><trkpt lat="45.29434" lon="9.75484"><ele>56.333333333333336</ele><time>2026-04-11T12:27:51.921Z</time></trkpt><trkpt lat="45.2945083" lon="9.7547833"><ele>56.0</ele><time>2026-04-11T12:27:52.922Z</time></trkpt><trkpt lat="45.29468" lon="9.754725"><ele>56.66666666666667</ele><time>2026-04-11T12:27:53.921Z</time></trkpt><trkpt lat="45.2948467" lon="9.75466"><ele>57.33333333333333</ele><time>2026-04-11T12:27:54.922Z</time></trkpt><trkpt lat="45.295015" lon="9.7545983"><ele>58.0</ele><time>2026-04-11T12:27:55.922Z</time></trkpt><trkpt lat="45.2951917" lon="9.7545367"><ele>58.0</ele><time>2026-04-11T12:27:56.921Z</time></trkpt><trkpt lat="45.29536" lon="9.7544767"><ele>58.0</ele><time>2026-04-11T12:27:57.922Z</time></trkpt><trkpt lat="45.295535" lon="9.75442"><ele>58.0</ele><time>2026-04-11T12:27:58.922Z</time></trkpt><trkpt lat="45.2957133" lon="9.7543567"><ele>57.33333333333333</ele><time>2026-04-11T12:27:59.922Z</time></trkpt><trkpt lat="45.2958933" lon="9.754295"><ele>56.66666666666667</ele><time>2026-04-11T12:28:00.922Z</time></trkpt><trkpt lat="45.2960733" lon="9.7542383"><ele>56.0</ele><time>2026-04-11T12:28:01.922Z</time></trkpt><trkpt lat="45.2962467" lon="9.7541733"><ele>56.0</ele><time>2026-04-11T12:28:02.922Z</time></trkpt><trkpt lat="45.296415" lon="9.7541167"><ele>56.0</ele><time>2026-04-11T12:28:03.922Z</time></trkpt><trkpt lat="45.2965817" lon="9.7540583"><ele>56.0</ele><time>2026-04-11T12:28:04.922Z</time></trkpt><trkpt lat="45.2967517" lon="9.7539967"><ele>56.0</ele><time>2026-04-11T12:28:05.922Z</time></trkpt><trkpt lat="45.2969183" lon="9.7539333"><ele>56.0</ele><time>2026-04-11T12:28:06.922Z</time></trkpt><trkpt lat="45.2970917" lon="9.7538783"><ele>56.0</ele><time>2026-04-11T12:28:07.922Z</time></trkpt><trkpt lat="45.2972567" lon="9.7538183"><ele>56.0</ele><time>2026-04-11T12:28:08.922Z</time></trkpt><trkpt lat="45.2974167" lon="9.7537617"><ele>56.0</ele><time>2026-04-11T12:28:09.922Z</time></trkpt><trkpt lat="45.2975817" lon="9.7537033"><ele>56.0</ele><time>2026-04-11T12:28:10.922Z</time></trkpt><trkpt lat="45.2977433" lon="9.7536483"><ele>56.0</ele><time>2026-04-11T12:28:11.921Z</time></trkpt><trkpt lat="45.2979117" lon="9.7535933"><ele>56.0</ele><time>2026-04-11T12:28:12.922Z</time></trkpt><trkpt lat="45.2980817" lon="9.7535383"><ele>56.0</ele><time>2026-04-11T12:28:13.922Z</time></trkpt><trkpt lat="45.2982467" lon="9.7534767"><ele>56.0</ele><time>2026-04-11T12:28:14.922Z</time></trkpt><trkpt lat="45.298415" lon="9.7534167"><ele>56.0</ele><time>2026-04-11T12:28:15.921Z</time></trkpt><trkpt lat="45.2985883" lon="9.753355"><ele>56.0</ele><time>2026-04-11T12:28:16.922Z</time></trkpt><trkpt lat="45.2987633" lon="9.7532967"><ele>55.66666666666667</ele><time>2026-04-11T12:28:17.922Z</time></trkpt><trkpt lat="45.29894" lon="9.75324"><ele>55.33333333333333</ele><time>2026-04-11T12:28:18.922Z</time></trkpt><trkpt lat="45.2991267" lon="9.753175"><ele>55.0</ele><time>2026-04-11T12:28:19.922Z</time></trkpt><trkpt lat="45.2993083" lon="9.75311"><ele>55.0</ele><time>2026-04-11T12:28:20.922Z</time></trkpt><trkpt lat="45.299505" lon="9.7530433"><ele>55.0</ele><time>2026-04-11T12:28:21.922Z</time></trkpt><trkpt lat="45.299695" lon="9.7529667"><ele>55.0</ele><time>2026-04-11T12:28:22.922Z</time></trkpt><trkpt lat="45.29989" lon="9.7528867"><ele>55.0</ele><time>2026-04-11T12:28:23.922Z</time></trkpt><trkpt lat="45.3000933" lon="9.7528067"><ele>55.0</ele><time>2026-04-11T12:28:24.922Z</time></trkpt><trkpt lat="45.30031" lon="9.7527267"><ele>55.0</ele><time>2026-04-11T12:28:25.922Z</time></trkpt><trkpt lat="45.3005333" lon="9.7526567"><ele>57.0</ele><time>2026-04-11T12:28:26.922Z</time></trkpt><trkpt lat="45.3007583" lon="9.75259"><ele>59.0</ele><time>2026-04-11T12:28:27.922Z</time></trkpt><trkpt lat="45.30099" lon="9.7525167"><ele>59.0</ele><time>2026-04-11T12:28:28.922Z</time></trkpt><trkpt lat="45.3012267" lon="9.7524467"><ele>59.0</ele><time>2026-04-11T12:28:29.922Z</time></trkpt><trkpt lat="45.3014683" lon="9.7523633"><ele>59.0</ele><time>2026-04-11T12:28:30.922Z</time></trkpt><trkpt lat="45.3017133" lon="9.752285"><ele>59.0</ele><time>2026-04-11T12:28:31.922Z</time></trkpt><trkpt lat="45.3019533" lon="9.7522"><ele>59.0</ele><time>2026-04-11T12:28:32.922Z</time></trkpt><trkpt lat="45.3021917" lon="9.752115"><ele>59.0</ele><time>2026-04-11T12:28:33.922Z</time></trkpt><trkpt lat="45.3024333" lon="9.7520317"><ele>58.5</ele><time>2026-04-11T12:28:34.922Z</time></trkpt><trkpt lat="45.3026783" lon="9.7519517"><ele>58.0</ele><time>2026-04-11T12:28:35.922Z</time></trkpt><trkpt lat="45.302925" lon="9.7518633"><ele>58.0</ele><time>2026-04-11T12:28:36.922Z</time></trkpt><trkpt lat="45.3031617" lon="9.7517833"><ele>58.0</ele><time>2026-04-11T12:28:37.922Z</time></trkpt><trkpt lat="45.3033833" lon="9.7517067"><ele>58.0</ele><time>2026-04-11T12:28:38.922Z</time></trkpt><trkpt lat="45.30359" lon="9.7516383"><ele>58.0</ele><time>2026-04-11T12:28:39.922Z</time></trkpt><trkpt lat="45.303785" lon="9.7515733"><ele>58.0</ele><time>2026-04-11T12:28:40.921Z</time></trkpt><trkpt lat="45.3039567" lon="9.7515133"><ele>58.25</ele><time>2026-04-11T12:28:41.922Z</time></trkpt><trkpt lat="45.304105" lon="9.7514667"><ele>58.5</ele><time>2026-04-11T12:28:42.921Z</time></trkpt><trkpt lat="45.30424" lon="9.751415"><ele>58.75</ele><time>2026-04-11T12:28:43.921Z</time></trkpt><trkpt lat="45.3043583" lon="9.7513667"><ele>59.0</ele><time>2026-04-11T12:28:44.922Z</time></trkpt><trkpt lat="45.3044567" lon="9.7513267"><ele>59.0</ele><time>2026-04-11T12:28:45.922Z</time></trkpt><trkpt lat="45.3045283" lon="9.7512933"><ele>59.00000000000001</ele><time>2026-04-11T12:28:46.921Z</time></trkpt><trkpt lat="45.3045983" lon="9.7512583"><ele>59.00000000000001</ele><time>2026-04-11T12:28:48.922Z</time></trkpt><trkpt lat="45.3046767" lon="9.7512367"><ele>59.0</ele><time>2026-04-11T12:28:55.922Z</time></trkpt><trkpt lat="45.3047967" lon="9.75125"><ele>59.0</ele><time>2026-04-11T12:28:57.922Z</time></trkpt><trkpt lat="45.3049217" lon="9.751265"><ele>59.00000000000001</ele><time>2026-04-11T12:28:59.922Z</time></trkpt><trkpt lat="45.3049967" lon="9.751255"><ele>59.0</ele><time>2026-04-11T12:29:00.922Z</time></trkpt><trkpt lat="45.3050683" lon="9.7512183"><ele>59.0</ele><time>2026-04-11T12:29:01.921Z</time></trkpt><trkpt lat="45.30513" lon="9.7511583"><ele>59.0</ele><time>2026-04-11T12:29:02.922Z</time></trkpt><trkpt lat="45.3051883" lon="9.7510783"><ele>59.00000000000001</ele><time>2026-04-11T12:29:03.922Z</time></trkpt><trkpt lat="45.30525" lon="9.7510017"><ele>59.0</ele><time>2026-04-11T12:29:04.922Z</time></trkpt><trkpt lat="45.3053317" lon="9.7509333"><ele>59.0</ele><time>2026-04-11T12:29:05.922Z</time></trkpt><trkpt lat="45.30542" lon="9.7508983"><ele>59.00000000000001</ele><time>2026-04-11T12:29:06.922Z</time></trkpt><trkpt lat="45.3055133" lon="9.7508783"><ele>59.00000000000001</ele><time>2026-04-11T12:29:07.922Z</time></trkpt><trkpt lat="45.3056067" lon="9.7508517"><ele>59.0</ele><time>2026-04-11T12:29:08.922Z</time></trkpt><trkpt lat="45.3057133" lon="9.75083"><ele>59.0</ele><time>2026-04-11T12:29:09.922Z</time></trkpt><trkpt lat="45.305835" lon="9.7508117"><ele>59.5</ele><time>2026-04-11T12:29:10.921Z</time></trkpt><trkpt lat="45.30596" lon="9.75079"><ele>60.0</ele><time>2026-04-11T12:29:11.922Z</time></trkpt><trkpt lat="45.3060917" lon="9.7507767"><ele>60.5</ele><time>2026-04-11T12:29:12.922Z</time></trkpt><trkpt lat="45.30621" lon="9.750755"><ele>61.0</ele><time>2026-04-11T12:29:13.922Z</time></trkpt><trkpt lat="45.306325" lon="9.750735"><ele>61.25</ele><time>2026-04-11T12:29:14.921Z</time></trkpt><trkpt lat="45.3064483" lon="9.75072"><ele>61.5</ele><time>2026-04-11T12:29:15.922Z</time></trkpt><trkpt lat="45.3065783" lon="9.75071"><ele>61.75</ele><time>2026-04-11T12:29:16.922Z</time></trkpt><trkpt lat="45.30671" lon="9.750695"><ele>62.0</ele><time>2026-04-11T12:29:17.921Z</time></trkpt><trkpt lat="45.3068583" lon="9.750695"><ele>62.0</ele><time>2026-04-11T12:29:18.921Z</time></trkpt><trkpt lat="45.3070083" lon="9.75069"><ele>62.0</ele><time>2026-04-11T12:29:19.921Z</time></trkpt><trkpt lat="45.3071633" lon="9.7506867"><ele>62.0</ele><time>2026-04-11T12:29:20.921Z</time></trkpt><trkpt lat="45.3073367" lon="9.7506817"><ele>62.66666666666667</ele><time>2026-04-11T12:29:21.921Z</time></trkpt><trkpt lat="45.3074933" lon="9.7506833"><ele>63.33333333333333</ele><time>2026-04-11T12:29:22.921Z</time></trkpt><trkpt lat="45.307655" lon="9.7506783"><ele>64.0</ele><time>2026-04-11T12:29:23.921Z</time></trkpt><trkpt lat="45.3078133" lon="9.75068"><ele>64.0</ele><time>2026-04-11T12:29:24.921Z</time></trkpt><trkpt lat="45.30798" lon="9.75068"><ele>64.0</ele><time>2026-04-11T12:29:25.92Z</time></trkpt><trkpt lat="45.30816" lon="9.7506817"><ele>64.0</ele><time>2026-04-11T12:29:26.921Z</time></trkpt><trkpt lat="45.3083467" lon="9.7506833"><ele>63.666666666666664</ele><time>2026-04-11T12:29:27.921Z</time></trkpt><trkpt lat="45.3085417" lon="9.7506833"><ele>63.33333333333333</ele><time>2026-04-11T12:29:28.921Z</time></trkpt><trkpt lat="45.3087383" lon="9.750685"><ele>63.0</ele><time>2026-04-11T12:29:29.921Z</time></trkpt><trkpt lat="45.308925" lon="9.750685"><ele>63.0</ele><time>2026-04-11T12:29:30.921Z</time></trkpt><trkpt lat="45.309105" lon="9.750685"><ele>63.0</ele><time>2026-04-11T12:29:31.921Z</time></trkpt><trkpt lat="45.3092917" lon="9.7506733"><ele>63.0</ele><time>2026-04-11T12:29:32.921Z</time></trkpt><trkpt lat="45.309475" lon="9.75067"><ele>63.0</ele><time>2026-04-11T12:29:33.921Z</time></trkpt><trkpt lat="45.3096583" lon="9.750665"><ele>63.0</ele><time>2026-04-11T12:29:34.921Z</time></trkpt><trkpt lat="45.3098467" lon="9.7506633"><ele>63.0</ele><time>2026-04-11T12:29:35.92Z</time></trkpt><trkpt lat="45.310035" lon="9.7506617"><ele>63.0</ele><time>2026-04-11T12:29:36.921Z</time></trkpt><trkpt lat="45.310225" lon="9.7506633"><ele>63.0</ele><time>2026-04-11T12:29:37.921Z</time></trkpt><trkpt lat="45.3104133" lon="9.7506667"><ele>63.0</ele><time>2026-04-11T12:29:38.921Z</time></trkpt><trkpt lat="45.3106083" lon="9.7506633"><ele>63.0</ele><time>2026-04-11T12:29:39.921Z</time></trkpt><trkpt lat="45.3108" lon="9.7506583"><ele>63.0</ele><time>2026-04-11T12:29:40.921Z</time></trkpt><trkpt lat="45.3109983" lon="9.75066"><ele>63.0</ele><time>2026-04-11T12:29:41.921Z</time></trkpt><trkpt lat="45.311205" lon="9.75066"><ele>63.0</ele><time>2026-04-11T12:29:42.92Z</time></trkpt><trkpt lat="45.3114133" lon="9.7506683"><ele>63.0</ele><time>2026-04-11T12:29:43.92Z</time></trkpt><trkpt lat="45.31162" lon="9.7506583"><ele>63.0</ele><time>2026-04-11T12:29:44.921Z</time></trkpt><trkpt lat="45.3118233" lon="9.750655"><ele>63.0</ele><time>2026-04-11T12:29:45.921Z</time></trkpt><trkpt lat="45.31203" lon="9.75065"><ele>63.0</ele><time>2026-04-11T12:29:46.921Z</time></trkpt><trkpt lat="45.3122317" lon="9.7506417"><ele>63.0</ele><time>2026-04-11T12:29:47.921Z</time></trkpt><trkpt lat="45.3124283" lon="9.7506317"><ele>62.66666666666667</ele><time>2026-04-11T12:29:48.921Z</time></trkpt><trkpt lat="45.3126217" lon="9.7506083"><ele>62.333333333333336</ele><time>2026-04-11T12:29:49.921Z</time></trkpt><trkpt lat="45.3128033" lon="9.7505767"><ele>62.0</ele><time>2026-04-11T12:29:50.921Z</time></trkpt><trkpt lat="45.3129883" lon="9.7505283"><ele>61.66666666666667</ele><time>2026-04-11T12:29:51.921Z</time></trkpt><trkpt lat="45.3131667" lon="9.750465"><ele>61.33333333333333</ele><time>2026-04-11T12:29:52.921Z</time></trkpt><trkpt lat="45.3133417" lon="9.75039"><ele>61.0</ele><time>2026-04-11T12:29:53.921Z</time></trkpt><trkpt lat="45.31352" lon="9.7503067"><ele>61.0</ele><time>2026-04-11T12:29:54.921Z</time></trkpt><trkpt lat="45.313695" lon="9.7502133"><ele>61.0</ele><time>2026-04-11T12:29:55.921Z</time></trkpt><trkpt lat="45.3138767" lon="9.75012"><ele>61.0</ele><time>2026-04-11T12:29:56.921Z</time></trkpt><trkpt lat="45.3140533" lon="9.7500117"><ele>60.666666666666664</ele><time>2026-04-11T12:29:57.921Z</time></trkpt><trkpt lat="45.3142367" lon="9.7498967"><ele>60.33333333333333</ele><time>2026-04-11T12:29:58.921Z</time></trkpt><trkpt lat="45.3144317" lon="9.7497633"><ele>60.0</ele><time>2026-04-11T12:29:59.921Z</time></trkpt><trkpt lat="45.3146367" lon="9.7496183"><ele>61.0</ele><time>2026-04-11T12:30:00.921Z</time></trkpt><trkpt lat="45.3148467" lon="9.74947"><ele>62.0</ele><time>2026-04-11T12:30:01.921Z</time></trkpt><trkpt lat="45.31507" lon="9.74932"><ele>62.0</ele><time>2026-04-11T12:30:02.921Z</time></trkpt><trkpt lat="45.3153167" lon="9.7491783"><ele>62.0</ele><time>2026-04-11T12:30:03.921Z</time></trkpt><trkpt lat="45.3155667" lon="9.7490283"><ele>61.5</ele><time>2026-04-11T12:30:04.921Z</time></trkpt><trkpt lat="45.315815" lon="9.748865"><ele>61.0</ele><time>2026-04-11T12:30:05.921Z</time></trkpt><trkpt lat="45.3160667" lon="9.748705"><ele>62.0</ele><time>2026-04-11T12:30:06.921Z</time></trkpt><trkpt lat="45.3163117" lon="9.7485417"><ele>63.0</ele><time>2026-04-11T12:30:07.921Z</time></trkpt><trkpt lat="45.3165633" lon="9.7483733"><ele>63.0</ele><time>2026-04-11T12:30:08.921Z</time></trkpt><trkpt lat="45.3168067" lon="9.74821"><ele>63.0</ele><time>2026-04-11T12:30:09.921Z</time></trkpt><trkpt lat="45.3170533" lon="9.74806"><ele>62.5</ele><time>2026-04-11T12:30:10.921Z</time></trkpt><trkpt lat="45.317295" lon="9.7478967"><ele>62.0</ele><time>2026-04-11T12:30:11.921Z</time></trkpt><trkpt lat="45.31754" lon="9.7477383"><ele>61.5</ele><time>2026-04-11T12:30:12.92Z</time></trkpt><trkpt lat="45.317775" lon="9.7475833"><ele>61.0</ele><time>2026-04-11T12:30:13.921Z</time></trkpt><trkpt lat="45.3180167" lon="9.74743"><ele>62.5</ele><time>2026-04-11T12:30:14.921Z</time></trkpt><trkpt lat="45.3182517" lon="9.7472717"><ele>64.0</ele><time>2026-04-11T12:30:15.921Z</time></trkpt><trkpt lat="45.3184867" lon="9.74711"><ele>64.0</ele><time>2026-04-11T12:30:16.921Z</time></trkpt><trkpt lat="45.3187183" lon="9.7469583"><ele>64.0</ele><time>2026-04-11T12:30:17.921Z</time></trkpt><trkpt lat="45.3189433" lon="9.7468117"><ele>63.5</ele><time>2026-04-11T12:30:18.92Z</time></trkpt><trkpt lat="45.3191717" lon="9.7466683"><ele>63.0</ele><time>2026-04-11T12:30:19.92Z</time></trkpt><trkpt lat="45.3193933" lon="9.7465233"><ele>63.0</ele><time>2026-04-11T12:30:20.92Z</time></trkpt><trkpt lat="45.3196167" lon="9.7463817"><ele>63.0</ele><time>2026-04-11T12:30:21.921Z</time></trkpt><trkpt lat="45.3198383" lon="9.7462367"><ele>62.5</ele><time>2026-04-11T12:30:22.921Z</time></trkpt><trkpt lat="45.3200517" lon="9.7460983"><ele>62.0</ele><time>2026-04-11T12:30:23.921Z</time></trkpt><trkpt lat="45.3202483" lon="9.7459633"><ele>61.66666666666667</ele><time>2026-04-11T12:30:24.921Z</time></trkpt><trkpt lat="45.320435" lon="9.7458433"><ele>61.33333333333333</ele><time>2026-04-11T12:30:25.92Z</time></trkpt><trkpt lat="45.3206083" lon="9.7457317"><ele>61.0</ele><time>2026-04-11T12:30:26.921Z</time></trkpt><trkpt lat="45.32078" lon="9.7456233"><ele>61.0</ele><time>2026-04-11T12:30:27.921Z</time></trkpt><trkpt lat="45.32094" lon="9.7455133"><ele>61.0</ele><time>2026-04-11T12:30:28.921Z</time></trkpt><trkpt lat="45.3211067" lon="9.7454017"><ele>61.0</ele><time>2026-04-11T12:30:29.921Z</time></trkpt><trkpt lat="45.321275" lon="9.7452933"><ele>61.666666666666664</ele><time>2026-04-11T12:30:30.921Z</time></trkpt><trkpt lat="45.3214467" lon="9.7451833"><ele>62.33333333333333</ele><time>2026-04-11T12:30:31.921Z</time></trkpt><trkpt lat="45.321625" lon="9.7450667"><ele>63.0</ele><time>2026-04-11T12:30:32.921Z</time></trkpt><trkpt lat="45.3218017" lon="9.7449467"><ele>63.0</ele><time>2026-04-11T12:30:33.921Z</time></trkpt><trkpt lat="45.3219867" lon="9.7448233"><ele>63.0</ele><time>2026-04-11T12:30:34.921Z</time></trkpt><trkpt lat="45.32217" lon="9.7446983"><ele>63.0</ele><time>2026-04-11T12:30:35.921Z</time></trkpt><trkpt lat="45.3223583" lon="9.7445717"><ele>63.0</ele><time>2026-04-11T12:30:36.921Z</time></trkpt><trkpt lat="45.3225483" lon="9.7444367"><ele>63.0</ele><time>2026-04-11T12:30:37.92Z</time></trkpt><trkpt lat="45.3227367" lon="9.7443133"><ele>63.0</ele><time>2026-04-11T12:30:38.921Z</time></trkpt><trkpt lat="45.3229283" lon="9.74419"><ele>63.0</ele><time>2026-04-11T12:30:39.921Z</time></trkpt><trkpt lat="45.3231217" lon="9.744065"><ele>63.0</ele><time>2026-04-11T12:30:40.921Z</time></trkpt><trkpt lat="45.3233183" lon="9.7439367"><ele>63.0</ele><time>2026-04-11T12:30:41.921Z</time></trkpt><trkpt lat="45.32352" lon="9.743805"><ele>63.0</ele><time>2026-04-11T12:30:42.921Z</time></trkpt><trkpt lat="45.323725" lon="9.743675"><ele>63.0</ele><time>2026-04-11T12:30:43.921Z</time></trkpt><trkpt lat="45.323925" lon="9.7435483"><ele>63.0</ele><time>2026-04-11T12:30:44.921Z</time></trkpt><trkpt lat="45.3241333" lon="9.7434117"><ele>63.33333333333333</ele><time>2026-04-11T12:30:45.921Z</time></trkpt><trkpt lat="45.324335" lon="9.7432817"><ele>63.666666666666664</ele><time>2026-04-11T12:30:46.921Z</time></trkpt><trkpt lat="45.32454" lon="9.7431483"><ele>64.0</ele><time>2026-04-11T12:30:47.921Z</time></trkpt><trkpt lat="45.32474" lon="9.7430083"><ele>65.0</ele><time>2026-04-11T12:30:48.921Z</time></trkpt><trkpt lat="45.324945" lon="9.7428667"><ele>66.0</ele><time>2026-04-11T12:30:49.921Z</time></trkpt><trkpt lat="45.32515" lon="9.7427367"><ele>66.0</ele><time>2026-04-11T12:30:50.921Z</time></trkpt><trkpt lat="45.325355" lon="9.7426033"><ele>66.0</ele><time>2026-04-11T12:30:51.921Z</time></trkpt><trkpt lat="45.325555" lon="9.742465"><ele>66.0</ele><time>2026-04-11T12:30:52.921Z</time></trkpt><trkpt lat="45.3257483" lon="9.74232"><ele>66.0</ele><time>2026-04-11T12:30:53.921Z</time></trkpt><trkpt lat="45.3259433" lon="9.74216"><ele>66.0</ele><time>2026-04-11T12:30:54.921Z</time></trkpt><trkpt lat="45.3261283" lon="9.7419967"><ele>66.0</ele><time>2026-04-11T12:30:55.921Z</time></trkpt><trkpt lat="45.32631" lon="9.7418217"><ele>65.66666666666667</ele><time>2026-04-11T12:30:56.921Z</time></trkpt><trkpt lat="45.3264917" lon="9.7416433"><ele>65.33333333333334</ele><time>2026-04-11T12:30:57.921Z</time></trkpt><trkpt lat="45.326675" lon="9.7414633"><ele>65.0</ele><time>2026-04-11T12:30:58.921Z</time></trkpt><trkpt lat="45.326855" lon="9.7412733"><ele>65.0</ele><time>2026-04-11T12:30:59.921Z</time></trkpt><trkpt lat="45.32703" lon="9.7410717"><ele>65.0</ele><time>2026-04-11T12:31:00.921Z</time></trkpt><trkpt lat="45.32721" lon="9.74087"><ele>65.33333333333334</ele><time>2026-04-11T12:31:01.921Z</time></trkpt><trkpt lat="45.3273767" lon="9.7406767"><ele>65.66666666666667</ele><time>2026-04-11T12:31:02.921Z</time></trkpt><trkpt lat="45.327545" lon="9.740475"><ele>66.0</ele><time>2026-04-11T12:31:03.921Z</time></trkpt><trkpt lat="45.3277117" lon="9.7402767"><ele>65.66666666666667</ele><time>2026-04-11T12:31:04.921Z</time></trkpt><trkpt lat="45.3278783" lon="9.7400817"><ele>65.33333333333334</ele><time>2026-04-11T12:31:05.921Z</time></trkpt><trkpt lat="45.3280417" lon="9.7398833"><ele>65.0</ele><time>2026-04-11T12:31:06.921Z</time></trkpt><trkpt lat="45.3282083" lon="9.739685"><ele>65.33333333333334</ele><time>2026-04-11T12:31:07.92Z</time></trkpt><trkpt lat="45.3283817" lon="9.739485"><ele>65.66666666666667</ele><time>2026-04-11T12:31:08.921Z</time></trkpt><trkpt lat="45.3285467" lon="9.739285"><ele>66.0</ele><time>2026-04-11T12:31:09.921Z</time></trkpt><trkpt lat="45.3287183" lon="9.739085"><ele>66.0</ele><time>2026-04-11T12:31:10.921Z</time></trkpt><trkpt lat="45.3288917" lon="9.73888"><ele>66.0</ele><time>2026-04-11T12:31:11.921Z</time></trkpt><trkpt lat="45.32906" lon="9.73868"><ele>66.0</ele><time>2026-04-11T12:31:12.921Z</time></trkpt><trkpt lat="45.3292333" lon="9.7384717"><ele>66.0</ele><time>2026-04-11T12:31:13.921Z</time></trkpt><trkpt lat="45.3294117" lon="9.738265"><ele>66.0</ele><time>2026-04-11T12:31:14.921Z</time></trkpt><trkpt lat="45.3295817" lon="9.7380617"><ele>66.0</ele><time>2026-04-11T12:31:15.92Z</time></trkpt><trkpt lat="45.32975" lon="9.73786"><ele>66.0</ele><time>2026-04-11T12:31:16.921Z</time></trkpt><trkpt lat="45.3299217" lon="9.737665"><ele>66.0</ele><time>2026-04-11T12:31:17.921Z</time></trkpt><trkpt lat="45.3300917" lon="9.7374683"><ele>66.0</ele><time>2026-04-11T12:31:18.921Z</time></trkpt><trkpt lat="45.330265" lon="9.737275"><ele>66.0</ele><time>2026-04-11T12:31:19.921Z</time></trkpt><trkpt lat="45.3304433" lon="9.7370817"><ele>66.0</ele><time>2026-04-11T12:31:20.921Z</time></trkpt><trkpt lat="45.3306233" lon="9.73689"><ele>65.66666666666667</ele><time>2026-04-11T12:31:21.921Z</time></trkpt><trkpt lat="45.330805" lon="9.736715"><ele>65.33333333333334</ele><time>2026-04-11T12:31:22.921Z</time></trkpt><trkpt lat="45.3309933" lon="9.736545"><ele>65.0</ele><time>2026-04-11T12:31:23.921Z</time></trkpt><trkpt lat="45.3311833" lon="9.73638"><ele>65.0</ele><time>2026-04-11T12:31:24.921Z</time></trkpt><trkpt lat="45.3313733" lon="9.73622"><ele>65.0</ele><time>2026-04-11T12:31:25.921Z</time></trkpt><trkpt lat="45.3315667" lon="9.7360633"><ele>65.0</ele><time>2026-04-11T12:31:26.921Z</time></trkpt><trkpt lat="45.33176" lon="9.7359167"><ele>65.0</ele><time>2026-04-11T12:31:27.921Z</time></trkpt><trkpt lat="45.33196" lon="9.73578"><ele>65.0</ele><time>2026-04-11T12:31:28.921Z</time></trkpt><trkpt lat="45.33216" lon="9.73565"><ele>65.0</ele><time>2026-04-11T12:31:29.921Z</time></trkpt><trkpt lat="45.3323667" lon="9.735535"><ele>65.5</ele><time>2026-04-11T12:31:30.921Z</time></trkpt><trkpt lat="45.3325817" lon="9.7354133"><ele>66.0</ele><time>2026-04-11T12:31:31.921Z</time></trkpt><trkpt lat="45.332795" lon="9.7353083"><ele>66.5</ele><time>2026-04-11T12:31:32.921Z</time></trkpt><trkpt lat="45.3330133" lon="9.7352067"><ele>67.0</ele><time>2026-04-11T12:31:33.921Z</time></trkpt><trkpt lat="45.3332317" lon="9.7351033"><ele>67.0</ele><time>2026-04-11T12:31:34.921Z</time></trkpt><trkpt lat="45.333455" lon="9.73501"><ele>67.0</ele><time>2026-04-11T12:31:35.921Z</time></trkpt><trkpt lat="45.3336717" lon="9.7349233"><ele>66.5</ele><time>2026-04-11T12:31:36.921Z</time></trkpt><trkpt lat="45.333895" lon="9.7348383"><ele>66.0</ele><time>2026-04-11T12:31:37.921Z</time></trkpt><trkpt lat="45.33412" lon="9.73475"><ele>66.0</ele><time>2026-04-11T12:31:38.921Z</time></trkpt><trkpt lat="45.3343467" lon="9.7346667"><ele>66.0</ele><time>2026-04-11T12:31:39.921Z</time></trkpt><trkpt lat="45.3345767" lon="9.7345817"><ele>66.5</ele><time>2026-04-11T12:31:40.921Z</time></trkpt><trkpt lat="45.3348083" lon="9.73449"><ele>67.0</ele><time>2026-04-11T12:31:41.921Z</time></trkpt><trkpt lat="45.335035" lon="9.7344033"><ele>67.0</ele><time>2026-04-11T12:31:42.921Z</time></trkpt><trkpt lat="45.33526" lon="9.7343167"><ele>67.0</ele><time>2026-04-11T12:31:43.921Z</time></trkpt><trkpt lat="45.33548" lon="9.734235"><ele>67.0</ele><time>2026-04-11T12:31:44.921Z</time></trkpt><trkpt lat="45.3357033" lon="9.73415"><ele>67.0</ele><time>2026-04-11T12:31:45.921Z</time></trkpt><trkpt lat="45.33592" lon="9.73407"><ele>67.0</ele><time>2026-04-11T12:31:46.921Z</time></trkpt><trkpt lat="45.3361417" lon="9.7339833"><ele>67.0</ele><time>2026-04-11T12:31:47.921Z</time></trkpt><trkpt lat="45.33636" lon="9.7339017"><ele>67.33333333333333</ele><time>2026-04-11T12:31:48.921Z</time></trkpt><trkpt lat="45.3365683" lon="9.733825"><ele>67.66666666666667</ele><time>2026-04-11T12:31:49.921Z</time></trkpt><trkpt lat="45.3367733" lon="9.7337483"><ele>68.0</ele><time>2026-04-11T12:31:50.921Z</time></trkpt><trkpt lat="45.3369633" lon="9.7336767"><ele>68.0</ele><time>2026-04-11T12:31:51.921Z</time></trkpt><trkpt lat="45.33714" lon="9.7336083"><ele>68.0</ele><time>2026-04-11T12:31:52.921Z</time></trkpt><trkpt lat="45.337295" lon="9.7335433"><ele>68.0</ele><time>2026-04-11T12:31:53.921Z</time></trkpt><trkpt lat="45.3374383" lon="9.733485"><ele>67.75</ele><time>2026-04-11T12:31:54.921Z</time></trkpt><trkpt lat="45.3375733" lon="9.7334317"><ele>67.5</ele><time>2026-04-11T12:31:55.921Z</time></trkpt><trkpt lat="45.3377033" lon="9.7333817"><ele>67.25</ele><time>2026-04-11T12:31:56.921Z</time></trkpt><trkpt lat="45.3378367" lon="9.73333"><ele>67.0</ele><time>2026-04-11T12:31:57.921Z</time></trkpt><trkpt lat="45.3379783" lon="9.7332733"><ele>67.33333333333333</ele><time>2026-04-11T12:31:58.921Z</time></trkpt><trkpt lat="45.3381233" lon="9.7332133"><ele>67.66666666666667</ele><time>2026-04-11T12:31:59.921Z</time></trkpt><trkpt lat="45.3382783" lon="9.7331633"><ele>68.0</ele><time>2026-04-11T12:32:00.921Z</time></trkpt><trkpt lat="45.338435" lon="9.733105"><ele>68.0</ele><time>2026-04-11T12:32:01.921Z</time></trkpt><trkpt lat="45.338595" lon="9.73304"><ele>68.0</ele><time>2026-04-11T12:32:02.921Z</time></trkpt><trkpt lat="45.3387533" lon="9.73298"><ele>68.0</ele><time>2026-04-11T12:32:03.921Z</time></trkpt><trkpt lat="45.338915" lon="9.7329167"><ele>68.0</ele><time>2026-04-11T12:32:04.921Z</time></trkpt><trkpt lat="45.3390833" lon="9.7328517"><ele>68.0</ele><time>2026-04-11T12:32:05.921Z</time></trkpt><trkpt lat="45.339255" lon="9.7327867"><ele>68.0</ele><time>2026-04-11T12:32:06.921Z</time></trkpt><trkpt lat="45.3394267" lon="9.7327167"><ele>68.0</ele><time>2026-04-11T12:32:07.92Z</time></trkpt><trkpt lat="45.3395933" lon="9.7326483"><ele>68.0</ele><time>2026-04-11T12:32:08.921Z</time></trkpt><trkpt lat="45.33976" lon="9.73259"><ele>68.0</ele><time>2026-04-11T12:32:09.921Z</time></trkpt><trkpt lat="45.339925" lon="9.7325317"><ele>68.0</ele><time>2026-04-11T12:32:10.921Z</time></trkpt><trkpt lat="45.3400817" lon="9.73247"><ele>68.0</ele><time>2026-04-11T12:32:11.92Z</time></trkpt><trkpt lat="45.340235" lon="9.73242"><ele>68.0</ele><time>2026-04-11T12:32:12.921Z</time></trkpt><trkpt lat="45.3403817" lon="9.7323633"><ele>68.0</ele><time>2026-04-11T12:32:13.921Z</time></trkpt><trkpt lat="45.3405267" lon="9.732305"><ele>68.0</ele><time>2026-04-11T12:32:14.921Z</time></trkpt><trkpt lat="45.34068" lon="9.7322417"><ele>68.0</ele><time>2026-04-11T12:32:15.921Z</time></trkpt><trkpt lat="45.3408333" lon="9.73218"><ele>68.0</ele><time>2026-04-11T12:32:16.921Z</time></trkpt><trkpt lat="45.341" lon="9.7321183"><ele>68.0</ele><time>2026-04-11T12:32:17.921Z</time></trkpt><trkpt lat="45.3411683" lon="9.732045"><ele>68.0</ele><time>2026-04-11T12:32:18.921Z</time></trkpt><trkpt lat="45.3413267" lon="9.7319733"><ele>68.66666666666667</ele><time>2026-04-11T12:32:19.92Z</time></trkpt><trkpt lat="45.3414867" lon="9.7318983"><ele>69.33333333333333</ele><time>2026-04-11T12:32:20.921Z</time></trkpt><trkpt lat="45.3416383" lon="9.7318183"><ele>70.0</ele><time>2026-04-11T12:32:21.92Z</time></trkpt><trkpt lat="45.341785" lon="9.731735"><ele>70.0</ele><time>2026-04-11T12:32:22.921Z</time></trkpt><trkpt lat="45.34192" lon="9.731655"><ele>70.0</ele><time>2026-04-11T12:32:23.921Z</time></trkpt><trkpt lat="45.3420533" lon="9.73157"><ele>70.0</ele><time>2026-04-11T12:32:24.921Z</time></trkpt><trkpt lat="45.3421833" lon="9.7314867"><ele>70.0</ele><time>2026-04-11T12:32:25.921Z</time></trkpt><trkpt lat="45.3423117" lon="9.731395"><ele>69.66666666666666</ele><time>2026-04-11T12:32:26.92Z</time></trkpt><trkpt lat="45.3424467" lon="9.7312933"><ele>69.33333333333333</ele><time>2026-04-11T12:32:27.921Z</time></trkpt><trkpt lat="45.3425767" lon="9.7311833"><ele>69.0</ele><time>2026-04-11T12:32:28.921Z</time></trkpt><trkpt lat="45.34271" lon="9.7310633"><ele>69.0</ele><time>2026-04-11T12:32:29.921Z</time></trkpt><trkpt lat="45.3428467" lon="9.7309517"><ele>69.0</ele><time>2026-04-11T12:32:30.921Z</time></trkpt><trkpt lat="45.342975" lon="9.7308417"><ele>69.0</ele><time>2026-04-11T12:32:31.921Z</time></trkpt><trkpt lat="45.3431033" lon="9.7307233"><ele>69.0</ele><time>2026-04-11T12:32:32.92Z</time></trkpt><trkpt lat="45.3432317" lon="9.7305983"><ele>69.0</ele><time>2026-04-11T12:32:33.92Z</time></trkpt><trkpt lat="45.343365" lon="9.73048"><ele>69.0</ele><time>2026-04-11T12:32:34.92Z</time></trkpt><trkpt lat="45.3434917" lon="9.7303633"><ele>69.0</ele><time>2026-04-11T12:32:35.92Z</time></trkpt><trkpt lat="45.343615" lon="9.7302467"><ele>69.0</ele><time>2026-04-11T12:32:36.92Z</time></trkpt><trkpt lat="45.3437433" lon="9.7301333"><ele>69.0</ele><time>2026-04-11T12:32:37.92Z</time></trkpt><trkpt lat="45.343875" lon="9.730025"><ele>69.33333333333333</ele><time>2026-04-11T12:32:38.92Z</time></trkpt><trkpt lat="45.344" lon="9.7299183"><ele>69.66666666666666</ele><time>2026-04-11T12:32:39.92Z</time></trkpt><trkpt lat="45.3441283" lon="9.729805"><ele>70.0</ele><time>2026-04-11T12:32:40.92Z</time></trkpt><trkpt lat="45.3442567" lon="9.7296867"><ele>70.0</ele><time>2026-04-11T12:32:41.92Z</time></trkpt><trkpt lat="45.3443933" lon="9.7295667"><ele>70.0</ele><time>2026-04-11T12:32:42.92Z</time></trkpt><trkpt lat="45.3445233" lon="9.7294433"><ele>70.0</ele><time>2026-04-11T12:32:43.92Z</time></trkpt><trkpt lat="45.3446517" lon="9.72933"><ele>70.25</ele><time>2026-04-11T12:32:44.92Z</time></trkpt><trkpt lat="45.344775" lon="9.7292167"><ele>70.5</ele><time>2026-04-11T12:32:45.92Z</time></trkpt><trkpt lat="45.344895" lon="9.7291033"><ele>70.75</ele><time>2026-04-11T12:32:46.92Z</time></trkpt><trkpt lat="45.3450117" lon="9.729005"><ele>71.0</ele><time>2026-04-11T12:32:47.92Z</time></trkpt><trkpt lat="45.3451333" lon="9.7289"><ele>71.0</ele><time>2026-04-11T12:32:48.92Z</time></trkpt><trkpt lat="45.345255" lon="9.7287983"><ele>71.0</ele><time>2026-04-11T12:32:49.919Z</time></trkpt><trkpt lat="45.3453683" lon="9.7286933"><ele>71.0</ele><time>2026-04-11T12:32:50.92Z</time></trkpt><trkpt lat="45.3454817" lon="9.7285883"><ele>71.0</ele><time>2026-04-11T12:32:51.92Z</time></trkpt><trkpt lat="45.3455933" lon="9.728485"><ele>70.5</ele><time>2026-04-11T12:32:52.92Z</time></trkpt><trkpt lat="45.3457083" lon="9.72837"><ele>70.0</ele><time>2026-04-11T12:32:53.92Z</time></trkpt><trkpt lat="45.3458133" lon="9.7282483"><ele>69.5</ele><time>2026-04-11T12:32:54.92Z</time></trkpt><trkpt lat="45.3459117" lon="9.7281267"><ele>69.0</ele><time>2026-04-11T12:32:55.92Z</time></trkpt><trkpt lat="45.3460033" lon="9.728005"><ele>69.0</ele><time>2026-04-11T12:32:56.92Z</time></trkpt><trkpt lat="45.3460917" lon="9.7278733"><ele>69.0</ele><time>2026-04-11T12:32:57.92Z</time></trkpt><trkpt lat="45.3461767" lon="9.7277333"><ele>69.0</ele><time>2026-04-11T12:32:58.92Z</time></trkpt><trkpt lat="45.3462583" lon="9.7275883"><ele>69.0</ele><time>2026-04-11T12:32:59.919Z</time></trkpt><trkpt lat="45.3463333" lon="9.7274233"><ele>69.5</ele><time>2026-04-11T12:33:00.92Z</time></trkpt><trkpt lat="45.346395" lon="9.7272383"><ele>70.0</ele><time>2026-04-11T12:33:01.92Z</time></trkpt><trkpt lat="45.3464417" lon="9.727055"><ele>70.5</ele><time>2026-04-11T12:33:02.92Z</time></trkpt><trkpt lat="45.3464733" lon="9.7268733"><ele>71.0</ele><time>2026-04-11T12:33:03.919Z</time></trkpt><trkpt lat="45.346505" lon="9.7266883"><ele>71.0</ele><time>2026-04-11T12:33:04.92Z</time></trkpt><trkpt lat="45.34653" lon="9.7265"><ele>71.0</ele><time>2026-04-11T12:33:05.92Z</time></trkpt><trkpt lat="45.3465517" lon="9.72631"><ele>71.0</ele><time>2026-04-11T12:33:06.92Z</time></trkpt><trkpt lat="45.3465667" lon="9.726125"><ele>71.0</ele><time>2026-04-11T12:33:07.92Z</time></trkpt><trkpt lat="45.3465817" lon="9.7259467"><ele>71.0</ele><time>2026-04-11T12:33:08.92Z</time></trkpt><trkpt lat="45.3465867" lon="9.7257617"><ele>71.0</ele><time>2026-04-11T12:33:09.92Z</time></trkpt><trkpt lat="45.346595" lon="9.7255783"><ele>71.0</ele><time>2026-04-11T12:33:10.92Z</time></trkpt><trkpt lat="45.3465933" lon="9.7254017"><ele>71.0</ele><time>2026-04-11T12:33:11.92Z</time></trkpt><trkpt lat="45.3466" lon="9.7252267"><ele>71.0</ele><time>2026-04-11T12:33:12.92Z</time></trkpt><trkpt lat="45.3466067" lon="9.7250567"><ele>71.0</ele><time>2026-04-11T12:33:13.92Z</time></trkpt><trkpt lat="45.3466083" lon="9.7248817"><ele>71.0</ele><time>2026-04-11T12:33:14.92Z</time></trkpt><trkpt lat="45.3466083" lon="9.724705"><ele>71.0</ele><time>2026-04-11T12:33:15.92Z</time></trkpt><trkpt lat="45.34661" lon="9.7245233"><ele>71.25</ele><time>2026-04-11T12:33:16.919Z</time></trkpt><trkpt lat="45.3466117" lon="9.7243433"><ele>71.5</ele><time>2026-04-11T12:33:17.92Z</time></trkpt><trkpt lat="45.346615" lon="9.72416"><ele>71.75</ele><time>2026-04-11T12:33:18.92Z</time></trkpt><trkpt lat="45.3466167" lon="9.7239767"><ele>72.0</ele><time>2026-04-11T12:33:19.92Z</time></trkpt><trkpt lat="45.3466133" lon="9.7238"><ele>72.0</ele><time>2026-04-11T12:33:20.92Z</time></trkpt><trkpt lat="45.346615" lon="9.7236417"><ele>72.0</ele><time>2026-04-11T12:33:21.92Z</time></trkpt><trkpt lat="45.34662" lon="9.7234833"><ele>72.0</ele><time>2026-04-11T12:33:22.92Z</time></trkpt><trkpt lat="45.3466333" lon="9.7233067"><ele>72.0</ele><time>2026-04-11T12:33:23.92Z</time></trkpt><trkpt lat="45.3466433" lon="9.7231233"><ele>72.0</ele><time>2026-04-11T12:33:24.92Z</time></trkpt><trkpt lat="45.346655" lon="9.722925"><ele>72.0</ele><time>2026-04-11T12:33:25.92Z</time></trkpt><trkpt lat="45.3466583" lon="9.7227317"><ele>72.0</ele><time>2026-04-11T12:33:26.92Z</time></trkpt><trkpt lat="45.3466567" lon="9.722525"><ele>72.0</ele><time>2026-04-11T12:33:27.92Z</time></trkpt><trkpt lat="45.3466667" lon="9.72232"><ele>72.0</ele><time>2026-04-11T12:33:28.92Z</time></trkpt><trkpt lat="45.346675" lon="9.722115"><ele>72.0</ele><time>2026-04-11T12:33:29.92Z</time></trkpt><trkpt lat="45.34667" lon="9.7219033"><ele>72.0</ele><time>2026-04-11T12:33:30.919Z</time></trkpt><trkpt lat="45.3466667" lon="9.7216933"><ele>72.0</ele><time>2026-04-11T12:33:31.92Z</time></trkpt><trkpt lat="45.34668" lon="9.7214817"><ele>72.0</ele><time>2026-04-11T12:33:32.92Z</time></trkpt><trkpt lat="45.3466817" lon="9.7212817"><ele>72.0</ele><time>2026-04-11T12:33:33.92Z</time></trkpt><trkpt lat="45.3466917" lon="9.721075"><ele>72.0</ele><time>2026-04-11T12:33:34.92Z</time></trkpt><trkpt lat="45.3467017" lon="9.72088"><ele>72.0</ele><time>2026-04-11T12:33:35.92Z</time></trkpt><trkpt lat="45.3467067" lon="9.7206717"><ele>71.66666666666667</ele><time>2026-04-11T12:33:36.92Z</time></trkpt><trkpt lat="45.346715" lon="9.720455"><ele>71.33333333333334</ele><time>2026-04-11T12:33:37.92Z</time></trkpt><trkpt lat="45.34672" lon="9.720245"><ele>71.0</ele><time>2026-04-11T12:33:38.92Z</time></trkpt><trkpt lat="45.3467233" lon="9.7200233"><ele>70.66666666666667</ele><time>2026-04-11T12:33:39.92Z</time></trkpt><trkpt lat="45.346725" lon="9.719805"><ele>70.33333333333333</ele><time>2026-04-11T12:33:40.92Z</time></trkpt><trkpt lat="45.3467367" lon="9.719585"><ele>70.0</ele><time>2026-04-11T12:33:41.92Z</time></trkpt><trkpt lat="45.34675" lon="9.719375"><ele>69.75</ele><time>2026-04-11T12:33:42.92Z</time></trkpt><trkpt lat="45.3467633" lon="9.7191783"><ele>69.5</ele><time>2026-04-11T12:33:43.92Z</time></trkpt><trkpt lat="45.3467883" lon="9.7189783"><ele>69.25</ele><time>2026-04-11T12:33:44.92Z</time></trkpt><trkpt lat="45.346825" lon="9.7187667"><ele>69.0</ele><time>2026-04-11T12:33:45.92Z</time></trkpt><trkpt lat="45.3468583" lon="9.7185683"><ele>69.0</ele><time>2026-04-11T12:33:46.92Z</time></trkpt><trkpt lat="45.3468933" lon="9.718375"><ele>69.0</ele><time>2026-04-11T12:33:47.92Z</time></trkpt><trkpt lat="45.3469367" lon="9.7181833"><ele>69.0</ele><time>2026-04-11T12:33:48.92Z</time></trkpt><trkpt lat="45.3469833" lon="9.7179883"><ele>69.0</ele><time>2026-04-11T12:33:49.92Z</time></trkpt><trkpt lat="45.3470333" lon="9.7178"><ele>69.5</ele><time>2026-04-11T12:33:50.919Z</time></trkpt><trkpt lat="45.3470883" lon="9.7176133"><ele>70.0</ele><time>2026-04-11T12:33:51.92Z</time></trkpt><trkpt lat="45.3471467" lon="9.71744"><ele>70.5</ele><time>2026-04-11T12:33:52.92Z</time></trkpt><trkpt lat="45.3472017" lon="9.7172817"><ele>71.0</ele><time>2026-04-11T12:33:53.92Z</time></trkpt><trkpt lat="45.3472517" lon="9.7171417"><ele>71.0</ele><time>2026-04-11T12:33:54.92Z</time></trkpt><trkpt lat="45.347305" lon="9.717025"><ele>71.0</ele><time>2026-04-11T12:33:55.92Z</time></trkpt><trkpt lat="45.34735" lon="9.7169283"><ele>71.0</ele><time>2026-04-11T12:33:56.92Z</time></trkpt><trkpt lat="45.34739" lon="9.7168433"><ele>71.0</ele><time>2026-04-11T12:33:57.92Z</time></trkpt><trkpt lat="45.3474283" lon="9.7167683"><ele>71.0</ele><time>2026-04-11T12:33:58.92Z</time></trkpt><trkpt lat="45.347475" lon="9.7167"><ele>71.0</ele><time>2026-04-11T12:33:59.92Z</time></trkpt><trkpt lat="45.34753" lon="9.7166533"><ele>71.0</ele><time>2026-04-11T12:34:00.92Z</time></trkpt><trkpt lat="45.347595" lon="9.716625"><ele>70.83333333333334</ele><time>2026-04-11T12:34:01.92Z</time></trkpt><trkpt lat="45.3476717" lon="9.7166033"><ele>70.66666666666667</ele><time>2026-04-11T12:34:02.92Z</time></trkpt><trkpt lat="45.3477517" lon="9.7165633"><ele>70.5</ele><time>2026-04-11T12:34:03.92Z</time></trkpt><trkpt lat="45.347815" lon="9.7165067"><ele>70.33333333333333</ele><time>2026-04-11T12:34:04.92Z</time></trkpt><trkpt lat="45.34787" lon="9.716425"><ele>70.16666666666666</ele><time>2026-04-11T12:34:05.92Z</time></trkpt><trkpt lat="45.347915" lon="9.7163217"><ele>70.0</ele><time>2026-04-11T12:34:06.92Z</time></trkpt><trkpt lat="45.3479233" lon="9.7161983"><ele>70.0</ele><time>2026-04-11T12:34:07.92Z</time></trkpt><trkpt lat="45.34793" lon="9.7160667"><ele>70.0</ele><time>2026-04-11T12:34:08.92Z</time></trkpt><trkpt lat="45.347945" lon="9.7159367"><ele>70.0</ele><time>2026-04-11T12:34:09.92Z</time></trkpt><trkpt lat="45.3479833" lon="9.715805"><ele>70.0</ele><time>2026-04-11T12:34:10.92Z</time></trkpt><trkpt lat="45.348045" lon="9.7156783"><ele>70.0</ele><time>2026-04-11T12:34:11.92Z</time></trkpt><trkpt lat="45.3481217" lon="9.7155417"><ele>70.25</ele><time>2026-04-11T12:34:12.92Z</time></trkpt><trkpt lat="45.3482" lon="9.7153967"><ele>70.5</ele><time>2026-04-11T12:34:13.92Z</time></trkpt><trkpt lat="45.3482817" lon="9.7152467"><ele>70.75</ele><time>2026-04-11T12:34:14.92Z</time></trkpt><trkpt lat="45.3483683" lon="9.715095"><ele>71.0</ele><time>2026-04-11T12:34:15.92Z</time></trkpt><trkpt lat="45.348455" lon="9.714945"><ele>71.0</ele><time>2026-04-11T12:34:16.92Z</time></trkpt><trkpt lat="45.348545" lon="9.71479"><ele>71.0</ele><time>2026-04-11T12:34:17.92Z</time></trkpt><trkpt lat="45.3486283" lon="9.71465"><ele>71.0</ele><time>2026-04-11T12:34:18.919Z</time></trkpt><trkpt lat="45.3486983" lon="9.71452"><ele>71.0</ele><time>2026-04-11T12:34:19.92Z</time></trkpt><trkpt lat="45.3487533" lon="9.7144083"><ele>71.0</ele><time>2026-04-11T12:34:20.92Z</time></trkpt><trkpt lat="45.3487917" lon="9.7143133"><ele>71.0</ele><time>2026-04-11T12:34:21.92Z</time></trkpt><trkpt lat="45.34881" lon="9.7141817"><ele>71.0</ele><time>2026-04-11T12:34:23.92Z</time></trkpt><trkpt lat="45.34881" lon="9.7140917"><ele>71.0</ele><time>2026-04-11T12:34:25.92Z</time></trkpt><trkpt lat="45.3487933" lon="9.7139933"><ele>71.0</ele><time>2026-04-11T12:34:29.92Z</time></trkpt><trkpt lat="45.348855" lon="9.7138083"><ele>71.0</ele><time>2026-04-11T12:35:07.92Z</time></trkpt><trkpt lat="45.3489217" lon="9.7137967"><ele>71.0</ele><time>2026-04-11T12:43:00.917Z</time></trkpt><trkpt lat="45.348995" lon="9.7138283"><ele>71.0</ele><time>2026-04-11T12:43:03.917Z</time></trkpt><trkpt lat="45.348965" lon="9.713965"><ele>71.0</ele><time>2026-04-11T12:43:42.916Z</time></trkpt><trkpt lat="45.3489217" lon="9.7140567"><ele>71.0</ele><time>2026-04-11T12:43:43.917Z</time></trkpt><trkpt lat="45.3488583" lon="9.7141867"><ele>71.0</ele><time>2026-04-11T12:43:44.917Z</time></trkpt><trkpt lat="45.3487717" lon="9.71435"><ele>71.0</ele><time>2026-04-11T12:43:45.917Z</time></trkpt><trkpt lat="45.3486783" lon="9.7145267"><ele>71.0</ele><time>2026-04-11T12:43:46.917Z</time></trkpt><trkpt lat="45.348585" lon="9.7146817"><ele>71.0</ele><time>2026-04-11T12:43:47.917Z</time></trkpt><trkpt lat="45.3484967" lon="9.714835"><ele>71.0</ele><time>2026-04-11T12:43:48.917Z</time></trkpt><trkpt lat="45.3484083" lon="9.7149717"><ele>71.0</ele><time>2026-04-11T12:43:49.917Z</time></trkpt><trkpt lat="45.3483383" lon="9.71509"><ele>71.0</ele><time>2026-04-11T12:43:50.917Z</time></trkpt><trkpt lat="45.3482667" lon="9.7152017"><ele>71.0</ele><time>2026-04-11T12:43:51.917Z</time></trkpt><trkpt lat="45.3481983" lon="9.7153183"><ele>71.0</ele><time>2026-04-11T12:43:52.917Z</time></trkpt><trkpt lat="45.348005" lon="9.7155967"><ele>70.8</ele><time>2026-04-11T12:43:55.917Z</time></trkpt><trkpt lat="45.34795" lon="9.71566"><ele>70.6</ele><time>2026-04-11T12:43:56.917Z</time></trkpt><trkpt lat="45.3478617" lon="9.7157717"><ele>70.4</ele><time>2026-04-11T12:43:58.917Z</time></trkpt><trkpt lat="45.3477683" lon="9.7158667"><ele>70.2</ele><time>2026-04-11T12:44:00.916Z</time></trkpt><trkpt lat="45.34771" lon="9.7159183"><ele>70.0</ele><time>2026-04-11T12:44:01.917Z</time></trkpt><trkpt lat="45.3476383" lon="9.7159783"><ele>70.0</ele><time>2026-04-11T12:44:02.917Z</time></trkpt><trkpt lat="45.3475717" lon="9.7160433"><ele>70.0</ele><time>2026-04-11T12:44:03.917Z</time></trkpt><trkpt lat="45.347525" lon="9.7161333"><ele>70.0</ele><time>2026-04-11T12:44:04.916Z</time></trkpt><trkpt lat="45.347495" lon="9.7162367"><ele>70.0</ele><time>2026-04-11T12:44:05.916Z</time></trkpt><trkpt lat="45.3474917" lon="9.71635"><ele>70.0</ele><time>2026-04-11T12:44:06.917Z</time></trkpt><trkpt lat="45.3475167" lon="9.7164433"><ele>70.0</ele><time>2026-04-11T12:44:07.917Z</time></trkpt><trkpt lat="45.3475683" lon="9.716515"><ele>70.0</ele><time>2026-04-11T12:44:08.917Z</time></trkpt><trkpt lat="45.3476417" lon="9.7165683"><ele>70.0</ele><time>2026-04-11T12:44:09.917Z</time></trkpt><trkpt lat="45.3477217" lon="9.71657"><ele>70.0</ele><time>2026-04-11T12:44:10.917Z</time></trkpt><trkpt lat="45.3478" lon="9.71652"><ele>70.0</ele><time>2026-04-11T12:44:11.917Z</time></trkpt><trkpt lat="45.347865" lon="9.71644"><ele>70.0</ele><time>2026-04-11T12:44:12.917Z</time></trkpt><trkpt lat="45.3479067" lon="9.716325"><ele>70.0</ele><time>2026-04-11T12:44:13.917Z</time></trkpt><trkpt lat="45.3479267" lon="9.71618"><ele>70.0</ele><time>2026-04-11T12:44:14.917Z</time></trkpt><trkpt lat="45.3479383" lon="9.7160267"><ele>70.0</ele><time>2026-04-11T12:44:15.917Z</time></trkpt><trkpt lat="45.347965" lon="9.715875"><ele>70.0</ele><time>2026-04-11T12:44:16.917Z</time></trkpt><trkpt lat="45.348025" lon="9.7157283"><ele>70.0</ele><time>2026-04-11T12:44:17.917Z</time></trkpt><trkpt lat="45.3481017" lon="9.7155817"><ele>70.25</ele><time>2026-04-11T12:44:18.917Z</time></trkpt><trkpt lat="45.348195" lon="9.71543"><ele>70.5</ele><time>2026-04-11T12:44:19.917Z</time></trkpt><trkpt lat="45.34829" lon="9.7152667"><ele>70.75</ele><time>2026-04-11T12:44:20.917Z</time></trkpt><trkpt lat="45.34839" lon="9.7150933"><ele>71.0</ele><time>2026-04-11T12:44:21.917Z</time></trkpt><trkpt lat="45.3484933" lon="9.714925"><ele>71.0</ele><time>2026-04-11T12:44:22.917Z</time></trkpt><trkpt lat="45.3485933" lon="9.71475"><ele>71.0</ele><time>2026-04-11T12:44:23.917Z</time></trkpt><trkpt lat="45.3486817" lon="9.7145967"><ele>71.0</ele><time>2026-04-11T12:44:24.917Z</time></trkpt><trkpt lat="45.3487683" lon="9.7144417"><ele>71.0</ele><time>2026-04-11T12:44:25.917Z</time></trkpt><trkpt lat="45.3488583" lon="9.714285"><ele>70.75</ele><time>2026-04-11T12:44:26.917Z</time></trkpt><trkpt lat="45.3489533" lon="9.71413"><ele>70.5</ele><time>2026-04-11T12:44:27.917Z</time></trkpt><trkpt lat="45.3490433" lon="9.7139683"><ele>70.25</ele><time>2026-04-11T12:44:28.917Z</time></trkpt><trkpt lat="45.3491367" lon="9.7138133"><ele>70.0</ele><time>2026-04-11T12:44:29.917Z</time></trkpt><trkpt lat="45.3492317" lon="9.7136533"><ele>69.66666666666666</ele><time>2026-04-11T12:44:30.917Z</time></trkpt><trkpt lat="45.3493267" lon="9.7134933"><ele>69.33333333333333</ele><time>2026-04-11T12:44:31.917Z</time></trkpt><trkpt lat="45.3494217" lon="9.7133267"><ele>69.0</ele><time>2026-04-11T12:44:32.917Z</time></trkpt><trkpt lat="45.34952" lon="9.7131583"><ele>69.0</ele><time>2026-04-11T12:44:33.917Z</time></trkpt><trkpt lat="45.3496183" lon="9.7129833"><ele>69.0</ele><time>2026-04-11T12:44:34.916Z</time></trkpt><trkpt lat="45.3497283" lon="9.71281"><ele>69.0</ele><time>2026-04-11T12:44:35.917Z</time></trkpt><trkpt lat="45.34984" lon="9.7126283"><ele>69.0</ele><time>2026-04-11T12:44:36.917Z</time></trkpt><trkpt lat="45.3499433" lon="9.7124467"><ele>69.0</ele><time>2026-04-11T12:44:37.916Z</time></trkpt><trkpt lat="45.3500483" lon="9.7122617"><ele>69.0</ele><time>2026-04-11T12:44:38.917Z</time></trkpt><trkpt lat="45.3501567" lon="9.7120717"><ele>68.66666666666667</ele><time>2026-04-11T12:44:39.917Z</time></trkpt><trkpt lat="45.350275" lon="9.711875"><ele>68.33333333333334</ele><time>2026-04-11T12:44:40.917Z</time></trkpt><trkpt lat="45.3504" lon="9.7116883"><ele>68.0</ele><time>2026-04-11T12:44:41.917Z</time></trkpt><trkpt lat="45.350515" lon="9.71149"><ele>68.33333333333334</ele><time>2026-04-11T12:44:42.917Z</time></trkpt><trkpt lat="45.3506283" lon="9.7112867"><ele>68.66666666666667</ele><time>2026-04-11T12:44:43.917Z</time></trkpt><trkpt lat="45.3507517" lon="9.71109"><ele>69.0</ele><time>2026-04-11T12:44:44.917Z</time></trkpt><trkpt lat="45.3508667" lon="9.7109"><ele>69.0</ele><time>2026-04-11T12:44:45.917Z</time></trkpt><trkpt lat="45.3509767" lon="9.7107167"><ele>69.0</ele><time>2026-04-11T12:44:46.917Z</time></trkpt><trkpt lat="45.3510783" lon="9.7105467"><ele>69.0</ele><time>2026-04-11T12:44:47.917Z</time></trkpt><trkpt lat="45.3511733" lon="9.7103817"><ele>69.0</ele><time>2026-04-11T12:44:48.917Z</time></trkpt><trkpt lat="45.3512633" lon="9.71021"><ele>69.0</ele><time>2026-04-11T12:44:49.917Z</time></trkpt><trkpt lat="45.3513533" lon="9.7100433"><ele>69.0</ele><time>2026-04-11T12:44:50.916Z</time></trkpt><trkpt lat="45.3514467" lon="9.7098817"><ele>69.0</ele><time>2026-04-11T12:44:51.917Z</time></trkpt><trkpt lat="45.3515383" lon="9.7097133"><ele>69.0</ele><time>2026-04-11T12:44:52.917Z</time></trkpt><trkpt lat="45.3516233" lon="9.7095467"><ele>69.0</ele><time>2026-04-11T12:44:53.917Z</time></trkpt><trkpt lat="45.35172" lon="9.709385"><ele>69.0</ele><time>2026-04-11T12:44:54.917Z</time></trkpt><trkpt lat="45.3518067" lon="9.709245"><ele>69.0</ele><time>2026-04-11T12:44:55.917Z</time></trkpt><trkpt lat="45.3518867" lon="9.70912"><ele>69.2</ele><time>2026-04-11T12:44:56.917Z</time></trkpt><trkpt lat="45.3519617" lon="9.7089967"><ele>69.4</ele><time>2026-04-11T12:44:57.917Z</time></trkpt><trkpt lat="45.3520383" lon="9.7088833"><ele>69.6</ele><time>2026-04-11T12:44:58.917Z</time></trkpt><trkpt lat="45.35212" lon="9.7087733"><ele>69.8</ele><time>2026-04-11T12:44:59.917Z</time></trkpt><trkpt lat="45.3522067" lon="9.7086783"><ele>70.0</ele><time>2026-04-11T12:45:00.917Z</time></trkpt><trkpt lat="45.3522933" lon="9.7085833"><ele>70.0</ele><time>2026-04-11T12:45:01.917Z</time></trkpt><trkpt lat="45.3523883" lon="9.70849"><ele>70.0</ele><time>2026-04-11T12:45:02.917Z</time></trkpt><trkpt lat="45.35249" lon="9.708395"><ele>70.0</ele><time>2026-04-11T12:45:03.917Z</time></trkpt><trkpt lat="45.3525867" lon="9.7083217"><ele>70.0</ele><time>2026-04-11T12:45:04.917Z</time></trkpt><trkpt lat="45.3526683" lon="9.7082633"><ele>70.0</ele><time>2026-04-11T12:45:05.917Z</time></trkpt><trkpt lat="45.3527383" lon="9.7082217"><ele>70.0</ele><time>2026-04-11T12:45:06.916Z</time></trkpt><trkpt lat="45.3528017" lon="9.7081983"><ele>70.0</ele><time>2026-04-11T12:45:07.917Z</time></trkpt><trkpt lat="45.3529117" lon="9.7081667"><ele>70.0</ele><time>2026-04-11T12:45:09.917Z</time></trkpt><trkpt lat="45.3529867" lon="9.7081483"><ele>70.0</ele><time>2026-04-11T12:45:11.917Z</time></trkpt><trkpt lat="45.353115" lon="9.7081083"><ele>70.0</ele><time>2026-04-11T12:45:25.916Z</time></trkpt><trkpt lat="45.3532633" lon="9.708085"><ele>70.75</ele><time>2026-04-11T12:45:27.916Z</time></trkpt><trkpt lat="45.3533817" lon="9.7080683"><ele>71.5</ele><time>2026-04-11T12:45:28.916Z</time></trkpt><trkpt lat="45.3535267" lon="9.7080483"><ele>72.25</ele><time>2026-04-11T12:45:29.916Z</time></trkpt><trkpt lat="45.35368" lon="9.7080017"><ele>73.0</ele><time>2026-04-11T12:45:30.916Z</time></trkpt><trkpt lat="45.3538083" lon="9.7079233"><ele>72.75</ele><time>2026-04-11T12:45:31.916Z</time></trkpt><trkpt lat="45.3539217" lon="9.7078033"><ele>72.5</ele><time>2026-04-11T12:45:32.916Z</time></trkpt><trkpt lat="45.3540117" lon="9.707655"><ele>72.25</ele><time>2026-04-11T12:45:33.916Z</time></trkpt><trkpt lat="45.3540733" lon="9.7074833"><ele>72.0</ele><time>2026-04-11T12:45:34.916Z</time></trkpt><trkpt lat="45.354115" lon="9.7072783"><ele>71.75</ele><time>2026-04-11T12:45:35.916Z</time></trkpt><trkpt lat="45.3541233" lon="9.7070683"><ele>71.5</ele><time>2026-04-11T12:45:36.916Z</time></trkpt><trkpt lat="45.3541033" lon="9.70688"><ele>71.25</ele><time>2026-04-11T12:45:37.916Z</time></trkpt><trkpt lat="45.3540633" lon="9.7066817"><ele>71.0</ele><time>2026-04-11T12:45:38.916Z</time></trkpt><trkpt lat="45.3540167" lon="9.706475"><ele>71.0</ele><time>2026-04-11T12:45:39.916Z</time></trkpt><trkpt lat="45.3539667" lon="9.70627"><ele>71.0</ele><time>2026-04-11T12:45:40.916Z</time></trkpt><trkpt lat="45.35393" lon="9.7060667"><ele>71.0</ele><time>2026-04-11T12:45:41.916Z</time></trkpt><trkpt lat="45.3538917" lon="9.70588"><ele>71.0</ele><time>2026-04-11T12:45:42.916Z</time></trkpt><trkpt lat="45.353845" lon="9.7057083"><ele>71.0</ele><time>2026-04-11T12:45:43.916Z</time></trkpt><trkpt lat="45.353765" lon="9.705565"><ele>71.0</ele><time>2026-04-11T12:45:44.916Z</time></trkpt><trkpt lat="45.3536633" lon="9.7054483"><ele>71.0</ele><time>2026-04-11T12:45:45.916Z</time></trkpt><trkpt lat="45.3535483" lon="9.7053167"><ele>71.0</ele><time>2026-04-11T12:45:46.915Z</time></trkpt><trkpt lat="45.3534417" lon="9.7051733"><ele>70.75</ele><time>2026-04-11T12:45:47.916Z</time></trkpt><trkpt lat="45.353355" lon="9.7050183"><ele>70.5</ele><time>2026-04-11T12:45:48.916Z</time></trkpt><trkpt lat="45.353285" lon="9.7048367"><ele>70.25</ele><time>2026-04-11T12:45:49.916Z</time></trkpt><trkpt lat="45.3532333" lon="9.70464"><ele>70.0</ele><time>2026-04-11T12:45:50.916Z</time></trkpt><trkpt lat="45.3531883" lon="9.7044333"><ele>70.0</ele><time>2026-04-11T12:45:51.915Z</time></trkpt><trkpt lat="45.3531417" lon="9.7041967"><ele>70.0</ele><time>2026-04-11T12:45:52.916Z</time></trkpt><trkpt lat="45.3530883" lon="9.703955"><ele>70.0</ele><time>2026-04-11T12:45:53.916Z</time></trkpt><trkpt lat="45.3530333" lon="9.7037067"><ele>69.66666666666666</ele><time>2026-04-11T12:45:54.916Z</time></trkpt><trkpt lat="45.35297" lon="9.703455"><ele>69.33333333333333</ele><time>2026-04-11T12:45:55.916Z</time></trkpt><trkpt lat="45.3529117" lon="9.7031983"><ele>69.0</ele><time>2026-04-11T12:45:56.916Z</time></trkpt><trkpt lat="45.3528533" lon="9.7029367"><ele>69.0</ele><time>2026-04-11T12:45:57.916Z</time></trkpt><trkpt lat="45.352795" lon="9.7026733"><ele>69.0</ele><time>2026-04-11T12:45:58.916Z</time></trkpt><trkpt lat="45.3527383" lon="9.702405"><ele>69.0</ele><time>2026-04-11T12:45:59.916Z</time></trkpt><trkpt lat="45.35267" lon="9.70214"><ele>69.33333333333333</ele><time>2026-04-11T12:46:00.916Z</time></trkpt><trkpt lat="45.3526117" lon="9.7018833"><ele>69.66666666666666</ele><time>2026-04-11T12:46:01.916Z</time></trkpt><trkpt lat="45.3525583" lon="9.70164"><ele>70.0</ele><time>2026-04-11T12:46:02.916Z</time></trkpt><trkpt lat="45.3525017" lon="9.7014067"><ele>70.0</ele><time>2026-04-11T12:46:03.916Z</time></trkpt><trkpt lat="45.352455" lon="9.7011867"><ele>70.0</ele><time>2026-04-11T12:46:04.916Z</time></trkpt><trkpt lat="45.352415" lon="9.700985"><ele>70.0</ele><time>2026-04-11T12:46:05.916Z</time></trkpt><trkpt lat="45.3523783" lon="9.700775"><ele>70.0</ele><time>2026-04-11T12:46:06.916Z</time></trkpt><trkpt lat="45.3523267" lon="9.7005683"><ele>70.0</ele><time>2026-04-11T12:46:07.916Z</time></trkpt><trkpt lat="45.35228" lon="9.7003583"><ele>70.0</ele><time>2026-04-11T12:46:08.916Z</time></trkpt><trkpt lat="45.3522317" lon="9.700145"><ele>69.66666666666666</ele><time>2026-04-11T12:46:09.916Z</time></trkpt><trkpt lat="45.352185" lon="9.69993"><ele>69.33333333333333</ele><time>2026-04-11T12:46:10.916Z</time></trkpt><trkpt lat="45.352135" lon="9.6997067"><ele>69.0</ele><time>2026-04-11T12:46:11.916Z</time></trkpt><trkpt lat="45.352085" lon="9.6994883"><ele>69.33333333333333</ele><time>2026-04-11T12:46:12.916Z</time></trkpt><trkpt lat="45.3520417" lon="9.6992767"><ele>69.66666666666666</ele><time>2026-04-11T12:46:13.916Z</time></trkpt><trkpt lat="45.3519933" lon="9.6990583"><ele>70.0</ele><time>2026-04-11T12:46:14.916Z</time></trkpt><trkpt lat="45.35194" lon="9.6988317"><ele>70.0</ele><time>2026-04-11T12:46:15.915Z</time></trkpt><trkpt lat="45.35188" lon="9.698605"><ele>70.0</ele><time>2026-04-11T12:46:16.916Z</time></trkpt><trkpt lat="45.3518317" lon="9.6983833"><ele>70.0</ele><time>2026-04-11T12:46:17.916Z</time></trkpt><trkpt lat="45.3517867" lon="9.6981667"><ele>70.33333333333333</ele><time>2026-04-11T12:46:18.916Z</time></trkpt><trkpt lat="45.35174" lon="9.69795"><ele>70.66666666666667</ele><time>2026-04-11T12:46:19.916Z</time></trkpt><trkpt lat="45.3516867" lon="9.6977283"><ele>71.0</ele><time>2026-04-11T12:46:20.915Z</time></trkpt><trkpt lat="45.3516433" lon="9.6974933"><ele>70.33333333333334</ele><time>2026-04-11T12:46:21.916Z</time></trkpt><trkpt lat="45.3515867" lon="9.6972733"><ele>69.66666666666667</ele><time>2026-04-11T12:46:22.916Z</time></trkpt><trkpt lat="45.3515317" lon="9.697065"><ele>69.0</ele><time>2026-04-11T12:46:23.916Z</time></trkpt><trkpt lat="45.3514767" lon="9.6968517"><ele>69.0</ele><time>2026-04-11T12:46:24.916Z</time></trkpt><trkpt lat="45.3514267" lon="9.69664"><ele>69.0</ele><time>2026-04-11T12:46:25.916Z</time></trkpt><trkpt lat="45.3513817" lon="9.6964267"><ele>69.0</ele><time>2026-04-11T12:46:26.916Z</time></trkpt><trkpt lat="45.3513333" lon="9.6962083"><ele>69.33333333333333</ele><time>2026-04-11T12:46:27.916Z</time></trkpt><trkpt lat="45.3512917" lon="9.6959883"><ele>69.66666666666666</ele><time>2026-04-11T12:46:28.916Z</time></trkpt><trkpt lat="45.3512417" lon="9.6957733"><ele>70.0</ele><time>2026-04-11T12:46:29.916Z</time></trkpt><trkpt lat="45.3511933" lon="9.6955583"><ele>70.0</ele><time>2026-04-11T12:46:30.916Z</time></trkpt><trkpt lat="45.35115" lon="9.6953433"><ele>70.0</ele><time>2026-04-11T12:46:31.916Z</time></trkpt><trkpt lat="45.35111" lon="9.6951217"><ele>70.0</ele><time>2026-04-11T12:46:32.916Z</time></trkpt><trkpt lat="45.3510783" lon="9.6949033"><ele>69.66666666666666</ele><time>2026-04-11T12:46:33.915Z</time></trkpt><trkpt lat="45.3510483" lon="9.6946833"><ele>69.33333333333333</ele><time>2026-04-11T12:46:34.916Z</time></trkpt><trkpt lat="45.3510217" lon="9.69445"><ele>69.0</ele><time>2026-04-11T12:46:35.916Z</time></trkpt><trkpt lat="45.35101" lon="9.6942017"><ele>69.0</ele><time>2026-04-11T12:46:36.916Z</time></trkpt><trkpt lat="45.3510117" lon="9.6939683"><ele>69.0</ele><time>2026-04-11T12:46:37.916Z</time></trkpt><trkpt lat="45.3510233" lon="9.6937367"><ele>69.0</ele><time>2026-04-11T12:46:38.915Z</time></trkpt><trkpt lat="45.3510383" lon="9.6935117"><ele>69.0</ele><time>2026-04-11T12:46:39.916Z</time></trkpt><trkpt lat="45.3510583" lon="9.6932833"><ele>69.0</ele><time>2026-04-11T12:46:40.916Z</time></trkpt><trkpt lat="45.3510867" lon="9.6930533"><ele>69.0</ele><time>2026-04-11T12:46:41.916Z</time></trkpt><trkpt lat="45.35111" lon="9.692835"><ele>68.66666666666667</ele><time>2026-04-11T12:46:42.916Z</time></trkpt><trkpt lat="45.3511317" lon="9.69262"><ele>68.33333333333334</ele><time>2026-04-11T12:46:43.916Z</time></trkpt><trkpt lat="45.351145" lon="9.69242"><ele>68.0</ele><time>2026-04-11T12:46:44.915Z</time></trkpt><trkpt lat="45.3511683" lon="9.6921917"><ele>68.0</ele><time>2026-04-11T12:46:45.916Z</time></trkpt><trkpt lat="45.3511917" lon="9.6919867"><ele>68.0</ele><time>2026-04-11T12:46:46.916Z</time></trkpt><trkpt lat="45.3512133" lon="9.6917933"><ele>68.0</ele><time>2026-04-11T12:46:47.916Z</time></trkpt><trkpt lat="45.3512433" lon="9.6916083"><ele>68.0</ele><time>2026-04-11T12:46:48.916Z</time></trkpt><trkpt lat="45.3512833" lon="9.6914317"><ele>68.0</ele><time>2026-04-11T12:46:49.915Z</time></trkpt><trkpt lat="45.3513333" lon="9.6912667"><ele>68.0</ele><time>2026-04-11T12:46:50.916Z</time></trkpt><trkpt lat="45.35138" lon="9.6911133"><ele>68.0</ele><time>2026-04-11T12:46:51.916Z</time></trkpt><trkpt lat="45.351435" lon="9.6909717"><ele>68.0</ele><time>2026-04-11T12:46:52.916Z</time></trkpt><trkpt lat="45.351485" lon="9.6908483"><ele>68.5</ele><time>2026-04-11T12:46:53.916Z</time></trkpt><trkpt lat="45.3515367" lon="9.69074"><ele>69.0</ele><time>2026-04-11T12:46:54.915Z</time></trkpt><trkpt lat="45.3515817" lon="9.6906583"><ele>69.5</ele><time>2026-04-11T12:46:55.916Z</time></trkpt><trkpt lat="45.3516483" lon="9.6905317"><ele>70.0</ele><time>2026-04-11T12:46:57.916Z</time></trkpt><trkpt lat="45.3516967" lon="9.690455"><ele>70.5</ele><time>2026-04-11T12:47:00.916Z</time></trkpt><trkpt lat="45.351765" lon="9.6903767"><ele>71.0</ele><time>2026-04-11T12:47:03.915Z</time></trkpt><trkpt lat="45.351815" lon="9.6902333"><ele>71.0</ele><time>2026-04-11T12:47:05.915Z</time></trkpt><trkpt lat="45.3518267" lon="9.6900733"><ele>71.0</ele><time>2026-04-11T12:47:07.916Z</time></trkpt><trkpt lat="45.3518433" lon="9.68997"><ele>71.0</ele><time>2026-04-11T12:47:08.916Z</time></trkpt><trkpt lat="45.3518733" lon="9.6898567"><ele>71.0</ele><time>2026-04-11T12:47:09.916Z</time></trkpt><trkpt lat="45.3519117" lon="9.689735"><ele>71.0</ele><time>2026-04-11T12:47:10.916Z</time></trkpt><trkpt lat="45.3519533" lon="9.6896083"><ele>71.0</ele><time>2026-04-11T12:47:11.916Z</time></trkpt><trkpt lat="45.352" lon="9.6894733"><ele>71.0</ele><time>2026-04-11T12:47:12.916Z</time></trkpt><trkpt lat="45.3520533" lon="9.68933"><ele>71.0</ele><time>2026-04-11T12:47:13.916Z</time></trkpt><trkpt lat="45.3521067" lon="9.6891867"><ele>71.0</ele><time>2026-04-11T12:47:14.916Z</time></trkpt><trkpt lat="45.3521583" lon="9.6890433"><ele>71.0</ele><time>2026-04-11T12:47:15.916Z</time></trkpt><trkpt lat="45.3522167" lon="9.6888983"><ele>71.0</ele><time>2026-04-11T12:47:16.916Z</time></trkpt><trkpt lat="45.35228" lon="9.6887533"><ele>71.0</ele><time>2026-04-11T12:47:17.916Z</time></trkpt><trkpt lat="45.35235" lon="9.6886033"><ele>71.0</ele><time>2026-04-11T12:47:18.916Z</time></trkpt><trkpt lat="45.3524133" lon="9.688455"><ele>71.0</ele><time>2026-04-11T12:47:19.916Z</time></trkpt><trkpt lat="45.3524683" lon="9.688325"><ele>71.0</ele><time>2026-04-11T12:47:20.916Z</time></trkpt><trkpt lat="45.35252" lon="9.6881967"><ele>71.0</ele><time>2026-04-11T12:47:21.916Z</time></trkpt><trkpt lat="45.3525733" lon="9.6880817"><ele>71.0</ele><time>2026-04-11T12:47:22.916Z</time></trkpt><trkpt lat="45.3526217" lon="9.6879917"><ele>71.0</ele><time>2026-04-11T12:47:23.916Z</time></trkpt><trkpt lat="45.3526633" lon="9.6878717"><ele>71.0</ele><time>2026-04-11T12:47:25.916Z</time></trkpt><trkpt lat="45.3527033" lon="9.6877783"><ele>71.0</ele><time>2026-04-11T12:47:27.916Z</time></trkpt><trkpt lat="45.3527567" lon="9.68768"><ele>71.0</ele><time>2026-04-11T12:47:29.916Z</time></trkpt><trkpt lat="45.3528167" lon="9.6875433"><ele>71.0</ele><time>2026-04-11T12:47:31.916Z</time></trkpt><trkpt lat="45.352835" lon="9.687445"><ele>71.0</ele><time>2026-04-11T12:47:32.916Z</time></trkpt><trkpt lat="45.35285" lon="9.6873083"><ele>71.0</ele><time>2026-04-11T12:47:33.916Z</time></trkpt><trkpt lat="45.352885" lon="9.6871417"><ele>71.0</ele><time>2026-04-11T12:47:34.916Z</time></trkpt><trkpt lat="45.3529517" lon="9.6869633"><ele>71.0</ele><time>2026-04-11T12:47:35.916Z</time></trkpt><trkpt lat="45.353025" lon="9.6867783"><ele>71.0</ele><time>2026-04-11T12:47:36.916Z</time></trkpt><trkpt lat="45.353095" lon="9.6865967"><ele>71.0</ele><time>2026-04-11T12:47:37.916Z</time></trkpt><trkpt lat="45.3531733" lon="9.6863917"><ele>70.66666666666667</ele><time>2026-04-11T12:47:38.916Z</time></trkpt><trkpt lat="45.35325" lon="9.686185"><ele>70.33333333333333</ele><time>2026-04-11T12:47:39.916Z</time></trkpt><trkpt lat="45.3533233" lon="9.6859767"><ele>70.0</ele><time>2026-04-11T12:47:40.916Z</time></trkpt><trkpt lat="45.3534" lon="9.6857683"><ele>70.66666666666666</ele><time>2026-04-11T12:47:41.916Z</time></trkpt><trkpt lat="45.35348" lon="9.6855617"><ele>71.33333333333333</ele><time>2026-04-11T12:47:42.916Z</time></trkpt><trkpt lat="45.3535583" lon="9.6853533"><ele>72.0</ele><time>2026-04-11T12:47:43.915Z</time></trkpt><trkpt lat="45.3536317" lon="9.6851367"><ele>72.66666666666667</ele><time>2026-04-11T12:47:44.916Z</time></trkpt><trkpt lat="45.35371" lon="9.684925"><ele>73.33333333333334</ele><time>2026-04-11T12:47:45.915Z</time></trkpt><trkpt lat="45.3537883" lon="9.68471"><ele>74.0</ele><time>2026-04-11T12:47:46.916Z</time></trkpt><trkpt lat="45.35387" lon="9.6845"><ele>75.0</ele><time>2026-04-11T12:47:47.916Z</time></trkpt><trkpt lat="45.3539433" lon="9.6842883"><ele>76.0</ele><time>2026-04-11T12:47:48.916Z</time></trkpt><trkpt lat="45.35402" lon="9.6840833"><ele>77.0</ele><time>2026-04-11T12:47:49.915Z</time></trkpt><trkpt lat="45.3540983" lon="9.6838783"><ele>77.0</ele><time>2026-04-11T12:47:50.916Z</time></trkpt><trkpt lat="45.35418" lon="9.6836767"><ele>77.0</ele><time>2026-04-11T12:47:51.916Z</time></trkpt><trkpt lat="45.3542467" lon="9.683495"><ele>77.0</ele><time>2026-04-11T12:47:52.916Z</time></trkpt><trkpt lat="45.35431" lon="9.6833283"><ele>77.0</ele><time>2026-04-11T12:47:53.915Z</time></trkpt><trkpt lat="45.3543733" lon="9.6831583"><ele>76.8</ele><time>2026-04-11T12:47:54.916Z</time></trkpt><trkpt lat="45.3544267" lon="9.6830117"><ele>76.6</ele><time>2026-04-11T12:47:55.916Z</time></trkpt><trkpt lat="45.35448" lon="9.6828817"><ele>76.39999999999999</ele><time>2026-04-11T12:47:56.915Z</time></trkpt><trkpt lat="45.3545217" lon="9.6827733"><ele>76.2</ele><time>2026-04-11T12:47:57.915Z</time></trkpt><trkpt lat="45.3545617" lon="9.6826733"><ele>76.0</ele><time>2026-04-11T12:47:58.916Z</time></trkpt><trkpt lat="45.354595" lon="9.6825783"><ele>76.0</ele><time>2026-04-11T12:47:59.916Z</time></trkpt><trkpt lat="45.3546217" lon="9.6824967"><ele>76.0</ele><time>2026-04-11T12:48:00.916Z</time></trkpt><trkpt lat="45.354675" lon="9.6823533"><ele>76.0</ele><time>2026-04-11T12:48:02.916Z</time></trkpt><trkpt lat="45.3547267" lon="9.68222"><ele>76.0</ele><time>2026-04-11T12:48:04.916Z</time></trkpt><trkpt lat="45.3547783" lon="9.6820867"><ele>76.0</ele><time>2026-04-11T12:48:06.916Z</time></trkpt><trkpt lat="45.3548117" lon="9.68201"><ele>76.2</ele><time>2026-04-11T12:48:07.916Z</time></trkpt><trkpt lat="45.35486" lon="9.6819183"><ele>76.39999999999999</ele><time>2026-04-11T12:48:08.916Z</time></trkpt><trkpt lat="45.3549083" lon="9.681825"><ele>76.6</ele><time>2026-04-11T12:48:09.916Z</time></trkpt><trkpt lat="45.354945" lon="9.6817133"><ele>76.8</ele><time>2026-04-11T12:48:10.916Z</time></trkpt><trkpt lat="45.3549817" lon="9.6815817"><ele>77.0</ele><time>2026-04-11T12:48:11.915Z</time></trkpt><trkpt lat="45.35502" lon="9.68144"><ele>77.0</ele><time>2026-04-11T12:48:12.916Z</time></trkpt><trkpt lat="45.355065" lon="9.6813017"><ele>77.0</ele><time>2026-04-11T12:48:13.916Z</time></trkpt><trkpt lat="45.35511" lon="9.6811667"><ele>77.0</ele><time>2026-04-11T12:48:14.916Z</time></trkpt><trkpt lat="45.35516" lon="9.6810233"><ele>77.0</ele><time>2026-04-11T12:48:15.916Z</time></trkpt><trkpt lat="45.3552083" lon="9.6808833"><ele>77.0</ele><time>2026-04-11T12:48:16.916Z</time></trkpt><trkpt lat="45.35526" lon="9.68074"><ele>77.0</ele><time>2026-04-11T12:48:17.916Z</time></trkpt><trkpt lat="45.3553117" lon="9.6806017"><ele>77.0</ele><time>2026-04-11T12:48:18.915Z</time></trkpt><trkpt lat="45.35536" lon="9.6804733"><ele>77.0</ele><time>2026-04-11T12:48:19.916Z</time></trkpt><trkpt lat="45.3554117" lon="9.680325"><ele>77.0</ele><time>2026-04-11T12:48:20.916Z</time></trkpt><trkpt lat="45.35546" lon="9.68018"><ele>77.0</ele><time>2026-04-11T12:48:21.916Z</time></trkpt><trkpt lat="45.3555033" lon="9.6800433"><ele>77.0</ele><time>2026-04-11T12:48:22.915Z</time></trkpt><trkpt lat="45.3555433" lon="9.6799233"><ele>77.0</ele><time>2026-04-11T12:48:23.915Z</time></trkpt><trkpt lat="45.3555817" lon="9.6798017"><ele>77.0</ele><time>2026-04-11T12:48:24.915Z</time></trkpt><trkpt lat="45.35562" lon="9.6796983"><ele>77.0</ele><time>2026-04-11T12:48:25.915Z</time></trkpt><trkpt lat="45.355665" lon="9.679585"><ele>77.0</ele><time>2026-04-11T12:48:26.915Z</time></trkpt><trkpt lat="45.35571" lon="9.6794783"><ele>77.0</ele><time>2026-04-11T12:48:27.915Z</time></trkpt><trkpt lat="45.355745" lon="9.6793833"><ele>77.0</ele><time>2026-04-11T12:48:28.915Z</time></trkpt><trkpt lat="45.3557817" lon="9.6793033"><ele>77.0</ele><time>2026-04-11T12:48:29.915Z</time></trkpt><trkpt lat="45.3558367" lon="9.67918"><ele>77.0</ele><time>2026-04-11T12:48:31.915Z</time></trkpt><trkpt lat="45.35588" lon="9.6790783"><ele>77.0</ele><time>2026-04-11T12:48:33.915Z</time></trkpt><trkpt lat="45.3559133" lon="9.67898"><ele>77.0</ele><time>2026-04-11T12:48:35.915Z</time></trkpt><trkpt lat="45.3559517" lon="9.6788933"><ele>77.0</ele><time>2026-04-11T12:48:37.915Z</time></trkpt><trkpt lat="45.355995" lon="9.6787867"><ele>77.0</ele><time>2026-04-11T12:48:40.915Z</time></trkpt><trkpt lat="45.356055" lon="9.6786633"><ele>77.0</ele><time>2026-04-11T12:48:42.915Z</time></trkpt><trkpt lat="45.3560883" lon="9.6785817"><ele>77.0</ele><time>2026-04-11T12:48:43.915Z</time></trkpt><trkpt lat="45.3561117" lon="9.67849"><ele>77.0</ele><time>2026-04-11T12:48:44.914Z</time></trkpt><trkpt lat="45.356135" lon="9.6783867"><ele>77.0</ele><time>2026-04-11T12:48:45.915Z</time></trkpt><trkpt lat="45.35616" lon="9.678285"><ele>77.0</ele><time>2026-04-11T12:48:46.915Z</time></trkpt><trkpt lat="45.3561983" lon="9.6781767"><ele>76.6</ele><time>2026-04-11T12:48:47.915Z</time></trkpt><trkpt lat="45.3562367" lon="9.678065"><ele>76.2</ele><time>2026-04-11T12:48:48.915Z</time></trkpt><trkpt lat="45.3562783" lon="9.67794"><ele>75.8</ele><time>2026-04-11T12:48:49.915Z</time></trkpt><trkpt lat="45.356325" lon="9.6778133"><ele>75.4</ele><time>2026-04-11T12:48:50.915Z</time></trkpt><trkpt lat="45.356375" lon="9.6776767"><ele>75.0</ele><time>2026-04-11T12:48:51.915Z</time></trkpt><trkpt lat="45.3564267" lon="9.6775383"><ele>75.2</ele><time>2026-04-11T12:48:52.915Z</time></trkpt><trkpt lat="45.35648" lon="9.6773967"><ele>75.4</ele><time>2026-04-11T12:48:53.915Z</time></trkpt><trkpt lat="45.35653" lon="9.6772567"><ele>75.6</ele><time>2026-04-11T12:48:54.915Z</time></trkpt><trkpt lat="45.3565783" lon="9.6771117"><ele>75.8</ele><time>2026-04-11T12:48:55.915Z</time></trkpt><trkpt lat="45.3566333" lon="9.6769733"><ele>76.0</ele><time>2026-04-11T12:48:56.915Z</time></trkpt><trkpt lat="45.3566917" lon="9.67682"><ele>76.0</ele><time>2026-04-11T12:48:57.915Z</time></trkpt><trkpt lat="45.3567433" lon="9.6766617"><ele>76.0</ele><time>2026-04-11T12:48:58.915Z</time></trkpt><trkpt lat="45.3568" lon="9.6765067"><ele>76.0</ele><time>2026-04-11T12:48:59.915Z</time></trkpt><trkpt lat="45.3569233" lon="9.676205"><ele>75.39999999999999</ele><time>2026-04-11T12:49:01.915Z</time></trkpt><trkpt lat="45.35697" lon="9.6760717"><ele>74.8</ele><time>2026-04-11T12:49:02.915Z</time></trkpt><trkpt lat="45.3570217" lon="9.6759517"><ele>74.19999999999999</ele><time>2026-04-11T12:49:03.914Z</time></trkpt><trkpt lat="45.35706" lon="9.67584"><ele>73.6</ele><time>2026-04-11T12:49:04.915Z</time></trkpt><trkpt lat="45.3571017" lon="9.675725"><ele>73.0</ele><time>2026-04-11T12:49:05.915Z</time></trkpt><trkpt lat="45.35714" lon="9.6756217"><ele>73.0</ele><time>2026-04-11T12:49:06.915Z</time></trkpt><trkpt lat="45.3571767" lon="9.67553"><ele>73.0</ele><time>2026-04-11T12:49:07.915Z</time></trkpt><trkpt lat="45.3572117" lon="9.6754333"><ele>73.0</ele><time>2026-04-11T12:49:08.915Z</time></trkpt><trkpt lat="45.3572483" lon="9.6753467"><ele>73.0</ele><time>2026-04-11T12:49:09.915Z</time></trkpt><trkpt lat="45.3573333" lon="9.6751117"><ele>73.0</ele><time>2026-04-11T12:49:12.915Z</time></trkpt><trkpt lat="45.3574" lon="9.6749467"><ele>73.6</ele><time>2026-04-11T12:49:14.915Z</time></trkpt><trkpt lat="45.3574733" lon="9.6747567"><ele>74.19999999999999</ele><time>2026-04-11T12:49:16.915Z</time></trkpt><trkpt lat="45.3575117" lon="9.6746483"><ele>74.8</ele><time>2026-04-11T12:49:17.914Z</time></trkpt><trkpt lat="45.3575517" lon="9.6745333"><ele>75.39999999999999</ele><time>2026-04-11T12:49:18.915Z</time></trkpt><trkpt lat="45.3575917" lon="9.67441"><ele>76.0</ele><time>2026-04-11T12:49:19.915Z</time></trkpt><trkpt lat="45.3576317" lon="9.67429"><ele>76.2</ele><time>2026-04-11T12:49:20.914Z</time></trkpt><trkpt lat="45.3576767" lon="9.6741667"><ele>76.39999999999999</ele><time>2026-04-11T12:49:21.914Z</time></trkpt><trkpt lat="45.357725" lon="9.6740383"><ele>76.6</ele><time>2026-04-11T12:49:22.914Z</time></trkpt><trkpt lat="45.3577717" lon="9.67391"><ele>76.8</ele><time>2026-04-11T12:49:23.915Z</time></trkpt><trkpt lat="45.35782" lon="9.6737717"><ele>77.0</ele><time>2026-04-11T12:49:24.914Z</time></trkpt><trkpt lat="45.3578733" lon="9.673625"><ele>76.83333333333334</ele><time>2026-04-11T12:49:25.915Z</time></trkpt><trkpt lat="45.3579217" lon="9.6734833"><ele>76.66666666666667</ele><time>2026-04-11T12:49:26.915Z</time></trkpt><trkpt lat="45.3579683" lon="9.6733617"><ele>76.5</ele><time>2026-04-11T12:49:27.915Z</time></trkpt><trkpt lat="45.35801" lon="9.67325"><ele>76.33333333333333</ele><time>2026-04-11T12:49:28.915Z</time></trkpt><trkpt lat="45.358045" lon="9.6731483"><ele>76.16666666666666</ele><time>2026-04-11T12:49:29.915Z</time></trkpt><trkpt lat="45.358085" lon="9.6730667"><ele>76.0</ele><time>2026-04-11T12:49:30.915Z</time></trkpt><trkpt lat="45.3581483" lon="9.6729617"><ele>76.0</ele><time>2026-04-11T12:49:32.914Z</time></trkpt><trkpt lat="45.3582833" lon="9.6728183"><ele>76.0</ele><time>2026-04-11T12:49:44.915Z</time></trkpt><trkpt lat="45.3583667" lon="9.6727417"><ele>76.0</ele><time>2026-04-11T12:49:46.915Z</time></trkpt><trkpt lat="45.35848" lon="9.67268"><ele>76.0</ele><time>2026-04-11T12:49:48.915Z</time></trkpt><trkpt lat="45.358555" lon="9.6726583"><ele>76.2</ele><time>2026-04-11T12:49:49.915Z</time></trkpt><trkpt lat="45.3586433" lon="9.6726533"><ele>76.39999999999999</ele><time>2026-04-11T12:49:50.915Z</time></trkpt><trkpt lat="45.3587433" lon="9.6726667"><ele>76.6</ele><time>2026-04-11T12:49:51.915Z</time></trkpt><trkpt lat="45.3588533" lon="9.6726967"><ele>76.8</ele><time>2026-04-11T12:49:52.914Z</time></trkpt><trkpt lat="45.3589667" lon="9.6727483"><ele>77.0</ele><time>2026-04-11T12:49:53.915Z</time></trkpt><trkpt lat="45.3590933" lon="9.6728183"><ele>77.33333333333334</ele><time>2026-04-11T12:49:54.915Z</time></trkpt><trkpt lat="45.35935" lon="9.67298"><ele>77.66666666666667</ele><time>2026-04-11T12:49:56.915Z</time></trkpt><trkpt lat="45.3594817" lon="9.6730783"><ele>78.0</ele><time>2026-04-11T12:49:57.915Z</time></trkpt><trkpt lat="45.3596067" lon="9.6731783"><ele>77.75</ele><time>2026-04-11T12:49:58.915Z</time></trkpt><trkpt lat="45.35974" lon="9.673275"><ele>77.5</ele><time>2026-04-11T12:49:59.915Z</time></trkpt><trkpt lat="45.359855" lon="9.6733583"><ele>77.25</ele><time>2026-04-11T12:50:00.915Z</time></trkpt><trkpt lat="45.3599567" lon="9.67343"><ele>77.0</ele><time>2026-04-11T12:50:01.915Z</time></trkpt><trkpt lat="45.3600383" lon="9.6734967"><ele>77.0</ele><time>2026-04-11T12:50:02.914Z</time></trkpt><trkpt lat="45.3601167" lon="9.6735583"><ele>77.0</ele><time>2026-04-11T12:50:03.915Z</time></trkpt><trkpt lat="45.36019" lon="9.6736083"><ele>77.0</ele><time>2026-04-11T12:50:04.915Z</time></trkpt><trkpt lat="45.3602667" lon="9.6736633"><ele>77.0</ele><time>2026-04-11T12:50:05.915Z</time></trkpt><trkpt lat="45.3603517" lon="9.6737217"><ele>77.0</ele><time>2026-04-11T12:50:06.915Z</time></trkpt><trkpt lat="45.3604383" lon="9.6737817"><ele>77.0</ele><time>2026-04-11T12:50:07.915Z</time></trkpt><trkpt lat="45.3605183" lon="9.6738367"><ele>76.66666666666667</ele><time>2026-04-11T12:50:08.915Z</time></trkpt><trkpt lat="45.36059" lon="9.6738883"><ele>76.33333333333334</ele><time>2026-04-11T12:50:09.915Z</time></trkpt><trkpt lat="45.3606617" lon="9.673955"><ele>76.0</ele><time>2026-04-11T12:50:10.914Z</time></trkpt><trkpt lat="45.36072" lon="9.6739933"><ele>75.66666666666667</ele><time>2026-04-11T12:50:11.915Z</time></trkpt><trkpt lat="45.3608133" lon="9.6740567"><ele>75.33333333333333</ele><time>2026-04-11T12:50:13.915Z</time></trkpt><trkpt lat="45.3608967" lon="9.6741333"><ele>75.0</ele><time>2026-04-11T12:50:15.915Z</time></trkpt><trkpt lat="45.3610117" lon="9.67422"><ele>75.0</ele><time>2026-04-11T12:50:17.915Z</time></trkpt><trkpt lat="45.3610867" lon="9.6742617"><ele>75.0</ele><time>2026-04-11T12:50:18.915Z</time></trkpt><trkpt lat="45.3611717" lon="9.6742967"><ele>75.0</ele><time>2026-04-11T12:50:19.915Z</time></trkpt><trkpt lat="45.3612617" lon="9.67435"><ele>75.0</ele><time>2026-04-11T12:50:20.915Z</time></trkpt><trkpt lat="45.3613517" lon="9.6744283"><ele>75.0</ele><time>2026-04-11T12:50:21.915Z</time></trkpt><trkpt lat="45.3614383" lon="9.674505"><ele>75.5</ele><time>2026-04-11T12:50:22.915Z</time></trkpt><trkpt lat="45.361525" lon="9.6745767"><ele>76.0</ele><time>2026-04-11T12:50:23.915Z</time></trkpt><trkpt lat="45.3616183" lon="9.6746483"><ele>76.5</ele><time>2026-04-11T12:50:24.915Z</time></trkpt><trkpt lat="45.361705" lon="9.6747117"><ele>77.0</ele><time>2026-04-11T12:50:25.915Z</time></trkpt><trkpt lat="45.361775" lon="9.6747633"><ele>77.5</ele><time>2026-04-11T12:50:26.915Z</time></trkpt><trkpt lat="45.361835" lon="9.674805"><ele>78.0</ele><time>2026-04-11T12:50:27.914Z</time></trkpt><trkpt lat="45.3618933" lon="9.6748433"><ele>78.0</ele><time>2026-04-11T12:50:28.915Z</time></trkpt><trkpt lat="45.361955" lon="9.6748933"><ele>78.0</ele><time>2026-04-11T12:50:29.915Z</time></trkpt><trkpt lat="45.3620317" lon="9.6749467"><ele>78.0</ele><time>2026-04-11T12:50:30.915Z</time></trkpt><trkpt lat="45.3621167" lon="9.6749983"><ele>78.0</ele><time>2026-04-11T12:50:31.915Z</time></trkpt><trkpt lat="45.3622017" lon="9.6750483"><ele>78.0</ele><time>2026-04-11T12:50:32.915Z</time></trkpt><trkpt lat="45.36228" lon="9.6751017"><ele>78.0</ele><time>2026-04-11T12:50:33.915Z</time></trkpt><trkpt lat="45.3623567" lon="9.67516"><ele>78.0</ele><time>2026-04-11T12:50:34.915Z</time></trkpt><trkpt lat="45.3624333" lon="9.67521"><ele>78.0</ele><time>2026-04-11T12:50:35.915Z</time></trkpt><trkpt lat="45.3624983" lon="9.675255"><ele>78.0</ele><time>2026-04-11T12:50:36.915Z</time></trkpt><trkpt lat="45.3625567" lon="9.6753"><ele>78.0</ele><time>2026-04-11T12:50:37.915Z</time></trkpt><trkpt lat="45.3626617" lon="9.67539"><ele>78.0</ele><time>2026-04-11T12:50:39.915Z</time></trkpt><trkpt lat="45.3627483" lon="9.6754633"><ele>78.0</ele><time>2026-04-11T12:50:41.915Z</time></trkpt><trkpt lat="45.3628067" lon="9.6755033"><ele>78.0</ele><time>2026-04-11T12:50:44.915Z</time></trkpt><trkpt lat="45.3628617" lon="9.6755533"><ele>78.0</ele><time>2026-04-11T12:50:47.915Z</time></trkpt><trkpt lat="45.3629217" lon="9.6756117"><ele>78.0</ele><time>2026-04-11T12:50:50.915Z</time></trkpt><trkpt lat="45.3629967" lon="9.6756783"><ele>78.0</ele><time>2026-04-11T12:50:54.915Z</time></trkpt><trkpt lat="45.3630617" lon="9.6757333"><ele>78.0</ele><time>2026-04-11T12:50:56.915Z</time></trkpt><trkpt lat="45.3631633" lon="9.6757883"><ele>78.0</ele><time>2026-04-11T12:50:58.915Z</time></trkpt><trkpt lat="45.3632317" lon="9.6758283"><ele>77.4</ele><time>2026-04-11T12:50:59.915Z</time></trkpt><trkpt lat="45.3633183" lon="9.6758733"><ele>76.8</ele><time>2026-04-11T12:51:00.915Z</time></trkpt><trkpt lat="45.3634067" lon="9.6759167"><ele>76.2</ele><time>2026-04-11T12:51:01.914Z</time></trkpt><trkpt lat="45.3634917" lon="9.67598"><ele>75.6</ele><time>2026-04-11T12:51:02.915Z</time></trkpt><trkpt lat="45.3635817" lon="9.67604"><ele>75.0</ele><time>2026-04-11T12:51:03.915Z</time></trkpt><trkpt lat="45.36367" lon="9.6761083"><ele>75.0</ele><time>2026-04-11T12:51:04.915Z</time></trkpt><trkpt lat="45.363755" lon="9.6761633"><ele>75.0</ele><time>2026-04-11T12:51:05.915Z</time></trkpt><trkpt lat="45.3638383" lon="9.6762433"><ele>75.0</ele><time>2026-04-11T12:51:06.915Z</time></trkpt><trkpt lat="45.3639233" lon="9.6763133"><ele>75.0</ele><time>2026-04-11T12:51:07.915Z</time></trkpt><trkpt lat="45.3640133" lon="9.6763767"><ele>75.0</ele><time>2026-04-11T12:51:08.915Z</time></trkpt><trkpt lat="45.3641" lon="9.6764433"><ele>75.2</ele><time>2026-04-11T12:51:09.914Z</time></trkpt><trkpt lat="45.3641783" lon="9.6765017"><ele>75.4</ele><time>2026-04-11T12:51:10.915Z</time></trkpt><trkpt lat="45.3642583" lon="9.6765483"><ele>75.6</ele><time>2026-04-11T12:51:11.915Z</time></trkpt><trkpt lat="45.364335" lon="9.6766083"><ele>75.8</ele><time>2026-04-11T12:51:12.914Z</time></trkpt><trkpt lat="45.3644283" lon="9.6766633"><ele>76.0</ele><time>2026-04-11T12:51:13.915Z</time></trkpt><trkpt lat="45.36451" lon="9.6767283"><ele>76.0</ele><time>2026-04-11T12:51:14.915Z</time></trkpt><trkpt lat="45.3646" lon="9.6768117"><ele>76.0</ele><time>2026-04-11T12:51:15.915Z</time></trkpt><trkpt lat="45.3647067" lon="9.6768767"><ele>76.0</ele><time>2026-04-11T12:51:16.915Z</time></trkpt><trkpt lat="45.3648" lon="9.6769433"><ele>76.0</ele><time>2026-04-11T12:51:17.915Z</time></trkpt><trkpt lat="45.364885" lon="9.677015"><ele>76.0</ele><time>2026-04-11T12:51:18.915Z</time></trkpt><trkpt lat="45.3649683" lon="9.6770817"><ele>76.5</ele><time>2026-04-11T12:51:19.915Z</time></trkpt><trkpt lat="45.3650467" lon="9.6771417"><ele>77.0</ele><time>2026-04-11T12:51:20.915Z</time></trkpt><trkpt lat="45.3651283" lon="9.6772017"><ele>77.5</ele><time>2026-04-11T12:51:21.915Z</time></trkpt><trkpt lat="45.36521" lon="9.67726"><ele>78.0</ele><time>2026-04-11T12:51:22.915Z</time></trkpt><trkpt lat="45.365285" lon="9.677325"><ele>78.5</ele><time>2026-04-11T12:51:23.915Z</time></trkpt><trkpt lat="45.3653533" lon="9.677375"><ele>79.0</ele><time>2026-04-11T12:51:24.915Z</time></trkpt><trkpt lat="45.3654283" lon="9.6774367"><ele>79.0</ele><time>2026-04-11T12:51:25.914Z</time></trkpt><trkpt lat="45.365515" lon="9.6775"><ele>79.0</ele><time>2026-04-11T12:51:26.914Z</time></trkpt><trkpt lat="45.3656167" lon="9.6775567"><ele>79.0</ele><time>2026-04-11T12:51:27.914Z</time></trkpt><trkpt lat="45.3657" lon="9.67762"><ele>79.0</ele><time>2026-04-11T12:51:28.914Z</time></trkpt><trkpt lat="45.3657933" lon="9.67768"><ele>79.0</ele><time>2026-04-11T12:51:29.914Z</time></trkpt><trkpt lat="45.3658633" lon="9.67774"><ele>78.66666666666666</ele><time>2026-04-11T12:51:30.914Z</time></trkpt><trkpt lat="45.36593" lon="9.67778"><ele>78.33333333333333</ele><time>2026-04-11T12:51:31.914Z</time></trkpt><trkpt lat="45.3660167" lon="9.6778383"><ele>78.0</ele><time>2026-04-11T12:51:33.914Z</time></trkpt><trkpt lat="45.366095" lon="9.67788"><ele>77.66666666666667</ele><time>2026-04-11T12:51:35.914Z</time></trkpt><trkpt lat="45.3661583" lon="9.677915"><ele>77.33333333333334</ele><time>2026-04-11T12:51:37.914Z</time></trkpt><trkpt lat="45.3662467" lon="9.6779667"><ele>77.0</ele><time>2026-04-11T12:51:40.914Z</time></trkpt><trkpt lat="45.3663267" lon="9.6780483"><ele>76.8</ele><time>2026-04-11T12:51:42.914Z</time></trkpt><trkpt lat="45.3663733" lon="9.6781117"><ele>76.6</ele><time>2026-04-11T12:51:43.914Z</time></trkpt><trkpt lat="45.3664933" lon="9.678185"><ele>76.39999999999999</ele><time>2026-04-11T12:51:45.914Z</time></trkpt><trkpt lat="45.3665717" lon="9.6782183"><ele>76.2</ele><time>2026-04-11T12:51:46.914Z</time></trkpt><trkpt lat="45.3666533" lon="9.67828"><ele>76.0</ele><time>2026-04-11T12:51:47.914Z</time></trkpt><trkpt lat="45.3667433" lon="9.67834"><ele>76.0</ele><time>2026-04-11T12:51:48.914Z</time></trkpt><trkpt lat="45.3668317" lon="9.6784167"><ele>76.0</ele><time>2026-04-11T12:51:49.914Z</time></trkpt><trkpt lat="45.3669233" lon="9.67849"><ele>76.0</ele><time>2026-04-11T12:51:50.914Z</time></trkpt><trkpt lat="45.3670183" lon="9.67856"><ele>76.0</ele><time>2026-04-11T12:51:51.914Z</time></trkpt><trkpt lat="45.367115" lon="9.6786233"><ele>76.0</ele><time>2026-04-11T12:51:52.913Z</time></trkpt><trkpt lat="45.3672183" lon="9.6786933"><ele>76.0</ele><time>2026-04-11T12:51:53.914Z</time></trkpt><trkpt lat="45.36734" lon="9.6787717"><ele>76.0</ele><time>2026-04-11T12:51:54.914Z</time></trkpt><trkpt lat="45.36745" lon="9.6788617"><ele>76.0</ele><time>2026-04-11T12:51:55.914Z</time></trkpt><trkpt lat="45.3675617" lon="9.678945"><ele>76.0</ele><time>2026-04-11T12:51:56.914Z</time></trkpt><trkpt lat="45.3676833" lon="9.6790283"><ele>76.0</ele><time>2026-04-11T12:51:57.914Z</time></trkpt><trkpt lat="45.367795" lon="9.6791083"><ele>76.0</ele><time>2026-04-11T12:51:58.914Z</time></trkpt><trkpt lat="45.3679033" lon="9.6791733"><ele>76.0</ele><time>2026-04-11T12:51:59.914Z</time></trkpt><trkpt lat="45.367995" lon="9.67923"><ele>76.0</ele><time>2026-04-11T12:52:00.914Z</time></trkpt><trkpt lat="45.3680617" lon="9.679275"><ele>76.0</ele><time>2026-04-11T12:52:01.914Z</time></trkpt><trkpt lat="45.3681333" lon="9.67933"><ele>76.0</ele><time>2026-04-11T12:52:03.914Z</time></trkpt><trkpt lat="45.3681867" lon="9.679385"><ele>76.0</ele><time>2026-04-11T12:52:05.914Z</time></trkpt><trkpt lat="45.3682617" lon="9.6795"><ele>76.0</ele><time>2026-04-11T12:52:08.914Z</time></trkpt><trkpt lat="45.3683583" lon="9.6795467"><ele>76.0</ele><time>2026-04-11T12:52:10.914Z</time></trkpt><trkpt lat="45.3684167" lon="9.6794483"><ele>76.0</ele><time>2026-04-11T12:52:12.914Z</time></trkpt><trkpt lat="45.3683883" lon="9.6792567"><ele>76.0</ele><time>2026-04-11T12:52:14.914Z</time></trkpt><trkpt lat="45.3683717" lon="9.6791233"><ele>76.0</ele><time>2026-04-11T12:52:15.913Z</time></trkpt><trkpt lat="45.3683583" lon="9.6789767"><ele>76.0</ele><time>2026-04-11T12:52:16.914Z</time></trkpt><trkpt lat="45.3683517" lon="9.6788133"><ele>76.0</ele><time>2026-04-11T12:52:17.914Z</time></trkpt><trkpt lat="45.3683517" lon="9.6786217"><ele>76.0</ele><time>2026-04-11T12:52:18.914Z</time></trkpt><trkpt lat="45.36836" lon="9.67843"><ele>76.0</ele><time>2026-04-11T12:52:19.914Z</time></trkpt><trkpt lat="45.3683917" lon="9.6782517"><ele>76.0</ele><time>2026-04-11T12:52:20.914Z</time></trkpt><trkpt lat="45.3684333" lon="9.678065"><ele>76.0</ele><time>2026-04-11T12:52:21.914Z</time></trkpt><trkpt lat="45.3684967" lon="9.677895"><ele>76.0</ele><time>2026-04-11T12:52:22.914Z</time></trkpt><trkpt lat="45.36857" lon="9.6777233"><ele>76.0</ele><time>2026-04-11T12:52:23.913Z</time></trkpt><trkpt lat="45.36863" lon="9.6775467"><ele>76.0</ele><time>2026-04-11T12:52:24.914Z</time></trkpt><trkpt lat="45.36865" lon="9.6773433"><ele>76.0</ele><time>2026-04-11T12:52:25.914Z</time></trkpt><trkpt lat="45.3686567" lon="9.6771333"><ele>76.0</ele><time>2026-04-11T12:52:26.914Z</time></trkpt><trkpt lat="45.36864" lon="9.6769233"><ele>76.0</ele><time>2026-04-11T12:52:27.914Z</time></trkpt><trkpt lat="45.3686217" lon="9.676705"><ele>76.0</ele><time>2026-04-11T12:52:28.913Z</time></trkpt><trkpt lat="45.368595" lon="9.6764983"><ele>76.0</ele><time>2026-04-11T12:52:29.914Z</time></trkpt><trkpt lat="45.368565" lon="9.6762883"><ele>76.33333333333333</ele><time>2026-04-11T12:52:30.914Z</time></trkpt><trkpt lat="45.36854" lon="9.67606"><ele>76.66666666666667</ele><time>2026-04-11T12:52:31.914Z</time></trkpt><trkpt lat="45.3685133" lon="9.6758317"><ele>77.0</ele><time>2026-04-11T12:52:32.914Z</time></trkpt><trkpt lat="45.3684833" lon="9.6756083"><ele>77.0</ele><time>2026-04-11T12:52:33.914Z</time></trkpt><trkpt lat="45.3684533" lon="9.6753817"><ele>77.0</ele><time>2026-04-11T12:52:34.914Z</time></trkpt><trkpt lat="45.3684333" lon="9.6751567"><ele>77.0</ele><time>2026-04-11T12:52:35.914Z</time></trkpt><trkpt lat="45.36841" lon="9.6749467"><ele>76.75</ele><time>2026-04-11T12:52:36.914Z</time></trkpt><trkpt lat="45.368385" lon="9.6747483"><ele>76.5</ele><time>2026-04-11T12:52:37.914Z</time></trkpt><trkpt lat="45.3683583" lon="9.67456"><ele>76.25</ele><time>2026-04-11T12:52:38.914Z</time></trkpt><trkpt lat="45.3683367" lon="9.6743983"><ele>76.0</ele><time>2026-04-11T12:52:39.914Z</time></trkpt><trkpt lat="45.3683267" lon="9.6742817"><ele>75.39999999999999</ele><time>2026-04-11T12:52:40.914Z</time></trkpt><trkpt lat="45.36833" lon="9.67412"><ele>74.8</ele><time>2026-04-11T12:52:42.914Z</time></trkpt><trkpt lat="45.3683467" lon="9.6740317"><ele>74.19999999999999</ele><time>2026-04-11T12:52:43.914Z</time></trkpt><trkpt lat="45.3683817" lon="9.67393"><ele>73.6</ele><time>2026-04-11T12:52:44.914Z</time></trkpt><trkpt lat="45.368435" lon="9.6738133"><ele>73.0</ele><time>2026-04-11T12:52:45.914Z</time></trkpt><trkpt lat="45.3685033" lon="9.673695"><ele>73.25</ele><time>2026-04-11T12:52:46.914Z</time></trkpt><trkpt lat="45.3685717" lon="9.6735817"><ele>73.5</ele><time>2026-04-11T12:52:47.914Z</time></trkpt><trkpt lat="45.3686617" lon="9.67347"><ele>73.75</ele><time>2026-04-11T12:52:48.913Z</time></trkpt><trkpt lat="45.3687633" lon="9.6733767"><ele>74.0</ele><time>2026-04-11T12:52:49.914Z</time></trkpt><trkpt lat="45.3688483" lon="9.6732717"><ele>73.8</ele><time>2026-04-11T12:52:50.914Z</time></trkpt><trkpt lat="45.3689067" lon="9.6731467"><ele>73.60000000000001</ele><time>2026-04-11T12:52:51.914Z</time></trkpt><trkpt lat="45.3689383" lon="9.6730083"><ele>73.4</ele><time>2026-04-11T12:52:52.914Z</time></trkpt><trkpt lat="45.368965" lon="9.6728517"><ele>73.2</ele><time>2026-04-11T12:52:53.914Z</time></trkpt><trkpt lat="45.3689967" lon="9.672685"><ele>73.0</ele><time>2026-04-11T12:52:54.914Z</time></trkpt><trkpt lat="45.36904" lon="9.672525"><ele>73.0</ele><time>2026-04-11T12:52:55.914Z</time></trkpt><trkpt lat="45.3691083" lon="9.6723817"><ele>73.0</ele><time>2026-04-11T12:52:56.914Z</time></trkpt><trkpt lat="45.36918" lon="9.672235"><ele>73.0</ele><time>2026-04-11T12:52:57.914Z</time></trkpt><trkpt lat="45.3692617" lon="9.6720733"><ele>73.0</ele><time>2026-04-11T12:52:58.914Z</time></trkpt><trkpt lat="45.36935" lon="9.6719133"><ele>73.0</ele><time>2026-04-11T12:52:59.914Z</time></trkpt><trkpt lat="45.3694333" lon="9.6717533"><ele>73.0</ele><time>2026-04-11T12:53:00.914Z</time></trkpt><trkpt lat="45.3695183" lon="9.67159"><ele>73.0</ele><time>2026-04-11T12:53:01.914Z</time></trkpt><trkpt lat="45.3696067" lon="9.67142"><ele>73.0</ele><time>2026-04-11T12:53:02.914Z</time></trkpt><trkpt lat="45.3696983" lon="9.67125"><ele>73.33333333333333</ele><time>2026-04-11T12:53:03.914Z</time></trkpt><trkpt lat="45.3697933" lon="9.6710783"><ele>73.66666666666667</ele><time>2026-04-11T12:53:04.913Z</time></trkpt><trkpt lat="45.3698867" lon="9.6708967"><ele>74.0</ele><time>2026-04-11T12:53:05.914Z</time></trkpt><trkpt lat="45.3699783" lon="9.67071"><ele>74.0</ele><time>2026-04-11T12:53:06.914Z</time></trkpt><trkpt lat="45.37007" lon="9.6705317"><ele>74.0</ele><time>2026-04-11T12:53:07.914Z</time></trkpt><trkpt lat="45.370165" lon="9.670355"><ele>74.0</ele><time>2026-04-11T12:53:08.914Z</time></trkpt><trkpt lat="45.3702567" lon="9.670185"><ele>74.33333333333334</ele><time>2026-04-11T12:53:09.914Z</time></trkpt><trkpt lat="45.370345" lon="9.6700117"><ele>74.66666666666667</ele><time>2026-04-11T12:53:10.914Z</time></trkpt><trkpt lat="45.3704333" lon="9.6698367"><ele>75.0</ele><time>2026-04-11T12:53:11.914Z</time></trkpt><trkpt lat="45.370525" lon="9.6696617"><ele>75.0</ele><time>2026-04-11T12:53:12.914Z</time></trkpt><trkpt lat="45.3706167" lon="9.6694783"><ele>75.0</ele><time>2026-04-11T12:53:13.914Z</time></trkpt><trkpt lat="45.370705" lon="9.6693"><ele>75.0</ele><time>2026-04-11T12:53:14.914Z</time></trkpt><trkpt lat="45.3707967" lon="9.6691217"><ele>75.0</ele><time>2026-04-11T12:53:15.914Z</time></trkpt><trkpt lat="45.3708917" lon="9.668945"><ele>75.0</ele><time>2026-04-11T12:53:16.914Z</time></trkpt><trkpt lat="45.37099" lon="9.6687617"><ele>75.0</ele><time>2026-04-11T12:53:17.914Z</time></trkpt><trkpt lat="45.3710867" lon="9.66858"><ele>75.0</ele><time>2026-04-11T12:53:18.914Z</time></trkpt><trkpt lat="45.37118" lon="9.6684017"><ele>75.0</ele><time>2026-04-11T12:53:19.914Z</time></trkpt><trkpt lat="45.3712783" lon="9.668225"><ele>75.0</ele><time>2026-04-11T12:53:20.914Z</time></trkpt><trkpt lat="45.3713767" lon="9.66805"><ele>74.66666666666667</ele><time>2026-04-11T12:53:21.914Z</time></trkpt><trkpt lat="45.371485" lon="9.667865"><ele>74.33333333333334</ele><time>2026-04-11T12:53:22.914Z</time></trkpt><trkpt lat="45.3716017" lon="9.6676833"><ele>74.0</ele><time>2026-04-11T12:53:23.914Z</time></trkpt><trkpt lat="45.3717283" lon="9.6675117"><ele>74.0</ele><time>2026-04-11T12:53:24.913Z</time></trkpt><trkpt lat="45.3718567" lon="9.66733"><ele>74.0</ele><time>2026-04-11T12:53:25.914Z</time></trkpt><trkpt lat="45.3719867" lon="9.6671667"><ele>74.0</ele><time>2026-04-11T12:53:26.914Z</time></trkpt><trkpt lat="45.3721167" lon="9.6670083"><ele>73.66666666666667</ele><time>2026-04-11T12:53:27.914Z</time></trkpt><trkpt lat="45.3722433" lon="9.6668617"><ele>73.33333333333333</ele><time>2026-04-11T12:53:28.914Z</time></trkpt><trkpt lat="45.372365" lon="9.6667183"><ele>73.0</ele><time>2026-04-11T12:53:29.914Z</time></trkpt><trkpt lat="45.37249" lon="9.666575"><ele>73.0</ele><time>2026-04-11T12:53:30.914Z</time></trkpt><trkpt lat="45.372605" lon="9.6664433"><ele>73.0</ele><time>2026-04-11T12:53:31.914Z</time></trkpt><trkpt lat="45.3727117" lon="9.6663133"><ele>73.0</ele><time>2026-04-11T12:53:32.914Z</time></trkpt><trkpt lat="45.3728233" lon="9.66619"><ele>73.0</ele><time>2026-04-11T12:53:33.914Z</time></trkpt><trkpt lat="45.372935" lon="9.666055"><ele>73.33333333333333</ele><time>2026-04-11T12:53:34.914Z</time></trkpt><trkpt lat="45.3730483" lon="9.6659333"><ele>73.66666666666667</ele><time>2026-04-11T12:53:35.914Z</time></trkpt><trkpt lat="45.3731667" lon="9.6657933"><ele>74.0</ele><time>2026-04-11T12:53:36.914Z</time></trkpt><trkpt lat="45.3732983" lon="9.665645"><ele>74.0</ele><time>2026-04-11T12:53:37.914Z</time></trkpt><trkpt lat="45.3734333" lon="9.6654933"><ele>74.0</ele><time>2026-04-11T12:53:38.914Z</time></trkpt><trkpt lat="45.3735683" lon="9.6653367"><ele>74.0</ele><time>2026-04-11T12:53:39.914Z</time></trkpt><trkpt lat="45.3736983" lon="9.6651833"><ele>73.66666666666667</ele><time>2026-04-11T12:53:40.914Z</time></trkpt><trkpt lat="45.3738233" lon="9.6650317"><ele>73.33333333333333</ele><time>2026-04-11T12:53:41.914Z</time></trkpt><trkpt lat="45.3739417" lon="9.6648917"><ele>73.0</ele><time>2026-04-11T12:53:42.913Z</time></trkpt><trkpt lat="45.3740533" lon="9.6647617"><ele>73.5</ele><time>2026-04-11T12:53:43.914Z</time></trkpt><trkpt lat="45.3741617" lon="9.6646383"><ele>74.0</ele><time>2026-04-11T12:53:44.914Z</time></trkpt><trkpt lat="45.3742567" lon="9.66453"><ele>74.5</ele><time>2026-04-11T12:53:45.914Z</time></trkpt><trkpt lat="45.3743467" lon="9.6644283"><ele>75.0</ele><time>2026-04-11T12:53:46.914Z</time></trkpt><trkpt lat="45.3744283" lon="9.66434"><ele>75.0</ele><time>2026-04-11T12:53:47.914Z</time></trkpt><trkpt lat="45.3745067" lon="9.6642467"><ele>75.0</ele><time>2026-04-11T12:53:48.913Z</time></trkpt><trkpt lat="45.37459" lon="9.664145"><ele>75.0</ele><time>2026-04-11T12:53:49.913Z</time></trkpt><trkpt lat="45.3746817" lon="9.66404"><ele>75.0</ele><time>2026-04-11T12:53:50.914Z</time></trkpt><trkpt lat="45.3747817" lon="9.6639317"><ele>75.25</ele><time>2026-04-11T12:53:51.913Z</time></trkpt><trkpt lat="45.3748783" lon="9.6638233"><ele>75.5</ele><time>2026-04-11T12:53:52.914Z</time></trkpt><trkpt lat="45.3749717" lon="9.663725"><ele>75.75</ele><time>2026-04-11T12:53:53.914Z</time></trkpt><trkpt lat="45.3750583" lon="9.6636283"><ele>76.0</ele><time>2026-04-11T12:53:54.913Z</time></trkpt><trkpt lat="45.375145" lon="9.6635383"><ele>76.0</ele><time>2026-04-11T12:53:55.914Z</time></trkpt><trkpt lat="45.3752283" lon="9.66344"><ele>76.0</ele><time>2026-04-11T12:53:56.914Z</time></trkpt><trkpt lat="45.37532" lon="9.663335"><ele>76.0</ele><time>2026-04-11T12:53:57.914Z</time></trkpt><trkpt lat="45.3754133" lon="9.6632283"><ele>76.0</ele><time>2026-04-11T12:53:58.914Z</time></trkpt><trkpt lat="45.37551" lon="9.6631167"><ele>76.25</ele><time>2026-04-11T12:53:59.914Z</time></trkpt><trkpt lat="45.37561" lon="9.6630017"><ele>76.5</ele><time>2026-04-11T12:54:00.914Z</time></trkpt><trkpt lat="45.375715" lon="9.6628817"><ele>76.75</ele><time>2026-04-11T12:54:01.914Z</time></trkpt><trkpt lat="45.3758033" lon="9.66277"><ele>77.0</ele><time>2026-04-11T12:54:02.914Z</time></trkpt><trkpt lat="45.3758967" lon="9.662665"><ele>76.0</ele><time>2026-04-11T12:54:03.914Z</time></trkpt><trkpt lat="45.376" lon="9.66255"><ele>75.0</ele><time>2026-04-11T12:54:04.914Z</time></trkpt><trkpt lat="45.3761117" lon="9.6624083"><ele>74.0</ele><time>2026-04-11T12:54:05.914Z</time></trkpt><trkpt lat="45.3762367" lon="9.6622417"><ele>74.0</ele><time>2026-04-11T12:54:06.914Z</time></trkpt><trkpt lat="45.3763883" lon="9.66206"><ele>74.0</ele><time>2026-04-11T12:54:07.914Z</time></trkpt><trkpt lat="45.376555" lon="9.66187"><ele>74.0</ele><time>2026-04-11T12:54:08.914Z</time></trkpt><trkpt lat="45.37673" lon="9.661675"><ele>74.5</ele><time>2026-04-11T12:54:09.914Z</time></trkpt><trkpt lat="45.3769133" lon="9.661475"><ele>75.0</ele><time>2026-04-11T12:54:10.913Z</time></trkpt><trkpt lat="45.3770983" lon="9.6612783"><ele>74.5</ele><time>2026-04-11T12:54:11.914Z</time></trkpt><trkpt lat="45.3772933" lon="9.6610817"><ele>74.0</ele><time>2026-04-11T12:54:12.914Z</time></trkpt><trkpt lat="45.3774867" lon="9.66087"><ele>74.0</ele><time>2026-04-11T12:54:13.914Z</time></trkpt><trkpt lat="45.3776867" lon="9.66065"><ele>74.0</ele><time>2026-04-11T12:54:14.914Z</time></trkpt><trkpt lat="45.3778767" lon="9.6604317"><ele>73.5</ele><time>2026-04-11T12:54:15.914Z</time></trkpt><trkpt lat="45.37807" lon="9.6602033"><ele>73.0</ele><time>2026-04-11T12:54:16.914Z</time></trkpt><trkpt lat="45.37826" lon="9.6599633"><ele>73.0</ele><time>2026-04-11T12:54:17.914Z</time></trkpt><trkpt lat="45.378445" lon="9.6597117"><ele>73.0</ele><time>2026-04-11T12:54:18.914Z</time></trkpt><trkpt lat="45.3786233" lon="9.6594483"><ele>74.0</ele><time>2026-04-11T12:54:19.914Z</time></trkpt><trkpt lat="45.3787933" lon="9.65917"><ele>75.0</ele><time>2026-04-11T12:54:20.914Z</time></trkpt><trkpt lat="45.3789583" lon="9.65888"><ele>76.0</ele><time>2026-04-11T12:54:21.913Z</time></trkpt><trkpt lat="45.3791117" lon="9.65857"><ele>77.0</ele><time>2026-04-11T12:54:22.914Z</time></trkpt><trkpt lat="45.3792567" lon="9.6582467"><ele>77.0</ele><time>2026-04-11T12:54:23.914Z</time></trkpt><trkpt lat="45.3793917" lon="9.6579217"><ele>77.0</ele><time>2026-04-11T12:54:24.914Z</time></trkpt><trkpt lat="45.3795267" lon="9.6575883"><ele>77.0</ele><time>2026-04-11T12:54:25.914Z</time></trkpt><trkpt lat="45.37966" lon="9.657245"><ele>77.0</ele><time>2026-04-11T12:54:26.914Z</time></trkpt><trkpt lat="45.3797833" lon="9.65691"><ele>77.0</ele><time>2026-04-11T12:54:27.914Z</time></trkpt><trkpt lat="45.3799033" lon="9.6565683"><ele>77.0</ele><time>2026-04-11T12:54:28.914Z</time></trkpt><trkpt lat="45.380035" lon="9.6562217"><ele>77.0</ele><time>2026-04-11T12:54:29.913Z</time></trkpt><trkpt lat="45.38017" lon="9.6558767"><ele>77.0</ele><time>2026-04-11T12:54:30.913Z</time></trkpt><trkpt lat="45.380305" lon="9.655525"><ele>77.0</ele><time>2026-04-11T12:54:31.913Z</time></trkpt><trkpt lat="45.3804417" lon="9.6551717"><ele>77.0</ele><time>2026-04-11T12:54:32.913Z</time></trkpt><trkpt lat="45.3805717" lon="9.654825"><ele>77.0</ele><time>2026-04-11T12:54:33.913Z</time></trkpt><trkpt lat="45.3806983" lon="9.6544733"><ele>77.0</ele><time>2026-04-11T12:54:34.913Z</time></trkpt><trkpt lat="45.3808267" lon="9.654135"><ele>76.5</ele><time>2026-04-11T12:54:35.913Z</time></trkpt><trkpt lat="45.380945" lon="9.6538083"><ele>76.0</ele><time>2026-04-11T12:54:36.913Z</time></trkpt><trkpt lat="45.3810517" lon="9.6535017"><ele>75.5</ele><time>2026-04-11T12:54:37.913Z</time></trkpt><trkpt lat="45.38116" lon="9.6532133"><ele>75.0</ele><time>2026-04-11T12:54:38.912Z</time></trkpt><trkpt lat="45.38126" lon="9.6529317"><ele>75.66666666666667</ele><time>2026-04-11T12:54:39.913Z</time></trkpt><trkpt lat="45.3813617" lon="9.65267"><ele>76.33333333333334</ele><time>2026-04-11T12:54:40.913Z</time></trkpt><trkpt lat="45.381465" lon="9.6524083"><ele>77.0</ele><time>2026-04-11T12:54:41.913Z</time></trkpt><trkpt lat="45.3815767" lon="9.6521517"><ele>77.33333333333334</ele><time>2026-04-11T12:54:42.913Z</time></trkpt><trkpt lat="45.3816967" lon="9.6518967"><ele>77.66666666666667</ele><time>2026-04-11T12:54:43.913Z</time></trkpt><trkpt lat="45.3818367" lon="9.6516467"><ele>78.0</ele><time>2026-04-11T12:54:44.913Z</time></trkpt><trkpt lat="45.3819867" lon="9.651405"><ele>78.0</ele><time>2026-04-11T12:54:45.913Z</time></trkpt><trkpt lat="45.38214" lon="9.6511883"><ele>78.0</ele><time>2026-04-11T12:54:46.913Z</time></trkpt><trkpt lat="45.3823" lon="9.6509917"><ele>78.0</ele><time>2026-04-11T12:54:47.913Z</time></trkpt><trkpt lat="45.3824733" lon="9.6507967"><ele>76.66666666666667</ele><time>2026-04-11T12:54:48.913Z</time></trkpt><trkpt lat="45.3826533" lon="9.6506067"><ele>75.33333333333334</ele><time>2026-04-11T12:54:49.913Z</time></trkpt><trkpt lat="45.3828383" lon="9.6504233"><ele>74.0</ele><time>2026-04-11T12:54:50.913Z</time></trkpt><trkpt lat="45.3830133" lon="9.650245"><ele>74.66666666666667</ele><time>2026-04-11T12:54:51.913Z</time></trkpt><trkpt lat="45.3831783" lon="9.65008"><ele>75.33333333333333</ele><time>2026-04-11T12:54:52.912Z</time></trkpt><trkpt lat="45.3833467" lon="9.64992"><ele>76.0</ele><time>2026-04-11T12:54:53.913Z</time></trkpt><trkpt lat="45.38352" lon="9.649755"><ele>76.0</ele><time>2026-04-11T12:54:54.913Z</time></trkpt><trkpt lat="45.3836917" lon="9.6495933"><ele>76.0</ele><time>2026-04-11T12:54:55.913Z</time></trkpt><trkpt lat="45.3838567" lon="9.6494233"><ele>76.0</ele><time>2026-04-11T12:54:56.913Z</time></trkpt><trkpt lat="45.38402" lon="9.649255"><ele>76.0</ele><time>2026-04-11T12:54:57.913Z</time></trkpt><trkpt lat="45.384185" lon="9.6490917"><ele>76.0</ele><time>2026-04-11T12:54:58.913Z</time></trkpt><trkpt lat="45.3843433" lon="9.648925"><ele>76.0</ele><time>2026-04-11T12:54:59.913Z</time></trkpt><trkpt lat="45.38451" lon="9.6487617"><ele>75.66666666666666</ele><time>2026-04-11T12:55:00.912Z</time></trkpt><trkpt lat="45.384675" lon="9.648595"><ele>75.33333333333333</ele><time>2026-04-11T12:55:01.912Z</time></trkpt><trkpt lat="45.38485" lon="9.64843"><ele>75.0</ele><time>2026-04-11T12:55:02.913Z</time></trkpt><trkpt lat="45.3850233" lon="9.6482617"><ele>75.66666666666667</ele><time>2026-04-11T12:55:03.913Z</time></trkpt><trkpt lat="45.3852033" lon="9.64809"><ele>76.33333333333334</ele><time>2026-04-11T12:55:04.913Z</time></trkpt><trkpt lat="45.3853667" lon="9.64793"><ele>77.0</ele><time>2026-04-11T12:55:05.913Z</time></trkpt><trkpt lat="45.3855367" lon="9.64776"><ele>77.0</ele><time>2026-04-11T12:55:06.913Z</time></trkpt><trkpt lat="45.38571" lon="9.6475883"><ele>77.0</ele><time>2026-04-11T12:55:07.913Z</time></trkpt><trkpt lat="45.3858883" lon="9.64742"><ele>77.0</ele><time>2026-04-11T12:55:08.913Z</time></trkpt><trkpt lat="45.38607" lon="9.6472467"><ele>77.0</ele><time>2026-04-11T12:55:09.912Z</time></trkpt><trkpt lat="45.3862533" lon="9.6470733"><ele>77.0</ele><time>2026-04-11T12:55:10.913Z</time></trkpt><trkpt lat="45.3864333" lon="9.646895"><ele>77.0</ele><time>2026-04-11T12:55:11.913Z</time></trkpt><trkpt lat="45.386615" lon="9.6467083"><ele>76.66666666666667</ele><time>2026-04-11T12:55:12.913Z</time></trkpt><trkpt lat="45.386795" lon="9.64653"><ele>76.33333333333333</ele><time>2026-04-11T12:55:13.913Z</time></trkpt><trkpt lat="45.3869783" lon="9.6463533"><ele>76.0</ele><time>2026-04-11T12:55:14.913Z</time></trkpt><trkpt lat="45.3871583" lon="9.646175"><ele>77.33333333333333</ele><time>2026-04-11T12:55:15.913Z</time></trkpt><trkpt lat="45.3873333" lon="9.6460017"><ele>78.66666666666667</ele><time>2026-04-11T12:55:16.912Z</time></trkpt><trkpt lat="45.387505" lon="9.6458217"><ele>80.0</ele><time>2026-04-11T12:55:17.913Z</time></trkpt><trkpt lat="45.3876783" lon="9.6456433"><ele>80.0</ele><time>2026-04-11T12:55:18.913Z</time></trkpt><trkpt lat="45.3878467" lon="9.6454683"><ele>80.0</ele><time>2026-04-11T12:55:19.913Z</time></trkpt><trkpt lat="45.3880233" lon="9.6452917"><ele>80.0</ele><time>2026-04-11T12:55:20.913Z</time></trkpt><trkpt lat="45.388195" lon="9.6451233"><ele>79.33333333333334</ele><time>2026-04-11T12:55:21.913Z</time></trkpt><trkpt lat="45.3883617" lon="9.6449483"><ele>78.66666666666667</ele><time>2026-04-11T12:55:22.913Z</time></trkpt><trkpt lat="45.3885233" lon="9.6447867"><ele>78.0</ele><time>2026-04-11T12:55:23.913Z</time></trkpt><trkpt lat="45.3886867" lon="9.6446233"><ele>77.66666666666667</ele><time>2026-04-11T12:55:24.913Z</time></trkpt><trkpt lat="45.3888433" lon="9.6444617"><ele>77.33333333333334</ele><time>2026-04-11T12:55:25.913Z</time></trkpt><trkpt lat="45.3890033" lon="9.6443033"><ele>77.0</ele><time>2026-04-11T12:55:26.912Z</time></trkpt><trkpt lat="45.38916" lon="9.6441517"><ele>77.0</ele><time>2026-04-11T12:55:27.913Z</time></trkpt><trkpt lat="45.3893183" lon="9.6440017"><ele>77.0</ele><time>2026-04-11T12:55:28.913Z</time></trkpt><trkpt lat="45.389475" lon="9.6438483"><ele>77.0</ele><time>2026-04-11T12:55:29.913Z</time></trkpt><trkpt lat="45.3896233" lon="9.6436983"><ele>78.0</ele><time>2026-04-11T12:55:30.913Z</time></trkpt><trkpt lat="45.3897783" lon="9.6435517"><ele>79.0</ele><time>2026-04-11T12:55:31.913Z</time></trkpt><trkpt lat="45.3899283" lon="9.6434017"><ele>80.0</ele><time>2026-04-11T12:55:32.913Z</time></trkpt><trkpt lat="45.3900717" lon="9.64326"><ele>80.0</ele><time>2026-04-11T12:55:33.913Z</time></trkpt><trkpt lat="45.3902183" lon="9.6431217"><ele>80.0</ele><time>2026-04-11T12:55:34.912Z</time></trkpt><trkpt lat="45.3903533" lon="9.6429967"><ele>80.0</ele><time>2026-04-11T12:55:35.913Z</time></trkpt><trkpt lat="45.3904817" lon="9.64288"><ele>80.0</ele><time>2026-04-11T12:55:36.913Z</time></trkpt><trkpt lat="45.39061" lon="9.6427733"><ele>80.0</ele><time>2026-04-11T12:55:37.913Z</time></trkpt><trkpt lat="45.3907367" lon="9.6426633"><ele>80.0</ele><time>2026-04-11T12:55:38.913Z</time></trkpt><trkpt lat="45.3908683" lon="9.64255"><ele>80.0</ele><time>2026-04-11T12:55:39.913Z</time></trkpt><trkpt lat="45.391" lon="9.64243"><ele>80.0</ele><time>2026-04-11T12:55:40.913Z</time></trkpt><trkpt lat="45.3911367" lon="9.642305"><ele>80.0</ele><time>2026-04-11T12:55:41.913Z</time></trkpt><trkpt lat="45.39127" lon="9.6421883"><ele>80.0</ele><time>2026-04-11T12:55:42.913Z</time></trkpt><trkpt lat="45.3913967" lon="9.64207"><ele>80.0</ele><time>2026-04-11T12:55:43.913Z</time></trkpt><trkpt lat="45.3915217" lon="9.6419633"><ele>80.0</ele><time>2026-04-11T12:55:44.913Z</time></trkpt><trkpt lat="45.3916333" lon="9.6418583"><ele>80.0</ele><time>2026-04-11T12:55:45.913Z</time></trkpt><trkpt lat="45.391725" lon="9.641775"><ele>80.2</ele><time>2026-04-11T12:55:46.913Z</time></trkpt><trkpt lat="45.3918133" lon="9.6417017"><ele>80.4</ele><time>2026-04-11T12:55:47.913Z</time></trkpt><trkpt lat="45.3918983" lon="9.6416333"><ele>80.6</ele><time>2026-04-11T12:55:48.912Z</time></trkpt><trkpt lat="45.3919817" lon="9.64157"><ele>80.8</ele><time>2026-04-11T12:55:49.913Z</time></trkpt><trkpt lat="45.39207" lon="9.64149"><ele>81.0</ele><time>2026-04-11T12:55:50.913Z</time></trkpt><trkpt lat="45.3921667" lon="9.641405"><ele>80.75</ele><time>2026-04-11T12:55:51.913Z</time></trkpt><trkpt lat="45.39227" lon="9.6413183"><ele>80.5</ele><time>2026-04-11T12:55:52.912Z</time></trkpt><trkpt lat="45.3923717" lon="9.64123"><ele>80.25</ele><time>2026-04-11T12:55:53.913Z</time></trkpt><trkpt lat="45.39247" lon="9.6411483"><ele>80.0</ele><time>2026-04-11T12:55:54.913Z</time></trkpt><trkpt lat="45.39257" lon="9.6410683"><ele>80.0</ele><time>2026-04-11T12:55:55.913Z</time></trkpt><trkpt lat="45.3926617" lon="9.640985"><ele>80.0</ele><time>2026-04-11T12:55:56.912Z</time></trkpt><trkpt lat="45.3927483" lon="9.64091"><ele>80.0</ele><time>2026-04-11T12:55:57.913Z</time></trkpt><trkpt lat="45.3928383" lon="9.6408317"><ele>80.0</ele><time>2026-04-11T12:55:58.912Z</time></trkpt><trkpt lat="45.392935" lon="9.6407533"><ele>80.0</ele><time>2026-04-11T12:55:59.913Z</time></trkpt><trkpt lat="45.3930317" lon="9.6406667"><ele>80.0</ele><time>2026-04-11T12:56:00.912Z</time></trkpt><trkpt lat="45.3931367" lon="9.6405783"><ele>80.0</ele><time>2026-04-11T12:56:01.913Z</time></trkpt><trkpt lat="45.393245" lon="9.6404783"><ele>80.0</ele><time>2026-04-11T12:56:02.913Z</time></trkpt><trkpt lat="45.3933633" lon="9.6403817"><ele>80.0</ele><time>2026-04-11T12:56:03.913Z</time></trkpt><trkpt lat="45.3934767" lon="9.64029"><ele>80.5</ele><time>2026-04-11T12:56:04.913Z</time></trkpt><trkpt lat="45.3935983" lon="9.6401983"><ele>81.0</ele><time>2026-04-11T12:56:05.913Z</time></trkpt><trkpt lat="45.3937167" lon="9.6401033"><ele>81.5</ele><time>2026-04-11T12:56:06.912Z</time></trkpt><trkpt lat="45.3938317" lon="9.64001"><ele>82.0</ele><time>2026-04-11T12:56:07.913Z</time></trkpt><trkpt lat="45.3939367" lon="9.6399167"><ele>82.25</ele><time>2026-04-11T12:56:08.912Z</time></trkpt><trkpt lat="45.394045" lon="9.6398167"><ele>82.5</ele><time>2026-04-11T12:56:09.913Z</time></trkpt><trkpt lat="45.39415" lon="9.639725"><ele>82.75</ele><time>2026-04-11T12:56:10.913Z</time></trkpt><trkpt lat="45.3942583" lon="9.639635"><ele>83.0</ele><time>2026-04-11T12:56:11.912Z</time></trkpt><trkpt lat="45.3943767" lon="9.63954"><ele>83.0</ele><time>2026-04-11T12:56:12.912Z</time></trkpt><trkpt lat="45.3945017" lon="9.6394467"><ele>83.0</ele><time>2026-04-11T12:56:13.913Z</time></trkpt><trkpt lat="45.3946283" lon="9.63934"><ele>83.0</ele><time>2026-04-11T12:56:14.913Z</time></trkpt><trkpt lat="45.3947467" lon="9.6392417"><ele>83.0</ele><time>2026-04-11T12:56:15.913Z</time></trkpt><trkpt lat="45.3948667" lon="9.6391517"><ele>82.80000000000001</ele><time>2026-04-11T12:56:16.912Z</time></trkpt><trkpt lat="45.3949783" lon="9.6390617"><ele>82.6</ele><time>2026-04-11T12:56:17.913Z</time></trkpt><trkpt lat="45.3950717" lon="9.6389817"><ele>82.4</ele><time>2026-04-11T12:56:18.913Z</time></trkpt><trkpt lat="45.3951683" lon="9.6389"><ele>82.19999999999999</ele><time>2026-04-11T12:56:19.913Z</time></trkpt><trkpt lat="45.395255" lon="9.63883"><ele>82.0</ele><time>2026-04-11T12:56:20.913Z</time></trkpt><trkpt lat="45.3953283" lon="9.6387583"><ele>82.0</ele><time>2026-04-11T12:56:21.913Z</time></trkpt><trkpt lat="45.3953967" lon="9.6386917"><ele>82.0</ele><time>2026-04-11T12:56:22.913Z</time></trkpt><trkpt lat="45.3954583" lon="9.638625"><ele>82.0</ele><time>2026-04-11T12:56:23.913Z</time></trkpt><trkpt lat="45.3955183" lon="9.6385683"><ele>82.0</ele><time>2026-04-11T12:56:24.913Z</time></trkpt><trkpt lat="45.39555" lon="9.6384783"><ele>82.0</ele><time>2026-04-11T12:56:27.913Z</time></trkpt><trkpt lat="45.3956133" lon="9.6383667"><ele>82.0</ele><time>2026-04-11T12:56:31.913Z</time></trkpt><trkpt lat="45.3956683" lon="9.6382933"><ele>81.75</ele><time>2026-04-11T12:56:32.912Z</time></trkpt><trkpt lat="45.3957367" lon="9.6382067"><ele>81.5</ele><time>2026-04-11T12:56:33.913Z</time></trkpt><trkpt lat="45.3958283" lon="9.6380867"><ele>81.25</ele><time>2026-04-11T12:56:34.913Z</time></trkpt><trkpt lat="45.3959283" lon="9.637965"><ele>81.0</ele><time>2026-04-11T12:56:35.912Z</time></trkpt><trkpt lat="45.3960267" lon="9.6378417"><ele>81.25</ele><time>2026-04-11T12:56:36.913Z</time></trkpt><trkpt lat="45.3961367" lon="9.63772"><ele>81.5</ele><time>2026-04-11T12:56:37.912Z</time></trkpt><trkpt lat="45.39625" lon="9.63761"><ele>81.75</ele><time>2026-04-11T12:56:38.913Z</time></trkpt><trkpt lat="45.396345" lon="9.6375067"><ele>82.0</ele><time>2026-04-11T12:56:39.912Z</time></trkpt><trkpt lat="45.3964417" lon="9.6373833"><ele>82.0</ele><time>2026-04-11T12:56:40.913Z</time></trkpt><trkpt lat="45.39654" lon="9.6372567"><ele>82.0</ele><time>2026-04-11T12:56:41.913Z</time></trkpt><trkpt lat="45.396635" lon="9.6371133"><ele>82.0</ele><time>2026-04-11T12:56:42.913Z</time></trkpt><trkpt lat="45.396735" lon="9.6369783"><ele>82.0</ele><time>2026-04-11T12:56:43.913Z</time></trkpt><trkpt lat="45.3968533" lon="9.6368417"><ele>82.0</ele><time>2026-04-11T12:56:44.913Z</time></trkpt><trkpt lat="45.396955" lon="9.6367083"><ele>82.0</ele><time>2026-04-11T12:56:45.912Z</time></trkpt><trkpt lat="45.3970633" lon="9.6365683"><ele>82.0</ele><time>2026-04-11T12:56:46.913Z</time></trkpt><trkpt lat="45.3971633" lon="9.6364183"><ele>82.0</ele><time>2026-04-11T12:56:47.913Z</time></trkpt><trkpt lat="45.3972617" lon="9.6362533"><ele>81.66666666666666</ele><time>2026-04-11T12:56:48.913Z</time></trkpt><trkpt lat="45.3973583" lon="9.6360917"><ele>81.33333333333333</ele><time>2026-04-11T12:56:49.913Z</time></trkpt><trkpt lat="45.3974617" lon="9.6359167"><ele>81.0</ele><time>2026-04-11T12:56:50.913Z</time></trkpt><trkpt lat="45.3975717" lon="9.6357433"><ele>81.0</ele><time>2026-04-11T12:56:51.913Z</time></trkpt><trkpt lat="45.3976783" lon="9.6355667"><ele>81.0</ele><time>2026-04-11T12:56:52.913Z</time></trkpt><trkpt lat="45.397785" lon="9.6353933"><ele>81.0</ele><time>2026-04-11T12:56:53.913Z</time></trkpt><trkpt lat="45.3978917" lon="9.635215"><ele>81.33333333333333</ele><time>2026-04-11T12:56:54.912Z</time></trkpt><trkpt lat="45.3980033" lon="9.6350233"><ele>81.66666666666666</ele><time>2026-04-11T12:56:55.913Z</time></trkpt><trkpt lat="45.3981167" lon="9.634835"><ele>82.0</ele><time>2026-04-11T12:56:56.913Z</time></trkpt><trkpt lat="45.39823" lon="9.6346483"><ele>82.0</ele><time>2026-04-11T12:56:57.913Z</time></trkpt><trkpt lat="45.39835" lon="9.6344583"><ele>82.0</ele><time>2026-04-11T12:56:58.912Z</time></trkpt><trkpt lat="45.398465" lon="9.63427"><ele>82.0</ele><time>2026-04-11T12:56:59.913Z</time></trkpt><trkpt lat="45.3985867" lon="9.6340783"><ele>82.0</ele><time>2026-04-11T12:57:00.912Z</time></trkpt><trkpt lat="45.398705" lon="9.6338817"><ele>82.0</ele><time>2026-04-11T12:57:01.913Z</time></trkpt><trkpt lat="45.3988217" lon="9.6336917"><ele>82.0</ele><time>2026-04-11T12:57:02.913Z</time></trkpt><trkpt lat="45.3989383" lon="9.6335017"><ele>82.0</ele><time>2026-04-11T12:57:03.913Z</time></trkpt><trkpt lat="45.3990617" lon="9.6333117"><ele>82.0</ele><time>2026-04-11T12:57:04.913Z</time></trkpt><trkpt lat="45.3991883" lon="9.6330983"><ele>82.0</ele><time>2026-04-11T12:57:05.913Z</time></trkpt><trkpt lat="45.39932" lon="9.6328867"><ele>82.33333333333333</ele><time>2026-04-11T12:57:06.913Z</time></trkpt><trkpt lat="45.3994483" lon="9.6326733"><ele>82.66666666666667</ele><time>2026-04-11T12:57:07.913Z</time></trkpt><trkpt lat="45.3995717" lon="9.63247"><ele>83.0</ele><time>2026-04-11T12:57:08.913Z</time></trkpt><trkpt lat="45.3996933" lon="9.6322683"><ele>83.0</ele><time>2026-04-11T12:57:09.913Z</time></trkpt><trkpt lat="45.3998133" lon="9.6320717"><ele>83.0</ele><time>2026-04-11T12:57:10.913Z</time></trkpt><trkpt lat="45.3999367" lon="9.6318817"><ele>83.0</ele><time>2026-04-11T12:57:11.913Z</time></trkpt><trkpt lat="45.4000617" lon="9.6316883"><ele>83.0</ele><time>2026-04-11T12:57:12.913Z</time></trkpt><trkpt lat="45.40018" lon="9.6314917"><ele>83.0</ele><time>2026-04-11T12:57:13.913Z</time></trkpt><trkpt lat="45.4002883" lon="9.6313133"><ele>83.0</ele><time>2026-04-11T12:57:14.912Z</time></trkpt><trkpt lat="45.4003867" lon="9.6311383"><ele>83.0</ele><time>2026-04-11T12:57:15.913Z</time></trkpt><trkpt lat="45.4004717" lon="9.6310017"><ele>83.0</ele><time>2026-04-11T12:57:16.913Z</time></trkpt><trkpt lat="45.40055" lon="9.6308867"><ele>83.0</ele><time>2026-04-11T12:57:17.913Z</time></trkpt><trkpt lat="45.4006217" lon="9.6307567"><ele>83.0</ele><time>2026-04-11T12:57:18.913Z</time></trkpt><trkpt lat="45.40069" lon="9.6306417"><ele>83.0</ele><time>2026-04-11T12:57:19.913Z</time></trkpt><trkpt lat="45.4007617" lon="9.6305367"><ele>83.0</ele><time>2026-04-11T12:57:20.913Z</time></trkpt><trkpt lat="45.4008533" lon="9.6304383"><ele>83.0</ele><time>2026-04-11T12:57:21.913Z</time></trkpt><trkpt lat="45.4009533" lon="9.6303533"><ele>83.0</ele><time>2026-04-11T12:57:22.913Z</time></trkpt><trkpt lat="45.4010583" lon="9.6302933"><ele>83.0</ele><time>2026-04-11T12:57:23.913Z</time></trkpt><trkpt lat="45.4011467" lon="9.6302317"><ele>83.0</ele><time>2026-04-11T12:57:24.913Z</time></trkpt><trkpt lat="45.4012167" lon="9.6301633"><ele>83.0</ele><time>2026-04-11T12:57:25.913Z</time></trkpt><trkpt lat="45.4012683" lon="9.63007"><ele>83.0</ele><time>2026-04-11T12:57:26.913Z</time></trkpt><trkpt lat="45.4012967" lon="9.6299617"><ele>83.0</ele><time>2026-04-11T12:57:27.913Z</time></trkpt><trkpt lat="45.4013017" lon="9.6298433"><ele>83.0</ele><time>2026-04-11T12:57:28.912Z</time></trkpt><trkpt lat="45.401265" lon="9.6297333"><ele>83.0</ele><time>2026-04-11T12:57:29.913Z</time></trkpt><trkpt lat="45.401195" lon="9.629635"><ele>83.0</ele><time>2026-04-11T12:57:30.913Z</time></trkpt><trkpt lat="45.4011033" lon="9.62952"><ele>83.0</ele><time>2026-04-11T12:57:31.913Z</time></trkpt><trkpt lat="45.4010183" lon="9.62937"><ele>83.0</ele><time>2026-04-11T12:57:32.913Z</time></trkpt><trkpt lat="45.4009467" lon="9.629195"><ele>83.0</ele><time>2026-04-11T12:57:33.913Z</time></trkpt><trkpt lat="45.400895" lon="9.6289933"><ele>83.0</ele><time>2026-04-11T12:57:34.913Z</time></trkpt><trkpt lat="45.4008433" lon="9.6287633"><ele>83.0</ele><time>2026-04-11T12:57:35.913Z</time></trkpt><trkpt lat="45.4007817" lon="9.6285133"><ele>83.0</ele><time>2026-04-11T12:57:36.913Z</time></trkpt><trkpt lat="45.400725" lon="9.62825"><ele>83.0</ele><time>2026-04-11T12:57:37.913Z</time></trkpt><trkpt lat="45.4006567" lon="9.6279717"><ele>83.0</ele><time>2026-04-11T12:57:38.913Z</time></trkpt><trkpt lat="45.4005883" lon="9.6276817"><ele>83.0</ele><time>2026-04-11T12:57:39.913Z</time></trkpt><trkpt lat="45.4005333" lon="9.62739"><ele>83.0</ele><time>2026-04-11T12:57:40.913Z</time></trkpt><trkpt lat="45.4004667" lon="9.6271033"><ele>83.0</ele><time>2026-04-11T12:57:41.912Z</time></trkpt><trkpt lat="45.4004017" lon="9.6268083"><ele>83.0</ele><time>2026-04-11T12:57:42.912Z</time></trkpt><trkpt lat="45.4003433" lon="9.6265167"><ele>83.0</ele><time>2026-04-11T12:57:43.912Z</time></trkpt><trkpt lat="45.4002783" lon="9.6262183"><ele>83.0</ele><time>2026-04-11T12:57:44.912Z</time></trkpt><trkpt lat="45.40021" lon="9.625925"><ele>83.0</ele><time>2026-04-11T12:57:45.912Z</time></trkpt><trkpt lat="45.4001383" lon="9.62562"><ele>83.0</ele><time>2026-04-11T12:57:46.912Z</time></trkpt><trkpt lat="45.4000717" lon="9.625305"><ele>83.0</ele><time>2026-04-11T12:57:47.912Z</time></trkpt><trkpt lat="45.4000083" lon="9.625"><ele>83.0</ele><time>2026-04-11T12:57:48.912Z</time></trkpt><trkpt lat="45.39995" lon="9.6246967"><ele>83.0</ele><time>2026-04-11T12:57:49.912Z</time></trkpt><trkpt lat="45.3998883" lon="9.62439"><ele>83.0</ele><time>2026-04-11T12:57:50.912Z</time></trkpt><trkpt lat="45.3998417" lon="9.6240667"><ele>83.0</ele><time>2026-04-11T12:57:51.912Z</time></trkpt><trkpt lat="45.3998033" lon="9.6237333"><ele>83.0</ele><time>2026-04-11T12:57:52.911Z</time></trkpt><trkpt lat="45.3997667" lon="9.6233967"><ele>83.5</ele><time>2026-04-11T12:57:53.912Z</time></trkpt><trkpt lat="45.399735" lon="9.6230583"><ele>84.0</ele><time>2026-04-11T12:57:54.912Z</time></trkpt><trkpt lat="45.39972" lon="9.6227083"><ele>84.0</ele><time>2026-04-11T12:57:55.912Z</time></trkpt><trkpt lat="45.3997183" lon="9.6223583"><ele>84.0</ele><time>2026-04-11T12:57:56.912Z</time></trkpt><trkpt lat="45.399725" lon="9.6219917"><ele>84.0</ele><time>2026-04-11T12:57:57.912Z</time></trkpt><trkpt lat="45.3997283" lon="9.6216383"><ele>84.0</ele><time>2026-04-11T12:57:58.912Z</time></trkpt><trkpt lat="45.39975" lon="9.62127"><ele>85.5</ele><time>2026-04-11T12:57:59.912Z</time></trkpt><trkpt lat="45.3997683" lon="9.6208917"><ele>87.0</ele><time>2026-04-11T12:58:00.912Z</time></trkpt><trkpt lat="45.3997983" lon="9.6205117"><ele>85.0</ele><time>2026-04-11T12:58:01.912Z</time></trkpt><trkpt lat="45.3998283" lon="9.6201267"><ele>83.0</ele><time>2026-04-11T12:58:02.911Z</time></trkpt><trkpt lat="45.39986" lon="9.6197467"><ele>82.0</ele><time>2026-04-11T12:58:03.912Z</time></trkpt><trkpt lat="45.3998933" lon="9.6193633"><ele>81.0</ele><time>2026-04-11T12:58:04.911Z</time></trkpt><trkpt lat="45.3999217" lon="9.61897"><ele>81.5</ele><time>2026-04-11T12:58:05.912Z</time></trkpt><trkpt lat="45.399955" lon="9.6185767"><ele>82.0</ele><time>2026-04-11T12:58:06.912Z</time></trkpt><trkpt lat="45.3999833" lon="9.6181833"><ele>83.0</ele><time>2026-04-11T12:58:07.912Z</time></trkpt><trkpt lat="45.4000067" lon="9.6178033"><ele>84.0</ele><time>2026-04-11T12:58:08.912Z</time></trkpt><trkpt lat="45.4000333" lon="9.617415"><ele>84.0</ele><time>2026-04-11T12:58:09.912Z</time></trkpt><trkpt lat="45.4000583" lon="9.6170383"><ele>84.0</ele><time>2026-04-11T12:58:10.911Z</time></trkpt><trkpt lat="45.400085" lon="9.6166767"><ele>84.0</ele><time>2026-04-11T12:58:11.912Z</time></trkpt><trkpt lat="45.400115" lon="9.6163233"><ele>84.0</ele><time>2026-04-11T12:58:12.912Z</time></trkpt><trkpt lat="45.4001433" lon="9.6159967"><ele>83.0</ele><time>2026-04-11T12:58:13.912Z</time></trkpt><trkpt lat="45.4001717" lon="9.6156783"><ele>82.0</ele><time>2026-04-11T12:58:14.912Z</time></trkpt><trkpt lat="45.40019" lon="9.615385"><ele>81.0</ele><time>2026-04-11T12:58:15.912Z</time></trkpt><trkpt lat="45.400215" lon="9.6151033"><ele>81.0</ele><time>2026-04-11T12:58:16.912Z</time></trkpt><trkpt lat="45.4002333" lon="9.6148167"><ele>81.0</ele><time>2026-04-11T12:58:17.912Z</time></trkpt><trkpt lat="45.40026" lon="9.614535"><ele>81.0</ele><time>2026-04-11T12:58:18.912Z</time></trkpt><trkpt lat="45.4002683" lon="9.6142733"><ele>81.0</ele><time>2026-04-11T12:58:19.912Z</time></trkpt><trkpt lat="45.40029" lon="9.614035"><ele>81.0</ele><time>2026-04-11T12:58:20.912Z</time></trkpt><trkpt lat="45.4003033" lon="9.6138217"><ele>81.0</ele><time>2026-04-11T12:58:21.912Z</time></trkpt><trkpt lat="45.400315" lon="9.6136233"><ele>81.0</ele><time>2026-04-11T12:58:22.912Z</time></trkpt><trkpt lat="45.40033" lon="9.6134367"><ele>81.0</ele><time>2026-04-11T12:58:23.912Z</time></trkpt><trkpt lat="45.4003433" lon="9.61326"><ele>81.0</ele><time>2026-04-11T12:58:24.912Z</time></trkpt><trkpt lat="45.40036" lon="9.6130817"><ele>81.0</ele><time>2026-04-11T12:58:25.912Z</time></trkpt><trkpt lat="45.4003733" lon="9.6129"><ele>82.0</ele><time>2026-04-11T12:58:26.912Z</time></trkpt><trkpt lat="45.400385" lon="9.6127083"><ele>83.0</ele><time>2026-04-11T12:58:27.912Z</time></trkpt><trkpt lat="45.4004017" lon="9.6124983"><ele>84.0</ele><time>2026-04-11T12:58:28.912Z</time></trkpt><trkpt lat="45.40042" lon="9.61227"><ele>85.0</ele><time>2026-04-11T12:58:29.912Z</time></trkpt><trkpt lat="45.4004317" lon="9.6120467"><ele>84.66666666666666</ele><time>2026-04-11T12:58:30.912Z</time></trkpt><trkpt lat="45.40046" lon="9.6118133"><ele>84.33333333333333</ele><time>2026-04-11T12:58:31.912Z</time></trkpt><trkpt lat="45.4004733" lon="9.6115683"><ele>84.0</ele><time>2026-04-11T12:58:32.912Z</time></trkpt><trkpt lat="45.4004933" lon="9.611305"><ele>83.33333333333333</ele><time>2026-04-11T12:58:33.912Z</time></trkpt><trkpt lat="45.4005083" lon="9.6110233"><ele>82.66666666666666</ele><time>2026-04-11T12:58:34.912Z</time></trkpt><trkpt lat="45.400525" lon="9.610715"><ele>82.0</ele><time>2026-04-11T12:58:35.911Z</time></trkpt><trkpt lat="45.400545" lon="9.6103967"><ele>82.0</ele><time>2026-04-11T12:58:36.912Z</time></trkpt><trkpt lat="45.400565" lon="9.6100733"><ele>82.0</ele><time>2026-04-11T12:58:37.912Z</time></trkpt><trkpt lat="45.4005983" lon="9.6097417"><ele>82.5</ele><time>2026-04-11T12:58:38.912Z</time></trkpt><trkpt lat="45.400625" lon="9.6094183"><ele>83.0</ele><time>2026-04-11T12:58:39.911Z</time></trkpt><trkpt lat="45.4006517" lon="9.6090983"><ele>83.0</ele><time>2026-04-11T12:58:40.912Z</time></trkpt><trkpt lat="45.40068" lon="9.60878"><ele>83.0</ele><time>2026-04-11T12:58:41.912Z</time></trkpt><trkpt lat="45.4007" lon="9.608465"><ele>83.0</ele><time>2026-04-11T12:58:42.912Z</time></trkpt><trkpt lat="45.400725" lon="9.6081467"><ele>83.0</ele><time>2026-04-11T12:58:43.912Z</time></trkpt><trkpt lat="45.4007483" lon="9.6078267"><ele>83.0</ele><time>2026-04-11T12:58:44.912Z</time></trkpt><trkpt lat="45.40077" lon="9.60751"><ele>83.0</ele><time>2026-04-11T12:58:45.912Z</time></trkpt><trkpt lat="45.4007967" lon="9.60718"><ele>82.5</ele><time>2026-04-11T12:58:46.912Z</time></trkpt><trkpt lat="45.4008283" lon="9.6068467"><ele>82.0</ele><time>2026-04-11T12:58:47.912Z</time></trkpt><trkpt lat="45.400855" lon="9.6065167"><ele>82.0</ele><time>2026-04-11T12:58:48.912Z</time></trkpt><trkpt lat="45.4008867" lon="9.6061717"><ele>82.0</ele><time>2026-04-11T12:58:49.912Z</time></trkpt><trkpt lat="45.4009133" lon="9.605835"><ele>82.0</ele><time>2026-04-11T12:58:50.912Z</time></trkpt><trkpt lat="45.400945" lon="9.60549"><ele>82.0</ele><time>2026-04-11T12:58:51.912Z</time></trkpt><trkpt lat="45.4009683" lon="9.6051533"><ele>81.5</ele><time>2026-04-11T12:58:52.912Z</time></trkpt><trkpt lat="45.40099" lon="9.6048117"><ele>81.0</ele><time>2026-04-11T12:58:53.912Z</time></trkpt><trkpt lat="45.4010133" lon="9.6044667"><ele>80.5</ele><time>2026-04-11T12:58:54.912Z</time></trkpt><trkpt lat="45.401045" lon="9.6041167"><ele>80.0</ele><time>2026-04-11T12:58:55.912Z</time></trkpt><trkpt lat="45.40107" lon="9.60375"><ele>81.0</ele><time>2026-04-11T12:58:56.912Z</time></trkpt><trkpt lat="45.401095" lon="9.6033933"><ele>82.0</ele><time>2026-04-11T12:58:57.912Z</time></trkpt><trkpt lat="45.40112" lon="9.6030367"><ele>82.0</ele><time>2026-04-11T12:58:58.912Z</time></trkpt><trkpt lat="45.401145" lon="9.6026817"><ele>82.0</ele><time>2026-04-11T12:58:59.912Z</time></trkpt><trkpt lat="45.4011733" lon="9.6023267"><ele>81.0</ele><time>2026-04-11T12:59:00.912Z</time></trkpt><trkpt lat="45.4011983" lon="9.6019633"><ele>80.0</ele><time>2026-04-11T12:59:01.912Z</time></trkpt><trkpt lat="45.4012317" lon="9.60159"><ele>80.0</ele><time>2026-04-11T12:59:02.912Z</time></trkpt><trkpt lat="45.40126" lon="9.60122"><ele>80.0</ele><time>2026-04-11T12:59:03.912Z</time></trkpt><trkpt lat="45.4012817" lon="9.6008583"><ele>80.5</ele><time>2026-04-11T12:59:04.912Z</time></trkpt><trkpt lat="45.401305" lon="9.6004833"><ele>81.0</ele><time>2026-04-11T12:59:05.911Z</time></trkpt><trkpt lat="45.4013333" lon="9.6001167"><ele>81.0</ele><time>2026-04-11T12:59:06.912Z</time></trkpt><trkpt lat="45.4013683" lon="9.59974"><ele>81.0</ele><time>2026-04-11T12:59:07.912Z</time></trkpt><trkpt lat="45.401395" lon="9.5993667"><ele>81.0</ele><time>2026-04-11T12:59:08.912Z</time></trkpt><trkpt lat="45.4014217" lon="9.5989917"><ele>81.0</ele><time>2026-04-11T12:59:09.912Z</time></trkpt><trkpt lat="45.4014467" lon="9.5986067"><ele>81.5</ele><time>2026-04-11T12:59:10.912Z</time></trkpt><trkpt lat="45.40147" lon="9.598235"><ele>82.0</ele><time>2026-04-11T12:59:11.912Z</time></trkpt><trkpt lat="45.4014983" lon="9.5978633"><ele>82.5</ele><time>2026-04-11T12:59:12.912Z</time></trkpt><trkpt lat="45.4015183" lon="9.5975183"><ele>83.0</ele><time>2026-04-11T12:59:13.911Z</time></trkpt><trkpt lat="45.4015517" lon="9.5971867"><ele>82.66666666666667</ele><time>2026-04-11T12:59:14.912Z</time></trkpt><trkpt lat="45.40158" lon="9.5968733"><ele>82.33333333333333</ele><time>2026-04-11T12:59:15.911Z</time></trkpt><trkpt lat="45.4016083" lon="9.5965767"><ele>82.0</ele><time>2026-04-11T12:59:16.912Z</time></trkpt><trkpt lat="45.4016267" lon="9.596295"><ele>81.66666666666666</ele><time>2026-04-11T12:59:17.912Z</time></trkpt><trkpt lat="45.4016483" lon="9.5960083"><ele>81.33333333333333</ele><time>2026-04-11T12:59:18.912Z</time></trkpt><trkpt lat="45.4016683" lon="9.5957183"><ele>81.0</ele><time>2026-04-11T12:59:19.912Z</time></trkpt><trkpt lat="45.4016867" lon="9.5954267"><ele>81.66666666666667</ele><time>2026-04-11T12:59:20.912Z</time></trkpt><trkpt lat="45.4016967" lon="9.5951217"><ele>82.33333333333334</ele><time>2026-04-11T12:59:21.912Z</time></trkpt><trkpt lat="45.401715" lon="9.5948333"><ele>83.0</ele><time>2026-04-11T12:59:22.912Z</time></trkpt><trkpt lat="45.4017333" lon="9.594535"><ele>83.0</ele><time>2026-04-11T12:59:23.912Z</time></trkpt><trkpt lat="45.4017433" lon="9.5942333"><ele>83.0</ele><time>2026-04-11T12:59:24.912Z</time></trkpt><trkpt lat="45.4017583" lon="9.59392"><ele>83.0</ele><time>2026-04-11T12:59:25.912Z</time></trkpt><trkpt lat="45.4017683" lon="9.5935983"><ele>83.0</ele><time>2026-04-11T12:59:26.912Z</time></trkpt><trkpt lat="45.40178" lon="9.5932733"><ele>83.0</ele><time>2026-04-11T12:59:27.912Z</time></trkpt><trkpt lat="45.401795" lon="9.5929383"><ele>83.5</ele><time>2026-04-11T12:59:28.912Z</time></trkpt><trkpt lat="45.4018" lon="9.592605"><ele>84.0</ele><time>2026-04-11T12:59:29.912Z</time></trkpt><trkpt lat="45.401815" lon="9.592265"><ele>84.5</ele><time>2026-04-11T12:59:30.912Z</time></trkpt><trkpt lat="45.4018233" lon="9.5919183"><ele>85.0</ele><time>2026-04-11T12:59:31.912Z</time></trkpt><trkpt lat="45.40183" lon="9.5915733"><ele>85.0</ele><time>2026-04-11T12:59:32.912Z</time></trkpt><trkpt lat="45.4018367" lon="9.5912333"><ele>85.0</ele><time>2026-04-11T12:59:33.912Z</time></trkpt><trkpt lat="45.4018433" lon="9.5908883"><ele>84.5</ele><time>2026-04-11T12:59:34.912Z</time></trkpt><trkpt lat="45.4018517" lon="9.5905467"><ele>84.0</ele><time>2026-04-11T12:59:35.912Z</time></trkpt><trkpt lat="45.4018567" lon="9.59021"><ele>83.5</ele><time>2026-04-11T12:59:36.912Z</time></trkpt><trkpt lat="45.4018633" lon="9.5898733"><ele>83.0</ele><time>2026-04-11T12:59:37.912Z</time></trkpt><trkpt lat="45.4018633" lon="9.5895483"><ele>83.5</ele><time>2026-04-11T12:59:38.912Z</time></trkpt><trkpt lat="45.4018683" lon="9.58923"><ele>84.0</ele><time>2026-04-11T12:59:39.912Z</time></trkpt><trkpt lat="45.4018783" lon="9.5889067"><ele>84.0</ele><time>2026-04-11T12:59:40.912Z</time></trkpt><trkpt lat="45.4018833" lon="9.5885917"><ele>84.0</ele><time>2026-04-11T12:59:41.912Z</time></trkpt><trkpt lat="45.40189" lon="9.5882883"><ele>84.0</ele><time>2026-04-11T12:59:42.912Z</time></trkpt><trkpt lat="45.401895" lon="9.588"><ele>84.33333333333333</ele><time>2026-04-11T12:59:43.912Z</time></trkpt><trkpt lat="45.4019017" lon="9.587725"><ele>84.66666666666666</ele><time>2026-04-11T12:59:44.912Z</time></trkpt><trkpt lat="45.4019083" lon="9.5874767"><ele>85.0</ele><time>2026-04-11T12:59:45.912Z</time></trkpt><trkpt lat="45.4019133" lon="9.5872367"><ele>85.0</ele><time>2026-04-11T12:59:46.911Z</time></trkpt><trkpt lat="45.4019167" lon="9.5867983"><ele>85.0</ele><time>2026-04-11T12:59:48.912Z</time></trkpt><trkpt lat="45.4019167" lon="9.5865833"><ele>85.0</ele><time>2026-04-11T12:59:49.912Z</time></trkpt><trkpt lat="45.401915" lon="9.58638"><ele>85.0</ele><time>2026-04-11T12:59:50.912Z</time></trkpt><trkpt lat="45.4019183" lon="9.5861917"><ele>85.0</ele><time>2026-04-11T12:59:51.911Z</time></trkpt><trkpt lat="45.40192" lon="9.5860083"><ele>85.0</ele><time>2026-04-11T12:59:52.912Z</time></trkpt><trkpt lat="45.401925" lon="9.5858467"><ele>84.83333333333333</ele><time>2026-04-11T12:59:53.912Z</time></trkpt><trkpt lat="45.4019383" lon="9.5856967"><ele>84.66666666666666</ele><time>2026-04-11T12:59:54.912Z</time></trkpt><trkpt lat="45.4019517" lon="9.58557"><ele>84.5</ele><time>2026-04-11T12:59:55.912Z</time></trkpt><trkpt lat="45.40197" lon="9.5854567"><ele>84.33333333333333</ele><time>2026-04-11T12:59:56.912Z</time></trkpt><trkpt lat="45.402" lon="9.58535"><ele>84.16666666666667</ele><time>2026-04-11T12:59:57.912Z</time></trkpt><trkpt lat="45.4020467" lon="9.58526"><ele>84.0</ele><time>2026-04-11T12:59:58.912Z</time></trkpt><trkpt lat="45.402085" lon="9.5851633"><ele>84.0</ele><time>2026-04-11T12:59:59.911Z</time></trkpt><trkpt lat="45.402105" lon="9.5850583"><ele>84.0</ele><time>2026-04-11T13:00:00.912Z</time></trkpt><trkpt lat="45.402105" lon="9.58495"><ele>84.0</ele><time>2026-04-11T13:00:01.912Z</time></trkpt><trkpt lat="45.4020683" lon="9.5848367"><ele>84.0</ele><time>2026-04-11T13:00:02.912Z</time></trkpt><trkpt lat="45.4020183" lon="9.58469"><ele>84.0</ele><time>2026-04-11T13:00:03.912Z</time></trkpt><trkpt lat="45.4019833" lon="9.5845433"><ele>84.25</ele><time>2026-04-11T13:00:04.912Z</time></trkpt><trkpt lat="45.401975" lon="9.5843733"><ele>84.5</ele><time>2026-04-11T13:00:05.912Z</time></trkpt><trkpt lat="45.40198" lon="9.58418"><ele>84.75</ele><time>2026-04-11T13:00:06.912Z</time></trkpt><trkpt lat="45.4019767" lon="9.5839783"><ele>85.0</ele><time>2026-04-11T13:00:07.912Z</time></trkpt><trkpt lat="45.4019767" lon="9.5837783"><ele>85.0</ele><time>2026-04-11T13:00:08.912Z</time></trkpt><trkpt lat="45.40198" lon="9.58357"><ele>85.0</ele><time>2026-04-11T13:00:09.912Z</time></trkpt><trkpt lat="45.4019833" lon="9.58334"><ele>85.0</ele><time>2026-04-11T13:00:10.912Z</time></trkpt><trkpt lat="45.4019867" lon="9.5830983"><ele>85.0</ele><time>2026-04-11T13:00:11.912Z</time></trkpt><trkpt lat="45.401995" lon="9.5828583"><ele>85.0</ele><time>2026-04-11T13:00:12.912Z</time></trkpt><trkpt lat="45.402" lon="9.5826133"><ele>85.0</ele><time>2026-04-11T13:00:13.911Z</time></trkpt><trkpt lat="45.40201" lon="9.5823517"><ele>85.0</ele><time>2026-04-11T13:00:14.912Z</time></trkpt><trkpt lat="45.402015" lon="9.58208"><ele>85.0</ele><time>2026-04-11T13:00:15.911Z</time></trkpt><trkpt lat="45.4020183" lon="9.5818083"><ele>85.0</ele><time>2026-04-11T13:00:16.912Z</time></trkpt><trkpt lat="45.4020283" lon="9.5815383"><ele>85.0</ele><time>2026-04-11T13:00:17.912Z</time></trkpt><trkpt lat="45.4020333" lon="9.581265"><ele>85.0</ele><time>2026-04-11T13:00:18.912Z</time></trkpt><trkpt lat="45.40204" lon="9.5809883"><ele>85.0</ele><time>2026-04-11T13:00:19.912Z</time></trkpt><trkpt lat="45.4020433" lon="9.58071"><ele>85.0</ele><time>2026-04-11T13:00:20.912Z</time></trkpt><trkpt lat="45.4020467" lon="9.5804333"><ele>85.0</ele><time>2026-04-11T13:00:21.912Z</time></trkpt><trkpt lat="45.40205" lon="9.58016"><ele>85.0</ele><time>2026-04-11T13:00:22.912Z</time></trkpt><trkpt lat="45.4020533" lon="9.5798883"><ele>85.0</ele><time>2026-04-11T13:00:23.912Z</time></trkpt><trkpt lat="45.4020567" lon="9.5796083"><ele>85.0</ele><time>2026-04-11T13:00:24.911Z</time></trkpt><trkpt lat="45.4020567" lon="9.5793333"><ele>85.0</ele><time>2026-04-11T13:00:25.912Z</time></trkpt><trkpt lat="45.4020567" lon="9.579055"><ele>85.0</ele><time>2026-04-11T13:00:26.912Z</time></trkpt><trkpt lat="45.4020667" lon="9.5787717"><ele>85.0</ele><time>2026-04-11T13:00:27.911Z</time></trkpt><trkpt lat="45.4020717" lon="9.5784767"><ele>85.0</ele><time>2026-04-11T13:00:28.912Z</time></trkpt><trkpt lat="45.40208" lon="9.578185"><ele>85.0</ele><time>2026-04-11T13:00:29.912Z</time></trkpt><trkpt lat="45.402095" lon="9.5778867"><ele>85.0</ele><time>2026-04-11T13:00:30.912Z</time></trkpt><trkpt lat="45.4021" lon="9.5775833"><ele>85.0</ele><time>2026-04-11T13:00:31.912Z</time></trkpt><trkpt lat="45.4021067" lon="9.577275"><ele>85.66666666666666</ele><time>2026-04-11T13:00:32.912Z</time></trkpt><trkpt lat="45.4021117" lon="9.5769633"><ele>86.33333333333333</ele><time>2026-04-11T13:00:33.912Z</time></trkpt><trkpt lat="45.4021167" lon="9.5766517"><ele>87.0</ele><time>2026-04-11T13:00:34.912Z</time></trkpt><trkpt lat="45.4021183" lon="9.5763417"><ele>87.0</ele><time>2026-04-11T13:00:35.912Z</time></trkpt><trkpt lat="45.40213" lon="9.5760333"><ele>87.0</ele><time>2026-04-11T13:00:36.912Z</time></trkpt><trkpt lat="45.402135" lon="9.5757217"><ele>87.0</ele><time>2026-04-11T13:00:37.912Z</time></trkpt><trkpt lat="45.4021417" lon="9.5754083"><ele>86.66666666666667</ele><time>2026-04-11T13:00:38.912Z</time></trkpt><trkpt lat="45.40215" lon="9.5751083"><ele>86.33333333333334</ele><time>2026-04-11T13:00:39.912Z</time></trkpt><trkpt lat="45.4021533" lon="9.5748033"><ele>86.0</ele><time>2026-04-11T13:00:40.911Z</time></trkpt><trkpt lat="45.4021633" lon="9.5745067"><ele>85.66666666666667</ele><time>2026-04-11T13:00:41.912Z</time></trkpt><trkpt lat="45.4021683" lon="9.574215"><ele>85.33333333333333</ele><time>2026-04-11T13:00:42.912Z</time></trkpt><trkpt lat="45.402175" lon="9.5739233"><ele>85.0</ele><time>2026-04-11T13:00:43.912Z</time></trkpt><trkpt lat="45.402175" lon="9.5736317"><ele>84.66666666666666</ele><time>2026-04-11T13:00:44.912Z</time></trkpt><trkpt lat="45.40218" lon="9.5733333"><ele>84.33333333333333</ele><time>2026-04-11T13:00:45.912Z</time></trkpt><trkpt lat="45.402185" lon="9.5730417"><ele>84.0</ele><time>2026-04-11T13:00:46.912Z</time></trkpt><trkpt lat="45.40219" lon="9.5727417"><ele>84.0</ele><time>2026-04-11T13:00:47.912Z</time></trkpt><trkpt lat="45.4022" lon="9.5724433"><ele>84.0</ele><time>2026-04-11T13:00:48.912Z</time></trkpt><trkpt lat="45.4022067" lon="9.5721467"><ele>84.0</ele><time>2026-04-11T13:00:49.912Z</time></trkpt><trkpt lat="45.4022033" lon="9.5718533"><ele>84.33333333333333</ele><time>2026-04-11T13:00:50.912Z</time></trkpt><trkpt lat="45.4021967" lon="9.5715567"><ele>84.66666666666666</ele><time>2026-04-11T13:00:51.912Z</time></trkpt><trkpt lat="45.4021833" lon="9.5712583"><ele>85.0</ele><time>2026-04-11T13:00:52.912Z</time></trkpt><trkpt lat="45.4021683" lon="9.5709583"><ele>85.33333333333333</ele><time>2026-04-11T13:00:53.912Z</time></trkpt><trkpt lat="45.4021483" lon="9.5706633"><ele>85.66666666666667</ele><time>2026-04-11T13:00:54.912Z</time></trkpt><trkpt lat="45.4021283" lon="9.57037"><ele>86.0</ele><time>2026-04-11T13:00:55.912Z</time></trkpt><trkpt lat="45.4020983" lon="9.57008"><ele>85.0</ele><time>2026-04-11T13:00:56.912Z</time></trkpt><trkpt lat="45.4020717" lon="9.5698017"><ele>84.0</ele><time>2026-04-11T13:00:57.912Z</time></trkpt><trkpt lat="45.4020383" lon="9.5695333"><ele>83.0</ele><time>2026-04-11T13:00:58.912Z</time></trkpt><trkpt lat="45.4020067" lon="9.5692817"><ele>83.0</ele><time>2026-04-11T13:00:59.912Z</time></trkpt><trkpt lat="45.401975" lon="9.5690483"><ele>83.0</ele><time>2026-04-11T13:01:00.912Z</time></trkpt><trkpt lat="45.4019383" lon="9.5688267"><ele>83.0</ele><time>2026-04-11T13:01:01.912Z</time></trkpt><trkpt lat="45.4019033" lon="9.568615"><ele>82.75</ele><time>2026-04-11T13:01:02.912Z</time></trkpt><trkpt lat="45.4018683" lon="9.5684167"><ele>82.5</ele><time>2026-04-11T13:01:03.912Z</time></trkpt><trkpt lat="45.4018367" lon="9.5682517"><ele>82.25</ele><time>2026-04-11T13:01:04.911Z</time></trkpt><trkpt lat="45.401805" lon="9.56809"><ele>82.0</ele><time>2026-04-11T13:01:05.911Z</time></trkpt><trkpt lat="45.40178" lon="9.567935"><ele>81.66666666666666</ele><time>2026-04-11T13:01:06.911Z</time></trkpt><trkpt lat="45.4017683" lon="9.5677967"><ele>81.33333333333333</ele><time>2026-04-11T13:01:07.91Z</time></trkpt><trkpt lat="45.4017633" lon="9.5676617"><ele>81.0</ele><time>2026-04-11T13:01:08.911Z</time></trkpt><trkpt lat="45.40178" lon="9.5675333"><ele>80.66666666666667</ele><time>2026-04-11T13:01:09.911Z</time></trkpt><trkpt lat="45.4017967" lon="9.5674167"><ele>80.33333333333334</ele><time>2026-04-11T13:01:10.911Z</time></trkpt><trkpt lat="45.4017983" lon="9.567315"><ele>80.0</ele><time>2026-04-11T13:01:11.911Z</time></trkpt><trkpt lat="45.4017833" lon="9.5672117"><ele>80.0</ele><time>2026-04-11T13:01:12.911Z</time></trkpt><trkpt lat="45.4017317" lon="9.567135"><ele>80.0</ele><time>2026-04-11T13:01:13.911Z</time></trkpt><trkpt lat="45.4016717" lon="9.567055"><ele>80.0</ele><time>2026-04-11T13:01:14.911Z</time></trkpt><trkpt lat="45.4016117" lon="9.5669617"><ele>80.0</ele><time>2026-04-11T13:01:15.911Z</time></trkpt><trkpt lat="45.4015667" lon="9.5668533"><ele>80.0</ele><time>2026-04-11T13:01:16.911Z</time></trkpt><trkpt lat="45.401535" lon="9.5667183"><ele>80.0</ele><time>2026-04-11T13:01:17.911Z</time></trkpt><trkpt lat="45.4015033" lon="9.5665617"><ele>80.25</ele><time>2026-04-11T13:01:18.911Z</time></trkpt><trkpt lat="45.401465" lon="9.5663833"><ele>80.5</ele><time>2026-04-11T13:01:19.911Z</time></trkpt><trkpt lat="45.4014317" lon="9.5662"><ele>80.75</ele><time>2026-04-11T13:01:20.911Z</time></trkpt><trkpt lat="45.4013917" lon="9.5660167"><ele>81.0</ele><time>2026-04-11T13:01:21.911Z</time></trkpt><trkpt lat="45.40135" lon="9.5658133"><ele>80.66666666666667</ele><time>2026-04-11T13:01:22.911Z</time></trkpt><trkpt lat="45.4013067" lon="9.5655983"><ele>80.33333333333334</ele><time>2026-04-11T13:01:23.911Z</time></trkpt><trkpt lat="45.4012617" lon="9.56538"><ele>80.0</ele><time>2026-04-11T13:01:24.911Z</time></trkpt><trkpt lat="45.4012133" lon="9.565155"><ele>80.0</ele><time>2026-04-11T13:01:25.911Z</time></trkpt><trkpt lat="45.4011533" lon="9.564925"><ele>80.0</ele><time>2026-04-11T13:01:26.911Z</time></trkpt><trkpt lat="45.40109" lon="9.5647033"><ele>80.0</ele><time>2026-04-11T13:01:27.911Z</time></trkpt><trkpt lat="45.4010183" lon="9.564495"><ele>80.0</ele><time>2026-04-11T13:01:28.911Z</time></trkpt><trkpt lat="45.4009383" lon="9.5642817"><ele>80.0</ele><time>2026-04-11T13:01:29.911Z</time></trkpt><trkpt lat="45.4008467" lon="9.5640817"><ele>80.0</ele><time>2026-04-11T13:01:30.911Z</time></trkpt><trkpt lat="45.4007483" lon="9.5638783"><ele>80.33333333333334</ele><time>2026-04-11T13:01:31.911Z</time></trkpt><trkpt lat="45.4006433" lon="9.5636783"><ele>80.66666666666667</ele><time>2026-04-11T13:01:32.911Z</time></trkpt><trkpt lat="45.4005383" lon="9.5634817"><ele>81.0</ele><time>2026-04-11T13:01:33.911Z</time></trkpt><trkpt lat="45.400425" lon="9.5632783"><ele>81.0</ele><time>2026-04-11T13:01:34.911Z</time></trkpt><trkpt lat="45.4003183" lon="9.56307"><ele>81.0</ele><time>2026-04-11T13:01:35.911Z</time></trkpt><trkpt lat="45.4002133" lon="9.562865"><ele>81.0</ele><time>2026-04-11T13:01:36.911Z</time></trkpt><trkpt lat="45.4001133" lon="9.5626683"><ele>81.0</ele><time>2026-04-11T13:01:37.911Z</time></trkpt><trkpt lat="45.4000133" lon="9.56248"><ele>81.0</ele><time>2026-04-11T13:01:38.91Z</time></trkpt><trkpt lat="45.3999" lon="9.5622833"><ele>81.0</ele><time>2026-04-11T13:01:39.911Z</time></trkpt><trkpt lat="45.399805" lon="9.5621"><ele>80.66666666666667</ele><time>2026-04-11T13:01:40.911Z</time></trkpt><trkpt lat="45.3997067" lon="9.5618967"><ele>80.33333333333334</ele><time>2026-04-11T13:01:41.911Z</time></trkpt><trkpt lat="45.399605" lon="9.5616983"><ele>80.0</ele><time>2026-04-11T13:01:42.911Z</time></trkpt><trkpt lat="45.3995033" lon="9.5615133"><ele>80.33333333333334</ele><time>2026-04-11T13:01:43.911Z</time></trkpt><trkpt lat="45.399405" lon="9.561325"><ele>80.66666666666667</ele><time>2026-04-11T13:01:44.911Z</time></trkpt><trkpt lat="45.399315" lon="9.56115"><ele>81.0</ele><time>2026-04-11T13:01:45.911Z</time></trkpt><trkpt lat="45.399225" lon="9.56099"><ele>81.0</ele><time>2026-04-11T13:01:46.911Z</time></trkpt><trkpt lat="45.39914" lon="9.5608217"><ele>81.0</ele><time>2026-04-11T13:01:47.911Z</time></trkpt><trkpt lat="45.399055" lon="9.5606833"><ele>81.0</ele><time>2026-04-11T13:01:48.911Z</time></trkpt><trkpt lat="45.3989733" lon="9.5605533"><ele>81.0</ele><time>2026-04-11T13:01:49.911Z</time></trkpt><trkpt lat="45.3989033" lon="9.56042"><ele>81.0</ele><time>2026-04-11T13:01:50.911Z</time></trkpt><trkpt lat="45.3988383" lon="9.5602917"><ele>81.0</ele><time>2026-04-11T13:01:51.911Z</time></trkpt><trkpt lat="45.3987817" lon="9.5601817"><ele>81.0</ele><time>2026-04-11T13:01:52.911Z</time></trkpt><trkpt lat="45.398745" lon="9.5600733"><ele>81.0</ele><time>2026-04-11T13:01:53.911Z</time></trkpt><trkpt lat="45.3987133" lon="9.5599917"><ele>81.0</ele><time>2026-04-11T13:01:54.911Z</time></trkpt><trkpt lat="45.3986817" lon="9.559835"><ele>81.0</ele><time>2026-04-11T13:01:56.911Z</time></trkpt><trkpt lat="45.398685" lon="9.5596483"><ele>81.0</ele><time>2026-04-11T13:01:58.911Z</time></trkpt><trkpt lat="45.398705" lon="9.5595367"><ele>81.0</ele><time>2026-04-11T13:01:59.911Z</time></trkpt><trkpt lat="45.39874" lon="9.5594133"><ele>81.0</ele><time>2026-04-11T13:02:00.911Z</time></trkpt><trkpt lat="45.398785" lon="9.5593133"><ele>81.0</ele><time>2026-04-11T13:02:01.911Z</time></trkpt><trkpt lat="45.398855" lon="9.55921"><ele>81.5</ele><time>2026-04-11T13:02:02.911Z</time></trkpt><trkpt lat="45.3989417" lon="9.5591117"><ele>82.0</ele><time>2026-04-11T13:02:03.911Z</time></trkpt><trkpt lat="45.3990467" lon="9.5590133"><ele>82.5</ele><time>2026-04-11T13:02:04.911Z</time></trkpt><trkpt lat="45.3991567" lon="9.5589133"><ele>83.0</ele><time>2026-04-11T13:02:05.911Z</time></trkpt><trkpt lat="45.399255" lon="9.5588233"><ele>83.0</ele><time>2026-04-11T13:02:06.911Z</time></trkpt><trkpt lat="45.399355" lon="9.5587367"><ele>83.0</ele><time>2026-04-11T13:02:07.911Z</time></trkpt><trkpt lat="45.3994517" lon="9.5586533"><ele>83.0</ele><time>2026-04-11T13:02:08.911Z</time></trkpt><trkpt lat="45.39956" lon="9.5585783"><ele>83.0</ele><time>2026-04-11T13:02:09.911Z</time></trkpt><trkpt lat="45.3996683" lon="9.5584967"><ele>83.0</ele><time>2026-04-11T13:02:10.911Z</time></trkpt><trkpt lat="45.3997483" lon="9.55844"><ele>83.0</ele><time>2026-04-11T13:02:11.911Z</time></trkpt><trkpt lat="45.3998333" lon="9.558395"><ele>83.0</ele><time>2026-04-11T13:02:13.911Z</time></trkpt><trkpt lat="45.3998717" lon="9.55826"><ele>83.0</ele><time>2026-04-11T13:02:17.911Z</time></trkpt><trkpt lat="45.3998767" lon="9.5581567"><ele>83.0</ele><time>2026-04-11T13:02:18.911Z</time></trkpt><trkpt lat="45.3998883" lon="9.558025"><ele>83.0</ele><time>2026-04-11T13:02:19.911Z</time></trkpt><trkpt lat="45.3998883" lon="9.5578967"><ele>82.75</ele><time>2026-04-11T13:02:20.911Z</time></trkpt><trkpt lat="45.399905" lon="9.5577383"><ele>82.5</ele><time>2026-04-11T13:02:21.911Z</time></trkpt><trkpt lat="45.3999333" lon="9.5575717"><ele>82.25</ele><time>2026-04-11T13:02:22.911Z</time></trkpt><trkpt lat="45.3999717" lon="9.5573767"><ele>82.0</ele><time>2026-04-11T13:02:23.911Z</time></trkpt><trkpt lat="45.400025" lon="9.5571783"><ele>82.25</ele><time>2026-04-11T13:02:24.911Z</time></trkpt><trkpt lat="45.4000783" lon="9.5569867"><ele>82.5</ele><time>2026-04-11T13:02:25.911Z</time></trkpt><trkpt lat="45.4001283" lon="9.556795"><ele>82.75</ele><time>2026-04-11T13:02:26.911Z</time></trkpt><trkpt lat="45.4001867" lon="9.556595"><ele>83.0</ele><time>2026-04-11T13:02:27.911Z</time></trkpt><trkpt lat="45.40024" lon="9.5563767"><ele>83.33333333333334</ele><time>2026-04-11T13:02:28.911Z</time></trkpt><trkpt lat="45.4003" lon="9.55615"><ele>83.66666666666667</ele><time>2026-04-11T13:02:29.911Z</time></trkpt><trkpt lat="45.40036" lon="9.5559317"><ele>84.0</ele><time>2026-04-11T13:02:30.911Z</time></trkpt><trkpt lat="45.4004267" lon="9.5557067"><ele>84.0</ele><time>2026-04-11T13:02:31.911Z</time></trkpt><trkpt lat="45.40048" lon="9.55547"><ele>84.0</ele><time>2026-04-11T13:02:32.911Z</time></trkpt><trkpt lat="45.4005433" lon="9.555245"><ele>84.0</ele><time>2026-04-11T13:02:33.911Z</time></trkpt><trkpt lat="45.400605" lon="9.5550183"><ele>84.33333333333333</ele><time>2026-04-11T13:02:34.911Z</time></trkpt><trkpt lat="45.4006617" lon="9.5547783"><ele>84.66666666666666</ele><time>2026-04-11T13:02:35.911Z</time></trkpt><trkpt lat="45.4007233" lon="9.5545517"><ele>85.0</ele><time>2026-04-11T13:02:36.911Z</time></trkpt><trkpt lat="45.400785" lon="9.5543083"><ele>85.0</ele><time>2026-04-11T13:02:37.911Z</time></trkpt><trkpt lat="45.4008567" lon="9.554065"><ele>85.0</ele><time>2026-04-11T13:02:38.911Z</time></trkpt><trkpt lat="45.4009217" lon="9.5538333"><ele>85.0</ele><time>2026-04-11T13:02:39.911Z</time></trkpt><trkpt lat="45.400985" lon="9.5535983"><ele>85.0</ele><time>2026-04-11T13:02:40.911Z</time></trkpt><trkpt lat="45.4010383" lon="9.55339"><ele>85.0</ele><time>2026-04-11T13:02:41.911Z</time></trkpt><trkpt lat="45.401085" lon="9.553225"><ele>85.0</ele><time>2026-04-11T13:02:42.911Z</time></trkpt><trkpt lat="45.4011283" lon="9.5530767"><ele>85.0</ele><time>2026-04-11T13:02:43.911Z</time></trkpt><trkpt lat="45.4011583" lon="9.5529617"><ele>85.0</ele><time>2026-04-11T13:02:44.91Z</time></trkpt><trkpt lat="45.401185" lon="9.55288"><ele>85.0</ele><time>2026-04-11T13:02:45.911Z</time></trkpt><trkpt lat="45.4012183" lon="9.5527583"><ele>85.0</ele><time>2026-04-11T13:02:47.91Z</time></trkpt><trkpt lat="45.401245" lon="9.552665"><ele>85.0</ele><time>2026-04-11T13:03:33.911Z</time></trkpt><trkpt lat="45.4012833" lon="9.55247"><ele>85.0</ele><time>2026-04-11T13:03:35.911Z</time></trkpt><trkpt lat="45.4013183" lon="9.5523433"><ele>85.0</ele><time>2026-04-11T13:03:36.911Z</time></trkpt><trkpt lat="45.4013583" lon="9.5521917"><ele>85.0</ele><time>2026-04-11T13:03:37.911Z</time></trkpt><trkpt lat="45.401395" lon="9.5520167"><ele>85.0</ele><time>2026-04-11T13:03:38.911Z</time></trkpt><trkpt lat="45.401435" lon="9.5518383"><ele>85.0</ele><time>2026-04-11T13:03:39.911Z</time></trkpt><trkpt lat="45.40149" lon="9.5516633"><ele>85.0</ele><time>2026-04-11T13:03:40.911Z</time></trkpt><trkpt lat="45.40154" lon="9.55147"><ele>85.0</ele><time>2026-04-11T13:03:41.911Z</time></trkpt><trkpt lat="45.4015983" lon="9.5512633"><ele>85.0</ele><time>2026-04-11T13:03:42.911Z</time></trkpt><trkpt lat="45.401655" lon="9.5510433"><ele>85.33333333333333</ele><time>2026-04-11T13:03:43.911Z</time></trkpt><trkpt lat="45.4017117" lon="9.5508267"><ele>85.66666666666667</ele><time>2026-04-11T13:03:44.911Z</time></trkpt><trkpt lat="45.4017717" lon="9.5506067"><ele>86.0</ele><time>2026-04-11T13:03:45.911Z</time></trkpt><trkpt lat="45.4018367" lon="9.5503867"><ele>86.0</ele><time>2026-04-11T13:03:46.911Z</time></trkpt><trkpt lat="45.401895" lon="9.5501667"><ele>86.0</ele><time>2026-04-11T13:03:47.911Z</time></trkpt><trkpt lat="45.4019617" lon="9.54993"><ele>86.0</ele><time>2026-04-11T13:03:48.911Z</time></trkpt><trkpt lat="45.4020317" lon="9.549685"><ele>86.0</ele><time>2026-04-11T13:03:49.911Z</time></trkpt><trkpt lat="45.4020983" lon="9.5494533"><ele>86.0</ele><time>2026-04-11T13:03:50.911Z</time></trkpt><trkpt lat="45.4021517" lon="9.549215"><ele>86.0</ele><time>2026-04-11T13:03:51.91Z</time></trkpt><trkpt lat="45.40221" lon="9.54898"><ele>85.66666666666667</ele><time>2026-04-11T13:03:52.911Z</time></trkpt><trkpt lat="45.4022717" lon="9.5487517"><ele>85.33333333333333</ele><time>2026-04-11T13:03:53.911Z</time></trkpt><trkpt lat="45.40233" lon="9.5485083"><ele>85.0</ele><time>2026-04-11T13:03:54.911Z</time></trkpt><trkpt lat="45.4023817" lon="9.5482667"><ele>85.0</ele><time>2026-04-11T13:03:55.91Z</time></trkpt><trkpt lat="45.4024433" lon="9.54803"><ele>85.0</ele><time>2026-04-11T13:03:56.911Z</time></trkpt><trkpt lat="45.4025083" lon="9.5477867"><ele>85.0</ele><time>2026-04-11T13:03:57.911Z</time></trkpt><trkpt lat="45.4025767" lon="9.5475317"><ele>85.0</ele><time>2026-04-11T13:03:58.911Z</time></trkpt><trkpt lat="45.4026383" lon="9.5472767"><ele>85.0</ele><time>2026-04-11T13:03:59.911Z</time></trkpt><trkpt lat="45.4027117" lon="9.5470283"><ele>85.0</ele><time>2026-04-11T13:04:00.911Z</time></trkpt><trkpt lat="45.402785" lon="9.5467833"><ele>85.0</ele><time>2026-04-11T13:04:01.911Z</time></trkpt><trkpt lat="45.402855" lon="9.5465367"><ele>85.0</ele><time>2026-04-11T13:04:02.91Z</time></trkpt><trkpt lat="45.4029233" lon="9.5462917"><ele>85.0</ele><time>2026-04-11T13:04:03.911Z</time></trkpt><trkpt lat="45.4029933" lon="9.5460567"><ele>85.33333333333333</ele><time>2026-04-11T13:04:04.911Z</time></trkpt><trkpt lat="45.4030517" lon="9.5458333"><ele>85.66666666666667</ele><time>2026-04-11T13:04:05.911Z</time></trkpt><trkpt lat="45.4031083" lon="9.5456283"><ele>86.0</ele><time>2026-04-11T13:04:06.91Z</time></trkpt><trkpt lat="45.4031617" lon="9.5454383"><ele>85.75</ele><time>2026-04-11T13:04:07.911Z</time></trkpt><trkpt lat="45.4032217" lon="9.5452667"><ele>85.5</ele><time>2026-04-11T13:04:08.911Z</time></trkpt><trkpt lat="45.4032667" lon="9.54509"><ele>85.25</ele><time>2026-04-11T13:04:09.911Z</time></trkpt><trkpt lat="45.4033133" lon="9.5449217"><ele>85.0</ele><time>2026-04-11T13:04:10.911Z</time></trkpt><trkpt lat="45.4033533" lon="9.5447733"><ele>85.0</ele><time>2026-04-11T13:04:11.911Z</time></trkpt><trkpt lat="45.4033933" lon="9.5446217"><ele>85.0</ele><time>2026-04-11T13:04:12.911Z</time></trkpt><trkpt lat="45.403425" lon="9.5444717"><ele>85.0</ele><time>2026-04-11T13:04:13.911Z</time></trkpt><trkpt lat="45.4034567" lon="9.54433"><ele>85.0</ele><time>2026-04-11T13:04:14.911Z</time></trkpt><trkpt lat="45.4034717" lon="9.5442"><ele>85.0</ele><time>2026-04-11T13:04:15.91Z</time></trkpt><trkpt lat="45.4034833" lon="9.544085"><ele>84.8</ele><time>2026-04-11T13:04:16.911Z</time></trkpt><trkpt lat="45.4035017" lon="9.5439533"><ele>84.6</ele><time>2026-04-11T13:04:18.911Z</time></trkpt><trkpt lat="45.4035517" lon="9.5438717"><ele>84.4</ele><time>2026-04-11T13:04:20.911Z</time></trkpt><trkpt lat="45.40366" lon="9.5437567"><ele>84.2</ele><time>2026-04-11T13:04:22.911Z</time></trkpt><trkpt lat="45.4037167" lon="9.5436667"><ele>84.0</ele><time>2026-04-11T13:04:23.911Z</time></trkpt><trkpt lat="45.4037783" lon="9.5435717"><ele>84.4</ele><time>2026-04-11T13:04:24.911Z</time></trkpt><trkpt lat="45.4038483" lon="9.5434833"><ele>84.80000000000001</ele><time>2026-04-11T13:04:25.911Z</time></trkpt><trkpt lat="45.4039333" lon="9.5434033"><ele>85.19999999999999</ele><time>2026-04-11T13:04:26.911Z</time></trkpt><trkpt lat="45.4040433" lon="9.5433483"><ele>85.6</ele><time>2026-04-11T13:04:27.911Z</time></trkpt><trkpt lat="45.40416" lon="9.5433167"><ele>86.0</ele><time>2026-04-11T13:04:28.91Z</time></trkpt><trkpt lat="45.4042767" lon="9.54329"><ele>86.0</ele><time>2026-04-11T13:04:29.91Z</time></trkpt><trkpt lat="45.404395" lon="9.5432617"><ele>86.0</ele><time>2026-04-11T13:04:30.91Z</time></trkpt><trkpt lat="45.4045183" lon="9.5432417"><ele>86.0</ele><time>2026-04-11T13:04:31.91Z</time></trkpt><trkpt lat="45.40465" lon="9.5432083"><ele>86.0</ele><time>2026-04-11T13:04:32.91Z</time></trkpt><trkpt lat="45.4047767" lon="9.543185"><ele>85.5</ele><time>2026-04-11T13:04:33.91Z</time></trkpt><trkpt lat="45.40491" lon="9.543165"><ele>85.0</ele><time>2026-04-11T13:04:34.91Z</time></trkpt><trkpt lat="45.40505" lon="9.5431383"><ele>84.5</ele><time>2026-04-11T13:04:35.909Z</time></trkpt><trkpt lat="45.405205" lon="9.5431217"><ele>84.0</ele><time>2026-04-11T13:04:36.91Z</time></trkpt><trkpt lat="45.4053617" lon="9.543115"><ele>84.33333333333333</ele><time>2026-04-11T13:04:37.91Z</time></trkpt><trkpt lat="45.4055183" lon="9.543125"><ele>84.66666666666666</ele><time>2026-04-11T13:04:38.91Z</time></trkpt><trkpt lat="45.4056767" lon="9.5431367"><ele>85.0</ele><time>2026-04-11T13:04:39.91Z</time></trkpt><trkpt lat="45.4058367" lon="9.5431567"><ele>85.0</ele><time>2026-04-11T13:04:40.91Z</time></trkpt><trkpt lat="45.406005" lon="9.5432083"><ele>85.0</ele><time>2026-04-11T13:04:41.91Z</time></trkpt><trkpt lat="45.4061767" lon="9.5432633"><ele>85.0</ele><time>2026-04-11T13:04:42.91Z</time></trkpt><trkpt lat="45.4063467" lon="9.543325"><ele>85.0</ele><time>2026-04-11T13:04:43.91Z</time></trkpt><trkpt lat="45.4065083" lon="9.5433917"><ele>85.0</ele><time>2026-04-11T13:04:44.91Z</time></trkpt><trkpt lat="45.40666" lon="9.5434633"><ele>85.0</ele><time>2026-04-11T13:04:45.91Z</time></trkpt><trkpt lat="45.4068183" lon="9.5435383"><ele>85.0</ele><time>2026-04-11T13:04:46.909Z</time></trkpt><trkpt lat="45.4069733" lon="9.5436067"><ele>85.0</ele><time>2026-04-11T13:04:47.91Z</time></trkpt><trkpt lat="45.4071367" lon="9.5436833"><ele>85.0</ele><time>2026-04-11T13:04:48.91Z</time></trkpt><trkpt lat="45.4072967" lon="9.5437567"><ele>84.66666666666666</ele><time>2026-04-11T13:04:49.91Z</time></trkpt><trkpt lat="45.4074567" lon="9.5438317"><ele>84.33333333333333</ele><time>2026-04-11T13:04:50.91Z</time></trkpt><trkpt lat="45.4076283" lon="9.5439117"><ele>84.0</ele><time>2026-04-11T13:04:51.91Z</time></trkpt><trkpt lat="45.4078067" lon="9.5439867"><ele>84.0</ele><time>2026-04-11T13:04:52.91Z</time></trkpt><trkpt lat="45.4079833" lon="9.5440633"><ele>84.0</ele><time>2026-04-11T13:04:53.91Z</time></trkpt><trkpt lat="45.408155" lon="9.5441417"><ele>84.0</ele><time>2026-04-11T13:04:54.91Z</time></trkpt><trkpt lat="45.40833" lon="9.5442233"><ele>84.0</ele><time>2026-04-11T13:04:55.91Z</time></trkpt><trkpt lat="45.4085083" lon="9.5443017"><ele>84.0</ele><time>2026-04-11T13:04:56.91Z</time></trkpt><trkpt lat="45.408685" lon="9.5443817"><ele>84.0</ele><time>2026-04-11T13:04:57.91Z</time></trkpt><trkpt lat="45.4088583" lon="9.5444667"><ele>84.0</ele><time>2026-04-11T13:04:58.909Z</time></trkpt><trkpt lat="45.4090333" lon="9.5445483"><ele>84.0</ele><time>2026-04-11T13:04:59.91Z</time></trkpt><trkpt lat="45.4092067" lon="9.544635"><ele>84.0</ele><time>2026-04-11T13:05:00.91Z</time></trkpt><trkpt lat="45.409375" lon="9.5447133"><ele>84.0</ele><time>2026-04-11T13:05:01.91Z</time></trkpt><trkpt lat="45.409545" lon="9.5447883"><ele>84.0</ele><time>2026-04-11T13:05:02.91Z</time></trkpt><trkpt lat="45.4097233" lon="9.5448717"><ele>84.0</ele><time>2026-04-11T13:05:03.91Z</time></trkpt><trkpt lat="45.409905" lon="9.5449517"><ele>84.66666666666667</ele><time>2026-04-11T13:05:04.91Z</time></trkpt><trkpt lat="45.41009" lon="9.54503"><ele>85.33333333333334</ele><time>2026-04-11T13:05:05.91Z</time></trkpt><trkpt lat="45.41028" lon="9.545115"><ele>86.0</ele><time>2026-04-11T13:05:06.91Z</time></trkpt><trkpt lat="45.4104717" lon="9.5451967"><ele>86.0</ele><time>2026-04-11T13:05:07.91Z</time></trkpt><trkpt lat="45.4106633" lon="9.5452783"><ele>86.0</ele><time>2026-04-11T13:05:08.91Z</time></trkpt><trkpt lat="45.4108567" lon="9.5453667"><ele>86.0</ele><time>2026-04-11T13:05:09.91Z</time></trkpt><trkpt lat="45.4110533" lon="9.5454633"><ele>86.0</ele><time>2026-04-11T13:05:10.91Z</time></trkpt><trkpt lat="45.4112483" lon="9.5455483"><ele>86.0</ele><time>2026-04-11T13:05:11.91Z</time></trkpt><trkpt lat="45.41145" lon="9.5456417"><ele>86.0</ele><time>2026-04-11T13:05:12.91Z</time></trkpt><trkpt lat="45.4116417" lon="9.54574"><ele>86.0</ele><time>2026-04-11T13:05:13.91Z</time></trkpt><trkpt lat="45.41185" lon="9.5458267"><ele>86.0</ele><time>2026-04-11T13:05:14.91Z</time></trkpt><trkpt lat="45.4120533" lon="9.54592"><ele>86.0</ele><time>2026-04-11T13:05:15.91Z</time></trkpt><trkpt lat="45.41225" lon="9.5460217"><ele>86.0</ele><time>2026-04-11T13:05:16.91Z</time></trkpt><trkpt lat="45.4124467" lon="9.5461033"><ele>86.0</ele><time>2026-04-11T13:05:17.91Z</time></trkpt><trkpt lat="45.4126183" lon="9.5461717"><ele>86.0</ele><time>2026-04-11T13:05:18.91Z</time></trkpt><trkpt lat="45.412795" lon="9.546245"><ele>86.0</ele><time>2026-04-11T13:05:19.91Z</time></trkpt><trkpt lat="45.4129617" lon="9.5463217"><ele>86.0</ele><time>2026-04-11T13:05:20.91Z</time></trkpt><trkpt lat="45.413125" lon="9.5463983"><ele>86.0</ele><time>2026-04-11T13:05:21.91Z</time></trkpt><trkpt lat="45.4132833" lon="9.5464667"><ele>86.0</ele><time>2026-04-11T13:05:22.909Z</time></trkpt><trkpt lat="45.4134467" lon="9.5465383"><ele>86.0</ele><time>2026-04-11T13:05:23.91Z</time></trkpt><trkpt lat="45.4136133" lon="9.5466183"><ele>86.0</ele><time>2026-04-11T13:05:24.91Z</time></trkpt><trkpt lat="45.4137817" lon="9.5467"><ele>85.66666666666667</ele><time>2026-04-11T13:05:25.91Z</time></trkpt><trkpt lat="45.4139483" lon="9.5467767"><ele>85.33333333333333</ele><time>2026-04-11T13:05:26.91Z</time></trkpt><trkpt lat="45.4141133" lon="9.5468383"><ele>85.0</ele><time>2026-04-11T13:05:27.91Z</time></trkpt><trkpt lat="45.4142767" lon="9.546905"><ele>85.0</ele><time>2026-04-11T13:05:28.91Z</time></trkpt><trkpt lat="45.4144383" lon="9.5469817"><ele>85.0</ele><time>2026-04-11T13:05:29.91Z</time></trkpt><trkpt lat="45.4146017" lon="9.54706"><ele>85.0</ele><time>2026-04-11T13:05:30.91Z</time></trkpt><trkpt lat="45.4147617" lon="9.54714"><ele>85.25</ele><time>2026-04-11T13:05:31.91Z</time></trkpt><trkpt lat="45.4149083" lon="9.5472117"><ele>85.5</ele><time>2026-04-11T13:05:32.91Z</time></trkpt><trkpt lat="45.4150483" lon="9.547275"><ele>85.75</ele><time>2026-04-11T13:05:33.91Z</time></trkpt><trkpt lat="45.415175" lon="9.5473267"><ele>86.0</ele><time>2026-04-11T13:05:34.91Z</time></trkpt><trkpt lat="45.4152967" lon="9.54738"><ele>86.0</ele><time>2026-04-11T13:05:35.91Z</time></trkpt><trkpt lat="45.415425" lon="9.5474317"><ele>86.0</ele><time>2026-04-11T13:05:36.909Z</time></trkpt><trkpt lat="45.415565" lon="9.547485"><ele>86.0</ele><time>2026-04-11T13:05:37.91Z</time></trkpt><trkpt lat="45.415705" lon="9.5475217"><ele>86.0</ele><time>2026-04-11T13:05:38.91Z</time></trkpt><trkpt lat="45.4158617" lon="9.5475517"><ele>86.33333333333334</ele><time>2026-04-11T13:05:39.91Z</time></trkpt><trkpt lat="45.4160233" lon="9.5475667"><ele>86.66666666666667</ele><time>2026-04-11T13:05:40.91Z</time></trkpt><trkpt lat="45.4161933" lon="9.5475717"><ele>87.0</ele><time>2026-04-11T13:05:41.91Z</time></trkpt><trkpt lat="45.4163733" lon="9.5475767"><ele>87.0</ele><time>2026-04-11T13:05:42.91Z</time></trkpt><trkpt lat="45.416555" lon="9.54757"><ele>87.0</ele><time>2026-04-11T13:05:43.91Z</time></trkpt><trkpt lat="45.4167383" lon="9.5475583"><ele>87.0</ele><time>2026-04-11T13:05:44.91Z</time></trkpt><trkpt lat="45.4169167" lon="9.5475267"><ele>87.0</ele><time>2026-04-11T13:05:45.91Z</time></trkpt><trkpt lat="45.41709" lon="9.547475"><ele>87.0</ele><time>2026-04-11T13:05:46.91Z</time></trkpt><trkpt lat="45.4172683" lon="9.5474133"><ele>87.0</ele><time>2026-04-11T13:05:47.91Z</time></trkpt><trkpt lat="45.41745" lon="9.54735"><ele>87.0</ele><time>2026-04-11T13:05:48.91Z</time></trkpt><trkpt lat="45.4176283" lon="9.547285"><ele>87.0</ele><time>2026-04-11T13:05:49.91Z</time></trkpt><trkpt lat="45.4178067" lon="9.54722"><ele>87.0</ele><time>2026-04-11T13:05:50.91Z</time></trkpt><trkpt lat="45.4179783" lon="9.5471533"><ele>87.0</ele><time>2026-04-11T13:05:51.91Z</time></trkpt><trkpt lat="45.4181483" lon="9.547095"><ele>87.0</ele><time>2026-04-11T13:05:52.909Z</time></trkpt><trkpt lat="45.41832" lon="9.5470283"><ele>87.0</ele><time>2026-04-11T13:05:53.91Z</time></trkpt><trkpt lat="45.4184933" lon="9.5469633"><ele>87.0</ele><time>2026-04-11T13:05:54.91Z</time></trkpt><trkpt lat="45.4186617" lon="9.5469033"><ele>87.0</ele><time>2026-04-11T13:05:55.91Z</time></trkpt><trkpt lat="45.4188267" lon="9.546845"><ele>87.0</ele><time>2026-04-11T13:05:56.91Z</time></trkpt><trkpt lat="45.4189867" lon="9.54678"><ele>87.0</ele><time>2026-04-11T13:05:57.91Z</time></trkpt><trkpt lat="45.4191567" lon="9.5467133"><ele>87.0</ele><time>2026-04-11T13:05:58.91Z</time></trkpt><trkpt lat="45.419325" lon="9.54665"><ele>87.0</ele><time>2026-04-11T13:05:59.91Z</time></trkpt><trkpt lat="45.4194917" lon="9.54658"><ele>87.0</ele><time>2026-04-11T13:06:00.91Z</time></trkpt><trkpt lat="45.41965" lon="9.5465217"><ele>87.0</ele><time>2026-04-11T13:06:01.91Z</time></trkpt><trkpt lat="45.4198033" lon="9.54646"><ele>87.0</ele><time>2026-04-11T13:06:02.91Z</time></trkpt><trkpt lat="45.419955" lon="9.5464017"><ele>87.0</ele><time>2026-04-11T13:06:03.91Z</time></trkpt><trkpt lat="45.42012" lon="9.5463483"><ele>87.0</ele><time>2026-04-11T13:06:04.91Z</time></trkpt><trkpt lat="45.4202983" lon="9.5462817"><ele>87.0</ele><time>2026-04-11T13:06:05.91Z</time></trkpt><trkpt lat="45.4204917" lon="9.54621"><ele>87.0</ele><time>2026-04-11T13:06:06.91Z</time></trkpt><trkpt lat="45.4206917" lon="9.5461233"><ele>87.0</ele><time>2026-04-11T13:06:07.909Z</time></trkpt><trkpt lat="45.4209133" lon="9.546035"><ele>87.0</ele><time>2026-04-11T13:06:08.909Z</time></trkpt><trkpt lat="45.4211517" lon="9.5459467"><ele>88.0</ele><time>2026-04-11T13:06:09.909Z</time></trkpt><trkpt lat="45.42139" lon="9.5458683"><ele>89.0</ele><time>2026-04-11T13:06:10.909Z</time></trkpt><trkpt lat="45.4216183" lon="9.5457917"><ele>89.0</ele><time>2026-04-11T13:06:11.91Z</time></trkpt><trkpt lat="45.4218333" lon="9.545715"><ele>89.0</ele><time>2026-04-11T13:06:12.91Z</time></trkpt><trkpt lat="45.4220333" lon="9.5456433"><ele>89.0</ele><time>2026-04-11T13:06:13.91Z</time></trkpt><trkpt lat="45.4222233" lon="9.545575"><ele>89.0</ele><time>2026-04-11T13:06:14.909Z</time></trkpt><trkpt lat="45.4223983" lon="9.545505"><ele>89.0</ele><time>2026-04-11T13:06:15.91Z</time></trkpt><trkpt lat="45.42257" lon="9.5454383"><ele>89.0</ele><time>2026-04-11T13:06:16.91Z</time></trkpt><trkpt lat="45.4227383" lon="9.545375"><ele>89.0</ele><time>2026-04-11T13:06:17.91Z</time></trkpt><trkpt lat="45.4229" lon="9.5453167"><ele>89.0</ele><time>2026-04-11T13:06:18.91Z</time></trkpt><trkpt lat="45.42306" lon="9.5452583"><ele>89.0</ele><time>2026-04-11T13:06:19.91Z</time></trkpt><trkpt lat="45.4232167" lon="9.5452"><ele>89.0</ele><time>2026-04-11T13:06:20.91Z</time></trkpt><trkpt lat="45.4233733" lon="9.5451433"><ele>89.0</ele><time>2026-04-11T13:06:21.91Z</time></trkpt><trkpt lat="45.4235267" lon="9.5450883"><ele>89.0</ele><time>2026-04-11T13:06:22.91Z</time></trkpt><trkpt lat="45.4236733" lon="9.5450367"><ele>88.66666666666667</ele><time>2026-04-11T13:06:23.91Z</time></trkpt><trkpt lat="45.4238183" lon="9.5449867"><ele>88.33333333333333</ele><time>2026-04-11T13:06:24.91Z</time></trkpt><trkpt lat="45.42397" lon="9.544935"><ele>88.0</ele><time>2026-04-11T13:06:25.909Z</time></trkpt><trkpt lat="45.4241233" lon="9.5448717"><ele>88.0</ele><time>2026-04-11T13:06:26.91Z</time></trkpt><trkpt lat="45.4242817" lon="9.544815"><ele>88.0</ele><time>2026-04-11T13:06:27.91Z</time></trkpt><trkpt lat="45.4244367" lon="9.544755"><ele>88.0</ele><time>2026-04-11T13:06:28.91Z</time></trkpt><trkpt lat="45.4245967" lon="9.5447"><ele>88.0</ele><time>2026-04-11T13:06:29.909Z</time></trkpt><trkpt lat="45.424755" lon="9.54464"><ele>88.0</ele><time>2026-04-11T13:06:30.91Z</time></trkpt><trkpt lat="45.42491" lon="9.5445717"><ele>88.0</ele><time>2026-04-11T13:06:31.91Z</time></trkpt><trkpt lat="45.4250733" lon="9.5445017"><ele>87.66666666666666</ele><time>2026-04-11T13:06:32.909Z</time></trkpt><trkpt lat="45.425235" lon="9.5444417"><ele>87.33333333333333</ele><time>2026-04-11T13:06:33.91Z</time></trkpt><trkpt lat="45.425385" lon="9.5443883"><ele>87.0</ele><time>2026-04-11T13:06:34.91Z</time></trkpt><trkpt lat="45.4255283" lon="9.5443367"><ele>87.66666666666667</ele><time>2026-04-11T13:06:35.91Z</time></trkpt><trkpt lat="45.4256717" lon="9.544285"><ele>88.33333333333334</ele><time>2026-04-11T13:06:36.91Z</time></trkpt><trkpt lat="45.42582" lon="9.5442317"><ele>89.0</ele><time>2026-04-11T13:06:37.91Z</time></trkpt><trkpt lat="45.4259717" lon="9.5441767"><ele>89.0</ele><time>2026-04-11T13:06:38.91Z</time></trkpt><trkpt lat="45.4261167" lon="9.5441233"><ele>89.0</ele><time>2026-04-11T13:06:39.91Z</time></trkpt><trkpt lat="45.42626" lon="9.544065"><ele>89.0</ele><time>2026-04-11T13:06:40.91Z</time></trkpt><trkpt lat="45.4263983" lon="9.5440133"><ele>89.0</ele><time>2026-04-11T13:06:41.91Z</time></trkpt><trkpt lat="45.426545" lon="9.5439567"><ele>89.33333333333334</ele><time>2026-04-11T13:06:42.91Z</time></trkpt><trkpt lat="45.4266867" lon="9.5439"><ele>89.66666666666667</ele><time>2026-04-11T13:06:43.91Z</time></trkpt><trkpt lat="45.426835" lon="9.5438417"><ele>90.0</ele><time>2026-04-11T13:06:44.909Z</time></trkpt><trkpt lat="45.4269867" lon="9.54378"><ele>90.0</ele><time>2026-04-11T13:06:45.91Z</time></trkpt><trkpt lat="45.42714" lon="9.5437217"><ele>90.0</ele><time>2026-04-11T13:06:46.91Z</time></trkpt><trkpt lat="45.4272883" lon="9.54366"><ele>90.0</ele><time>2026-04-11T13:06:47.91Z</time></trkpt><trkpt lat="45.4274433" lon="9.5435983"><ele>89.66666666666667</ele><time>2026-04-11T13:06:48.91Z</time></trkpt><trkpt lat="45.4275983" lon="9.5435317"><ele>89.33333333333334</ele><time>2026-04-11T13:06:49.91Z</time></trkpt><trkpt lat="45.4277533" lon="9.5434717"><ele>89.0</ele><time>2026-04-11T13:06:50.91Z</time></trkpt><trkpt lat="45.4279183" lon="9.5434033"><ele>89.33333333333334</ele><time>2026-04-11T13:06:51.91Z</time></trkpt><trkpt lat="45.428105" lon="9.54333"><ele>89.66666666666667</ele><time>2026-04-11T13:06:52.91Z</time></trkpt><trkpt lat="45.4283133" lon="9.54324"><ele>90.0</ele><time>2026-04-11T13:06:53.91Z</time></trkpt><trkpt lat="45.4285283" lon="9.543165"><ele>90.0</ele><time>2026-04-11T13:06:54.91Z</time></trkpt><trkpt lat="45.4287533" lon="9.5430783"><ele>90.0</ele><time>2026-04-11T13:06:55.91Z</time></trkpt><trkpt lat="45.4290067" lon="9.5429967"><ele>90.0</ele><time>2026-04-11T13:06:56.91Z</time></trkpt><trkpt lat="45.42926" lon="9.542915"><ele>90.0</ele><time>2026-04-11T13:06:57.91Z</time></trkpt><trkpt lat="45.429495" lon="9.54283"><ele>90.0</ele><time>2026-04-11T13:06:58.91Z</time></trkpt><trkpt lat="45.429715" lon="9.5427567"><ele>90.0</ele><time>2026-04-11T13:06:59.91Z</time></trkpt><trkpt lat="45.429935" lon="9.5426833"><ele>90.0</ele><time>2026-04-11T13:07:00.91Z</time></trkpt><trkpt lat="45.43015" lon="9.5426083"><ele>90.0</ele><time>2026-04-11T13:07:01.91Z</time></trkpt><trkpt lat="45.43036" lon="9.54253"><ele>90.0</ele><time>2026-04-11T13:07:02.91Z</time></trkpt><trkpt lat="45.4305583" lon="9.5424533"><ele>90.0</ele><time>2026-04-11T13:07:03.91Z</time></trkpt><trkpt lat="45.430755" lon="9.5423817"><ele>90.0</ele><time>2026-04-11T13:07:04.91Z</time></trkpt><trkpt lat="45.4309517" lon="9.54231"><ele>90.0</ele><time>2026-04-11T13:07:05.91Z</time></trkpt><trkpt lat="45.43114" lon="9.5422333"><ele>90.33333333333333</ele><time>2026-04-11T13:07:06.91Z</time></trkpt><trkpt lat="45.4313333" lon="9.5421533"><ele>90.66666666666666</ele><time>2026-04-11T13:07:07.91Z</time></trkpt><trkpt lat="45.4315217" lon="9.542075"><ele>91.0</ele><time>2026-04-11T13:07:08.91Z</time></trkpt><trkpt lat="45.431715" lon="9.542"><ele>91.33333333333333</ele><time>2026-04-11T13:07:09.91Z</time></trkpt><trkpt lat="45.4319083" lon="9.541925"><ele>91.66666666666667</ele><time>2026-04-11T13:07:10.91Z</time></trkpt><trkpt lat="45.4320933" lon="9.541855"><ele>92.0</ele><time>2026-04-11T13:07:11.91Z</time></trkpt><trkpt lat="45.432285" lon="9.5417833"><ele>91.33333333333334</ele><time>2026-04-11T13:07:12.91Z</time></trkpt><trkpt lat="45.4324733" lon="9.5417183"><ele>90.66666666666667</ele><time>2026-04-11T13:07:13.909Z</time></trkpt><trkpt lat="45.4326633" lon="9.5416467"><ele>90.0</ele><time>2026-04-11T13:07:14.91Z</time></trkpt><trkpt lat="45.432855" lon="9.5415783"><ele>90.33333333333333</ele><time>2026-04-11T13:07:15.91Z</time></trkpt><trkpt lat="45.43304" lon="9.54151"><ele>90.66666666666666</ele><time>2026-04-11T13:07:16.91Z</time></trkpt><trkpt lat="45.4332333" lon="9.5414383"><ele>91.0</ele><time>2026-04-11T13:07:17.91Z</time></trkpt><trkpt lat="45.433425" lon="9.5413617"><ele>91.0</ele><time>2026-04-11T13:07:18.91Z</time></trkpt><trkpt lat="45.4336167" lon="9.5412833"><ele>91.0</ele><time>2026-04-11T13:07:19.91Z</time></trkpt><trkpt lat="45.4337983" lon="9.54121"><ele>91.0</ele><time>2026-04-11T13:07:20.91Z</time></trkpt><trkpt lat="45.4339867" lon="9.5411317"><ele>91.33333333333333</ele><time>2026-04-11T13:07:21.91Z</time></trkpt><trkpt lat="45.434165" lon="9.5410617"><ele>91.66666666666667</ele><time>2026-04-11T13:07:22.91Z</time></trkpt><trkpt lat="45.4343383" lon="9.5409967"><ele>92.0</ele><time>2026-04-11T13:07:23.91Z</time></trkpt><trkpt lat="45.434505" lon="9.5409383"><ele>92.25</ele><time>2026-04-11T13:07:24.91Z</time></trkpt><trkpt lat="45.434655" lon="9.5409"><ele>92.5</ele><time>2026-04-11T13:07:25.909Z</time></trkpt><trkpt lat="45.4347933" lon="9.5408783"><ele>92.75</ele><time>2026-04-11T13:07:26.91Z</time></trkpt><trkpt lat="45.4349217" lon="9.5408583"><ele>93.0</ele><time>2026-04-11T13:07:27.91Z</time></trkpt><trkpt lat="45.435045" lon="9.540865"><ele>93.0</ele><time>2026-04-11T13:07:28.91Z</time></trkpt><trkpt lat="45.435165" lon="9.54088"><ele>93.0</ele><time>2026-04-11T13:07:29.91Z</time></trkpt><trkpt lat="45.4352733" lon="9.54089"><ele>93.0</ele><time>2026-04-11T13:07:30.91Z</time></trkpt><trkpt lat="45.4353683" lon="9.540895"><ele>93.0</ele><time>2026-04-11T13:07:31.91Z</time></trkpt><trkpt lat="45.435455" lon="9.5409033"><ele>93.0</ele><time>2026-04-11T13:07:32.91Z</time></trkpt><trkpt lat="45.4355317" lon="9.5409017"><ele>93.0</ele><time>2026-04-11T13:07:33.91Z</time></trkpt><trkpt lat="45.4355917" lon="9.540865"><ele>93.0</ele><time>2026-04-11T13:07:34.91Z</time></trkpt><trkpt lat="45.4356617" lon="9.5406917"><ele>93.0</ele><time>2026-04-11T13:07:36.91Z</time></trkpt><trkpt lat="45.4356783" lon="9.5405733"><ele>93.0</ele><time>2026-04-11T13:07:37.91Z</time></trkpt><trkpt lat="45.4357" lon="9.54044"><ele>93.0</ele><time>2026-04-11T13:07:38.91Z</time></trkpt><trkpt lat="45.4357433" lon="9.5403067"><ele>92.75</ele><time>2026-04-11T13:07:39.91Z</time></trkpt><trkpt lat="45.4358067" lon="9.5401583"><ele>92.5</ele><time>2026-04-11T13:07:40.91Z</time></trkpt><trkpt lat="45.4358983" lon="9.5400217"><ele>92.25</ele><time>2026-04-11T13:07:41.909Z</time></trkpt><trkpt lat="45.4360133" lon="9.5398917"><ele>92.0</ele><time>2026-04-11T13:07:42.91Z</time></trkpt><trkpt lat="45.436155" lon="9.5397633"><ele>92.33333333333334</ele><time>2026-04-11T13:07:43.91Z</time></trkpt><trkpt lat="45.4363067" lon="9.539635"><ele>92.66666666666667</ele><time>2026-04-11T13:07:44.91Z</time></trkpt><trkpt lat="45.4364533" lon="9.5395217"><ele>93.0</ele><time>2026-04-11T13:07:45.91Z</time></trkpt><trkpt lat="45.436605" lon="9.5394033"><ele>93.0</ele><time>2026-04-11T13:07:46.91Z</time></trkpt><trkpt lat="45.43675" lon="9.5392783"><ele>93.0</ele><time>2026-04-11T13:07:47.91Z</time></trkpt><trkpt lat="45.436895" lon="9.5391533"><ele>93.0</ele><time>2026-04-11T13:07:48.909Z</time></trkpt><trkpt lat="45.4370417" lon="9.53903"><ele>93.0</ele><time>2026-04-11T13:07:49.91Z</time></trkpt><trkpt lat="45.43719" lon="9.5389083"><ele>93.0</ele><time>2026-04-11T13:07:50.909Z</time></trkpt><trkpt lat="45.437345" lon="9.538785"><ele>93.0</ele><time>2026-04-11T13:07:51.909Z</time></trkpt><trkpt lat="45.4375033" lon="9.53866"><ele>93.0</ele><time>2026-04-11T13:07:52.909Z</time></trkpt><trkpt lat="45.4376567" lon="9.5385383"><ele>93.0</ele><time>2026-04-11T13:07:53.909Z</time></trkpt><trkpt lat="45.4378083" lon="9.5384083"><ele>93.0</ele><time>2026-04-11T13:07:54.909Z</time></trkpt><trkpt lat="45.437965" lon="9.5382767"><ele>93.0</ele><time>2026-04-11T13:07:55.909Z</time></trkpt><trkpt lat="45.4381283" lon="9.5381517"><ele>93.0</ele><time>2026-04-11T13:07:56.908Z</time></trkpt><trkpt lat="45.4383" lon="9.5380117"><ele>93.0</ele><time>2026-04-11T13:07:57.908Z</time></trkpt><trkpt lat="45.4384717" lon="9.5378767"><ele>93.0</ele><time>2026-04-11T13:07:58.909Z</time></trkpt><trkpt lat="45.438635" lon="9.5377433"><ele>93.0</ele><time>2026-04-11T13:07:59.909Z</time></trkpt><trkpt lat="45.4387883" lon="9.537605"><ele>93.0</ele><time>2026-04-11T13:08:00.909Z</time></trkpt><trkpt lat="45.438945" lon="9.5374767"><ele>92.66666666666667</ele><time>2026-04-11T13:08:01.909Z</time></trkpt><trkpt lat="45.4391133" lon="9.537335"><ele>92.33333333333334</ele><time>2026-04-11T13:08:02.909Z</time></trkpt><trkpt lat="45.4392867" lon="9.537195"><ele>92.0</ele><time>2026-04-11T13:08:03.909Z</time></trkpt><trkpt lat="45.4394583" lon="9.5370583"><ele>92.66666666666667</ele><time>2026-04-11T13:08:04.909Z</time></trkpt><trkpt lat="45.4396383" lon="9.5369083"><ele>93.33333333333333</ele><time>2026-04-11T13:08:05.909Z</time></trkpt><trkpt lat="45.439815" lon="9.5367583"><ele>94.0</ele><time>2026-04-11T13:08:06.909Z</time></trkpt><trkpt lat="45.4399933" lon="9.536605"><ele>94.0</ele><time>2026-04-11T13:08:07.909Z</time></trkpt><trkpt lat="45.440175" lon="9.5364567"><ele>94.0</ele><time>2026-04-11T13:08:08.909Z</time></trkpt><trkpt lat="45.4403583" lon="9.5363033"><ele>94.0</ele><time>2026-04-11T13:08:09.909Z</time></trkpt><trkpt lat="45.4405483" lon="9.536155"><ele>94.0</ele><time>2026-04-11T13:08:10.909Z</time></trkpt><trkpt lat="45.440735" lon="9.535995"><ele>94.0</ele><time>2026-04-11T13:08:11.909Z</time></trkpt><trkpt lat="45.4409317" lon="9.535835"><ele>94.0</ele><time>2026-04-11T13:08:12.909Z</time></trkpt><trkpt lat="45.4411333" lon="9.5356717"><ele>94.0</ele><time>2026-04-11T13:08:13.909Z</time></trkpt><trkpt lat="45.4413333" lon="9.5355033"><ele>94.0</ele><time>2026-04-11T13:08:14.909Z</time></trkpt><trkpt lat="45.4415383" lon="9.5353317"><ele>94.0</ele><time>2026-04-11T13:08:15.909Z</time></trkpt><trkpt lat="45.441745" lon="9.5351617"><ele>94.0</ele><time>2026-04-11T13:08:16.909Z</time></trkpt><trkpt lat="45.44196" lon="9.534985"><ele>95.0</ele><time>2026-04-11T13:08:17.909Z</time></trkpt><trkpt lat="45.442175" lon="9.53481"><ele>96.0</ele><time>2026-04-11T13:08:18.909Z</time></trkpt><trkpt lat="45.4423883" lon="9.5346317"><ele>95.5</ele><time>2026-04-11T13:08:19.909Z</time></trkpt><trkpt lat="45.4426083" lon="9.5344533"><ele>95.0</ele><time>2026-04-11T13:08:20.909Z</time></trkpt><trkpt lat="45.44283" lon="9.5342733"><ele>95.0</ele><time>2026-04-11T13:08:21.909Z</time></trkpt><trkpt lat="45.443055" lon="9.5340917"><ele>95.0</ele><time>2026-04-11T13:08:22.909Z</time></trkpt><trkpt lat="45.443275" lon="9.5339117"><ele>95.0</ele><time>2026-04-11T13:08:23.909Z</time></trkpt><trkpt lat="45.443495" lon="9.5337267"><ele>95.0</ele><time>2026-04-11T13:08:24.909Z</time></trkpt><trkpt lat="45.443715" lon="9.533545"><ele>95.0</ele><time>2026-04-11T13:08:25.909Z</time></trkpt><trkpt lat="45.4439317" lon="9.53337"><ele>95.0</ele><time>2026-04-11T13:08:26.909Z</time></trkpt><trkpt lat="45.4441483" lon="9.5331883"><ele>95.0</ele><time>2026-04-11T13:08:27.909Z</time></trkpt><trkpt lat="45.4443633" lon="9.5330083"><ele>95.0</ele><time>2026-04-11T13:08:28.909Z</time></trkpt><trkpt lat="45.4445767" lon="9.5328333"><ele>95.0</ele><time>2026-04-11T13:08:29.909Z</time></trkpt><trkpt lat="45.4447917" lon="9.532655"><ele>95.0</ele><time>2026-04-11T13:08:30.908Z</time></trkpt><trkpt lat="45.445005" lon="9.5324833"><ele>95.0</ele><time>2026-04-11T13:08:31.909Z</time></trkpt><trkpt lat="45.44521" lon="9.53232"><ele>95.0</ele><time>2026-04-11T13:08:32.909Z</time></trkpt><trkpt lat="45.4454183" lon="9.5321533"><ele>94.5</ele><time>2026-04-11T13:08:33.909Z</time></trkpt><trkpt lat="45.44562" lon="9.53199"><ele>94.0</ele><time>2026-04-11T13:08:34.909Z</time></trkpt><trkpt lat="45.44582" lon="9.5318233"><ele>94.0</ele><time>2026-04-11T13:08:35.909Z</time></trkpt><trkpt lat="45.4460217" lon="9.5316583"><ele>94.0</ele><time>2026-04-11T13:08:36.909Z</time></trkpt><trkpt lat="45.446225" lon="9.5314933"><ele>94.5</ele><time>2026-04-11T13:08:37.909Z</time></trkpt><trkpt lat="45.4464283" lon="9.5313317"><ele>95.0</ele><time>2026-04-11T13:08:38.909Z</time></trkpt><trkpt lat="45.446625" lon="9.5311683"><ele>95.5</ele><time>2026-04-11T13:08:39.909Z</time></trkpt><trkpt lat="45.4468267" lon="9.5310017"><ele>96.0</ele><time>2026-04-11T13:08:40.909Z</time></trkpt><trkpt lat="45.447025" lon="9.5308433"><ele>95.5</ele><time>2026-04-11T13:08:41.909Z</time></trkpt><trkpt lat="45.44722" lon="9.5306767"><ele>95.0</ele><time>2026-04-11T13:08:42.909Z</time></trkpt><trkpt lat="45.447415" lon="9.530515"><ele>95.0</ele><time>2026-04-11T13:08:43.909Z</time></trkpt><trkpt lat="45.44761" lon="9.5303567"><ele>95.0</ele><time>2026-04-11T13:08:44.909Z</time></trkpt><trkpt lat="45.4478033" lon="9.5301967"><ele>95.0</ele><time>2026-04-11T13:08:45.909Z</time></trkpt><trkpt lat="45.4479967" lon="9.5300383"><ele>95.0</ele><time>2026-04-11T13:08:46.909Z</time></trkpt><trkpt lat="45.44819" lon="9.5298783"><ele>95.0</ele><time>2026-04-11T13:08:47.908Z</time></trkpt><trkpt lat="45.448375" lon="9.5297233"><ele>95.0</ele><time>2026-04-11T13:08:48.909Z</time></trkpt><trkpt lat="45.4485517" lon="9.529585"><ele>94.66666666666667</ele><time>2026-04-11T13:08:49.909Z</time></trkpt><trkpt lat="45.4487283" lon="9.5294433"><ele>94.33333333333333</ele><time>2026-04-11T13:08:50.909Z</time></trkpt><trkpt lat="45.4489067" lon="9.5292983"><ele>94.0</ele><time>2026-04-11T13:08:51.909Z</time></trkpt><trkpt lat="45.44909" lon="9.5291533"><ele>94.33333333333333</ele><time>2026-04-11T13:08:52.908Z</time></trkpt><trkpt lat="45.4492717" lon="9.529"><ele>94.66666666666667</ele><time>2026-04-11T13:08:53.909Z</time></trkpt><trkpt lat="45.44946" lon="9.5288483"><ele>95.0</ele><time>2026-04-11T13:08:54.909Z</time></trkpt><trkpt lat="45.4496433" lon="9.5286933"><ele>95.0</ele><time>2026-04-11T13:08:55.909Z</time></trkpt><trkpt lat="45.4498317" lon="9.5285367"><ele>95.0</ele><time>2026-04-11T13:08:56.909Z</time></trkpt><trkpt lat="45.4500283" lon="9.528375"><ele>95.0</ele><time>2026-04-11T13:08:57.909Z</time></trkpt><trkpt lat="45.4502183" lon="9.52822"><ele>95.0</ele><time>2026-04-11T13:08:58.909Z</time></trkpt><trkpt lat="45.4504117" lon="9.5280583"><ele>95.0</ele><time>2026-04-11T13:08:59.909Z</time></trkpt><trkpt lat="45.4506083" lon="9.5279"><ele>94.66666666666667</ele><time>2026-04-11T13:09:00.909Z</time></trkpt><trkpt lat="45.4508" lon="9.527745"><ele>94.33333333333333</ele><time>2026-04-11T13:09:01.909Z</time></trkpt><trkpt lat="45.45099" lon="9.5275883"><ele>94.0</ele><time>2026-04-11T13:09:02.909Z</time></trkpt><trkpt lat="45.45118" lon="9.5274333"><ele>94.33333333333333</ele><time>2026-04-11T13:09:03.909Z</time></trkpt><trkpt lat="45.4513683" lon="9.527275"><ele>94.66666666666667</ele><time>2026-04-11T13:09:04.909Z</time></trkpt><trkpt lat="45.4515617" lon="9.5271183"><ele>95.0</ele><time>2026-04-11T13:09:05.909Z</time></trkpt><trkpt lat="45.4517567" lon="9.52696"><ele>95.0</ele><time>2026-04-11T13:09:06.909Z</time></trkpt><trkpt lat="45.4519467" lon="9.5268067"><ele>95.0</ele><time>2026-04-11T13:09:07.909Z</time></trkpt><trkpt lat="45.4521267" lon="9.52665"><ele>95.0</ele><time>2026-04-11T13:09:08.908Z</time></trkpt><trkpt lat="45.4523133" lon="9.5264933"><ele>95.33333333333334</ele><time>2026-04-11T13:09:09.909Z</time></trkpt><trkpt lat="45.4525" lon="9.5263417"><ele>95.66666666666667</ele><time>2026-04-11T13:09:10.909Z</time></trkpt><trkpt lat="45.4526833" lon="9.5261883"><ele>96.0</ele><time>2026-04-11T13:09:11.909Z</time></trkpt><trkpt lat="45.4528667" lon="9.526035"><ele>96.0</ele><time>2026-04-11T13:09:12.909Z</time></trkpt><trkpt lat="45.4530517" lon="9.5258817"><ele>96.0</ele><time>2026-04-11T13:09:13.908Z</time></trkpt><trkpt lat="45.45324" lon="9.5257333"><ele>96.0</ele><time>2026-04-11T13:09:14.909Z</time></trkpt><trkpt lat="45.4534233" lon="9.5255883"><ele>96.0</ele><time>2026-04-11T13:09:15.909Z</time></trkpt><trkpt lat="45.453615" lon="9.5254317"><ele>96.0</ele><time>2026-04-11T13:09:16.909Z</time></trkpt><trkpt lat="45.4537983" lon="9.5252783"><ele>96.0</ele><time>2026-04-11T13:09:17.909Z</time></trkpt><trkpt lat="45.453985" lon="9.5251333"><ele>95.66666666666667</ele><time>2026-04-11T13:09:18.908Z</time></trkpt><trkpt lat="45.454165" lon="9.5249833"><ele>95.33333333333334</ele><time>2026-04-11T13:09:19.909Z</time></trkpt><trkpt lat="45.454345" lon="9.5248367"><ele>95.0</ele><time>2026-04-11T13:09:20.909Z</time></trkpt><trkpt lat="45.454525" lon="9.5246883"><ele>95.0</ele><time>2026-04-11T13:09:21.909Z</time></trkpt><trkpt lat="45.454705" lon="9.5245367"><ele>95.0</ele><time>2026-04-11T13:09:22.909Z</time></trkpt><trkpt lat="45.4548817" lon="9.5243867"><ele>95.0</ele><time>2026-04-11T13:09:23.909Z</time></trkpt><trkpt lat="45.4550667" lon="9.5242467"><ele>95.0</ele><time>2026-04-11T13:09:24.909Z</time></trkpt><trkpt lat="45.4552467" lon="9.5240967"><ele>95.0</ele><time>2026-04-11T13:09:25.909Z</time></trkpt><trkpt lat="45.455425" lon="9.5239517"><ele>95.0</ele><time>2026-04-11T13:09:26.909Z</time></trkpt><trkpt lat="45.4556017" lon="9.523805"><ele>95.33333333333334</ele><time>2026-04-11T13:09:27.909Z</time></trkpt><trkpt lat="45.4557817" lon="9.523655"><ele>95.66666666666667</ele><time>2026-04-11T13:09:28.908Z</time></trkpt><trkpt lat="45.455955" lon="9.52351"><ele>96.0</ele><time>2026-04-11T13:09:29.909Z</time></trkpt><trkpt lat="45.4561383" lon="9.5233683"><ele>96.66666666666666</ele><time>2026-04-11T13:09:30.909Z</time></trkpt><trkpt lat="45.4563117" lon="9.523225"><ele>97.33333333333333</ele><time>2026-04-11T13:09:31.908Z</time></trkpt><trkpt lat="45.456495" lon="9.5230817"><ele>98.0</ele><time>2026-04-11T13:09:32.909Z</time></trkpt><trkpt lat="45.456675" lon="9.5229383"><ele>97.66666666666666</ele><time>2026-04-11T13:09:33.909Z</time></trkpt><trkpt lat="45.456845" lon="9.5228"><ele>97.33333333333334</ele><time>2026-04-11T13:09:34.909Z</time></trkpt><trkpt lat="45.4570133" lon="9.5226517"><ele>97.0</ele><time>2026-04-11T13:09:35.909Z</time></trkpt><trkpt lat="45.4571833" lon="9.522495"><ele>96.66666666666667</ele><time>2026-04-11T13:09:36.908Z</time></trkpt><trkpt lat="45.4573533" lon="9.5223533"><ele>96.33333333333334</ele><time>2026-04-11T13:09:37.909Z</time></trkpt><trkpt lat="45.4575317" lon="9.52221"><ele>96.0</ele><time>2026-04-11T13:09:38.909Z</time></trkpt><trkpt lat="45.4577017" lon="9.52207"><ele>96.33333333333334</ele><time>2026-04-11T13:09:39.909Z</time></trkpt><trkpt lat="45.4578717" lon="9.5219283"><ele>96.66666666666667</ele><time>2026-04-11T13:09:40.909Z</time></trkpt><trkpt lat="45.458045" lon="9.5217883"><ele>97.0</ele><time>2026-04-11T13:09:41.909Z</time></trkpt><trkpt lat="45.45821" lon="9.5216483"><ele>97.0</ele><time>2026-04-11T13:09:42.909Z</time></trkpt><trkpt lat="45.4583817" lon="9.52151"><ele>97.0</ele><time>2026-04-11T13:09:43.909Z</time></trkpt><trkpt lat="45.45855" lon="9.5213683"><ele>97.0</ele><time>2026-04-11T13:09:44.909Z</time></trkpt><trkpt lat="45.4587183" lon="9.52123"><ele>96.33333333333334</ele><time>2026-04-11T13:09:45.909Z</time></trkpt><trkpt lat="45.4588867" lon="9.5211033"><ele>95.66666666666667</ele><time>2026-04-11T13:09:46.909Z</time></trkpt><trkpt lat="45.4590517" lon="9.5209917"><ele>95.0</ele><time>2026-04-11T13:09:47.908Z</time></trkpt><trkpt lat="45.459215" lon="9.5208933"><ele>95.0</ele><time>2026-04-11T13:09:48.909Z</time></trkpt><trkpt lat="45.459385" lon="9.5207933"><ele>95.0</ele><time>2026-04-11T13:09:49.909Z</time></trkpt><trkpt lat="45.4595667" lon="9.5206917"><ele>95.0</ele><time>2026-04-11T13:09:50.909Z</time></trkpt><trkpt lat="45.4597583" lon="9.52061"><ele>95.66666666666667</ele><time>2026-04-11T13:09:51.909Z</time></trkpt><trkpt lat="45.4599467" lon="9.5205483"><ele>96.33333333333334</ele><time>2026-04-11T13:09:52.909Z</time></trkpt><trkpt lat="45.4601433" lon="9.5204983"><ele>97.0</ele><time>2026-04-11T13:09:53.909Z</time></trkpt><trkpt lat="45.460345" lon="9.5204517"><ele>97.66666666666667</ele><time>2026-04-11T13:09:54.909Z</time></trkpt><trkpt lat="45.4605533" lon="9.5204183"><ele>98.33333333333334</ele><time>2026-04-11T13:09:55.909Z</time></trkpt><trkpt lat="45.4607583" lon="9.5203967"><ele>99.0</ele><time>2026-04-11T13:09:56.908Z</time></trkpt><trkpt lat="45.4609617" lon="9.52039"><ele>99.0</ele><time>2026-04-11T13:09:57.909Z</time></trkpt><trkpt lat="45.4611633" lon="9.520395"><ele>99.0</ele><time>2026-04-11T13:09:58.909Z</time></trkpt><trkpt lat="45.461375" lon="9.5204167"><ele>99.0</ele><time>2026-04-11T13:09:59.909Z</time></trkpt><trkpt lat="45.4615833" lon="9.5204433"><ele>99.0</ele><time>2026-04-11T13:10:00.909Z</time></trkpt><trkpt lat="45.461795" lon="9.5204717"><ele>99.0</ele><time>2026-04-11T13:10:01.909Z</time></trkpt><trkpt lat="45.4620033" lon="9.5204967"><ele>99.0</ele><time>2026-04-11T13:10:02.909Z</time></trkpt><trkpt lat="45.4622167" lon="9.5205217"><ele>99.0</ele><time>2026-04-11T13:10:03.909Z</time></trkpt><trkpt lat="45.4624333" lon="9.5205467"><ele>99.0</ele><time>2026-04-11T13:10:04.909Z</time></trkpt><trkpt lat="45.4626483" lon="9.5205733"><ele>99.0</ele><time>2026-04-11T13:10:05.909Z</time></trkpt><trkpt lat="45.462865" lon="9.520595"><ele>98.66666666666666</ele><time>2026-04-11T13:10:06.909Z</time></trkpt><trkpt lat="45.4630867" lon="9.520625"><ele>98.33333333333333</ele><time>2026-04-11T13:10:07.909Z</time></trkpt><trkpt lat="45.463305" lon="9.520655"><ele>98.0</ele><time>2026-04-11T13:10:08.909Z</time></trkpt><trkpt lat="45.4635233" lon="9.520685"><ele>98.0</ele><time>2026-04-11T13:10:09.909Z</time></trkpt><trkpt lat="45.4637367" lon="9.5207167"><ele>98.0</ele><time>2026-04-11T13:10:10.909Z</time></trkpt><trkpt lat="45.4639517" lon="9.5207417"><ele>98.0</ele><time>2026-04-11T13:10:11.909Z</time></trkpt><trkpt lat="45.4641583" lon="9.520775"><ele>98.66666666666666</ele><time>2026-04-11T13:10:12.909Z</time></trkpt><trkpt lat="45.4643667" lon="9.520795"><ele>99.33333333333334</ele><time>2026-04-11T13:10:13.909Z</time></trkpt><trkpt lat="45.46457" lon="9.520815"><ele>100.0</ele><time>2026-04-11T13:10:14.909Z</time></trkpt><trkpt lat="45.4647583" lon="9.52084"><ele>100.0</ele><time>2026-04-11T13:10:15.909Z</time></trkpt><trkpt lat="45.4649517" lon="9.5208633"><ele>100.0</ele><time>2026-04-11T13:10:16.909Z</time></trkpt><trkpt lat="45.4651433" lon="9.52089"><ele>100.0</ele><time>2026-04-11T13:10:17.909Z</time></trkpt><trkpt lat="45.465335" lon="9.5209183"><ele>99.66666666666667</ele><time>2026-04-11T13:10:18.909Z</time></trkpt><trkpt lat="45.4655283" lon="9.5209367"><ele>99.33333333333334</ele><time>2026-04-11T13:10:19.909Z</time></trkpt><trkpt lat="45.4657233" lon="9.5209617"><ele>99.0</ele><time>2026-04-11T13:10:20.909Z</time></trkpt><trkpt lat="45.4659167" lon="9.52099"><ele>99.0</ele><time>2026-04-11T13:10:21.909Z</time></trkpt><trkpt lat="45.4661083" lon="9.521015"><ele>99.0</ele><time>2026-04-11T13:10:22.908Z</time></trkpt><trkpt lat="45.4663033" lon="9.521035"><ele>99.0</ele><time>2026-04-11T13:10:23.909Z</time></trkpt><trkpt lat="45.466505" lon="9.52106"><ele>99.0</ele><time>2026-04-11T13:10:24.909Z</time></trkpt><trkpt lat="45.4667083" lon="9.5210917"><ele>99.0</ele><time>2026-04-11T13:10:25.909Z</time></trkpt><trkpt lat="45.46692" lon="9.5211217"><ele>99.0</ele><time>2026-04-11T13:10:26.909Z</time></trkpt><trkpt lat="45.4671317" lon="9.5211517"><ele>100.0</ele><time>2026-04-11T13:10:27.909Z</time></trkpt><trkpt lat="45.4673433" lon="9.5211717"><ele>101.0</ele><time>2026-04-11T13:10:28.909Z</time></trkpt><trkpt lat="45.4675583" lon="9.5211983"><ele>102.0</ele><time>2026-04-11T13:10:29.909Z</time></trkpt><trkpt lat="45.4677783" lon="9.5212183"><ele>101.33333333333334</ele><time>2026-04-11T13:10:30.909Z</time></trkpt><trkpt lat="45.4679933" lon="9.5212417"><ele>100.66666666666667</ele><time>2026-04-11T13:10:31.908Z</time></trkpt><trkpt lat="45.4682083" lon="9.5212667"><ele>100.0</ele><time>2026-04-11T13:10:32.908Z</time></trkpt><trkpt lat="45.46842" lon="9.5212917"><ele>100.0</ele><time>2026-04-11T13:10:33.909Z</time></trkpt><trkpt lat="45.4686267" lon="9.5213167"><ele>100.0</ele><time>2026-04-11T13:10:34.909Z</time></trkpt><trkpt lat="45.46884" lon="9.521335"><ele>100.0</ele><time>2026-04-11T13:10:35.909Z</time></trkpt><trkpt lat="45.4690383" lon="9.52136"><ele>100.66666666666667</ele><time>2026-04-11T13:10:36.909Z</time></trkpt><trkpt lat="45.4692417" lon="9.5213767"><ele>101.33333333333334</ele><time>2026-04-11T13:10:37.909Z</time></trkpt><trkpt lat="45.4694433" lon="9.5213967"><ele>102.0</ele><time>2026-04-11T13:10:38.909Z</time></trkpt><trkpt lat="45.4696483" lon="9.521415"><ele>102.33333333333334</ele><time>2026-04-11T13:10:39.909Z</time></trkpt><trkpt lat="45.4698567" lon="9.5214467"><ele>102.66666666666667</ele><time>2026-04-11T13:10:40.909Z</time></trkpt><trkpt lat="45.4700733" lon="9.52147"><ele>103.0</ele><time>2026-04-11T13:10:41.909Z</time></trkpt><trkpt lat="45.4702783" lon="9.5215"><ele>102.66666666666667</ele><time>2026-04-11T13:10:42.909Z</time></trkpt><trkpt lat="45.4704817" lon="9.521525"><ele>102.33333333333334</ele><time>2026-04-11T13:10:43.909Z</time></trkpt><trkpt lat="45.4706883" lon="9.52155"><ele>102.0</ele><time>2026-04-11T13:10:44.909Z</time></trkpt><trkpt lat="45.4708967" lon="9.52158"><ele>102.0</ele><time>2026-04-11T13:10:45.909Z</time></trkpt><trkpt lat="45.4711" lon="9.5216067"><ele>102.0</ele><time>2026-04-11T13:10:46.909Z</time></trkpt><trkpt lat="45.4713067" lon="9.521635"><ele>102.0</ele><time>2026-04-11T13:10:47.909Z</time></trkpt><trkpt lat="45.4715167" lon="9.5216583"><ele>102.0</ele><time>2026-04-11T13:10:48.909Z</time></trkpt><trkpt lat="45.471725" lon="9.5216783"><ele>102.0</ele><time>2026-04-11T13:10:49.909Z</time></trkpt><trkpt lat="45.47193" lon="9.521705"><ele>102.0</ele><time>2026-04-11T13:10:50.909Z</time></trkpt><trkpt lat="45.4721433" lon="9.521735"><ele>102.33333333333334</ele><time>2026-04-11T13:10:51.909Z</time></trkpt><trkpt lat="45.4723517" lon="9.5217633"><ele>102.66666666666667</ele><time>2026-04-11T13:10:52.909Z</time></trkpt><trkpt lat="45.4725633" lon="9.5217983"><ele>103.0</ele><time>2026-04-11T13:10:53.908Z</time></trkpt><trkpt lat="45.4727833" lon="9.5218283"><ele>102.66666666666667</ele><time>2026-04-11T13:10:54.909Z</time></trkpt><trkpt lat="45.4729967" lon="9.521855"><ele>102.33333333333334</ele><time>2026-04-11T13:10:55.909Z</time></trkpt><trkpt lat="45.4732117" lon="9.5218717"><ele>102.0</ele><time>2026-04-11T13:10:56.909Z</time></trkpt><trkpt lat="45.4734267" lon="9.521905"><ele>102.0</ele><time>2026-04-11T13:10:57.909Z</time></trkpt><trkpt lat="45.4736467" lon="9.52193"><ele>102.0</ele><time>2026-04-11T13:10:58.909Z</time></trkpt><trkpt lat="45.4738667" lon="9.521955"><ele>102.0</ele><time>2026-04-11T13:10:59.909Z</time></trkpt><trkpt lat="45.4740767" lon="9.5219783"><ele>102.0</ele><time>2026-04-11T13:11:00.909Z</time></trkpt><trkpt lat="45.4742733" lon="9.5220117"><ele>102.0</ele><time>2026-04-11T13:11:01.908Z</time></trkpt><trkpt lat="45.474465" lon="9.5220367"><ele>102.0</ele><time>2026-04-11T13:11:02.909Z</time></trkpt><trkpt lat="45.4746517" lon="9.5220567"><ele>102.0</ele><time>2026-04-11T13:11:03.909Z</time></trkpt><trkpt lat="45.47482" lon="9.52207"><ele>102.0</ele><time>2026-04-11T13:11:04.909Z</time></trkpt><trkpt lat="45.4749783" lon="9.522085"><ele>102.0</ele><time>2026-04-11T13:11:05.909Z</time></trkpt><trkpt lat="45.4751283" lon="9.5221083"><ele>102.0</ele><time>2026-04-11T13:11:06.909Z</time></trkpt><trkpt lat="45.475255" lon="9.52213"><ele>102.0</ele><time>2026-04-11T13:11:07.909Z</time></trkpt><trkpt lat="45.4753667" lon="9.52215"><ele>102.0</ele><time>2026-04-11T13:11:08.908Z</time></trkpt><trkpt lat="45.47546" lon="9.5221633"><ele>102.0</ele><time>2026-04-11T13:11:09.908Z</time></trkpt><trkpt lat="45.4755333" lon="9.5221733"><ele>102.0</ele><time>2026-04-11T13:11:10.908Z</time></trkpt><trkpt lat="45.47561" lon="9.5221933"><ele>102.0</ele><time>2026-04-11T13:11:12.908Z</time></trkpt><trkpt lat="45.4756967" lon="9.5222717"><ele>102.0</ele><time>2026-04-11T13:11:15.907Z</time></trkpt><trkpt lat="45.4757483" lon="9.522335"><ele>102.0</ele><time>2026-04-11T13:11:16.908Z</time></trkpt><trkpt lat="45.4758183" lon="9.5224033"><ele>102.0</ele><time>2026-04-11T13:11:17.908Z</time></trkpt><trkpt lat="45.4759017" lon="9.5224533"><ele>102.0</ele><time>2026-04-11T13:11:18.908Z</time></trkpt><trkpt lat="45.47599" lon="9.5224633"><ele>102.0</ele><time>2026-04-11T13:11:19.908Z</time></trkpt><trkpt lat="45.4760617" lon="9.5224283"><ele>102.0</ele><time>2026-04-11T13:11:20.908Z</time></trkpt><trkpt lat="45.476125" lon="9.5223433"><ele>102.0</ele><time>2026-04-11T13:11:21.907Z</time></trkpt><trkpt lat="45.47616" lon="9.5222367"><ele>102.0</ele><time>2026-04-11T13:11:22.908Z</time></trkpt><trkpt lat="45.47616" lon="9.522105"><ele>102.0</ele><time>2026-04-11T13:11:23.908Z</time></trkpt><trkpt lat="45.4761283" lon="9.5219567"><ele>102.0</ele><time>2026-04-11T13:11:24.908Z</time></trkpt><trkpt lat="45.47608" lon="9.5218"><ele>101.5</ele><time>2026-04-11T13:11:25.908Z</time></trkpt><trkpt lat="45.476025" lon="9.5216133"><ele>101.0</ele><time>2026-04-11T13:11:26.908Z</time></trkpt><trkpt lat="45.47599" lon="9.52142"><ele>100.5</ele><time>2026-04-11T13:11:27.908Z</time></trkpt><trkpt lat="45.4759683" lon="9.5212133"><ele>100.0</ele><time>2026-04-11T13:11:28.908Z</time></trkpt><trkpt lat="45.4759467" lon="9.5209917"><ele>99.66666666666667</ele><time>2026-04-11T13:11:29.908Z</time></trkpt><trkpt lat="45.4759283" lon="9.5207633"><ele>99.33333333333334</ele><time>2026-04-11T13:11:30.908Z</time></trkpt><trkpt lat="45.47591" lon="9.52052"><ele>99.0</ele><time>2026-04-11T13:11:31.908Z</time></trkpt><trkpt lat="45.47589" lon="9.5202767"><ele>99.66666666666666</ele><time>2026-04-11T13:11:32.908Z</time></trkpt><trkpt lat="45.475875" lon="9.5200283"><ele>100.33333333333333</ele><time>2026-04-11T13:11:33.908Z</time></trkpt><trkpt lat="45.4758567" lon="9.519785"><ele>101.0</ele><time>2026-04-11T13:11:34.908Z</time></trkpt><trkpt lat="45.47584" lon="9.5195383"><ele>101.0</ele><time>2026-04-11T13:11:35.908Z</time></trkpt><trkpt lat="45.475825" lon="9.51929"><ele>101.0</ele><time>2026-04-11T13:11:36.907Z</time></trkpt><trkpt lat="45.4758067" lon="9.5190383"><ele>101.0</ele><time>2026-04-11T13:11:37.908Z</time></trkpt><trkpt lat="45.47579" lon="9.5187883"><ele>101.0</ele><time>2026-04-11T13:11:38.908Z</time></trkpt><trkpt lat="45.4757733" lon="9.5185483"><ele>101.0</ele><time>2026-04-11T13:11:39.908Z</time></trkpt><trkpt lat="45.4757533" lon="9.5183017"><ele>101.0</ele><time>2026-04-11T13:11:40.908Z</time></trkpt><trkpt lat="45.47573" lon="9.51805"><ele>101.66666666666666</ele><time>2026-04-11T13:11:41.908Z</time></trkpt><trkpt lat="45.47571" lon="9.5177933"><ele>102.33333333333334</ele><time>2026-04-11T13:11:42.908Z</time></trkpt><trkpt lat="45.475695" lon="9.5175333"><ele>103.0</ele><time>2026-04-11T13:11:43.908Z</time></trkpt><trkpt lat="45.4756767" lon="9.5172667"><ele>103.0</ele><time>2026-04-11T13:11:44.908Z</time></trkpt><trkpt lat="45.4756583" lon="9.5169967"><ele>103.0</ele><time>2026-04-11T13:11:45.908Z</time></trkpt><trkpt lat="45.47564" lon="9.5167233"><ele>103.0</ele><time>2026-04-11T13:11:46.908Z</time></trkpt><trkpt lat="45.475615" lon="9.5164417"><ele>102.66666666666667</ele><time>2026-04-11T13:11:47.908Z</time></trkpt><trkpt lat="45.4756" lon="9.51616"><ele>102.33333333333334</ele><time>2026-04-11T13:11:48.908Z</time></trkpt><trkpt lat="45.47558" lon="9.5158633"><ele>102.0</ele><time>2026-04-11T13:11:49.908Z</time></trkpt><trkpt lat="45.4755567" lon="9.515565"><ele>102.0</ele><time>2026-04-11T13:11:50.908Z</time></trkpt><trkpt lat="45.475535" lon="9.5152783"><ele>102.0</ele><time>2026-04-11T13:11:51.908Z</time></trkpt><trkpt lat="45.4755183" lon="9.5150167"><ele>102.0</ele><time>2026-04-11T13:11:52.908Z</time></trkpt><trkpt lat="45.4755" lon="9.514765"><ele>102.0</ele><time>2026-04-11T13:11:53.908Z</time></trkpt><trkpt lat="45.4754833" lon="9.5145383"><ele>102.0</ele><time>2026-04-11T13:11:54.908Z</time></trkpt><trkpt lat="45.4754667" lon="9.5143383"><ele>102.0</ele><time>2026-04-11T13:11:55.908Z</time></trkpt><trkpt lat="45.47546" lon="9.51415"><ele>102.0</ele><time>2026-04-11T13:11:56.908Z</time></trkpt><trkpt lat="45.475455" lon="9.5139733"><ele>102.0</ele><time>2026-04-11T13:11:57.908Z</time></trkpt><trkpt lat="45.4754617" lon="9.5138"><ele>102.0</ele><time>2026-04-11T13:11:58.908Z</time></trkpt><trkpt lat="45.47548" lon="9.51364"><ele>102.0</ele><time>2026-04-11T13:11:59.908Z</time></trkpt><trkpt lat="45.4754983" lon="9.5134783"><ele>102.0</ele><time>2026-04-11T13:12:00.907Z</time></trkpt><trkpt lat="45.4755" lon="9.5133083"><ele>102.0</ele><time>2026-04-11T13:12:01.907Z</time></trkpt><trkpt lat="45.475495" lon="9.5131217"><ele>102.0</ele><time>2026-04-11T13:12:02.908Z</time></trkpt><trkpt lat="45.47547" lon="9.5129267"><ele>102.0</ele><time>2026-04-11T13:12:03.908Z</time></trkpt><trkpt lat="45.4754317" lon="9.5127183"><ele>102.0</ele><time>2026-04-11T13:12:04.908Z</time></trkpt><trkpt lat="45.4753833" lon="9.5125067"><ele>102.0</ele><time>2026-04-11T13:12:05.908Z</time></trkpt><trkpt lat="45.4753517" lon="9.5122917"><ele>102.0</ele><time>2026-04-11T13:12:06.908Z</time></trkpt><trkpt lat="45.4753117" lon="9.51206"><ele>102.0</ele><time>2026-04-11T13:12:07.908Z</time></trkpt><trkpt lat="45.475295" lon="9.511825"><ele>101.66666666666666</ele><time>2026-04-11T13:12:08.908Z</time></trkpt><trkpt lat="45.47527" lon="9.511605"><ele>101.33333333333333</ele><time>2026-04-11T13:12:09.908Z</time></trkpt><trkpt lat="45.4752567" lon="9.51139"><ele>101.0</ele><time>2026-04-11T13:12:10.908Z</time></trkpt><trkpt lat="45.4752433" lon="9.51118"><ele>100.33333333333333</ele><time>2026-04-11T13:12:11.908Z</time></trkpt><trkpt lat="45.475225" lon="9.510965"><ele>99.66666666666666</ele><time>2026-04-11T13:12:12.908Z</time></trkpt><trkpt lat="45.4752083" lon="9.510745"><ele>99.0</ele><time>2026-04-11T13:12:13.907Z</time></trkpt><trkpt lat="45.4751883" lon="9.51051"><ele>99.33333333333334</ele><time>2026-04-11T13:12:14.908Z</time></trkpt><trkpt lat="45.4751683" lon="9.5102733"><ele>99.66666666666667</ele><time>2026-04-11T13:12:15.907Z</time></trkpt><trkpt lat="45.4751517" lon="9.51003"><ele>100.0</ele><time>2026-04-11T13:12:16.908Z</time></trkpt><trkpt lat="45.4751367" lon="9.5097867"><ele>99.66666666666667</ele><time>2026-04-11T13:12:17.908Z</time></trkpt><trkpt lat="45.4751217" lon="9.5095367"><ele>99.33333333333334</ele><time>2026-04-11T13:12:18.908Z</time></trkpt><trkpt lat="45.4751017" lon="9.5092967"><ele>99.0</ele><time>2026-04-11T13:12:19.908Z</time></trkpt><trkpt lat="45.4750883" lon="9.5090383"><ele>99.0</ele><time>2026-04-11T13:12:20.908Z</time></trkpt><trkpt lat="45.47507" lon="9.50879"><ele>99.0</ele><time>2026-04-11T13:12:21.907Z</time></trkpt><trkpt lat="45.4750533" lon="9.50855"><ele>99.0</ele><time>2026-04-11T13:12:22.908Z</time></trkpt><trkpt lat="45.47504" lon="9.5083317"><ele>98.75</ele><time>2026-04-11T13:12:23.908Z</time></trkpt><trkpt lat="45.475025" lon="9.5081217"><ele>98.5</ele><time>2026-04-11T13:12:24.907Z</time></trkpt><trkpt lat="45.47501" lon="9.5079133"><ele>98.25</ele><time>2026-04-11T13:12:25.908Z</time></trkpt><trkpt lat="45.4749967" lon="9.5077067"><ele>98.0</ele><time>2026-04-11T13:12:26.908Z</time></trkpt><trkpt lat="45.4749767" lon="9.50751"><ele>98.0</ele><time>2026-04-11T13:12:27.908Z</time></trkpt><trkpt lat="45.4749667" lon="9.507325"><ele>98.0</ele><time>2026-04-11T13:12:28.908Z</time></trkpt><trkpt lat="45.474955" lon="9.5071483"><ele>98.0</ele><time>2026-04-11T13:12:29.908Z</time></trkpt><trkpt lat="45.4749467" lon="9.5069867"><ele>98.0</ele><time>2026-04-11T13:12:30.908Z</time></trkpt><trkpt lat="45.4749367" lon="9.5068317"><ele>98.25</ele><time>2026-04-11T13:12:31.908Z</time></trkpt><trkpt lat="45.47493" lon="9.5066767"><ele>98.5</ele><time>2026-04-11T13:12:32.908Z</time></trkpt><trkpt lat="45.4749183" lon="9.506515"><ele>98.75</ele><time>2026-04-11T13:12:33.907Z</time></trkpt><trkpt lat="45.4749067" lon="9.5063433"><ele>99.0</ele><time>2026-04-11T13:12:34.908Z</time></trkpt><trkpt lat="45.4749133" lon="9.5061583"><ele>99.0</ele><time>2026-04-11T13:12:35.908Z</time></trkpt><trkpt lat="45.4749083" lon="9.5059733"><ele>99.0</ele><time>2026-04-11T13:12:36.908Z</time></trkpt><trkpt lat="45.4749067" lon="9.5057867"><ele>99.0</ele><time>2026-04-11T13:12:37.908Z</time></trkpt><trkpt lat="45.4749117" lon="9.505575"><ele>99.0</ele><time>2026-04-11T13:12:38.908Z</time></trkpt><trkpt lat="45.4749233" lon="9.50537"><ele>99.66666666666666</ele><time>2026-04-11T13:12:39.908Z</time></trkpt><trkpt lat="45.4749417" lon="9.5051583"><ele>100.33333333333333</ele><time>2026-04-11T13:12:40.908Z</time></trkpt><trkpt lat="45.4749667" lon="9.5049333"><ele>101.0</ele><time>2026-04-11T13:12:41.908Z</time></trkpt><trkpt lat="45.4749933" lon="9.5047083"><ele>101.0</ele><time>2026-04-11T13:12:42.908Z</time></trkpt><trkpt lat="45.4750267" lon="9.5044733"><ele>101.0</ele><time>2026-04-11T13:12:43.908Z</time></trkpt><trkpt lat="45.475065" lon="9.5042383"><ele>101.0</ele><time>2026-04-11T13:12:44.908Z</time></trkpt><trkpt lat="45.475105" lon="9.5039983"><ele>101.0</ele><time>2026-04-11T13:12:45.908Z</time></trkpt><trkpt lat="45.4751517" lon="9.503775"><ele>101.0</ele><time>2026-04-11T13:12:46.908Z</time></trkpt><trkpt lat="45.475195" lon="9.5035583"><ele>101.0</ele><time>2026-04-11T13:12:47.908Z</time></trkpt><trkpt lat="45.4752417" lon="9.5033367"><ele>100.33333333333333</ele><time>2026-04-11T13:12:48.908Z</time></trkpt><trkpt lat="45.4752917" lon="9.5031067"><ele>99.66666666666666</ele><time>2026-04-11T13:12:49.908Z</time></trkpt><trkpt lat="45.475335" lon="9.5028733"><ele>99.0</ele><time>2026-04-11T13:12:50.908Z</time></trkpt><trkpt lat="45.4753733" lon="9.5026383"><ele>99.0</ele><time>2026-04-11T13:12:51.908Z</time></trkpt><trkpt lat="45.475415" lon="9.5024"><ele>99.0</ele><time>2026-04-11T13:12:52.908Z</time></trkpt><trkpt lat="45.47546" lon="9.5021583"><ele>99.0</ele><time>2026-04-11T13:12:53.908Z</time></trkpt><trkpt lat="45.4755083" lon="9.50192"><ele>99.66666666666666</ele><time>2026-04-11T13:12:54.907Z</time></trkpt><trkpt lat="45.47555" lon="9.5017067"><ele>100.33333333333333</ele><time>2026-04-11T13:12:55.907Z</time></trkpt><trkpt lat="45.4755833" lon="9.5015017"><ele>101.0</ele><time>2026-04-11T13:12:56.908Z</time></trkpt><trkpt lat="45.4756183" lon="9.50129"><ele>101.66666666666666</ele><time>2026-04-11T13:12:57.908Z</time></trkpt><trkpt lat="45.4756567" lon="9.5010783"><ele>102.33333333333334</ele><time>2026-04-11T13:12:58.908Z</time></trkpt><trkpt lat="45.4757017" lon="9.5008483"><ele>103.0</ele><time>2026-04-11T13:12:59.907Z</time></trkpt><trkpt lat="45.4757433" lon="9.50062"><ele>103.0</ele><time>2026-04-11T13:13:00.908Z</time></trkpt><trkpt lat="45.4757917" lon="9.5003783"><ele>103.0</ele><time>2026-04-11T13:13:01.907Z</time></trkpt><trkpt lat="45.4758383" lon="9.5001367"><ele>103.0</ele><time>2026-04-11T13:13:02.908Z</time></trkpt><trkpt lat="45.475895" lon="9.4998933"><ele>103.0</ele><time>2026-04-11T13:13:03.907Z</time></trkpt><trkpt lat="45.4759367" lon="9.49965"><ele>103.0</ele><time>2026-04-11T13:13:04.908Z</time></trkpt><trkpt lat="45.4759733" lon="9.49941"><ele>103.0</ele><time>2026-04-11T13:13:05.907Z</time></trkpt><trkpt lat="45.47601" lon="9.49918"><ele>103.0</ele><time>2026-04-11T13:13:06.907Z</time></trkpt><trkpt lat="45.4760517" lon="9.4989667"><ele>103.0</ele><time>2026-04-11T13:13:07.908Z</time></trkpt><trkpt lat="45.476095" lon="9.49876"><ele>103.0</ele><time>2026-04-11T13:13:08.908Z</time></trkpt><trkpt lat="45.4761317" lon="9.4985633"><ele>103.0</ele><time>2026-04-11T13:13:09.908Z</time></trkpt><trkpt lat="45.4761583" lon="9.49837"><ele>102.5</ele><time>2026-04-11T13:13:10.908Z</time></trkpt><trkpt lat="45.4761967" lon="9.4981783"><ele>102.0</ele><time>2026-04-11T13:13:11.908Z</time></trkpt><trkpt lat="45.4762317" lon="9.4979717"><ele>101.5</ele><time>2026-04-11T13:13:12.908Z</time></trkpt><trkpt lat="45.4762717" lon="9.4977517"><ele>101.0</ele><time>2026-04-11T13:13:13.908Z</time></trkpt><trkpt lat="45.4763167" lon="9.497515"><ele>100.66666666666666</ele><time>2026-04-11T13:13:14.908Z</time></trkpt><trkpt lat="45.47636" lon="9.497285"><ele>100.33333333333334</ele><time>2026-04-11T13:13:15.908Z</time></trkpt><trkpt lat="45.4764017" lon="9.4970483"><ele>100.0</ele><time>2026-04-11T13:13:16.908Z</time></trkpt><trkpt lat="45.4764433" lon="9.4968233"><ele>100.0</ele><time>2026-04-11T13:13:17.908Z</time></trkpt><trkpt lat="45.476485" lon="9.4966067"><ele>100.0</ele><time>2026-04-11T13:13:18.908Z</time></trkpt><trkpt lat="45.4765167" lon="9.4964133"><ele>100.0</ele><time>2026-04-11T13:13:19.908Z</time></trkpt><trkpt lat="45.4765467" lon="9.4962217"><ele>100.0</ele><time>2026-04-11T13:13:20.908Z</time></trkpt><trkpt lat="45.4765783" lon="9.4960333"><ele>100.0</ele><time>2026-04-11T13:13:21.908Z</time></trkpt><trkpt lat="45.4766133" lon="9.495835"><ele>100.0</ele><time>2026-04-11T13:13:22.907Z</time></trkpt><trkpt lat="45.4766533" lon="9.49563"><ele>100.0</ele><time>2026-04-11T13:13:23.908Z</time></trkpt><trkpt lat="45.476695" lon="9.4954333"><ele>100.0</ele><time>2026-04-11T13:13:24.908Z</time></trkpt><trkpt lat="45.4767367" lon="9.4952233"><ele>100.0</ele><time>2026-04-11T13:13:25.908Z</time></trkpt><trkpt lat="45.476775" lon="9.4950133"><ele>100.0</ele><time>2026-04-11T13:13:26.907Z</time></trkpt><trkpt lat="45.4768117" lon="9.4948"><ele>100.0</ele><time>2026-04-11T13:13:27.908Z</time></trkpt><trkpt lat="45.4768517" lon="9.4945717"><ele>99.66666666666667</ele><time>2026-04-11T13:13:28.908Z</time></trkpt><trkpt lat="45.476895" lon="9.49434"><ele>99.33333333333334</ele><time>2026-04-11T13:13:29.908Z</time></trkpt><trkpt lat="45.4769383" lon="9.4941133"><ele>99.0</ele><time>2026-04-11T13:13:30.908Z</time></trkpt><trkpt lat="45.4769817" lon="9.4938933"><ele>99.0</ele><time>2026-04-11T13:13:31.908Z</time></trkpt><trkpt lat="45.4770233" lon="9.49366"><ele>99.0</ele><time>2026-04-11T13:13:32.908Z</time></trkpt><trkpt lat="45.47707" lon="9.4934167"><ele>99.0</ele><time>2026-04-11T13:13:33.908Z</time></trkpt><trkpt lat="45.4771133" lon="9.4931733"><ele>99.0</ele><time>2026-04-11T13:13:34.908Z</time></trkpt><trkpt lat="45.477155" lon="9.4929233"><ele>99.0</ele><time>2026-04-11T13:13:35.908Z</time></trkpt><trkpt lat="45.4772033" lon="9.4926717"><ele>99.0</ele><time>2026-04-11T13:13:36.908Z</time></trkpt><trkpt lat="45.477245" lon="9.4924233"><ele>99.0</ele><time>2026-04-11T13:13:37.908Z</time></trkpt><trkpt lat="45.4772883" lon="9.4921767"><ele>99.0</ele><time>2026-04-11T13:13:38.907Z</time></trkpt><trkpt lat="45.4773333" lon="9.49193"><ele>99.0</ele><time>2026-04-11T13:13:39.908Z</time></trkpt><trkpt lat="45.47738" lon="9.4916883"><ele>99.0</ele><time>2026-04-11T13:13:40.908Z</time></trkpt><trkpt lat="45.4774317" lon="9.4914367"><ele>99.0</ele><time>2026-04-11T13:13:41.907Z</time></trkpt><trkpt lat="45.4774717" lon="9.4911967"><ele>99.0</ele><time>2026-04-11T13:13:42.908Z</time></trkpt><trkpt lat="45.477515" lon="9.4909633"><ele>98.66666666666666</ele><time>2026-04-11T13:13:43.908Z</time></trkpt><trkpt lat="45.4775617" lon="9.49072"><ele>98.33333333333333</ele><time>2026-04-11T13:13:44.908Z</time></trkpt><trkpt lat="45.4776083" lon="9.49048"><ele>98.0</ele><time>2026-04-11T13:13:45.908Z</time></trkpt><trkpt lat="45.47765" lon="9.4902467"><ele>98.0</ele><time>2026-04-11T13:13:46.908Z</time></trkpt><trkpt lat="45.4776917" lon="9.4900117"><ele>98.0</ele><time>2026-04-11T13:13:47.908Z</time></trkpt><trkpt lat="45.4777367" lon="9.4897867"><ele>98.0</ele><time>2026-04-11T13:13:48.907Z</time></trkpt><trkpt lat="45.47778" lon="9.4895583"><ele>98.33333333333333</ele><time>2026-04-11T13:13:49.908Z</time></trkpt><trkpt lat="45.477825" lon="9.48933"><ele>98.66666666666666</ele><time>2026-04-11T13:13:50.908Z</time></trkpt><trkpt lat="45.4778667" lon="9.4891033"><ele>99.0</ele><time>2026-04-11T13:13:51.907Z</time></trkpt><trkpt lat="45.47791" lon="9.4888717"><ele>99.33333333333334</ele><time>2026-04-11T13:13:52.908Z</time></trkpt><trkpt lat="45.47795" lon="9.4886367"><ele>99.66666666666667</ele><time>2026-04-11T13:13:53.908Z</time></trkpt><trkpt lat="45.477985" lon="9.48841"><ele>100.0</ele><time>2026-04-11T13:13:54.908Z</time></trkpt><trkpt lat="45.4780283" lon="9.4881783"><ele>100.0</ele><time>2026-04-11T13:13:55.908Z</time></trkpt><trkpt lat="45.47807" lon="9.48794"><ele>100.0</ele><time>2026-04-11T13:13:56.907Z</time></trkpt><trkpt lat="45.4781117" lon="9.4877033"><ele>100.0</ele><time>2026-04-11T13:13:57.908Z</time></trkpt><trkpt lat="45.478155" lon="9.4874533"><ele>99.66666666666667</ele><time>2026-04-11T13:13:58.907Z</time></trkpt><trkpt lat="45.4782" lon="9.48719"><ele>99.33333333333334</ele><time>2026-04-11T13:13:59.908Z</time></trkpt><trkpt lat="45.4782483" lon="9.4869167"><ele>99.0</ele><time>2026-04-11T13:14:00.908Z</time></trkpt><trkpt lat="45.4783017" lon="9.4866517"><ele>99.0</ele><time>2026-04-11T13:14:01.908Z</time></trkpt><trkpt lat="45.4783567" lon="9.4863733"><ele>99.0</ele><time>2026-04-11T13:14:02.908Z</time></trkpt><trkpt lat="45.4784083" lon="9.4860917"><ele>99.0</ele><time>2026-04-11T13:14:03.908Z</time></trkpt><trkpt lat="45.47846" lon="9.4858283"><ele>99.33333333333334</ele><time>2026-04-11T13:14:04.908Z</time></trkpt><trkpt lat="45.4785067" lon="9.4855633"><ele>99.66666666666667</ele><time>2026-04-11T13:14:05.908Z</time></trkpt><trkpt lat="45.4785517" lon="9.4853183"><ele>100.0</ele><time>2026-04-11T13:14:06.908Z</time></trkpt><trkpt lat="45.4786" lon="9.485085"><ele>100.0</ele><time>2026-04-11T13:14:07.908Z</time></trkpt><trkpt lat="45.4786467" lon="9.4848617"><ele>100.0</ele><time>2026-04-11T13:14:08.908Z</time></trkpt><trkpt lat="45.4786883" lon="9.4846433"><ele>100.0</ele><time>2026-04-11T13:14:09.908Z</time></trkpt><trkpt lat="45.4787267" lon="9.48443"><ele>100.25</ele><time>2026-04-11T13:14:10.908Z</time></trkpt><trkpt lat="45.4787667" lon="9.4842217"><ele>100.5</ele><time>2026-04-11T13:14:11.908Z</time></trkpt><trkpt lat="45.4788033" lon="9.4840283"><ele>100.75</ele><time>2026-04-11T13:14:12.908Z</time></trkpt><trkpt lat="45.4788383" lon="9.4838367"><ele>101.0</ele><time>2026-04-11T13:14:13.908Z</time></trkpt><trkpt lat="45.4788683" lon="9.4836483"><ele>102.0</ele><time>2026-04-11T13:14:14.908Z</time></trkpt><trkpt lat="45.4788983" lon="9.483455"><ele>103.0</ele><time>2026-04-11T13:14:15.908Z</time></trkpt><trkpt lat="45.4789367" lon="9.4832583"><ele>104.0</ele><time>2026-04-11T13:14:16.908Z</time></trkpt><trkpt lat="45.47897" lon="9.4830617"><ele>105.0</ele><time>2026-04-11T13:14:17.907Z</time></trkpt><trkpt lat="45.479005" lon="9.4828567"><ele>105.5</ele><time>2026-04-11T13:14:18.908Z</time></trkpt><trkpt lat="45.4790417" lon="9.4826733"><ele>106.0</ele><time>2026-04-11T13:14:19.908Z</time></trkpt><trkpt lat="45.4790767" lon="9.482495"><ele>106.5</ele><time>2026-04-11T13:14:20.908Z</time></trkpt><trkpt lat="45.4791067" lon="9.4823167"><ele>107.0</ele><time>2026-04-11T13:14:21.907Z</time></trkpt><trkpt lat="45.4791417" lon="9.4821367"><ele>107.0</ele><time>2026-04-11T13:14:22.908Z</time></trkpt><trkpt lat="45.4791767" lon="9.4819567"><ele>107.0</ele><time>2026-04-11T13:14:23.908Z</time></trkpt><trkpt lat="45.47921" lon="9.4817717"><ele>107.0</ele><time>2026-04-11T13:14:24.908Z</time></trkpt><trkpt lat="45.479245" lon="9.48157"><ele>107.0</ele><time>2026-04-11T13:14:25.908Z</time></trkpt><trkpt lat="45.4792883" lon="9.4813633"><ele>107.0</ele><time>2026-04-11T13:14:26.907Z</time></trkpt><trkpt lat="45.4793267" lon="9.481155"><ele>107.0</ele><time>2026-04-11T13:14:27.907Z</time></trkpt><trkpt lat="45.4793683" lon="9.480965"><ele>107.0</ele><time>2026-04-11T13:14:28.907Z</time></trkpt><trkpt lat="45.4794183" lon="9.4807817"><ele>107.0</ele><time>2026-04-11T13:14:29.907Z</time></trkpt><trkpt lat="45.4794833" lon="9.4806033"><ele>106.75</ele><time>2026-04-11T13:14:30.907Z</time></trkpt><trkpt lat="45.4795567" lon="9.4804283"><ele>106.5</ele><time>2026-04-11T13:14:31.907Z</time></trkpt><trkpt lat="45.4796367" lon="9.4802517"><ele>106.25</ele><time>2026-04-11T13:14:32.907Z</time></trkpt><trkpt lat="45.4797217" lon="9.48008"><ele>106.0</ele><time>2026-04-11T13:14:33.907Z</time></trkpt><trkpt lat="45.4798033" lon="9.4799117"><ele>107.0</ele><time>2026-04-11T13:14:34.907Z</time></trkpt><trkpt lat="45.4798883" lon="9.479755"><ele>108.0</ele><time>2026-04-11T13:14:35.907Z</time></trkpt><trkpt lat="45.47997" lon="9.4796117"><ele>109.0</ele><time>2026-04-11T13:14:36.907Z</time></trkpt><trkpt lat="45.4800417" lon="9.4794683"><ele>110.0</ele><time>2026-04-11T13:14:37.906Z</time></trkpt><trkpt lat="45.4801117" lon="9.4793333"><ele>110.0</ele><time>2026-04-11T13:14:38.907Z</time></trkpt><trkpt lat="45.4801783" lon="9.47922"><ele>110.0</ele><time>2026-04-11T13:14:39.907Z</time></trkpt><trkpt lat="45.48024" lon="9.479115"><ele>110.0</ele><time>2026-04-11T13:14:40.907Z</time></trkpt><trkpt lat="45.4803117" lon="9.4790217"><ele>110.0</ele><time>2026-04-11T13:14:41.907Z</time></trkpt><trkpt lat="45.480395" lon="9.47896"><ele>110.0</ele><time>2026-04-11T13:14:42.907Z</time></trkpt><trkpt lat="45.480485" lon="9.4789183"><ele>109.8</ele><time>2026-04-11T13:14:43.907Z</time></trkpt><trkpt lat="45.480575" lon="9.4788817"><ele>109.6</ele><time>2026-04-11T13:14:44.907Z</time></trkpt><trkpt lat="45.4806583" lon="9.4788267"><ele>109.4</ele><time>2026-04-11T13:14:45.907Z</time></trkpt><trkpt lat="45.4807283" lon="9.478745"><ele>109.2</ele><time>2026-04-11T13:14:46.907Z</time></trkpt><trkpt lat="45.4807633" lon="9.4786333"><ele>109.0</ele><time>2026-04-11T13:14:47.907Z</time></trkpt><trkpt lat="45.480775" lon="9.478495"><ele>109.0</ele><time>2026-04-11T13:14:48.907Z</time></trkpt><trkpt lat="45.4807767" lon="9.4783383"><ele>109.0</ele><time>2026-04-11T13:14:49.907Z</time></trkpt><trkpt lat="45.48078" lon="9.4781983"><ele>109.0</ele><time>2026-04-11T13:14:50.907Z</time></trkpt><trkpt lat="45.4807967" lon="9.4780667"><ele>109.0</ele><time>2026-04-11T13:14:51.907Z</time></trkpt><trkpt lat="45.4808283" lon="9.4779417"><ele>109.0</ele><time>2026-04-11T13:14:52.907Z</time></trkpt><trkpt lat="45.480885" lon="9.477825"><ele>108.5</ele><time>2026-04-11T13:14:53.907Z</time></trkpt><trkpt lat="45.4809567" lon="9.47771"><ele>108.0</ele><time>2026-04-11T13:14:54.907Z</time></trkpt><trkpt lat="45.48103" lon="9.4775783"><ele>107.5</ele><time>2026-04-11T13:14:55.907Z</time></trkpt><trkpt lat="45.4811017" lon="9.4774383"><ele>107.0</ele><time>2026-04-11T13:14:56.907Z</time></trkpt><trkpt lat="45.4811783" lon="9.477295"><ele>107.0</ele><time>2026-04-11T13:14:57.906Z</time></trkpt><trkpt lat="45.481255" lon="9.4771483"><ele>107.0</ele><time>2026-04-11T13:14:58.906Z</time></trkpt><trkpt lat="45.4813333" lon="9.477"><ele>107.0</ele><time>2026-04-11T13:14:59.907Z</time></trkpt><trkpt lat="45.48141" lon="9.4768567"><ele>107.0</ele><time>2026-04-11T13:15:00.906Z</time></trkpt><trkpt lat="45.4814867" lon="9.476705"><ele>107.0</ele><time>2026-04-11T13:15:01.907Z</time></trkpt><trkpt lat="45.4815683" lon="9.4765483"><ele>107.0</ele><time>2026-04-11T13:15:02.907Z</time></trkpt><trkpt lat="45.4816533" lon="9.4763883"><ele>107.0</ele><time>2026-04-11T13:15:03.907Z</time></trkpt><trkpt lat="45.48174" lon="9.4762267"><ele>107.0</ele><time>2026-04-11T13:15:04.907Z</time></trkpt><trkpt lat="45.4818267" lon="9.4760733"><ele>107.0</ele><time>2026-04-11T13:15:05.907Z</time></trkpt><trkpt lat="45.481915" lon="9.4759217"><ele>107.0</ele><time>2026-04-11T13:15:06.907Z</time></trkpt><trkpt lat="45.481995" lon="9.4757733"><ele>107.0</ele><time>2026-04-11T13:15:07.906Z</time></trkpt><trkpt lat="45.4820717" lon="9.4756167"><ele>107.0</ele><time>2026-04-11T13:15:08.907Z</time></trkpt><trkpt lat="45.4821417" lon="9.47545"><ele>107.25</ele><time>2026-04-11T13:15:09.907Z</time></trkpt><trkpt lat="45.482205" lon="9.47527"><ele>107.5</ele><time>2026-04-11T13:15:10.907Z</time></trkpt><trkpt lat="45.4822617" lon="9.47508"><ele>107.75</ele><time>2026-04-11T13:15:11.907Z</time></trkpt><trkpt lat="45.482305" lon="9.4748917"><ele>108.0</ele><time>2026-04-11T13:15:12.906Z</time></trkpt><trkpt lat="45.4823383" lon="9.4747067"><ele>108.0</ele><time>2026-04-11T13:15:13.907Z</time></trkpt><trkpt lat="45.4823617" lon="9.4745367"><ele>108.0</ele><time>2026-04-11T13:15:14.907Z</time></trkpt><trkpt lat="45.4823733" lon="9.4743833"><ele>108.0</ele><time>2026-04-11T13:15:15.907Z</time></trkpt><trkpt lat="45.48238" lon="9.47422"><ele>108.0</ele><time>2026-04-11T13:15:16.907Z</time></trkpt><trkpt lat="45.4823833" lon="9.4740633"><ele>108.0</ele><time>2026-04-11T13:15:17.907Z</time></trkpt><trkpt lat="45.4823817" lon="9.4739167"><ele>108.00000000000001</ele><time>2026-04-11T13:15:18.906Z</time></trkpt><trkpt lat="45.48239" lon="9.473765"><ele>108.00000000000001</ele><time>2026-04-11T13:15:19.907Z</time></trkpt><trkpt lat="45.4823983" lon="9.4736183"><ele>108.0</ele><time>2026-04-11T13:15:20.907Z</time></trkpt><trkpt lat="45.4823967" lon="9.473485"><ele>108.0</ele><time>2026-04-11T13:15:21.907Z</time></trkpt><trkpt lat="45.4824017" lon="9.4733717"><ele>108.2</ele><time>2026-04-11T13:15:22.907Z</time></trkpt><trkpt lat="45.48241" lon="9.47328"><ele>108.4</ele><time>2026-04-11T13:15:23.906Z</time></trkpt><trkpt lat="45.48246" lon="9.4731367"><ele>108.60000000000001</ele><time>2026-04-11T13:15:25.906Z</time></trkpt><trkpt lat="45.4825483" lon="9.473035"><ele>108.80000000000001</ele><time>2026-04-11T13:15:27.907Z</time></trkpt><trkpt lat="45.4826133" lon="9.47297"><ele>109.0</ele><time>2026-04-11T13:15:28.907Z</time></trkpt><trkpt lat="45.4826683" lon="9.4728733"><ele>109.00000000000001</ele><time>2026-04-11T13:15:29.907Z</time></trkpt><trkpt lat="45.4827083" lon="9.4727667"><ele>109.0</ele><time>2026-04-11T13:15:30.907Z</time></trkpt><trkpt lat="45.4827233" lon="9.47265"><ele>109.0</ele><time>2026-04-11T13:15:31.907Z</time></trkpt><trkpt lat="45.4827067" lon="9.472545"><ele>109.0</ele><time>2026-04-11T13:15:32.907Z</time></trkpt><trkpt lat="45.4826633" lon="9.4724517"><ele>109.00000000000001</ele><time>2026-04-11T13:15:33.907Z</time></trkpt><trkpt lat="45.4826033" lon="9.47237"><ele>109.0</ele><time>2026-04-11T13:15:34.907Z</time></trkpt><trkpt lat="45.4825083" lon="9.472295"><ele>109.0</ele><time>2026-04-11T13:15:35.907Z</time></trkpt><trkpt lat="45.482415" lon="9.4722267"><ele>109.0</ele><time>2026-04-11T13:15:36.907Z</time></trkpt><trkpt lat="45.4823367" lon="9.4721133"><ele>109.0</ele><time>2026-04-11T13:15:37.907Z</time></trkpt><trkpt lat="45.4822733" lon="9.4719667"><ele>109.0</ele><time>2026-04-11T13:15:38.907Z</time></trkpt><trkpt lat="45.4822283" lon="9.4718067"><ele>109.0</ele><time>2026-04-11T13:15:39.907Z</time></trkpt><trkpt lat="45.4821883" lon="9.4716267"><ele>109.0</ele><time>2026-04-11T13:15:40.907Z</time></trkpt><trkpt lat="45.4821517" lon="9.4714283"><ele>109.0</ele><time>2026-04-11T13:15:41.907Z</time></trkpt><trkpt lat="45.48213" lon="9.4712267"><ele>109.0</ele><time>2026-04-11T13:15:42.907Z</time></trkpt><trkpt lat="45.48211" lon="9.47101"><ele>108.33333333333334</ele><time>2026-04-11T13:15:43.907Z</time></trkpt><trkpt lat="45.4820883" lon="9.4707933"><ele>107.66666666666666</ele><time>2026-04-11T13:15:44.907Z</time></trkpt><trkpt lat="45.482075" lon="9.470575"><ele>107.0</ele><time>2026-04-11T13:15:45.907Z</time></trkpt><trkpt lat="45.4820533" lon="9.4703467"><ele>107.0</ele><time>2026-04-11T13:15:46.907Z</time></trkpt><trkpt lat="45.4820267" lon="9.4700983"><ele>107.0</ele><time>2026-04-11T13:15:47.907Z</time></trkpt><trkpt lat="45.482" lon="9.4698167"><ele>107.0</ele><time>2026-04-11T13:15:48.907Z</time></trkpt><trkpt lat="45.4819717" lon="9.4695217"><ele>107.0</ele><time>2026-04-11T13:15:49.907Z</time></trkpt><trkpt lat="45.4819333" lon="9.4692117"><ele>107.0</ele><time>2026-04-11T13:15:50.906Z</time></trkpt><trkpt lat="45.4819017" lon="9.4689083"><ele>107.0</ele><time>2026-04-11T13:15:51.907Z</time></trkpt><trkpt lat="45.4818783" lon="9.4686167"><ele>107.0</ele><time>2026-04-11T13:15:52.907Z</time></trkpt><trkpt lat="45.4818583" lon="9.4683217"><ele>107.0</ele><time>2026-04-11T13:15:53.907Z</time></trkpt><trkpt lat="45.481835" lon="9.4680217"><ele>107.0</ele><time>2026-04-11T13:15:54.907Z</time></trkpt><trkpt lat="45.48181" lon="9.4677233"><ele>106.66666666666666</ele><time>2026-04-11T13:15:55.907Z</time></trkpt><trkpt lat="45.4817917" lon="9.4674217"><ele>106.33333333333334</ele><time>2026-04-11T13:15:56.907Z</time></trkpt><trkpt lat="45.4817767" lon="9.4671133"><ele>106.0</ele><time>2026-04-11T13:15:57.907Z</time></trkpt><trkpt lat="45.4817583" lon="9.4668067"><ele>106.0</ele><time>2026-04-11T13:15:58.907Z</time></trkpt><trkpt lat="45.4817433" lon="9.46651"><ele>106.0</ele><time>2026-04-11T13:15:59.907Z</time></trkpt><trkpt lat="45.4817333" lon="9.4662183"><ele>106.0</ele><time>2026-04-11T13:16:00.907Z</time></trkpt><trkpt lat="45.4817217" lon="9.4659283"><ele>106.33333333333334</ele><time>2026-04-11T13:16:01.907Z</time></trkpt><trkpt lat="45.481715" lon="9.46564"><ele>106.66666666666666</ele><time>2026-04-11T13:16:02.906Z</time></trkpt><trkpt lat="45.481705" lon="9.46535"><ele>107.0</ele><time>2026-04-11T13:16:03.907Z</time></trkpt><trkpt lat="45.4816933" lon="9.4650583"><ele>107.0</ele><time>2026-04-11T13:16:04.907Z</time></trkpt><trkpt lat="45.481685" lon="9.4647667"><ele>107.0</ele><time>2026-04-11T13:16:05.907Z</time></trkpt><trkpt lat="45.4816783" lon="9.4644783"><ele>107.0</ele><time>2026-04-11T13:16:06.907Z</time></trkpt><trkpt lat="45.4816683" lon="9.46419"><ele>107.0</ele><time>2026-04-11T13:16:07.907Z</time></trkpt><trkpt lat="45.4816633" lon="9.4639033"><ele>107.0</ele><time>2026-04-11T13:16:08.907Z</time></trkpt><trkpt lat="45.481655" lon="9.4636133"><ele>107.0</ele><time>2026-04-11T13:16:09.906Z</time></trkpt><trkpt lat="45.4816433" lon="9.4633233"><ele>107.0</ele><time>2026-04-11T13:16:10.907Z</time></trkpt><trkpt lat="45.4816333" lon="9.4630433"><ele>107.0</ele><time>2026-04-11T13:16:11.907Z</time></trkpt><trkpt lat="45.4816233" lon="9.46276"><ele>107.0</ele><time>2026-04-11T13:16:12.907Z</time></trkpt><trkpt lat="45.48161" lon="9.4624883"><ele>107.0</ele><time>2026-04-11T13:16:13.907Z</time></trkpt><trkpt lat="45.4816017" lon="9.4622167"><ele>107.0</ele><time>2026-04-11T13:16:14.906Z</time></trkpt><trkpt lat="45.4815967" lon="9.4619483"><ele>107.0</ele><time>2026-04-11T13:16:15.907Z</time></trkpt><trkpt lat="45.481585" lon="9.4616783"><ele>107.0</ele><time>2026-04-11T13:16:16.907Z</time></trkpt><trkpt lat="45.48157" lon="9.4614117"><ele>107.0</ele><time>2026-04-11T13:16:17.907Z</time></trkpt><trkpt lat="45.4815583" lon="9.4611383"><ele>107.0</ele><time>2026-04-11T13:16:18.907Z</time></trkpt><trkpt lat="45.481555" lon="9.4608717"><ele>107.0</ele><time>2026-04-11T13:16:19.907Z</time></trkpt><trkpt lat="45.4815483" lon="9.46061"><ele>107.0</ele><time>2026-04-11T13:16:20.907Z</time></trkpt><trkpt lat="45.4815383" lon="9.4603383"><ele>107.0</ele><time>2026-04-11T13:16:21.907Z</time></trkpt><trkpt lat="45.48153" lon="9.4600717"><ele>106.66666666666666</ele><time>2026-04-11T13:16:22.907Z</time></trkpt><trkpt lat="45.4815217" lon="9.4598017"><ele>106.33333333333334</ele><time>2026-04-11T13:16:23.906Z</time></trkpt><trkpt lat="45.48151" lon="9.4595333"><ele>106.0</ele><time>2026-04-11T13:16:24.907Z</time></trkpt><trkpt lat="45.4815033" lon="9.4592667"><ele>106.0</ele><time>2026-04-11T13:16:25.906Z</time></trkpt><trkpt lat="45.481495" lon="9.458995"><ele>106.0</ele><time>2026-04-11T13:16:26.907Z</time></trkpt><trkpt lat="45.48149" lon="9.4587433"><ele>106.0</ele><time>2026-04-11T13:16:27.907Z</time></trkpt><trkpt lat="45.4814783" lon="9.4585133"><ele>106.33333333333334</ele><time>2026-04-11T13:16:28.907Z</time></trkpt><trkpt lat="45.48147" lon="9.45828"><ele>106.66666666666666</ele><time>2026-04-11T13:16:29.907Z</time></trkpt><trkpt lat="45.4814633" lon="9.4580517"><ele>107.0</ele><time>2026-04-11T13:16:30.907Z</time></trkpt><trkpt lat="45.4814517" lon="9.457825"><ele>107.25</ele><time>2026-04-11T13:16:31.907Z</time></trkpt><trkpt lat="45.4814467" lon="9.4576117"><ele>107.5</ele><time>2026-04-11T13:16:32.907Z</time></trkpt><trkpt lat="45.4814383" lon="9.4574033"><ele>107.75</ele><time>2026-04-11T13:16:33.907Z</time></trkpt><trkpt lat="45.4814317" lon="9.4572067"><ele>108.0</ele><time>2026-04-11T13:16:34.907Z</time></trkpt><trkpt lat="45.4814267" lon="9.4570167"><ele>108.0</ele><time>2026-04-11T13:16:35.907Z</time></trkpt><trkpt lat="45.48142" lon="9.45682"><ele>108.0</ele><time>2026-04-11T13:16:36.907Z</time></trkpt><trkpt lat="45.4814183" lon="9.4566183"><ele>108.0</ele><time>2026-04-11T13:16:37.907Z</time></trkpt><trkpt lat="45.481415" lon="9.4564233"><ele>108.0</ele><time>2026-04-11T13:16:38.907Z</time></trkpt><trkpt lat="45.4814133" lon="9.4562317"><ele>108.25</ele><time>2026-04-11T13:16:39.907Z</time></trkpt><trkpt lat="45.4814133" lon="9.45605"><ele>108.5</ele><time>2026-04-11T13:16:40.907Z</time></trkpt><trkpt lat="45.481405" lon="9.4558617"><ele>108.75</ele><time>2026-04-11T13:16:41.907Z</time></trkpt><trkpt lat="45.4814067" lon="9.4556667"><ele>109.0</ele><time>2026-04-11T13:16:42.906Z</time></trkpt><trkpt lat="45.4814067" lon="9.4554717"><ele>108.75</ele><time>2026-04-11T13:16:43.907Z</time></trkpt><trkpt lat="45.4814033" lon="9.4552667"><ele>108.5</ele><time>2026-04-11T13:16:44.907Z</time></trkpt><trkpt lat="45.4813983" lon="9.4550583"><ele>108.25</ele><time>2026-04-11T13:16:45.907Z</time></trkpt><trkpt lat="45.4813883" lon="9.4548517"><ele>108.0</ele><time>2026-04-11T13:16:46.907Z</time></trkpt><trkpt lat="45.4813833" lon="9.4546433"><ele>107.66666666666666</ele><time>2026-04-11T13:16:47.907Z</time></trkpt><trkpt lat="45.4813767" lon="9.4544267"><ele>107.33333333333333</ele><time>2026-04-11T13:16:48.907Z</time></trkpt><trkpt lat="45.4813667" lon="9.4542133"><ele>107.0</ele><time>2026-04-11T13:16:49.907Z</time></trkpt><trkpt lat="45.4813583" lon="9.45399"><ele>107.0</ele><time>2026-04-11T13:16:50.907Z</time></trkpt><trkpt lat="45.4813433" lon="9.4537683"><ele>107.0</ele><time>2026-04-11T13:16:51.907Z</time></trkpt><trkpt lat="45.4813333" lon="9.45354"><ele>107.0</ele><time>2026-04-11T13:16:52.907Z</time></trkpt><trkpt lat="45.4813267" lon="9.4533067"><ele>107.0</ele><time>2026-04-11T13:16:53.907Z</time></trkpt><trkpt lat="45.48132" lon="9.45307"><ele>107.0</ele><time>2026-04-11T13:16:54.906Z</time></trkpt><trkpt lat="45.4813067" lon="9.4528317"><ele>107.0</ele><time>2026-04-11T13:16:55.907Z</time></trkpt><trkpt lat="45.4812917" lon="9.4525967"><ele>106.33333333333333</ele><time>2026-04-11T13:16:56.906Z</time></trkpt><trkpt lat="45.48128" lon="9.4523617"><ele>105.66666666666666</ele><time>2026-04-11T13:16:57.907Z</time></trkpt><trkpt lat="45.4812617" lon="9.4521167"><ele>105.0</ele><time>2026-04-11T13:16:58.907Z</time></trkpt><trkpt lat="45.48125" lon="9.45187"><ele>105.0</ele><time>2026-04-11T13:16:59.907Z</time></trkpt><trkpt lat="45.4812383" lon="9.4516317"><ele>105.0</ele><time>2026-04-11T13:17:00.907Z</time></trkpt><trkpt lat="45.48123" lon="9.4514"><ele>105.0</ele><time>2026-04-11T13:17:01.906Z</time></trkpt><trkpt lat="45.4812183" lon="9.4511783"><ele>105.33333333333334</ele><time>2026-04-11T13:17:02.907Z</time></trkpt><trkpt lat="45.481215" lon="9.450955"><ele>105.66666666666667</ele><time>2026-04-11T13:17:03.907Z</time></trkpt><trkpt lat="45.4812067" lon="9.4507333"><ele>106.0</ele><time>2026-04-11T13:17:04.907Z</time></trkpt><trkpt lat="45.4811983" lon="9.4505017"><ele>106.66666666666667</ele><time>2026-04-11T13:17:05.907Z</time></trkpt><trkpt lat="45.48119" lon="9.4502717"><ele>107.33333333333334</ele><time>2026-04-11T13:17:06.907Z</time></trkpt><trkpt lat="45.4811767" lon="9.450035"><ele>108.0</ele><time>2026-04-11T13:17:07.907Z</time></trkpt><trkpt lat="45.48117" lon="9.4497967"><ele>108.0</ele><time>2026-04-11T13:17:08.906Z</time></trkpt><trkpt lat="45.481165" lon="9.4495533"><ele>108.0</ele><time>2026-04-11T13:17:09.907Z</time></trkpt><trkpt lat="45.4811633" lon="9.449305"><ele>108.0</ele><time>2026-04-11T13:17:10.907Z</time></trkpt><trkpt lat="45.4811533" lon="9.449055"><ele>108.0</ele><time>2026-04-11T13:17:11.907Z</time></trkpt><trkpt lat="45.4811417" lon="9.4488217"><ele>108.0</ele><time>2026-04-11T13:17:12.907Z</time></trkpt><trkpt lat="45.4811283" lon="9.4485867"><ele>108.0</ele><time>2026-04-11T13:17:13.907Z</time></trkpt><trkpt lat="45.4811217" lon="9.448365"><ele>107.66666666666666</ele><time>2026-04-11T13:17:14.907Z</time></trkpt><trkpt lat="45.4811133" lon="9.44815"><ele>107.33333333333333</ele><time>2026-04-11T13:17:15.907Z</time></trkpt><trkpt lat="45.4811083" lon="9.4479283"><ele>107.0</ele><time>2026-04-11T13:17:16.907Z</time></trkpt><trkpt lat="45.4811" lon="9.4477"><ele>107.0</ele><time>2026-04-11T13:17:17.906Z</time></trkpt><trkpt lat="45.48109" lon="9.4474617"><ele>107.0</ele><time>2026-04-11T13:17:18.907Z</time></trkpt><trkpt lat="45.4810867" lon="9.447235"><ele>107.0</ele><time>2026-04-11T13:17:19.907Z</time></trkpt><trkpt lat="45.4810767" lon="9.44701"><ele>107.0</ele><time>2026-04-11T13:17:20.907Z</time></trkpt><trkpt lat="45.4810717" lon="9.4467817"><ele>107.0</ele><time>2026-04-11T13:17:21.907Z</time></trkpt><trkpt lat="45.481065" lon="9.446555"><ele>107.0</ele><time>2026-04-11T13:17:22.906Z</time></trkpt><trkpt lat="45.48106" lon="9.4463117"><ele>107.0</ele><time>2026-04-11T13:17:23.907Z</time></trkpt><trkpt lat="45.48105" lon="9.4460783"><ele>107.0</ele><time>2026-04-11T13:17:24.907Z</time></trkpt><trkpt lat="45.4810433" lon="9.4458467"><ele>107.0</ele><time>2026-04-11T13:17:25.907Z</time></trkpt><trkpt lat="45.48104" lon="9.4456267"><ele>107.0</ele><time>2026-04-11T13:17:26.907Z</time></trkpt><trkpt lat="45.48103" lon="9.4454167"><ele>107.0</ele><time>2026-04-11T13:17:27.907Z</time></trkpt><trkpt lat="45.4810183" lon="9.445225"><ele>107.0</ele><time>2026-04-11T13:17:28.907Z</time></trkpt><trkpt lat="45.48101" lon="9.4450367"><ele>107.0</ele><time>2026-04-11T13:17:29.907Z</time></trkpt><trkpt lat="45.4810083" lon="9.44485"><ele>107.0</ele><time>2026-04-11T13:17:30.907Z</time></trkpt><trkpt lat="45.48101" lon="9.4446583"><ele>107.0</ele><time>2026-04-11T13:17:31.906Z</time></trkpt><trkpt lat="45.4810117" lon="9.4444733"><ele>107.0</ele><time>2026-04-11T13:17:32.907Z</time></trkpt><trkpt lat="45.481015" lon="9.4442983"><ele>107.0</ele><time>2026-04-11T13:17:33.907Z</time></trkpt><trkpt lat="45.4810317" lon="9.4441417"><ele>106.6</ele><time>2026-04-11T13:17:34.907Z</time></trkpt><trkpt lat="45.4810633" lon="9.4439983"><ele>106.19999999999999</ele><time>2026-04-11T13:17:35.907Z</time></trkpt><trkpt lat="45.4810933" lon="9.44386"><ele>105.8</ele><time>2026-04-11T13:17:36.907Z</time></trkpt><trkpt lat="45.4811383" lon="9.4437333"><ele>105.4</ele><time>2026-04-11T13:17:37.907Z</time></trkpt><trkpt lat="45.4811767" lon="9.4435967"><ele>105.0</ele><time>2026-04-11T13:17:38.907Z</time></trkpt><trkpt lat="45.4811833" lon="9.4434667"><ele>104.8</ele><time>2026-04-11T13:17:39.907Z</time></trkpt><trkpt lat="45.4811533" lon="9.4433317"><ele>104.6</ele><time>2026-04-11T13:17:40.907Z</time></trkpt><trkpt lat="45.481095" lon="9.4432067"><ele>104.4</ele><time>2026-04-11T13:17:41.907Z</time></trkpt><trkpt lat="45.4810333" lon="9.443075"><ele>104.2</ele><time>2026-04-11T13:17:42.907Z</time></trkpt><trkpt lat="45.4809783" lon="9.4429333"><ele>104.0</ele><time>2026-04-11T13:17:43.907Z</time></trkpt><trkpt lat="45.4809483" lon="9.4427717"><ele>104.75</ele><time>2026-04-11T13:17:44.907Z</time></trkpt><trkpt lat="45.4809417" lon="9.4426167"><ele>105.5</ele><time>2026-04-11T13:17:45.907Z</time></trkpt><trkpt lat="45.4809333" lon="9.4424567"><ele>106.25</ele><time>2026-04-11T13:17:46.907Z</time></trkpt><trkpt lat="45.480925" lon="9.44229"><ele>107.0</ele><time>2026-04-11T13:17:47.907Z</time></trkpt><trkpt lat="45.4809133" lon="9.4421217"><ele>107.25</ele><time>2026-04-11T13:17:48.907Z</time></trkpt><trkpt lat="45.4809083" lon="9.4419417"><ele>107.5</ele><time>2026-04-11T13:17:49.906Z</time></trkpt><trkpt lat="45.4809017" lon="9.4417617"><ele>107.75</ele><time>2026-04-11T13:17:50.907Z</time></trkpt><trkpt lat="45.4808933" lon="9.4415817"><ele>108.0</ele><time>2026-04-11T13:17:51.907Z</time></trkpt><trkpt lat="45.4808883" lon="9.441405"><ele>107.75</ele><time>2026-04-11T13:17:52.907Z</time></trkpt><trkpt lat="45.480885" lon="9.4412183"><ele>107.5</ele><time>2026-04-11T13:17:53.907Z</time></trkpt><trkpt lat="45.4808783" lon="9.441025"><ele>107.25</ele><time>2026-04-11T13:17:54.906Z</time></trkpt><trkpt lat="45.48087" lon="9.440825"><ele>107.0</ele><time>2026-04-11T13:17:55.906Z</time></trkpt><trkpt lat="45.4808633" lon="9.44063"><ele>107.0</ele><time>2026-04-11T13:17:56.906Z</time></trkpt><trkpt lat="45.4808617" lon="9.4404417"><ele>107.0</ele><time>2026-04-11T13:17:57.906Z</time></trkpt><trkpt lat="45.4808583" lon="9.4402617"><ele>107.0</ele><time>2026-04-11T13:17:58.906Z</time></trkpt><trkpt lat="45.4808533" lon="9.44009"><ele>107.0</ele><time>2026-04-11T13:17:59.905Z</time></trkpt><trkpt lat="45.4808467" lon="9.4399133"><ele>107.0</ele><time>2026-04-11T13:18:00.906Z</time></trkpt><trkpt lat="45.48084" lon="9.4397383"><ele>107.0</ele><time>2026-04-11T13:18:01.906Z</time></trkpt><trkpt lat="45.480835" lon="9.4395617"><ele>107.0</ele><time>2026-04-11T13:18:02.906Z</time></trkpt><trkpt lat="45.4808233" lon="9.4393717"><ele>107.0</ele><time>2026-04-11T13:18:03.906Z</time></trkpt><trkpt lat="45.4808183" lon="9.439195"><ele>107.0</ele><time>2026-04-11T13:18:04.906Z</time></trkpt><trkpt lat="45.48082" lon="9.4390167"><ele>106.99999999999999</ele><time>2026-04-11T13:18:05.906Z</time></trkpt><trkpt lat="45.48083" lon="9.4388667"><ele>106.99999999999999</ele><time>2026-04-11T13:18:06.906Z</time></trkpt><trkpt lat="45.4808617" lon="9.438735"><ele>107.0</ele><time>2026-04-11T13:18:07.906Z</time></trkpt><trkpt lat="45.4808967" lon="9.438625"><ele>107.0</ele><time>2026-04-11T13:18:08.905Z</time></trkpt><trkpt lat="45.4809483" lon="9.4385317"><ele>106.99999999999999</ele><time>2026-04-11T13:18:09.906Z</time></trkpt><trkpt lat="45.4810067" lon="9.438425"><ele>107.0</ele><time>2026-04-11T13:18:10.906Z</time></trkpt><trkpt lat="45.4810417" lon="9.4383233"><ele>107.0</ele><time>2026-04-11T13:18:11.906Z</time></trkpt><trkpt lat="45.4810433" lon="9.4382083"><ele>107.0</ele><time>2026-04-11T13:18:12.906Z</time></trkpt><trkpt lat="45.4810383" lon="9.43809"><ele>106.99999999999999</ele><time>2026-04-11T13:18:13.905Z</time></trkpt><trkpt lat="45.4809933" lon="9.4379983"><ele>107.0</ele><time>2026-04-11T13:18:14.906Z</time></trkpt><trkpt lat="45.4809383" lon="9.4378883"><ele>107.0</ele><time>2026-04-11T13:18:15.906Z</time></trkpt><trkpt lat="45.4808867" lon="9.4377617"><ele>107.0</ele><time>2026-04-11T13:18:16.906Z</time></trkpt><trkpt lat="45.48085" lon="9.4376033"><ele>107.0</ele><time>2026-04-11T13:18:17.906Z</time></trkpt><trkpt lat="45.4808417" lon="9.437425"><ele>107.0</ele><time>2026-04-11T13:18:18.906Z</time></trkpt><trkpt lat="45.4808617" lon="9.4372317"><ele>107.0</ele><time>2026-04-11T13:18:19.906Z</time></trkpt><trkpt lat="45.4808933" lon="9.4370283"><ele>107.0</ele><time>2026-04-11T13:18:20.906Z</time></trkpt><trkpt lat="45.4809283" lon="9.436805"><ele>107.0</ele><time>2026-04-11T13:18:21.906Z</time></trkpt><trkpt lat="45.480975" lon="9.436585"><ele>107.0</ele><time>2026-04-11T13:18:22.906Z</time></trkpt><trkpt lat="45.4810217" lon="9.43637"><ele>107.0</ele><time>2026-04-11T13:18:23.906Z</time></trkpt><trkpt lat="45.48107" lon="9.4361467"><ele>107.0</ele><time>2026-04-11T13:18:24.906Z</time></trkpt><trkpt lat="45.4811267" lon="9.4359217"><ele>107.0</ele><time>2026-04-11T13:18:25.906Z</time></trkpt><trkpt lat="45.481185" lon="9.4356817"><ele>107.0</ele><time>2026-04-11T13:18:26.906Z</time></trkpt><trkpt lat="45.481245" lon="9.4354417"><ele>107.0</ele><time>2026-04-11T13:18:27.906Z</time></trkpt><trkpt lat="45.4813" lon="9.4351933"><ele>107.33333333333333</ele><time>2026-04-11T13:18:28.906Z</time></trkpt><trkpt lat="45.4813567" lon="9.4349483"><ele>107.66666666666666</ele><time>2026-04-11T13:18:29.906Z</time></trkpt><trkpt lat="45.4813933" lon="9.4347017"><ele>108.0</ele><time>2026-04-11T13:18:30.906Z</time></trkpt><trkpt lat="45.4814233" lon="9.4344467"><ele>108.0</ele><time>2026-04-11T13:18:31.906Z</time></trkpt><trkpt lat="45.4814433" lon="9.43419"><ele>108.0</ele><time>2026-04-11T13:18:32.905Z</time></trkpt><trkpt lat="45.4814617" lon="9.4339217"><ele>108.0</ele><time>2026-04-11T13:18:33.906Z</time></trkpt><trkpt lat="45.4814717" lon="9.433655"><ele>108.0</ele><time>2026-04-11T13:18:34.906Z</time></trkpt><trkpt lat="45.4814683" lon="9.43339"><ele>108.0</ele><time>2026-04-11T13:18:35.906Z</time></trkpt><trkpt lat="45.48146" lon="9.43314"><ele>108.0</ele><time>2026-04-11T13:18:36.906Z</time></trkpt><trkpt lat="45.48144" lon="9.4329033"><ele>108.0</ele><time>2026-04-11T13:18:37.906Z</time></trkpt><trkpt lat="45.4814133" lon="9.43268"><ele>108.0</ele><time>2026-04-11T13:18:38.906Z</time></trkpt><trkpt lat="45.4813867" lon="9.4324633"><ele>108.0</ele><time>2026-04-11T13:18:39.905Z</time></trkpt><trkpt lat="45.4813583" lon="9.4322433"><ele>108.0</ele><time>2026-04-11T13:18:40.906Z</time></trkpt><trkpt lat="45.4813267" lon="9.4320233"><ele>108.0</ele><time>2026-04-11T13:18:41.906Z</time></trkpt><trkpt lat="45.4812917" lon="9.4318133"><ele>108.0</ele><time>2026-04-11T13:18:42.906Z</time></trkpt><trkpt lat="45.481255" lon="9.4316017"><ele>108.33333333333334</ele><time>2026-04-11T13:18:43.906Z</time></trkpt><trkpt lat="45.48122" lon="9.43139"><ele>108.66666666666667</ele><time>2026-04-11T13:18:44.906Z</time></trkpt><trkpt lat="45.4811833" lon="9.4311817"><ele>109.0</ele><time>2026-04-11T13:18:45.906Z</time></trkpt><trkpt lat="45.4811567" lon="9.430965"><ele>109.0</ele><time>2026-04-11T13:18:46.906Z</time></trkpt><trkpt lat="45.48113" lon="9.430735"><ele>109.0</ele><time>2026-04-11T13:18:47.906Z</time></trkpt><trkpt lat="45.4810883" lon="9.430515"><ele>109.0</ele><time>2026-04-11T13:18:48.905Z</time></trkpt><trkpt lat="45.4810533" lon="9.4302867"><ele>109.0</ele><time>2026-04-11T13:18:49.905Z</time></trkpt><trkpt lat="45.48101" lon="9.43006"><ele>109.0</ele><time>2026-04-11T13:18:50.906Z</time></trkpt><trkpt lat="45.48096" lon="9.42983"><ele>109.0</ele><time>2026-04-11T13:18:51.906Z</time></trkpt><trkpt lat="45.4809167" lon="9.4295867"><ele>109.33333333333334</ele><time>2026-04-11T13:18:52.906Z</time></trkpt><trkpt lat="45.4808817" lon="9.42934"><ele>109.66666666666666</ele><time>2026-04-11T13:18:53.906Z</time></trkpt><trkpt lat="45.4808517" lon="9.4291033"><ele>110.0</ele><time>2026-04-11T13:18:54.906Z</time></trkpt><trkpt lat="45.4808233" lon="9.4288783"><ele>111.0</ele><time>2026-04-11T13:18:55.906Z</time></trkpt><trkpt lat="45.4807883" lon="9.4286483"><ele>112.0</ele><time>2026-04-11T13:18:56.906Z</time></trkpt><trkpt lat="45.48075" lon="9.4284317"><ele>113.0</ele><time>2026-04-11T13:18:57.906Z</time></trkpt><trkpt lat="45.4807117" lon="9.4282217"><ele>113.0</ele><time>2026-04-11T13:18:58.906Z</time></trkpt><trkpt lat="45.4806817" lon="9.4280417"><ele>113.00000000000001</ele><time>2026-04-11T13:18:59.905Z</time></trkpt><trkpt lat="45.4806567" lon="9.4278867"><ele>113.00000000000001</ele><time>2026-04-11T13:19:00.906Z</time></trkpt><trkpt lat="45.4806383" lon="9.4277417"><ele>113.0</ele><time>2026-04-11T13:19:01.906Z</time></trkpt><trkpt lat="45.4806233" lon="9.4276017"><ele>113.0</ele><time>2026-04-11T13:19:02.906Z</time></trkpt><trkpt lat="45.480605" lon="9.4274783"><ele>113.33333333333333</ele><time>2026-04-11T13:19:03.906Z</time></trkpt><trkpt lat="45.4805933" lon="9.42736"><ele>113.66666666666666</ele><time>2026-04-11T13:19:04.906Z</time></trkpt><trkpt lat="45.4805817" lon="9.4272433"><ele>114.0</ele><time>2026-04-11T13:19:05.906Z</time></trkpt><trkpt lat="45.4805733" lon="9.42714"><ele>114.33333333333334</ele><time>2026-04-11T13:19:06.906Z</time></trkpt><trkpt lat="45.4805733" lon="9.4270383"><ele>114.66666666666667</ele><time>2026-04-11T13:19:07.906Z</time></trkpt><trkpt lat="45.4806183" lon="9.426885"><ele>115.0</ele><time>2026-04-11T13:19:09.905Z</time></trkpt><trkpt lat="45.4806717" lon="9.4268333"><ele>114.2</ele><time>2026-04-11T13:19:10.906Z</time></trkpt><trkpt lat="45.4807583" lon="9.4267867"><ele>113.4</ele><time>2026-04-11T13:19:11.906Z</time></trkpt><trkpt lat="45.4808617" lon="9.4267483"><ele>112.6</ele><time>2026-04-11T13:19:12.906Z</time></trkpt><trkpt lat="45.4809767" lon="9.4267017"><ele>111.8</ele><time>2026-04-11T13:19:13.906Z</time></trkpt><trkpt lat="45.4811" lon="9.4266567"><ele>111.0</ele><time>2026-04-11T13:19:14.906Z</time></trkpt><trkpt lat="45.4812183" lon="9.4266117"><ele>110.75</ele><time>2026-04-11T13:19:15.905Z</time></trkpt><trkpt lat="45.4813417" lon="9.426575"><ele>110.5</ele><time>2026-04-11T13:19:16.906Z</time></trkpt><trkpt lat="45.4814633" lon="9.4265333"><ele>110.25</ele><time>2026-04-11T13:19:17.906Z</time></trkpt><trkpt lat="45.481605" lon="9.42649"><ele>110.0</ele><time>2026-04-11T13:19:18.906Z</time></trkpt><trkpt lat="45.48176" lon="9.4264417"><ele>110.0</ele><time>2026-04-11T13:19:19.906Z</time></trkpt><trkpt lat="45.48191" lon="9.4263983"><ele>110.0</ele><time>2026-04-11T13:19:20.906Z</time></trkpt><trkpt lat="45.4820567" lon="9.4263567"><ele>110.0</ele><time>2026-04-11T13:19:21.906Z</time></trkpt><trkpt lat="45.4822" lon="9.4263183"><ele>110.0</ele><time>2026-04-11T13:19:22.906Z</time></trkpt><trkpt lat="45.48235" lon="9.426275"><ele>110.0</ele><time>2026-04-11T13:19:23.906Z</time></trkpt><trkpt lat="45.4825117" lon="9.4262233"><ele>110.0</ele><time>2026-04-11T13:19:24.906Z</time></trkpt><trkpt lat="45.4826817" lon="9.42617"><ele>110.0</ele><time>2026-04-11T13:19:25.906Z</time></trkpt><trkpt lat="45.4828433" lon="9.4261167"><ele>110.33333333333333</ele><time>2026-04-11T13:19:26.906Z</time></trkpt><trkpt lat="45.483" lon="9.4260617"><ele>110.66666666666666</ele><time>2026-04-11T13:19:27.906Z</time></trkpt><trkpt lat="45.48316" lon="9.42601"><ele>111.0</ele><time>2026-04-11T13:19:28.906Z</time></trkpt><trkpt lat="45.4833233" lon="9.4259617"><ele>111.0</ele><time>2026-04-11T13:19:29.906Z</time></trkpt><trkpt lat="45.4834917" lon="9.42591"><ele>111.0</ele><time>2026-04-11T13:19:30.906Z</time></trkpt><trkpt lat="45.4836583" lon="9.425855"><ele>111.0</ele><time>2026-04-11T13:19:31.906Z</time></trkpt><trkpt lat="45.48383" lon="9.4258033"><ele>111.0</ele><time>2026-04-11T13:19:32.906Z</time></trkpt><trkpt lat="45.484005" lon="9.4257433"><ele>111.0</ele><time>2026-04-11T13:19:33.906Z</time></trkpt><trkpt lat="45.4841783" lon="9.4256833"><ele>111.0</ele><time>2026-04-11T13:19:34.906Z</time></trkpt><trkpt lat="45.48435" lon="9.4256367"><ele>111.0</ele><time>2026-04-11T13:19:35.906Z</time></trkpt><trkpt lat="45.4845117" lon="9.4255867"><ele>111.0</ele><time>2026-04-11T13:19:36.906Z</time></trkpt><trkpt lat="45.4846767" lon="9.4255383"><ele>111.0</ele><time>2026-04-11T13:19:37.906Z</time></trkpt><trkpt lat="45.48483" lon="9.4254933"><ele>111.5</ele><time>2026-04-11T13:19:38.906Z</time></trkpt><trkpt lat="45.48498" lon="9.425445"><ele>112.0</ele><time>2026-04-11T13:19:39.906Z</time></trkpt><trkpt lat="45.4851233" lon="9.4254033"><ele>112.5</ele><time>2026-04-11T13:19:40.905Z</time></trkpt><trkpt lat="45.4852517" lon="9.4253667"><ele>113.0</ele><time>2026-04-11T13:19:41.906Z</time></trkpt><trkpt lat="45.48538" lon="9.4253283"><ele>112.80000000000001</ele><time>2026-04-11T13:19:42.906Z</time></trkpt><trkpt lat="45.485505" lon="9.4253067"><ele>112.60000000000001</ele><time>2026-04-11T13:19:43.906Z</time></trkpt><trkpt lat="45.4856217" lon="9.4252917"><ele>112.39999999999999</ele><time>2026-04-11T13:19:44.906Z</time></trkpt><trkpt lat="45.4857267" lon="9.4252833"><ele>112.19999999999999</ele><time>2026-04-11T13:19:45.906Z</time></trkpt><trkpt lat="45.4858233" lon="9.4252783"><ele>112.0</ele><time>2026-04-11T13:19:46.906Z</time></trkpt><trkpt lat="45.4859183" lon="9.425275"><ele>112.0</ele><time>2026-04-11T13:19:47.906Z</time></trkpt><trkpt lat="45.4860067" lon="9.4252817"><ele>111.99999999999999</ele><time>2026-04-11T13:19:48.906Z</time></trkpt><trkpt lat="45.4860917" lon="9.4252867"><ele>111.99999999999999</ele><time>2026-04-11T13:19:49.906Z</time></trkpt><trkpt lat="45.4861833" lon="9.4252683"><ele>112.0</ele><time>2026-04-11T13:19:50.906Z</time></trkpt><trkpt lat="45.4862667" lon="9.4252083"><ele>112.0</ele><time>2026-04-11T13:19:51.906Z</time></trkpt><trkpt lat="45.4863417" lon="9.4251217"><ele>112.25</ele><time>2026-04-11T13:19:52.906Z</time></trkpt><trkpt lat="45.4864233" lon="9.4250417"><ele>112.5</ele><time>2026-04-11T13:19:53.906Z</time></trkpt><trkpt lat="45.4865267" lon="9.4249783"><ele>112.75</ele><time>2026-04-11T13:19:54.906Z</time></trkpt><trkpt lat="45.4866433" lon="9.4249233"><ele>113.0</ele><time>2026-04-11T13:19:55.906Z</time></trkpt><trkpt lat="45.48677" lon="9.424875"><ele>113.0</ele><time>2026-04-11T13:19:56.906Z</time></trkpt><trkpt lat="45.4869033" lon="9.424835"><ele>113.0</ele><time>2026-04-11T13:19:57.906Z</time></trkpt><trkpt lat="45.487035" lon="9.4247933"><ele>113.0</ele><time>2026-04-11T13:19:58.906Z</time></trkpt><trkpt lat="45.4871667" lon="9.4247533"><ele>113.0</ele><time>2026-04-11T13:19:59.906Z</time></trkpt><trkpt lat="45.4873" lon="9.42471"><ele>113.0</ele><time>2026-04-11T13:20:00.906Z</time></trkpt><trkpt lat="45.4874317" lon="9.4246683"><ele>113.0</ele><time>2026-04-11T13:20:01.906Z</time></trkpt><trkpt lat="45.4875617" lon="9.424625"><ele>113.0</ele><time>2026-04-11T13:20:02.906Z</time></trkpt><trkpt lat="45.48769" lon="9.424585"><ele>113.0</ele><time>2026-04-11T13:20:03.906Z</time></trkpt><trkpt lat="45.487825" lon="9.4245483"><ele>113.0</ele><time>2026-04-11T13:20:04.906Z</time></trkpt><trkpt lat="45.4879467" lon="9.4245133"><ele>113.0</ele><time>2026-04-11T13:20:05.906Z</time></trkpt><trkpt lat="45.4880733" lon="9.4244633"><ele>113.0</ele><time>2026-04-11T13:20:06.905Z</time></trkpt><trkpt lat="45.4881917" lon="9.4244217"><ele>113.0</ele><time>2026-04-11T13:20:07.906Z</time></trkpt><trkpt lat="45.488305" lon="9.424385"><ele>113.0</ele><time>2026-04-11T13:20:08.906Z</time></trkpt><trkpt lat="45.48841" lon="9.4243517"><ele>113.00000000000001</ele><time>2026-04-11T13:20:09.906Z</time></trkpt><trkpt lat="45.4885217" lon="9.4243167"><ele>113.00000000000001</ele><time>2026-04-11T13:20:10.906Z</time></trkpt><trkpt lat="45.4886317" lon="9.4242867"><ele>113.0</ele><time>2026-04-11T13:20:11.906Z</time></trkpt><trkpt lat="45.488725" lon="9.4242617"><ele>113.0</ele><time>2026-04-11T13:20:12.906Z</time></trkpt><trkpt lat="45.4887967" lon="9.4242367"><ele>113.0</ele><time>2026-04-11T13:20:13.905Z</time></trkpt><trkpt lat="45.488885" lon="9.4242117"><ele>113.00000000000001</ele><time>2026-04-11T13:20:15.906Z</time></trkpt><trkpt lat="45.4889717" lon="9.42418"><ele>113.00000000000001</ele><time>2026-04-11T13:20:18.905Z</time></trkpt><trkpt lat="45.48904" lon="9.4241617"><ele>113.0</ele><time>2026-04-11T13:20:20.906Z</time></trkpt><trkpt lat="45.4891267" lon="9.4241467"><ele>113.0</ele><time>2026-04-11T13:20:22.905Z</time></trkpt><trkpt lat="45.4892383" lon="9.4242033"><ele>112.99999999999999</ele><time>2026-04-11T13:20:24.906Z</time></trkpt><trkpt lat="45.4893017" lon="9.4242667"><ele>113.0</ele><time>2026-04-11T13:20:25.906Z</time></trkpt><trkpt lat="45.4893617" lon="9.424325"><ele>113.0</ele><time>2026-04-11T13:20:26.906Z</time></trkpt><trkpt lat="45.4894867" lon="9.42437"><ele>113.0</ele><time>2026-04-11T13:20:28.906Z</time></trkpt><trkpt lat="45.4895517" lon="9.424335"><ele>112.99999999999999</ele><time>2026-04-11T13:20:29.906Z</time></trkpt><trkpt lat="45.4896083" lon="9.4242717"><ele>113.0</ele><time>2026-04-11T13:20:30.906Z</time></trkpt><trkpt lat="45.48965" lon="9.4241983"><ele>113.49999999999999</ele><time>2026-04-11T13:20:31.906Z</time></trkpt><trkpt lat="45.48969" lon="9.4241067"><ele>114.0</ele><time>2026-04-11T13:20:32.906Z</time></trkpt><trkpt lat="45.4897383" lon="9.4240167"><ele>114.5</ele><time>2026-04-11T13:20:33.906Z</time></trkpt><trkpt lat="45.4898" lon="9.423945"><ele>115.0</ele><time>2026-04-11T13:20:34.906Z</time></trkpt><trkpt lat="45.4898683" lon="9.4239017"><ele>115.49999999999999</ele><time>2026-04-11T13:20:35.906Z</time></trkpt><trkpt lat="45.48995" lon="9.423865"><ele>116.0</ele><time>2026-04-11T13:20:36.906Z</time></trkpt><trkpt lat="45.4900417" lon="9.4238367"><ele>116.0</ele><time>2026-04-11T13:20:37.906Z</time></trkpt><trkpt lat="45.4901433" lon="9.4238067"><ele>116.0</ele><time>2026-04-11T13:20:38.906Z</time></trkpt><trkpt lat="45.4902483" lon="9.42378"><ele>116.0</ele><time>2026-04-11T13:20:39.905Z</time></trkpt><trkpt lat="45.490355" lon="9.42374"><ele>116.0</ele><time>2026-04-11T13:20:40.906Z</time></trkpt><trkpt lat="45.4904583" lon="9.423705"><ele>116.0</ele><time>2026-04-11T13:20:41.906Z</time></trkpt><trkpt lat="45.4905717" lon="9.4236583"><ele>115.5</ele><time>2026-04-11T13:20:42.906Z</time></trkpt><trkpt lat="45.4906867" lon="9.4236017"><ele>115.0</ele><time>2026-04-11T13:20:43.906Z</time></trkpt><trkpt lat="45.4907933" lon="9.4235467"><ele>114.5</ele><time>2026-04-11T13:20:44.906Z</time></trkpt><trkpt lat="45.4908983" lon="9.4234867"><ele>114.0</ele><time>2026-04-11T13:20:45.906Z</time></trkpt><trkpt lat="45.4909933" lon="9.4234317"><ele>114.0</ele><time>2026-04-11T13:20:46.906Z</time></trkpt><trkpt lat="45.4910767" lon="9.4233783"><ele>114.0</ele><time>2026-04-11T13:20:47.906Z</time></trkpt><trkpt lat="45.4911567" lon="9.4233267"><ele>114.0</ele><time>2026-04-11T13:20:48.906Z</time></trkpt><trkpt lat="45.4912333" lon="9.42327"><ele>114.0</ele><time>2026-04-11T13:20:49.906Z</time></trkpt><trkpt lat="45.49131" lon="9.42322"><ele>114.0</ele><time>2026-04-11T13:20:50.906Z</time></trkpt><trkpt lat="45.4913817" lon="9.423165"><ele>114.0</ele><time>2026-04-11T13:20:51.906Z</time></trkpt><trkpt lat="45.4914483" lon="9.4231183"><ele>114.14285714285714</ele><time>2026-04-11T13:20:52.906Z</time></trkpt><trkpt lat="45.4915117" lon="9.42307"><ele>114.28571428571428</ele><time>2026-04-11T13:20:53.906Z</time></trkpt><trkpt lat="45.4915717" lon="9.4230217"><ele>114.42857142857142</ele><time>2026-04-11T13:20:54.906Z</time></trkpt><trkpt lat="45.4916333" lon="9.4229733"><ele>114.57142857142856</ele><time>2026-04-11T13:20:55.905Z</time></trkpt><trkpt lat="45.4916933" lon="9.4229217"><ele>114.71428571428571</ele><time>2026-04-11T13:20:56.906Z</time></trkpt><trkpt lat="45.4917617" lon="9.4228633"><ele>114.85714285714283</ele><time>2026-04-11T13:20:57.905Z</time></trkpt><trkpt lat="45.4918333" lon="9.4228067"><ele>114.99999999999999</ele><time>2026-04-11T13:20:58.906Z</time></trkpt><trkpt lat="45.4919017" lon="9.4227517"><ele>115.0</ele><time>2026-04-11T13:20:59.906Z</time></trkpt><trkpt lat="45.4919667" lon="9.4226967"><ele>115.0</ele><time>2026-04-11T13:21:00.906Z</time></trkpt><trkpt lat="45.4920233" lon="9.4226467"><ele>115.0</ele><time>2026-04-11T13:21:01.906Z</time></trkpt><trkpt lat="45.492135" lon="9.42257"><ele>115.0</ele><time>2026-04-11T13:21:03.906Z</time></trkpt><trkpt lat="45.4922517" lon="9.4225083"><ele>115.0</ele><time>2026-04-11T13:21:05.906Z</time></trkpt><trkpt lat="45.492365" lon="9.422505"><ele>115.0</ele><time>2026-04-11T13:21:07.906Z</time></trkpt><trkpt lat="45.4924867" lon="9.4225433"><ele>115.0</ele><time>2026-04-11T13:21:09.906Z</time></trkpt><trkpt lat="45.49255" lon="9.422545"><ele>115.0</ele><time>2026-04-11T13:21:10.905Z</time></trkpt><trkpt lat="45.4926433" lon="9.4224833"><ele>115.0</ele><time>2026-04-11T13:21:12.906Z</time></trkpt><trkpt lat="45.492685" lon="9.4223583"><ele>115.0</ele><time>2026-04-11T13:21:14.905Z</time></trkpt><trkpt lat="45.49271" lon="9.4222333"><ele>115.16666666666667</ele><time>2026-04-11T13:21:16.906Z</time></trkpt><trkpt lat="45.492755" lon="9.4221267"><ele>115.33333333333334</ele><time>2026-04-11T13:21:18.906Z</time></trkpt><trkpt lat="45.4928033" lon="9.422065"><ele>115.5</ele><time>2026-04-11T13:21:19.906Z</time></trkpt><trkpt lat="45.4928683" lon="9.4219983"><ele>115.66666666666666</ele><time>2026-04-11T13:21:20.906Z</time></trkpt><trkpt lat="45.492955" lon="9.4219183"><ele>115.83333333333333</ele><time>2026-04-11T13:21:21.906Z</time></trkpt><trkpt lat="45.4930483" lon="9.4218367"><ele>116.0</ele><time>2026-04-11T13:21:22.906Z</time></trkpt><trkpt lat="45.4931483" lon="9.4217517"><ele>116.0</ele><time>2026-04-11T13:21:23.905Z</time></trkpt><trkpt lat="45.4932433" lon="9.4216683"><ele>116.0</ele><time>2026-04-11T13:21:24.906Z</time></trkpt><trkpt lat="45.4933367" lon="9.42159"><ele>116.0</ele><time>2026-04-11T13:21:25.906Z</time></trkpt><trkpt lat="45.4934333" lon="9.4215033"><ele>116.0</ele><time>2026-04-11T13:21:26.906Z</time></trkpt><trkpt lat="45.4935317" lon="9.4214233"><ele>116.0</ele><time>2026-04-11T13:21:27.906Z</time></trkpt><trkpt lat="45.4936367" lon="9.4213417"><ele>116.0</ele><time>2026-04-11T13:21:28.905Z</time></trkpt><trkpt lat="45.4937417" lon="9.4212517"><ele>116.0</ele><time>2026-04-11T13:21:29.905Z</time></trkpt><trkpt lat="45.4938383" lon="9.4211633"><ele>116.0</ele><time>2026-04-11T13:21:30.905Z</time></trkpt><trkpt lat="45.4939367" lon="9.4210767"><ele>116.0</ele><time>2026-04-11T13:21:31.904Z</time></trkpt><trkpt lat="45.4940433" lon="9.4209967"><ele>116.75</ele><time>2026-04-11T13:21:32.905Z</time></trkpt><trkpt lat="45.4941517" lon="9.4209067"><ele>117.5</ele><time>2026-04-11T13:21:33.905Z</time></trkpt><trkpt lat="45.494255" lon="9.4208183"><ele>118.25</ele><time>2026-04-11T13:21:34.905Z</time></trkpt><trkpt lat="45.4943583" lon="9.4207217"><ele>119.0</ele><time>2026-04-11T13:21:35.905Z</time></trkpt><trkpt lat="45.49446" lon="9.42064"><ele>119.0</ele><time>2026-04-11T13:21:36.905Z</time></trkpt><trkpt lat="45.4945617" lon="9.4205567"><ele>119.0</ele><time>2026-04-11T13:21:37.905Z</time></trkpt><trkpt lat="45.4946733" lon="9.4204717"><ele>119.0</ele><time>2026-04-11T13:21:38.905Z</time></trkpt><trkpt lat="45.4947883" lon="9.420375"><ele>119.0</ele><time>2026-04-11T13:21:39.905Z</time></trkpt><trkpt lat="45.4948983" lon="9.4202867"><ele>118.75</ele><time>2026-04-11T13:21:40.905Z</time></trkpt><trkpt lat="45.4950067" lon="9.4201933"><ele>118.5</ele><time>2026-04-11T13:21:41.905Z</time></trkpt><trkpt lat="45.495115" lon="9.4201117"><ele>118.25</ele><time>2026-04-11T13:21:42.905Z</time></trkpt><trkpt lat="45.49522" lon="9.4200183"><ele>118.0</ele><time>2026-04-11T13:21:43.905Z</time></trkpt><trkpt lat="45.4953267" lon="9.419935"><ele>117.75</ele><time>2026-04-11T13:21:44.904Z</time></trkpt><trkpt lat="45.4954333" lon="9.4198417"><ele>117.5</ele><time>2026-04-11T13:21:45.905Z</time></trkpt><trkpt lat="45.495545" lon="9.419755"><ele>117.25</ele><time>2026-04-11T13:21:46.905Z</time></trkpt><trkpt lat="45.49565" lon="9.4196667"><ele>117.0</ele><time>2026-04-11T13:21:47.905Z</time></trkpt><trkpt lat="45.4957517" lon="9.4195733"><ele>117.0</ele><time>2026-04-11T13:21:48.905Z</time></trkpt><trkpt lat="45.4958633" lon="9.419475"><ele>117.0</ele><time>2026-04-11T13:21:49.905Z</time></trkpt><trkpt lat="45.4959767" lon="9.41938"><ele>117.0</ele><time>2026-04-11T13:21:50.905Z</time></trkpt><trkpt lat="45.4960917" lon="9.419285"><ele>117.0</ele><time>2026-04-11T13:21:51.905Z</time></trkpt><trkpt lat="45.4962033" lon="9.4191867"><ele>116.75</ele><time>2026-04-11T13:21:52.905Z</time></trkpt><trkpt lat="45.4963217" lon="9.4190967"><ele>116.5</ele><time>2026-04-11T13:21:53.904Z</time></trkpt><trkpt lat="45.4964317" lon="9.418995"><ele>116.25</ele><time>2026-04-11T13:21:54.905Z</time></trkpt><trkpt lat="45.4965417" lon="9.4189033"><ele>116.0</ele><time>2026-04-11T13:21:55.905Z</time></trkpt><trkpt lat="45.496645" lon="9.4188167"><ele>116.0</ele><time>2026-04-11T13:21:56.905Z</time></trkpt><trkpt lat="45.496725" lon="9.41876"><ele>116.0</ele><time>2026-04-11T13:21:57.905Z</time></trkpt><trkpt lat="45.49679" lon="9.4187183"><ele>116.0</ele><time>2026-04-11T13:21:58.905Z</time></trkpt><trkpt lat="45.4969067" lon="9.4186517"><ele>116.0</ele><time>2026-04-11T13:22:00.905Z</time></trkpt><trkpt lat="45.4970183" lon="9.4186067"><ele>116.0</ele><time>2026-04-11T13:22:02.905Z</time></trkpt><trkpt lat="45.4970917" lon="9.4186167"><ele>116.33333333333333</ele><time>2026-04-11T13:22:05.904Z</time></trkpt><trkpt lat="45.497205" lon="9.41862"><ele>116.66666666666666</ele><time>2026-04-11T13:22:10.905Z</time></trkpt><trkpt lat="45.4972683" lon="9.4186117"><ele>117.0</ele><time>2026-04-11T13:22:11.905Z</time></trkpt><trkpt lat="45.4973383" lon="9.4185817"><ele>117.33333333333334</ele><time>2026-04-11T13:22:12.904Z</time></trkpt><trkpt lat="45.4973983" lon="9.4185283"><ele>117.66666666666667</ele><time>2026-04-11T13:22:13.905Z</time></trkpt><trkpt lat="45.4974417" lon="9.4184183"><ele>118.0</ele><time>2026-04-11T13:22:14.905Z</time></trkpt><trkpt lat="45.4974833" lon="9.4182967"><ele>118.0</ele><time>2026-04-11T13:22:15.905Z</time></trkpt><trkpt lat="45.4975433" lon="9.4181633"><ele>118.0</ele><time>2026-04-11T13:22:16.905Z</time></trkpt><trkpt lat="45.4976283" lon="9.4180433"><ele>118.0</ele><time>2026-04-11T13:22:17.905Z</time></trkpt><trkpt lat="45.497735" lon="9.4179317"><ele>118.0</ele><time>2026-04-11T13:22:18.905Z</time></trkpt><trkpt lat="45.4978567" lon="9.4178333"><ele>118.33333333333334</ele><time>2026-04-11T13:22:19.905Z</time></trkpt><trkpt lat="45.4979883" lon="9.417715"><ele>118.66666666666666</ele><time>2026-04-11T13:22:20.905Z</time></trkpt><trkpt lat="45.498135" lon="9.4175883"><ele>119.0</ele><time>2026-04-11T13:22:21.905Z</time></trkpt><trkpt lat="45.4982867" lon="9.41743"><ele>119.0</ele><time>2026-04-11T13:22:22.905Z</time></trkpt><trkpt lat="45.49846" lon="9.41727"><ele>119.0</ele><time>2026-04-11T13:22:23.905Z</time></trkpt><trkpt lat="45.49865" lon="9.417115"><ele>119.0</ele><time>2026-04-11T13:22:24.905Z</time></trkpt><trkpt lat="45.4988383" lon="9.4169717"><ele>119.0</ele><time>2026-04-11T13:22:25.905Z</time></trkpt><trkpt lat="45.49903" lon="9.41683"><ele>119.0</ele><time>2026-04-11T13:22:26.905Z</time></trkpt><trkpt lat="45.499225" lon="9.41668"><ele>119.0</ele><time>2026-04-11T13:22:27.905Z</time></trkpt><trkpt lat="45.4994117" lon="9.4165283"><ele>119.0</ele><time>2026-04-11T13:22:28.904Z</time></trkpt><trkpt lat="45.4995817" lon="9.4163833"><ele>119.0</ele><time>2026-04-11T13:22:29.905Z</time></trkpt><trkpt lat="45.4997633" lon="9.41625"><ele>119.0</ele><time>2026-04-11T13:22:30.905Z</time></trkpt><trkpt lat="45.49995" lon="9.4161217"><ele>119.66666666666666</ele><time>2026-04-11T13:22:31.905Z</time></trkpt><trkpt lat="45.5001317" lon="9.4159983"><ele>120.33333333333334</ele><time>2026-04-11T13:22:32.905Z</time></trkpt><trkpt lat="45.5003183" lon="9.4158783"><ele>121.0</ele><time>2026-04-11T13:22:33.905Z</time></trkpt><trkpt lat="45.500505" lon="9.415755"><ele>121.0</ele><time>2026-04-11T13:22:34.905Z</time></trkpt><trkpt lat="45.50069" lon="9.4156433"><ele>121.0</ele><time>2026-04-11T13:22:35.905Z</time></trkpt><trkpt lat="45.5008683" lon="9.4155383"><ele>121.0</ele><time>2026-04-11T13:22:36.905Z</time></trkpt><trkpt lat="45.5010367" lon="9.4154317"><ele>121.0</ele><time>2026-04-11T13:22:37.905Z</time></trkpt><trkpt lat="45.5011933" lon="9.41533"><ele>121.0</ele><time>2026-04-11T13:22:38.905Z</time></trkpt><trkpt lat="45.5013517" lon="9.41523"><ele>121.0</ele><time>2026-04-11T13:22:39.905Z</time></trkpt><trkpt lat="45.5015217" lon="9.41512"><ele>121.66666666666667</ele><time>2026-04-11T13:22:40.905Z</time></trkpt><trkpt lat="45.5016933" lon="9.4150117"><ele>122.33333333333334</ele><time>2026-04-11T13:22:41.905Z</time></trkpt><trkpt lat="45.50186" lon="9.4149033"><ele>123.0</ele><time>2026-04-11T13:22:42.905Z</time></trkpt><trkpt lat="45.5020383" lon="9.41479"><ele>122.33333333333334</ele><time>2026-04-11T13:22:43.905Z</time></trkpt><trkpt lat="45.5022133" lon="9.414665"><ele>121.66666666666667</ele><time>2026-04-11T13:22:44.905Z</time></trkpt><trkpt lat="45.502405" lon="9.4145433"><ele>121.0</ele><time>2026-04-11T13:22:45.905Z</time></trkpt><trkpt lat="45.5026083" lon="9.414415"><ele>120.66666666666667</ele><time>2026-04-11T13:22:46.905Z</time></trkpt><trkpt lat="45.5028033" lon="9.4143067"><ele>120.33333333333334</ele><time>2026-04-11T13:22:47.905Z</time></trkpt><trkpt lat="45.5030067" lon="9.4142033"><ele>120.0</ele><time>2026-04-11T13:22:48.905Z</time></trkpt><trkpt lat="45.5031917" lon="9.414105"><ele>119.75</ele><time>2026-04-11T13:22:49.905Z</time></trkpt><trkpt lat="45.5033533" lon="9.41402"><ele>119.5</ele><time>2026-04-11T13:22:50.904Z</time></trkpt><trkpt lat="45.5034833" lon="9.41394"><ele>119.25</ele><time>2026-04-11T13:22:51.904Z</time></trkpt><trkpt lat="45.5036033" lon="9.4138717"><ele>119.0</ele><time>2026-04-11T13:22:52.905Z</time></trkpt><trkpt lat="45.5037133" lon="9.413815"><ele>119.2</ele><time>2026-04-11T13:22:53.905Z</time></trkpt><trkpt lat="45.50382" lon="9.4137567"><ele>119.4</ele><time>2026-04-11T13:22:54.905Z</time></trkpt><trkpt lat="45.5039233" lon="9.4136967"><ele>119.6</ele><time>2026-04-11T13:22:55.905Z</time></trkpt><trkpt lat="45.5040167" lon="9.413645"><ele>119.8</ele><time>2026-04-11T13:22:56.905Z</time></trkpt><trkpt lat="45.504095" lon="9.4136033"><ele>120.0</ele><time>2026-04-11T13:22:57.905Z</time></trkpt><trkpt lat="45.5041667" lon="9.4135717"><ele>120.0</ele><time>2026-04-11T13:22:58.905Z</time></trkpt><trkpt lat="45.5042333" lon="9.4135433"><ele>120.0</ele><time>2026-04-11T13:22:59.904Z</time></trkpt><trkpt lat="45.5042983" lon="9.41352"><ele>120.0</ele><time>2026-04-11T13:23:00.905Z</time></trkpt><trkpt lat="45.5044117" lon="9.4135283"><ele>120.0</ele><time>2026-04-11T13:23:02.905Z</time></trkpt><trkpt lat="45.50448" lon="9.4135333"><ele>120.0</ele><time>2026-04-11T13:23:03.904Z</time></trkpt><trkpt lat="45.5045633" lon="9.4135267"><ele>120.0</ele><time>2026-04-11T13:23:04.905Z</time></trkpt><trkpt lat="45.5046367" lon="9.4134767"><ele>120.2</ele><time>2026-04-11T13:23:05.904Z</time></trkpt><trkpt lat="45.5047083" lon="9.4134083"><ele>120.4</ele><time>2026-04-11T13:23:06.905Z</time></trkpt><trkpt lat="45.5047533" lon="9.4133167"><ele>120.6</ele><time>2026-04-11T13:23:07.905Z</time></trkpt><trkpt lat="45.5048083" lon="9.4132117"><ele>120.8</ele><time>2026-04-11T13:23:08.905Z</time></trkpt><trkpt lat="45.5048733" lon="9.4131183"><ele>121.0</ele><time>2026-04-11T13:23:09.905Z</time></trkpt><trkpt lat="45.5049633" lon="9.41304"><ele>120.5</ele><time>2026-04-11T13:23:10.905Z</time></trkpt><trkpt lat="45.5050683" lon="9.412965"><ele>120.0</ele><time>2026-04-11T13:23:11.905Z</time></trkpt><trkpt lat="45.5051817" lon="9.4129"><ele>119.5</ele><time>2026-04-11T13:23:12.905Z</time></trkpt><trkpt lat="45.505295" lon="9.4128333"><ele>119.0</ele><time>2026-04-11T13:23:13.905Z</time></trkpt><trkpt lat="45.5054033" lon="9.41276"><ele>119.25</ele><time>2026-04-11T13:23:14.905Z</time></trkpt><trkpt lat="45.5055133" lon="9.4126833"><ele>119.5</ele><time>2026-04-11T13:23:15.905Z</time></trkpt><trkpt lat="45.5056267" lon="9.4126067"><ele>119.75</ele><time>2026-04-11T13:23:16.905Z</time></trkpt><trkpt lat="45.5057383" lon="9.4125333"><ele>120.0</ele><time>2026-04-11T13:23:17.905Z</time></trkpt><trkpt lat="45.5058417" lon="9.412465"><ele>120.0</ele><time>2026-04-11T13:23:18.905Z</time></trkpt><trkpt lat="45.5059367" lon="9.41241"><ele>120.0</ele><time>2026-04-11T13:23:19.905Z</time></trkpt><trkpt lat="45.5060317" lon="9.412355"><ele>120.0</ele><time>2026-04-11T13:23:20.905Z</time></trkpt><trkpt lat="45.5061283" lon="9.4122967"><ele>120.0</ele><time>2026-04-11T13:23:21.905Z</time></trkpt><trkpt lat="45.506225" lon="9.4122317"><ele>120.0</ele><time>2026-04-11T13:23:22.905Z</time></trkpt><trkpt lat="45.506325" lon="9.41217"><ele>120.0</ele><time>2026-04-11T13:23:23.905Z</time></trkpt><trkpt lat="45.5064283" lon="9.412105"><ele>120.0</ele><time>2026-04-11T13:23:24.905Z</time></trkpt><trkpt lat="45.5065333" lon="9.41204"><ele>120.0</ele><time>2026-04-11T13:23:25.904Z</time></trkpt><trkpt lat="45.5066467" lon="9.4119733"><ele>120.0</ele><time>2026-04-11T13:23:26.905Z</time></trkpt><trkpt lat="45.506755" lon="9.411905"><ele>120.0</ele><time>2026-04-11T13:23:27.905Z</time></trkpt><trkpt lat="45.50687" lon="9.4118333"><ele>120.0</ele><time>2026-04-11T13:23:28.905Z</time></trkpt><trkpt lat="45.5069817" lon="9.41176"><ele>120.0</ele><time>2026-04-11T13:23:29.905Z</time></trkpt><trkpt lat="45.5070833" lon="9.411705"><ele>120.0</ele><time>2026-04-11T13:23:30.905Z</time></trkpt><trkpt lat="45.5071783" lon="9.4116417"><ele>120.2</ele><time>2026-04-11T13:23:31.905Z</time></trkpt><trkpt lat="45.5072783" lon="9.4115883"><ele>120.4</ele><time>2026-04-11T13:23:32.905Z</time></trkpt><trkpt lat="45.5073683" lon="9.4115333"><ele>120.6</ele><time>2026-04-11T13:23:33.904Z</time></trkpt><trkpt lat="45.507455" lon="9.4114817"><ele>120.8</ele><time>2026-04-11T13:23:34.905Z</time></trkpt><trkpt lat="45.5075383" lon="9.411425"><ele>121.0</ele><time>2026-04-11T13:23:35.905Z</time></trkpt><trkpt lat="45.50762" lon="9.4113667"><ele>121.19999999999999</ele><time>2026-04-11T13:23:36.905Z</time></trkpt><trkpt lat="45.5077017" lon="9.4113167"><ele>121.39999999999999</ele><time>2026-04-11T13:23:37.904Z</time></trkpt><trkpt lat="45.5077917" lon="9.4112567"><ele>121.6</ele><time>2026-04-11T13:23:38.905Z</time></trkpt><trkpt lat="45.5078833" lon="9.4111983"><ele>121.8</ele><time>2026-04-11T13:23:39.904Z</time></trkpt><trkpt lat="45.5079833" lon="9.4111467"><ele>122.0</ele><time>2026-04-11T13:23:40.905Z</time></trkpt><trkpt lat="45.50808" lon="9.4110883"><ele>122.0</ele><time>2026-04-11T13:23:41.905Z</time></trkpt><trkpt lat="45.50817" lon="9.411025"><ele>121.99999999999999</ele><time>2026-04-11T13:23:42.904Z</time></trkpt><trkpt lat="45.5082617" lon="9.4109683"><ele>121.99999999999999</ele><time>2026-04-11T13:23:43.905Z</time></trkpt><trkpt lat="45.5083467" lon="9.4109183"><ele>122.0</ele><time>2026-04-11T13:23:44.905Z</time></trkpt><trkpt lat="45.5084283" lon="9.410865"><ele>122.0</ele><time>2026-04-11T13:23:45.905Z</time></trkpt><trkpt lat="45.5085067" lon="9.4108183"><ele>121.99999999999999</ele><time>2026-04-11T13:23:46.905Z</time></trkpt><trkpt lat="45.5085883" lon="9.410775"><ele>122.0</ele><time>2026-04-11T13:23:47.905Z</time></trkpt><trkpt lat="45.5086617" lon="9.4107333"><ele>121.99999999999999</ele><time>2026-04-11T13:23:48.905Z</time></trkpt><trkpt lat="45.5087267" lon="9.4106917"><ele>121.99999999999999</ele><time>2026-04-11T13:23:49.905Z</time></trkpt><trkpt lat="45.5087883" lon="9.4106617"><ele>122.0</ele><time>2026-04-11T13:23:50.904Z</time></trkpt><trkpt lat="45.5088533" lon="9.4106283"><ele>121.99999999999999</ele><time>2026-04-11T13:23:51.905Z</time></trkpt><trkpt lat="45.5089133" lon="9.4105967"><ele>121.99999999999999</ele><time>2026-04-11T13:23:52.905Z</time></trkpt><trkpt lat="45.5089833" lon="9.4105533"><ele>122.14285714285712</ele><time>2026-04-11T13:23:53.905Z</time></trkpt><trkpt lat="45.5090567" lon="9.410525"><ele>122.28571428571428</ele><time>2026-04-11T13:23:54.904Z</time></trkpt><trkpt lat="45.50913" lon="9.4105017"><ele>122.42857142857143</ele><time>2026-04-11T13:23:55.905Z</time></trkpt><trkpt lat="45.5092033" lon="9.4104867"><ele>122.57142857142857</ele><time>2026-04-11T13:23:56.905Z</time></trkpt><trkpt lat="45.5092683" lon="9.4104933"><ele>122.71428571428572</ele><time>2026-04-11T13:23:57.905Z</time></trkpt><trkpt lat="45.5093367" lon="9.4105317"><ele>122.85714285714288</ele><time>2026-04-11T13:23:58.905Z</time></trkpt><trkpt lat="45.5094017" lon="9.4105867"><ele>123.00000000000001</ele><time>2026-04-11T13:23:59.905Z</time></trkpt><trkpt lat="45.509475" lon="9.410635"><ele>123.0</ele><time>2026-04-11T13:24:00.905Z</time></trkpt><trkpt lat="45.5095567" lon="9.4106733"><ele>123.00000000000001</ele><time>2026-04-11T13:24:01.905Z</time></trkpt><trkpt lat="45.5096417" lon="9.410685"><ele>123.00000000000001</ele><time>2026-04-11T13:24:02.905Z</time></trkpt><trkpt lat="45.5097217" lon="9.4106517"><ele>123.0</ele><time>2026-04-11T13:24:03.905Z</time></trkpt><trkpt lat="45.509795" lon="9.41057"><ele>123.0</ele><time>2026-04-11T13:24:04.905Z</time></trkpt><trkpt lat="45.5098633" lon="9.4104483"><ele>123.0</ele><time>2026-04-11T13:24:05.904Z</time></trkpt><trkpt lat="45.50991" lon="9.4103083"><ele>123.00000000000001</ele><time>2026-04-11T13:24:06.905Z</time></trkpt><trkpt lat="45.5099483" lon="9.41015"><ele>123.00000000000001</ele><time>2026-04-11T13:24:07.905Z</time></trkpt><trkpt lat="45.5099967" lon="9.4100183"><ele>123.0</ele><time>2026-04-11T13:24:08.905Z</time></trkpt><trkpt lat="45.5100733" lon="9.4099017"><ele>123.0</ele><time>2026-04-11T13:24:09.904Z</time></trkpt><trkpt lat="45.5101733" lon="9.40981"><ele>123.0</ele><time>2026-04-11T13:24:10.905Z</time></trkpt><trkpt lat="45.510295" lon="9.409715"><ele>123.0</ele><time>2026-04-11T13:24:11.905Z</time></trkpt><trkpt lat="45.5104333" lon="9.4096233"><ele>123.0</ele><time>2026-04-11T13:24:12.905Z</time></trkpt><trkpt lat="45.5105917" lon="9.409525"><ele>122.0</ele><time>2026-04-11T13:24:13.905Z</time></trkpt><trkpt lat="45.510755" lon="9.4094283"><ele>121.0</ele><time>2026-04-11T13:24:14.905Z</time></trkpt><trkpt lat="45.5109317" lon="9.4093117"><ele>120.0</ele><time>2026-04-11T13:24:15.905Z</time></trkpt><trkpt lat="45.5111117" lon="9.4091867"><ele>120.33333333333334</ele><time>2026-04-11T13:24:16.905Z</time></trkpt><trkpt lat="45.511295" lon="9.4090633"><ele>120.66666666666667</ele><time>2026-04-11T13:24:17.905Z</time></trkpt><trkpt lat="45.5114767" lon="9.408935"><ele>121.0</ele><time>2026-04-11T13:24:18.905Z</time></trkpt><trkpt lat="45.51166" lon="9.4088"><ele>121.0</ele><time>2026-04-11T13:24:19.905Z</time></trkpt><trkpt lat="45.5118483" lon="9.40866"><ele>121.0</ele><time>2026-04-11T13:24:20.905Z</time></trkpt><trkpt lat="45.51203" lon="9.40852"><ele>121.0</ele><time>2026-04-11T13:24:21.905Z</time></trkpt><trkpt lat="45.51221" lon="9.4083783"><ele>121.33333333333334</ele><time>2026-04-11T13:24:22.905Z</time></trkpt><trkpt lat="45.5123967" lon="9.4082283"><ele>121.66666666666666</ele><time>2026-04-11T13:24:23.905Z</time></trkpt><trkpt lat="45.5125917" lon="9.4080783"><ele>122.0</ele><time>2026-04-11T13:24:24.905Z</time></trkpt><trkpt lat="45.5128" lon="9.4079183"><ele>122.5</ele><time>2026-04-11T13:24:25.905Z</time></trkpt><trkpt lat="45.5130133" lon="9.407755"><ele>123.0</ele><time>2026-04-11T13:24:26.905Z</time></trkpt><trkpt lat="45.5132283" lon="9.4075983"><ele>123.0</ele><time>2026-04-11T13:24:27.905Z</time></trkpt><trkpt lat="45.5134483" lon="9.40744"><ele>123.0</ele><time>2026-04-11T13:24:28.905Z</time></trkpt><trkpt lat="45.51366" lon="9.4072883"><ele>123.0</ele><time>2026-04-11T13:24:29.905Z</time></trkpt><trkpt lat="45.5138617" lon="9.4071417"><ele>123.0</ele><time>2026-04-11T13:24:30.904Z</time></trkpt><trkpt lat="45.51405" lon="9.407"><ele>123.0</ele><time>2026-04-11T13:24:31.904Z</time></trkpt><trkpt lat="45.51423" lon="9.406865"><ele>123.0</ele><time>2026-04-11T13:24:32.905Z</time></trkpt><trkpt lat="45.5144" lon="9.40674"><ele>123.0</ele><time>2026-04-11T13:24:33.905Z</time></trkpt><trkpt lat="45.5145683" lon="9.40661"><ele>123.0</ele><time>2026-04-11T13:24:34.905Z</time></trkpt><trkpt lat="45.5147333" lon="9.4064867"><ele>123.66666666666666</ele><time>2026-04-11T13:24:35.905Z</time></trkpt><trkpt lat="45.5149" lon="9.40636"><ele>124.33333333333333</ele><time>2026-04-11T13:24:36.905Z</time></trkpt><trkpt lat="45.5150633" lon="9.406235"><ele>125.0</ele><time>2026-04-11T13:24:37.905Z</time></trkpt><trkpt lat="45.51523" lon="9.4061133"><ele>125.0</ele><time>2026-04-11T13:24:38.904Z</time></trkpt><trkpt lat="45.5153983" lon="9.40599"><ele>125.0</ele><time>2026-04-11T13:24:39.905Z</time></trkpt><trkpt lat="45.515565" lon="9.4058667"><ele>125.0</ele><time>2026-04-11T13:24:40.905Z</time></trkpt><trkpt lat="45.51572" lon="9.40575"><ele>125.33333333333333</ele><time>2026-04-11T13:24:41.905Z</time></trkpt><trkpt lat="45.5158683" lon="9.40564"><ele>125.66666666666666</ele><time>2026-04-11T13:24:42.905Z</time></trkpt><trkpt lat="45.516015" lon="9.40553"><ele>126.0</ele><time>2026-04-11T13:24:43.905Z</time></trkpt><trkpt lat="45.5161533" lon="9.4054217"><ele>126.33333333333334</ele><time>2026-04-11T13:24:44.905Z</time></trkpt><trkpt lat="45.5162933" lon="9.405315"><ele>126.66666666666667</ele><time>2026-04-11T13:24:45.905Z</time></trkpt><trkpt lat="45.5164317" lon="9.40521"><ele>127.0</ele><time>2026-04-11T13:24:46.905Z</time></trkpt><trkpt lat="45.5165717" lon="9.4051017"><ele>127.0</ele><time>2026-04-11T13:24:47.905Z</time></trkpt><trkpt lat="45.5167117" lon="9.405"><ele>127.0</ele><time>2026-04-11T13:24:48.905Z</time></trkpt><trkpt lat="45.5168483" lon="9.404895"><ele>127.0</ele><time>2026-04-11T13:24:49.903Z</time></trkpt><trkpt lat="45.5169917" lon="9.4047817"><ele>127.0</ele><time>2026-04-11T13:24:50.903Z</time></trkpt><trkpt lat="45.5171317" lon="9.4046767"><ele>127.0</ele><time>2026-04-11T13:24:51.904Z</time></trkpt><trkpt lat="45.517265" lon="9.404575"><ele>127.0</ele><time>2026-04-11T13:24:52.904Z</time></trkpt><trkpt lat="45.5174033" lon="9.4044733"><ele>126.66666666666667</ele><time>2026-04-11T13:24:53.904Z</time></trkpt><trkpt lat="45.517545" lon="9.404355"><ele>126.33333333333334</ele><time>2026-04-11T13:24:54.904Z</time></trkpt><trkpt lat="45.5176883" lon="9.4042483"><ele>126.0</ele><time>2026-04-11T13:24:55.904Z</time></trkpt><trkpt lat="45.5178333" lon="9.40414"><ele>126.33333333333334</ele><time>2026-04-11T13:24:56.904Z</time></trkpt><trkpt lat="45.5179833" lon="9.4040333"><ele>126.66666666666667</ele><time>2026-04-11T13:24:57.903Z</time></trkpt><trkpt lat="45.51813" lon="9.403925"><ele>127.0</ele><time>2026-04-11T13:24:58.904Z</time></trkpt><trkpt lat="45.5182817" lon="9.40381"><ele>127.0</ele><time>2026-04-11T13:24:59.904Z</time></trkpt><trkpt lat="45.51843" lon="9.4036967"><ele>127.0</ele><time>2026-04-11T13:25:00.904Z</time></trkpt><trkpt lat="45.5185733" lon="9.403585"><ele>127.0</ele><time>2026-04-11T13:25:01.904Z</time></trkpt><trkpt lat="45.5187183" lon="9.4034733"><ele>127.33333333333334</ele><time>2026-04-11T13:25:02.903Z</time></trkpt><trkpt lat="45.518865" lon="9.4033683"><ele>127.66666666666666</ele><time>2026-04-11T13:25:03.904Z</time></trkpt><trkpt lat="45.5190033" lon="9.4032617"><ele>128.0</ele><time>2026-04-11T13:25:04.904Z</time></trkpt><trkpt lat="45.519145" lon="9.4031567"><ele>128.0</ele><time>2026-04-11T13:25:05.904Z</time></trkpt><trkpt lat="45.5192867" lon="9.4030517"><ele>128.0</ele><time>2026-04-11T13:25:06.904Z</time></trkpt><trkpt lat="45.5194333" lon="9.4029467"><ele>128.0</ele><time>2026-04-11T13:25:07.904Z</time></trkpt><trkpt lat="45.5195783" lon="9.40284"><ele>127.66666666666666</ele><time>2026-04-11T13:25:08.904Z</time></trkpt><trkpt lat="45.5197267" lon="9.4027267"><ele>127.33333333333334</ele><time>2026-04-11T13:25:09.904Z</time></trkpt><trkpt lat="45.51987" lon="9.4026183"><ele>127.0</ele><time>2026-04-11T13:25:10.904Z</time></trkpt><trkpt lat="45.5200217" lon="9.4025083"><ele>127.0</ele><time>2026-04-11T13:25:11.904Z</time></trkpt><trkpt lat="45.520175" lon="9.4023933"><ele>127.0</ele><time>2026-04-11T13:25:12.904Z</time></trkpt><trkpt lat="45.52033" lon="9.4022783"><ele>127.0</ele><time>2026-04-11T13:25:13.904Z</time></trkpt><trkpt lat="45.520485" lon="9.4021617"><ele>128.33333333333334</ele><time>2026-04-11T13:25:14.904Z</time></trkpt><trkpt lat="45.520645" lon="9.4020483"><ele>129.66666666666666</ele><time>2026-04-11T13:25:15.903Z</time></trkpt><trkpt lat="45.5208133" lon="9.40193"><ele>131.0</ele><time>2026-04-11T13:25:16.903Z</time></trkpt><trkpt lat="45.5209733" lon="9.4018033"><ele>131.0</ele><time>2026-04-11T13:25:17.904Z</time></trkpt><trkpt lat="45.5211317" lon="9.4016867"><ele>131.0</ele><time>2026-04-11T13:25:18.904Z</time></trkpt><trkpt lat="45.521285" lon="9.4015717"><ele>131.0</ele><time>2026-04-11T13:25:19.904Z</time></trkpt><trkpt lat="45.52144" lon="9.4014583"><ele>131.0</ele><time>2026-04-11T13:25:20.904Z</time></trkpt><trkpt lat="45.5215917" lon="9.401345"><ele>131.0</ele><time>2026-04-11T13:25:21.904Z</time></trkpt><trkpt lat="45.5217383" lon="9.4012333"><ele>131.0</ele><time>2026-04-11T13:25:22.904Z</time></trkpt><trkpt lat="45.5218717" lon="9.4011383"><ele>130.75</ele><time>2026-04-11T13:25:23.904Z</time></trkpt><trkpt lat="45.522" lon="9.40104"><ele>130.5</ele><time>2026-04-11T13:25:24.904Z</time></trkpt><trkpt lat="45.5221283" lon="9.40094"><ele>130.25</ele><time>2026-04-11T13:25:25.904Z</time></trkpt><trkpt lat="45.5222533" lon="9.400835"><ele>130.0</ele><time>2026-04-11T13:25:26.904Z</time></trkpt><trkpt lat="45.5223767" lon="9.40073"><ele>130.0</ele><time>2026-04-11T13:25:27.904Z</time></trkpt><trkpt lat="45.522485" lon="9.4006283"><ele>130.0</ele><time>2026-04-11T13:25:28.903Z</time></trkpt><trkpt lat="45.5225867" lon="9.4005383"><ele>130.0</ele><time>2026-04-11T13:25:29.904Z</time></trkpt><trkpt lat="45.52268" lon="9.4004617"><ele>130.0</ele><time>2026-04-11T13:25:30.904Z</time></trkpt><trkpt lat="45.5227567" lon="9.400405"><ele>130.0</ele><time>2026-04-11T13:25:31.904Z</time></trkpt><trkpt lat="45.5228167" lon="9.4003633"><ele>129.66666666666669</ele><time>2026-04-11T13:25:32.904Z</time></trkpt><trkpt lat="45.5228917" lon="9.4003167"><ele>129.33333333333334</ele><time>2026-04-11T13:25:34.904Z</time></trkpt><trkpt lat="45.5229517" lon="9.4002867"><ele>129.0</ele><time>2026-04-11T13:25:39.904Z</time></trkpt><trkpt lat="45.523045" lon="9.4002467"><ele>128.66666666666666</ele><time>2026-04-11T13:25:41.904Z</time></trkpt><trkpt lat="45.52311" lon="9.4002217"><ele>128.33333333333331</ele><time>2026-04-11T13:25:42.904Z</time></trkpt><trkpt lat="45.52319" lon="9.40019"><ele>128.0</ele><time>2026-04-11T13:25:43.904Z</time></trkpt><trkpt lat="45.5232817" lon="9.4001483"><ele>128.0</ele><time>2026-04-11T13:25:44.903Z</time></trkpt><trkpt lat="45.52339" lon="9.4000867"><ele>128.0</ele><time>2026-04-11T13:25:45.904Z</time></trkpt><trkpt lat="45.523515" lon="9.4"><ele>128.0</ele><time>2026-04-11T13:25:46.904Z</time></trkpt><trkpt lat="45.5236433" lon="9.3999"><ele>128.0</ele><time>2026-04-11T13:25:47.903Z</time></trkpt><trkpt lat="45.52377" lon="9.3997883"><ele>129.0</ele><time>2026-04-11T13:25:48.904Z</time></trkpt><trkpt lat="45.5239" lon="9.399665"><ele>130.0</ele><time>2026-04-11T13:25:49.904Z</time></trkpt><trkpt lat="45.5240383" lon="9.3995283"><ele>131.0</ele><time>2026-04-11T13:25:50.904Z</time></trkpt><trkpt lat="45.5241767" lon="9.3993883"><ele>131.0</ele><time>2026-04-11T13:25:51.904Z</time></trkpt><trkpt lat="45.52433" lon="9.3992467"><ele>131.0</ele><time>2026-04-11T13:25:52.904Z</time></trkpt><trkpt lat="45.524495" lon="9.399105"><ele>131.0</ele><time>2026-04-11T13:25:53.904Z</time></trkpt><trkpt lat="45.524675" lon="9.3989633"><ele>131.33333333333331</ele><time>2026-04-11T13:25:54.904Z</time></trkpt><trkpt lat="45.52486" lon="9.3988183"><ele>131.66666666666666</ele><time>2026-04-11T13:25:55.904Z</time></trkpt><trkpt lat="45.525045" lon="9.398685"><ele>132.0</ele><time>2026-04-11T13:25:56.904Z</time></trkpt><trkpt lat="45.5252433" lon="9.3985483"><ele>132.0</ele><time>2026-04-11T13:25:57.903Z</time></trkpt><trkpt lat="45.5254467" lon="9.3984033"><ele>132.0</ele><time>2026-04-11T13:25:58.904Z</time></trkpt><trkpt lat="45.525645" lon="9.3982533"><ele>132.0</ele><time>2026-04-11T13:25:59.904Z</time></trkpt><trkpt lat="45.5258467" lon="9.3980983"><ele>132.0</ele><time>2026-04-11T13:26:00.904Z</time></trkpt><trkpt lat="45.5260617" lon="9.397935"><ele>133.0</ele><time>2026-04-11T13:26:01.904Z</time></trkpt><trkpt lat="45.5262683" lon="9.39777"><ele>134.0</ele><time>2026-04-11T13:26:02.904Z</time></trkpt><trkpt lat="45.52649" lon="9.397605"><ele>134.0</ele><time>2026-04-11T13:26:03.904Z</time></trkpt><trkpt lat="45.52671" lon="9.39744"><ele>134.0</ele><time>2026-04-11T13:26:04.904Z</time></trkpt><trkpt lat="45.52693" lon="9.3972783"><ele>133.5</ele><time>2026-04-11T13:26:05.904Z</time></trkpt><trkpt lat="45.52715" lon="9.3971133"><ele>133.0</ele><time>2026-04-11T13:26:06.904Z</time></trkpt><trkpt lat="45.5273767" lon="9.3969433"><ele>133.0</ele><time>2026-04-11T13:26:07.904Z</time></trkpt><trkpt lat="45.5276083" lon="9.396775"><ele>133.0</ele><time>2026-04-11T13:26:08.904Z</time></trkpt><trkpt lat="45.527835" lon="9.3966"><ele>134.5</ele><time>2026-04-11T13:26:09.904Z</time></trkpt><trkpt lat="45.528055" lon="9.3964267"><ele>136.0</ele><time>2026-04-11T13:26:10.904Z</time></trkpt><trkpt lat="45.52826" lon="9.3962717"><ele>136.0</ele><time>2026-04-11T13:26:11.904Z</time></trkpt><trkpt lat="45.528455" lon="9.3961233"><ele>136.0</ele><time>2026-04-11T13:26:12.904Z</time></trkpt><trkpt lat="45.5286383" lon="9.3959783"><ele>136.0</ele><time>2026-04-11T13:26:13.904Z</time></trkpt><trkpt lat="45.5288083" lon="9.3958467"><ele>136.0</ele><time>2026-04-11T13:26:14.904Z</time></trkpt><trkpt lat="45.5289767" lon="9.3957283"><ele>136.0</ele><time>2026-04-11T13:26:15.903Z</time></trkpt><trkpt lat="45.5291383" lon="9.3956033"><ele>136.0</ele><time>2026-04-11T13:26:16.903Z</time></trkpt><trkpt lat="45.5292883" lon="9.3954917"><ele>136.33333333333334</ele><time>2026-04-11T13:26:17.904Z</time></trkpt><trkpt lat="45.5294367" lon="9.3953817"><ele>136.66666666666666</ele><time>2026-04-11T13:26:18.904Z</time></trkpt><trkpt lat="45.5295833" lon="9.3952683"><ele>137.0</ele><time>2026-04-11T13:26:19.904Z</time></trkpt><trkpt lat="45.5297383" lon="9.3951567"><ele>137.33333333333331</ele><time>2026-04-11T13:26:20.904Z</time></trkpt><trkpt lat="45.5298917" lon="9.3950433"><ele>137.66666666666666</ele><time>2026-04-11T13:26:21.904Z</time></trkpt><trkpt lat="45.530045" lon="9.3949283"><ele>138.0</ele><time>2026-04-11T13:26:22.904Z</time></trkpt><trkpt lat="45.5301883" lon="9.394805"><ele>138.0</ele><time>2026-04-11T13:26:23.904Z</time></trkpt><trkpt lat="45.530345" lon="9.3946783"><ele>138.0</ele><time>2026-04-11T13:26:24.904Z</time></trkpt><trkpt lat="45.530515" lon="9.394545"><ele>138.0</ele><time>2026-04-11T13:26:25.904Z</time></trkpt><trkpt lat="45.5307033" lon="9.3944067"><ele>137.66666666666666</ele><time>2026-04-11T13:26:26.904Z</time></trkpt><trkpt lat="45.5308933" lon="9.3942667"><ele>137.33333333333331</ele><time>2026-04-11T13:26:27.904Z</time></trkpt><trkpt lat="45.53107" lon="9.3941367"><ele>137.0</ele><time>2026-04-11T13:26:28.904Z</time></trkpt><trkpt lat="45.5312383" lon="9.3940183"><ele>136.33333333333331</ele><time>2026-04-11T13:26:29.904Z</time></trkpt><trkpt lat="45.5314" lon="9.39389"><ele>135.66666666666666</ele><time>2026-04-11T13:26:30.904Z</time></trkpt><trkpt lat="45.5315533" lon="9.3937833"><ele>135.0</ele><time>2026-04-11T13:26:31.904Z</time></trkpt><trkpt lat="45.531695" lon="9.3936767"><ele>135.0</ele><time>2026-04-11T13:26:32.903Z</time></trkpt><trkpt lat="45.5318333" lon="9.3935767"><ele>135.0</ele><time>2026-04-11T13:26:33.904Z</time></trkpt><trkpt lat="45.53197" lon="9.3934767"><ele>135.0</ele><time>2026-04-11T13:26:34.904Z</time></trkpt><trkpt lat="45.5321017" lon="9.3933933"><ele>135.25</ele><time>2026-04-11T13:26:35.904Z</time></trkpt><trkpt lat="45.5322367" lon="9.3933117"><ele>135.5</ele><time>2026-04-11T13:26:36.904Z</time></trkpt><trkpt lat="45.5323733" lon="9.3932367"><ele>135.75</ele><time>2026-04-11T13:26:37.904Z</time></trkpt><trkpt lat="45.5325167" lon="9.3931733"><ele>136.0</ele><time>2026-04-11T13:26:38.904Z</time></trkpt><trkpt lat="45.53266" lon="9.3931183"><ele>136.0</ele><time>2026-04-11T13:26:39.904Z</time></trkpt><trkpt lat="45.5328133" lon="9.39307"><ele>136.0</ele><time>2026-04-11T13:26:40.904Z</time></trkpt><trkpt lat="45.53296" lon="9.39304"><ele>136.0</ele><time>2026-04-11T13:26:41.904Z</time></trkpt><trkpt lat="45.5331083" lon="9.3930183"><ele>136.25</ele><time>2026-04-11T13:26:42.904Z</time></trkpt><trkpt lat="45.5332517" lon="9.393"><ele>136.5</ele><time>2026-04-11T13:26:43.903Z</time></trkpt><trkpt lat="45.5333867" lon="9.3929817"><ele>136.75</ele><time>2026-04-11T13:26:44.904Z</time></trkpt><trkpt lat="45.5335133" lon="9.3929667"><ele>137.0</ele><time>2026-04-11T13:26:45.904Z</time></trkpt><trkpt lat="45.5336383" lon="9.3929617"><ele>137.2</ele><time>2026-04-11T13:26:46.904Z</time></trkpt><trkpt lat="45.5337533" lon="9.3929533"><ele>137.39999999999998</ele><time>2026-04-11T13:26:47.904Z</time></trkpt><trkpt lat="45.5338517" lon="9.3929433"><ele>137.60000000000002</ele><time>2026-04-11T13:26:48.904Z</time></trkpt><trkpt lat="45.5339333" lon="9.3929367"><ele>137.8</ele><time>2026-04-11T13:26:49.904Z</time></trkpt><trkpt lat="45.53404" lon="9.3929367"><ele>138.0</ele><time>2026-04-11T13:26:51.904Z</time></trkpt><trkpt lat="45.534125" lon="9.3929583"><ele>138.0</ele><time>2026-04-11T13:26:53.904Z</time></trkpt><trkpt lat="45.5342167" lon="9.3930117"><ele>138.0</ele><time>2026-04-11T13:26:55.904Z</time></trkpt><trkpt lat="45.5342983" lon="9.39305"><ele>138.0</ele><time>2026-04-11T13:26:57.904Z</time></trkpt><trkpt lat="45.5344083" lon="9.3930333"><ele>138.0</ele><time>2026-04-11T13:26:59.904Z</time></trkpt><trkpt lat="45.5345167" lon="9.3929383"><ele>138.0</ele><time>2026-04-11T13:27:01.904Z</time></trkpt><trkpt lat="45.5345833" lon="9.3928917"><ele>138.20000000000002</ele><time>2026-04-11T13:27:02.903Z</time></trkpt><trkpt lat="45.5346733" lon="9.3928517"><ele>138.4</ele><time>2026-04-11T13:27:03.904Z</time></trkpt><trkpt lat="45.5347667" lon="9.39283"><ele>138.60000000000002</ele><time>2026-04-11T13:27:04.904Z</time></trkpt><trkpt lat="45.5348583" lon="9.3928183"><ele>138.8</ele><time>2026-04-11T13:27:05.904Z</time></trkpt><trkpt lat="45.5349333" lon="9.392805"><ele>139.0</ele><time>2026-04-11T13:27:06.904Z</time></trkpt><trkpt lat="45.53503" lon="9.3927917"><ele>139.0</ele><time>2026-04-11T13:27:08.904Z</time></trkpt><trkpt lat="45.535115" lon="9.39278"><ele>139.0</ele><time>2026-04-11T13:27:17.904Z</time></trkpt><trkpt lat="45.5352133" lon="9.3927733"><ele>139.0</ele><time>2026-04-11T13:27:19.904Z</time></trkpt><trkpt lat="45.535285" lon="9.39277"><ele>139.0</ele><time>2026-04-11T13:27:20.904Z</time></trkpt><trkpt lat="45.5353783" lon="9.392745"><ele>139.0</ele><time>2026-04-11T13:27:21.904Z</time></trkpt><trkpt lat="45.5354933" lon="9.3927267"><ele>139.33333333333334</ele><time>2026-04-11T13:27:22.904Z</time></trkpt><trkpt lat="45.535635" lon="9.392715"><ele>139.66666666666666</ele><time>2026-04-11T13:27:23.904Z</time></trkpt><trkpt lat="45.5357883" lon="9.392715"><ele>140.0</ele><time>2026-04-11T13:27:24.904Z</time></trkpt><trkpt lat="45.535955" lon="9.3927133"><ele>140.0</ele><time>2026-04-11T13:27:25.904Z</time></trkpt><trkpt lat="45.536125" lon="9.3926967"><ele>140.0</ele><time>2026-04-11T13:27:26.904Z</time></trkpt><trkpt lat="45.5363033" lon="9.39268"><ele>140.0</ele><time>2026-04-11T13:27:27.904Z</time></trkpt><trkpt lat="45.5364867" lon="9.392665"><ele>139.66666666666666</ele><time>2026-04-11T13:27:28.904Z</time></trkpt><trkpt lat="45.53667" lon="9.39264"><ele>139.33333333333334</ele><time>2026-04-11T13:27:29.904Z</time></trkpt><trkpt lat="45.5368617" lon="9.3926133"><ele>139.0</ele><time>2026-04-11T13:27:30.904Z</time></trkpt><trkpt lat="45.5370583" lon="9.3926033"><ele>138.33333333333334</ele><time>2026-04-11T13:27:31.904Z</time></trkpt><trkpt lat="45.5372567" lon="9.3925883"><ele>137.66666666666666</ele><time>2026-04-11T13:27:32.904Z</time></trkpt><trkpt lat="45.53746" lon="9.3925667"><ele>137.0</ele><time>2026-04-11T13:27:33.904Z</time></trkpt><trkpt lat="45.5376567" lon="9.3925517"><ele>137.0</ele><time>2026-04-11T13:27:34.904Z</time></trkpt><trkpt lat="45.537855" lon="9.392535"><ele>137.0</ele><time>2026-04-11T13:27:35.904Z</time></trkpt><trkpt lat="45.5380567" lon="9.3925117"><ele>137.0</ele><time>2026-04-11T13:27:36.903Z</time></trkpt><trkpt lat="45.53827" lon="9.39249"><ele>136.66666666666666</ele><time>2026-04-11T13:27:37.904Z</time></trkpt><trkpt lat="45.5384883" lon="9.3924667"><ele>136.33333333333334</ele><time>2026-04-11T13:27:38.904Z</time></trkpt><trkpt lat="45.5387067" lon="9.3924467"><ele>136.0</ele><time>2026-04-11T13:27:39.904Z</time></trkpt><trkpt lat="45.5389283" lon="9.39242"><ele>137.5</ele><time>2026-04-11T13:27:40.904Z</time></trkpt><trkpt lat="45.5391617" lon="9.392395"><ele>139.0</ele><time>2026-04-11T13:27:41.904Z</time></trkpt><trkpt lat="45.53939" lon="9.3923733"><ele>141.0</ele><time>2026-04-11T13:27:42.904Z</time></trkpt><trkpt lat="45.5396167" lon="9.392345"><ele>143.0</ele><time>2026-04-11T13:27:43.904Z</time></trkpt><trkpt lat="45.5398517" lon="9.39231"><ele>143.0</ele><time>2026-04-11T13:27:44.904Z</time></trkpt><trkpt lat="45.5400917" lon="9.3922833"><ele>143.0</ele><time>2026-04-11T13:27:45.904Z</time></trkpt><trkpt lat="45.5403367" lon="9.3922533"><ele>143.5</ele><time>2026-04-11T13:27:46.904Z</time></trkpt><trkpt lat="45.540575" lon="9.3922267"><ele>144.0</ele><time>2026-04-11T13:27:47.904Z</time></trkpt><trkpt lat="45.5407983" lon="9.3922067"><ele>144.0</ele><time>2026-04-11T13:27:48.904Z</time></trkpt><trkpt lat="45.5410083" lon="9.3921867"><ele>144.0</ele><time>2026-04-11T13:27:49.904Z</time></trkpt><trkpt lat="45.541205" lon="9.3921683"><ele>144.0</ele><time>2026-04-11T13:27:50.904Z</time></trkpt><trkpt lat="45.5413883" lon="9.3921517"><ele>143.0</ele><time>2026-04-11T13:27:51.904Z</time></trkpt><trkpt lat="45.54157" lon="9.39214"><ele>142.0</ele><time>2026-04-11T13:27:52.904Z</time></trkpt><trkpt lat="45.5417317" lon="9.3921233"><ele>141.0</ele><time>2026-04-11T13:27:53.904Z</time></trkpt><trkpt lat="45.5418767" lon="9.3921233"><ele>141.0</ele><time>2026-04-11T13:27:54.904Z</time></trkpt><trkpt lat="45.5420083" lon="9.3921333"><ele>141.0</ele><time>2026-04-11T13:27:55.904Z</time></trkpt><trkpt lat="45.5421317" lon="9.3921717"><ele>141.0</ele><time>2026-04-11T13:27:56.904Z</time></trkpt><trkpt lat="45.5422283" lon="9.39222"><ele>141.0</ele><time>2026-04-11T13:27:57.904Z</time></trkpt><trkpt lat="45.5423133" lon="9.3922733"><ele>141.6</ele><time>2026-04-11T13:27:58.904Z</time></trkpt><trkpt lat="45.5423883" lon="9.392345"><ele>142.2</ele><time>2026-04-11T13:27:59.904Z</time></trkpt><trkpt lat="45.54246" lon="9.392425"><ele>142.8</ele><time>2026-04-11T13:28:00.904Z</time></trkpt><trkpt lat="45.54254" lon="9.3925067"><ele>143.4</ele><time>2026-04-11T13:28:01.904Z</time></trkpt><trkpt lat="45.5426283" lon="9.392565"><ele>144.0</ele><time>2026-04-11T13:28:02.904Z</time></trkpt><trkpt lat="45.542725" lon="9.3925917"><ele>144.0</ele><time>2026-04-11T13:28:03.904Z</time></trkpt><trkpt lat="45.5428167" lon="9.3925833"><ele>144.0</ele><time>2026-04-11T13:28:04.903Z</time></trkpt><trkpt lat="45.5429033" lon="9.392525"><ele>144.0</ele><time>2026-04-11T13:28:05.903Z</time></trkpt><trkpt lat="45.5429717" lon="9.392415"><ele>144.0</ele><time>2026-04-11T13:28:06.903Z</time></trkpt><trkpt lat="45.5430167" lon="9.3922817"><ele>144.0</ele><time>2026-04-11T13:28:07.903Z</time></trkpt><trkpt lat="45.5430633" lon="9.3921367"><ele>144.0</ele><time>2026-04-11T13:28:08.903Z</time></trkpt><trkpt lat="45.5431267" lon="9.3920067"><ele>144.0</ele><time>2026-04-11T13:28:09.902Z</time></trkpt><trkpt lat="45.543205" lon="9.391915"><ele>144.0</ele><time>2026-04-11T13:28:10.903Z</time></trkpt><trkpt lat="45.5433033" lon="9.39184"><ele>144.0</ele><time>2026-04-11T13:28:11.903Z</time></trkpt><trkpt lat="45.5435517" lon="9.3917"><ele>144.0</ele><time>2026-04-11T13:28:13.903Z</time></trkpt><trkpt lat="45.5436983" lon="9.391645"><ele>144.0</ele><time>2026-04-11T13:28:14.903Z</time></trkpt><trkpt lat="45.5440067" lon="9.39156"><ele>144.0</ele><time>2026-04-11T13:28:16.903Z</time></trkpt><trkpt lat="45.5441683" lon="9.3915133"><ele>144.0</ele><time>2026-04-11T13:28:17.903Z</time></trkpt><trkpt lat="45.54433" lon="9.3914733"><ele>144.0</ele><time>2026-04-11T13:28:18.903Z</time></trkpt><trkpt lat="45.5444917" lon="9.3914283"><ele>144.5</ele><time>2026-04-11T13:28:19.903Z</time></trkpt><trkpt lat="45.5447733" lon="9.391355"><ele>145.0</ele><time>2026-04-11T13:28:21.903Z</time></trkpt><trkpt lat="45.5450033" lon="9.3912833"><ele>145.0</ele><time>2026-04-11T13:28:23.903Z</time></trkpt><trkpt lat="45.5450983" lon="9.391265"><ele>145.0</ele><time>2026-04-11T13:28:24.903Z</time></trkpt><trkpt lat="45.545275" lon="9.39122"><ele>145.0</ele><time>2026-04-11T13:28:26.903Z</time></trkpt><trkpt lat="45.545465" lon="9.391155"><ele>145.2</ele><time>2026-04-11T13:28:28.903Z</time></trkpt><trkpt lat="45.5455733" lon="9.3911117"><ele>145.4</ele><time>2026-04-11T13:28:29.903Z</time></trkpt><trkpt lat="45.5456833" lon="9.3910667"><ele>145.6</ele><time>2026-04-11T13:28:30.903Z</time></trkpt><trkpt lat="45.5457933" lon="9.3910217"><ele>145.8</ele><time>2026-04-11T13:28:31.903Z</time></trkpt><trkpt lat="45.545895" lon="9.3909783"><ele>146.0</ele><time>2026-04-11T13:28:32.902Z</time></trkpt><trkpt lat="45.5459867" lon="9.39095"><ele>146.0</ele><time>2026-04-11T13:28:33.903Z</time></trkpt><trkpt lat="45.5460667" lon="9.3909017"><ele>146.0</ele><time>2026-04-11T13:28:34.903Z</time></trkpt><trkpt lat="45.5461383" lon="9.39085"><ele>146.0</ele><time>2026-04-11T13:28:35.903Z</time></trkpt><trkpt lat="45.5462" lon="9.3908067"><ele>146.0</ele><time>2026-04-11T13:28:36.903Z</time></trkpt><trkpt lat="45.5462583" lon="9.3907583"><ele>146.0</ele><time>2026-04-11T13:28:37.903Z</time></trkpt><trkpt lat="45.5463133" lon="9.3907083"><ele>146.0</ele><time>2026-04-11T13:28:38.903Z</time></trkpt><trkpt lat="45.5463517" lon="9.3905733"><ele>146.0</ele><time>2026-04-11T13:28:40.903Z</time></trkpt><trkpt lat="45.5463117" lon="9.39046"><ele>146.0</ele><time>2026-04-11T13:28:42.902Z</time></trkpt><trkpt lat="45.5462183" lon="9.39049"><ele>146.0</ele><time>2026-04-11T13:28:44.902Z</time></trkpt><trkpt lat="45.5461467" lon="9.3906317"><ele>146.0</ele><time>2026-04-11T13:28:46.903Z</time></trkpt><trkpt lat="45.54611" lon="9.3907067"><ele>146.0</ele><time>2026-04-11T13:28:47.903Z</time></trkpt><trkpt lat="45.5460567" lon="9.3907883"><ele>146.0</ele><time>2026-04-11T13:28:48.903Z</time></trkpt><trkpt lat="45.54599" lon="9.39086"><ele>146.0</ele><time>2026-04-11T13:28:49.902Z</time></trkpt><trkpt lat="45.5459033" lon="9.3909217"><ele>146.0</ele><time>2026-04-11T13:28:50.903Z</time></trkpt><trkpt lat="45.545815" lon="9.3909733"><ele>146.0</ele><time>2026-04-11T13:28:51.903Z</time></trkpt><trkpt lat="45.5457133" lon="9.391025"><ele>146.0</ele><time>2026-04-11T13:28:52.902Z</time></trkpt><trkpt lat="45.5456133" lon="9.3910717"><ele>146.0</ele><time>2026-04-11T13:28:53.903Z</time></trkpt><trkpt lat="45.545515" lon="9.3911167"><ele>146.0</ele><time>2026-04-11T13:28:54.903Z</time></trkpt><trkpt lat="45.545405" lon="9.3911517"><ele>146.0</ele><time>2026-04-11T13:28:55.903Z</time></trkpt><trkpt lat="45.5453017" lon="9.391185"><ele>146.0</ele><time>2026-04-11T13:28:56.903Z</time></trkpt><trkpt lat="45.5452083" lon="9.3912117"><ele>146.0</ele><time>2026-04-11T13:28:57.903Z</time></trkpt><trkpt lat="45.545145" lon="9.3912367"><ele>146.0</ele><time>2026-04-11T13:28:58.903Z</time></trkpt><trkpt lat="45.5450817" lon="9.3912517"><ele>146.0</ele><time>2026-04-11T13:28:59.903Z</time></trkpt><trkpt lat="45.5450183" lon="9.3912667"><ele>145.8</ele><time>2026-04-11T13:29:00.903Z</time></trkpt><trkpt lat="45.5448933" lon="9.3912833"><ele>145.6</ele><time>2026-04-11T13:29:02.903Z</time></trkpt><trkpt lat="45.5447817" lon="9.3913117"><ele>145.4</ele><time>2026-04-11T13:29:04.902Z</time></trkpt><trkpt lat="45.5446617" lon="9.3913433"><ele>145.2</ele><time>2026-04-11T13:29:06.903Z</time></trkpt><trkpt lat="45.5445883" lon="9.3913633"><ele>145.0</ele><time>2026-04-11T13:29:07.903Z</time></trkpt><trkpt lat="45.5445017" lon="9.391375"><ele>144.75</ele><time>2026-04-11T13:29:08.903Z</time></trkpt><trkpt lat="45.5444017" lon="9.39139"><ele>144.5</ele><time>2026-04-11T13:29:09.903Z</time></trkpt><trkpt lat="45.544295" lon="9.3914133"><ele>144.25</ele><time>2026-04-11T13:29:10.903Z</time></trkpt><trkpt lat="45.5441717" lon="9.3914517"><ele>144.0</ele><time>2026-04-11T13:29:11.903Z</time></trkpt><trkpt lat="45.5440467" lon="9.3914833"><ele>144.0</ele><time>2026-04-11T13:29:12.903Z</time></trkpt><trkpt lat="45.543925" lon="9.3915167"><ele>144.0</ele><time>2026-04-11T13:29:13.903Z</time></trkpt><trkpt lat="45.5438083" lon="9.3915467"><ele>144.0</ele><time>2026-04-11T13:29:14.903Z</time></trkpt><trkpt lat="45.5436983" lon="9.3915833"><ele>144.0</ele><time>2026-04-11T13:29:15.902Z</time></trkpt><trkpt lat="45.5435967" lon="9.39162"><ele>144.0</ele><time>2026-04-11T13:29:16.903Z</time></trkpt><trkpt lat="45.5434833" lon="9.3916667"><ele>144.0</ele><time>2026-04-11T13:29:17.903Z</time></trkpt><trkpt lat="45.543365" lon="9.391725"><ele>144.0</ele><time>2026-04-11T13:29:18.903Z</time></trkpt><trkpt lat="45.5432683" lon="9.391785"><ele>144.0</ele><time>2026-04-11T13:29:19.903Z</time></trkpt><trkpt lat="45.54318" lon="9.39184"><ele>144.0</ele><time>2026-04-11T13:29:20.902Z</time></trkpt><trkpt lat="45.5430983" lon="9.39187"><ele>144.0</ele><time>2026-04-11T13:29:21.903Z</time></trkpt><trkpt lat="45.5430317" lon="9.3918967"><ele>144.0</ele><time>2026-04-11T13:29:22.903Z</time></trkpt><trkpt lat="45.5429683" lon="9.391915"><ele>144.0</ele><time>2026-04-11T13:29:23.903Z</time></trkpt><trkpt lat="45.542905" lon="9.39192"><ele>144.0</ele><time>2026-04-11T13:29:24.903Z</time></trkpt><trkpt lat="45.5428217" lon="9.391915"><ele>144.0</ele><time>2026-04-11T13:29:25.903Z</time></trkpt><trkpt lat="45.5427333" lon="9.3919017"><ele>144.0</ele><time>2026-04-11T13:29:26.903Z</time></trkpt><trkpt lat="45.542645" lon="9.39189"><ele>144.0</ele><time>2026-04-11T13:29:27.903Z</time></trkpt><trkpt lat="45.54255" lon="9.391915"><ele>144.0</ele><time>2026-04-11T13:29:28.903Z</time></trkpt><trkpt lat="45.5424767" lon="9.391965"><ele>144.0</ele><time>2026-04-11T13:29:29.902Z</time></trkpt><trkpt lat="45.54242" lon="9.392055"><ele>144.0</ele><time>2026-04-11T13:29:30.903Z</time></trkpt><trkpt lat="45.5423917" lon="9.392155"><ele>144.0</ele><time>2026-04-11T13:29:31.903Z</time></trkpt><trkpt lat="45.5424017" lon="9.3922783"><ele>144.0</ele><time>2026-04-11T13:29:32.903Z</time></trkpt><trkpt lat="45.5424583" lon="9.3924217"><ele>144.0</ele><time>2026-04-11T13:29:33.903Z</time></trkpt><trkpt lat="45.5425517" lon="9.39253"><ele>144.0</ele><time>2026-04-11T13:29:34.902Z</time></trkpt><trkpt lat="45.542665" lon="9.3926"><ele>144.0</ele><time>2026-04-11T13:29:35.903Z</time></trkpt><trkpt lat="45.54278" lon="9.3926433"><ele>144.0</ele><time>2026-04-11T13:29:36.903Z</time></trkpt><trkpt lat="45.542915" lon="9.3926917"><ele>143.5</ele><time>2026-04-11T13:29:37.903Z</time></trkpt><trkpt lat="45.543045" lon="9.392765"><ele>143.0</ele><time>2026-04-11T13:29:38.903Z</time></trkpt><trkpt lat="45.5431717" lon="9.39286"><ele>142.5</ele><time>2026-04-11T13:29:39.903Z</time></trkpt><trkpt lat="45.5432917" lon="9.3929717"><ele>142.0</ele><time>2026-04-11T13:29:40.903Z</time></trkpt><trkpt lat="45.543415" lon="9.3931067"><ele>142.0</ele><time>2026-04-11T13:29:41.903Z</time></trkpt><trkpt lat="45.54355" lon="9.3932367"><ele>142.0</ele><time>2026-04-11T13:29:42.903Z</time></trkpt><trkpt lat="45.54368" lon="9.39333"><ele>142.0</ele><time>2026-04-11T13:29:43.903Z</time></trkpt><trkpt lat="45.5438183" lon="9.3933983"><ele>142.25</ele><time>2026-04-11T13:29:44.903Z</time></trkpt><trkpt lat="45.5439567" lon="9.3934583"><ele>142.5</ele><time>2026-04-11T13:29:45.903Z</time></trkpt><trkpt lat="45.5441033" lon="9.39348"><ele>142.75</ele><time>2026-04-11T13:29:46.903Z</time></trkpt><trkpt lat="45.54425" lon="9.393485"><ele>143.0</ele><time>2026-04-11T13:29:47.903Z</time></trkpt><trkpt lat="45.5444017" lon="9.39347"><ele>143.66666666666666</ele><time>2026-04-11T13:29:48.903Z</time></trkpt><trkpt lat="45.5445517" lon="9.39343"><ele>144.33333333333334</ele><time>2026-04-11T13:29:49.903Z</time></trkpt><trkpt lat="45.5447" lon="9.3933767"><ele>145.0</ele><time>2026-04-11T13:29:50.903Z</time></trkpt><trkpt lat="45.544845" lon="9.3933333"><ele>145.0</ele><time>2026-04-11T13:29:51.903Z</time></trkpt><trkpt lat="45.5449667" lon="9.39329"><ele>145.0</ele><time>2026-04-11T13:29:52.903Z</time></trkpt><trkpt lat="45.5450733" lon="9.3932567"><ele>145.0</ele><time>2026-04-11T13:29:53.903Z</time></trkpt><trkpt lat="45.5451617" lon="9.3932317"><ele>145.0</ele><time>2026-04-11T13:29:54.902Z</time></trkpt><trkpt lat="45.5452483" lon="9.3932"><ele>145.0</ele><time>2026-04-11T13:29:55.903Z</time></trkpt><trkpt lat="45.545325" lon="9.39318"><ele>144.66666666666669</ele><time>2026-04-11T13:29:56.903Z</time></trkpt><trkpt lat="45.5453933" lon="9.3931483"><ele>144.33333333333334</ele><time>2026-04-11T13:29:57.903Z</time></trkpt><trkpt lat="45.5454567" lon="9.393125"><ele>144.0</ele><time>2026-04-11T13:29:58.903Z</time></trkpt><trkpt lat="45.5455233" lon="9.3931067"><ele>143.66666666666666</ele><time>2026-04-11T13:29:59.903Z</time></trkpt><trkpt lat="45.54559" lon="9.39308"><ele>143.33333333333331</ele><time>2026-04-11T13:30:00.902Z</time></trkpt><trkpt lat="45.5456933" lon="9.3930633"><ele>143.0</ele><time>2026-04-11T13:30:02.903Z</time></trkpt><trkpt lat="45.5457617" lon="9.3930933"><ele>143.0</ele><time>2026-04-11T13:30:04.903Z</time></trkpt><trkpt lat="45.54582" lon="9.3932083"><ele>143.0</ele><time>2026-04-11T13:30:06.903Z</time></trkpt><trkpt lat="45.545855" lon="9.3933033"><ele>143.0</ele><time>2026-04-11T13:30:07.902Z</time></trkpt><trkpt lat="45.5459017" lon="9.3934117"><ele>143.0</ele><time>2026-04-11T13:30:08.903Z</time></trkpt><trkpt lat="45.545965" lon="9.3934917"><ele>143.0</ele><time>2026-04-11T13:30:09.903Z</time></trkpt><trkpt lat="45.5460517" lon="9.393535"><ele>143.0</ele><time>2026-04-11T13:30:10.903Z</time></trkpt><trkpt lat="45.5461483" lon="9.3935633"><ele>143.0</ele><time>2026-04-11T13:30:11.902Z</time></trkpt><trkpt lat="45.54626" lon="9.3935833"><ele>143.0</ele><time>2026-04-11T13:30:12.903Z</time></trkpt><trkpt lat="45.5463633" lon="9.3936233"><ele>143.0</ele><time>2026-04-11T13:30:13.903Z</time></trkpt><trkpt lat="45.5464567" lon="9.3937067"><ele>143.0</ele><time>2026-04-11T13:30:14.902Z</time></trkpt><trkpt lat="45.5465567" lon="9.3938067"><ele>143.0</ele><time>2026-04-11T13:30:15.902Z</time></trkpt><trkpt lat="45.546655" lon="9.3939233"><ele>143.0</ele><time>2026-04-11T13:30:16.903Z</time></trkpt><trkpt lat="45.5467567" lon="9.39404"><ele>143.0</ele><time>2026-04-11T13:30:17.903Z</time></trkpt><trkpt lat="45.5468733" lon="9.3941567"><ele>143.0</ele><time>2026-04-11T13:30:18.903Z</time></trkpt><trkpt lat="45.5469933" lon="9.394275"><ele>143.66666666666666</ele><time>2026-04-11T13:30:19.903Z</time></trkpt><trkpt lat="45.547125" lon="9.3944117"><ele>144.33333333333334</ele><time>2026-04-11T13:30:20.903Z</time></trkpt><trkpt lat="45.5472567" lon="9.3945483"><ele>145.0</ele><time>2026-04-11T13:30:21.903Z</time></trkpt><trkpt lat="45.5473883" lon="9.394695"><ele>145.0</ele><time>2026-04-11T13:30:22.903Z</time></trkpt><trkpt lat="45.5475283" lon="9.3948433"><ele>145.0</ele><time>2026-04-11T13:30:23.903Z</time></trkpt><trkpt lat="45.547675" lon="9.3949717"><ele>145.0</ele><time>2026-04-11T13:30:24.902Z</time></trkpt><trkpt lat="45.5478367" lon="9.3951017"><ele>145.66666666666669</ele><time>2026-04-11T13:30:25.903Z</time></trkpt><trkpt lat="45.548" lon="9.39523"><ele>146.33333333333334</ele><time>2026-04-11T13:30:26.903Z</time></trkpt><trkpt lat="45.5481633" lon="9.395345"><ele>147.0</ele><time>2026-04-11T13:30:27.903Z</time></trkpt><trkpt lat="45.5483267" lon="9.3954567"><ele>146.5</ele><time>2026-04-11T13:30:28.903Z</time></trkpt><trkpt lat="45.5484917" lon="9.3955533"><ele>146.0</ele><time>2026-04-11T13:30:29.902Z</time></trkpt><trkpt lat="45.5488217" lon="9.395735"><ele>145.0</ele><time>2026-04-11T13:30:31.903Z</time></trkpt><trkpt lat="45.5491683" lon="9.3958767"><ele>144.0</ele><time>2026-04-11T13:30:33.903Z</time></trkpt><trkpt lat="45.549485" lon="9.3959483"><ele>145.0</ele><time>2026-04-11T13:30:35.903Z</time></trkpt><trkpt lat="45.5496233" lon="9.3959767"><ele>146.0</ele><time>2026-04-11T13:30:36.903Z</time></trkpt><trkpt lat="45.5497467" lon="9.396"><ele>147.0</ele><time>2026-04-11T13:30:37.903Z</time></trkpt><trkpt lat="45.5499533" lon="9.39603"><ele>147.0</ele><time>2026-04-11T13:30:39.903Z</time></trkpt><trkpt lat="45.5500383" lon="9.39603"><ele>147.0</ele><time>2026-04-11T13:30:40.903Z</time></trkpt><trkpt lat="45.5501167" lon="9.3960317"><ele>147.0</ele><time>2026-04-11T13:30:41.903Z</time></trkpt><trkpt lat="45.55018" lon="9.3960317"><ele>147.0</ele><time>2026-04-11T13:30:42.903Z</time></trkpt><trkpt lat="45.55028" lon="9.396025"><ele>147.0</ele><time>2026-04-11T13:30:44.903Z</time></trkpt><trkpt lat="45.550365" lon="9.396005"><ele>147.0</ele><time>2026-04-11T13:30:46.903Z</time></trkpt><trkpt lat="45.5504617" lon="9.3959783"><ele>146.75</ele><time>2026-04-11T13:30:48.903Z</time></trkpt><trkpt lat="45.5505633" lon="9.3959633"><ele>146.5</ele><time>2026-04-11T13:30:50.903Z</time></trkpt><trkpt lat="45.5506583" lon="9.3959567"><ele>146.25</ele><time>2026-04-11T13:30:52.903Z</time></trkpt><trkpt lat="45.5508117" lon="9.39594"><ele>146.0</ele><time>2026-04-11T13:31:00.903Z</time></trkpt><trkpt lat="45.5509183" lon="9.3959333"><ele>146.0</ele><time>2026-04-11T13:31:01.902Z</time></trkpt><trkpt lat="45.55104" lon="9.3959267"><ele>146.0</ele><time>2026-04-11T13:31:02.903Z</time></trkpt><trkpt lat="45.5511717" lon="9.39592"><ele>146.0</ele><time>2026-04-11T13:31:03.903Z</time></trkpt><trkpt lat="45.551315" lon="9.39591"><ele>146.0</ele><time>2026-04-11T13:31:04.903Z</time></trkpt><trkpt lat="45.551465" lon="9.3958917"><ele>146.75</ele><time>2026-04-11T13:31:05.903Z</time></trkpt><trkpt lat="45.5516233" lon="9.395875"><ele>147.5</ele><time>2026-04-11T13:31:06.903Z</time></trkpt><trkpt lat="45.5517733" lon="9.3958533"><ele>148.25</ele><time>2026-04-11T13:31:07.903Z</time></trkpt><trkpt lat="45.551905" lon="9.3958367"><ele>149.0</ele><time>2026-04-11T13:31:08.903Z</time></trkpt><trkpt lat="45.5520267" lon="9.3958333"><ele>148.6</ele><time>2026-04-11T13:31:09.903Z</time></trkpt><trkpt lat="45.55213" lon="9.3958417"><ele>148.2</ele><time>2026-04-11T13:31:10.902Z</time></trkpt><trkpt lat="45.5522233" lon="9.3958633"><ele>147.79999999999998</ele><time>2026-04-11T13:31:11.902Z</time></trkpt><trkpt lat="45.5523283" lon="9.3959083"><ele>147.4</ele><time>2026-04-11T13:31:12.902Z</time></trkpt><trkpt lat="45.5524217" lon="9.3959617"><ele>147.0</ele><time>2026-04-11T13:31:13.902Z</time></trkpt><trkpt lat="45.552525" lon="9.3959867"><ele>147.0</ele><time>2026-04-11T13:31:14.902Z</time></trkpt><trkpt lat="45.5526117" lon="9.3959467"><ele>147.0</ele><time>2026-04-11T13:31:15.902Z</time></trkpt><trkpt lat="45.5527117" lon="9.39587"><ele>147.0</ele><time>2026-04-11T13:31:16.902Z</time></trkpt><trkpt lat="45.5528067" lon="9.3957817"><ele>147.0</ele><time>2026-04-11T13:31:17.902Z</time></trkpt><trkpt lat="45.5529217" lon="9.3957183"><ele>147.0</ele><time>2026-04-11T13:31:18.901Z</time></trkpt><trkpt lat="45.5530517" lon="9.3956917"><ele>147.66666666666666</ele><time>2026-04-11T13:31:19.902Z</time></trkpt><trkpt lat="45.553205" lon="9.3956783"><ele>148.33333333333331</ele><time>2026-04-11T13:31:20.901Z</time></trkpt><trkpt lat="45.5533767" lon="9.3956617"><ele>149.0</ele><time>2026-04-11T13:31:21.902Z</time></trkpt><trkpt lat="45.55357" lon="9.395635"><ele>149.66666666666666</ele><time>2026-04-11T13:31:22.902Z</time></trkpt><trkpt lat="45.5537583" lon="9.39561"><ele>150.33333333333334</ele><time>2026-04-11T13:31:23.902Z</time></trkpt><trkpt lat="45.55394" lon="9.395585"><ele>151.0</ele><time>2026-04-11T13:31:24.902Z</time></trkpt><trkpt lat="45.5541367" lon="9.3955667"><ele>151.0</ele><time>2026-04-11T13:31:25.902Z</time></trkpt><trkpt lat="45.5543333" lon="9.3955367"><ele>151.0</ele><time>2026-04-11T13:31:26.902Z</time></trkpt><trkpt lat="45.5545367" lon="9.3955133"><ele>151.0</ele><time>2026-04-11T13:31:27.902Z</time></trkpt><trkpt lat="45.5547433" lon="9.39548"><ele>150.33333333333334</ele><time>2026-04-11T13:31:28.902Z</time></trkpt><trkpt lat="45.5549467" lon="9.395445"><ele>149.66666666666666</ele><time>2026-04-11T13:31:29.902Z</time></trkpt><trkpt lat="45.5551483" lon="9.3953983"><ele>149.0</ele><time>2026-04-11T13:31:30.901Z</time></trkpt><trkpt lat="45.5553583" lon="9.39534"><ele>149.33333333333331</ele><time>2026-04-11T13:31:31.902Z</time></trkpt><trkpt lat="45.55557" lon="9.395265"><ele>149.66666666666666</ele><time>2026-04-11T13:31:32.902Z</time></trkpt><trkpt lat="45.5557867" lon="9.3951617"><ele>150.0</ele><time>2026-04-11T13:31:33.902Z</time></trkpt><trkpt lat="45.556" lon="9.3950517"><ele>150.5</ele><time>2026-04-11T13:31:34.901Z</time></trkpt><trkpt lat="45.5562067" lon="9.39492"><ele>151.0</ele><time>2026-04-11T13:31:35.902Z</time></trkpt><trkpt lat="45.556415" lon="9.39477"><ele>151.5</ele><time>2026-04-11T13:31:36.902Z</time></trkpt><trkpt lat="45.5566167" lon="9.3946033"><ele>152.0</ele><time>2026-04-11T13:31:37.901Z</time></trkpt><trkpt lat="45.55682" lon="9.394415"><ele>152.0</ele><time>2026-04-11T13:31:38.902Z</time></trkpt><trkpt lat="45.55702" lon="9.3942"><ele>152.0</ele><time>2026-04-11T13:31:39.902Z</time></trkpt><trkpt lat="45.5572067" lon="9.393965"><ele>152.0</ele><time>2026-04-11T13:31:40.902Z</time></trkpt><trkpt lat="45.5573817" lon="9.393695"><ele>152.0</ele><time>2026-04-11T13:31:41.902Z</time></trkpt><trkpt lat="45.55755" lon="9.393415"><ele>152.0</ele><time>2026-04-11T13:31:42.902Z</time></trkpt><trkpt lat="45.5577" lon="9.3931317"><ele>152.0</ele><time>2026-04-11T13:31:43.902Z</time></trkpt><trkpt lat="45.5578633" lon="9.3928383"><ele>152.0</ele><time>2026-04-11T13:31:44.902Z</time></trkpt><trkpt lat="45.55801" lon="9.3925333"><ele>152.0</ele><time>2026-04-11T13:31:45.902Z</time></trkpt><trkpt lat="45.55811" lon="9.3922033"><ele>151.0</ele><time>2026-04-11T13:31:46.902Z</time></trkpt><trkpt lat="45.5581933" lon="9.3918583"><ele>150.0</ele><time>2026-04-11T13:31:47.902Z</time></trkpt><trkpt lat="45.558285" lon="9.3914917"><ele>151.5</ele><time>2026-04-11T13:31:48.902Z</time></trkpt><trkpt lat="45.55837" lon="9.391135"><ele>153.0</ele><time>2026-04-11T13:31:49.902Z</time></trkpt><trkpt lat="45.5584433" lon="9.3907617"><ele>153.0</ele><time>2026-04-11T13:31:50.902Z</time></trkpt><trkpt lat="45.558515" lon="9.3903783"><ele>153.0</ele><time>2026-04-11T13:31:51.902Z</time></trkpt><trkpt lat="45.5585833" lon="9.390005"><ele>153.5</ele><time>2026-04-11T13:31:52.901Z</time></trkpt><trkpt lat="45.558665" lon="9.3896283"><ele>154.0</ele><time>2026-04-11T13:31:53.902Z</time></trkpt><trkpt lat="45.5587467" lon="9.389245"><ele>154.0</ele><time>2026-04-11T13:31:54.902Z</time></trkpt><trkpt lat="45.55882" lon="9.38886"><ele>154.0</ele><time>2026-04-11T13:31:55.902Z</time></trkpt><trkpt lat="45.5588917" lon="9.38847"><ele>153.5</ele><time>2026-04-11T13:31:56.902Z</time></trkpt><trkpt lat="45.5589633" lon="9.388085"><ele>153.0</ele><time>2026-04-11T13:31:57.902Z</time></trkpt><trkpt lat="45.5590383" lon="9.3877"><ele>153.5</ele><time>2026-04-11T13:31:58.902Z</time></trkpt><trkpt lat="45.55912" lon="9.387305"><ele>154.0</ele><time>2026-04-11T13:31:59.902Z</time></trkpt><trkpt lat="45.5592033" lon="9.3869183"><ele>154.0</ele><time>2026-04-11T13:32:00.902Z</time></trkpt><trkpt lat="45.5592817" lon="9.3865433"><ele>154.0</ele><time>2026-04-11T13:32:01.902Z</time></trkpt><trkpt lat="45.55936" lon="9.386175"><ele>154.5</ele><time>2026-04-11T13:32:02.902Z</time></trkpt><trkpt lat="45.55943" lon="9.38579"><ele>155.0</ele><time>2026-04-11T13:32:03.902Z</time></trkpt><trkpt lat="45.5594967" lon="9.3854033"><ele>155.0</ele><time>2026-04-11T13:32:04.902Z</time></trkpt><trkpt lat="45.559575" lon="9.3850217"><ele>155.0</ele><time>2026-04-11T13:32:05.902Z</time></trkpt><trkpt lat="45.5596467" lon="9.38464"><ele>155.0</ele><time>2026-04-11T13:32:06.902Z</time></trkpt><trkpt lat="45.5597133" lon="9.3842633"><ele>155.0</ele><time>2026-04-11T13:32:07.902Z</time></trkpt><trkpt lat="45.5597867" lon="9.3838867"><ele>155.0</ele><time>2026-04-11T13:32:08.901Z</time></trkpt><trkpt lat="45.559855" lon="9.3835083"><ele>155.0</ele><time>2026-04-11T13:32:09.902Z</time></trkpt><trkpt lat="45.55992" lon="9.3831333"><ele>154.0</ele><time>2026-04-11T13:32:10.902Z</time></trkpt><trkpt lat="45.5599967" lon="9.382755"><ele>153.0</ele><time>2026-04-11T13:32:11.902Z</time></trkpt><trkpt lat="45.5600667" lon="9.3823717"><ele>150.5</ele><time>2026-04-11T13:32:12.901Z</time></trkpt><trkpt lat="45.5601333" lon="9.3819883"><ele>148.0</ele><time>2026-04-11T13:32:13.902Z</time></trkpt><trkpt lat="45.5601933" lon="9.3816133"><ele>149.0</ele><time>2026-04-11T13:32:14.902Z</time></trkpt><trkpt lat="45.5602383" lon="9.3812383"><ele>150.0</ele><time>2026-04-11T13:32:15.902Z</time></trkpt><trkpt lat="45.5602767" lon="9.3808467"><ele>152.0</ele><time>2026-04-11T13:32:16.902Z</time></trkpt><trkpt lat="45.5603133" lon="9.3804667"><ele>154.0</ele><time>2026-04-11T13:32:17.902Z</time></trkpt><trkpt lat="45.5603417" lon="9.3800767"><ele>154.0</ele><time>2026-04-11T13:32:18.901Z</time></trkpt><trkpt lat="45.56036" lon="9.3796933"><ele>154.0</ele><time>2026-04-11T13:32:19.902Z</time></trkpt><trkpt lat="45.5603717" lon="9.37933"><ele>154.0</ele><time>2026-04-11T13:32:20.902Z</time></trkpt><trkpt lat="45.5603717" lon="9.3789833"><ele>154.0</ele><time>2026-04-11T13:32:21.901Z</time></trkpt><trkpt lat="45.5603717" lon="9.3786633"><ele>154.0</ele><time>2026-04-11T13:32:22.902Z</time></trkpt><trkpt lat="45.5603783" lon="9.3783583"><ele>154.0</ele><time>2026-04-11T13:32:23.902Z</time></trkpt><trkpt lat="45.560375" lon="9.37807"><ele>154.0</ele><time>2026-04-11T13:32:24.902Z</time></trkpt><trkpt lat="45.5603683" lon="9.3777933"><ele>153.33333333333334</ele><time>2026-04-11T13:32:25.902Z</time></trkpt><trkpt lat="45.5603567" lon="9.3775283"><ele>152.66666666666666</ele><time>2026-04-11T13:32:26.902Z</time></trkpt><trkpt lat="45.560345" lon="9.3772767"><ele>152.0</ele><time>2026-04-11T13:32:27.902Z</time></trkpt><trkpt lat="45.5603367" lon="9.37704"><ele>152.0</ele><time>2026-04-11T13:32:28.902Z</time></trkpt><trkpt lat="45.5603217" lon="9.3768"><ele>152.0</ele><time>2026-04-11T13:32:29.902Z</time></trkpt><trkpt lat="45.560315" lon="9.376565"><ele>152.0</ele><time>2026-04-11T13:32:30.902Z</time></trkpt><trkpt lat="45.5603033" lon="9.376315"><ele>152.33333333333331</ele><time>2026-04-11T13:32:31.902Z</time></trkpt><trkpt lat="45.5602883" lon="9.3760617"><ele>152.66666666666666</ele><time>2026-04-11T13:32:32.902Z</time></trkpt><trkpt lat="45.5602783" lon="9.3758033"><ele>153.0</ele><time>2026-04-11T13:32:33.902Z</time></trkpt><trkpt lat="45.5602667" lon="9.3755383"><ele>153.0</ele><time>2026-04-11T13:32:34.902Z</time></trkpt><trkpt lat="45.5602583" lon="9.3752633"><ele>153.0</ele><time>2026-04-11T13:32:35.902Z</time></trkpt><trkpt lat="45.56025" lon="9.3749833"><ele>153.0</ele><time>2026-04-11T13:32:36.902Z</time></trkpt><trkpt lat="45.5602367" lon="9.3747083"><ele>153.0</ele><time>2026-04-11T13:32:37.902Z</time></trkpt><trkpt lat="45.5602233" lon="9.37444"><ele>153.0</ele><time>2026-04-11T13:32:38.902Z</time></trkpt><trkpt lat="45.5602133" lon="9.3741817"><ele>153.0</ele><time>2026-04-11T13:32:39.902Z</time></trkpt><trkpt lat="45.5602017" lon="9.3739217"><ele>153.0</ele><time>2026-04-11T13:32:40.902Z</time></trkpt><trkpt lat="45.56019" lon="9.3736617"><ele>153.0</ele><time>2026-04-11T13:32:41.902Z</time></trkpt><trkpt lat="45.5601783" lon="9.3734"><ele>153.0</ele><time>2026-04-11T13:32:42.902Z</time></trkpt><trkpt lat="45.5601683" lon="9.3731433"><ele>152.66666666666666</ele><time>2026-04-11T13:32:43.902Z</time></trkpt><trkpt lat="45.5601583" lon="9.3728933"><ele>152.33333333333331</ele><time>2026-04-11T13:32:44.902Z</time></trkpt><trkpt lat="45.5601433" lon="9.372645"><ele>152.0</ele><time>2026-04-11T13:32:45.902Z</time></trkpt><trkpt lat="45.56013" lon="9.3724117"><ele>152.0</ele><time>2026-04-11T13:32:46.902Z</time></trkpt><trkpt lat="45.5601183" lon="9.372195"><ele>152.0</ele><time>2026-04-11T13:32:47.902Z</time></trkpt><trkpt lat="45.56011" lon="9.37198"><ele>152.0</ele><time>2026-04-11T13:32:48.901Z</time></trkpt><trkpt lat="45.5601" lon="9.3717683"><ele>152.0</ele><time>2026-04-11T13:32:49.902Z</time></trkpt><trkpt lat="45.56009" lon="9.3715567"><ele>152.0</ele><time>2026-04-11T13:32:50.902Z</time></trkpt><trkpt lat="45.5600783" lon="9.37134"><ele>152.0</ele><time>2026-04-11T13:32:51.902Z</time></trkpt><trkpt lat="45.5600683" lon="9.3711167"><ele>153.0</ele><time>2026-04-11T13:32:52.902Z</time></trkpt><trkpt lat="45.5600617" lon="9.3708917"><ele>154.0</ele><time>2026-04-11T13:32:53.902Z</time></trkpt><trkpt lat="45.560055" lon="9.370675"><ele>155.0</ele><time>2026-04-11T13:32:54.902Z</time></trkpt><trkpt lat="45.5600433" lon="9.3704683"><ele>155.0</ele><time>2026-04-11T13:32:55.902Z</time></trkpt><trkpt lat="45.5600317" lon="9.3702567"><ele>155.0</ele><time>2026-04-11T13:32:56.902Z</time></trkpt><trkpt lat="45.5600217" lon="9.37004"><ele>155.0</ele><time>2026-04-11T13:32:57.902Z</time></trkpt><trkpt lat="45.56001" lon="9.3698333"><ele>155.0</ele><time>2026-04-11T13:32:58.902Z</time></trkpt><trkpt lat="45.5599983" lon="9.3696317"><ele>154.5</ele><time>2026-04-11T13:32:59.902Z</time></trkpt><trkpt lat="45.559985" lon="9.3694333"><ele>154.0</ele><time>2026-04-11T13:33:00.902Z</time></trkpt><trkpt lat="45.5599733" lon="9.3692317"><ele>153.5</ele><time>2026-04-11T13:33:01.902Z</time></trkpt><trkpt lat="45.5599633" lon="9.36902"><ele>153.0</ele><time>2026-04-11T13:33:02.902Z</time></trkpt><trkpt lat="45.5599533" lon="9.3688033"><ele>152.66666666666666</ele><time>2026-04-11T13:33:03.902Z</time></trkpt><trkpt lat="45.5599417" lon="9.3685867"><ele>152.33333333333331</ele><time>2026-04-11T13:33:04.902Z</time></trkpt><trkpt lat="45.559925" lon="9.368355"><ele>152.0</ele><time>2026-04-11T13:33:05.902Z</time></trkpt><trkpt lat="45.5599183" lon="9.3681233"><ele>152.0</ele><time>2026-04-11T13:33:06.902Z</time></trkpt><trkpt lat="45.5599083" lon="9.3678817"><ele>152.0</ele><time>2026-04-11T13:33:07.902Z</time></trkpt><trkpt lat="45.5599" lon="9.3676417"><ele>152.0</ele><time>2026-04-11T13:33:08.902Z</time></trkpt><trkpt lat="45.55989" lon="9.3674017"><ele>152.33333333333331</ele><time>2026-04-11T13:33:09.902Z</time></trkpt><trkpt lat="45.5598783" lon="9.367165"><ele>152.66666666666666</ele><time>2026-04-11T13:33:10.902Z</time></trkpt><trkpt lat="45.5598717" lon="9.3669283"><ele>153.0</ele><time>2026-04-11T13:33:11.902Z</time></trkpt><trkpt lat="45.559865" lon="9.3667017"><ele>153.0</ele><time>2026-04-11T13:33:12.902Z</time></trkpt><trkpt lat="45.5598517" lon="9.3664717"><ele>153.0</ele><time>2026-04-11T13:33:13.902Z</time></trkpt><trkpt lat="45.559835" lon="9.3662433"><ele>153.0</ele><time>2026-04-11T13:33:14.902Z</time></trkpt><trkpt lat="45.559825" lon="9.3660267"><ele>153.33333333333334</ele><time>2026-04-11T13:33:15.902Z</time></trkpt><trkpt lat="45.5598183" lon="9.365805"><ele>153.66666666666669</ele><time>2026-04-11T13:33:16.902Z</time></trkpt><trkpt lat="45.5598133" lon="9.36558"><ele>154.0</ele><time>2026-04-11T13:33:17.902Z</time></trkpt><trkpt lat="45.55981" lon="9.365345"><ele>154.0</ele><time>2026-04-11T13:33:18.902Z</time></trkpt><trkpt lat="45.5597967" lon="9.3651183"><ele>154.0</ele><time>2026-04-11T13:33:19.901Z</time></trkpt><trkpt lat="45.5597833" lon="9.3649017"><ele>154.0</ele><time>2026-04-11T13:33:20.902Z</time></trkpt><trkpt lat="45.55977" lon="9.364675"><ele>154.0</ele><time>2026-04-11T13:33:21.902Z</time></trkpt><trkpt lat="45.5597567" lon="9.36445"><ele>154.0</ele><time>2026-04-11T13:33:22.902Z</time></trkpt><trkpt lat="45.55975" lon="9.3642233"><ele>154.0</ele><time>2026-04-11T13:33:23.902Z</time></trkpt><trkpt lat="45.5597417" lon="9.364005"><ele>154.0</ele><time>2026-04-11T13:33:24.901Z</time></trkpt><trkpt lat="45.5597367" lon="9.3638067"><ele>154.0</ele><time>2026-04-11T13:33:25.902Z</time></trkpt><trkpt lat="45.559725" lon="9.3636233"><ele>154.0</ele><time>2026-04-11T13:33:26.901Z</time></trkpt><trkpt lat="45.55972" lon="9.3634467"><ele>154.0</ele><time>2026-04-11T13:33:27.902Z</time></trkpt><trkpt lat="45.5597133" lon="9.3632667"><ele>153.66666666666669</ele><time>2026-04-11T13:33:28.902Z</time></trkpt><trkpt lat="45.559715" lon="9.3628833"><ele>153.33333333333334</ele><time>2026-04-11T13:33:30.902Z</time></trkpt><trkpt lat="45.559725" lon="9.362675"><ele>153.0</ele><time>2026-04-11T13:33:31.902Z</time></trkpt><trkpt lat="45.5597367" lon="9.3624517"><ele>153.0</ele><time>2026-04-11T13:33:32.902Z</time></trkpt><trkpt lat="45.5597517" lon="9.3622367"><ele>153.0</ele><time>2026-04-11T13:33:33.902Z</time></trkpt><trkpt lat="45.55977" lon="9.3620333"><ele>153.0</ele><time>2026-04-11T13:33:34.902Z</time></trkpt><trkpt lat="45.559795" lon="9.3618433"><ele>153.0</ele><time>2026-04-11T13:33:35.902Z</time></trkpt><trkpt lat="45.5598267" lon="9.3616483"><ele>153.25</ele><time>2026-04-11T13:33:36.901Z</time></trkpt><trkpt lat="45.5598533" lon="9.36146"><ele>153.5</ele><time>2026-04-11T13:33:37.902Z</time></trkpt><trkpt lat="45.559885" lon="9.3612667"><ele>153.75</ele><time>2026-04-11T13:33:38.902Z</time></trkpt><trkpt lat="45.55993" lon="9.36106"><ele>154.0</ele><time>2026-04-11T13:33:39.902Z</time></trkpt><trkpt lat="45.5599817" lon="9.3608567"><ele>153.66666666666669</ele><time>2026-04-11T13:33:40.902Z</time></trkpt><trkpt lat="45.5600317" lon="9.3606517"><ele>153.33333333333334</ele><time>2026-04-11T13:33:41.902Z</time></trkpt><trkpt lat="45.5600883" lon="9.3604433"><ele>153.0</ele><time>2026-04-11T13:33:42.902Z</time></trkpt><trkpt lat="45.5601583" lon="9.3602417"><ele>153.0</ele><time>2026-04-11T13:33:43.902Z</time></trkpt><trkpt lat="45.5602233" lon="9.3600417"><ele>153.0</ele><time>2026-04-11T13:33:44.902Z</time></trkpt><trkpt lat="45.5602883" lon="9.3598383"><ele>153.0</ele><time>2026-04-11T13:33:45.902Z</time></trkpt><trkpt lat="45.5603617" lon="9.3596383"><ele>153.25</ele><time>2026-04-11T13:33:46.902Z</time></trkpt><trkpt lat="45.5604417" lon="9.35945"><ele>153.5</ele><time>2026-04-11T13:33:47.902Z</time></trkpt><trkpt lat="45.56052" lon="9.3592733"><ele>153.75</ele><time>2026-04-11T13:33:48.902Z</time></trkpt><trkpt lat="45.5606" lon="9.3591083"><ele>154.0</ele><time>2026-04-11T13:33:49.902Z</time></trkpt><trkpt lat="45.560685" lon="9.3589483"><ele>154.0</ele><time>2026-04-11T13:33:50.902Z</time></trkpt><trkpt lat="45.5607717" lon="9.35877"><ele>154.0</ele><time>2026-04-11T13:33:51.902Z</time></trkpt><trkpt lat="45.56087" lon="9.358615"><ele>154.0</ele><time>2026-04-11T13:33:52.902Z</time></trkpt><trkpt lat="45.5609667" lon="9.3584567"><ele>154.0</ele><time>2026-04-11T13:33:53.902Z</time></trkpt><trkpt lat="45.56107" lon="9.3582983"><ele>154.0</ele><time>2026-04-11T13:33:54.902Z</time></trkpt><trkpt lat="45.5611717" lon="9.3581433"><ele>154.0</ele><time>2026-04-11T13:33:55.901Z</time></trkpt><trkpt lat="45.5612917" lon="9.3579833"><ele>154.0</ele><time>2026-04-11T13:33:56.902Z</time></trkpt><trkpt lat="45.561405" lon="9.3578317"><ele>153.75</ele><time>2026-04-11T13:33:57.901Z</time></trkpt><trkpt lat="45.5615" lon="9.3576967"><ele>153.5</ele><time>2026-04-11T13:33:58.902Z</time></trkpt><trkpt lat="45.5616" lon="9.3575683"><ele>153.25</ele><time>2026-04-11T13:33:59.902Z</time></trkpt><trkpt lat="45.56169" lon="9.3574333"><ele>153.0</ele><time>2026-04-11T13:34:00.902Z</time></trkpt><trkpt lat="45.561785" lon="9.357315"><ele>153.5</ele><time>2026-04-11T13:34:01.902Z</time></trkpt><trkpt lat="45.5618767" lon="9.35719"><ele>154.0</ele><time>2026-04-11T13:34:02.902Z</time></trkpt><trkpt lat="45.561975" lon="9.3570617"><ele>154.5</ele><time>2026-04-11T13:34:03.902Z</time></trkpt><trkpt lat="45.562075" lon="9.3569267"><ele>155.0</ele><time>2026-04-11T13:34:04.902Z</time></trkpt><trkpt lat="45.562175" lon="9.3567867"><ele>155.0</ele><time>2026-04-11T13:34:05.901Z</time></trkpt><trkpt lat="45.56228" lon="9.3566517"><ele>155.0</ele><time>2026-04-11T13:34:06.902Z</time></trkpt><trkpt lat="45.5623817" lon="9.35651"><ele>155.0</ele><time>2026-04-11T13:34:07.901Z</time></trkpt><trkpt lat="45.5624867" lon="9.35637"><ele>155.0</ele><time>2026-04-11T13:34:08.902Z</time></trkpt><trkpt lat="45.5625983" lon="9.3562267"><ele>155.25</ele><time>2026-04-11T13:34:09.902Z</time></trkpt><trkpt lat="45.5627067" lon="9.35608"><ele>155.5</ele><time>2026-04-11T13:34:10.902Z</time></trkpt><trkpt lat="45.562815" lon="9.3559317"><ele>155.75</ele><time>2026-04-11T13:34:11.902Z</time></trkpt><trkpt lat="45.5629233" lon="9.3557933"><ele>156.0</ele><time>2026-04-11T13:34:12.902Z</time></trkpt><trkpt lat="45.5630333" lon="9.35565"><ele>154.66666666666666</ele><time>2026-04-11T13:34:13.902Z</time></trkpt><trkpt lat="45.563145" lon="9.3555033"><ele>153.33333333333331</ele><time>2026-04-11T13:34:14.901Z</time></trkpt><trkpt lat="45.5632517" lon="9.3553567"><ele>152.0</ele><time>2026-04-11T13:34:15.902Z</time></trkpt><trkpt lat="45.5633633" lon="9.3552017"><ele>152.0</ele><time>2026-04-11T13:34:16.902Z</time></trkpt><trkpt lat="45.5634833" lon="9.3550417"><ele>152.0</ele><time>2026-04-11T13:34:17.902Z</time></trkpt><trkpt lat="45.5636" lon="9.3548833"><ele>152.0</ele><time>2026-04-11T13:34:18.902Z</time></trkpt><trkpt lat="45.56372" lon="9.3547217"><ele>152.33333333333331</ele><time>2026-04-11T13:34:19.902Z</time></trkpt><trkpt lat="45.56384" lon="9.3545583"><ele>152.66666666666666</ele><time>2026-04-11T13:34:20.902Z</time></trkpt><trkpt lat="45.56396" lon="9.3543983"><ele>153.0</ele><time>2026-04-11T13:34:21.902Z</time></trkpt><trkpt lat="45.5640733" lon="9.3542417"><ele>153.0</ele><time>2026-04-11T13:34:22.902Z</time></trkpt><trkpt lat="45.5641717" lon="9.35409"><ele>153.0</ele><time>2026-04-11T13:34:23.902Z</time></trkpt><trkpt lat="45.5642683" lon="9.3539283"><ele>153.0</ele><time>2026-04-11T13:34:24.901Z</time></trkpt><trkpt lat="45.5643583" lon="9.3537567"><ele>153.0</ele><time>2026-04-11T13:34:25.901Z</time></trkpt><trkpt lat="45.5644433" lon="9.3535917"><ele>154.0</ele><time>2026-04-11T13:34:26.901Z</time></trkpt><trkpt lat="45.5645317" lon="9.3534217"><ele>155.0</ele><time>2026-04-11T13:34:27.9Z</time></trkpt><trkpt lat="45.5646083" lon="9.3532533"><ele>156.0</ele><time>2026-04-11T13:34:28.901Z</time></trkpt><trkpt lat="45.5646783" lon="9.35309"><ele>157.0</ele><time>2026-04-11T13:34:29.901Z</time></trkpt><trkpt lat="45.5647483" lon="9.3529283"><ele>157.0</ele><time>2026-04-11T13:34:30.901Z</time></trkpt><trkpt lat="45.5648167" lon="9.35275"><ele>157.0</ele><time>2026-04-11T13:34:31.901Z</time></trkpt><trkpt lat="45.5648867" lon="9.3525683"><ele>157.0</ele><time>2026-04-11T13:34:32.901Z</time></trkpt><trkpt lat="45.5649517" lon="9.3523883"><ele>157.0</ele><time>2026-04-11T13:34:33.901Z</time></trkpt><trkpt lat="45.5650117" lon="9.3522017"><ele>157.0</ele><time>2026-04-11T13:34:34.901Z</time></trkpt><trkpt lat="45.565065" lon="9.352015"><ele>157.0</ele><time>2026-04-11T13:34:35.901Z</time></trkpt><trkpt lat="45.5651167" lon="9.3518217"><ele>157.0</ele><time>2026-04-11T13:34:36.901Z</time></trkpt><trkpt lat="45.565175" lon="9.3516267"><ele>157.0</ele><time>2026-04-11T13:34:37.901Z</time></trkpt><trkpt lat="45.56523" lon="9.3514283"><ele>157.25</ele><time>2026-04-11T13:34:38.9Z</time></trkpt><trkpt lat="45.565285" lon="9.3512367"><ele>157.5</ele><time>2026-04-11T13:34:39.901Z</time></trkpt><trkpt lat="45.5653433" lon="9.3510433"><ele>157.75</ele><time>2026-04-11T13:34:40.901Z</time></trkpt><trkpt lat="45.5654" lon="9.3508433"><ele>158.0</ele><time>2026-04-11T13:34:41.901Z</time></trkpt><trkpt lat="45.5654567" lon="9.3506517"><ele>158.75</ele><time>2026-04-11T13:34:42.901Z</time></trkpt><trkpt lat="45.5655083" lon="9.3504717"><ele>159.5</ele><time>2026-04-11T13:34:43.901Z</time></trkpt><trkpt lat="45.5655567" lon="9.3502883"><ele>160.25</ele><time>2026-04-11T13:34:44.901Z</time></trkpt><trkpt lat="45.5656133" lon="9.3501083"><ele>161.0</ele><time>2026-04-11T13:34:45.901Z</time></trkpt><trkpt lat="45.565665" lon="9.3499167"><ele>161.0</ele><time>2026-04-11T13:34:46.901Z</time></trkpt><trkpt lat="45.565725" lon="9.3497217"><ele>161.0</ele><time>2026-04-11T13:34:47.901Z</time></trkpt><trkpt lat="45.5657817" lon="9.3495217"><ele>161.0</ele><time>2026-04-11T13:34:48.901Z</time></trkpt><trkpt lat="45.56584" lon="9.3493283"><ele>161.0</ele><time>2026-04-11T13:34:49.901Z</time></trkpt><trkpt lat="45.5658983" lon="9.3491283"><ele>161.0</ele><time>2026-04-11T13:34:50.901Z</time></trkpt><trkpt lat="45.5659533" lon="9.3489233"><ele>161.0</ele><time>2026-04-11T13:34:51.901Z</time></trkpt><trkpt lat="45.5660167" lon="9.3487217"><ele>161.0</ele><time>2026-04-11T13:34:52.9Z</time></trkpt><trkpt lat="45.566085" lon="9.3485117"><ele>160.66666666666666</ele><time>2026-04-11T13:34:53.901Z</time></trkpt><trkpt lat="45.566155" lon="9.3483067"><ele>160.33333333333334</ele><time>2026-04-11T13:34:54.901Z</time></trkpt><trkpt lat="45.5662433" lon="9.3480917"><ele>160.0</ele><time>2026-04-11T13:34:55.9Z</time></trkpt><trkpt lat="45.566335" lon="9.3478833"><ele>159.33333333333334</ele><time>2026-04-11T13:34:56.901Z</time></trkpt><trkpt lat="45.5664383" lon="9.3476817"><ele>158.66666666666666</ele><time>2026-04-11T13:34:57.901Z</time></trkpt><trkpt lat="45.566555" lon="9.34751"><ele>158.0</ele><time>2026-04-11T13:34:58.901Z</time></trkpt><trkpt lat="45.5666817" lon="9.3473717"><ele>158.0</ele><time>2026-04-11T13:34:59.901Z</time></trkpt><trkpt lat="45.5668167" lon="9.347265"><ele>158.0</ele><time>2026-04-11T13:35:00.901Z</time></trkpt><trkpt lat="45.56697" lon="9.3471717"><ele>158.0</ele><time>2026-04-11T13:35:01.901Z</time></trkpt><trkpt lat="45.56713" lon="9.347105"><ele>158.5</ele><time>2026-04-11T13:35:02.901Z</time></trkpt><trkpt lat="45.5672817" lon="9.34705"><ele>159.0</ele><time>2026-04-11T13:35:03.901Z</time></trkpt><trkpt lat="45.567415" lon="9.347"><ele>159.5</ele><time>2026-04-11T13:35:04.901Z</time></trkpt><trkpt lat="45.5675583" lon="9.3469583"><ele>160.0</ele><time>2026-04-11T13:35:05.901Z</time></trkpt><trkpt lat="45.5677033" lon="9.3469133"><ele>160.0</ele><time>2026-04-11T13:35:06.901Z</time></trkpt><trkpt lat="45.5678483" lon="9.3468767"><ele>160.0</ele><time>2026-04-11T13:35:07.901Z</time></trkpt><trkpt lat="45.5679967" lon="9.34683"><ele>160.0</ele><time>2026-04-11T13:35:08.901Z</time></trkpt><trkpt lat="45.5681517" lon="9.3467717"><ele>160.66666666666669</ele><time>2026-04-11T13:35:09.901Z</time></trkpt><trkpt lat="45.5683033" lon="9.3467067"><ele>161.33333333333334</ele><time>2026-04-11T13:35:10.901Z</time></trkpt><trkpt lat="45.5684517" lon="9.346635"><ele>162.0</ele><time>2026-04-11T13:35:11.901Z</time></trkpt><trkpt lat="45.5685817" lon="9.3465617"><ele>162.0</ele><time>2026-04-11T13:35:12.901Z</time></trkpt><trkpt lat="45.5687117" lon="9.3464867"><ele>162.0</ele><time>2026-04-11T13:35:13.901Z</time></trkpt><trkpt lat="45.5688333" lon="9.346415"><ele>162.0</ele><time>2026-04-11T13:35:14.901Z</time></trkpt><trkpt lat="45.568945" lon="9.34635"><ele>162.0</ele><time>2026-04-11T13:35:15.901Z</time></trkpt><trkpt lat="45.5690517" lon="9.3463"><ele>161.6</ele><time>2026-04-11T13:35:16.901Z</time></trkpt><trkpt lat="45.5691583" lon="9.346255"><ele>161.2</ele><time>2026-04-11T13:35:17.901Z</time></trkpt><trkpt lat="45.569265" lon="9.3462167"><ele>160.8</ele><time>2026-04-11T13:35:18.901Z</time></trkpt><trkpt lat="45.5693633" lon="9.3461783"><ele>160.4</ele><time>2026-04-11T13:35:19.901Z</time></trkpt><trkpt lat="45.5694583" lon="9.3461433"><ele>160.0</ele><time>2026-04-11T13:35:20.901Z</time></trkpt><trkpt lat="45.5695483" lon="9.3461067"><ele>159.8</ele><time>2026-04-11T13:35:21.901Z</time></trkpt><trkpt lat="45.5696383" lon="9.3460733"><ele>159.6</ele><time>2026-04-11T13:35:22.901Z</time></trkpt><trkpt lat="45.5697383" lon="9.3460383"><ele>159.4</ele><time>2026-04-11T13:35:23.901Z</time></trkpt><trkpt lat="45.5698383" lon="9.3460133"><ele>159.2</ele><time>2026-04-11T13:35:24.9Z</time></trkpt><trkpt lat="45.569945" lon="9.34598"><ele>159.0</ele><time>2026-04-11T13:35:25.9Z</time></trkpt><trkpt lat="45.5700533" lon="9.34594"><ele>159.0</ele><time>2026-04-11T13:35:26.901Z</time></trkpt><trkpt lat="45.5701667" lon="9.3459017"><ele>159.0</ele><time>2026-04-11T13:35:27.901Z</time></trkpt><trkpt lat="45.57028" lon="9.3458567"><ele>159.0</ele><time>2026-04-11T13:35:28.901Z</time></trkpt><trkpt lat="45.5703983" lon="9.345815"><ele>159.0</ele><time>2026-04-11T13:35:29.901Z</time></trkpt><trkpt lat="45.5705117" lon="9.34578"><ele>159.0</ele><time>2026-04-11T13:35:30.901Z</time></trkpt><trkpt lat="45.57062" lon="9.3457383"><ele>159.0</ele><time>2026-04-11T13:35:31.901Z</time></trkpt><trkpt lat="45.57072" lon="9.3457117"><ele>159.0</ele><time>2026-04-11T13:35:32.901Z</time></trkpt><trkpt lat="45.5708217" lon="9.345685"><ele>159.0</ele><time>2026-04-11T13:35:33.901Z</time></trkpt><trkpt lat="45.5709267" lon="9.3456383"><ele>159.0</ele><time>2026-04-11T13:35:34.901Z</time></trkpt><trkpt lat="45.571045" lon="9.3455817"><ele>159.5</ele><time>2026-04-11T13:35:35.901Z</time></trkpt><trkpt lat="45.5711567" lon="9.34552"><ele>160.0</ele><time>2026-04-11T13:35:36.901Z</time></trkpt><trkpt lat="45.5712733" lon="9.3454567"><ele>160.5</ele><time>2026-04-11T13:35:37.901Z</time></trkpt><trkpt lat="45.5713833" lon="9.3453967"><ele>161.0</ele><time>2026-04-11T13:35:38.901Z</time></trkpt><trkpt lat="45.5714933" lon="9.34534"><ele>161.25</ele><time>2026-04-11T13:35:39.901Z</time></trkpt><trkpt lat="45.5716067" lon="9.345275"><ele>161.5</ele><time>2026-04-11T13:35:40.901Z</time></trkpt><trkpt lat="45.5717083" lon="9.345195"><ele>161.75</ele><time>2026-04-11T13:35:41.901Z</time></trkpt><trkpt lat="45.5718217" lon="9.34511"><ele>162.0</ele><time>2026-04-11T13:35:42.901Z</time></trkpt><trkpt lat="45.57194" lon="9.3450117"><ele>163.0</ele><time>2026-04-11T13:35:43.9Z</time></trkpt><trkpt lat="45.5720567" lon="9.34491"><ele>164.0</ele><time>2026-04-11T13:35:44.901Z</time></trkpt><trkpt lat="45.57217" lon="9.344805"><ele>165.0</ele><time>2026-04-11T13:35:45.901Z</time></trkpt><trkpt lat="45.5722867" lon="9.3446933"><ele>166.0</ele><time>2026-04-11T13:35:46.9Z</time></trkpt><trkpt lat="45.5724183" lon="9.34458"><ele>165.0</ele><time>2026-04-11T13:35:47.901Z</time></trkpt><trkpt lat="45.57254" lon="9.34446"><ele>164.0</ele><time>2026-04-11T13:35:48.901Z</time></trkpt><trkpt lat="45.5726617" lon="9.34434"><ele>163.0</ele><time>2026-04-11T13:35:49.901Z</time></trkpt><trkpt lat="45.5727867" lon="9.3442267"><ele>162.0</ele><time>2026-04-11T13:35:50.901Z</time></trkpt><trkpt lat="45.572915" lon="9.3441117"><ele>162.0</ele><time>2026-04-11T13:35:51.901Z</time></trkpt><trkpt lat="45.5730433" lon="9.3440017"><ele>162.0</ele><time>2026-04-11T13:35:52.901Z</time></trkpt><trkpt lat="45.573175" lon="9.34389"><ele>162.0</ele><time>2026-04-11T13:35:53.901Z</time></trkpt><trkpt lat="45.5733083" lon="9.34379"><ele>161.5</ele><time>2026-04-11T13:35:54.901Z</time></trkpt><trkpt lat="45.57344" lon="9.3437083"><ele>161.0</ele><time>2026-04-11T13:35:55.901Z</time></trkpt><trkpt lat="45.573575" lon="9.3436183"><ele>160.5</ele><time>2026-04-11T13:35:56.901Z</time></trkpt><trkpt lat="45.5737" lon="9.343535"><ele>160.0</ele><time>2026-04-11T13:35:57.901Z</time></trkpt><trkpt lat="45.573815" lon="9.34346"><ele>160.0</ele><time>2026-04-11T13:35:58.901Z</time></trkpt><trkpt lat="45.573935" lon="9.3433683"><ele>160.0</ele><time>2026-04-11T13:35:59.901Z</time></trkpt><trkpt lat="45.5740483" lon="9.343265"><ele>160.0</ele><time>2026-04-11T13:36:00.901Z</time></trkpt><trkpt lat="45.5741583" lon="9.3431517"><ele>160.0</ele><time>2026-04-11T13:36:01.901Z</time></trkpt><trkpt lat="45.574255" lon="9.343005"><ele>159.5</ele><time>2026-04-11T13:36:02.9Z</time></trkpt><trkpt lat="45.57433" lon="9.3428483"><ele>159.0</ele><time>2026-04-11T13:36:03.901Z</time></trkpt><trkpt lat="45.5744083" lon="9.34269"><ele>158.5</ele><time>2026-04-11T13:36:04.901Z</time></trkpt><trkpt lat="45.5745017" lon="9.3425333"><ele>158.0</ele><time>2026-04-11T13:36:05.901Z</time></trkpt><trkpt lat="45.574595" lon="9.3423517"><ele>158.33333333333331</ele><time>2026-04-11T13:36:06.901Z</time></trkpt><trkpt lat="45.5746833" lon="9.342165"><ele>158.66666666666666</ele><time>2026-04-11T13:36:07.901Z</time></trkpt><trkpt lat="45.5747683" lon="9.3419667"><ele>159.0</ele><time>2026-04-11T13:36:08.901Z</time></trkpt><trkpt lat="45.5748333" lon="9.341755"><ele>159.0</ele><time>2026-04-11T13:36:09.901Z</time></trkpt><trkpt lat="45.5749017" lon="9.3415367"><ele>159.0</ele><time>2026-04-11T13:36:10.901Z</time></trkpt><trkpt lat="45.5749683" lon="9.3413083"><ele>159.0</ele><time>2026-04-11T13:36:11.901Z</time></trkpt><trkpt lat="45.5750333" lon="9.34108"><ele>159.33333333333334</ele><time>2026-04-11T13:36:12.901Z</time></trkpt><trkpt lat="45.5751133" lon="9.3408433"><ele>159.66666666666669</ele><time>2026-04-11T13:36:13.901Z</time></trkpt><trkpt lat="45.57515" lon="9.3406083"><ele>160.0</ele><time>2026-04-11T13:36:14.901Z</time></trkpt><trkpt lat="45.5752083" lon="9.3403883"><ele>160.66666666666669</ele><time>2026-04-11T13:36:15.901Z</time></trkpt><trkpt lat="45.5752633" lon="9.3401633"><ele>161.33333333333334</ele><time>2026-04-11T13:36:16.901Z</time></trkpt><trkpt lat="45.57532" lon="9.3399333"><ele>162.0</ele><time>2026-04-11T13:36:17.901Z</time></trkpt><trkpt lat="45.5753633" lon="9.3397"><ele>162.33333333333334</ele><time>2026-04-11T13:36:18.901Z</time></trkpt><trkpt lat="45.5754083" lon="9.3394683"><ele>162.66666666666669</ele><time>2026-04-11T13:36:19.901Z</time></trkpt><trkpt lat="45.575455" lon="9.3392167"><ele>163.0</ele><time>2026-04-11T13:36:20.901Z</time></trkpt><trkpt lat="45.575505" lon="9.33897"><ele>162.66666666666669</ele><time>2026-04-11T13:36:21.901Z</time></trkpt><trkpt lat="45.5755433" lon="9.3387167"><ele>162.33333333333334</ele><time>2026-04-11T13:36:22.901Z</time></trkpt><trkpt lat="45.5755867" lon="9.3384817"><ele>162.0</ele><time>2026-04-11T13:36:23.901Z</time></trkpt><trkpt lat="45.57563" lon="9.3382383"><ele>162.0</ele><time>2026-04-11T13:36:24.901Z</time></trkpt><trkpt lat="45.5756767" lon="9.3379967"><ele>162.0</ele><time>2026-04-11T13:36:25.9Z</time></trkpt><trkpt lat="45.5757167" lon="9.3377483"><ele>162.0</ele><time>2026-04-11T13:36:26.901Z</time></trkpt><trkpt lat="45.5757583" lon="9.3374967"><ele>162.0</ele><time>2026-04-11T13:36:27.9Z</time></trkpt><trkpt lat="45.5757983" lon="9.3372317"><ele>162.0</ele><time>2026-04-11T13:36:28.901Z</time></trkpt><trkpt lat="45.5758433" lon="9.3369583"><ele>162.0</ele><time>2026-04-11T13:36:29.901Z</time></trkpt><trkpt lat="45.5758917" lon="9.3366967"><ele>162.0</ele><time>2026-04-11T13:36:30.901Z</time></trkpt><trkpt lat="45.575945" lon="9.33643"><ele>162.0</ele><time>2026-04-11T13:36:31.901Z</time></trkpt><trkpt lat="45.5760017" lon="9.3361583"><ele>162.0</ele><time>2026-04-11T13:36:32.901Z</time></trkpt><trkpt lat="45.57606" lon="9.335885"><ele>162.0</ele><time>2026-04-11T13:36:33.9Z</time></trkpt><trkpt lat="45.57612" lon="9.3356"><ele>162.0</ele><time>2026-04-11T13:36:34.901Z</time></trkpt><trkpt lat="45.57618" lon="9.3353117"><ele>162.0</ele><time>2026-04-11T13:36:35.901Z</time></trkpt><trkpt lat="45.57624" lon="9.3350233"><ele>162.33333333333334</ele><time>2026-04-11T13:36:36.901Z</time></trkpt><trkpt lat="45.5762967" lon="9.33473"><ele>162.66666666666669</ele><time>2026-04-11T13:36:37.901Z</time></trkpt><trkpt lat="45.5763533" lon="9.3344383"><ele>163.0</ele><time>2026-04-11T13:36:38.901Z</time></trkpt><trkpt lat="45.5764133" lon="9.33415"><ele>163.33333333333334</ele><time>2026-04-11T13:36:39.901Z</time></trkpt><trkpt lat="45.5764767" lon="9.3338783"><ele>163.66666666666666</ele><time>2026-04-11T13:36:40.901Z</time></trkpt><trkpt lat="45.5765383" lon="9.3336333"><ele>164.0</ele><time>2026-04-11T13:36:41.901Z</time></trkpt><trkpt lat="45.5765933" lon="9.333425"><ele>164.0</ele><time>2026-04-11T13:36:42.9Z</time></trkpt><trkpt lat="45.5766467" lon="9.3332467"><ele>164.0</ele><time>2026-04-11T13:36:43.901Z</time></trkpt><trkpt lat="45.5766983" lon="9.3330817"><ele>164.0</ele><time>2026-04-11T13:36:44.901Z</time></trkpt><trkpt lat="45.5767433" lon="9.3329483"><ele>164.0</ele><time>2026-04-11T13:36:45.901Z</time></trkpt><trkpt lat="45.5767933" lon="9.332825"><ele>163.79999999999998</ele><time>2026-04-11T13:36:46.901Z</time></trkpt><trkpt lat="45.57684" lon="9.3326983"><ele>163.6</ele><time>2026-04-11T13:36:47.901Z</time></trkpt><trkpt lat="45.576885" lon="9.3325717"><ele>163.4</ele><time>2026-04-11T13:36:48.901Z</time></trkpt><trkpt lat="45.5769283" lon="9.3324417"><ele>163.2</ele><time>2026-04-11T13:36:49.9Z</time></trkpt><trkpt lat="45.5769683" lon="9.3323267"><ele>163.0</ele><time>2026-04-11T13:36:50.901Z</time></trkpt><trkpt lat="45.577005" lon="9.3322233"><ele>163.16666666666669</ele><time>2026-04-11T13:36:51.901Z</time></trkpt><trkpt lat="45.57705" lon="9.3321267"><ele>163.33333333333334</ele><time>2026-04-11T13:36:52.901Z</time></trkpt><trkpt lat="45.5770933" lon="9.3320317"><ele>163.5</ele><time>2026-04-11T13:36:53.901Z</time></trkpt><trkpt lat="45.57713" lon="9.3319367"><ele>163.66666666666666</ele><time>2026-04-11T13:36:54.901Z</time></trkpt><trkpt lat="45.5771617" lon="9.3318367"><ele>163.83333333333331</ele><time>2026-04-11T13:36:55.9Z</time></trkpt><trkpt lat="45.5771983" lon="9.33174"><ele>164.0</ele><time>2026-04-11T13:36:56.901Z</time></trkpt><trkpt lat="45.57724" lon="9.3316367"><ele>164.0</ele><time>2026-04-11T13:36:57.901Z</time></trkpt><trkpt lat="45.5772783" lon="9.33153"><ele>164.0</ele><time>2026-04-11T13:36:58.901Z</time></trkpt><trkpt lat="45.5773217" lon="9.3314167"><ele>164.0</ele><time>2026-04-11T13:36:59.901Z</time></trkpt><trkpt lat="45.5773633" lon="9.3312967"><ele>164.0</ele><time>2026-04-11T13:37:00.901Z</time></trkpt><trkpt lat="45.577405" lon="9.3311717"><ele>164.0</ele><time>2026-04-11T13:37:01.901Z</time></trkpt><trkpt lat="45.57746" lon="9.3310467"><ele>163.79999999999998</ele><time>2026-04-11T13:37:02.901Z</time></trkpt><trkpt lat="45.5775133" lon="9.33091"><ele>163.6</ele><time>2026-04-11T13:37:03.901Z</time></trkpt><trkpt lat="45.5775583" lon="9.3307817"><ele>163.4</ele><time>2026-04-11T13:37:04.901Z</time></trkpt><trkpt lat="45.5776067" lon="9.3306517"><ele>163.2</ele><time>2026-04-11T13:37:05.901Z</time></trkpt><trkpt lat="45.5776517" lon="9.3305333"><ele>163.0</ele><time>2026-04-11T13:37:06.901Z</time></trkpt><trkpt lat="45.5776867" lon="9.33042"><ele>163.0</ele><time>2026-04-11T13:37:07.901Z</time></trkpt><trkpt lat="45.577725" lon="9.3303117"><ele>163.0</ele><time>2026-04-11T13:37:08.901Z</time></trkpt><trkpt lat="45.5777617" lon="9.3302083"><ele>163.0</ele><time>2026-04-11T13:37:09.901Z</time></trkpt><trkpt lat="45.5777967" lon="9.3301117"><ele>163.0</ele><time>2026-04-11T13:37:10.901Z</time></trkpt><trkpt lat="45.577835" lon="9.33001"><ele>163.0</ele><time>2026-04-11T13:37:11.9Z</time></trkpt><trkpt lat="45.577865" lon="9.3299217"><ele>163.0</ele><time>2026-04-11T13:37:12.901Z</time></trkpt><trkpt lat="45.5779117" lon="9.3297883"><ele>163.0</ele><time>2026-04-11T13:37:14.901Z</time></trkpt><trkpt lat="45.5779533" lon="9.3296733"><ele>163.0</ele><time>2026-04-11T13:37:16.901Z</time></trkpt><trkpt lat="45.5779967" lon="9.32955"><ele>163.0</ele><time>2026-04-11T13:37:18.901Z</time></trkpt><trkpt lat="45.5780517" lon="9.32941"><ele>163.0</ele><time>2026-04-11T13:37:20.901Z</time></trkpt><trkpt lat="45.5781067" lon="9.3292767"><ele>163.0</ele><time>2026-04-11T13:37:22.901Z</time></trkpt><trkpt lat="45.57816" lon="9.3291567"><ele>163.0</ele><time>2026-04-11T13:37:24.901Z</time></trkpt><trkpt lat="45.5782017" lon="9.3290583"><ele>163.0</ele><time>2026-04-11T13:37:26.901Z</time></trkpt><trkpt lat="45.5782467" lon="9.3289633"><ele>163.0</ele><time>2026-04-11T13:37:30.901Z</time></trkpt><trkpt lat="45.5782783" lon="9.3288567"><ele>163.0</ele><time>2026-04-11T13:37:33.9Z</time></trkpt><trkpt lat="45.57833" lon="9.32872"><ele>163.0</ele><time>2026-04-11T13:37:35.901Z</time></trkpt><trkpt lat="45.5783667" lon="9.3286233"><ele>163.0</ele><time>2026-04-11T13:37:36.901Z</time></trkpt><trkpt lat="45.5784" lon="9.3285217"><ele>162.83333333333334</ele><time>2026-04-11T13:37:37.901Z</time></trkpt><trkpt lat="45.5784383" lon="9.3284167"><ele>162.66666666666669</ele><time>2026-04-11T13:37:38.901Z</time></trkpt><trkpt lat="45.5784817" lon="9.3283033"><ele>162.5</ele><time>2026-04-11T13:37:39.901Z</time></trkpt><trkpt lat="45.5785217" lon="9.328185"><ele>162.33333333333334</ele><time>2026-04-11T13:37:40.901Z</time></trkpt><trkpt lat="45.5785633" lon="9.328065"><ele>162.16666666666666</ele><time>2026-04-11T13:37:41.901Z</time></trkpt><trkpt lat="45.5785983" lon="9.3279567"><ele>162.0</ele><time>2026-04-11T13:37:42.901Z</time></trkpt><trkpt lat="45.578635" lon="9.3278633"><ele>162.0</ele><time>2026-04-11T13:37:43.9Z</time></trkpt><trkpt lat="45.5786683" lon="9.3277783"><ele>162.0</ele><time>2026-04-11T13:37:44.901Z</time></trkpt><trkpt lat="45.5787" lon="9.3276933"><ele>162.0</ele><time>2026-04-11T13:37:45.901Z</time></trkpt><trkpt lat="45.5787317" lon="9.327615"><ele>162.0</ele><time>2026-04-11T13:37:46.901Z</time></trkpt><trkpt lat="45.57877" lon="9.3275317"><ele>162.0</ele><time>2026-04-11T13:37:47.901Z</time></trkpt><trkpt lat="45.5788067" lon="9.3274383"><ele>162.0</ele><time>2026-04-11T13:37:48.901Z</time></trkpt><trkpt lat="45.5788483" lon="9.3273517"><ele>162.0</ele><time>2026-04-11T13:37:49.901Z</time></trkpt><trkpt lat="45.57889" lon="9.3272583"><ele>162.33333333333334</ele><time>2026-04-11T13:37:50.9Z</time></trkpt><trkpt lat="45.5789317" lon="9.32716"><ele>162.66666666666666</ele><time>2026-04-11T13:37:51.9Z</time></trkpt><trkpt lat="45.578975" lon="9.327055"><ele>163.0</ele><time>2026-04-11T13:37:52.9Z</time></trkpt><trkpt lat="45.5790183" lon="9.3269467"><ele>163.33333333333331</ele><time>2026-04-11T13:37:53.9Z</time></trkpt><trkpt lat="45.57906" lon="9.3268383"><ele>163.66666666666666</ele><time>2026-04-11T13:37:54.9Z</time></trkpt><trkpt lat="45.5790983" lon="9.3267333"><ele>164.0</ele><time>2026-04-11T13:37:55.9Z</time></trkpt><trkpt lat="45.579135" lon="9.3266217"><ele>164.0</ele><time>2026-04-11T13:37:56.9Z</time></trkpt><trkpt lat="45.5791783" lon="9.3265167"><ele>164.0</ele><time>2026-04-11T13:37:57.9Z</time></trkpt><trkpt lat="45.579225" lon="9.32641"><ele>164.0</ele><time>2026-04-11T13:37:58.9Z</time></trkpt><trkpt lat="45.5792733" lon="9.3263083"><ele>164.0</ele><time>2026-04-11T13:37:59.9Z</time></trkpt><trkpt lat="45.5793233" lon="9.326195"><ele>164.0</ele><time>2026-04-11T13:38:00.9Z</time></trkpt><trkpt lat="45.5793683" lon="9.3260817"><ele>164.0</ele><time>2026-04-11T13:38:01.9Z</time></trkpt><trkpt lat="45.579415" lon="9.325965"><ele>163.79999999999998</ele><time>2026-04-11T13:38:02.9Z</time></trkpt><trkpt lat="45.5794583" lon="9.325855"><ele>163.6</ele><time>2026-04-11T13:38:03.899Z</time></trkpt><trkpt lat="45.5795067" lon="9.325725"><ele>163.4</ele><time>2026-04-11T13:38:04.9Z</time></trkpt><trkpt lat="45.5795533" lon="9.32558"><ele>163.2</ele><time>2026-04-11T13:38:05.9Z</time></trkpt><trkpt lat="45.5796033" lon="9.325425"><ele>163.0</ele><time>2026-04-11T13:38:06.9Z</time></trkpt><trkpt lat="45.5796567" lon="9.32528"><ele>163.0</ele><time>2026-04-11T13:38:07.9Z</time></trkpt><trkpt lat="45.5797067" lon="9.325125"><ele>163.0</ele><time>2026-04-11T13:38:08.899Z</time></trkpt><trkpt lat="45.57976" lon="9.3249467"><ele>163.0</ele><time>2026-04-11T13:38:09.9Z</time></trkpt><trkpt lat="45.5798083" lon="9.3247383"><ele>163.0</ele><time>2026-04-11T13:38:10.899Z</time></trkpt><trkpt lat="45.5798517" lon="9.3245167"><ele>163.0</ele><time>2026-04-11T13:38:11.9Z</time></trkpt><trkpt lat="45.5798917" lon="9.3242983"><ele>163.0</ele><time>2026-04-11T13:38:12.899Z</time></trkpt><trkpt lat="45.579925" lon="9.3240833"><ele>163.0</ele><time>2026-04-11T13:38:13.9Z</time></trkpt><trkpt lat="45.579945" lon="9.3238767"><ele>162.75</ele><time>2026-04-11T13:38:14.9Z</time></trkpt><trkpt lat="45.5799617" lon="9.3236833"><ele>162.5</ele><time>2026-04-11T13:38:15.9Z</time></trkpt><trkpt lat="45.57998" lon="9.3235017"><ele>162.25</ele><time>2026-04-11T13:38:16.9Z</time></trkpt><trkpt lat="45.58" lon="9.3233317"><ele>162.0</ele><time>2026-04-11T13:38:17.9Z</time></trkpt><trkpt lat="45.58002" lon="9.3231767"><ele>162.0</ele><time>2026-04-11T13:38:18.9Z</time></trkpt><trkpt lat="45.580035" lon="9.32303"><ele>162.0</ele><time>2026-04-11T13:38:19.9Z</time></trkpt><trkpt lat="45.5800467" lon="9.322875"><ele>162.0</ele><time>2026-04-11T13:38:20.9Z</time></trkpt><trkpt lat="45.58006" lon="9.322725"><ele>162.0</ele><time>2026-04-11T13:38:21.9Z</time></trkpt><trkpt lat="45.58008" lon="9.3225733"><ele>162.0</ele><time>2026-04-11T13:38:22.9Z</time></trkpt><trkpt lat="45.5800967" lon="9.3224133"><ele>162.0</ele><time>2026-04-11T13:38:23.9Z</time></trkpt><trkpt lat="45.5801083" lon="9.3222517"><ele>162.0</ele><time>2026-04-11T13:38:24.9Z</time></trkpt><trkpt lat="45.5801167" lon="9.322105"><ele>162.0</ele><time>2026-04-11T13:38:25.9Z</time></trkpt><trkpt lat="45.58013" lon="9.3219583"><ele>162.0</ele><time>2026-04-11T13:38:26.9Z</time></trkpt><trkpt lat="45.5801433" lon="9.3218167"><ele>162.0</ele><time>2026-04-11T13:38:27.899Z</time></trkpt><trkpt lat="45.58016" lon="9.3216717"><ele>162.0</ele><time>2026-04-11T13:38:28.9Z</time></trkpt><trkpt lat="45.58018" lon="9.321515"><ele>162.0</ele><time>2026-04-11T13:38:29.9Z</time></trkpt><trkpt lat="45.5801967" lon="9.3213567"><ele>162.0</ele><time>2026-04-11T13:38:30.9Z</time></trkpt><trkpt lat="45.5802133" lon="9.3212083"><ele>162.0</ele><time>2026-04-11T13:38:31.9Z</time></trkpt><trkpt lat="45.5802217" lon="9.3210683"><ele>162.0</ele><time>2026-04-11T13:38:32.9Z</time></trkpt><trkpt lat="45.58023" lon="9.3209367"><ele>162.0</ele><time>2026-04-11T13:38:33.9Z</time></trkpt><trkpt lat="45.580235" lon="9.3207983"><ele>162.0</ele><time>2026-04-11T13:38:34.899Z</time></trkpt><trkpt lat="45.5802417" lon="9.3206617"><ele>162.0</ele><time>2026-04-11T13:38:35.9Z</time></trkpt><trkpt lat="45.58025" lon="9.3205283"><ele>162.0</ele><time>2026-04-11T13:38:36.9Z</time></trkpt><trkpt lat="45.580255" lon="9.3204017"><ele>162.0</ele><time>2026-04-11T13:38:37.9Z</time></trkpt><trkpt lat="45.5802667" lon="9.32027"><ele>161.8</ele><time>2026-04-11T13:38:38.9Z</time></trkpt><trkpt lat="45.5802783" lon="9.3201283"><ele>161.6</ele><time>2026-04-11T13:38:39.9Z</time></trkpt><trkpt lat="45.5802983" lon="9.3199983"><ele>161.4</ele><time>2026-04-11T13:38:40.899Z</time></trkpt><trkpt lat="45.58031" lon="9.3198733"><ele>161.20000000000002</ele><time>2026-04-11T13:38:41.9Z</time></trkpt><trkpt lat="45.580325" lon="9.3197433"><ele>161.0</ele><time>2026-04-11T13:38:42.9Z</time></trkpt><trkpt lat="45.5803367" lon="9.3196067"><ele>160.8</ele><time>2026-04-11T13:38:43.9Z</time></trkpt><trkpt lat="45.5803533" lon="9.319475"><ele>160.60000000000002</ele><time>2026-04-11T13:38:44.9Z</time></trkpt><trkpt lat="45.5803667" lon="9.31934"><ele>160.4</ele><time>2026-04-11T13:38:45.9Z</time></trkpt><trkpt lat="45.5803717" lon="9.3192017"><ele>160.2</ele><time>2026-04-11T13:38:46.9Z</time></trkpt><trkpt lat="45.5803767" lon="9.3190517"><ele>160.0</ele><time>2026-04-11T13:38:47.9Z</time></trkpt><trkpt lat="45.58038" lon="9.3188933"><ele>160.0</ele><time>2026-04-11T13:38:48.9Z</time></trkpt><trkpt lat="45.5804133" lon="9.3187517"><ele>160.0</ele><time>2026-04-11T13:38:49.9Z</time></trkpt><trkpt lat="45.5804383" lon="9.31861"><ele>160.0</ele><time>2026-04-11T13:38:50.9Z</time></trkpt><trkpt lat="45.5804483" lon="9.3184617"><ele>160.0</ele><time>2026-04-11T13:38:51.9Z</time></trkpt><trkpt lat="45.5804567" lon="9.3183317"><ele>160.0</ele><time>2026-04-11T13:38:52.9Z</time></trkpt><trkpt lat="45.5804667" lon="9.3181917"><ele>159.6</ele><time>2026-04-11T13:38:53.9Z</time></trkpt><trkpt lat="45.58048" lon="9.3180467"><ele>159.2</ele><time>2026-04-11T13:38:54.9Z</time></trkpt><trkpt lat="45.5804867" lon="9.3179017"><ele>158.8</ele><time>2026-04-11T13:38:55.9Z</time></trkpt><trkpt lat="45.58049" lon="9.3177517"><ele>158.4</ele><time>2026-04-11T13:38:56.9Z</time></trkpt><trkpt lat="45.580495" lon="9.3176033"><ele>158.0</ele><time>2026-04-11T13:38:57.9Z</time></trkpt><trkpt lat="45.580505" lon="9.3174367"><ele>158.0</ele><time>2026-04-11T13:38:58.9Z</time></trkpt><trkpt lat="45.5805167" lon="9.3172617"><ele>158.0</ele><time>2026-04-11T13:38:59.9Z</time></trkpt><trkpt lat="45.5805367" lon="9.3170817"><ele>158.0</ele><time>2026-04-11T13:39:00.9Z</time></trkpt><trkpt lat="45.58055" lon="9.3168933"><ele>158.0</ele><time>2026-04-11T13:39:01.9Z</time></trkpt><trkpt lat="45.5805633" lon="9.316715"><ele>158.0</ele><time>2026-04-11T13:39:02.9Z</time></trkpt><trkpt lat="45.5805767" lon="9.3165433"><ele>158.0</ele><time>2026-04-11T13:39:03.899Z</time></trkpt><trkpt lat="45.5805883" lon="9.31638"><ele>158.0</ele><time>2026-04-11T13:39:04.9Z</time></trkpt><trkpt lat="45.5806017" lon="9.3162117"><ele>158.0</ele><time>2026-04-11T13:39:05.9Z</time></trkpt><trkpt lat="45.5806167" lon="9.31604"><ele>158.0</ele><time>2026-04-11T13:39:06.9Z</time></trkpt><trkpt lat="45.5806333" lon="9.31586"><ele>158.0</ele><time>2026-04-11T13:39:07.899Z</time></trkpt><trkpt lat="45.58064" lon="9.3156583"><ele>158.0</ele><time>2026-04-11T13:39:08.9Z</time></trkpt><trkpt lat="45.58064" lon="9.3154233"><ele>158.0</ele><time>2026-04-11T13:39:09.9Z</time></trkpt><trkpt lat="45.5806617" lon="9.3151733"><ele>159.0</ele><time>2026-04-11T13:39:10.9Z</time></trkpt><trkpt lat="45.5806867" lon="9.31495"><ele>160.0</ele><time>2026-04-11T13:39:11.9Z</time></trkpt><trkpt lat="45.5807133" lon="9.3147333"><ele>161.0</ele><time>2026-04-11T13:39:12.9Z</time></trkpt><trkpt lat="45.5807317" lon="9.3145283"><ele>161.0</ele><time>2026-04-11T13:39:13.9Z</time></trkpt><trkpt lat="45.5807483" lon="9.3143333"><ele>161.0</ele><time>2026-04-11T13:39:14.9Z</time></trkpt><trkpt lat="45.5807633" lon="9.314145"><ele>161.0</ele><time>2026-04-11T13:39:15.9Z</time></trkpt><trkpt lat="45.5807833" lon="9.3139533"><ele>161.0</ele><time>2026-04-11T13:39:16.9Z</time></trkpt><trkpt lat="45.5807967" lon="9.3137717"><ele>161.0</ele><time>2026-04-11T13:39:17.9Z</time></trkpt><trkpt lat="45.5808117" lon="9.313595"><ele>161.0</ele><time>2026-04-11T13:39:18.9Z</time></trkpt><trkpt lat="45.580835" lon="9.3134167"><ele>161.0</ele><time>2026-04-11T13:39:19.9Z</time></trkpt><trkpt lat="45.5808583" lon="9.3132367"><ele>161.0</ele><time>2026-04-11T13:39:20.9Z</time></trkpt><trkpt lat="45.5808817" lon="9.3130583"><ele>160.75</ele><time>2026-04-11T13:39:21.9Z</time></trkpt><trkpt lat="45.5809017" lon="9.3128833"><ele>160.5</ele><time>2026-04-11T13:39:22.899Z</time></trkpt><trkpt lat="45.58093" lon="9.3126767"><ele>160.25</ele><time>2026-04-11T13:39:23.9Z</time></trkpt><trkpt lat="45.58096" lon="9.3124517"><ele>160.0</ele><time>2026-04-11T13:39:24.9Z</time></trkpt><trkpt lat="45.5809767" lon="9.3122267"><ele>159.75</ele><time>2026-04-11T13:39:25.9Z</time></trkpt><trkpt lat="45.5809917" lon="9.3120183"><ele>159.5</ele><time>2026-04-11T13:39:26.9Z</time></trkpt><trkpt lat="45.581015" lon="9.3118167"><ele>159.25</ele><time>2026-04-11T13:39:27.9Z</time></trkpt><trkpt lat="45.5810267" lon="9.3116333"><ele>159.0</ele><time>2026-04-11T13:39:28.9Z</time></trkpt><trkpt lat="45.5810417" lon="9.3114367"><ele>159.0</ele><time>2026-04-11T13:39:29.9Z</time></trkpt><trkpt lat="45.5810483" lon="9.311245"><ele>159.0</ele><time>2026-04-11T13:39:30.899Z</time></trkpt><trkpt lat="45.581065" lon="9.3110667"><ele>159.0</ele><time>2026-04-11T13:39:31.9Z</time></trkpt><trkpt lat="45.5810717" lon="9.310905"><ele>159.0</ele><time>2026-04-11T13:39:32.9Z</time></trkpt><trkpt lat="45.5810867" lon="9.3107567"><ele>159.0</ele><time>2026-04-11T13:39:33.9Z</time></trkpt><trkpt lat="45.5810983" lon="9.3106317"><ele>159.0</ele><time>2026-04-11T13:39:34.9Z</time></trkpt><trkpt lat="45.581115" lon="9.3104817"><ele>159.0</ele><time>2026-04-11T13:39:36.9Z</time></trkpt><trkpt lat="45.5811333" lon="9.3103733"><ele>159.0</ele><time>2026-04-11T13:39:38.9Z</time></trkpt><trkpt lat="45.5811617" lon="9.31029"><ele>159.0</ele><time>2026-04-11T13:39:48.899Z</time></trkpt><trkpt lat="45.5812" lon="9.3101483"><ele>159.0</ele><time>2026-04-11T13:39:56.9Z</time></trkpt><trkpt lat="45.5812517" lon="9.3100617"><ele>159.16666666666666</ele><time>2026-04-11T13:40:05.9Z</time></trkpt><trkpt lat="45.5813017" lon="9.3099667"><ele>159.33333333333334</ele><time>2026-04-11T13:40:07.9Z</time></trkpt><trkpt lat="45.581345" lon="9.3098167"><ele>159.5</ele><time>2026-04-11T13:40:09.9Z</time></trkpt><trkpt lat="45.5813517" lon="9.3097117"><ele>159.66666666666669</ele><time>2026-04-11T13:40:10.9Z</time></trkpt><trkpt lat="45.5813483" lon="9.309605"><ele>159.83333333333334</ele><time>2026-04-11T13:40:11.899Z</time></trkpt><trkpt lat="45.581325" lon="9.30949"><ele>160.0</ele><time>2026-04-11T13:40:12.9Z</time></trkpt><trkpt lat="45.5812917" lon="9.309355"><ele>160.25</ele><time>2026-04-11T13:40:13.899Z</time></trkpt><trkpt lat="45.581265" lon="9.3091767"><ele>160.5</ele><time>2026-04-11T13:40:14.9Z</time></trkpt><trkpt lat="45.58125" lon="9.308965"><ele>160.75</ele><time>2026-04-11T13:40:15.9Z</time></trkpt><trkpt lat="45.5812567" lon="9.3087217"><ele>161.0</ele><time>2026-04-11T13:40:16.9Z</time></trkpt><trkpt lat="45.581285" lon="9.3084633"><ele>161.0</ele><time>2026-04-11T13:40:17.9Z</time></trkpt><trkpt lat="45.5813083" lon="9.3081817"><ele>161.0</ele><time>2026-04-11T13:40:18.899Z</time></trkpt><trkpt lat="45.5813267" lon="9.3079083"><ele>161.0</ele><time>2026-04-11T13:40:19.9Z</time></trkpt><trkpt lat="45.5813367" lon="9.30766"><ele>160.66666666666666</ele><time>2026-04-11T13:40:20.9Z</time></trkpt><trkpt lat="45.5813367" lon="9.3074317"><ele>160.33333333333334</ele><time>2026-04-11T13:40:21.9Z</time></trkpt><trkpt lat="45.5813417" lon="9.3071983"><ele>160.0</ele><time>2026-04-11T13:40:22.9Z</time></trkpt><trkpt lat="45.58135" lon="9.3069633"><ele>160.0</ele><time>2026-04-11T13:40:23.9Z</time></trkpt><trkpt lat="45.5813583" lon="9.3067333"><ele>160.0</ele><time>2026-04-11T13:40:24.9Z</time></trkpt><trkpt lat="45.581365" lon="9.306505"><ele>160.0</ele><time>2026-04-11T13:40:25.9Z</time></trkpt><trkpt lat="45.5813767" lon="9.306275"><ele>160.33333333333334</ele><time>2026-04-11T13:40:26.9Z</time></trkpt><trkpt lat="45.5813983" lon="9.306035"><ele>160.66666666666666</ele><time>2026-04-11T13:40:27.9Z</time></trkpt><trkpt lat="45.5814183" lon="9.3057767"><ele>161.0</ele><time>2026-04-11T13:40:28.9Z</time></trkpt><trkpt lat="45.5814317" lon="9.30553"><ele>161.0</ele><time>2026-04-11T13:40:29.9Z</time></trkpt><trkpt lat="45.5814483" lon="9.3052883"><ele>161.0</ele><time>2026-04-11T13:40:30.9Z</time></trkpt><trkpt lat="45.5814717" lon="9.3050467"><ele>161.0</ele><time>2026-04-11T13:40:31.9Z</time></trkpt><trkpt lat="45.5814917" lon="9.304805"><ele>161.0</ele><time>2026-04-11T13:40:32.9Z</time></trkpt><trkpt lat="45.5815117" lon="9.304555"><ele>161.0</ele><time>2026-04-11T13:40:33.9Z</time></trkpt><trkpt lat="45.5815267" lon="9.3043"><ele>161.0</ele><time>2026-04-11T13:40:34.9Z</time></trkpt><trkpt lat="45.5815483" lon="9.3040567"><ele>160.33333333333331</ele><time>2026-04-11T13:40:35.9Z</time></trkpt><trkpt lat="45.5815633" lon="9.3038033"><ele>159.66666666666666</ele><time>2026-04-11T13:40:36.899Z</time></trkpt><trkpt lat="45.5815783" lon="9.3035783"><ele>159.0</ele><time>2026-04-11T13:40:37.9Z</time></trkpt><trkpt lat="45.5815933" lon="9.3033683"><ele>159.0</ele><time>2026-04-11T13:40:38.9Z</time></trkpt><trkpt lat="45.5816117" lon="9.3031717"><ele>159.0</ele><time>2026-04-11T13:40:39.9Z</time></trkpt><trkpt lat="45.58163" lon="9.3030067"><ele>159.0</ele><time>2026-04-11T13:40:40.9Z</time></trkpt><trkpt lat="45.5816417" lon="9.30286"><ele>159.0</ele><time>2026-04-11T13:40:41.9Z</time></trkpt><trkpt lat="45.5816517" lon="9.3027533"><ele>159.0</ele><time>2026-04-11T13:40:42.9Z</time></trkpt><trkpt lat="45.5816533" lon="9.3025933"><ele>159.16666666666666</ele><time>2026-04-11T13:40:44.9Z</time></trkpt><trkpt lat="45.58167" lon="9.3025"><ele>159.33333333333334</ele><time>2026-04-11T13:40:47.9Z</time></trkpt><trkpt lat="45.581675" lon="9.3024"><ele>159.5</ele><time>2026-04-11T13:41:08.9Z</time></trkpt><trkpt lat="45.5816817" lon="9.30221"><ele>159.66666666666669</ele><time>2026-04-11T13:41:10.9Z</time></trkpt><trkpt lat="45.58169" lon="9.30212"><ele>159.83333333333334</ele><time>2026-04-11T13:41:11.9Z</time></trkpt><trkpt lat="45.5817033" lon="9.301975"><ele>160.0</ele><time>2026-04-11T13:41:13.899Z</time></trkpt><trkpt lat="45.5817133" lon="9.301785"><ele>160.4</ele><time>2026-04-11T13:41:15.898Z</time></trkpt><trkpt lat="45.5817217" lon="9.3016583"><ele>160.8</ele><time>2026-04-11T13:41:16.899Z</time></trkpt><trkpt lat="45.58174" lon="9.30152"><ele>161.2</ele><time>2026-04-11T13:41:17.899Z</time></trkpt><trkpt lat="45.5817567" lon="9.3013567"><ele>161.6</ele><time>2026-04-11T13:41:18.899Z</time></trkpt><trkpt lat="45.5817783" lon="9.3011733"><ele>162.0</ele><time>2026-04-11T13:41:19.899Z</time></trkpt><trkpt lat="45.5817983" lon="9.3009967"><ele>162.0</ele><time>2026-04-11T13:41:20.899Z</time></trkpt><trkpt lat="45.58181" lon="9.3008267"><ele>162.0</ele><time>2026-04-11T13:41:21.899Z</time></trkpt><trkpt lat="45.5818167" lon="9.3006733"><ele>162.0</ele><time>2026-04-11T13:41:22.899Z</time></trkpt><trkpt lat="45.5818233" lon="9.300535"><ele>162.0</ele><time>2026-04-11T13:41:23.899Z</time></trkpt><trkpt lat="45.58183" lon="9.300405"><ele>162.0</ele><time>2026-04-11T13:41:24.899Z</time></trkpt><trkpt lat="45.5818433" lon="9.3003033"><ele>162.0</ele><time>2026-04-11T13:41:25.898Z</time></trkpt><trkpt lat="45.58188" lon="9.3001383"><ele>162.0</ele><time>2026-04-11T13:41:27.899Z</time></trkpt><trkpt lat="45.5819217" lon="9.2999833"><ele>162.0</ele><time>2026-04-11T13:41:29.899Z</time></trkpt><trkpt lat="45.5819367" lon="9.299895"><ele>162.0</ele><time>2026-04-11T13:41:30.899Z</time></trkpt><trkpt lat="45.5819317" lon="9.2997167"><ele>162.0</ele><time>2026-04-11T13:41:32.899Z</time></trkpt><trkpt lat="45.5819217" lon="9.29961"><ele>162.16666666666666</ele><time>2026-04-11T13:41:33.899Z</time></trkpt><trkpt lat="45.5819067" lon="9.299515"><ele>162.33333333333334</ele><time>2026-04-11T13:41:34.899Z</time></trkpt><trkpt lat="45.5819083" lon="9.2994017"><ele>162.5</ele><time>2026-04-11T13:41:35.899Z</time></trkpt><trkpt lat="45.5819233" lon="9.299275"><ele>162.66666666666669</ele><time>2026-04-11T13:41:36.899Z</time></trkpt><trkpt lat="45.58193" lon="9.2991367"><ele>162.83333333333334</ele><time>2026-04-11T13:41:37.899Z</time></trkpt><trkpt lat="45.5819333" lon="9.2989867"><ele>163.0</ele><time>2026-04-11T13:41:38.899Z</time></trkpt><trkpt lat="45.5819433" lon="9.2988383"><ele>163.16666666666669</ele><time>2026-04-11T13:41:39.899Z</time></trkpt><trkpt lat="45.5819533" lon="9.2986883"><ele>163.33333333333334</ele><time>2026-04-11T13:41:40.899Z</time></trkpt><trkpt lat="45.58196" lon="9.298555"><ele>163.5</ele><time>2026-04-11T13:41:41.898Z</time></trkpt><trkpt lat="45.5819683" lon="9.2984367"><ele>163.66666666666666</ele><time>2026-04-11T13:41:42.899Z</time></trkpt><trkpt lat="45.581975" lon="9.298325"><ele>163.83333333333331</ele><time>2026-04-11T13:41:43.899Z</time></trkpt><trkpt lat="45.5819983" lon="9.2982333"><ele>164.0</ele><time>2026-04-11T13:41:44.899Z</time></trkpt><trkpt lat="45.5820033" lon="9.29814"><ele>164.0</ele><time>2026-04-11T13:41:45.899Z</time></trkpt><trkpt lat="45.5820117" lon="9.2980083"><ele>164.0</ele><time>2026-04-11T13:41:47.899Z</time></trkpt><trkpt lat="45.582" lon="9.29789"><ele>164.0</ele><time>2026-04-11T13:41:57.899Z</time></trkpt><trkpt lat="45.5820067" lon="9.2977983"><ele>164.0</ele><time>2026-04-11T13:41:58.899Z</time></trkpt><trkpt lat="45.5820183" lon="9.29769"><ele>164.0</ele><time>2026-04-11T13:41:59.899Z</time></trkpt><trkpt lat="45.5820317" lon="9.297585"><ele>164.0</ele><time>2026-04-11T13:42:00.899Z</time></trkpt><trkpt lat="45.58204" lon="9.2974917"><ele>164.0</ele><time>2026-04-11T13:42:01.899Z</time></trkpt><trkpt lat="45.5820517" lon="9.29739"><ele>164.0</ele><time>2026-04-11T13:42:02.899Z</time></trkpt><trkpt lat="45.5820683" lon="9.2972817"><ele>164.0</ele><time>2026-04-11T13:42:03.899Z</time></trkpt><trkpt lat="45.5820967" lon="9.2971667"><ele>164.0</ele><time>2026-04-11T13:42:04.899Z</time></trkpt><trkpt lat="45.58212" lon="9.2970217"><ele>164.0</ele><time>2026-04-11T13:42:05.899Z</time></trkpt><trkpt lat="45.582155" lon="9.2968733"><ele>164.0</ele><time>2026-04-11T13:42:06.899Z</time></trkpt><trkpt lat="45.58217" lon="9.296705"><ele>163.75</ele><time>2026-04-11T13:42:07.899Z</time></trkpt><trkpt lat="45.582175" lon="9.296525"><ele>163.5</ele><time>2026-04-11T13:42:08.899Z</time></trkpt><trkpt lat="45.582195" lon="9.296335"><ele>163.25</ele><time>2026-04-11T13:42:09.899Z</time></trkpt><trkpt lat="45.582215" lon="9.2961383"><ele>163.0</ele><time>2026-04-11T13:42:10.899Z</time></trkpt><trkpt lat="45.5822317" lon="9.2959333"><ele>163.5</ele><time>2026-04-11T13:42:11.899Z</time></trkpt><trkpt lat="45.5822417" lon="9.29572"><ele>164.0</ele><time>2026-04-11T13:42:12.898Z</time></trkpt><trkpt lat="45.5822667" lon="9.2955067"><ele>164.5</ele><time>2026-04-11T13:42:13.899Z</time></trkpt><trkpt lat="45.5822967" lon="9.295315"><ele>165.0</ele><time>2026-04-11T13:42:14.899Z</time></trkpt><trkpt lat="45.5823167" lon="9.29513"><ele>165.0</ele><time>2026-04-11T13:42:15.899Z</time></trkpt><trkpt lat="45.5823317" lon="9.2949367"><ele>165.0</ele><time>2026-04-11T13:42:16.899Z</time></trkpt><trkpt lat="45.5823667" lon="9.29475"><ele>165.0</ele><time>2026-04-11T13:42:17.899Z</time></trkpt><trkpt lat="45.58239" lon="9.2945783"><ele>165.0</ele><time>2026-04-11T13:42:18.899Z</time></trkpt><trkpt lat="45.5824033" lon="9.294415"><ele>165.0</ele><time>2026-04-11T13:42:19.899Z</time></trkpt><trkpt lat="45.582425" lon="9.29423"><ele>165.0</ele><time>2026-04-11T13:42:20.899Z</time></trkpt><trkpt lat="45.5824417" lon="9.2940467"><ele>165.0</ele><time>2026-04-11T13:42:21.899Z</time></trkpt><trkpt lat="45.582465" lon="9.29386"><ele>165.0</ele><time>2026-04-11T13:42:22.899Z</time></trkpt><trkpt lat="45.58249" lon="9.2936683"><ele>165.0</ele><time>2026-04-11T13:42:23.899Z</time></trkpt><trkpt lat="45.5825183" lon="9.2934783"><ele>165.0</ele><time>2026-04-11T13:42:24.899Z</time></trkpt><trkpt lat="45.5825383" lon="9.293295"><ele>165.0</ele><time>2026-04-11T13:42:25.899Z</time></trkpt><trkpt lat="45.58256" lon="9.2931317"><ele>165.0</ele><time>2026-04-11T13:42:26.899Z</time></trkpt><trkpt lat="45.582585" lon="9.29297"><ele>165.0</ele><time>2026-04-11T13:42:27.899Z</time></trkpt><trkpt lat="45.5826117" lon="9.29281"><ele>165.0</ele><time>2026-04-11T13:42:28.899Z</time></trkpt><trkpt lat="45.58263" lon="9.2926533"><ele>165.0</ele><time>2026-04-11T13:42:29.899Z</time></trkpt><trkpt lat="45.5826483" lon="9.2924867"><ele>165.0</ele><time>2026-04-11T13:42:30.899Z</time></trkpt><trkpt lat="45.582665" lon="9.29232"><ele>165.0</ele><time>2026-04-11T13:42:31.899Z</time></trkpt><trkpt lat="45.5826633" lon="9.292165"><ele>165.0</ele><time>2026-04-11T13:42:32.899Z</time></trkpt><trkpt lat="45.5826783" lon="9.292"><ele>165.0</ele><time>2026-04-11T13:42:33.899Z</time></trkpt><trkpt lat="45.5826983" lon="9.2918383"><ele>165.0</ele><time>2026-04-11T13:42:34.898Z</time></trkpt><trkpt lat="45.5827217" lon="9.29168"><ele>165.0</ele><time>2026-04-11T13:42:35.899Z</time></trkpt><trkpt lat="45.5827533" lon="9.2915367"><ele>165.0</ele><time>2026-04-11T13:42:36.899Z</time></trkpt><trkpt lat="45.5827717" lon="9.291395"><ele>165.0</ele><time>2026-04-11T13:42:37.899Z</time></trkpt><trkpt lat="45.582785" lon="9.29126"><ele>165.0</ele><time>2026-04-11T13:42:38.899Z</time></trkpt><trkpt lat="45.5827967" lon="9.29114"><ele>165.0</ele><time>2026-04-11T13:42:39.899Z</time></trkpt><trkpt lat="45.5828167" lon="9.2910233"><ele>164.66666666666666</ele><time>2026-04-11T13:42:40.899Z</time></trkpt><trkpt lat="45.5828267" lon="9.2909117"><ele>164.33333333333334</ele><time>2026-04-11T13:42:41.898Z</time></trkpt><trkpt lat="45.5828333" lon="9.2908033"><ele>164.0</ele><time>2026-04-11T13:42:42.899Z</time></trkpt><trkpt lat="45.5828383" lon="9.2907067"><ele>163.66666666666669</ele><time>2026-04-11T13:42:43.898Z</time></trkpt><trkpt lat="45.5828517" lon="9.290545"><ele>163.33333333333334</ele><time>2026-04-11T13:42:45.899Z</time></trkpt><trkpt lat="45.582875" lon="9.2904367"><ele>163.0</ele><time>2026-04-11T13:42:47.899Z</time></trkpt><trkpt lat="45.5828933" lon="9.2903433"><ele>163.0</ele><time>2026-04-11T13:42:58.899Z</time></trkpt><trkpt lat="45.582905" lon="9.2901717"><ele>163.0</ele><time>2026-04-11T13:43:00.899Z</time></trkpt><trkpt lat="45.5828567" lon="9.2900517"><ele>163.0</ele><time>2026-04-11T13:43:02.899Z</time></trkpt><trkpt lat="45.5827017" lon="9.2899967"><ele>163.0</ele><time>2026-04-11T13:43:04.899Z</time></trkpt><trkpt lat="45.5826" lon="9.2899683"><ele>163.0</ele><time>2026-04-11T13:43:05.899Z</time></trkpt><trkpt lat="45.5824733" lon="9.2899233"><ele>163.0</ele><time>2026-04-11T13:43:06.899Z</time></trkpt><trkpt lat="45.5823433" lon="9.2898817"><ele>163.0</ele><time>2026-04-11T13:43:07.899Z</time></trkpt><trkpt lat="45.5822083" lon="9.2898333"><ele>163.0</ele><time>2026-04-11T13:43:08.899Z</time></trkpt><trkpt lat="45.5820733" lon="9.2897967"><ele>162.75</ele><time>2026-04-11T13:43:09.899Z</time></trkpt><trkpt lat="45.5819283" lon="9.28976"><ele>162.5</ele><time>2026-04-11T13:43:10.899Z</time></trkpt><trkpt lat="45.5818017" lon="9.289735"><ele>162.25</ele><time>2026-04-11T13:43:11.899Z</time></trkpt><trkpt lat="45.581675" lon="9.28971"><ele>162.0</ele><time>2026-04-11T13:43:12.899Z</time></trkpt><trkpt lat="45.5815767" lon="9.2896867"><ele>162.0</ele><time>2026-04-11T13:43:13.898Z</time></trkpt><trkpt lat="45.5815017" lon="9.28967"><ele>162.0</ele><time>2026-04-11T13:43:14.899Z</time></trkpt><trkpt lat="45.5814183" lon="9.2896483"><ele>162.0</ele><time>2026-04-11T13:43:16.898Z</time></trkpt><trkpt lat="45.5813167" lon="9.2896433"><ele>162.0</ele><time>2026-04-11T13:43:19.899Z</time></trkpt><trkpt lat="45.5812433" lon="9.2896367"><ele>162.0</ele><time>2026-04-11T13:43:20.899Z</time></trkpt><trkpt lat="45.5811417" lon="9.2896283"><ele>162.0</ele><time>2026-04-11T13:43:21.899Z</time></trkpt><trkpt lat="45.5810083" lon="9.289615"><ele>162.33333333333334</ele><time>2026-04-11T13:43:22.899Z</time></trkpt><trkpt lat="45.580845" lon="9.2895867"><ele>162.66666666666669</ele><time>2026-04-11T13:43:23.899Z</time></trkpt><trkpt lat="45.580655" lon="9.2895733"><ele>163.0</ele><time>2026-04-11T13:43:24.899Z</time></trkpt><trkpt lat="45.580515" lon="9.2895467"><ele>162.25</ele><time>2026-04-11T13:43:25.899Z</time></trkpt><trkpt lat="45.5803117" lon="9.2895017"><ele>161.5</ele><time>2026-04-11T13:43:27.899Z</time></trkpt><trkpt lat="45.5801983" lon="9.2894817"><ele>160.75</ele><time>2026-04-11T13:43:29.899Z</time></trkpt><trkpt lat="45.58012" lon="9.289465"><ele>160.0</ele><time>2026-04-11T13:43:32.899Z</time></trkpt><trkpt lat="45.580025" lon="9.2893867"><ele>160.0</ele><time>2026-04-11T13:43:49.899Z</time></trkpt><trkpt lat="45.57995" lon="9.2893817"><ele>160.0</ele><time>2026-04-11T13:43:50.899Z</time></trkpt><trkpt lat="45.5798867" lon="9.289375"><ele>160.0</ele><time>2026-04-11T13:43:51.899Z</time></trkpt><trkpt lat="45.579775" lon="9.289345"><ele>160.0</ele><time>2026-04-11T13:43:53.899Z</time></trkpt><trkpt lat="45.5796783" lon="9.2893067"><ele>160.0</ele><time>2026-04-11T13:43:55.899Z</time></trkpt><trkpt lat="45.57964" lon="9.2891533"><ele>160.0</ele><time>2026-04-11T13:43:57.899Z</time></trkpt><trkpt lat="45.5796417" lon="9.2890317"><ele>160.0</ele><time>2026-04-11T13:43:58.899Z</time></trkpt><trkpt lat="45.5796583" lon="9.2889017"><ele>160.0</ele><time>2026-04-11T13:43:59.899Z</time></trkpt><trkpt lat="45.57966" lon="9.2887917"><ele>160.0</ele><time>2026-04-11T13:44:00.899Z</time></trkpt><trkpt lat="45.5796683" lon="9.288695"><ele>160.0</ele><time>2026-04-11T13:44:01.899Z</time></trkpt><trkpt lat="45.5796733" lon="9.288605"><ele>160.0</ele><time>2026-04-11T13:44:02.899Z</time></trkpt><trkpt lat="45.579685" lon="9.2884367"><ele>160.0</ele><time>2026-04-11T13:44:04.899Z</time></trkpt><trkpt lat="45.5796933" lon="9.28834"><ele>160.0</ele><time>2026-04-11T13:44:05.899Z</time></trkpt><trkpt lat="45.5796983" lon="9.288235"><ele>160.0</ele><time>2026-04-11T13:44:06.899Z</time></trkpt><trkpt lat="45.5797017" lon="9.2881317"><ele>160.0</ele><time>2026-04-11T13:44:07.899Z</time></trkpt><trkpt lat="45.5797033" lon="9.2880217"><ele>160.0</ele><time>2026-04-11T13:44:08.899Z</time></trkpt><trkpt lat="45.5797067" lon="9.2879217"><ele>160.0</ele><time>2026-04-11T13:44:09.899Z</time></trkpt><trkpt lat="45.5797167" lon="9.28782"><ele>160.0</ele><time>2026-04-11T13:44:10.898Z</time></trkpt><trkpt lat="45.579725" lon="9.2877267"><ele>159.8</ele><time>2026-04-11T13:44:11.899Z</time></trkpt><trkpt lat="45.5797217" lon="9.28756"><ele>159.6</ele><time>2026-04-11T13:44:13.899Z</time></trkpt><trkpt lat="45.579725" lon="9.2874183"><ele>159.4</ele><time>2026-04-11T13:44:15.899Z</time></trkpt><trkpt lat="45.579725" lon="9.2872783"><ele>159.2</ele><time>2026-04-11T13:44:17.899Z</time></trkpt><trkpt lat="45.57973" lon="9.2871383"><ele>159.0</ele><time>2026-04-11T13:44:19.898Z</time></trkpt><trkpt lat="45.579725" lon="9.2869417"><ele>159.0</ele><time>2026-04-11T13:44:21.899Z</time></trkpt><trkpt lat="45.5797267" lon="9.2868067"><ele>159.0</ele><time>2026-04-11T13:44:22.899Z</time></trkpt><trkpt lat="45.579735" lon="9.2866533"><ele>159.0</ele><time>2026-04-11T13:44:23.899Z</time></trkpt><trkpt lat="45.57975" lon="9.2864967"><ele>159.0</ele><time>2026-04-11T13:44:24.899Z</time></trkpt><trkpt lat="45.579765" lon="9.286355"><ele>159.0</ele><time>2026-04-11T13:44:25.898Z</time></trkpt><trkpt lat="45.579765" lon="9.28623"><ele>159.16666666666666</ele><time>2026-04-11T13:44:26.899Z</time></trkpt><trkpt lat="45.579765" lon="9.28612"><ele>159.33333333333334</ele><time>2026-04-11T13:44:27.899Z</time></trkpt><trkpt lat="45.579765" lon="9.28602"><ele>159.5</ele><time>2026-04-11T13:44:28.899Z</time></trkpt><trkpt lat="45.579775" lon="9.2859217"><ele>159.66666666666669</ele><time>2026-04-11T13:44:29.898Z</time></trkpt><trkpt lat="45.5797833" lon="9.2858283"><ele>159.83333333333334</ele><time>2026-04-11T13:44:30.898Z</time></trkpt><trkpt lat="45.5797967" lon="9.2857267"><ele>160.0</ele><time>2026-04-11T13:44:31.897Z</time></trkpt><trkpt lat="45.5798183" lon="9.28558"><ele>160.4</ele><time>2026-04-11T13:44:33.898Z</time></trkpt><trkpt lat="45.5798917" lon="9.2855233"><ele>160.8</ele><time>2026-04-11T13:44:36.898Z</time></trkpt><trkpt lat="45.580015" lon="9.2855367"><ele>161.2</ele><time>2026-04-11T13:44:38.898Z</time></trkpt><trkpt lat="45.5801217" lon="9.2855533"><ele>161.6</ele><time>2026-04-11T13:44:39.897Z</time></trkpt><trkpt lat="45.5802317" lon="9.2855633"><ele>162.0</ele><time>2026-04-11T13:44:40.898Z</time></trkpt><trkpt lat="45.5803333" lon="9.2855667"><ele>162.0</ele><time>2026-04-11T13:44:41.898Z</time></trkpt><trkpt lat="45.580425" lon="9.2855567"><ele>162.0</ele><time>2026-04-11T13:44:42.898Z</time></trkpt><trkpt lat="45.5804983" lon="9.2855767"><ele>162.0</ele><time>2026-04-11T13:44:43.897Z</time></trkpt><trkpt lat="45.580595" lon="9.28557"><ele>162.0</ele><time>2026-04-11T13:44:45.898Z</time></trkpt><trkpt lat="45.5806617" lon="9.2855833"><ele>162.0</ele><time>2026-04-11T13:44:49.898Z</time></trkpt><trkpt lat="45.5807633" lon="9.285595"><ele>162.0</ele><time>2026-04-11T13:44:52.897Z</time></trkpt><trkpt lat="45.580835" lon="9.2856033"><ele>162.0</ele><time>2026-04-11T13:44:53.898Z</time></trkpt><trkpt lat="45.58091" lon="9.2856167"><ele>162.0</ele><time>2026-04-11T13:44:54.898Z</time></trkpt><trkpt lat="45.5809983" lon="9.2856483"><ele>162.0</ele><time>2026-04-11T13:44:55.898Z</time></trkpt><trkpt lat="45.581075" lon="9.28567"><ele>162.0</ele><time>2026-04-11T13:44:56.898Z</time></trkpt><trkpt lat="45.5811433" lon="9.2856967"><ele>162.0</ele><time>2026-04-11T13:44:57.898Z</time></trkpt><trkpt lat="45.5812383" lon="9.2857283"><ele>162.0</ele><time>2026-04-11T13:44:59.897Z</time></trkpt><trkpt lat="45.581305" lon="9.2857633"><ele>161.83333333333334</ele><time>2026-04-11T13:45:04.898Z</time></trkpt><trkpt lat="45.5813683" lon="9.2857833"><ele>161.66666666666666</ele><time>2026-04-11T13:45:06.898Z</time></trkpt><trkpt lat="45.5814467" lon="9.2858033"><ele>161.5</ele><time>2026-04-11T13:45:08.898Z</time></trkpt><trkpt lat="45.5815167" lon="9.285805"><ele>161.33333333333331</ele><time>2026-04-11T13:45:10.898Z</time></trkpt><trkpt lat="45.5815667" lon="9.2857317"><ele>161.16666666666666</ele><time>2026-04-11T13:45:12.898Z</time></trkpt><trkpt lat="45.581605" lon="9.285545"><ele>161.0</ele><time>2026-04-11T13:45:14.898Z</time></trkpt><trkpt lat="45.58162" lon="9.2854183"><ele>160.60000000000002</ele><time>2026-04-11T13:45:15.898Z</time></trkpt><trkpt lat="45.5816333" lon="9.2852917"><ele>160.20000000000002</ele><time>2026-04-11T13:45:16.898Z</time></trkpt><trkpt lat="45.5816533" lon="9.2851733"><ele>159.8</ele><time>2026-04-11T13:45:17.898Z</time></trkpt><trkpt lat="45.5816717" lon="9.2850467"><ele>159.4</ele><time>2026-04-11T13:45:18.897Z</time></trkpt><trkpt lat="45.5816833" lon="9.2849017"><ele>159.0</ele><time>2026-04-11T13:45:19.898Z</time></trkpt><trkpt lat="45.581695" lon="9.2847583"><ele>159.0</ele><time>2026-04-11T13:45:20.898Z</time></trkpt><trkpt lat="45.5817133" lon="9.2846133"><ele>159.0</ele><time>2026-04-11T13:45:21.898Z</time></trkpt><trkpt lat="45.58173" lon="9.28445"><ele>159.0</ele><time>2026-04-11T13:45:22.898Z</time></trkpt><trkpt lat="45.58175" lon="9.2842783"><ele>159.0</ele><time>2026-04-11T13:45:23.898Z</time></trkpt><trkpt lat="45.5817717" lon="9.2841"><ele>159.0</ele><time>2026-04-11T13:45:24.898Z</time></trkpt><trkpt lat="45.5817833" lon="9.28393"><ele>159.0</ele><time>2026-04-11T13:45:25.898Z</time></trkpt><trkpt lat="45.581795" lon="9.28377"><ele>159.0</ele><time>2026-04-11T13:45:26.897Z</time></trkpt><trkpt lat="45.5818083" lon="9.2836167"><ele>159.0</ele><time>2026-04-11T13:45:27.898Z</time></trkpt><trkpt lat="45.5818033" lon="9.2834833"><ele>159.0</ele><time>2026-04-11T13:45:28.898Z</time></trkpt><trkpt lat="45.5818183" lon="9.283335"><ele>159.0</ele><time>2026-04-11T13:45:29.898Z</time></trkpt><trkpt lat="45.5818333" lon="9.2831933"><ele>159.0</ele><time>2026-04-11T13:45:30.898Z</time></trkpt><trkpt lat="45.5818517" lon="9.2830683"><ele>159.0</ele><time>2026-04-11T13:45:31.898Z</time></trkpt><trkpt lat="45.581865" lon="9.28293"><ele>159.0</ele><time>2026-04-11T13:45:32.898Z</time></trkpt><trkpt lat="45.5819333" lon="9.2821917"><ele>159.5</ele><time>2026-04-11T13:45:37.947Z</time></trkpt><trkpt lat="45.5819467" lon="9.281935"><ele>160.0</ele><time>2026-04-11T13:45:38.947Z</time></trkpt><trkpt lat="45.5819817" lon="9.281725"><ele>160.5</ele><time>2026-04-11T13:45:39.947Z</time></trkpt><trkpt lat="45.5820167" lon="9.2815783"><ele>161.0</ele><time>2026-04-11T13:45:40.947Z</time></trkpt><trkpt lat="45.5820383" lon="9.2814367"><ele>161.0</ele><time>2026-04-11T13:45:41.947Z</time></trkpt><trkpt lat="45.5820517" lon="9.2813017"><ele>161.0</ele><time>2026-04-11T13:45:42.946Z</time></trkpt><trkpt lat="45.5820683" lon="9.281175"><ele>161.0</ele><time>2026-04-11T13:45:43.947Z</time></trkpt><trkpt lat="45.5820817" lon="9.2810567"><ele>161.0</ele><time>2026-04-11T13:45:44.946Z</time></trkpt><trkpt lat="45.5821067" lon="9.2808917"><ele>161.0</ele><time>2026-04-11T13:45:46.947Z</time></trkpt><trkpt lat="45.5821433" lon="9.2807633"><ele>161.0</ele><time>2026-04-11T13:45:48.947Z</time></trkpt><trkpt lat="45.5821533" lon="9.2806233"><ele>161.0</ele><time>2026-04-11T13:45:50.947Z</time></trkpt><trkpt lat="45.5821083" lon="9.280485"><ele>161.0</ele><time>2026-04-11T13:45:52.947Z</time></trkpt><trkpt lat="45.5820567" lon="9.280375"><ele>161.0</ele><time>2026-04-11T13:45:53.947Z</time></trkpt><trkpt lat="45.5819967" lon="9.280225"><ele>161.0</ele><time>2026-04-11T13:45:54.947Z</time></trkpt><trkpt lat="45.5819117" lon="9.28002"><ele>161.0</ele><time>2026-04-11T13:45:55.947Z</time></trkpt><trkpt lat="45.5818267" lon="9.2798117"><ele>161.0</ele><time>2026-04-11T13:45:56.947Z</time></trkpt><trkpt lat="45.5817433" lon="9.2795917"><ele>161.0</ele><time>2026-04-11T13:45:57.947Z</time></trkpt><trkpt lat="45.5816683" lon="9.2793583"><ele>161.66666666666666</ele><time>2026-04-11T13:45:58.947Z</time></trkpt><trkpt lat="45.5815867" lon="9.279125"><ele>162.33333333333334</ele><time>2026-04-11T13:45:59.947Z</time></trkpt><trkpt lat="45.5815033" lon="9.2788867"><ele>163.0</ele><time>2026-04-11T13:46:00.947Z</time></trkpt><trkpt lat="45.5814183" lon="9.278655"><ele>163.0</ele><time>2026-04-11T13:46:01.947Z</time></trkpt><trkpt lat="45.58133" lon="9.2784267"><ele>163.0</ele><time>2026-04-11T13:46:02.947Z</time></trkpt><trkpt lat="45.5812617" lon="9.27819"><ele>163.0</ele><time>2026-04-11T13:46:03.946Z</time></trkpt><trkpt lat="45.5811717" lon="9.2779717"><ele>161.33333333333334</ele><time>2026-04-11T13:46:04.946Z</time></trkpt><trkpt lat="45.5810883" lon="9.27774"><ele>159.66666666666666</ele><time>2026-04-11T13:46:05.947Z</time></trkpt><trkpt lat="45.5810017" lon="9.2775117"><ele>158.0</ele><time>2026-04-11T13:46:06.947Z</time></trkpt><trkpt lat="45.5809267" lon="9.2772683"><ele>158.0</ele><time>2026-04-11T13:46:07.947Z</time></trkpt><trkpt lat="45.5808567" lon="9.27703"><ele>158.0</ele><time>2026-04-11T13:46:08.947Z</time></trkpt><trkpt lat="45.580785" lon="9.2767867"><ele>158.0</ele><time>2026-04-11T13:46:09.947Z</time></trkpt><trkpt lat="45.5807117" lon="9.2765483"><ele>158.66666666666666</ele><time>2026-04-11T13:46:10.946Z</time></trkpt><trkpt lat="45.5806267" lon="9.2763183"><ele>159.33333333333334</ele><time>2026-04-11T13:46:11.947Z</time></trkpt><trkpt lat="45.5805317" lon="9.2761067"><ele>160.0</ele><time>2026-04-11T13:46:12.947Z</time></trkpt><trkpt lat="45.580445" lon="9.2759067"><ele>160.0</ele><time>2026-04-11T13:46:13.947Z</time></trkpt><trkpt lat="45.580355" lon="9.275725"><ele>160.0</ele><time>2026-04-11T13:46:14.947Z</time></trkpt><trkpt lat="45.580275" lon="9.27555"><ele>160.0</ele><time>2026-04-11T13:46:15.947Z</time></trkpt><trkpt lat="45.5802117" lon="9.2754017"><ele>160.0</ele><time>2026-04-11T13:46:16.947Z</time></trkpt><trkpt lat="45.580165" lon="9.2752733"><ele>160.0</ele><time>2026-04-11T13:46:17.947Z</time></trkpt><trkpt lat="45.5801233" lon="9.2751633"><ele>160.0</ele><time>2026-04-11T13:46:18.947Z</time></trkpt><trkpt lat="45.5801017" lon="9.2750733"><ele>160.0</ele><time>2026-04-11T13:46:19.947Z</time></trkpt><trkpt lat="45.5800467" lon="9.2749283"><ele>160.0</ele><time>2026-04-11T13:46:21.947Z</time></trkpt><trkpt lat="45.5800183" lon="9.2748417"><ele>160.0</ele><time>2026-04-11T13:46:23.947Z</time></trkpt><trkpt lat="45.5800217" lon="9.274705"><ele>160.0</ele><time>2026-04-11T13:46:56.947Z</time></trkpt><trkpt lat="45.5800033" lon="9.2745917"><ele>160.16666666666669</ele><time>2026-04-11T13:46:59.947Z</time></trkpt><trkpt lat="45.5800083" lon="9.2744367"><ele>160.33333333333334</ele><time>2026-04-11T13:47:01.947Z</time></trkpt><trkpt lat="45.5800217" lon="9.2742667"><ele>160.5</ele><time>2026-04-11T13:47:03.947Z</time></trkpt><trkpt lat="45.580035" lon="9.2741717"><ele>160.66666666666666</ele><time>2026-04-11T13:47:04.947Z</time></trkpt><trkpt lat="45.5800533" lon="9.2740767"><ele>160.83333333333331</ele><time>2026-04-11T13:47:05.947Z</time></trkpt><trkpt lat="45.5800717" lon="9.2739783"><ele>161.0</ele><time>2026-04-11T13:47:06.947Z</time></trkpt><trkpt lat="45.5800917" lon="9.2738833"><ele>161.66666666666666</ele><time>2026-04-11T13:47:07.947Z</time></trkpt><trkpt lat="45.58013" lon="9.2737433"><ele>162.33333333333331</ele><time>2026-04-11T13:47:09.947Z</time></trkpt><trkpt lat="45.5801733" lon="9.2736533"><ele>163.0</ele><time>2026-04-11T13:47:11.946Z</time></trkpt><trkpt lat="45.5802317" lon="9.2735533"><ele>163.66666666666666</ele><time>2026-04-11T13:47:13.947Z</time></trkpt><trkpt lat="45.5802967" lon="9.2734767"><ele>164.33333333333334</ele><time>2026-04-11T13:47:15.947Z</time></trkpt><trkpt lat="45.58036" lon="9.2734517"><ele>165.0</ele><time>2026-04-11T13:47:30.947Z</time></trkpt><trkpt lat="45.5804283" lon="9.273385"><ele>166.2</ele><time>2026-04-11T13:47:32.947Z</time></trkpt><trkpt lat="45.5805083" lon="9.2732867"><ele>167.4</ele><time>2026-04-11T13:47:34.947Z</time></trkpt><trkpt lat="45.5805833" lon="9.273165"><ele>168.60000000000002</ele><time>2026-04-11T13:47:36.947Z</time></trkpt><trkpt lat="45.5806633" lon="9.2730283"><ele>169.8</ele><time>2026-04-11T13:47:38.947Z</time></trkpt><trkpt lat="45.5807083" lon="9.2729483"><ele>171.0</ele><time>2026-04-11T13:47:39.947Z</time></trkpt><trkpt lat="45.5807583" lon="9.2728733"><ele>171.20000000000002</ele><time>2026-04-11T13:47:40.947Z</time></trkpt><trkpt lat="45.5808067" lon="9.2728033"><ele>171.4</ele><time>2026-04-11T13:47:41.946Z</time></trkpt><trkpt lat="45.580895" lon="9.2726783"><ele>171.6</ele><time>2026-04-11T13:47:43.946Z</time></trkpt><trkpt lat="45.5809717" lon="9.27257"><ele>171.8</ele><time>2026-04-11T13:47:45.946Z</time></trkpt><trkpt lat="45.5810433" lon="9.2724683"><ele>172.0</ele><time>2026-04-11T13:47:47.946Z</time></trkpt><trkpt lat="45.5811533" lon="9.272345"><ele>172.2</ele><time>2026-04-11T13:47:49.946Z</time></trkpt><trkpt lat="45.58123" lon="9.2722817"><ele>172.39999999999998</ele><time>2026-04-11T13:47:50.946Z</time></trkpt><trkpt lat="45.5813283" lon="9.2722267"><ele>172.60000000000002</ele><time>2026-04-11T13:47:51.946Z</time></trkpt><trkpt lat="45.58143" lon="9.2721733"><ele>172.8</ele><time>2026-04-11T13:47:52.946Z</time></trkpt><trkpt lat="45.581535" lon="9.2721233"><ele>173.0</ele><time>2026-04-11T13:47:53.946Z</time></trkpt><trkpt lat="45.5816267" lon="9.2720883"><ele>172.33333333333331</ele><time>2026-04-11T13:47:54.946Z</time></trkpt><trkpt lat="45.58171" lon="9.27203"><ele>171.66666666666666</ele><time>2026-04-11T13:47:55.946Z</time></trkpt><trkpt lat="45.58178" lon="9.2719867"><ele>171.0</ele><time>2026-04-11T13:47:56.946Z</time></trkpt><trkpt lat="45.5818467" lon="9.27195"><ele>170.33333333333334</ele><time>2026-04-11T13:47:57.946Z</time></trkpt><trkpt lat="45.5819133" lon="9.27193"><ele>169.66666666666669</ele><time>2026-04-11T13:47:58.946Z</time></trkpt><trkpt lat="45.5819917" lon="9.2718933"><ele>169.0</ele><time>2026-04-11T13:48:00.946Z</time></trkpt><trkpt lat="45.5820717" lon="9.271855"><ele>169.0</ele><time>2026-04-11T13:48:03.946Z</time></trkpt><trkpt lat="45.582155" lon="9.2718017"><ele>169.0</ele><time>2026-04-11T13:48:21.946Z</time></trkpt><trkpt lat="45.582245" lon="9.2717483"><ele>169.0</ele><time>2026-04-11T13:48:23.946Z</time></trkpt><trkpt lat="45.5823083" lon="9.2717183"><ele>169.0</ele><time>2026-04-11T13:48:24.946Z</time></trkpt><trkpt lat="45.58237" lon="9.2716883"><ele>169.0</ele><time>2026-04-11T13:48:25.946Z</time></trkpt><trkpt lat="45.5824383" lon="9.2716583"><ele>169.0</ele><time>2026-04-11T13:48:26.945Z</time></trkpt><trkpt lat="45.5825183" lon="9.271625"><ele>169.0</ele><time>2026-04-11T13:48:27.946Z</time></trkpt><trkpt lat="45.5826017" lon="9.2715917"><ele>169.0</ele><time>2026-04-11T13:48:28.946Z</time></trkpt><trkpt lat="45.5826933" lon="9.2715567"><ele>169.0</ele><time>2026-04-11T13:48:29.946Z</time></trkpt><trkpt lat="45.5827883" lon="9.271525"><ele>169.0</ele><time>2026-04-11T13:48:30.946Z</time></trkpt><trkpt lat="45.5828767" lon="9.271495"><ele>169.0</ele><time>2026-04-11T13:48:31.946Z</time></trkpt><trkpt lat="45.5829667" lon="9.271465"><ele>169.2</ele><time>2026-04-11T13:48:32.946Z</time></trkpt><trkpt lat="45.58306" lon="9.2714233"><ele>169.39999999999998</ele><time>2026-04-11T13:48:33.946Z</time></trkpt><trkpt lat="45.58316" lon="9.2713867"><ele>169.6</ele><time>2026-04-11T13:48:34.946Z</time></trkpt><trkpt lat="45.583255" lon="9.2713467"><ele>169.8</ele><time>2026-04-11T13:48:35.946Z</time></trkpt><trkpt lat="45.5833533" lon="9.2713017"><ele>170.0</ele><time>2026-04-11T13:48:36.946Z</time></trkpt><trkpt lat="45.5834567" lon="9.2712567"><ele>170.0</ele><time>2026-04-11T13:48:37.946Z</time></trkpt><trkpt lat="45.5835583" lon="9.271225"><ele>170.0</ele><time>2026-04-11T13:48:38.946Z</time></trkpt><trkpt lat="45.5836583" lon="9.2711817"><ele>170.0</ele><time>2026-04-11T13:48:39.946Z</time></trkpt><trkpt lat="45.5837467" lon="9.2711433"><ele>170.0</ele><time>2026-04-11T13:48:40.945Z</time></trkpt><trkpt lat="45.5838333" lon="9.2711083"><ele>170.0</ele><time>2026-04-11T13:48:41.946Z</time></trkpt><trkpt lat="45.5838983" lon="9.2710667"><ele>170.0</ele><time>2026-04-11T13:48:42.945Z</time></trkpt><trkpt lat="45.5839583" lon="9.27103"><ele>170.0</ele><time>2026-04-11T13:48:43.946Z</time></trkpt><trkpt lat="45.584035" lon="9.270985"><ele>170.0</ele><time>2026-04-11T13:48:45.946Z</time></trkpt><trkpt lat="45.5840833" lon="9.2709067"><ele>170.0</ele><time>2026-04-11T13:48:49.946Z</time></trkpt><trkpt lat="45.5841583" lon="9.2708783"><ele>170.0</ele><time>2026-04-11T13:48:54.946Z</time></trkpt><trkpt lat="45.5842283" lon="9.270855"><ele>170.0</ele><time>2026-04-11T13:48:56.946Z</time></trkpt><trkpt lat="45.584335" lon="9.2708217"><ele>170.0</ele><time>2026-04-11T13:48:58.946Z</time></trkpt><trkpt lat="45.5844267" lon="9.2708017"><ele>170.0</ele><time>2026-04-11T13:49:00.946Z</time></trkpt><trkpt lat="45.5845117" lon="9.2707483"><ele>170.0</ele><time>2026-04-11T13:49:02.945Z</time></trkpt><trkpt lat="45.5846083" lon="9.2706817"><ele>170.0</ele><time>2026-04-11T13:49:04.946Z</time></trkpt><trkpt lat="45.58472" lon="9.2706283"><ele>170.0</ele><time>2026-04-11T13:49:06.946Z</time></trkpt><trkpt lat="45.58478" lon="9.270595"><ele>170.8</ele><time>2026-04-11T13:49:07.946Z</time></trkpt><trkpt lat="45.58487" lon="9.27056"><ele>171.6</ele><time>2026-04-11T13:49:09.946Z</time></trkpt><trkpt lat="45.5849383" lon="9.2705467"><ele>172.39999999999998</ele><time>2026-04-11T13:49:11.946Z</time></trkpt><trkpt lat="45.5850867" lon="9.2705667"><ele>173.2</ele><time>2026-04-11T13:50:09.946Z</time></trkpt><trkpt lat="45.58518" lon="9.27058"><ele>174.0</ele><time>2026-04-11T13:50:11.945Z</time></trkpt><trkpt lat="45.5852767" lon="9.2705767"><ele>174.0</ele><time>2026-04-11T13:50:14.946Z</time></trkpt><trkpt lat="45.5853433" lon="9.2705533"><ele>174.0</ele><time>2026-04-11T13:50:17.946Z</time></trkpt><trkpt lat="45.5854067" lon="9.2705133"><ele>174.0</ele><time>2026-04-11T13:50:21.946Z</time></trkpt><trkpt lat="45.5854533" lon="9.2704317"><ele>174.0</ele><time>2026-04-11T13:50:25.946Z</time></trkpt><trkpt lat="45.58551" lon="9.270355"><ele>174.0</ele><time>2026-04-11T13:50:28.946Z</time></trkpt><trkpt lat="45.5855667" lon="9.2703067"><ele>174.0</ele><time>2026-04-11T13:50:30.946Z</time></trkpt><trkpt lat="45.5856567" lon="9.270265"><ele>174.33333333333334</ele><time>2026-04-11T13:50:32.946Z</time></trkpt><trkpt lat="45.5857533" lon="9.2702117"><ele>174.66666666666666</ele><time>2026-04-11T13:50:34.946Z</time></trkpt><trkpt lat="45.58583" lon="9.2701483"><ele>175.0</ele><time>2026-04-11T13:50:36.946Z</time></trkpt><trkpt lat="45.5858917" lon="9.2700917"><ele>175.33333333333331</ele><time>2026-04-11T13:50:38.946Z</time></trkpt><trkpt lat="45.5859483" lon="9.2700467"><ele>175.66666666666666</ele><time>2026-04-11T13:50:40.946Z</time></trkpt><trkpt lat="45.5860167" lon="9.2700333"><ele>176.0</ele><time>2026-04-11T13:50:43.946Z</time></trkpt><trkpt lat="45.5860867" lon="9.2700117"><ele>176.0</ele><time>2026-04-11T13:51:44.945Z</time></trkpt><trkpt lat="45.5861567" lon="9.2699583"><ele>176.0</ele><time>2026-04-11T13:51:47.945Z</time></trkpt><trkpt lat="45.5862367" lon="9.2699817"><ele>176.0</ele><time>2026-04-11T13:51:50.945Z</time></trkpt><trkpt lat="45.5863" lon="9.2700183"><ele>176.0</ele><time>2026-04-11T13:51:53.945Z</time></trkpt><trkpt lat="45.586365" lon="9.27006"><ele>176.0</ele><time>2026-04-11T13:51:56.945Z</time></trkpt><trkpt lat="45.5865633" lon="9.270165"><ele>176.0</ele><time>2026-04-11T13:52:06.945Z</time></trkpt><trkpt lat="45.58665" lon="9.270105"><ele>176.0</ele><time>2026-04-11T13:52:08.945Z</time></trkpt><trkpt lat="45.586695" lon="9.27004"><ele>176.0</ele><time>2026-04-11T13:52:09.945Z</time></trkpt><trkpt lat="45.5867383" lon="9.2699567"><ele>176.0</ele><time>2026-04-11T13:52:10.945Z</time></trkpt><trkpt lat="45.5867867" lon="9.2698683"><ele>176.0</ele><time>2026-04-11T13:52:11.945Z</time></trkpt><trkpt lat="45.586835" lon="9.269775"><ele>176.0</ele><time>2026-04-11T13:52:12.944Z</time></trkpt><trkpt lat="45.5868767" lon="9.2696717"><ele>176.0</ele><time>2026-04-11T13:52:13.945Z</time></trkpt><trkpt lat="45.5869333" lon="9.2695667"><ele>176.0</ele><time>2026-04-11T13:52:14.945Z</time></trkpt><trkpt lat="45.5869783" lon="9.2694533"><ele>176.0</ele><time>2026-04-11T13:52:15.945Z</time></trkpt><trkpt lat="45.5870067" lon="9.269305"><ele>176.0</ele><time>2026-04-11T13:52:16.945Z</time></trkpt><trkpt lat="45.5870567" lon="9.2691333"><ele>176.0</ele><time>2026-04-11T13:52:17.945Z</time></trkpt><trkpt lat="45.5870883" lon="9.26894"><ele>175.25</ele><time>2026-04-11T13:52:18.944Z</time></trkpt><trkpt lat="45.5871167" lon="9.268745"><ele>174.5</ele><time>2026-04-11T13:52:19.945Z</time></trkpt><trkpt lat="45.5871617" lon="9.26857"><ele>173.75</ele><time>2026-04-11T13:52:20.945Z</time></trkpt><trkpt lat="45.5872167" lon="9.268405"><ele>173.0</ele><time>2026-04-11T13:52:21.945Z</time></trkpt><trkpt lat="45.5872667" lon="9.26823"><ele>173.0</ele><time>2026-04-11T13:52:22.944Z</time></trkpt><trkpt lat="45.587315" lon="9.2680567"><ele>173.0</ele><time>2026-04-11T13:52:23.945Z</time></trkpt><trkpt lat="45.5873733" lon="9.267905"><ele>173.0</ele><time>2026-04-11T13:52:24.945Z</time></trkpt><trkpt lat="45.5874267" lon="9.26776"><ele>173.0</ele><time>2026-04-11T13:52:25.945Z</time></trkpt><trkpt lat="45.5874833" lon="9.2676217"><ele>173.0</ele><time>2026-04-11T13:52:26.945Z</time></trkpt><trkpt lat="45.587525" lon="9.26748"><ele>173.0</ele><time>2026-04-11T13:52:27.945Z</time></trkpt><trkpt lat="45.587575" lon="9.267325"><ele>173.0</ele><time>2026-04-11T13:52:28.944Z</time></trkpt><trkpt lat="45.5876317" lon="9.267175"><ele>173.0</ele><time>2026-04-11T13:52:29.944Z</time></trkpt><trkpt lat="45.58767" lon="9.2670483"><ele>173.0</ele><time>2026-04-11T13:52:30.944Z</time></trkpt><trkpt lat="45.5877183" lon="9.2669217"><ele>173.0</ele><time>2026-04-11T13:52:31.945Z</time></trkpt><trkpt lat="45.587755" lon="9.2668167"><ele>173.0</ele><time>2026-04-11T13:52:32.945Z</time></trkpt><trkpt lat="45.587785" lon="9.2667233"><ele>173.0</ele><time>2026-04-11T13:52:33.945Z</time></trkpt><trkpt lat="45.58784" lon="9.2666167"><ele>173.0</ele><time>2026-04-11T13:52:35.945Z</time></trkpt><trkpt lat="45.5878883" lon="9.266535"><ele>173.0</ele><time>2026-04-11T13:52:38.945Z</time></trkpt><trkpt lat="45.5879483" lon="9.2664383"><ele>173.0</ele><time>2026-04-11T13:53:47.944Z</time></trkpt><trkpt lat="45.5880083" lon="9.2662767"><ele>172.66666666666666</ele><time>2026-04-11T13:53:49.944Z</time></trkpt><trkpt lat="45.5880467" lon="9.266185"><ele>172.33333333333331</ele><time>2026-04-11T13:53:50.945Z</time></trkpt><trkpt lat="45.5880817" lon="9.2660817"><ele>172.0</ele><time>2026-04-11T13:53:51.945Z</time></trkpt><trkpt lat="45.5881167" lon="9.265975"><ele>171.66666666666666</ele><time>2026-04-11T13:53:52.945Z</time></trkpt><trkpt lat="45.5881583" lon="9.26587"><ele>171.33333333333334</ele><time>2026-04-11T13:53:53.945Z</time></trkpt><trkpt lat="45.5882017" lon="9.2657683"><ele>171.0</ele><time>2026-04-11T13:53:54.945Z</time></trkpt><trkpt lat="45.5882467" lon="9.2656667"><ele>171.4</ele><time>2026-04-11T13:53:55.945Z</time></trkpt><trkpt lat="45.58829" lon="9.2655583"><ele>171.8</ele><time>2026-04-11T13:53:56.945Z</time></trkpt><trkpt lat="45.5883333" lon="9.265455"><ele>172.20000000000002</ele><time>2026-04-11T13:53:57.945Z</time></trkpt><trkpt lat="45.58838" lon="9.265345"><ele>172.60000000000002</ele><time>2026-04-11T13:53:58.945Z</time></trkpt><trkpt lat="45.5884267" lon="9.2652233"><ele>173.0</ele><time>2026-04-11T13:53:59.945Z</time></trkpt><trkpt lat="45.5884733" lon="9.2651117"><ele>173.0</ele><time>2026-04-11T13:54:00.944Z</time></trkpt><trkpt lat="45.58852" lon="9.265"><ele>173.0</ele><time>2026-04-11T13:54:01.945Z</time></trkpt><trkpt lat="45.5885617" lon="9.2648867"><ele>173.0</ele><time>2026-04-11T13:54:02.945Z</time></trkpt><trkpt lat="45.5885933" lon="9.2647617"><ele>173.0</ele><time>2026-04-11T13:54:03.944Z</time></trkpt><trkpt lat="45.5886267" lon="9.2646467"><ele>173.0</ele><time>2026-04-11T13:54:04.944Z</time></trkpt><trkpt lat="45.588665" lon="9.2645067"><ele>173.0</ele><time>2026-04-11T13:54:05.944Z</time></trkpt><trkpt lat="45.5886917" lon="9.2643533"><ele>173.0</ele><time>2026-04-11T13:54:06.944Z</time></trkpt><trkpt lat="45.5887233" lon="9.2642217"><ele>173.0</ele><time>2026-04-11T13:54:07.944Z</time></trkpt><trkpt lat="45.5887533" lon="9.2640783"><ele>173.0</ele><time>2026-04-11T13:54:08.944Z</time></trkpt><trkpt lat="45.5888" lon="9.2639317"><ele>173.0</ele><time>2026-04-11T13:54:09.944Z</time></trkpt><trkpt lat="45.5888517" lon="9.2637833"><ele>173.0</ele><time>2026-04-11T13:54:10.944Z</time></trkpt><trkpt lat="45.58889" lon="9.2636217"><ele>173.0</ele><time>2026-04-11T13:54:11.944Z</time></trkpt><trkpt lat="45.5889267" lon="9.2634583"><ele>173.0</ele><time>2026-04-11T13:54:12.944Z</time></trkpt><trkpt lat="45.58896" lon="9.2633017"><ele>173.0</ele><time>2026-04-11T13:54:13.943Z</time></trkpt><trkpt lat="45.58899" lon="9.26315"><ele>172.8</ele><time>2026-04-11T13:54:14.944Z</time></trkpt><trkpt lat="45.5890133" lon="9.263005"><ele>172.60000000000002</ele><time>2026-04-11T13:54:15.944Z</time></trkpt><trkpt lat="45.5890383" lon="9.2628633"><ele>172.39999999999998</ele><time>2026-04-11T13:54:16.944Z</time></trkpt><trkpt lat="45.5890633" lon="9.2627267"><ele>172.2</ele><time>2026-04-11T13:54:17.944Z</time></trkpt><trkpt lat="45.5890867" lon="9.2626"><ele>172.0</ele><time>2026-04-11T13:54:18.944Z</time></trkpt><trkpt lat="45.589105" lon="9.26247"><ele>172.0</ele><time>2026-04-11T13:54:19.944Z</time></trkpt><trkpt lat="45.5891283" lon="9.26233"><ele>172.0</ele><time>2026-04-11T13:54:20.944Z</time></trkpt><trkpt lat="45.5891533" lon="9.2621867"><ele>172.0</ele><time>2026-04-11T13:54:21.943Z</time></trkpt><trkpt lat="45.589165" lon="9.2620267"><ele>172.0</ele><time>2026-04-11T13:54:22.943Z</time></trkpt><trkpt lat="45.589185" lon="9.2618567"><ele>172.0</ele><time>2026-04-11T13:54:23.944Z</time></trkpt><trkpt lat="45.5892083" lon="9.2616883"><ele>172.0</ele><time>2026-04-11T13:54:24.944Z</time></trkpt><trkpt lat="45.5892283" lon="9.2615217"><ele>172.0</ele><time>2026-04-11T13:54:25.944Z</time></trkpt><trkpt lat="45.58925" lon="9.26137"><ele>172.0</ele><time>2026-04-11T13:54:26.944Z</time></trkpt><trkpt lat="45.5892717" lon="9.2612183"><ele>172.0</ele><time>2026-04-11T13:54:27.944Z</time></trkpt><trkpt lat="45.5892933" lon="9.2610633"><ele>172.0</ele><time>2026-04-11T13:54:28.944Z</time></trkpt><trkpt lat="45.5893183" lon="9.2609017"><ele>172.0</ele><time>2026-04-11T13:54:29.944Z</time></trkpt><trkpt lat="45.58934" lon="9.2607417"><ele>172.0</ele><time>2026-04-11T13:54:30.944Z</time></trkpt><trkpt lat="45.589365" lon="9.2605783"><ele>172.0</ele><time>2026-04-11T13:54:31.944Z</time></trkpt><trkpt lat="45.5893917" lon="9.26041"><ele>172.0</ele><time>2026-04-11T13:54:32.943Z</time></trkpt><trkpt lat="45.5894283" lon="9.2602433"><ele>172.5</ele><time>2026-04-11T13:54:33.944Z</time></trkpt><trkpt lat="45.589455" lon="9.26007"><ele>173.0</ele><time>2026-04-11T13:54:34.944Z</time></trkpt><trkpt lat="45.5894917" lon="9.259905"><ele>173.5</ele><time>2026-04-11T13:54:35.944Z</time></trkpt><trkpt lat="45.58952" lon="9.25975"><ele>174.0</ele><time>2026-04-11T13:54:36.944Z</time></trkpt><trkpt lat="45.5895533" lon="9.2596033"><ele>174.25</ele><time>2026-04-11T13:54:37.944Z</time></trkpt><trkpt lat="45.589585" lon="9.25945"><ele>174.5</ele><time>2026-04-11T13:54:38.944Z</time></trkpt><trkpt lat="45.5896117" lon="9.2592983"><ele>174.75</ele><time>2026-04-11T13:54:39.944Z</time></trkpt><trkpt lat="45.5896317" lon="9.259135"><ele>175.0</ele><time>2026-04-11T13:54:40.944Z</time></trkpt><trkpt lat="45.5896683" lon="9.2589783"><ele>174.5</ele><time>2026-04-11T13:54:41.944Z</time></trkpt><trkpt lat="45.5897083" lon="9.2588267"><ele>174.0</ele><time>2026-04-11T13:54:42.944Z</time></trkpt><trkpt lat="45.5897433" lon="9.258675"><ele>173.5</ele><time>2026-04-11T13:54:43.944Z</time></trkpt><trkpt lat="45.589775" lon="9.25852"><ele>173.0</ele><time>2026-04-11T13:54:44.944Z</time></trkpt><trkpt lat="45.5898117" lon="9.2583583"><ele>173.0</ele><time>2026-04-11T13:54:45.944Z</time></trkpt><trkpt lat="45.589845" lon="9.258195"><ele>173.0</ele><time>2026-04-11T13:54:46.944Z</time></trkpt><trkpt lat="45.5898733" lon="9.25804"><ele>173.0</ele><time>2026-04-11T13:54:47.944Z</time></trkpt><trkpt lat="45.58992" lon="9.2578683"><ele>173.0</ele><time>2026-04-11T13:54:48.944Z</time></trkpt><trkpt lat="45.5899567" lon="9.2577017"><ele>173.0</ele><time>2026-04-11T13:54:49.944Z</time></trkpt><trkpt lat="45.590005" lon="9.257525"><ele>173.0</ele><time>2026-04-11T13:54:50.944Z</time></trkpt><trkpt lat="45.5900367" lon="9.257345"><ele>173.0</ele><time>2026-04-11T13:54:51.944Z</time></trkpt><trkpt lat="45.5900683" lon="9.2571633"><ele>173.0</ele><time>2026-04-11T13:54:52.944Z</time></trkpt><trkpt lat="45.5900967" lon="9.25698"><ele>173.75</ele><time>2026-04-11T13:54:53.944Z</time></trkpt><trkpt lat="45.5901133" lon="9.2567883"><ele>174.5</ele><time>2026-04-11T13:54:54.943Z</time></trkpt><trkpt lat="45.5901233" lon="9.2566"><ele>175.25</ele><time>2026-04-11T13:54:55.944Z</time></trkpt><trkpt lat="45.5901283" lon="9.2563983"><ele>176.0</ele><time>2026-04-11T13:54:56.944Z</time></trkpt><trkpt lat="45.590135" lon="9.2561883"><ele>176.0</ele><time>2026-04-11T13:54:57.944Z</time></trkpt><trkpt lat="45.5901333" lon="9.25599"><ele>176.0</ele><time>2026-04-11T13:54:58.944Z</time></trkpt><trkpt lat="45.5901383" lon="9.2558017"><ele>176.0</ele><time>2026-04-11T13:54:59.944Z</time></trkpt><trkpt lat="45.59016" lon="9.2556133"><ele>176.0</ele><time>2026-04-11T13:55:00.944Z</time></trkpt><trkpt lat="45.5901783" lon="9.255425"><ele>176.0</ele><time>2026-04-11T13:55:01.944Z</time></trkpt><trkpt lat="45.59019" lon="9.2552533"><ele>176.0</ele><time>2026-04-11T13:55:02.943Z</time></trkpt><trkpt lat="45.5902067" lon="9.255105"><ele>176.0</ele><time>2026-04-11T13:55:03.944Z</time></trkpt><trkpt lat="45.5902233" lon="9.25497"><ele>176.0</ele><time>2026-04-11T13:55:04.944Z</time></trkpt><trkpt lat="45.5902383" lon="9.25485"><ele>176.0</ele><time>2026-04-11T13:55:05.944Z</time></trkpt><trkpt lat="45.5902483" lon="9.254735"><ele>176.0</ele><time>2026-04-11T13:55:06.943Z</time></trkpt><trkpt lat="45.5902517" lon="9.25464"><ele>176.0</ele><time>2026-04-11T13:55:07.944Z</time></trkpt><trkpt lat="45.590265" lon="9.2545233"><ele>176.0</ele><time>2026-04-11T13:55:09.944Z</time></trkpt><trkpt lat="45.5902633" lon="9.2544283"><ele>176.0</ele><time>2026-04-11T13:55:12.944Z</time></trkpt><trkpt lat="45.5903467" lon="9.2543133"><ele>176.0</ele><time>2026-04-11T13:55:52.944Z</time></trkpt><trkpt lat="45.5904417" lon="9.2542883"><ele>176.0</ele><time>2026-04-11T13:55:54.944Z</time></trkpt><trkpt lat="45.5905067" lon="9.254285"><ele>176.0</ele><time>2026-04-11T13:55:55.944Z</time></trkpt><trkpt lat="45.5905783" lon="9.2542683"><ele>176.0</ele><time>2026-04-11T13:55:56.944Z</time></trkpt><trkpt lat="45.5906517" lon="9.2542367"><ele>176.0</ele><time>2026-04-11T13:55:57.944Z</time></trkpt><trkpt lat="45.5907267" lon="9.25419"><ele>176.0</ele><time>2026-04-11T13:55:58.944Z</time></trkpt><trkpt lat="45.5908017" lon="9.25413"><ele>176.0</ele><time>2026-04-11T13:55:59.944Z</time></trkpt><trkpt lat="45.59086" lon="9.2540417"><ele>176.0</ele><time>2026-04-11T13:56:00.944Z</time></trkpt><trkpt lat="45.5909" lon="9.25395"><ele>176.0</ele><time>2026-04-11T13:56:01.944Z</time></trkpt><trkpt lat="45.5909267" lon="9.253855"><ele>176.0</ele><time>2026-04-11T13:56:02.944Z</time></trkpt><trkpt lat="45.5909467" lon="9.253755"><ele>176.0</ele><time>2026-04-11T13:56:03.944Z</time></trkpt><trkpt lat="45.590945" lon="9.2536433"><ele>176.0</ele><time>2026-04-11T13:56:04.944Z</time></trkpt><trkpt lat="45.5909233" lon="9.25352"><ele>176.0</ele><time>2026-04-11T13:56:05.944Z</time></trkpt><trkpt lat="45.5908867" lon="9.2534"><ele>176.0</ele><time>2026-04-11T13:56:06.944Z</time></trkpt><trkpt lat="45.590825" lon="9.2532967"><ele>176.0</ele><time>2026-04-11T13:56:07.943Z</time></trkpt><trkpt lat="45.590745" lon="9.2532083"><ele>176.0</ele><time>2026-04-11T13:56:08.944Z</time></trkpt><trkpt lat="45.5906417" lon="9.253125"><ele>176.0</ele><time>2026-04-11T13:56:09.944Z</time></trkpt><trkpt lat="45.5905617" lon="9.253025"><ele>176.0</ele><time>2026-04-11T13:56:10.943Z</time></trkpt><trkpt lat="45.590505" lon="9.252895"><ele>176.0</ele><time>2026-04-11T13:56:11.944Z</time></trkpt><trkpt lat="45.5904683" lon="9.252785"><ele>177.0</ele><time>2026-04-11T13:56:12.943Z</time></trkpt><trkpt lat="45.5904733" lon="9.25265"><ele>178.0</ele><time>2026-04-11T13:56:13.944Z</time></trkpt><trkpt lat="45.5905033" lon="9.2524917"><ele>179.0</ele><time>2026-04-11T13:56:14.944Z</time></trkpt><trkpt lat="45.59054" lon="9.2523017"><ele>180.0</ele><time>2026-04-11T13:56:15.944Z</time></trkpt><trkpt lat="45.5905683" lon="9.2520967"><ele>180.0</ele><time>2026-04-11T13:56:16.944Z</time></trkpt><trkpt lat="45.5905983" lon="9.2519233"><ele>180.0</ele><time>2026-04-11T13:56:17.944Z</time></trkpt><trkpt lat="45.5906267" lon="9.2517617"><ele>180.0</ele><time>2026-04-11T13:56:18.944Z</time></trkpt><trkpt lat="45.5906617" lon="9.2516033"><ele>180.0</ele><time>2026-04-11T13:56:19.944Z</time></trkpt><trkpt lat="45.5906933" lon="9.2514533"><ele>179.4</ele><time>2026-04-11T13:56:20.944Z</time></trkpt><trkpt lat="45.590725" lon="9.25131"><ele>178.8</ele><time>2026-04-11T13:56:21.944Z</time></trkpt><trkpt lat="45.5907467" lon="9.2511683"><ele>178.2</ele><time>2026-04-11T13:56:22.944Z</time></trkpt><trkpt lat="45.5907617" lon="9.25104"><ele>177.6</ele><time>2026-04-11T13:56:23.944Z</time></trkpt><trkpt lat="45.5907833" lon="9.2509167"><ele>177.0</ele><time>2026-04-11T13:56:24.944Z</time></trkpt><trkpt lat="45.5908" lon="9.250795"><ele>177.0</ele><time>2026-04-11T13:56:25.943Z</time></trkpt><trkpt lat="45.590815" lon="9.2506567"><ele>177.0</ele><time>2026-04-11T13:56:26.944Z</time></trkpt><trkpt lat="45.5908317" lon="9.2505283"><ele>177.0</ele><time>2026-04-11T13:56:27.944Z</time></trkpt><trkpt lat="45.590845" lon="9.2503917"><ele>177.0</ele><time>2026-04-11T13:56:28.943Z</time></trkpt><trkpt lat="45.5908533" lon="9.2502333"><ele>177.0</ele><time>2026-04-11T13:56:29.944Z</time></trkpt><trkpt lat="45.59087" lon="9.2500733"><ele>176.39999999999998</ele><time>2026-04-11T13:56:30.944Z</time></trkpt><trkpt lat="45.5908833" lon="9.2499283"><ele>175.79999999999998</ele><time>2026-04-11T13:56:31.943Z</time></trkpt><trkpt lat="45.5909117" lon="9.2497883"><ele>175.2</ele><time>2026-04-11T13:56:32.944Z</time></trkpt><trkpt lat="45.59093" lon="9.2496483"><ele>174.6</ele><time>2026-04-11T13:56:33.944Z</time></trkpt><trkpt lat="45.59095" lon="9.249515"><ele>174.0</ele><time>2026-04-11T13:56:34.944Z</time></trkpt><trkpt lat="45.5909667" lon="9.24939"><ele>174.0</ele><time>2026-04-11T13:56:35.944Z</time></trkpt><trkpt lat="45.590985" lon="9.2492783"><ele>174.0</ele><time>2026-04-11T13:56:36.944Z</time></trkpt><trkpt lat="45.591005" lon="9.24916"><ele>174.0</ele><time>2026-04-11T13:56:37.944Z</time></trkpt><trkpt lat="45.5910183" lon="9.2490467"><ele>174.0</ele><time>2026-04-11T13:56:38.944Z</time></trkpt><trkpt lat="45.591035" lon="9.248935"><ele>174.0</ele><time>2026-04-11T13:56:39.944Z</time></trkpt><trkpt lat="45.5910617" lon="9.2488317"><ele>174.0</ele><time>2026-04-11T13:56:40.944Z</time></trkpt><trkpt lat="45.5911067" lon="9.2487433"><ele>174.0</ele><time>2026-04-11T13:56:41.944Z</time></trkpt><trkpt lat="45.5911583" lon="9.2486617"><ele>174.0</ele><time>2026-04-11T13:56:42.944Z</time></trkpt><trkpt lat="45.5912033" lon="9.2485683"><ele>174.0</ele><time>2026-04-11T13:56:43.943Z</time></trkpt><trkpt lat="45.5912333" lon="9.2484733"><ele>174.0</ele><time>2026-04-11T13:56:44.944Z</time></trkpt><trkpt lat="45.5912417" lon="9.248365"><ele>174.0</ele><time>2026-04-11T13:56:45.944Z</time></trkpt><trkpt lat="45.591225" lon="9.2482533"><ele>174.0</ele><time>2026-04-11T13:56:46.944Z</time></trkpt><trkpt lat="45.5911967" lon="9.2481233"><ele>174.25</ele><time>2026-04-11T13:56:47.944Z</time></trkpt><trkpt lat="45.59116" lon="9.2479667"><ele>174.5</ele><time>2026-04-11T13:56:48.944Z</time></trkpt><trkpt lat="45.591155" lon="9.2477917"><ele>174.75</ele><time>2026-04-11T13:56:49.943Z</time></trkpt><trkpt lat="45.591175" lon="9.2476017"><ele>175.0</ele><time>2026-04-11T13:56:50.944Z</time></trkpt><trkpt lat="45.5912" lon="9.2473983"><ele>175.0</ele><time>2026-04-11T13:56:51.944Z</time></trkpt><trkpt lat="45.5912333" lon="9.2471533"><ele>175.0</ele><time>2026-04-11T13:56:52.944Z</time></trkpt><trkpt lat="45.59126" lon="9.246895"><ele>175.0</ele><time>2026-04-11T13:56:53.944Z</time></trkpt><trkpt lat="45.59129" lon="9.2466217"><ele>176.0</ele><time>2026-04-11T13:56:54.944Z</time></trkpt><trkpt lat="45.5913183" lon="9.2463567"><ele>177.0</ele><time>2026-04-11T13:56:55.943Z</time></trkpt><trkpt lat="45.5913517" lon="9.246075"><ele>178.0</ele><time>2026-04-11T13:56:56.944Z</time></trkpt><trkpt lat="45.5913783" lon="9.24579"><ele>178.33333333333334</ele><time>2026-04-11T13:56:57.944Z</time></trkpt><trkpt lat="45.591405" lon="9.2455033"><ele>178.66666666666666</ele><time>2026-04-11T13:56:58.944Z</time></trkpt><trkpt lat="45.59143" lon="9.2452133"><ele>179.0</ele><time>2026-04-11T13:56:59.944Z</time></trkpt><trkpt lat="45.5914617" lon="9.2449283"><ele>178.0</ele><time>2026-04-11T13:57:00.944Z</time></trkpt><trkpt lat="45.5915067" lon="9.244625"><ele>177.0</ele><time>2026-04-11T13:57:01.944Z</time></trkpt><trkpt lat="45.5915433" lon="9.2443"><ele>176.0</ele><time>2026-04-11T13:57:02.944Z</time></trkpt><trkpt lat="45.5915783" lon="9.2440117"><ele>175.75</ele><time>2026-04-11T13:57:03.944Z</time></trkpt><trkpt lat="45.5916083" lon="9.2437717"><ele>175.5</ele><time>2026-04-11T13:57:04.944Z</time></trkpt><trkpt lat="45.5916383" lon="9.24358"><ele>175.25</ele><time>2026-04-11T13:57:05.944Z</time></trkpt><trkpt lat="45.5916633" lon="9.2434083"><ele>175.0</ele><time>2026-04-11T13:57:06.944Z</time></trkpt><trkpt lat="45.5916833" lon="9.2432517"><ele>175.2</ele><time>2026-04-11T13:57:07.944Z</time></trkpt><trkpt lat="45.5917067" lon="9.2431133"><ele>175.4</ele><time>2026-04-11T13:57:08.943Z</time></trkpt><trkpt lat="45.5917283" lon="9.2429883"><ele>175.60000000000002</ele><time>2026-04-11T13:57:09.944Z</time></trkpt><trkpt lat="45.59175" lon="9.2428483"><ele>175.8</ele><time>2026-04-11T13:57:10.944Z</time></trkpt><trkpt lat="45.5917717" lon="9.242705"><ele>176.0</ele><time>2026-04-11T13:57:11.944Z</time></trkpt><trkpt lat="45.5917833" lon="9.242575"><ele>176.0</ele><time>2026-04-11T13:57:12.943Z</time></trkpt><trkpt lat="45.5917933" lon="9.24245"><ele>176.0</ele><time>2026-04-11T13:57:13.943Z</time></trkpt><trkpt lat="45.5917983" lon="9.2423233"><ele>176.0</ele><time>2026-04-11T13:57:14.943Z</time></trkpt><trkpt lat="45.59181" lon="9.2422017"><ele>176.0</ele><time>2026-04-11T13:57:15.943Z</time></trkpt><trkpt lat="45.591825" lon="9.2420917"><ele>176.0</ele><time>2026-04-11T13:57:16.943Z</time></trkpt><trkpt lat="45.5918367" lon="9.2419733"><ele>176.0</ele><time>2026-04-11T13:57:17.943Z</time></trkpt><trkpt lat="45.591845" lon="9.2418633"><ele>176.0</ele><time>2026-04-11T13:57:18.943Z</time></trkpt><trkpt lat="45.591865" lon="9.2417383"><ele>176.0</ele><time>2026-04-11T13:57:19.943Z</time></trkpt><trkpt lat="45.5918817" lon="9.241605"><ele>176.0</ele><time>2026-04-11T13:57:20.943Z</time></trkpt><trkpt lat="45.5918983" lon="9.2414567"><ele>176.0</ele><time>2026-04-11T13:57:21.943Z</time></trkpt><trkpt lat="45.5919167" lon="9.2413133"><ele>176.0</ele><time>2026-04-11T13:57:22.942Z</time></trkpt><trkpt lat="45.5919417" lon="9.2411817"><ele>176.0</ele><time>2026-04-11T13:57:23.943Z</time></trkpt><trkpt lat="45.59196" lon="9.24104"><ele>176.0</ele><time>2026-04-11T13:57:24.943Z</time></trkpt><trkpt lat="45.5919817" lon="9.240895"><ele>176.0</ele><time>2026-04-11T13:57:25.943Z</time></trkpt><trkpt lat="45.5919983" lon="9.240755"><ele>176.0</ele><time>2026-04-11T13:57:26.943Z</time></trkpt><trkpt lat="45.5920183" lon="9.24061"><ele>176.0</ele><time>2026-04-11T13:57:27.943Z</time></trkpt><trkpt lat="45.5920433" lon="9.2404683"><ele>176.0</ele><time>2026-04-11T13:57:28.943Z</time></trkpt><trkpt lat="45.5920633" lon="9.2403267"><ele>176.0</ele><time>2026-04-11T13:57:29.943Z</time></trkpt><trkpt lat="45.5920783" lon="9.2401783"><ele>176.0</ele><time>2026-04-11T13:57:30.943Z</time></trkpt><trkpt lat="45.5921" lon="9.2400267"><ele>176.0</ele><time>2026-04-11T13:57:31.943Z</time></trkpt><trkpt lat="45.59213" lon="9.23987"><ele>176.0</ele><time>2026-04-11T13:57:32.942Z</time></trkpt><trkpt lat="45.5921517" lon="9.2397117"><ele>176.0</ele><time>2026-04-11T13:57:33.943Z</time></trkpt><trkpt lat="45.592175" lon="9.2395567"><ele>176.0</ele><time>2026-04-11T13:57:34.943Z</time></trkpt><trkpt lat="45.5921933" lon="9.23942"><ele>176.0</ele><time>2026-04-11T13:57:35.943Z</time></trkpt><trkpt lat="45.5922217" lon="9.2392767"><ele>176.0</ele><time>2026-04-11T13:57:36.942Z</time></trkpt><trkpt lat="45.592235" lon="9.2391183"><ele>176.0</ele><time>2026-04-11T13:57:37.943Z</time></trkpt><trkpt lat="45.5922567" lon="9.2389667"><ele>176.0</ele><time>2026-04-11T13:57:38.942Z</time></trkpt><trkpt lat="45.5922767" lon="9.2388083"><ele>176.0</ele><time>2026-04-11T13:57:39.943Z</time></trkpt><trkpt lat="45.592305" lon="9.23865"><ele>176.0</ele><time>2026-04-11T13:57:40.943Z</time></trkpt><trkpt lat="45.5923317" lon="9.2384933"><ele>176.0</ele><time>2026-04-11T13:57:41.943Z</time></trkpt><trkpt lat="45.5923517" lon="9.2383467"><ele>176.0</ele><time>2026-04-11T13:57:42.943Z</time></trkpt><trkpt lat="45.5923717" lon="9.2382217"><ele>176.14285714285714</ele><time>2026-04-11T13:57:43.943Z</time></trkpt><trkpt lat="45.5923867" lon="9.2380983"><ele>176.28571428571428</ele><time>2026-04-11T13:57:44.943Z</time></trkpt><trkpt lat="45.5924033" lon="9.23799"><ele>176.42857142857144</ele><time>2026-04-11T13:57:45.943Z</time></trkpt><trkpt lat="45.592425" lon="9.237895"><ele>176.57142857142856</ele><time>2026-04-11T13:57:46.943Z</time></trkpt><trkpt lat="45.5924417" lon="9.2377983"><ele>176.7142857142857</ele><time>2026-04-11T13:57:47.943Z</time></trkpt><trkpt lat="45.59246" lon="9.2377017"><ele>176.85714285714286</ele><time>2026-04-11T13:57:48.943Z</time></trkpt><trkpt lat="45.5924717" lon="9.23761"><ele>177.0</ele><time>2026-04-11T13:57:49.943Z</time></trkpt><trkpt lat="45.5924883" lon="9.2375133"><ele>177.0</ele><time>2026-04-11T13:57:50.943Z</time></trkpt><trkpt lat="45.59252" lon="9.2373517"><ele>177.0</ele><time>2026-04-11T13:57:52.943Z</time></trkpt><trkpt lat="45.59255" lon="9.237215"><ele>177.0</ele><time>2026-04-11T13:57:54.943Z</time></trkpt><trkpt lat="45.59257" lon="9.2370917"><ele>177.0</ele><time>2026-04-11T13:57:56.943Z</time></trkpt><trkpt lat="45.592585" lon="9.23696"><ele>177.0</ele><time>2026-04-11T13:57:58.943Z</time></trkpt><trkpt lat="45.59259" lon="9.2367733"><ele>177.0</ele><time>2026-04-11T13:58:00.943Z</time></trkpt><trkpt lat="45.5926" lon="9.23666"><ele>177.0</ele><time>2026-04-11T13:58:01.943Z</time></trkpt><trkpt lat="45.5926167" lon="9.2365367"><ele>177.0</ele><time>2026-04-11T13:58:02.943Z</time></trkpt><trkpt lat="45.592635" lon="9.2364017"><ele>177.0</ele><time>2026-04-11T13:58:03.942Z</time></trkpt><trkpt lat="45.5926567" lon="9.2362567"><ele>177.0</ele><time>2026-04-11T13:58:04.943Z</time></trkpt><trkpt lat="45.5926783" lon="9.2361167"><ele>177.0</ele><time>2026-04-11T13:58:05.943Z</time></trkpt><trkpt lat="45.592705" lon="9.23598"><ele>177.0</ele><time>2026-04-11T13:58:06.943Z</time></trkpt><trkpt lat="45.5927267" lon="9.2358567"><ele>177.0</ele><time>2026-04-11T13:58:07.943Z</time></trkpt><trkpt lat="45.5927433" lon="9.2357417"><ele>177.0</ele><time>2026-04-11T13:58:08.943Z</time></trkpt><trkpt lat="45.5927633" lon="9.23563"><ele>177.0</ele><time>2026-04-11T13:58:09.943Z</time></trkpt><trkpt lat="45.5927733" lon="9.2355167"><ele>177.0</ele><time>2026-04-11T13:58:10.943Z</time></trkpt><trkpt lat="45.5927883" lon="9.2354067"><ele>177.0</ele><time>2026-04-11T13:58:11.943Z</time></trkpt><trkpt lat="45.5928" lon="9.2352917"><ele>177.0</ele><time>2026-04-11T13:58:12.943Z</time></trkpt><trkpt lat="45.592815" lon="9.2351767"><ele>177.0</ele><time>2026-04-11T13:58:13.943Z</time></trkpt><trkpt lat="45.5928333" lon="9.2350533"><ele>177.0</ele><time>2026-04-11T13:58:14.943Z</time></trkpt><trkpt lat="45.592845" lon="9.234925"><ele>177.0</ele><time>2026-04-11T13:58:15.943Z</time></trkpt><trkpt lat="45.592855" lon="9.2348017"><ele>177.0</ele><time>2026-04-11T13:58:16.943Z</time></trkpt><trkpt lat="45.5928633" lon="9.2346867"><ele>177.16666666666666</ele><time>2026-04-11T13:58:17.943Z</time></trkpt><trkpt lat="45.59287" lon="9.2345817"><ele>177.33333333333334</ele><time>2026-04-11T13:58:18.943Z</time></trkpt><trkpt lat="45.5928783" lon="9.2344817"><ele>177.5</ele><time>2026-04-11T13:58:19.943Z</time></trkpt><trkpt lat="45.5928883" lon="9.2343833"><ele>177.66666666666669</ele><time>2026-04-11T13:58:20.943Z</time></trkpt><trkpt lat="45.5929117" lon="9.234235"><ele>177.83333333333334</ele><time>2026-04-11T13:58:22.943Z</time></trkpt><trkpt lat="45.59294" lon="9.2340617"><ele>178.0</ele><time>2026-04-11T13:58:24.942Z</time></trkpt><trkpt lat="45.5929533" lon="9.2339617"><ele>178.2</ele><time>2026-04-11T13:58:25.943Z</time></trkpt><trkpt lat="45.5929583" lon="9.2338617"><ele>178.4</ele><time>2026-04-11T13:58:26.943Z</time></trkpt><trkpt lat="45.5929367" lon="9.2337683"><ele>178.6</ele><time>2026-04-11T13:58:27.943Z</time></trkpt><trkpt lat="45.5928717" lon="9.2336517"><ele>178.79999999999998</ele><time>2026-04-11T13:58:29.942Z</time></trkpt><trkpt lat="45.5927917" lon="9.233555"><ele>179.0</ele><time>2026-04-11T13:58:31.943Z</time></trkpt><trkpt lat="45.5927267" lon="9.233385"><ele>178.5</ele><time>2026-04-11T13:58:33.943Z</time></trkpt><trkpt lat="45.592695" lon="9.233275"><ele>178.0</ele><time>2026-04-11T13:58:34.943Z</time></trkpt><trkpt lat="45.592665" lon="9.2331717"><ele>177.5</ele><time>2026-04-11T13:58:35.943Z</time></trkpt><trkpt lat="45.5926367" lon="9.2330567"><ele>177.0</ele><time>2026-04-11T13:58:36.943Z</time></trkpt><trkpt lat="45.5926033" lon="9.23295"><ele>176.5</ele><time>2026-04-11T13:58:37.943Z</time></trkpt><trkpt lat="45.5925633" lon="9.232835"><ele>176.0</ele><time>2026-04-11T13:58:38.943Z</time></trkpt><trkpt lat="45.5925317" lon="9.2327083"><ele>176.0</ele><time>2026-04-11T13:58:39.943Z</time></trkpt><trkpt lat="45.5924867" lon="9.23257"><ele>176.0</ele><time>2026-04-11T13:58:40.943Z</time></trkpt><trkpt lat="45.5924367" lon="9.2324383"><ele>176.0</ele><time>2026-04-11T13:58:41.943Z</time></trkpt><trkpt lat="45.5923783" lon="9.2323"><ele>176.0</ele><time>2026-04-11T13:58:42.943Z</time></trkpt><trkpt lat="45.59232" lon="9.2321733"><ele>176.0</ele><time>2026-04-11T13:58:43.943Z</time></trkpt><trkpt lat="45.592255" lon="9.2320217"><ele>176.75</ele><time>2026-04-11T13:58:44.943Z</time></trkpt><trkpt lat="45.5922033" lon="9.2318733"><ele>177.5</ele><time>2026-04-11T13:58:45.943Z</time></trkpt><trkpt lat="45.592145" lon="9.231725"><ele>178.25</ele><time>2026-04-11T13:58:46.943Z</time></trkpt><trkpt lat="45.5920967" lon="9.2315817"><ele>179.0</ele><time>2026-04-11T13:58:47.943Z</time></trkpt><trkpt lat="45.5920483" lon="9.231425"><ele>178.6</ele><time>2026-04-11T13:58:48.943Z</time></trkpt><trkpt lat="45.5919917" lon="9.231285"><ele>178.2</ele><time>2026-04-11T13:58:49.943Z</time></trkpt><trkpt lat="45.5919367" lon="9.2311417"><ele>177.79999999999998</ele><time>2026-04-11T13:58:50.943Z</time></trkpt><trkpt lat="45.591895" lon="9.2310017"><ele>177.39999999999998</ele><time>2026-04-11T13:58:51.943Z</time></trkpt><trkpt lat="45.5918517" lon="9.2308683"><ele>177.0</ele><time>2026-04-11T13:58:52.943Z</time></trkpt><trkpt lat="45.591805" lon="9.2307317"><ele>177.2</ele><time>2026-04-11T13:58:53.943Z</time></trkpt><trkpt lat="45.5917583" lon="9.2305967"><ele>177.39999999999998</ele><time>2026-04-11T13:58:54.943Z</time></trkpt><trkpt lat="45.5917083" lon="9.230455"><ele>177.60000000000002</ele><time>2026-04-11T13:58:55.943Z</time></trkpt><trkpt lat="45.5916567" lon="9.2303183"><ele>177.8</ele><time>2026-04-11T13:58:56.943Z</time></trkpt><trkpt lat="45.5916033" lon="9.2301833"><ele>178.0</ele><time>2026-04-11T13:58:57.943Z</time></trkpt><trkpt lat="45.5915467" lon="9.2300417"><ele>178.0</ele><time>2026-04-11T13:58:58.943Z</time></trkpt><trkpt lat="45.5914917" lon="9.2298967"><ele>178.0</ele><time>2026-04-11T13:58:59.943Z</time></trkpt><trkpt lat="45.5914367" lon="9.2297533"><ele>178.0</ele><time>2026-04-11T13:59:00.943Z</time></trkpt><trkpt lat="45.5913833" lon="9.2296083"><ele>178.0</ele><time>2026-04-11T13:59:01.942Z</time></trkpt><trkpt lat="45.5913283" lon="9.2294583"><ele>178.0</ele><time>2026-04-11T13:59:02.943Z</time></trkpt><trkpt lat="45.59127" lon="9.2293183"><ele>178.0</ele><time>2026-04-11T13:59:03.943Z</time></trkpt><trkpt lat="45.591225" lon="9.2291717"><ele>178.0</ele><time>2026-04-11T13:59:04.943Z</time></trkpt><trkpt lat="45.5911733" lon="9.229015"><ele>178.0</ele><time>2026-04-11T13:59:05.943Z</time></trkpt><trkpt lat="45.5911167" lon="9.2288583"><ele>177.8</ele><time>2026-04-11T13:59:06.943Z</time></trkpt><trkpt lat="45.5910633" lon="9.2287067"><ele>177.60000000000002</ele><time>2026-04-11T13:59:07.943Z</time></trkpt><trkpt lat="45.59101" lon="9.228575"><ele>177.39999999999998</ele><time>2026-04-11T13:59:08.943Z</time></trkpt><trkpt lat="45.5909583" lon="9.22844"><ele>177.2</ele><time>2026-04-11T13:59:09.943Z</time></trkpt><trkpt lat="45.5909117" lon="9.2283133"><ele>177.0</ele><time>2026-04-11T13:59:10.943Z</time></trkpt><trkpt lat="45.5908683" lon="9.2281817"><ele>177.0</ele><time>2026-04-11T13:59:11.943Z</time></trkpt><trkpt lat="45.5908217" lon="9.2280617"><ele>177.0</ele><time>2026-04-11T13:59:12.943Z</time></trkpt><trkpt lat="45.5907917" lon="9.2279467"><ele>177.0</ele><time>2026-04-11T13:59:13.943Z</time></trkpt><trkpt lat="45.5907617" lon="9.2278383"><ele>177.0</ele><time>2026-04-11T13:59:14.943Z</time></trkpt><trkpt lat="45.5907367" lon="9.22773"><ele>177.0</ele><time>2026-04-11T13:59:15.943Z</time></trkpt><trkpt lat="45.5907167" lon="9.22762"><ele>177.0</ele><time>2026-04-11T13:59:16.943Z</time></trkpt><trkpt lat="45.5906883" lon="9.2275117"><ele>177.0</ele><time>2026-04-11T13:59:17.943Z</time></trkpt><trkpt lat="45.5906633" lon="9.2274067"><ele>177.0</ele><time>2026-04-11T13:59:18.943Z</time></trkpt><trkpt lat="45.5906267" lon="9.2273117"><ele>177.0</ele><time>2026-04-11T13:59:19.943Z</time></trkpt><trkpt lat="45.59059" lon="9.2271633"><ele>177.0</ele><time>2026-04-11T13:59:21.943Z</time></trkpt><trkpt lat="45.590565" lon="9.2270383"><ele>177.0</ele><time>2026-04-11T13:59:23.943Z</time></trkpt><trkpt lat="45.590545" lon="9.22693"><ele>177.0</ele><time>2026-04-11T13:59:25.943Z</time></trkpt><trkpt lat="45.5905433" lon="9.226835"><ele>177.0</ele><time>2026-04-11T13:59:27.943Z</time></trkpt><trkpt lat="45.590545" lon="9.226745"><ele>177.0</ele><time>2026-04-11T13:59:29.943Z</time></trkpt><trkpt lat="45.5905567" lon="9.2266483"><ele>177.0</ele><time>2026-04-11T13:59:32.943Z</time></trkpt><trkpt lat="45.5905333" lon="9.2265283"><ele>177.0</ele><time>2026-04-11T13:59:37.943Z</time></trkpt><trkpt lat="45.59051" lon="9.226425"><ele>177.0</ele><time>2026-04-11T13:59:39.943Z</time></trkpt><trkpt lat="45.5904717" lon="9.2262883"><ele>177.0</ele><time>2026-04-11T13:59:41.943Z</time></trkpt><trkpt lat="45.59043" lon="9.226115"><ele>177.0</ele><time>2026-04-11T13:59:43.943Z</time></trkpt><trkpt lat="45.5904083" lon="9.2260067"><ele>177.0</ele><time>2026-04-11T13:59:44.943Z</time></trkpt><trkpt lat="45.5903867" lon="9.2258883"><ele>177.0</ele><time>2026-04-11T13:59:45.943Z</time></trkpt><trkpt lat="45.5903667" lon="9.2257617"><ele>177.0</ele><time>2026-04-11T13:59:46.943Z</time></trkpt><trkpt lat="45.59035" lon="9.2256317"><ele>177.0</ele><time>2026-04-11T13:59:47.943Z</time></trkpt><trkpt lat="45.5903317" lon="9.2255"><ele>177.0</ele><time>2026-04-11T13:59:48.943Z</time></trkpt><trkpt lat="45.5903133" lon="9.2253667"><ele>177.0</ele><time>2026-04-11T13:59:49.942Z</time></trkpt><trkpt lat="45.59029" lon="9.2252333"><ele>177.0</ele><time>2026-04-11T13:59:50.943Z</time></trkpt><trkpt lat="45.5902667" lon="9.225095"><ele>177.0</ele><time>2026-04-11T13:59:51.943Z</time></trkpt><trkpt lat="45.5902433" lon="9.2249517"><ele>177.0</ele><time>2026-04-11T13:59:52.943Z</time></trkpt><trkpt lat="45.590225" lon="9.224805"><ele>177.0</ele><time>2026-04-11T13:59:53.943Z</time></trkpt><trkpt lat="45.5902017" lon="9.2246533"><ele>176.6</ele><time>2026-04-11T13:59:54.943Z</time></trkpt><trkpt lat="45.5901783" lon="9.224495"><ele>176.2</ele><time>2026-04-11T13:59:55.943Z</time></trkpt><trkpt lat="45.5901517" lon="9.22434"><ele>175.8</ele><time>2026-04-11T13:59:56.943Z</time></trkpt><trkpt lat="45.5901267" lon="9.2241917"><ele>175.4</ele><time>2026-04-11T13:59:57.943Z</time></trkpt><trkpt lat="45.5901017" lon="9.2240467"><ele>175.0</ele><time>2026-04-11T13:59:58.943Z</time></trkpt><trkpt lat="45.5900783" lon="9.22389"><ele>175.0</ele><time>2026-04-11T13:59:59.943Z</time></trkpt><trkpt lat="45.590055" lon="9.2237317"><ele>175.0</ele><time>2026-04-11T14:00:00.943Z</time></trkpt><trkpt lat="45.5900283" lon="9.2235667"><ele>175.0</ele><time>2026-04-11T14:00:01.943Z</time></trkpt><trkpt lat="45.589995" lon="9.2233967"><ele>175.0</ele><time>2026-04-11T14:00:02.943Z</time></trkpt><trkpt lat="45.58997" lon="9.2232283"><ele>174.8</ele><time>2026-04-11T14:00:03.943Z</time></trkpt><trkpt lat="45.5899433" lon="9.2230783"><ele>174.6</ele><time>2026-04-11T14:00:04.943Z</time></trkpt><trkpt lat="45.5899183" lon="9.2229267"><ele>174.39999999999998</ele><time>2026-04-11T14:00:05.943Z</time></trkpt><trkpt lat="45.5898917" lon="9.22277"><ele>174.2</ele><time>2026-04-11T14:00:06.943Z</time></trkpt><trkpt lat="45.5898633" lon="9.222615"><ele>174.0</ele><time>2026-04-11T14:00:07.943Z</time></trkpt><trkpt lat="45.5898333" lon="9.2224667"><ele>174.0</ele><time>2026-04-11T14:00:08.943Z</time></trkpt><trkpt lat="45.58982" lon="9.222315"><ele>174.0</ele><time>2026-04-11T14:00:09.942Z</time></trkpt><trkpt lat="45.5898" lon="9.222165"><ele>174.0</ele><time>2026-04-11T14:00:10.943Z</time></trkpt><trkpt lat="45.5897833" lon="9.222015"><ele>174.0</ele><time>2026-04-11T14:00:11.943Z</time></trkpt><trkpt lat="45.589775" lon="9.22186"><ele>174.0</ele><time>2026-04-11T14:00:12.943Z</time></trkpt><trkpt lat="45.589765" lon="9.2216983"><ele>174.75</ele><time>2026-04-11T14:00:13.943Z</time></trkpt><trkpt lat="45.5897583" lon="9.22152"><ele>175.5</ele><time>2026-04-11T14:00:14.943Z</time></trkpt><trkpt lat="45.5897433" lon="9.2213417"><ele>176.25</ele><time>2026-04-11T14:00:15.943Z</time></trkpt><trkpt lat="45.58974" lon="9.2211533"><ele>177.0</ele><time>2026-04-11T14:00:16.943Z</time></trkpt><trkpt lat="45.5897467" lon="9.2209733"><ele>177.0</ele><time>2026-04-11T14:00:17.943Z</time></trkpt><trkpt lat="45.58975" lon="9.2207983"><ele>177.0</ele><time>2026-04-11T14:00:18.942Z</time></trkpt><trkpt lat="45.5897417" lon="9.2206317"><ele>177.0</ele><time>2026-04-11T14:00:19.943Z</time></trkpt><trkpt lat="45.58975" lon="9.22046"><ele>177.0</ele><time>2026-04-11T14:00:20.943Z</time></trkpt><trkpt lat="45.5897567" lon="9.2202883"><ele>177.0</ele><time>2026-04-11T14:00:21.942Z</time></trkpt><trkpt lat="45.58976" lon="9.2201117"><ele>177.0</ele><time>2026-04-11T14:00:22.943Z</time></trkpt><trkpt lat="45.5897567" lon="9.2199283"><ele>177.0</ele><time>2026-04-11T14:00:23.943Z</time></trkpt><trkpt lat="45.5897683" lon="9.2197467"><ele>177.0</ele><time>2026-04-11T14:00:24.943Z</time></trkpt><trkpt lat="45.5897667" lon="9.2195567"><ele>177.0</ele><time>2026-04-11T14:00:25.943Z</time></trkpt><trkpt lat="45.5897683" lon="9.2193617"><ele>177.0</ele><time>2026-04-11T14:00:26.942Z</time></trkpt><trkpt lat="45.5897683" lon="9.2191783"><ele>177.0</ele><time>2026-04-11T14:00:27.942Z</time></trkpt><trkpt lat="45.589775" lon="9.21899"><ele>177.0</ele><time>2026-04-11T14:00:28.941Z</time></trkpt><trkpt lat="45.5897817" lon="9.2188117"><ele>177.39999999999998</ele><time>2026-04-11T14:00:29.942Z</time></trkpt><trkpt lat="45.5897867" lon="9.218645"><ele>177.79999999999998</ele><time>2026-04-11T14:00:30.942Z</time></trkpt><trkpt lat="45.58979" lon="9.2184967"><ele>178.2</ele><time>2026-04-11T14:00:31.941Z</time></trkpt><trkpt lat="45.589795" lon="9.21835"><ele>178.6</ele><time>2026-04-11T14:00:32.942Z</time></trkpt><trkpt lat="45.5898" lon="9.2182133"><ele>179.0</ele><time>2026-04-11T14:00:33.942Z</time></trkpt><trkpt lat="45.589805" lon="9.2180817"><ele>179.0</ele><time>2026-04-11T14:00:34.942Z</time></trkpt><trkpt lat="45.589815" lon="9.217945"><ele>179.0</ele><time>2026-04-11T14:00:35.942Z</time></trkpt><trkpt lat="45.58982" lon="9.2178033"><ele>179.0</ele><time>2026-04-11T14:00:36.942Z</time></trkpt><trkpt lat="45.5898167" lon="9.2176517"><ele>179.0</ele><time>2026-04-11T14:00:37.942Z</time></trkpt><trkpt lat="45.5898133" lon="9.2174933"><ele>179.0</ele><time>2026-04-11T14:00:38.942Z</time></trkpt><trkpt lat="45.5898167" lon="9.217325"><ele>178.75</ele><time>2026-04-11T14:00:39.942Z</time></trkpt><trkpt lat="45.5898217" lon="9.21715"><ele>178.5</ele><time>2026-04-11T14:00:40.942Z</time></trkpt><trkpt lat="45.58983" lon="9.2169817"><ele>178.25</ele><time>2026-04-11T14:00:41.942Z</time></trkpt><trkpt lat="45.5898333" lon="9.2168283"><ele>178.0</ele><time>2026-04-11T14:00:42.942Z</time></trkpt><trkpt lat="45.5898317" lon="9.2166817"><ele>178.0</ele><time>2026-04-11T14:00:43.942Z</time></trkpt><trkpt lat="45.5898333" lon="9.2165367"><ele>178.0</ele><time>2026-04-11T14:00:44.941Z</time></trkpt><trkpt lat="45.5898383" lon="9.2163917"><ele>178.0</ele><time>2026-04-11T14:00:45.942Z</time></trkpt><trkpt lat="45.589835" lon="9.2162667"><ele>178.0</ele><time>2026-04-11T14:00:46.942Z</time></trkpt><trkpt lat="45.5898317" lon="9.21616"><ele>178.0</ele><time>2026-04-11T14:00:47.941Z</time></trkpt><trkpt lat="45.58983" lon="9.2160217"><ele>178.0</ele><time>2026-04-11T14:00:49.942Z</time></trkpt><trkpt lat="45.5898267" lon="9.21588"><ele>178.0</ele><time>2026-04-11T14:00:56.942Z</time></trkpt><trkpt lat="45.58982" lon="9.2157617"><ele>178.0</ele><time>2026-04-11T14:00:58.942Z</time></trkpt><trkpt lat="45.58983" lon="9.2155833"><ele>178.0</ele><time>2026-04-11T14:01:00.942Z</time></trkpt><trkpt lat="45.58984" lon="9.2154817"><ele>178.0</ele><time>2026-04-11T14:01:01.942Z</time></trkpt><trkpt lat="45.589845" lon="9.2153667"><ele>178.0</ele><time>2026-04-11T14:01:02.942Z</time></trkpt><trkpt lat="45.58985" lon="9.21524"><ele>178.0</ele><time>2026-04-11T14:01:03.941Z</time></trkpt><trkpt lat="45.5898567" lon="9.2151083"><ele>178.0</ele><time>2026-04-11T14:01:04.942Z</time></trkpt><trkpt lat="45.5898583" lon="9.2149733"><ele>178.0</ele><time>2026-04-11T14:01:05.942Z</time></trkpt><trkpt lat="45.589855" lon="9.214835"><ele>178.0</ele><time>2026-04-11T14:01:06.941Z</time></trkpt><trkpt lat="45.5898583" lon="9.2146867"><ele>177.75</ele><time>2026-04-11T14:01:07.942Z</time></trkpt><trkpt lat="45.5898583" lon="9.2145517"><ele>177.5</ele><time>2026-04-11T14:01:08.942Z</time></trkpt><trkpt lat="45.5898533" lon="9.2144017"><ele>177.25</ele><time>2026-04-11T14:01:09.942Z</time></trkpt><trkpt lat="45.5898417" lon="9.2142267"><ele>177.0</ele><time>2026-04-11T14:01:10.942Z</time></trkpt><trkpt lat="45.5898383" lon="9.2140133"><ele>177.33333333333334</ele><time>2026-04-11T14:01:11.941Z</time></trkpt><trkpt lat="45.5898367" lon="9.213765"><ele>177.66666666666669</ele><time>2026-04-11T14:01:12.942Z</time></trkpt><trkpt lat="45.5898467" lon="9.2134917"><ele>178.0</ele><time>2026-04-11T14:01:13.942Z</time></trkpt><trkpt lat="45.5898567" lon="9.2132067"><ele>177.66666666666669</ele><time>2026-04-11T14:01:14.942Z</time></trkpt><trkpt lat="45.5898733" lon="9.2129317"><ele>177.33333333333334</ele><time>2026-04-11T14:01:15.942Z</time></trkpt><trkpt lat="45.5898867" lon="9.2126567"><ele>177.0</ele><time>2026-04-11T14:01:16.942Z</time></trkpt><trkpt lat="45.5898967" lon="9.2123583"><ele>177.0</ele><time>2026-04-11T14:01:17.942Z</time></trkpt><trkpt lat="45.5898983" lon="9.2120867"><ele>177.0</ele><time>2026-04-11T14:01:18.942Z</time></trkpt><trkpt lat="45.589905" lon="9.2118367"><ele>177.0</ele><time>2026-04-11T14:01:19.941Z</time></trkpt><trkpt lat="45.5899017" lon="9.2116"><ele>177.0</ele><time>2026-04-11T14:01:20.941Z</time></trkpt><trkpt lat="45.589905" lon="9.2113917"><ele>177.0</ele><time>2026-04-11T14:01:21.942Z</time></trkpt><trkpt lat="45.5899083" lon="9.2111867"><ele>177.0</ele><time>2026-04-11T14:01:22.941Z</time></trkpt><trkpt lat="45.589905" lon="9.21097"><ele>177.0</ele><time>2026-04-11T14:01:23.942Z</time></trkpt><trkpt lat="45.5899067" lon="9.2107483"><ele>177.66666666666666</ele><time>2026-04-11T14:01:24.942Z</time></trkpt><trkpt lat="45.5899067" lon="9.21052"><ele>178.33333333333331</ele><time>2026-04-11T14:01:25.942Z</time></trkpt><trkpt lat="45.5899133" lon="9.2102967"><ele>179.0</ele><time>2026-04-11T14:01:26.942Z</time></trkpt><trkpt lat="45.5899183" lon="9.21009"><ele>179.0</ele><time>2026-04-11T14:01:27.942Z</time></trkpt><trkpt lat="45.5899333" lon="9.2098983"><ele>179.0</ele><time>2026-04-11T14:01:28.942Z</time></trkpt><trkpt lat="45.5899467" lon="9.2097117"><ele>179.0</ele><time>2026-04-11T14:01:29.941Z</time></trkpt><trkpt lat="45.5899667" lon="9.2095283"><ele>179.0</ele><time>2026-04-11T14:01:30.942Z</time></trkpt><trkpt lat="45.5899883" lon="9.209355"><ele>178.6</ele><time>2026-04-11T14:01:31.942Z</time></trkpt><trkpt lat="45.59001" lon="9.20918"><ele>178.2</ele><time>2026-04-11T14:01:32.942Z</time></trkpt><trkpt lat="45.59004" lon="9.2090283"><ele>177.79999999999998</ele><time>2026-04-11T14:01:33.942Z</time></trkpt><trkpt lat="45.59006" lon="9.2089033"><ele>177.39999999999998</ele><time>2026-04-11T14:01:34.942Z</time></trkpt><trkpt lat="45.5900767" lon="9.2088033"><ele>177.0</ele><time>2026-04-11T14:01:35.942Z</time></trkpt><trkpt lat="45.5901217" lon="9.2086767"><ele>177.0</ele><time>2026-04-11T14:01:37.942Z</time></trkpt><trkpt lat="45.590175" lon="9.2086083"><ele>177.0</ele><time>2026-04-11T14:01:39.941Z</time></trkpt><trkpt lat="45.5902683" lon="9.2085267"><ele>177.0</ele><time>2026-04-11T14:01:41.942Z</time></trkpt><trkpt lat="45.590315" lon="9.2083983"><ele>177.0</ele><time>2026-04-11T14:01:43.942Z</time></trkpt><trkpt lat="45.5902933" lon="9.2082533"><ele>177.0</ele><time>2026-04-11T14:01:45.942Z</time></trkpt><trkpt lat="45.59028" lon="9.208065"><ele>177.0</ele><time>2026-04-11T14:01:47.942Z</time></trkpt><trkpt lat="45.5902717" lon="9.207955"><ele>177.0</ele><time>2026-04-11T14:01:48.942Z</time></trkpt><trkpt lat="45.590275" lon="9.207845"><ele>177.0</ele><time>2026-04-11T14:01:49.942Z</time></trkpt><trkpt lat="45.5902833" lon="9.2077233"><ele>177.0</ele><time>2026-04-11T14:01:50.942Z</time></trkpt><trkpt lat="45.590305" lon="9.2075833"><ele>177.0</ele><time>2026-04-11T14:01:51.942Z</time></trkpt><trkpt lat="45.590335" lon="9.2074117"><ele>177.0</ele><time>2026-04-11T14:01:52.942Z</time></trkpt><trkpt lat="45.5903633" lon="9.2072217"><ele>177.0</ele><time>2026-04-11T14:01:53.941Z</time></trkpt><trkpt lat="45.59039" lon="9.207005"><ele>177.0</ele><time>2026-04-11T14:01:54.942Z</time></trkpt><trkpt lat="45.59043" lon="9.2067633"><ele>177.33333333333334</ele><time>2026-04-11T14:01:55.942Z</time></trkpt><trkpt lat="45.5904833" lon="9.2064917"><ele>177.66666666666669</ele><time>2026-04-11T14:01:56.942Z</time></trkpt><trkpt lat="45.5905467" lon="9.2062167"><ele>178.0</ele><time>2026-04-11T14:01:57.942Z</time></trkpt><trkpt lat="45.5906083" lon="9.2059233"><ele>178.0</ele><time>2026-04-11T14:01:58.941Z</time></trkpt><trkpt lat="45.59067" lon="9.2056083"><ele>178.0</ele><time>2026-04-11T14:01:59.942Z</time></trkpt><trkpt lat="45.5907217" lon="9.2053133"><ele>178.0</ele><time>2026-04-11T14:02:00.942Z</time></trkpt><trkpt lat="45.5907667" lon="9.2050383"><ele>177.66666666666669</ele><time>2026-04-11T14:02:01.942Z</time></trkpt><trkpt lat="45.5908117" lon="9.2047933"><ele>177.33333333333334</ele><time>2026-04-11T14:02:02.942Z</time></trkpt><trkpt lat="45.5908567" lon="9.2045717"><ele>177.0</ele><time>2026-04-11T14:02:03.942Z</time></trkpt><trkpt lat="45.590895" lon="9.2043733"><ele>177.0</ele><time>2026-04-11T14:02:04.942Z</time></trkpt><trkpt lat="45.5909267" lon="9.2042033"><ele>177.0</ele><time>2026-04-11T14:02:05.942Z</time></trkpt><trkpt lat="45.5909533" lon="9.2040367"><ele>177.0</ele><time>2026-04-11T14:02:06.942Z</time></trkpt><trkpt lat="45.5909783" lon="9.2038667"><ele>177.0</ele><time>2026-04-11T14:02:07.942Z</time></trkpt><trkpt lat="45.5910117" lon="9.203665"><ele>177.66666666666666</ele><time>2026-04-11T14:02:08.942Z</time></trkpt><trkpt lat="45.591045" lon="9.2034283"><ele>178.33333333333331</ele><time>2026-04-11T14:02:09.942Z</time></trkpt><trkpt lat="45.5910983" lon="9.20317"><ele>179.0</ele><time>2026-04-11T14:02:10.942Z</time></trkpt><trkpt lat="45.59115" lon="9.2028883"><ele>179.33333333333331</ele><time>2026-04-11T14:02:11.942Z</time></trkpt><trkpt lat="45.5912017" lon="9.2026133"><ele>179.66666666666666</ele><time>2026-04-11T14:02:12.942Z</time></trkpt><trkpt lat="45.5912533" lon="9.2023583"><ele>180.0</ele><time>2026-04-11T14:02:13.942Z</time></trkpt><trkpt lat="45.591295" lon="9.2021217"><ele>180.0</ele><time>2026-04-11T14:02:14.942Z</time></trkpt><trkpt lat="45.5913383" lon="9.2018967"><ele>180.0</ele><time>2026-04-11T14:02:15.942Z</time></trkpt><trkpt lat="45.5913783" lon="9.2016767"><ele>180.0</ele><time>2026-04-11T14:02:16.942Z</time></trkpt><trkpt lat="45.59141" lon="9.201475"><ele>179.75</ele><time>2026-04-11T14:02:17.942Z</time></trkpt><trkpt lat="45.5914433" lon="9.2012783"><ele>179.5</ele><time>2026-04-11T14:02:18.941Z</time></trkpt><trkpt lat="45.591475" lon="9.201105"><ele>179.25</ele><time>2026-04-11T14:02:19.942Z</time></trkpt><trkpt lat="45.5915017" lon="9.2009267"><ele>179.0</ele><time>2026-04-11T14:02:20.942Z</time></trkpt><trkpt lat="45.591535" lon="9.2007667"><ele>178.5</ele><time>2026-04-11T14:02:21.942Z</time></trkpt><trkpt lat="45.591565" lon="9.2006117"><ele>178.0</ele><time>2026-04-11T14:02:22.942Z</time></trkpt><trkpt lat="45.5915967" lon="9.20046"><ele>177.5</ele><time>2026-04-11T14:02:23.942Z</time></trkpt><trkpt lat="45.5916217" lon="9.2003033"><ele>177.0</ele><time>2026-04-11T14:02:24.942Z</time></trkpt><trkpt lat="45.5916433" lon="9.2001333"><ele>177.0</ele><time>2026-04-11T14:02:25.942Z</time></trkpt><trkpt lat="45.5916617" lon="9.2000067"><ele>177.0</ele><time>2026-04-11T14:02:26.942Z</time></trkpt><trkpt lat="45.5916783" lon="9.1999167"><ele>177.0</ele><time>2026-04-11T14:02:27.942Z</time></trkpt><trkpt lat="45.59171" lon="9.1997967"><ele>177.0</ele><time>2026-04-11T14:03:13.941Z</time></trkpt><trkpt lat="45.5917267" lon="9.1996767"><ele>177.0</ele><time>2026-04-11T14:03:14.942Z</time></trkpt><trkpt lat="45.5917483" lon="9.1994817"><ele>177.66666666666666</ele><time>2026-04-11T14:03:15.942Z</time></trkpt><trkpt lat="45.5917883" lon="9.1992567"><ele>178.33333333333331</ele><time>2026-04-11T14:03:16.942Z</time></trkpt><trkpt lat="45.5918233" lon="9.1990417"><ele>179.0</ele><time>2026-04-11T14:03:17.942Z</time></trkpt><trkpt lat="45.59186" lon="9.19883"><ele>179.0</ele><time>2026-04-11T14:03:18.941Z</time></trkpt><trkpt lat="45.5918933" lon="9.1986467"><ele>179.0</ele><time>2026-04-11T14:03:19.942Z</time></trkpt><trkpt lat="45.5919283" lon="9.1984967"><ele>179.0</ele><time>2026-04-11T14:03:20.942Z</time></trkpt><trkpt lat="45.591955" lon="9.1983633"><ele>179.0</ele><time>2026-04-11T14:03:21.942Z</time></trkpt><trkpt lat="45.5919833" lon="9.19825"><ele>179.0</ele><time>2026-04-11T14:03:22.942Z</time></trkpt><trkpt lat="45.5920217" lon="9.198135"><ele>178.6</ele><time>2026-04-11T14:03:24.942Z</time></trkpt><trkpt lat="45.592055" lon="9.1980333"><ele>178.2</ele><time>2026-04-11T14:03:28.942Z</time></trkpt><trkpt lat="45.59209" lon="9.197935"><ele>177.79999999999998</ele><time>2026-04-11T14:03:30.942Z</time></trkpt><trkpt lat="45.5921183" lon="9.197835"><ele>177.39999999999998</ele><time>2026-04-11T14:03:32.942Z</time></trkpt><trkpt lat="45.5921183" lon="9.1976367"><ele>177.0</ele><time>2026-04-11T14:03:34.941Z</time></trkpt><trkpt lat="45.5921233" lon="9.1975017"><ele>177.0</ele><time>2026-04-11T14:03:35.942Z</time></trkpt><trkpt lat="45.5921467" lon="9.197325"><ele>177.0</ele><time>2026-04-11T14:03:36.942Z</time></trkpt><trkpt lat="45.592185" lon="9.1970983"><ele>177.0</ele><time>2026-04-11T14:03:37.942Z</time></trkpt><trkpt lat="45.59223" lon="9.1968383"><ele>177.0</ele><time>2026-04-11T14:03:38.942Z</time></trkpt><trkpt lat="45.5922783" lon="9.1965717"><ele>177.0</ele><time>2026-04-11T14:03:39.942Z</time></trkpt><trkpt lat="45.5923267" lon="9.1963133"><ele>177.0</ele><time>2026-04-11T14:03:40.942Z</time></trkpt><trkpt lat="45.592375" lon="9.1960583"><ele>177.33333333333334</ele><time>2026-04-11T14:03:41.942Z</time></trkpt><trkpt lat="45.592425" lon="9.19581"><ele>177.66666666666669</ele><time>2026-04-11T14:03:42.942Z</time></trkpt><trkpt lat="45.5924683" lon="9.1955583"><ele>178.0</ele><time>2026-04-11T14:03:43.942Z</time></trkpt><trkpt lat="45.5925133" lon="9.1953117"><ele>178.33333333333334</ele><time>2026-04-11T14:03:44.941Z</time></trkpt><trkpt lat="45.5925533" lon="9.1950633"><ele>178.66666666666666</ele><time>2026-04-11T14:03:45.942Z</time></trkpt><trkpt lat="45.5925967" lon="9.194825"><ele>179.0</ele><time>2026-04-11T14:03:46.941Z</time></trkpt><trkpt lat="45.5926467" lon="9.1945867"><ele>179.0</ele><time>2026-04-11T14:03:47.94Z</time></trkpt><trkpt lat="45.5926867" lon="9.1943367"><ele>179.0</ele><time>2026-04-11T14:03:48.94Z</time></trkpt><trkpt lat="45.5927233" lon="9.1940817"><ele>179.0</ele><time>2026-04-11T14:03:49.941Z</time></trkpt><trkpt lat="45.5927717" lon="9.193835"><ele>179.0</ele><time>2026-04-11T14:03:50.94Z</time></trkpt><trkpt lat="45.5928217" lon="9.1935767"><ele>179.0</ele><time>2026-04-11T14:03:51.94Z</time></trkpt><trkpt lat="45.5928633" lon="9.1933267"><ele>179.0</ele><time>2026-04-11T14:03:52.941Z</time></trkpt><trkpt lat="45.59291" lon="9.193075"><ele>179.0</ele><time>2026-04-11T14:03:53.941Z</time></trkpt><trkpt lat="45.5929533" lon="9.19285"><ele>179.0</ele><time>2026-04-11T14:03:54.941Z</time></trkpt><trkpt lat="45.5929933" lon="9.1926483"><ele>179.0</ele><time>2026-04-11T14:03:55.94Z</time></trkpt><trkpt lat="45.59303" lon="9.1924667"><ele>179.0</ele><time>2026-04-11T14:03:56.941Z</time></trkpt><trkpt lat="45.593065" lon="9.1923183"><ele>179.0</ele><time>2026-04-11T14:03:57.941Z</time></trkpt><trkpt lat="45.5931" lon="9.1921917"><ele>179.0</ele><time>2026-04-11T14:03:58.941Z</time></trkpt><trkpt lat="45.59314" lon="9.1920783"><ele>179.0</ele><time>2026-04-11T14:03:59.941Z</time></trkpt><trkpt lat="45.5931867" lon="9.1919967"><ele>179.0</ele><time>2026-04-11T14:04:00.941Z</time></trkpt><trkpt lat="45.59323" lon="9.19193"><ele>179.0</ele><time>2026-04-11T14:04:01.941Z</time></trkpt><trkpt lat="45.593295" lon="9.19179"><ele>179.0</ele><time>2026-04-11T14:04:03.941Z</time></trkpt><trkpt lat="45.5932767" lon="9.19159"><ele>178.5</ele><time>2026-04-11T14:04:05.941Z</time></trkpt><trkpt lat="45.5932483" lon="9.1914483"><ele>178.0</ele><time>2026-04-11T14:04:06.941Z</time></trkpt><trkpt lat="45.5932517" lon="9.1912983"><ele>177.5</ele><time>2026-04-11T14:04:07.941Z</time></trkpt><trkpt lat="45.5932817" lon="9.1911083"><ele>177.0</ele><time>2026-04-11T14:04:08.941Z</time></trkpt><trkpt lat="45.5933233" lon="9.1908867"><ele>177.0</ele><time>2026-04-11T14:04:09.941Z</time></trkpt><trkpt lat="45.593365" lon="9.1906567"><ele>177.0</ele><time>2026-04-11T14:04:10.94Z</time></trkpt><trkpt lat="45.5934" lon="9.1903933"><ele>177.0</ele><time>2026-04-11T14:04:11.94Z</time></trkpt><trkpt lat="45.5934483" lon="9.19012"><ele>177.66666666666666</ele><time>2026-04-11T14:04:12.941Z</time></trkpt><trkpt lat="45.5934917" lon="9.1898417"><ele>178.33333333333331</ele><time>2026-04-11T14:04:13.941Z</time></trkpt><trkpt lat="45.593535" lon="9.1895783"><ele>179.0</ele><time>2026-04-11T14:04:14.941Z</time></trkpt><trkpt lat="45.5935783" lon="9.1893383"><ele>179.0</ele><time>2026-04-11T14:04:15.941Z</time></trkpt><trkpt lat="45.5936283" lon="9.189105"><ele>179.0</ele><time>2026-04-11T14:04:16.941Z</time></trkpt><trkpt lat="45.5936617" lon="9.1888767"><ele>179.0</ele><time>2026-04-11T14:04:17.941Z</time></trkpt><trkpt lat="45.5936967" lon="9.18867"><ele>178.75</ele><time>2026-04-11T14:04:18.941Z</time></trkpt><trkpt lat="45.5937267" lon="9.1884717"><ele>178.5</ele><time>2026-04-11T14:04:19.94Z</time></trkpt><trkpt lat="45.5937567" lon="9.1882683"><ele>178.25</ele><time>2026-04-11T14:04:20.941Z</time></trkpt><trkpt lat="45.593795" lon="9.1880683"><ele>178.0</ele><time>2026-04-11T14:04:21.941Z</time></trkpt><trkpt lat="45.59383" lon="9.187865"><ele>178.0</ele><time>2026-04-11T14:04:22.941Z</time></trkpt><trkpt lat="45.593865" lon="9.18766"><ele>178.0</ele><time>2026-04-11T14:04:23.94Z</time></trkpt><trkpt lat="45.5939083" lon="9.1874583"><ele>178.0</ele><time>2026-04-11T14:04:24.941Z</time></trkpt><trkpt lat="45.59394" lon="9.1872767"><ele>178.0</ele><time>2026-04-11T14:04:25.941Z</time></trkpt><trkpt lat="45.59397" lon="9.1871"><ele>178.0</ele><time>2026-04-11T14:04:26.941Z</time></trkpt><trkpt lat="45.5940017" lon="9.1869267"><ele>178.0</ele><time>2026-04-11T14:04:27.941Z</time></trkpt><trkpt lat="45.5940233" lon="9.1867567"><ele>178.0</ele><time>2026-04-11T14:04:28.941Z</time></trkpt><trkpt lat="45.5940533" lon="9.18658"><ele>178.0</ele><time>2026-04-11T14:04:29.941Z</time></trkpt><trkpt lat="45.5940933" lon="9.1863883"><ele>177.75</ele><time>2026-04-11T14:04:30.941Z</time></trkpt><trkpt lat="45.5941267" lon="9.1862117"><ele>177.5</ele><time>2026-04-11T14:04:31.941Z</time></trkpt><trkpt lat="45.594155" lon="9.1860467"><ele>177.25</ele><time>2026-04-11T14:04:32.941Z</time></trkpt><trkpt lat="45.5941833" lon="9.1858917"><ele>177.0</ele><time>2026-04-11T14:04:33.941Z</time></trkpt><trkpt lat="45.59421" lon="9.18575"><ele>177.39999999999998</ele><time>2026-04-11T14:04:34.941Z</time></trkpt><trkpt lat="45.59424" lon="9.18561"><ele>177.79999999999998</ele><time>2026-04-11T14:04:35.941Z</time></trkpt><trkpt lat="45.5942683" lon="9.1854717"><ele>178.2</ele><time>2026-04-11T14:04:36.941Z</time></trkpt><trkpt lat="45.5943" lon="9.1853317"><ele>178.6</ele><time>2026-04-11T14:04:37.941Z</time></trkpt><trkpt lat="45.594335" lon="9.185215"><ele>179.0</ele><time>2026-04-11T14:04:38.941Z</time></trkpt><trkpt lat="45.5943767" lon="9.1851133"><ele>179.0</ele><time>2026-04-11T14:04:39.941Z</time></trkpt><trkpt lat="45.5944183" lon="9.185025"><ele>179.0</ele><time>2026-04-11T14:04:40.941Z</time></trkpt><trkpt lat="45.594475" lon="9.1849417"><ele>179.0</ele><time>2026-04-11T14:04:41.941Z</time></trkpt><trkpt lat="45.5945383" lon="9.1848617"><ele>179.0</ele><time>2026-04-11T14:04:42.941Z</time></trkpt><trkpt lat="45.5946067" lon="9.1847667"><ele>179.0</ele><time>2026-04-11T14:04:43.941Z</time></trkpt><trkpt lat="45.5946617" lon="9.1846617"><ele>179.0</ele><time>2026-04-11T14:04:44.941Z</time></trkpt><trkpt lat="45.59469" lon="9.18454"><ele>179.0</ele><time>2026-04-11T14:04:45.941Z</time></trkpt><trkpt lat="45.5946967" lon="9.184415"><ele>179.0</ele><time>2026-04-11T14:04:46.941Z</time></trkpt><trkpt lat="45.594675" lon="9.1842883"><ele>179.0</ele><time>2026-04-11T14:04:47.941Z</time></trkpt><trkpt lat="45.59464" lon="9.1841383"><ele>179.0</ele><time>2026-04-11T14:04:48.941Z</time></trkpt><trkpt lat="45.5946033" lon="9.18398"><ele>179.0</ele><time>2026-04-11T14:04:49.941Z</time></trkpt><trkpt lat="45.5945917" lon="9.1838167"><ele>179.0</ele><time>2026-04-11T14:04:50.941Z</time></trkpt><trkpt lat="45.5946033" lon="9.1836467"><ele>179.0</ele><time>2026-04-11T14:04:51.94Z</time></trkpt><trkpt lat="45.5946283" lon="9.1834733"><ele>179.0</ele><time>2026-04-11T14:04:52.941Z</time></trkpt><trkpt lat="45.5946617" lon="9.1833017"><ele>179.0</ele><time>2026-04-11T14:04:53.94Z</time></trkpt><trkpt lat="45.594695" lon="9.1831333"><ele>179.6</ele><time>2026-04-11T14:04:54.941Z</time></trkpt><trkpt lat="45.5947233" lon="9.182975"><ele>180.2</ele><time>2026-04-11T14:04:55.941Z</time></trkpt><trkpt lat="45.5947467" lon="9.1828267"><ele>180.79999999999998</ele><time>2026-04-11T14:04:56.941Z</time></trkpt><trkpt lat="45.5947667" lon="9.18269"><ele>181.39999999999998</ele><time>2026-04-11T14:04:57.941Z</time></trkpt><trkpt lat="45.59479" lon="9.1825617"><ele>182.0</ele><time>2026-04-11T14:04:58.941Z</time></trkpt><trkpt lat="45.5948183" lon="9.18242"><ele>181.5</ele><time>2026-04-11T14:04:59.941Z</time></trkpt><trkpt lat="45.59485" lon="9.1822583"><ele>181.0</ele><time>2026-04-11T14:05:00.941Z</time></trkpt><trkpt lat="45.5948817" lon="9.1821017"><ele>180.5</ele><time>2026-04-11T14:05:01.941Z</time></trkpt><trkpt lat="45.5949083" lon="9.181935"><ele>180.0</ele><time>2026-04-11T14:05:02.941Z</time></trkpt><trkpt lat="45.5949417" lon="9.1817517"><ele>180.0</ele><time>2026-04-11T14:05:03.941Z</time></trkpt><trkpt lat="45.5949733" lon="9.1815617"><ele>180.0</ele><time>2026-04-11T14:05:04.941Z</time></trkpt><trkpt lat="45.5950033" lon="9.18136"><ele>180.0</ele><time>2026-04-11T14:05:05.941Z</time></trkpt><trkpt lat="45.5950383" lon="9.1811483"><ele>180.0</ele><time>2026-04-11T14:05:06.941Z</time></trkpt><trkpt lat="45.595075" lon="9.1809467"><ele>180.0</ele><time>2026-04-11T14:05:07.941Z</time></trkpt><trkpt lat="45.5951083" lon="9.1807533"><ele>180.0</ele><time>2026-04-11T14:05:08.941Z</time></trkpt><trkpt lat="45.595145" lon="9.1805617"><ele>180.0</ele><time>2026-04-11T14:05:09.94Z</time></trkpt><trkpt lat="45.5951783" lon="9.1803767"><ele>180.0</ele><time>2026-04-11T14:05:10.941Z</time></trkpt><trkpt lat="45.5952067" lon="9.18018"><ele>180.0</ele><time>2026-04-11T14:05:11.941Z</time></trkpt><trkpt lat="45.5952483" lon="9.179975"><ele>180.0</ele><time>2026-04-11T14:05:12.941Z</time></trkpt><trkpt lat="45.5952767" lon="9.1797717"><ele>180.0</ele><time>2026-04-11T14:05:13.941Z</time></trkpt><trkpt lat="45.595315" lon="9.17956"><ele>180.0</ele><time>2026-04-11T14:05:14.941Z</time></trkpt><trkpt lat="45.5953567" lon="9.179355"><ele>180.66666666666666</ele><time>2026-04-11T14:05:15.941Z</time></trkpt><trkpt lat="45.595395" lon="9.179145"><ele>181.33333333333331</ele><time>2026-04-11T14:05:16.941Z</time></trkpt><trkpt lat="45.59543" lon="9.1789333"><ele>182.0</ele><time>2026-04-11T14:05:17.94Z</time></trkpt><trkpt lat="45.595465" lon="9.178725"><ele>182.0</ele><time>2026-04-11T14:05:18.941Z</time></trkpt><trkpt lat="45.5955067" lon="9.1784983"><ele>182.0</ele><time>2026-04-11T14:05:19.941Z</time></trkpt><trkpt lat="45.5955467" lon="9.1782667"><ele>182.0</ele><time>2026-04-11T14:05:20.94Z</time></trkpt><trkpt lat="45.5955883" lon="9.1780583"><ele>182.0</ele><time>2026-04-11T14:05:21.941Z</time></trkpt><trkpt lat="45.595625" lon="9.177855"><ele>182.0</ele><time>2026-04-11T14:05:22.941Z</time></trkpt><trkpt lat="45.5956617" lon="9.177655"><ele>182.0</ele><time>2026-04-11T14:05:23.941Z</time></trkpt><trkpt lat="45.5956983" lon="9.1774617"><ele>182.0</ele><time>2026-04-11T14:05:24.941Z</time></trkpt><trkpt lat="45.5957433" lon="9.177275"><ele>182.0</ele><time>2026-04-11T14:05:25.941Z</time></trkpt><trkpt lat="45.5957933" lon="9.1770783"><ele>182.0</ele><time>2026-04-11T14:05:26.941Z</time></trkpt><trkpt lat="45.5958367" lon="9.17688"><ele>182.0</ele><time>2026-04-11T14:05:27.941Z</time></trkpt><trkpt lat="45.595875" lon="9.1766817"><ele>182.0</ele><time>2026-04-11T14:05:28.941Z</time></trkpt><trkpt lat="45.59592" lon="9.1764917"><ele>182.0</ele><time>2026-04-11T14:05:29.941Z</time></trkpt><trkpt lat="45.5959583" lon="9.1763233"><ele>182.0</ele><time>2026-04-11T14:05:30.941Z</time></trkpt><trkpt lat="45.595985" lon="9.1761817"><ele>182.0</ele><time>2026-04-11T14:05:31.94Z</time></trkpt><trkpt lat="45.59601" lon="9.1760567"><ele>182.0</ele><time>2026-04-11T14:05:32.94Z</time></trkpt><trkpt lat="45.5960283" lon="9.17595"><ele>182.0</ele><time>2026-04-11T14:05:33.941Z</time></trkpt><trkpt lat="45.59605" lon="9.1758483"><ele>182.0</ele><time>2026-04-11T14:05:34.941Z</time></trkpt><trkpt lat="45.5960817" lon="9.1757583"><ele>182.0</ele><time>2026-04-11T14:05:35.941Z</time></trkpt><trkpt lat="45.59613" lon="9.1756517"><ele>182.0</ele><time>2026-04-11T14:05:37.941Z</time></trkpt><trkpt lat="45.596185" lon="9.17558"><ele>182.0</ele><time>2026-04-11T14:05:40.941Z</time></trkpt><trkpt lat="45.59628" lon="9.1754317"><ele>182.0</ele><time>2026-04-11T14:05:42.94Z</time></trkpt><trkpt lat="45.5963183" lon="9.1753067"><ele>182.0</ele><time>2026-04-11T14:05:43.941Z</time></trkpt><trkpt lat="45.59633" lon="9.1751667"><ele>182.0</ele><time>2026-04-11T14:05:44.941Z</time></trkpt><trkpt lat="45.596315" lon="9.1750183"><ele>182.0</ele><time>2026-04-11T14:05:45.941Z</time></trkpt><trkpt lat="45.5962867" lon="9.1748483"><ele>182.0</ele><time>2026-04-11T14:05:46.941Z</time></trkpt><trkpt lat="45.5962717" lon="9.174665"><ele>181.5</ele><time>2026-04-11T14:05:47.94Z</time></trkpt><trkpt lat="45.596285" lon="9.1744717"><ele>181.0</ele><time>2026-04-11T14:05:48.941Z</time></trkpt><trkpt lat="45.59631" lon="9.1742733"><ele>180.5</ele><time>2026-04-11T14:05:49.941Z</time></trkpt><trkpt lat="45.59633" lon="9.1740733"><ele>180.0</ele><time>2026-04-11T14:05:50.94Z</time></trkpt><trkpt lat="45.5963583" lon="9.1738767"><ele>179.75</ele><time>2026-04-11T14:05:51.941Z</time></trkpt><trkpt lat="45.5963783" lon="9.1736917"><ele>179.5</ele><time>2026-04-11T14:05:52.941Z</time></trkpt><trkpt lat="45.5964083" lon="9.173515"><ele>179.25</ele><time>2026-04-11T14:05:53.941Z</time></trkpt><trkpt lat="45.5964433" lon="9.17332"><ele>179.0</ele><time>2026-04-11T14:05:54.941Z</time></trkpt><trkpt lat="45.5964817" lon="9.1731183"><ele>178.75</ele><time>2026-04-11T14:05:55.941Z</time></trkpt><trkpt lat="45.59652" lon="9.1729117"><ele>178.5</ele><time>2026-04-11T14:05:56.941Z</time></trkpt><trkpt lat="45.5965617" lon="9.172705"><ele>178.25</ele><time>2026-04-11T14:05:57.941Z</time></trkpt><trkpt lat="45.5965983" lon="9.1724983"><ele>178.0</ele><time>2026-04-11T14:05:58.941Z</time></trkpt><trkpt lat="45.5966383" lon="9.172295"><ele>177.75</ele><time>2026-04-11T14:05:59.941Z</time></trkpt><trkpt lat="45.596675" lon="9.1720983"><ele>177.5</ele><time>2026-04-11T14:06:00.94Z</time></trkpt><trkpt lat="45.5967083" lon="9.1719"><ele>177.25</ele><time>2026-04-11T14:06:01.941Z</time></trkpt><trkpt lat="45.596745" lon="9.1717083"><ele>177.0</ele><time>2026-04-11T14:06:02.941Z</time></trkpt><trkpt lat="45.59678" lon="9.1715033"><ele>178.0</ele><time>2026-04-11T14:06:03.94Z</time></trkpt><trkpt lat="45.5968083" lon="9.1712967"><ele>179.0</ele><time>2026-04-11T14:06:04.941Z</time></trkpt><trkpt lat="45.59685" lon="9.1710783"><ele>180.0</ele><time>2026-04-11T14:06:05.941Z</time></trkpt><trkpt lat="45.5969017" lon="9.1708633"><ele>180.0</ele><time>2026-04-11T14:06:06.941Z</time></trkpt><trkpt lat="45.5969567" lon="9.1706683"><ele>180.0</ele><time>2026-04-11T14:06:07.941Z</time></trkpt><trkpt lat="45.597015" lon="9.1704883"><ele>180.0</ele><time>2026-04-11T14:06:08.94Z</time></trkpt><trkpt lat="45.59708" lon="9.1703317"><ele>180.0</ele><time>2026-04-11T14:06:09.941Z</time></trkpt><trkpt lat="45.597135" lon="9.170215"><ele>180.0</ele><time>2026-04-11T14:06:10.941Z</time></trkpt><trkpt lat="45.5971883" lon="9.1701433"><ele>180.0</ele><time>2026-04-11T14:06:11.941Z</time></trkpt><trkpt lat="45.59725" lon="9.1700967"><ele>180.0</ele><time>2026-04-11T14:06:12.941Z</time></trkpt><trkpt lat="45.5973133" lon="9.170065"><ele>180.0</ele><time>2026-04-11T14:06:13.941Z</time></trkpt><trkpt lat="45.59738" lon="9.1700317"><ele>180.0</ele><time>2026-04-11T14:06:14.941Z</time></trkpt><trkpt lat="45.597455" lon="9.169975"><ele>180.0</ele><time>2026-04-11T14:06:15.941Z</time></trkpt><trkpt lat="45.5975133" lon="9.1699"><ele>180.0</ele><time>2026-04-11T14:06:16.941Z</time></trkpt><trkpt lat="45.5975567" lon="9.169815"><ele>180.2</ele><time>2026-04-11T14:06:17.94Z</time></trkpt><trkpt lat="45.597585" lon="9.1697033"><ele>180.4</ele><time>2026-04-11T14:06:18.941Z</time></trkpt><trkpt lat="45.5976133" lon="9.1695633"><ele>180.60000000000002</ele><time>2026-04-11T14:06:19.94Z</time></trkpt><trkpt lat="45.5976533" lon="9.1694017"><ele>180.8</ele><time>2026-04-11T14:06:20.941Z</time></trkpt><trkpt lat="45.5977133" lon="9.16924"><ele>181.0</ele><time>2026-04-11T14:06:21.941Z</time></trkpt><trkpt lat="45.5978067" lon="9.16907"><ele>181.33333333333334</ele><time>2026-04-11T14:06:22.941Z</time></trkpt><trkpt lat="45.5979167" lon="9.1689017"><ele>181.66666666666666</ele><time>2026-04-11T14:06:23.941Z</time></trkpt><trkpt lat="45.5980383" lon="9.1687217"><ele>182.0</ele><time>2026-04-11T14:06:24.941Z</time></trkpt><trkpt lat="45.5981633" lon="9.168545"><ele>182.0</ele><time>2026-04-11T14:06:25.941Z</time></trkpt><trkpt lat="45.59828" lon="9.1683667"><ele>182.0</ele><time>2026-04-11T14:06:26.941Z</time></trkpt><trkpt lat="45.5983867" lon="9.1682033"><ele>182.0</ele><time>2026-04-11T14:06:27.94Z</time></trkpt><trkpt lat="45.598485" lon="9.1680567"><ele>182.25</ele><time>2026-04-11T14:06:28.941Z</time></trkpt><trkpt lat="45.598575" lon="9.167915"><ele>182.5</ele><time>2026-04-11T14:06:29.941Z</time></trkpt><trkpt lat="45.5986517" lon="9.167785"><ele>182.75</ele><time>2026-04-11T14:06:30.94Z</time></trkpt><trkpt lat="45.5987233" lon="9.1676583"><ele>183.0</ele><time>2026-04-11T14:06:31.941Z</time></trkpt><trkpt lat="45.5987983" lon="9.1675517"><ele>182.60000000000002</ele><time>2026-04-11T14:06:32.94Z</time></trkpt><trkpt lat="45.598865" lon="9.1674567"><ele>182.20000000000002</ele><time>2026-04-11T14:06:33.941Z</time></trkpt><trkpt lat="45.59891" lon="9.1673817"><ele>181.8</ele><time>2026-04-11T14:06:34.94Z</time></trkpt><trkpt lat="45.5989633" lon="9.1673183"><ele>181.4</ele><time>2026-04-11T14:06:36.941Z</time></trkpt><trkpt lat="45.5990817" lon="9.1672933"><ele>181.0</ele><time>2026-04-11T14:06:40.941Z</time></trkpt><trkpt lat="45.5991983" lon="9.1673033"><ele>180.8</ele><time>2026-04-11T14:06:42.941Z</time></trkpt><trkpt lat="45.5993" lon="9.167275"><ele>180.60000000000002</ele><time>2026-04-11T14:06:44.941Z</time></trkpt><trkpt lat="45.5993633" lon="9.1671683"><ele>180.4</ele><time>2026-04-11T14:06:46.941Z</time></trkpt><trkpt lat="45.5993967" lon="9.1669867"><ele>180.2</ele><time>2026-04-11T14:06:48.941Z</time></trkpt><trkpt lat="45.5994233" lon="9.1668783"><ele>180.0</ele><time>2026-04-11T14:06:49.941Z</time></trkpt><trkpt lat="45.5994667" lon="9.1667617"><ele>180.4</ele><time>2026-04-11T14:06:50.941Z</time></trkpt><trkpt lat="45.5995233" lon="9.1666383"><ele>180.8</ele><time>2026-04-11T14:06:51.94Z</time></trkpt><trkpt lat="45.599595" lon="9.1665167"><ele>181.2</ele><time>2026-04-11T14:06:52.941Z</time></trkpt><trkpt lat="45.5996767" lon="9.166395"><ele>181.6</ele><time>2026-04-11T14:06:53.941Z</time></trkpt><trkpt lat="45.599755" lon="9.1662783"><ele>182.0</ele><time>2026-04-11T14:06:54.941Z</time></trkpt><trkpt lat="45.5998333" lon="9.1661617"><ele>182.0</ele><time>2026-04-11T14:06:55.941Z</time></trkpt><trkpt lat="45.59991" lon="9.1660533"><ele>182.0</ele><time>2026-04-11T14:06:56.941Z</time></trkpt><trkpt lat="45.59999" lon="9.1659433"><ele>182.0</ele><time>2026-04-11T14:06:57.941Z</time></trkpt><trkpt lat="45.6000733" lon="9.165825"><ele>182.0</ele><time>2026-04-11T14:06:58.941Z</time></trkpt><trkpt lat="45.6001617" lon="9.1656983"><ele>182.5</ele><time>2026-04-11T14:06:59.941Z</time></trkpt><trkpt lat="45.60025" lon="9.1655767"><ele>183.0</ele><time>2026-04-11T14:07:00.941Z</time></trkpt><trkpt lat="45.60035" lon="9.1654433"><ele>183.5</ele><time>2026-04-11T14:07:01.941Z</time></trkpt><trkpt lat="45.6004417" lon="9.1653117"><ele>184.0</ele><time>2026-04-11T14:07:02.941Z</time></trkpt><trkpt lat="45.6005267" lon="9.1651833"><ele>184.0</ele><time>2026-04-11T14:07:03.941Z</time></trkpt><trkpt lat="45.6006117" lon="9.1650717"><ele>184.0</ele><time>2026-04-11T14:07:04.941Z</time></trkpt><trkpt lat="45.6006883" lon="9.16497"><ele>184.0</ele><time>2026-04-11T14:07:05.941Z</time></trkpt><trkpt lat="45.6007517" lon="9.16487"><ele>184.0</ele><time>2026-04-11T14:07:06.941Z</time></trkpt><trkpt lat="45.600815" lon="9.1647867"><ele>184.0</ele><time>2026-04-11T14:07:07.94Z</time></trkpt><trkpt lat="45.6008717" lon="9.16471"><ele>184.0</ele><time>2026-04-11T14:07:08.94Z</time></trkpt><trkpt lat="45.6009317" lon="9.16463"><ele>184.0</ele><time>2026-04-11T14:07:09.94Z</time></trkpt><trkpt lat="45.6009917" lon="9.164555"><ele>184.0</ele><time>2026-04-11T14:07:10.94Z</time></trkpt><trkpt lat="45.601055" lon="9.16449"><ele>184.0</ele><time>2026-04-11T14:07:11.94Z</time></trkpt><trkpt lat="45.6011133" lon="9.16444"><ele>184.0</ele><time>2026-04-11T14:07:12.94Z</time></trkpt><trkpt lat="45.601195" lon="9.1643833"><ele>184.0</ele><time>2026-04-11T14:07:14.939Z</time></trkpt><trkpt lat="45.60128" lon="9.1643433"><ele>184.0</ele><time>2026-04-11T14:07:17.94Z</time></trkpt><trkpt lat="45.60141" lon="9.1642767"><ele>184.0</ele><time>2026-04-11T14:07:19.94Z</time></trkpt><trkpt lat="45.6014817" lon="9.1642267"><ele>184.0</ele><time>2026-04-11T14:07:20.94Z</time></trkpt><trkpt lat="45.60154" lon="9.1641583"><ele>184.0</ele><time>2026-04-11T14:07:21.94Z</time></trkpt><trkpt lat="45.6015817" lon="9.1640683"><ele>184.0</ele><time>2026-04-11T14:07:22.94Z</time></trkpt><trkpt lat="45.6016117" lon="9.1639617"><ele>184.0</ele><time>2026-04-11T14:07:23.939Z</time></trkpt><trkpt lat="45.601635" lon="9.1638417"><ele>184.2</ele><time>2026-04-11T14:07:24.94Z</time></trkpt><trkpt lat="45.60167" lon="9.1637233"><ele>184.39999999999998</ele><time>2026-04-11T14:07:25.94Z</time></trkpt><trkpt lat="45.6017183" lon="9.1636"><ele>184.6</ele><time>2026-04-11T14:07:26.94Z</time></trkpt><trkpt lat="45.6017733" lon="9.163475"><ele>184.8</ele><time>2026-04-11T14:07:27.94Z</time></trkpt><trkpt lat="45.6018333" lon="9.1633533"><ele>185.0</ele><time>2026-04-11T14:07:28.94Z</time></trkpt><trkpt lat="45.6019133" lon="9.163235"><ele>185.0</ele><time>2026-04-11T14:07:29.94Z</time></trkpt><trkpt lat="45.6019983" lon="9.1631117"><ele>185.0</ele><time>2026-04-11T14:07:30.94Z</time></trkpt><trkpt lat="45.6020817" lon="9.162995"><ele>185.0</ele><time>2026-04-11T14:07:31.94Z</time></trkpt><trkpt lat="45.6021667" lon="9.1628783"><ele>185.0</ele><time>2026-04-11T14:07:32.94Z</time></trkpt><trkpt lat="45.6022483" lon="9.1627633"><ele>185.0</ele><time>2026-04-11T14:07:33.94Z</time></trkpt><trkpt lat="45.6023283" lon="9.1626483"><ele>185.0</ele><time>2026-04-11T14:07:34.94Z</time></trkpt><trkpt lat="45.6024117" lon="9.16254"><ele>185.0</ele><time>2026-04-11T14:07:35.94Z</time></trkpt><trkpt lat="45.6024883" lon="9.162425"><ele>185.0</ele><time>2026-04-11T14:07:36.94Z</time></trkpt><trkpt lat="45.602565" lon="9.1623217"><ele>185.0</ele><time>2026-04-11T14:07:37.94Z</time></trkpt><trkpt lat="45.6026433" lon="9.1622233"><ele>185.0</ele><time>2026-04-11T14:07:38.94Z</time></trkpt><trkpt lat="45.6027217" lon="9.1621167"><ele>185.0</ele><time>2026-04-11T14:07:39.939Z</time></trkpt><trkpt lat="45.6028" lon="9.16201"><ele>185.0</ele><time>2026-04-11T14:07:40.94Z</time></trkpt><trkpt lat="45.6028817" lon="9.161895"><ele>185.0</ele><time>2026-04-11T14:07:41.94Z</time></trkpt><trkpt lat="45.6029533" lon="9.1617867"><ele>185.0</ele><time>2026-04-11T14:07:42.94Z</time></trkpt><trkpt lat="45.6030283" lon="9.16168"><ele>184.25</ele><time>2026-04-11T14:07:43.94Z</time></trkpt><trkpt lat="45.6031033" lon="9.161565"><ele>183.5</ele><time>2026-04-11T14:07:44.94Z</time></trkpt><trkpt lat="45.60318" lon="9.1614533"><ele>182.75</ele><time>2026-04-11T14:07:45.94Z</time></trkpt><trkpt lat="45.6032633" lon="9.1613333"><ele>182.0</ele><time>2026-04-11T14:07:46.94Z</time></trkpt><trkpt lat="45.603345" lon="9.1612117"><ele>182.0</ele><time>2026-04-11T14:07:47.94Z</time></trkpt><trkpt lat="45.6034267" lon="9.1610783"><ele>182.0</ele><time>2026-04-11T14:07:48.94Z</time></trkpt><trkpt lat="45.6035067" lon="9.160945"><ele>182.0</ele><time>2026-04-11T14:07:49.94Z</time></trkpt><trkpt lat="45.6035833" lon="9.1608017"><ele>182.0</ele><time>2026-04-11T14:07:50.94Z</time></trkpt><trkpt lat="45.60365" lon="9.16065"><ele>182.5</ele><time>2026-04-11T14:07:51.94Z</time></trkpt><trkpt lat="45.6037133" lon="9.1604933"><ele>183.0</ele><time>2026-04-11T14:07:52.94Z</time></trkpt><trkpt lat="45.60378" lon="9.160335"><ele>183.5</ele><time>2026-04-11T14:07:53.94Z</time></trkpt><trkpt lat="45.603835" lon="9.160175"><ele>184.0</ele><time>2026-04-11T14:07:54.94Z</time></trkpt><trkpt lat="45.6038867" lon="9.1600217"><ele>184.0</ele><time>2026-04-11T14:07:55.94Z</time></trkpt><trkpt lat="45.6039267" lon="9.159885"><ele>184.0</ele><time>2026-04-11T14:07:56.94Z</time></trkpt><trkpt lat="45.6039567" lon="9.1597517"><ele>184.0</ele><time>2026-04-11T14:07:57.94Z</time></trkpt><trkpt lat="45.6039833" lon="9.15961"><ele>184.0</ele><time>2026-04-11T14:07:58.94Z</time></trkpt><trkpt lat="45.6040133" lon="9.1594567"><ele>184.0</ele><time>2026-04-11T14:07:59.94Z</time></trkpt><trkpt lat="45.604035" lon="9.159295"><ele>184.2</ele><time>2026-04-11T14:08:00.94Z</time></trkpt><trkpt lat="45.6040617" lon="9.1591433"><ele>184.39999999999998</ele><time>2026-04-11T14:08:01.939Z</time></trkpt><trkpt lat="45.6040733" lon="9.15899"><ele>184.6</ele><time>2026-04-11T14:08:02.94Z</time></trkpt><trkpt lat="45.604085" lon="9.1588533"><ele>184.8</ele><time>2026-04-11T14:08:03.94Z</time></trkpt><trkpt lat="45.60409" lon="9.15871"><ele>185.0</ele><time>2026-04-11T14:08:04.94Z</time></trkpt><trkpt lat="45.60409" lon="9.158565"><ele>185.0</ele><time>2026-04-11T14:08:05.94Z</time></trkpt><trkpt lat="45.6040917" lon="9.1584233"><ele>185.0</ele><time>2026-04-11T14:08:06.94Z</time></trkpt><trkpt lat="45.6040883" lon="9.1582883"><ele>185.0</ele><time>2026-04-11T14:08:07.939Z</time></trkpt><trkpt lat="45.6040783" lon="9.1581383"><ele>185.0</ele><time>2026-04-11T14:08:08.94Z</time></trkpt><trkpt lat="45.6040817" lon="9.1579883"><ele>185.0</ele><time>2026-04-11T14:08:09.94Z</time></trkpt><trkpt lat="45.60408" lon="9.157855"><ele>185.0</ele><time>2026-04-11T14:08:10.94Z</time></trkpt><trkpt lat="45.6040833" lon="9.1577183"><ele>185.0</ele><time>2026-04-11T14:08:11.94Z</time></trkpt><trkpt lat="45.604085" lon="9.1575817"><ele>185.0</ele><time>2026-04-11T14:08:12.94Z</time></trkpt><trkpt lat="45.6040833" lon="9.1574517"><ele>185.0</ele><time>2026-04-11T14:08:13.94Z</time></trkpt><trkpt lat="45.6040833" lon="9.1573367"><ele>185.0</ele><time>2026-04-11T14:08:14.94Z</time></trkpt><trkpt lat="45.6040867" lon="9.1572133"><ele>185.0</ele><time>2026-04-11T14:08:15.94Z</time></trkpt><trkpt lat="45.6040917" lon="9.1570867"><ele>185.0</ele><time>2026-04-11T14:08:16.94Z</time></trkpt><trkpt lat="45.6040917" lon="9.15696"><ele>185.0</ele><time>2026-04-11T14:08:17.94Z</time></trkpt><trkpt lat="45.6040933" lon="9.1568317"><ele>185.0</ele><time>2026-04-11T14:08:18.94Z</time></trkpt><trkpt lat="45.604095" lon="9.1567017"><ele>185.0</ele><time>2026-04-11T14:08:19.94Z</time></trkpt><trkpt lat="45.6040933" lon="9.15659"><ele>185.0</ele><time>2026-04-11T14:08:20.94Z</time></trkpt><trkpt lat="45.60409" lon="9.1564767"><ele>185.0</ele><time>2026-04-11T14:08:21.94Z</time></trkpt><trkpt lat="45.6040867" lon="9.1563683"><ele>185.0</ele><time>2026-04-11T14:08:22.94Z</time></trkpt><trkpt lat="45.6040867" lon="9.15626"><ele>185.0</ele><time>2026-04-11T14:08:23.94Z</time></trkpt><trkpt lat="45.60409" lon="9.15616"><ele>185.0</ele><time>2026-04-11T14:08:24.94Z</time></trkpt><trkpt lat="45.604115" lon="9.1560067"><ele>185.0</ele><time>2026-04-11T14:08:26.939Z</time></trkpt><trkpt lat="45.6041517" lon="9.1558933"><ele>185.0</ele><time>2026-04-11T14:08:39.94Z</time></trkpt><trkpt lat="45.6041967" lon="9.1558133"><ele>185.0</ele><time>2026-04-11T14:08:41.94Z</time></trkpt><trkpt lat="45.604225" lon="9.155695"><ele>185.0</ele><time>2026-04-11T14:08:43.939Z</time></trkpt><trkpt lat="45.6042033" lon="9.155555"><ele>185.0</ele><time>2026-04-11T14:08:45.94Z</time></trkpt><trkpt lat="45.60416" lon="9.155415"><ele>185.0</ele><time>2026-04-11T14:08:47.94Z</time></trkpt><trkpt lat="45.6041167" lon="9.1552983"><ele>185.0</ele><time>2026-04-11T14:08:49.94Z</time></trkpt><trkpt lat="45.6041" lon="9.155205"><ele>185.0</ele><time>2026-04-11T14:08:51.94Z</time></trkpt><trkpt lat="45.60409" lon="9.1551"><ele>185.0</ele><time>2026-04-11T14:08:53.94Z</time></trkpt><trkpt lat="45.6040933" lon="9.1549917"><ele>185.0</ele><time>2026-04-11T14:08:55.94Z</time></trkpt><trkpt lat="45.604095" lon="9.1548867"><ele>185.0</ele><time>2026-04-11T14:08:57.94Z</time></trkpt><trkpt lat="45.6040833" lon="9.1547283"><ele>185.0</ele><time>2026-04-11T14:09:06.94Z</time></trkpt><trkpt lat="45.6040767" lon="9.15457"><ele>185.0</ele><time>2026-04-11T14:09:08.94Z</time></trkpt><trkpt lat="45.604075" lon="9.1544733"><ele>185.0</ele><time>2026-04-11T14:09:09.94Z</time></trkpt><trkpt lat="45.6040733" lon="9.1543117"><ele>185.2</ele><time>2026-04-11T14:09:11.94Z</time></trkpt><trkpt lat="45.6040783" lon="9.154215"><ele>185.4</ele><time>2026-04-11T14:09:12.94Z</time></trkpt><trkpt lat="45.60408" lon="9.1541017"><ele>185.60000000000002</ele><time>2026-04-11T14:09:13.94Z</time></trkpt><trkpt lat="45.60408" lon="9.15396"><ele>185.8</ele><time>2026-04-11T14:09:14.94Z</time></trkpt><trkpt lat="45.604075" lon="9.15378"><ele>186.0</ele><time>2026-04-11T14:09:15.94Z</time></trkpt><trkpt lat="45.6040767" lon="9.1535683"><ele>186.0</ele><time>2026-04-11T14:09:16.94Z</time></trkpt><trkpt lat="45.6040817" lon="9.153345"><ele>186.0</ele><time>2026-04-11T14:09:17.94Z</time></trkpt><trkpt lat="45.6040917" lon="9.1530883"><ele>186.0</ele><time>2026-04-11T14:09:18.94Z</time></trkpt><trkpt lat="45.6041" lon="9.152825"><ele>185.66666666666666</ele><time>2026-04-11T14:09:19.94Z</time></trkpt><trkpt lat="45.6041" lon="9.152565"><ele>185.33333333333331</ele><time>2026-04-11T14:09:20.94Z</time></trkpt><trkpt lat="45.6041" lon="9.1523367"><ele>185.0</ele><time>2026-04-11T14:09:21.94Z</time></trkpt><trkpt lat="45.604105" lon="9.1521167"><ele>185.0</ele><time>2026-04-11T14:09:22.94Z</time></trkpt><trkpt lat="45.6041033" lon="9.1519133"><ele>185.0</ele><time>2026-04-11T14:09:23.94Z</time></trkpt><trkpt lat="45.6041033" lon="9.1517"><ele>185.0</ele><time>2026-04-11T14:09:24.94Z</time></trkpt><trkpt lat="45.6041067" lon="9.15147"><ele>185.0</ele><time>2026-04-11T14:09:25.94Z</time></trkpt><trkpt lat="45.604105" lon="9.1512317"><ele>185.0</ele><time>2026-04-11T14:09:26.94Z</time></trkpt><trkpt lat="45.6040983" lon="9.15096"><ele>185.0</ele><time>2026-04-11T14:09:27.94Z</time></trkpt><trkpt lat="45.6040967" lon="9.1506733"><ele>185.0</ele><time>2026-04-11T14:09:28.94Z</time></trkpt><trkpt lat="45.6041067" lon="9.1503883"><ele>185.0</ele><time>2026-04-11T14:09:29.94Z</time></trkpt><trkpt lat="45.6041283" lon="9.1501233"><ele>185.0</ele><time>2026-04-11T14:09:30.94Z</time></trkpt><trkpt lat="45.6041317" lon="9.1498717"><ele>185.0</ele><time>2026-04-11T14:09:31.939Z</time></trkpt><trkpt lat="45.6041267" lon="9.149635"><ele>185.0</ele><time>2026-04-11T14:09:32.94Z</time></trkpt><trkpt lat="45.6041283" lon="9.149405"><ele>185.0</ele><time>2026-04-11T14:09:33.94Z</time></trkpt><trkpt lat="45.6041267" lon="9.14917"><ele>185.0</ele><time>2026-04-11T14:09:34.94Z</time></trkpt><trkpt lat="45.6041267" lon="9.14892"><ele>185.0</ele><time>2026-04-11T14:09:35.94Z</time></trkpt><trkpt lat="45.6041267" lon="9.1486517"><ele>185.0</ele><time>2026-04-11T14:09:36.94Z</time></trkpt><trkpt lat="45.6041367" lon="9.14837"><ele>185.0</ele><time>2026-04-11T14:09:37.94Z</time></trkpt><trkpt lat="45.6041417" lon="9.14805"><ele>185.0</ele><time>2026-04-11T14:09:38.94Z</time></trkpt><trkpt lat="45.6041233" lon="9.1477017"><ele>185.0</ele><time>2026-04-11T14:09:39.94Z</time></trkpt><trkpt lat="45.604115" lon="9.1473867"><ele>185.0</ele><time>2026-04-11T14:09:40.94Z</time></trkpt><trkpt lat="45.60412" lon="9.1470833"><ele>185.0</ele><time>2026-04-11T14:09:41.94Z</time></trkpt><trkpt lat="45.604135" lon="9.146785"><ele>185.33333333333331</ele><time>2026-04-11T14:09:42.94Z</time></trkpt><trkpt lat="45.6041317" lon="9.146505"><ele>185.66666666666666</ele><time>2026-04-11T14:09:43.94Z</time></trkpt><trkpt lat="45.6041383" lon="9.1462217"><ele>186.0</ele><time>2026-04-11T14:09:44.94Z</time></trkpt><trkpt lat="45.6041383" lon="9.14595"><ele>185.66666666666666</ele><time>2026-04-11T14:09:45.939Z</time></trkpt><trkpt lat="45.604145" lon="9.145685"><ele>185.33333333333331</ele><time>2026-04-11T14:09:46.94Z</time></trkpt><trkpt lat="45.6041483" lon="9.1454183"><ele>185.0</ele><time>2026-04-11T14:09:47.94Z</time></trkpt><trkpt lat="45.6041667" lon="9.1451433"><ele>185.0</ele><time>2026-04-11T14:09:48.94Z</time></trkpt><trkpt lat="45.6041783" lon="9.1449133"><ele>185.0</ele><time>2026-04-11T14:09:49.94Z</time></trkpt><trkpt lat="45.6041883" lon="9.144685"><ele>185.0</ele><time>2026-04-11T14:09:50.94Z</time></trkpt><trkpt lat="45.604215" lon="9.1444417"><ele>185.33333333333331</ele><time>2026-04-11T14:09:51.94Z</time></trkpt><trkpt lat="45.604245" lon="9.1441917"><ele>185.66666666666666</ele><time>2026-04-11T14:09:52.939Z</time></trkpt><trkpt lat="45.6042733" lon="9.1439183"><ele>186.0</ele><time>2026-04-11T14:09:53.94Z</time></trkpt><trkpt lat="45.6043117" lon="9.1436133"><ele>186.0</ele><time>2026-04-11T14:09:54.94Z</time></trkpt><trkpt lat="45.6043517" lon="9.1432983"><ele>186.0</ele><time>2026-04-11T14:09:55.94Z</time></trkpt><trkpt lat="45.6043933" lon="9.142985"><ele>186.0</ele><time>2026-04-11T14:09:56.94Z</time></trkpt><trkpt lat="45.6044317" lon="9.142675"><ele>186.0</ele><time>2026-04-11T14:09:57.94Z</time></trkpt><trkpt lat="45.6044683" lon="9.142405"><ele>186.0</ele><time>2026-04-11T14:09:58.94Z</time></trkpt><trkpt lat="45.6045" lon="9.14214"><ele>186.0</ele><time>2026-04-11T14:09:59.94Z</time></trkpt><trkpt lat="45.6045367" lon="9.14188"><ele>186.0</ele><time>2026-04-11T14:10:00.94Z</time></trkpt><trkpt lat="45.604555" lon="9.141625"><ele>186.0</ele><time>2026-04-11T14:10:01.94Z</time></trkpt><trkpt lat="45.6045917" lon="9.14137"><ele>186.0</ele><time>2026-04-11T14:10:02.94Z</time></trkpt><trkpt lat="45.6046233" lon="9.1411133"><ele>185.66666666666666</ele><time>2026-04-11T14:10:03.94Z</time></trkpt><trkpt lat="45.6046533" lon="9.14086"><ele>185.33333333333331</ele><time>2026-04-11T14:10:04.94Z</time></trkpt><trkpt lat="45.6046983" lon="9.1405967"><ele>185.0</ele><time>2026-04-11T14:10:05.94Z</time></trkpt><trkpt lat="45.60474" lon="9.1403283"><ele>185.0</ele><time>2026-04-11T14:10:06.94Z</time></trkpt><trkpt lat="45.604775" lon="9.1400633"><ele>185.0</ele><time>2026-04-11T14:10:07.94Z</time></trkpt><trkpt lat="45.604805" lon="9.1397867"><ele>185.0</ele><time>2026-04-11T14:10:08.94Z</time></trkpt><trkpt lat="45.6048467" lon="9.13951"><ele>185.33333333333331</ele><time>2026-04-11T14:10:09.94Z</time></trkpt><trkpt lat="45.6048933" lon="9.1392417"><ele>185.66666666666666</ele><time>2026-04-11T14:10:10.94Z</time></trkpt><trkpt lat="45.6049167" lon="9.1390133"><ele>186.0</ele><time>2026-04-11T14:10:11.94Z</time></trkpt><trkpt lat="45.60494" lon="9.1388017"><ele>186.0</ele><time>2026-04-11T14:10:12.939Z</time></trkpt><trkpt lat="45.6049633" lon="9.1386033"><ele>186.0</ele><time>2026-04-11T14:10:13.94Z</time></trkpt><trkpt lat="45.6049867" lon="9.1384117"><ele>186.0</ele><time>2026-04-11T14:10:14.94Z</time></trkpt><trkpt lat="45.6050083" lon="9.1382283"><ele>186.0</ele><time>2026-04-11T14:10:15.939Z</time></trkpt><trkpt lat="45.6050367" lon="9.13803"><ele>186.33333333333334</ele><time>2026-04-11T14:10:16.94Z</time></trkpt><trkpt lat="45.6050667" lon="9.1378167"><ele>186.66666666666669</ele><time>2026-04-11T14:10:17.94Z</time></trkpt><trkpt lat="45.6050883" lon="9.137595"><ele>187.0</ele><time>2026-04-11T14:10:18.94Z</time></trkpt><trkpt lat="45.6051133" lon="9.1373867"><ele>186.66666666666669</ele><time>2026-04-11T14:10:19.939Z</time></trkpt><trkpt lat="45.6051383" lon="9.13716"><ele>186.33333333333334</ele><time>2026-04-11T14:10:20.94Z</time></trkpt><trkpt lat="45.6051717" lon="9.13693"><ele>186.0</ele><time>2026-04-11T14:10:21.94Z</time></trkpt><trkpt lat="45.6051983" lon="9.1366983"><ele>185.66666666666666</ele><time>2026-04-11T14:10:22.94Z</time></trkpt><trkpt lat="45.6052217" lon="9.136475"><ele>185.33333333333331</ele><time>2026-04-11T14:10:23.94Z</time></trkpt><trkpt lat="45.6052467" lon="9.1362467"><ele>185.0</ele><time>2026-04-11T14:10:24.94Z</time></trkpt><trkpt lat="45.6052667" lon="9.1360167"><ele>185.0</ele><time>2026-04-11T14:10:25.94Z</time></trkpt><trkpt lat="45.6052883" lon="9.13579"><ele>185.0</ele><time>2026-04-11T14:10:26.94Z</time></trkpt><trkpt lat="45.60532" lon="9.1355783"><ele>185.0</ele><time>2026-04-11T14:10:27.94Z</time></trkpt><trkpt lat="45.6053567" lon="9.13536"><ele>185.25</ele><time>2026-04-11T14:10:28.94Z</time></trkpt><trkpt lat="45.6053867" lon="9.1351517"><ele>185.5</ele><time>2026-04-11T14:10:29.94Z</time></trkpt><trkpt lat="45.60541" lon="9.13496"><ele>185.75</ele><time>2026-04-11T14:10:30.939Z</time></trkpt><trkpt lat="45.6054367" lon="9.134765"><ele>186.0</ele><time>2026-04-11T14:10:31.939Z</time></trkpt><trkpt lat="45.6054633" lon="9.1345633"><ele>185.5</ele><time>2026-04-11T14:10:32.939Z</time></trkpt><trkpt lat="45.6054883" lon="9.134365"><ele>185.0</ele><time>2026-04-11T14:10:33.939Z</time></trkpt><trkpt lat="45.6055117" lon="9.1341583"><ele>184.5</ele><time>2026-04-11T14:10:34.939Z</time></trkpt><trkpt lat="45.6055317" lon="9.13395"><ele>184.0</ele><time>2026-04-11T14:10:35.939Z</time></trkpt><trkpt lat="45.6055567" lon="9.133745"><ele>183.66666666666669</ele><time>2026-04-11T14:10:36.939Z</time></trkpt><trkpt lat="45.6055833" lon="9.1335283"><ele>183.33333333333334</ele><time>2026-04-11T14:10:37.939Z</time></trkpt><trkpt lat="45.605615" lon="9.1333"><ele>183.0</ele><time>2026-04-11T14:10:38.939Z</time></trkpt><trkpt lat="45.60565" lon="9.1330483"><ele>183.0</ele><time>2026-04-11T14:10:39.939Z</time></trkpt><trkpt lat="45.605685" lon="9.132785"><ele>183.0</ele><time>2026-04-11T14:10:40.939Z</time></trkpt><trkpt lat="45.6057217" lon="9.1325033"><ele>183.0</ele><time>2026-04-11T14:10:41.939Z</time></trkpt><trkpt lat="45.6057583" lon="9.132205"><ele>182.66666666666666</ele><time>2026-04-11T14:10:42.939Z</time></trkpt><trkpt lat="45.6057983" lon="9.13191"><ele>182.33333333333331</ele><time>2026-04-11T14:10:43.939Z</time></trkpt><trkpt lat="45.6058317" lon="9.1316217"><ele>182.0</ele><time>2026-04-11T14:10:44.939Z</time></trkpt><trkpt lat="45.6058717" lon="9.1313383"><ele>182.66666666666666</ele><time>2026-04-11T14:10:45.939Z</time></trkpt><trkpt lat="45.6059067" lon="9.1310517"><ele>183.33333333333334</ele><time>2026-04-11T14:10:46.939Z</time></trkpt><trkpt lat="45.605945" lon="9.13076"><ele>184.0</ele><time>2026-04-11T14:10:47.939Z</time></trkpt><trkpt lat="45.6059833" lon="9.1304583"><ele>184.33333333333334</ele><time>2026-04-11T14:10:48.938Z</time></trkpt><trkpt lat="45.6060233" lon="9.1301633"><ele>184.66666666666666</ele><time>2026-04-11T14:10:49.939Z</time></trkpt><trkpt lat="45.6060583" lon="9.1298667"><ele>185.0</ele><time>2026-04-11T14:10:50.939Z</time></trkpt><trkpt lat="45.606095" lon="9.12959"><ele>185.0</ele><time>2026-04-11T14:10:51.939Z</time></trkpt><trkpt lat="45.6061283" lon="9.1293283"><ele>185.0</ele><time>2026-04-11T14:10:52.939Z</time></trkpt><trkpt lat="45.6061617" lon="9.1290833"><ele>185.0</ele><time>2026-04-11T14:10:53.939Z</time></trkpt><trkpt lat="45.6061967" lon="9.128855"><ele>184.75</ele><time>2026-04-11T14:10:54.939Z</time></trkpt><trkpt lat="45.606225" lon="9.1286483"><ele>184.5</ele><time>2026-04-11T14:10:55.939Z</time></trkpt><trkpt lat="45.6062433" lon="9.1284567"><ele>184.25</ele><time>2026-04-11T14:10:56.939Z</time></trkpt><trkpt lat="45.606265" lon="9.1282783"><ele>184.0</ele><time>2026-04-11T14:10:57.939Z</time></trkpt><trkpt lat="45.6062933" lon="9.12811"><ele>184.6</ele><time>2026-04-11T14:10:58.939Z</time></trkpt><trkpt lat="45.60631" lon="9.1279583"><ele>185.2</ele><time>2026-04-11T14:10:59.939Z</time></trkpt><trkpt lat="45.6063333" lon="9.1278117"><ele>185.79999999999998</ele><time>2026-04-11T14:11:00.939Z</time></trkpt><trkpt lat="45.6063517" lon="9.1276833"><ele>186.39999999999998</ele><time>2026-04-11T14:11:01.939Z</time></trkpt><trkpt lat="45.6063767" lon="9.1275567"><ele>187.0</ele><time>2026-04-11T14:11:02.939Z</time></trkpt><trkpt lat="45.6063983" lon="9.1274617"><ele>187.2</ele><time>2026-04-11T14:11:03.939Z</time></trkpt><trkpt lat="45.606435" lon="9.12734"><ele>187.39999999999998</ele><time>2026-04-11T14:11:05.938Z</time></trkpt><trkpt lat="45.6065183" lon="9.1272767"><ele>187.60000000000002</ele><time>2026-04-11T14:11:08.938Z</time></trkpt><trkpt lat="45.60662" lon="9.12715"><ele>187.8</ele><time>2026-04-11T14:11:10.939Z</time></trkpt><trkpt lat="45.60666" lon="9.12705"><ele>188.0</ele><time>2026-04-11T14:11:11.939Z</time></trkpt><trkpt lat="45.606675" lon="9.126935"><ele>188.0</ele><time>2026-04-11T14:11:12.939Z</time></trkpt><trkpt lat="45.6066683" lon="9.12681"><ele>188.0</ele><time>2026-04-11T14:11:13.939Z</time></trkpt><trkpt lat="45.6066417" lon="9.1266617"><ele>188.0</ele><time>2026-04-11T14:11:14.939Z</time></trkpt><trkpt lat="45.6066033" lon="9.1264817"><ele>188.0</ele><time>2026-04-11T14:11:15.939Z</time></trkpt><trkpt lat="45.6065733" lon="9.1262867"><ele>187.75</ele><time>2026-04-11T14:11:16.939Z</time></trkpt><trkpt lat="45.6065633" lon="9.1260967"><ele>187.5</ele><time>2026-04-11T14:11:17.939Z</time></trkpt><trkpt lat="45.6065667" lon="9.125915"><ele>187.25</ele><time>2026-04-11T14:11:18.939Z</time></trkpt><trkpt lat="45.6065867" lon="9.1257367"><ele>187.0</ele><time>2026-04-11T14:11:19.939Z</time></trkpt><trkpt lat="45.6065933" lon="9.1255483"><ele>187.0</ele><time>2026-04-11T14:11:20.939Z</time></trkpt><trkpt lat="45.60662" lon="9.125365"><ele>187.0</ele><time>2026-04-11T14:11:21.939Z</time></trkpt><trkpt lat="45.6066467" lon="9.12518"><ele>187.0</ele><time>2026-04-11T14:11:22.939Z</time></trkpt><trkpt lat="45.6066717" lon="9.1250117"><ele>187.0</ele><time>2026-04-11T14:11:23.939Z</time></trkpt><trkpt lat="45.6067" lon="9.1248417"><ele>187.75</ele><time>2026-04-11T14:11:24.939Z</time></trkpt><trkpt lat="45.6067333" lon="9.1246733"><ele>188.5</ele><time>2026-04-11T14:11:25.939Z</time></trkpt><trkpt lat="45.60675" lon="9.124505"><ele>189.25</ele><time>2026-04-11T14:11:26.939Z</time></trkpt><trkpt lat="45.6067683" lon="9.1243533"><ele>190.0</ele><time>2026-04-11T14:11:27.939Z</time></trkpt><trkpt lat="45.6067917" lon="9.1242117"><ele>190.0</ele><time>2026-04-11T14:11:28.939Z</time></trkpt><trkpt lat="45.6068117" lon="9.12407"><ele>190.0</ele><time>2026-04-11T14:11:29.939Z</time></trkpt><trkpt lat="45.6068283" lon="9.1239233"><ele>190.0</ele><time>2026-04-11T14:11:30.939Z</time></trkpt><trkpt lat="45.60684" lon="9.123765"><ele>190.0</ele><time>2026-04-11T14:11:31.939Z</time></trkpt><trkpt lat="45.6068583" lon="9.1236167"><ele>190.0</ele><time>2026-04-11T14:11:32.939Z</time></trkpt><trkpt lat="45.6068733" lon="9.123465"><ele>190.0</ele><time>2026-04-11T14:11:33.939Z</time></trkpt><trkpt lat="45.6069067" lon="9.1233133"><ele>190.0</ele><time>2026-04-11T14:11:34.939Z</time></trkpt><trkpt lat="45.6069317" lon="9.12318"><ele>190.0</ele><time>2026-04-11T14:11:35.938Z</time></trkpt><trkpt lat="45.606955" lon="9.1230683"><ele>190.0</ele><time>2026-04-11T14:11:36.939Z</time></trkpt><trkpt lat="45.606975" lon="9.1229733"><ele>190.0</ele><time>2026-04-11T14:11:37.939Z</time></trkpt><trkpt lat="45.6070183" lon="9.122855"><ele>190.0</ele><time>2026-04-11T14:11:39.939Z</time></trkpt><trkpt lat="45.607075" lon="9.1227683"><ele>190.0</ele><time>2026-04-11T14:11:41.939Z</time></trkpt><trkpt lat="45.6071567" lon="9.1227"><ele>190.0</ele><time>2026-04-11T14:11:43.939Z</time></trkpt><trkpt lat="45.6072367" lon="9.1226533"><ele>190.0</ele><time>2026-04-11T14:11:44.939Z</time></trkpt><trkpt lat="45.607325" lon="9.122605"><ele>190.0</ele><time>2026-04-11T14:11:45.939Z</time></trkpt><trkpt lat="45.6074067" lon="9.1225133"><ele>190.0</ele><time>2026-04-11T14:11:46.938Z</time></trkpt><trkpt lat="45.6074667" lon="9.1224083"><ele>190.0</ele><time>2026-04-11T14:11:47.939Z</time></trkpt><trkpt lat="45.6075133" lon="9.1222817"><ele>190.0</ele><time>2026-04-11T14:11:48.939Z</time></trkpt><trkpt lat="45.6075483" lon="9.1221517"><ele>190.0</ele><time>2026-04-11T14:11:49.939Z</time></trkpt><trkpt lat="45.607595" lon="9.12204"><ele>190.0</ele><time>2026-04-11T14:11:50.939Z</time></trkpt><trkpt lat="45.6076567" lon="9.12195"><ele>190.4</ele><time>2026-04-11T14:11:51.939Z</time></trkpt><trkpt lat="45.6077317" lon="9.12187"><ele>190.8</ele><time>2026-04-11T14:11:52.939Z</time></trkpt><trkpt lat="45.6078283" lon="9.1218017"><ele>191.2</ele><time>2026-04-11T14:11:53.939Z</time></trkpt><trkpt lat="45.6079333" lon="9.1217433"><ele>191.6</ele><time>2026-04-11T14:11:54.939Z</time></trkpt><trkpt lat="45.6080433" lon="9.1217083"><ele>192.0</ele><time>2026-04-11T14:11:55.939Z</time></trkpt><trkpt lat="45.608175" lon="9.1216833"><ele>193.66666666666669</ele><time>2026-04-11T14:11:56.939Z</time></trkpt><trkpt lat="45.6083233" lon="9.12167"><ele>195.33333333333334</ele><time>2026-04-11T14:11:57.939Z</time></trkpt><trkpt lat="45.6084733" lon="9.1216583"><ele>197.0</ele><time>2026-04-11T14:11:58.939Z</time></trkpt><trkpt lat="45.6086317" lon="9.1216383"><ele>198.33333333333334</ele><time>2026-04-11T14:11:59.939Z</time></trkpt><trkpt lat="45.6087867" lon="9.1216117"><ele>199.66666666666669</ele><time>2026-04-11T14:12:00.939Z</time></trkpt><trkpt lat="45.608955" lon="9.1215867"><ele>201.0</ele><time>2026-04-11T14:12:01.939Z</time></trkpt><trkpt lat="45.60913" lon="9.1215617"><ele>201.33333333333331</ele><time>2026-04-11T14:12:02.939Z</time></trkpt><trkpt lat="45.6093033" lon="9.1215383"><ele>201.66666666666666</ele><time>2026-04-11T14:12:03.939Z</time></trkpt><trkpt lat="45.6094783" lon="9.1215183"><ele>202.0</ele><time>2026-04-11T14:12:04.939Z</time></trkpt><trkpt lat="45.609655" lon="9.1214917"><ele>202.66666666666666</ele><time>2026-04-11T14:12:05.939Z</time></trkpt><trkpt lat="45.609825" lon="9.1214667"><ele>203.33333333333331</ele><time>2026-04-11T14:12:06.939Z</time></trkpt><trkpt lat="45.6099933" lon="9.1214533"><ele>204.0</ele><time>2026-04-11T14:12:07.939Z</time></trkpt><trkpt lat="45.6101767" lon="9.1214317"><ele>204.0</ele><time>2026-04-11T14:12:08.939Z</time></trkpt><trkpt lat="45.6103583" lon="9.12142"><ele>204.0</ele><time>2026-04-11T14:12:09.939Z</time></trkpt><trkpt lat="45.6105467" lon="9.1213867"><ele>204.0</ele><time>2026-04-11T14:12:10.939Z</time></trkpt><trkpt lat="45.6107417" lon="9.1213517"><ele>204.0</ele><time>2026-04-11T14:12:11.939Z</time></trkpt><trkpt lat="45.6109283" lon="9.1213183"><ele>204.0</ele><time>2026-04-11T14:12:12.939Z</time></trkpt><trkpt lat="45.6111167" lon="9.1212883"><ele>204.0</ele><time>2026-04-11T14:12:13.939Z</time></trkpt><trkpt lat="45.6113017" lon="9.1212583"><ele>205.0</ele><time>2026-04-11T14:12:14.939Z</time></trkpt><trkpt lat="45.61149" lon="9.1212317"><ele>206.0</ele><time>2026-04-11T14:12:15.938Z</time></trkpt><trkpt lat="45.61168" lon="9.1211983"><ele>207.0</ele><time>2026-04-11T14:12:16.939Z</time></trkpt><trkpt lat="45.6118733" lon="9.1211717"><ele>207.33333333333331</ele><time>2026-04-11T14:12:17.939Z</time></trkpt><trkpt lat="45.6120683" lon="9.1211417"><ele>207.66666666666666</ele><time>2026-04-11T14:12:18.939Z</time></trkpt><trkpt lat="45.6122617" lon="9.12111"><ele>208.0</ele><time>2026-04-11T14:12:19.939Z</time></trkpt><trkpt lat="45.6124583" lon="9.12109"><ele>208.0</ele><time>2026-04-11T14:12:20.939Z</time></trkpt><trkpt lat="45.61266" lon="9.1210433"><ele>208.0</ele><time>2026-04-11T14:12:21.938Z</time></trkpt><trkpt lat="45.6128383" lon="9.12102"><ele>208.0</ele><time>2026-04-11T14:12:22.939Z</time></trkpt><trkpt lat="45.613015" lon="9.1209983"><ele>208.66666666666666</ele><time>2026-04-11T14:12:23.939Z</time></trkpt><trkpt lat="45.6131733" lon="9.1209817"><ele>209.33333333333331</ele><time>2026-04-11T14:12:24.939Z</time></trkpt><trkpt lat="45.6133233" lon="9.1209583"><ele>210.0</ele><time>2026-04-11T14:12:25.938Z</time></trkpt><trkpt lat="45.6134633" lon="9.1209233"><ele>210.0</ele><time>2026-04-11T14:12:26.939Z</time></trkpt><trkpt lat="45.6136017" lon="9.1209067"><ele>210.0</ele><time>2026-04-11T14:12:27.939Z</time></trkpt><trkpt lat="45.6137367" lon="9.1208833"><ele>210.0</ele><time>2026-04-11T14:12:28.939Z</time></trkpt><trkpt lat="45.6138767" lon="9.120865"><ele>210.0</ele><time>2026-04-11T14:12:29.939Z</time></trkpt><trkpt lat="45.61403" lon="9.1208517"><ele>209.66666666666669</ele><time>2026-04-11T14:12:30.939Z</time></trkpt><trkpt lat="45.6142117" lon="9.120825"><ele>209.33333333333334</ele><time>2026-04-11T14:12:31.939Z</time></trkpt><trkpt lat="45.614395" lon="9.1208017"><ele>209.0</ele><time>2026-04-11T14:12:32.939Z</time></trkpt><trkpt lat="45.6145917" lon="9.1207717"><ele>209.0</ele><time>2026-04-11T14:12:33.939Z</time></trkpt><trkpt lat="45.61479" lon="9.1207433"><ele>209.0</ele><time>2026-04-11T14:12:34.939Z</time></trkpt><trkpt lat="45.61499" lon="9.12071"><ele>209.0</ele><time>2026-04-11T14:12:35.939Z</time></trkpt><trkpt lat="45.6151833" lon="9.1206833"><ele>208.66666666666669</ele><time>2026-04-11T14:12:36.939Z</time></trkpt><trkpt lat="45.6153633" lon="9.12066"><ele>208.33333333333331</ele><time>2026-04-11T14:12:37.939Z</time></trkpt><trkpt lat="45.6155367" lon="9.1206367"><ele>208.0</ele><time>2026-04-11T14:12:38.939Z</time></trkpt><trkpt lat="45.6156883" lon="9.1206083"><ele>208.0</ele><time>2026-04-11T14:12:39.939Z</time></trkpt><trkpt lat="45.61584" lon="9.1205783"><ele>208.0</ele><time>2026-04-11T14:12:40.938Z</time></trkpt><trkpt lat="45.6159933" lon="9.120545"><ele>208.0</ele><time>2026-04-11T14:12:41.939Z</time></trkpt><trkpt lat="45.6161433" lon="9.1205067"><ele>209.0</ele><time>2026-04-11T14:12:42.939Z</time></trkpt><trkpt lat="45.6162917" lon="9.120455"><ele>210.0</ele><time>2026-04-11T14:12:43.939Z</time></trkpt><trkpt lat="45.6164267" lon="9.1203833"><ele>211.0</ele><time>2026-04-11T14:12:44.939Z</time></trkpt><trkpt lat="45.616555" lon="9.1203217"><ele>212.0</ele><time>2026-04-11T14:12:45.939Z</time></trkpt><trkpt lat="45.6166717" lon="9.120265"><ele>212.0</ele><time>2026-04-11T14:12:46.939Z</time></trkpt><trkpt lat="45.6167733" lon="9.1202067"><ele>212.0</ele><time>2026-04-11T14:12:47.939Z</time></trkpt><trkpt lat="45.616865" lon="9.1201617"><ele>212.0</ele><time>2026-04-11T14:12:48.939Z</time></trkpt><trkpt lat="45.6169417" lon="9.1201283"><ele>212.0</ele><time>2026-04-11T14:12:49.939Z</time></trkpt><trkpt lat="45.6170483" lon="9.1200683"><ele>212.0</ele><time>2026-04-11T14:12:51.938Z</time></trkpt><trkpt lat="45.6171183" lon="9.12004"><ele>212.00000000000003</ele><time>2026-04-11T14:12:53.939Z</time></trkpt><trkpt lat="45.6172267" lon="9.120035"><ele>212.0</ele><time>2026-04-11T14:12:55.939Z</time></trkpt><trkpt lat="45.6172783" lon="9.1199817"><ele>212.0</ele><time>2026-04-11T14:12:56.939Z</time></trkpt><trkpt lat="45.6173267" lon="9.1198967"><ele>212.0</ele><time>2026-04-11T14:12:57.939Z</time></trkpt><trkpt lat="45.6173717" lon="9.1197967"><ele>212.00000000000003</ele><time>2026-04-11T14:12:58.939Z</time></trkpt><trkpt lat="45.6174283" lon="9.1196933"><ele>212.0</ele><time>2026-04-11T14:12:59.939Z</time></trkpt><trkpt lat="45.6175" lon="9.1195867"><ele>212.0</ele><time>2026-04-11T14:13:00.939Z</time></trkpt><trkpt lat="45.6175867" lon="9.119445"><ele>212.0</ele><time>2026-04-11T14:13:01.939Z</time></trkpt><trkpt lat="45.61771" lon="9.1192867"><ele>212.0</ele><time>2026-04-11T14:13:02.939Z</time></trkpt><trkpt lat="45.6178167" lon="9.1190967"><ele>212.66666666666669</ele><time>2026-04-11T14:13:03.939Z</time></trkpt><trkpt lat="45.6179217" lon="9.1188867"><ele>213.33333333333331</ele><time>2026-04-11T14:13:04.939Z</time></trkpt><trkpt lat="45.6180283" lon="9.11866"><ele>214.0</ele><time>2026-04-11T14:13:05.939Z</time></trkpt><trkpt lat="45.618125" lon="9.118415"><ele>214.0</ele><time>2026-04-11T14:13:06.939Z</time></trkpt><trkpt lat="45.618225" lon="9.1181567"><ele>214.0</ele><time>2026-04-11T14:13:07.939Z</time></trkpt><trkpt lat="45.6183233" lon="9.1178867"><ele>214.0</ele><time>2026-04-11T14:13:08.939Z</time></trkpt><trkpt lat="45.6184233" lon="9.1175983"><ele>214.0</ele><time>2026-04-11T14:13:09.939Z</time></trkpt><trkpt lat="45.6185283" lon="9.1173"><ele>214.0</ele><time>2026-04-11T14:13:10.939Z</time></trkpt><trkpt lat="45.6186467" lon="9.1169933"><ele>214.0</ele><time>2026-04-11T14:13:11.939Z</time></trkpt><trkpt lat="45.61877" lon="9.1166633"><ele>214.0</ele><time>2026-04-11T14:13:12.938Z</time></trkpt><trkpt lat="45.618885" lon="9.1163433"><ele>214.5</ele><time>2026-04-11T14:13:13.939Z</time></trkpt><trkpt lat="45.6190167" lon="9.116015"><ele>215.0</ele><time>2026-04-11T14:13:14.939Z</time></trkpt><trkpt lat="45.619145" lon="9.115675"><ele>215.0</ele><time>2026-04-11T14:13:15.939Z</time></trkpt><trkpt lat="45.6192717" lon="9.1153367"><ele>215.0</ele><time>2026-04-11T14:13:16.939Z</time></trkpt><trkpt lat="45.6194033" lon="9.114975"><ele>213.5</ele><time>2026-04-11T14:13:17.939Z</time></trkpt><trkpt lat="45.6195367" lon="9.1146233"><ele>212.0</ele><time>2026-04-11T14:13:18.939Z</time></trkpt><trkpt lat="45.61967" lon="9.1142917"><ele>212.0</ele><time>2026-04-11T14:13:19.938Z</time></trkpt><trkpt lat="45.619785" lon="9.1139883"><ele>212.0</ele><time>2026-04-11T14:13:20.939Z</time></trkpt><trkpt lat="45.6198983" lon="9.1137"><ele>212.0</ele><time>2026-04-11T14:13:21.938Z</time></trkpt><trkpt lat="45.6200067" lon="9.113425"><ele>212.0</ele><time>2026-04-11T14:13:22.939Z</time></trkpt><trkpt lat="45.6201117" lon="9.11317"><ele>212.0</ele><time>2026-04-11T14:13:23.939Z</time></trkpt><trkpt lat="45.6202117" lon="9.1129217"><ele>212.0</ele><time>2026-04-11T14:13:24.939Z</time></trkpt><trkpt lat="45.6203033" lon="9.1126733"><ele>212.0</ele><time>2026-04-11T14:13:25.939Z</time></trkpt><trkpt lat="45.6203883" lon="9.1124483"><ele>212.0</ele><time>2026-04-11T14:13:26.939Z</time></trkpt><trkpt lat="45.6204667" lon="9.1122367"><ele>214.0</ele><time>2026-04-11T14:13:27.939Z</time></trkpt><trkpt lat="45.6205333" lon="9.1120433"><ele>216.0</ele><time>2026-04-11T14:13:28.939Z</time></trkpt><trkpt lat="45.6205967" lon="9.111845"><ele>218.0</ele><time>2026-04-11T14:13:29.939Z</time></trkpt><trkpt lat="45.6206617" lon="9.111645"><ele>217.5</ele><time>2026-04-11T14:13:30.939Z</time></trkpt><trkpt lat="45.6207117" lon="9.1114467"><ele>217.0</ele><time>2026-04-11T14:13:31.939Z</time></trkpt><trkpt lat="45.62075" lon="9.11125"><ele>216.5</ele><time>2026-04-11T14:13:32.938Z</time></trkpt><trkpt lat="45.6207817" lon="9.1110617"><ele>216.0</ele><time>2026-04-11T14:13:33.939Z</time></trkpt><trkpt lat="45.6207933" lon="9.110885"><ele>216.25</ele><time>2026-04-11T14:13:34.939Z</time></trkpt><trkpt lat="45.620795" lon="9.1107133"><ele>216.5</ele><time>2026-04-11T14:13:35.939Z</time></trkpt><trkpt lat="45.6208017" lon="9.1105383"><ele>216.75</ele><time>2026-04-11T14:13:36.939Z</time></trkpt><trkpt lat="45.6207983" lon="9.1103533"><ele>217.0</ele><time>2026-04-11T14:13:37.939Z</time></trkpt><trkpt lat="45.6207967" lon="9.110155"><ele>217.0</ele><time>2026-04-11T14:13:38.939Z</time></trkpt><trkpt lat="45.620795" lon="9.1099617"><ele>217.0</ele><time>2026-04-11T14:13:39.939Z</time></trkpt><trkpt lat="45.62079" lon="9.1097817"><ele>217.0</ele><time>2026-04-11T14:13:40.939Z</time></trkpt><trkpt lat="45.6207867" lon="9.1096033"><ele>217.0</ele><time>2026-04-11T14:13:41.939Z</time></trkpt><trkpt lat="45.6207833" lon="9.10944"><ele>216.5</ele><time>2026-04-11T14:13:42.939Z</time></trkpt><trkpt lat="45.6207817" lon="9.1092733"><ele>216.0</ele><time>2026-04-11T14:13:43.939Z</time></trkpt><trkpt lat="45.6207717" lon="9.1091"><ele>215.5</ele><time>2026-04-11T14:13:44.939Z</time></trkpt><trkpt lat="45.62076" lon="9.10893"><ele>215.0</ele><time>2026-04-11T14:13:45.939Z</time></trkpt><trkpt lat="45.6207533" lon="9.108775"><ele>214.8</ele><time>2026-04-11T14:13:46.939Z</time></trkpt><trkpt lat="45.6207517" lon="9.1086233"><ele>214.6</ele><time>2026-04-11T14:13:47.938Z</time></trkpt><trkpt lat="45.620755" lon="9.1084733"><ele>214.39999999999998</ele><time>2026-04-11T14:13:48.939Z</time></trkpt><trkpt lat="45.6207583" lon="9.108325"><ele>214.2</ele><time>2026-04-11T14:13:49.939Z</time></trkpt><trkpt lat="45.6207567" lon="9.1081733"><ele>214.0</ele><time>2026-04-11T14:13:50.939Z</time></trkpt><trkpt lat="45.620755" lon="9.1080133"><ele>215.0</ele><time>2026-04-11T14:13:51.939Z</time></trkpt><trkpt lat="45.620745" lon="9.1078517"><ele>216.0</ele><time>2026-04-11T14:13:52.939Z</time></trkpt><trkpt lat="45.6207433" lon="9.1076883"><ele>217.0</ele><time>2026-04-11T14:13:53.939Z</time></trkpt><trkpt lat="45.6207367" lon="9.1075183"><ele>218.0</ele><time>2026-04-11T14:13:54.938Z</time></trkpt><trkpt lat="45.6207383" lon="9.1073433"><ele>218.25</ele><time>2026-04-11T14:13:55.938Z</time></trkpt><trkpt lat="45.6207367" lon="9.10718"><ele>218.5</ele><time>2026-04-11T14:13:56.937Z</time></trkpt><trkpt lat="45.620735" lon="9.106985"><ele>218.75</ele><time>2026-04-11T14:13:57.938Z</time></trkpt><trkpt lat="45.6207317" lon="9.1067983"><ele>219.0</ele><time>2026-04-11T14:13:58.938Z</time></trkpt><trkpt lat="45.6207267" lon="9.1066183"><ele>218.5</ele><time>2026-04-11T14:13:59.938Z</time></trkpt><trkpt lat="45.62071" lon="9.10642"><ele>218.0</ele><time>2026-04-11T14:14:00.938Z</time></trkpt><trkpt lat="45.6206967" lon="9.1062267"><ele>217.5</ele><time>2026-04-11T14:14:01.938Z</time></trkpt><trkpt lat="45.62069" lon="9.1060283"><ele>217.0</ele><time>2026-04-11T14:14:02.938Z</time></trkpt><trkpt lat="45.62068" lon="9.1058267"><ele>217.0</ele><time>2026-04-11T14:14:03.937Z</time></trkpt><trkpt lat="45.6206717" lon="9.105645"><ele>217.0</ele><time>2026-04-11T14:14:04.938Z</time></trkpt><trkpt lat="45.62067" lon="9.1054633"><ele>217.0</ele><time>2026-04-11T14:14:05.938Z</time></trkpt><trkpt lat="45.6206583" lon="9.105285"><ele>217.0</ele><time>2026-04-11T14:14:06.938Z</time></trkpt><trkpt lat="45.6206517" lon="9.105105"><ele>217.0</ele><time>2026-04-11T14:14:07.938Z</time></trkpt><trkpt lat="45.6206483" lon="9.1049317"><ele>217.0</ele><time>2026-04-11T14:14:08.938Z</time></trkpt><trkpt lat="45.6206433" lon="9.1047767"><ele>217.0</ele><time>2026-04-11T14:14:09.938Z</time></trkpt><trkpt lat="45.62064" lon="9.104625"><ele>217.0</ele><time>2026-04-11T14:14:10.938Z</time></trkpt><trkpt lat="45.6206317" lon="9.10448"><ele>217.0</ele><time>2026-04-11T14:14:11.937Z</time></trkpt><trkpt lat="45.6206283" lon="9.1043333"><ele>216.99999999999997</ele><time>2026-04-11T14:14:12.938Z</time></trkpt><trkpt lat="45.62062" lon="9.104205"><ele>217.0</ele><time>2026-04-11T14:14:13.938Z</time></trkpt><trkpt lat="45.6206117" lon="9.1040883"><ele>217.0</ele><time>2026-04-11T14:14:14.938Z</time></trkpt><trkpt lat="45.62061" lon="9.103995"><ele>217.0</ele><time>2026-04-11T14:14:15.938Z</time></trkpt><trkpt lat="45.6206033" lon="9.1038733"><ele>216.99999999999997</ele><time>2026-04-11T14:14:17.938Z</time></trkpt><trkpt lat="45.6206" lon="9.1037583"><ele>217.0</ele><time>2026-04-11T14:14:19.938Z</time></trkpt><trkpt lat="45.6205983" lon="9.103655"><ele>216.99999999999997</ele><time>2026-04-11T14:14:21.938Z</time></trkpt><trkpt lat="45.6205967" lon="9.1035633"><ele>217.0</ele><time>2026-04-11T14:14:23.938Z</time></trkpt><trkpt lat="45.6206017" lon="9.1034583"><ele>217.0</ele><time>2026-04-11T14:14:26.938Z</time></trkpt><trkpt lat="45.6206183" lon="9.103345"><ele>217.0</ele><time>2026-04-11T14:14:28.938Z</time></trkpt><trkpt lat="45.62063" lon="9.103255"><ele>216.99999999999997</ele><time>2026-04-11T14:14:29.938Z</time></trkpt><trkpt lat="45.6206333" lon="9.1031333"><ele>217.0</ele><time>2026-04-11T14:14:30.937Z</time></trkpt><trkpt lat="45.6206267" lon="9.10298"><ele>217.66666666666666</ele><time>2026-04-11T14:14:31.938Z</time></trkpt><trkpt lat="45.6206117" lon="9.10279"><ele>218.33333333333331</ele><time>2026-04-11T14:14:32.938Z</time></trkpt><trkpt lat="45.6205783" lon="9.1025567"><ele>219.0</ele><time>2026-04-11T14:14:33.938Z</time></trkpt><trkpt lat="45.6205517" lon="9.1023183"><ele>219.0</ele><time>2026-04-11T14:14:34.938Z</time></trkpt><trkpt lat="45.62054" lon="9.1021"><ele>219.0</ele><time>2026-04-11T14:14:35.938Z</time></trkpt><trkpt lat="45.6205283" lon="9.1019"><ele>219.0</ele><time>2026-04-11T14:14:36.938Z</time></trkpt><trkpt lat="45.6205267" lon="9.1017017"><ele>219.0</ele><time>2026-04-11T14:14:37.938Z</time></trkpt><trkpt lat="45.6205183" lon="9.1015"><ele>219.0</ele><time>2026-04-11T14:14:38.938Z</time></trkpt><trkpt lat="45.620515" lon="9.1013"><ele>219.0</ele><time>2026-04-11T14:14:39.938Z</time></trkpt><trkpt lat="45.6205117" lon="9.1010933"><ele>219.0</ele><time>2026-04-11T14:14:40.938Z</time></trkpt><trkpt lat="45.6205083" lon="9.1008817"><ele>219.0</ele><time>2026-04-11T14:14:41.938Z</time></trkpt><trkpt lat="45.6205" lon="9.1006667"><ele>219.0</ele><time>2026-04-11T14:14:42.938Z</time></trkpt><trkpt lat="45.6204917" lon="9.1004467"><ele>219.0</ele><time>2026-04-11T14:14:43.938Z</time></trkpt><trkpt lat="45.6204833" lon="9.1002333"><ele>219.0</ele><time>2026-04-11T14:14:44.938Z</time></trkpt><trkpt lat="45.6204783" lon="9.100025"><ele>219.0</ele><time>2026-04-11T14:14:45.938Z</time></trkpt><trkpt lat="45.620465" lon="9.0998033"><ele>219.0</ele><time>2026-04-11T14:14:46.938Z</time></trkpt><trkpt lat="45.6204517" lon="9.09955"><ele>219.0</ele><time>2026-04-11T14:14:47.938Z</time></trkpt><trkpt lat="45.6204333" lon="9.0992733"><ele>219.0</ele><time>2026-04-11T14:14:48.938Z</time></trkpt><trkpt lat="45.6204283" lon="9.098975"><ele>219.0</ele><time>2026-04-11T14:14:49.938Z</time></trkpt><trkpt lat="45.6204333" lon="9.0986733"><ele>219.0</ele><time>2026-04-11T14:14:50.938Z</time></trkpt><trkpt lat="45.62043" lon="9.0983983"><ele>219.0</ele><time>2026-04-11T14:14:51.938Z</time></trkpt><trkpt lat="45.6204167" lon="9.0981317"><ele>219.0</ele><time>2026-04-11T14:14:52.938Z</time></trkpt><trkpt lat="45.6204067" lon="9.097885"><ele>219.0</ele><time>2026-04-11T14:14:53.938Z</time></trkpt><trkpt lat="45.620395" lon="9.097635"><ele>219.0</ele><time>2026-04-11T14:14:54.938Z</time></trkpt><trkpt lat="45.6203867" lon="9.0973917"><ele>219.33333333333331</ele><time>2026-04-11T14:14:55.938Z</time></trkpt><trkpt lat="45.6203783" lon="9.0971567"><ele>219.66666666666666</ele><time>2026-04-11T14:14:56.938Z</time></trkpt><trkpt lat="45.620375" lon="9.0969217"><ele>220.0</ele><time>2026-04-11T14:14:57.938Z</time></trkpt><trkpt lat="45.62037" lon="9.0967033"><ele>220.33333333333331</ele><time>2026-04-11T14:14:58.937Z</time></trkpt><trkpt lat="45.6203583" lon="9.0964817"><ele>220.66666666666669</ele><time>2026-04-11T14:14:59.938Z</time></trkpt><trkpt lat="45.6203367" lon="9.0962583"><ele>221.0</ele><time>2026-04-11T14:15:00.938Z</time></trkpt><trkpt lat="45.6203083" lon="9.0960383"><ele>220.33333333333334</ele><time>2026-04-11T14:15:01.938Z</time></trkpt><trkpt lat="45.620265" lon="9.0958283"><ele>219.66666666666669</ele><time>2026-04-11T14:15:02.937Z</time></trkpt><trkpt lat="45.6202167" lon="9.09562"><ele>219.0</ele><time>2026-04-11T14:15:03.938Z</time></trkpt><trkpt lat="45.6201667" lon="9.0954133"><ele>219.0</ele><time>2026-04-11T14:15:04.938Z</time></trkpt><trkpt lat="45.6201133" lon="9.095215"><ele>219.0</ele><time>2026-04-11T14:15:05.938Z</time></trkpt><trkpt lat="45.6200483" lon="9.0950217"><ele>219.0</ele><time>2026-04-11T14:15:06.938Z</time></trkpt><trkpt lat="45.6199833" lon="9.0948433"><ele>219.0</ele><time>2026-04-11T14:15:07.938Z</time></trkpt><trkpt lat="45.6199183" lon="9.0946883"><ele>218.75</ele><time>2026-04-11T14:15:08.938Z</time></trkpt><trkpt lat="45.6198567" lon="9.09454"><ele>218.5</ele><time>2026-04-11T14:15:09.937Z</time></trkpt><trkpt lat="45.619795" lon="9.0943783"><ele>218.25</ele><time>2026-04-11T14:15:10.938Z</time></trkpt><trkpt lat="45.6197333" lon="9.0942117"><ele>218.0</ele><time>2026-04-11T14:15:11.938Z</time></trkpt><trkpt lat="45.61967" lon="9.0940467"><ele>218.25</ele><time>2026-04-11T14:15:12.938Z</time></trkpt><trkpt lat="45.6196083" lon="9.0938717"><ele>218.5</ele><time>2026-04-11T14:15:13.937Z</time></trkpt><trkpt lat="45.6195417" lon="9.0937"><ele>218.75</ele><time>2026-04-11T14:15:14.937Z</time></trkpt><trkpt lat="45.6194733" lon="9.09353"><ele>219.0</ele><time>2026-04-11T14:15:15.938Z</time></trkpt><trkpt lat="45.6194083" lon="9.0933533"><ele>218.5</ele><time>2026-04-11T14:15:16.938Z</time></trkpt><trkpt lat="45.6193483" lon="9.0931783"><ele>218.0</ele><time>2026-04-11T14:15:17.938Z</time></trkpt><trkpt lat="45.6192833" lon="9.093015"><ele>217.5</ele><time>2026-04-11T14:15:18.938Z</time></trkpt><trkpt lat="45.6192233" lon="9.092855"><ele>217.0</ele><time>2026-04-11T14:15:19.938Z</time></trkpt><trkpt lat="45.6191617" lon="9.09269"><ele>217.0</ele><time>2026-04-11T14:15:20.938Z</time></trkpt><trkpt lat="45.619105" lon="9.0925233"><ele>217.0</ele><time>2026-04-11T14:15:21.938Z</time></trkpt><trkpt lat="45.619045" lon="9.09236"><ele>217.0</ele><time>2026-04-11T14:15:22.938Z</time></trkpt><trkpt lat="45.6189883" lon="9.092195"><ele>217.0</ele><time>2026-04-11T14:15:23.938Z</time></trkpt><trkpt lat="45.61894" lon="9.0920383"><ele>216.0</ele><time>2026-04-11T14:15:24.938Z</time></trkpt><trkpt lat="45.6188917" lon="9.0918917"><ele>215.0</ele><time>2026-04-11T14:15:25.937Z</time></trkpt><trkpt lat="45.6188383" lon="9.0917517"><ele>214.0</ele><time>2026-04-11T14:15:26.938Z</time></trkpt><trkpt lat="45.6187817" lon="9.0916133"><ele>213.0</ele><time>2026-04-11T14:15:27.938Z</time></trkpt><trkpt lat="45.6187267" lon="9.0914733"><ele>212.0</ele><time>2026-04-11T14:15:28.938Z</time></trkpt><trkpt lat="45.6186733" lon="9.0913283"><ele>212.0</ele><time>2026-04-11T14:15:29.938Z</time></trkpt><trkpt lat="45.6186217" lon="9.0911767"><ele>212.0</ele><time>2026-04-11T14:15:30.938Z</time></trkpt><trkpt lat="45.6185733" lon="9.0910183"><ele>212.0</ele><time>2026-04-11T14:15:31.938Z</time></trkpt><trkpt lat="45.6185183" lon="9.090855"><ele>212.0</ele><time>2026-04-11T14:15:32.938Z</time></trkpt><trkpt lat="45.61847" lon="9.0906767"><ele>212.0</ele><time>2026-04-11T14:15:33.938Z</time></trkpt><trkpt lat="45.618415" lon="9.0904917"><ele>212.0</ele><time>2026-04-11T14:15:34.938Z</time></trkpt><trkpt lat="45.6183617" lon="9.0902867"><ele>212.0</ele><time>2026-04-11T14:15:35.938Z</time></trkpt><trkpt lat="45.6183133" lon="9.0900767"><ele>212.0</ele><time>2026-04-11T14:15:36.938Z</time></trkpt><trkpt lat="45.6182783" lon="9.0898833"><ele>212.5</ele><time>2026-04-11T14:15:37.938Z</time></trkpt><trkpt lat="45.6182483" lon="9.0897083"><ele>213.0</ele><time>2026-04-11T14:15:38.937Z</time></trkpt><trkpt lat="45.6182283" lon="9.0895333"><ele>213.5</ele><time>2026-04-11T14:15:39.938Z</time></trkpt><trkpt lat="45.6182117" lon="9.0893467"><ele>214.0</ele><time>2026-04-11T14:15:40.938Z</time></trkpt><trkpt lat="45.6182" lon="9.089155"><ele>214.0</ele><time>2026-04-11T14:15:41.938Z</time></trkpt><trkpt lat="45.61819" lon="9.0889667"><ele>214.0</ele><time>2026-04-11T14:15:42.938Z</time></trkpt><trkpt lat="45.6181933" lon="9.088765"><ele>214.0</ele><time>2026-04-11T14:15:43.938Z</time></trkpt><trkpt lat="45.6181917" lon="9.0885833"><ele>214.0</ele><time>2026-04-11T14:15:44.938Z</time></trkpt><trkpt lat="45.6181983" lon="9.0884133"><ele>214.25</ele><time>2026-04-11T14:15:45.938Z</time></trkpt><trkpt lat="45.61822" lon="9.0882483"><ele>214.5</ele><time>2026-04-11T14:15:46.938Z</time></trkpt><trkpt lat="45.6182333" lon="9.0880833"><ele>214.75</ele><time>2026-04-11T14:15:47.938Z</time></trkpt><trkpt lat="45.618245" lon="9.0879033"><ele>215.0</ele><time>2026-04-11T14:15:48.938Z</time></trkpt><trkpt lat="45.61826" lon="9.087725"><ele>215.0</ele><time>2026-04-11T14:15:49.938Z</time></trkpt><trkpt lat="45.618265" lon="9.087545"><ele>215.0</ele><time>2026-04-11T14:15:50.938Z</time></trkpt><trkpt lat="45.618275" lon="9.0873617"><ele>215.0</ele><time>2026-04-11T14:15:51.938Z</time></trkpt><trkpt lat="45.6182867" lon="9.0871917"><ele>215.0</ele><time>2026-04-11T14:15:52.938Z</time></trkpt><trkpt lat="45.6182933" lon="9.0870283"><ele>215.0</ele><time>2026-04-11T14:15:53.938Z</time></trkpt><trkpt lat="45.6183" lon="9.08687"><ele>215.0</ele><time>2026-04-11T14:15:54.938Z</time></trkpt><trkpt lat="45.6183167" lon="9.0866983"><ele>215.0</ele><time>2026-04-11T14:15:55.938Z</time></trkpt><trkpt lat="45.6183283" lon="9.0865267"><ele>215.0</ele><time>2026-04-11T14:15:56.938Z</time></trkpt><trkpt lat="45.618335" lon="9.0863517"><ele>215.25</ele><time>2026-04-11T14:15:57.938Z</time></trkpt><trkpt lat="45.6183433" lon="9.0861617"><ele>215.5</ele><time>2026-04-11T14:15:58.938Z</time></trkpt><trkpt lat="45.618355" lon="9.0859733"><ele>215.75</ele><time>2026-04-11T14:15:59.938Z</time></trkpt><trkpt lat="45.6183583" lon="9.0857833"><ele>216.0</ele><time>2026-04-11T14:16:00.938Z</time></trkpt><trkpt lat="45.61836" lon="9.0856"><ele>215.5</ele><time>2026-04-11T14:16:01.938Z</time></trkpt><trkpt lat="45.61836" lon="9.0854133"><ele>215.0</ele><time>2026-04-11T14:16:02.938Z</time></trkpt><trkpt lat="45.6183583" lon="9.0852333"><ele>214.5</ele><time>2026-04-11T14:16:03.937Z</time></trkpt><trkpt lat="45.618355" lon="9.0850633"><ele>214.0</ele><time>2026-04-11T14:16:04.938Z</time></trkpt><trkpt lat="45.6183467" lon="9.084895"><ele>213.25</ele><time>2026-04-11T14:16:05.938Z</time></trkpt><trkpt lat="45.6183417" lon="9.0847183"><ele>212.5</ele><time>2026-04-11T14:16:06.938Z</time></trkpt><trkpt lat="45.618335" lon="9.0845433"><ele>211.75</ele><time>2026-04-11T14:16:07.938Z</time></trkpt><trkpt lat="45.618295" lon="9.0843517"><ele>211.0</ele><time>2026-04-11T14:16:08.938Z</time></trkpt><trkpt lat="45.6182967" lon="9.084135"><ele>210.33333333333331</ele><time>2026-04-11T14:16:09.938Z</time></trkpt><trkpt lat="45.6182867" lon="9.0838983"><ele>209.66666666666669</ele><time>2026-04-11T14:16:10.938Z</time></trkpt><trkpt lat="45.61828" lon="9.0836617"><ele>209.0</ele><time>2026-04-11T14:16:11.938Z</time></trkpt><trkpt lat="45.6182717" lon="9.0834267"><ele>209.25</ele><time>2026-04-11T14:16:12.938Z</time></trkpt><trkpt lat="45.61825" lon="9.0832083"><ele>209.5</ele><time>2026-04-11T14:16:13.938Z</time></trkpt><trkpt lat="45.6182333" lon="9.0830167"><ele>209.75</ele><time>2026-04-11T14:16:14.938Z</time></trkpt><trkpt lat="45.618225" lon="9.0828417"><ele>210.0</ele><time>2026-04-11T14:16:15.938Z</time></trkpt><trkpt lat="45.6182183" lon="9.0827"><ele>210.0</ele><time>2026-04-11T14:16:16.938Z</time></trkpt><trkpt lat="45.6182283" lon="9.0825667"><ele>210.0</ele><time>2026-04-11T14:16:17.938Z</time></trkpt><trkpt lat="45.6182267" lon="9.082445"><ele>210.0</ele><time>2026-04-11T14:16:18.938Z</time></trkpt><trkpt lat="45.6182217" lon="9.0823283"><ele>210.0</ele><time>2026-04-11T14:16:19.938Z</time></trkpt><trkpt lat="45.6182117" lon="9.0822267"><ele>210.0</ele><time>2026-04-11T14:16:20.938Z</time></trkpt><trkpt lat="45.6181967" lon="9.08206"><ele>209.83333333333334</ele><time>2026-04-11T14:16:22.938Z</time></trkpt><trkpt lat="45.618185" lon="9.0819333"><ele>209.66666666666669</ele><time>2026-04-11T14:16:24.938Z</time></trkpt><trkpt lat="45.6181733" lon="9.0818183"><ele>209.5</ele><time>2026-04-11T14:16:26.938Z</time></trkpt><trkpt lat="45.61817" lon="9.0817067"><ele>209.33333333333334</ele><time>2026-04-11T14:16:28.937Z</time></trkpt><trkpt lat="45.6181683" lon="9.081585"><ele>209.16666666666669</ele><time>2026-04-11T14:16:31.938Z</time></trkpt><trkpt lat="45.6181467" lon="9.081485"><ele>209.0</ele><time>2026-04-11T14:16:33.938Z</time></trkpt><trkpt lat="45.61814" lon="9.081345"><ele>209.0</ele><time>2026-04-11T14:16:35.938Z</time></trkpt><trkpt lat="45.6181367" lon="9.0812217"><ele>209.0</ele><time>2026-04-11T14:16:37.938Z</time></trkpt><trkpt lat="45.618135" lon="9.08106"><ele>209.0</ele><time>2026-04-11T14:16:54.938Z</time></trkpt><trkpt lat="45.618135" lon="9.0809383"><ele>209.0</ele><time>2026-04-11T14:16:55.938Z</time></trkpt><trkpt lat="45.6181367" lon="9.080795"><ele>209.0</ele><time>2026-04-11T14:16:56.938Z</time></trkpt><trkpt lat="45.618135" lon="9.080615"><ele>209.33333333333334</ele><time>2026-04-11T14:16:57.938Z</time></trkpt><trkpt lat="45.61813" lon="9.08041"><ele>209.66666666666669</ele><time>2026-04-11T14:16:58.938Z</time></trkpt><trkpt lat="45.61812" lon="9.0801883"><ele>210.0</ele><time>2026-04-11T14:16:59.938Z</time></trkpt><trkpt lat="45.6181067" lon="9.0799383"><ele>210.0</ele><time>2026-04-11T14:17:00.938Z</time></trkpt><trkpt lat="45.61808" lon="9.07967"><ele>210.0</ele><time>2026-04-11T14:17:01.938Z</time></trkpt><trkpt lat="45.6180617" lon="9.0793633"><ele>210.0</ele><time>2026-04-11T14:17:02.938Z</time></trkpt><trkpt lat="45.6180517" lon="9.0790633"><ele>210.0</ele><time>2026-04-11T14:17:03.938Z</time></trkpt><trkpt lat="45.6180367" lon="9.078785"><ele>210.0</ele><time>2026-04-11T14:17:04.938Z</time></trkpt><trkpt lat="45.618025" lon="9.0784917"><ele>210.0</ele><time>2026-04-11T14:17:05.938Z</time></trkpt><trkpt lat="45.618" lon="9.0782017"><ele>210.66666666666669</ele><time>2026-04-11T14:17:06.938Z</time></trkpt><trkpt lat="45.6179817" lon="9.077915"><ele>211.33333333333334</ele><time>2026-04-11T14:17:07.938Z</time></trkpt><trkpt lat="45.61797" lon="9.0776433"><ele>212.0</ele><time>2026-04-11T14:17:08.938Z</time></trkpt><trkpt lat="45.6179617" lon="9.0774133"><ele>212.25</ele><time>2026-04-11T14:17:09.938Z</time></trkpt><trkpt lat="45.6179517" lon="9.0771983"><ele>212.5</ele><time>2026-04-11T14:17:10.938Z</time></trkpt><trkpt lat="45.6179417" lon="9.0770133"><ele>212.75</ele><time>2026-04-11T14:17:11.938Z</time></trkpt><trkpt lat="45.617935" lon="9.0768367"><ele>213.0</ele><time>2026-04-11T14:17:12.938Z</time></trkpt><trkpt lat="45.6179217" lon="9.07667"><ele>212.75</ele><time>2026-04-11T14:17:13.938Z</time></trkpt><trkpt lat="45.6179083" lon="9.0764917"><ele>212.5</ele><time>2026-04-11T14:17:14.938Z</time></trkpt><trkpt lat="45.6179" lon="9.0763"><ele>212.25</ele><time>2026-04-11T14:17:15.938Z</time></trkpt><trkpt lat="45.617885" lon="9.0760967"><ele>212.0</ele><time>2026-04-11T14:17:16.938Z</time></trkpt><trkpt lat="45.6178683" lon="9.0758483"><ele>211.66666666666669</ele><time>2026-04-11T14:17:17.938Z</time></trkpt><trkpt lat="45.6178567" lon="9.0755633"><ele>211.33333333333331</ele><time>2026-04-11T14:17:18.938Z</time></trkpt><trkpt lat="45.61784" lon="9.07528"><ele>211.0</ele><time>2026-04-11T14:17:19.938Z</time></trkpt><trkpt lat="45.6178317" lon="9.07503"><ele>211.0</ele><time>2026-04-11T14:17:20.937Z</time></trkpt><trkpt lat="45.6178267" lon="9.0748183"><ele>211.0</ele><time>2026-04-11T14:17:21.938Z</time></trkpt><trkpt lat="45.61782" lon="9.0746567"><ele>211.0</ele><time>2026-04-11T14:17:22.938Z</time></trkpt><trkpt lat="45.61781" lon="9.0745433"><ele>211.0</ele><time>2026-04-11T14:17:23.938Z</time></trkpt><trkpt lat="45.6177867" lon="9.0744417"><ele>211.0</ele><time>2026-04-11T14:17:46.937Z</time></trkpt><trkpt lat="45.61778" lon="9.07423"><ele>211.0</ele><time>2026-04-11T14:17:48.937Z</time></trkpt><trkpt lat="45.6177667" lon="9.07406"><ele>211.0</ele><time>2026-04-11T14:17:49.937Z</time></trkpt><trkpt lat="45.617755" lon="9.07385"><ele>211.0</ele><time>2026-04-11T14:17:50.937Z</time></trkpt><trkpt lat="45.6177467" lon="9.0736067"><ele>211.0</ele><time>2026-04-11T14:17:51.937Z</time></trkpt><trkpt lat="45.617735" lon="9.0733517"><ele>210.66666666666666</ele><time>2026-04-11T14:17:52.937Z</time></trkpt><trkpt lat="45.61772" lon="9.0730917"><ele>210.33333333333331</ele><time>2026-04-11T14:17:53.937Z</time></trkpt><trkpt lat="45.6177067" lon="9.0728183"><ele>210.0</ele><time>2026-04-11T14:17:54.937Z</time></trkpt><trkpt lat="45.617695" lon="9.0725283"><ele>210.0</ele><time>2026-04-11T14:17:55.937Z</time></trkpt><trkpt lat="45.6176883" lon="9.0722283"><ele>210.0</ele><time>2026-04-11T14:17:56.937Z</time></trkpt><trkpt lat="45.617675" lon="9.0719183"><ele>210.0</ele><time>2026-04-11T14:17:57.937Z</time></trkpt><trkpt lat="45.6176717" lon="9.0715917"><ele>210.0</ele><time>2026-04-11T14:17:58.937Z</time></trkpt><trkpt lat="45.6176533" lon="9.071265"><ele>210.0</ele><time>2026-04-11T14:17:59.937Z</time></trkpt><trkpt lat="45.617645" lon="9.0709517"><ele>210.0</ele><time>2026-04-11T14:18:00.937Z</time></trkpt><trkpt lat="45.6176317" lon="9.0706583"><ele>209.66666666666669</ele><time>2026-04-11T14:18:01.937Z</time></trkpt><trkpt lat="45.6176267" lon="9.0703867"><ele>209.33333333333334</ele><time>2026-04-11T14:18:02.937Z</time></trkpt><trkpt lat="45.6176283" lon="9.0701333"><ele>209.0</ele><time>2026-04-11T14:18:03.936Z</time></trkpt><trkpt lat="45.617625" lon="9.06989"><ele>209.0</ele><time>2026-04-11T14:18:04.937Z</time></trkpt><trkpt lat="45.617625" lon="9.0696617"><ele>209.0</ele><time>2026-04-11T14:18:05.936Z</time></trkpt><trkpt lat="45.617625" lon="9.069445"><ele>209.0</ele><time>2026-04-11T14:18:06.937Z</time></trkpt><trkpt lat="45.617625" lon="9.0692467"><ele>209.0</ele><time>2026-04-11T14:18:07.937Z</time></trkpt><trkpt lat="45.6176317" lon="9.0690767"><ele>209.0</ele><time>2026-04-11T14:18:08.937Z</time></trkpt><trkpt lat="45.617635" lon="9.06891"><ele>209.0</ele><time>2026-04-11T14:18:09.937Z</time></trkpt><trkpt lat="45.617645" lon="9.0687767"><ele>209.0</ele><time>2026-04-11T14:18:10.937Z</time></trkpt><trkpt lat="45.6176583" lon="9.0686867"><ele>209.0</ele><time>2026-04-11T14:18:11.937Z</time></trkpt><trkpt lat="45.61769" lon="9.0686033"><ele>209.00000000000003</ele><time>2026-04-11T14:18:17.937Z</time></trkpt><trkpt lat="45.6177333" lon="9.0684283"><ele>209.0</ele><time>2026-04-11T14:18:19.937Z</time></trkpt><trkpt lat="45.61773" lon="9.0683183"><ele>209.0</ele><time>2026-04-11T14:18:20.937Z</time></trkpt><trkpt lat="45.61772" lon="9.0682133"><ele>209.0</ele><time>2026-04-11T14:18:21.937Z</time></trkpt><trkpt lat="45.6176917" lon="9.0681167"><ele>209.00000000000003</ele><time>2026-04-11T14:18:22.936Z</time></trkpt><trkpt lat="45.6176567" lon="9.068015"><ele>209.0</ele><time>2026-04-11T14:18:23.937Z</time></trkpt><trkpt lat="45.617615" lon="9.0678983"><ele>209.39999999999998</ele><time>2026-04-11T14:18:24.937Z</time></trkpt><trkpt lat="45.61758" lon="9.06776"><ele>209.8</ele><time>2026-04-11T14:18:25.937Z</time></trkpt><trkpt lat="45.6175617" lon="9.0676367"><ele>210.2</ele><time>2026-04-11T14:18:26.937Z</time></trkpt><trkpt lat="45.6175583" lon="9.0674917"><ele>210.60000000000002</ele><time>2026-04-11T14:18:27.937Z</time></trkpt><trkpt lat="45.6175567" lon="9.06734"><ele>211.0</ele><time>2026-04-11T14:18:28.937Z</time></trkpt><trkpt lat="45.6175583" lon="9.06719"><ele>211.0</ele><time>2026-04-11T14:18:29.937Z</time></trkpt><trkpt lat="45.61755" lon="9.0670483"><ele>211.0</ele><time>2026-04-11T14:18:30.937Z</time></trkpt><trkpt lat="45.6175417" lon="9.0669033"><ele>211.0</ele><time>2026-04-11T14:18:31.937Z</time></trkpt><trkpt lat="45.6175417" lon="9.0667617"><ele>211.0</ele><time>2026-04-11T14:18:32.937Z</time></trkpt><trkpt lat="45.6175467" lon="9.0666117"><ele>211.0</ele><time>2026-04-11T14:18:33.937Z</time></trkpt><trkpt lat="45.6175467" lon="9.066455"><ele>211.0</ele><time>2026-04-11T14:18:34.937Z</time></trkpt><trkpt lat="45.617535" lon="9.066265"><ele>211.0</ele><time>2026-04-11T14:18:35.937Z</time></trkpt><trkpt lat="45.61752" lon="9.0660283"><ele>211.0</ele><time>2026-04-11T14:18:36.937Z</time></trkpt><trkpt lat="45.6175067" lon="9.0657517"><ele>211.0</ele><time>2026-04-11T14:18:37.937Z</time></trkpt><trkpt lat="45.6175017" lon="9.06545"><ele>211.0</ele><time>2026-04-11T14:18:38.937Z</time></trkpt><trkpt lat="45.61751" lon="9.0651333"><ele>211.0</ele><time>2026-04-11T14:18:39.937Z</time></trkpt><trkpt lat="45.6175117" lon="9.06483"><ele>211.0</ele><time>2026-04-11T14:18:40.937Z</time></trkpt><trkpt lat="45.6175" lon="9.0645533"><ele>211.0</ele><time>2026-04-11T14:18:41.937Z</time></trkpt><trkpt lat="45.6175" lon="9.0642983"><ele>211.0</ele><time>2026-04-11T14:18:42.937Z</time></trkpt><trkpt lat="45.6175033" lon="9.0640717"><ele>210.75</ele><time>2026-04-11T14:18:43.937Z</time></trkpt><trkpt lat="45.6175133" lon="9.0638633"><ele>210.5</ele><time>2026-04-11T14:18:44.937Z</time></trkpt><trkpt lat="45.617525" lon="9.0636667"><ele>210.25</ele><time>2026-04-11T14:18:45.937Z</time></trkpt><trkpt lat="45.61753" lon="9.06348"><ele>210.0</ele><time>2026-04-11T14:18:46.937Z</time></trkpt><trkpt lat="45.6175417" lon="9.0633167"><ele>210.0</ele><time>2026-04-11T14:18:47.937Z</time></trkpt><trkpt lat="45.6175783" lon="9.0631483"><ele>210.0</ele><time>2026-04-11T14:18:48.937Z</time></trkpt><trkpt lat="45.6176317" lon="9.0629867"><ele>210.0</ele><time>2026-04-11T14:18:49.937Z</time></trkpt><trkpt lat="45.61769" lon="9.0628417"><ele>210.0</ele><time>2026-04-11T14:18:50.937Z</time></trkpt><trkpt lat="45.6177367" lon="9.06271"><ele>210.0</ele><time>2026-04-11T14:18:51.936Z</time></trkpt><trkpt lat="45.617755" lon="9.0625817"><ele>210.0</ele><time>2026-04-11T14:18:52.937Z</time></trkpt><trkpt lat="45.6177417" lon="9.0624483"><ele>210.0</ele><time>2026-04-11T14:18:53.937Z</time></trkpt><trkpt lat="45.6176867" lon="9.0622983"><ele>210.0</ele><time>2026-04-11T14:18:54.937Z</time></trkpt><trkpt lat="45.617615" lon="9.0621333"><ele>210.0</ele><time>2026-04-11T14:18:55.937Z</time></trkpt><trkpt lat="45.61754" lon="9.0619533"><ele>210.0</ele><time>2026-04-11T14:18:56.937Z</time></trkpt><trkpt lat="45.6174867" lon="9.06176"><ele>210.0</ele><time>2026-04-11T14:18:57.937Z</time></trkpt><trkpt lat="45.61745" lon="9.0615633"><ele>210.0</ele><time>2026-04-11T14:18:58.937Z</time></trkpt><trkpt lat="45.6174333" lon="9.061365"><ele>210.0</ele><time>2026-04-11T14:18:59.936Z</time></trkpt><trkpt lat="45.6174267" lon="9.0611483"><ele>208.66666666666669</ele><time>2026-04-11T14:19:00.937Z</time></trkpt><trkpt lat="45.6174217" lon="9.0609267"><ele>207.33333333333334</ele><time>2026-04-11T14:19:01.937Z</time></trkpt><trkpt lat="45.6174167" lon="9.0607183"><ele>206.0</ele><time>2026-04-11T14:19:02.937Z</time></trkpt><trkpt lat="45.6174133" lon="9.060505"><ele>205.66666666666669</ele><time>2026-04-11T14:19:03.937Z</time></trkpt><trkpt lat="45.61741" lon="9.0602917"><ele>205.33333333333331</ele><time>2026-04-11T14:19:04.937Z</time></trkpt><trkpt lat="45.6174067" lon="9.060075"><ele>205.0</ele><time>2026-04-11T14:19:05.937Z</time></trkpt><trkpt lat="45.6174067" lon="9.059855"><ele>205.0</ele><time>2026-04-11T14:19:06.937Z</time></trkpt><trkpt lat="45.6174033" lon="9.0596317"><ele>205.0</ele><time>2026-04-11T14:19:07.937Z</time></trkpt><trkpt lat="45.6174017" lon="9.0594067"><ele>205.0</ele><time>2026-04-11T14:19:08.937Z</time></trkpt><trkpt lat="45.6173967" lon="9.05918"><ele>206.0</ele><time>2026-04-11T14:19:09.936Z</time></trkpt><trkpt lat="45.6173933" lon="9.0589517"><ele>207.0</ele><time>2026-04-11T14:19:10.937Z</time></trkpt><trkpt lat="45.617385" lon="9.0587133"><ele>208.0</ele><time>2026-04-11T14:19:11.937Z</time></trkpt><trkpt lat="45.61738" lon="9.0584667"><ele>208.0</ele><time>2026-04-11T14:19:12.937Z</time></trkpt><trkpt lat="45.61737" lon="9.0582183"><ele>208.0</ele><time>2026-04-11T14:19:13.937Z</time></trkpt><trkpt lat="45.6173633" lon="9.0579683"><ele>208.0</ele><time>2026-04-11T14:19:14.937Z</time></trkpt><trkpt lat="45.6173583" lon="9.05773"><ele>208.0</ele><time>2026-04-11T14:19:15.937Z</time></trkpt><trkpt lat="45.6173533" lon="9.0574967"><ele>208.0</ele><time>2026-04-11T14:19:16.937Z</time></trkpt><trkpt lat="45.6173467" lon="9.05726"><ele>208.0</ele><time>2026-04-11T14:19:17.937Z</time></trkpt><trkpt lat="45.61734" lon="9.057045"><ele>208.0</ele><time>2026-04-11T14:19:18.937Z</time></trkpt><trkpt lat="45.61733" lon="9.0568367"><ele>208.0</ele><time>2026-04-11T14:19:19.937Z</time></trkpt><trkpt lat="45.61733" lon="9.0566417"><ele>208.0</ele><time>2026-04-11T14:19:20.937Z</time></trkpt><trkpt lat="45.6173267" lon="9.0564517"><ele>208.0</ele><time>2026-04-11T14:19:21.937Z</time></trkpt><trkpt lat="45.6173217" lon="9.0562633"><ele>208.0</ele><time>2026-04-11T14:19:22.937Z</time></trkpt><trkpt lat="45.6173167" lon="9.0560833"><ele>208.0</ele><time>2026-04-11T14:19:23.937Z</time></trkpt><trkpt lat="45.61731" lon="9.0559133"><ele>208.0</ele><time>2026-04-11T14:19:24.937Z</time></trkpt><trkpt lat="45.6173033" lon="9.0557567"><ele>208.0</ele><time>2026-04-11T14:19:25.937Z</time></trkpt><trkpt lat="45.6172917" lon="9.0556133"><ele>207.60000000000002</ele><time>2026-04-11T14:19:26.937Z</time></trkpt><trkpt lat="45.61728" lon="9.0554667"><ele>207.20000000000002</ele><time>2026-04-11T14:19:27.937Z</time></trkpt><trkpt lat="45.617275" lon="9.055325"><ele>206.8</ele><time>2026-04-11T14:19:28.937Z</time></trkpt><trkpt lat="45.6172667" lon="9.0551917"><ele>206.4</ele><time>2026-04-11T14:19:29.937Z</time></trkpt><trkpt lat="45.6172583" lon="9.0550767"><ele>206.0</ele><time>2026-04-11T14:19:30.937Z</time></trkpt><trkpt lat="45.6172533" lon="9.05496"><ele>205.8</ele><time>2026-04-11T14:19:31.937Z</time></trkpt><trkpt lat="45.6172483" lon="9.054825"><ele>205.60000000000002</ele><time>2026-04-11T14:19:32.937Z</time></trkpt><trkpt lat="45.6172317" lon="9.054685"><ele>205.4</ele><time>2026-04-11T14:19:33.937Z</time></trkpt><trkpt lat="45.6172017" lon="9.0545467"><ele>205.2</ele><time>2026-04-11T14:19:34.937Z</time></trkpt><trkpt lat="45.6171633" lon="9.0544017"><ele>205.0</ele><time>2026-04-11T14:19:35.937Z</time></trkpt><trkpt lat="45.6171367" lon="9.0542383"><ele>205.5</ele><time>2026-04-11T14:19:36.937Z</time></trkpt><trkpt lat="45.617115" lon="9.054065"><ele>206.0</ele><time>2026-04-11T14:19:37.937Z</time></trkpt><trkpt lat="45.617095" lon="9.05389"><ele>206.5</ele><time>2026-04-11T14:19:38.937Z</time></trkpt><trkpt lat="45.6170717" lon="9.05373"><ele>207.0</ele><time>2026-04-11T14:19:39.937Z</time></trkpt><trkpt lat="45.6170433" lon="9.0535833"><ele>207.0</ele><time>2026-04-11T14:19:40.937Z</time></trkpt><trkpt lat="45.6170067" lon="9.0534183"><ele>207.0</ele><time>2026-04-11T14:19:41.936Z</time></trkpt><trkpt lat="45.616985" lon="9.0532383"><ele>207.0</ele><time>2026-04-11T14:19:42.937Z</time></trkpt><trkpt lat="45.61696" lon="9.0530667"><ele>207.0</ele><time>2026-04-11T14:19:43.937Z</time></trkpt><trkpt lat="45.6169267" lon="9.0528983"><ele>207.25</ele><time>2026-04-11T14:19:44.937Z</time></trkpt><trkpt lat="45.61689" lon="9.0527133"><ele>207.5</ele><time>2026-04-11T14:19:45.937Z</time></trkpt><trkpt lat="45.61685" lon="9.05254"><ele>207.75</ele><time>2026-04-11T14:19:46.937Z</time></trkpt><trkpt lat="45.6168033" lon="9.0523533"><ele>208.0</ele><time>2026-04-11T14:19:47.937Z</time></trkpt><trkpt lat="45.6167633" lon="9.0521567"><ele>208.0</ele><time>2026-04-11T14:19:48.937Z</time></trkpt><trkpt lat="45.61672" lon="9.0519533"><ele>208.0</ele><time>2026-04-11T14:19:49.937Z</time></trkpt><trkpt lat="45.6166833" lon="9.0517367"><ele>208.0</ele><time>2026-04-11T14:19:50.937Z</time></trkpt><trkpt lat="45.6166467" lon="9.0515267"><ele>208.0</ele><time>2026-04-11T14:19:51.937Z</time></trkpt><trkpt lat="45.6166083" lon="9.05132"><ele>208.0</ele><time>2026-04-11T14:19:52.937Z</time></trkpt><trkpt lat="45.6165733" lon="9.0511167"><ele>208.0</ele><time>2026-04-11T14:19:53.937Z</time></trkpt><trkpt lat="45.6165383" lon="9.050905"><ele>208.0</ele><time>2026-04-11T14:19:54.937Z</time></trkpt><trkpt lat="45.6165" lon="9.0506917"><ele>208.0</ele><time>2026-04-11T14:19:55.937Z</time></trkpt><trkpt lat="45.6164617" lon="9.05049"><ele>208.0</ele><time>2026-04-11T14:19:56.937Z</time></trkpt><trkpt lat="45.6164233" lon="9.0502917"><ele>208.0</ele><time>2026-04-11T14:19:57.937Z</time></trkpt><trkpt lat="45.616385" lon="9.0501083"><ele>208.0</ele><time>2026-04-11T14:19:58.937Z</time></trkpt><trkpt lat="45.6163417" lon="9.04993"><ele>207.25</ele><time>2026-04-11T14:19:59.937Z</time></trkpt><trkpt lat="45.616305" lon="9.0497417"><ele>206.5</ele><time>2026-04-11T14:20:00.937Z</time></trkpt><trkpt lat="45.616265" lon="9.0495367"><ele>205.75</ele><time>2026-04-11T14:20:01.937Z</time></trkpt><trkpt lat="45.61623" lon="9.04934"><ele>205.0</ele><time>2026-04-11T14:20:02.937Z</time></trkpt><trkpt lat="45.6161967" lon="9.0491583"><ele>205.0</ele><time>2026-04-11T14:20:03.937Z</time></trkpt><trkpt lat="45.616165" lon="9.04898"><ele>205.0</ele><time>2026-04-11T14:20:04.937Z</time></trkpt><trkpt lat="45.6161367" lon="9.0488083"><ele>205.0</ele><time>2026-04-11T14:20:05.937Z</time></trkpt><trkpt lat="45.6161017" lon="9.0486267"><ele>205.0</ele><time>2026-04-11T14:20:06.936Z</time></trkpt><trkpt lat="45.61607" lon="9.0484533"><ele>205.25</ele><time>2026-04-11T14:20:07.937Z</time></trkpt><trkpt lat="45.616045" lon="9.0482833"><ele>205.5</ele><time>2026-04-11T14:20:08.937Z</time></trkpt><trkpt lat="45.6160217" lon="9.0481283"><ele>205.75</ele><time>2026-04-11T14:20:09.937Z</time></trkpt><trkpt lat="45.6160033" lon="9.04797"><ele>206.0</ele><time>2026-04-11T14:20:10.937Z</time></trkpt><trkpt lat="45.6159817" lon="9.0478167"><ele>206.0</ele><time>2026-04-11T14:20:11.937Z</time></trkpt><trkpt lat="45.6159583" lon="9.0476817"><ele>206.0</ele><time>2026-04-11T14:20:12.937Z</time></trkpt><trkpt lat="45.6159333" lon="9.0475567"><ele>206.0</ele><time>2026-04-11T14:20:13.937Z</time></trkpt><trkpt lat="45.6159167" lon="9.0474467"><ele>206.0</ele><time>2026-04-11T14:20:14.937Z</time></trkpt><trkpt lat="45.61588" lon="9.0472883"><ele>206.0</ele><time>2026-04-11T14:20:16.937Z</time></trkpt><trkpt lat="45.6158567" lon="9.047155"><ele>206.00000000000003</ele><time>2026-04-11T14:20:18.937Z</time></trkpt><trkpt lat="45.615855" lon="9.0469833"><ele>206.0</ele><time>2026-04-11T14:20:20.937Z</time></trkpt><trkpt lat="45.6158767" lon="9.0468767"><ele>206.0</ele><time>2026-04-11T14:20:21.937Z</time></trkpt><trkpt lat="45.6159017" lon="9.046775"><ele>206.0</ele><time>2026-04-11T14:20:22.937Z</time></trkpt><trkpt lat="45.615925" lon="9.04667"><ele>206.00000000000003</ele><time>2026-04-11T14:20:23.937Z</time></trkpt><trkpt lat="45.6159383" lon="9.0465683"><ele>206.0</ele><time>2026-04-11T14:20:24.937Z</time></trkpt><trkpt lat="45.6159333" lon="9.046475"><ele>206.00000000000003</ele><time>2026-04-11T14:20:25.937Z</time></trkpt><trkpt lat="45.61587" lon="9.0463283"><ele>206.0</ele><time>2026-04-11T14:20:27.937Z</time></trkpt><trkpt lat="45.6158167" lon="9.0462617"><ele>206.0</ele><time>2026-04-11T14:20:28.937Z</time></trkpt><trkpt lat="45.615745" lon="9.046175"><ele>206.0</ele><time>2026-04-11T14:20:29.937Z</time></trkpt><trkpt lat="45.6156833" lon="9.0460867"><ele>206.00000000000003</ele><time>2026-04-11T14:20:30.937Z</time></trkpt><trkpt lat="45.6156483" lon="9.04599"><ele>206.0</ele><time>2026-04-11T14:20:31.937Z</time></trkpt><trkpt lat="45.6156217" lon="9.0458817"><ele>206.20000000000002</ele><time>2026-04-11T14:20:32.936Z</time></trkpt><trkpt lat="45.61558" lon="9.0457467"><ele>206.4</ele><time>2026-04-11T14:20:33.937Z</time></trkpt><trkpt lat="45.61555" lon="9.0455917"><ele>206.6</ele><time>2026-04-11T14:20:34.937Z</time></trkpt><trkpt lat="45.6155117" lon="9.0454433"><ele>206.8</ele><time>2026-04-11T14:20:35.937Z</time></trkpt><trkpt lat="45.6154783" lon="9.0452883"><ele>207.0</ele><time>2026-04-11T14:20:36.937Z</time></trkpt><trkpt lat="45.615445" lon="9.045135"><ele>207.0</ele><time>2026-04-11T14:20:37.937Z</time></trkpt><trkpt lat="45.6154067" lon="9.0449633"><ele>207.0</ele><time>2026-04-11T14:20:38.937Z</time></trkpt><trkpt lat="45.6153717" lon="9.0448117"><ele>207.0</ele><time>2026-04-11T14:20:39.937Z</time></trkpt><trkpt lat="45.6153417" lon="9.0446417"><ele>207.0</ele><time>2026-04-11T14:20:40.937Z</time></trkpt><trkpt lat="45.6153083" lon="9.044495"><ele>206.5</ele><time>2026-04-11T14:20:41.937Z</time></trkpt><trkpt lat="45.615275" lon="9.0443583"><ele>206.0</ele><time>2026-04-11T14:20:42.937Z</time></trkpt><trkpt lat="45.615235" lon="9.044215"><ele>205.5</ele><time>2026-04-11T14:20:43.937Z</time></trkpt><trkpt lat="45.6151833" lon="9.0440217"><ele>205.0</ele><time>2026-04-11T14:20:44.937Z</time></trkpt><trkpt lat="45.6151233" lon="9.0438"><ele>204.66666666666666</ele><time>2026-04-11T14:20:45.937Z</time></trkpt><trkpt lat="45.61506" lon="9.043555"><ele>204.33333333333331</ele><time>2026-04-11T14:20:46.937Z</time></trkpt><trkpt lat="45.6149967" lon="9.0433083"><ele>204.0</ele><time>2026-04-11T14:20:47.936Z</time></trkpt><trkpt lat="45.61495" lon="9.0430783"><ele>203.66666666666669</ele><time>2026-04-11T14:20:48.937Z</time></trkpt><trkpt lat="45.6148967" lon="9.0428733"><ele>203.33333333333334</ele><time>2026-04-11T14:20:49.937Z</time></trkpt><trkpt lat="45.6148367" lon="9.04265"><ele>203.0</ele><time>2026-04-11T14:20:50.937Z</time></trkpt><trkpt lat="45.6147733" lon="9.042415"><ele>202.66666666666669</ele><time>2026-04-11T14:20:51.937Z</time></trkpt><trkpt lat="45.614715" lon="9.04218"><ele>202.33333333333331</ele><time>2026-04-11T14:20:52.937Z</time></trkpt><trkpt lat="45.6146617" lon="9.041945"><ele>202.0</ele><time>2026-04-11T14:20:53.937Z</time></trkpt><trkpt lat="45.614605" lon="9.0417033"><ele>202.0</ele><time>2026-04-11T14:20:54.937Z</time></trkpt><trkpt lat="45.6145483" lon="9.0414683"><ele>202.0</ele><time>2026-04-11T14:20:55.937Z</time></trkpt><trkpt lat="45.6144967" lon="9.0412533"><ele>202.0</ele><time>2026-04-11T14:20:56.937Z</time></trkpt><trkpt lat="45.6144467" lon="9.0410683"><ele>202.0</ele><time>2026-04-11T14:20:57.937Z</time></trkpt><trkpt lat="45.614405" lon="9.040895"><ele>202.0</ele><time>2026-04-11T14:20:58.937Z</time></trkpt><trkpt lat="45.6143617" lon="9.04074"><ele>202.0</ele><time>2026-04-11T14:20:59.937Z</time></trkpt><trkpt lat="45.6143233" lon="9.040595"><ele>202.0</ele><time>2026-04-11T14:21:00.937Z</time></trkpt><trkpt lat="45.6143017" lon="9.04048"><ele>202.0</ele><time>2026-04-11T14:21:01.937Z</time></trkpt><trkpt lat="45.614285" lon="9.04039"><ele>202.2</ele><time>2026-04-11T14:21:02.937Z</time></trkpt><trkpt lat="45.6142667" lon="9.0402683"><ele>202.39999999999998</ele><time>2026-04-11T14:21:04.937Z</time></trkpt><trkpt lat="45.6142433" lon="9.04014"><ele>202.60000000000002</ele><time>2026-04-11T14:21:06.937Z</time></trkpt><trkpt lat="45.6141883" lon="9.0399633"><ele>202.8</ele><time>2026-04-11T14:21:08.936Z</time></trkpt><trkpt lat="45.6141517" lon="9.0398433"><ele>203.0</ele><time>2026-04-11T14:21:09.936Z</time></trkpt><trkpt lat="45.614115" lon="9.0397033"><ele>203.0</ele><time>2026-04-11T14:21:10.936Z</time></trkpt><trkpt lat="45.6140783" lon="9.0395517"><ele>203.0</ele><time>2026-04-11T14:21:11.936Z</time></trkpt><trkpt lat="45.614035" lon="9.0394033"><ele>203.0</ele><time>2026-04-11T14:21:12.936Z</time></trkpt><trkpt lat="45.6139883" lon="9.03925"><ele>203.0</ele><time>2026-04-11T14:21:13.936Z</time></trkpt><trkpt lat="45.6139533" lon="9.039105"><ele>203.0</ele><time>2026-04-11T14:21:14.936Z</time></trkpt><trkpt lat="45.6139117" lon="9.0389333"><ele>203.0</ele><time>2026-04-11T14:21:15.936Z</time></trkpt><trkpt lat="45.61387" lon="9.0387617"><ele>203.0</ele><time>2026-04-11T14:21:16.935Z</time></trkpt><trkpt lat="45.6138333" lon="9.038595"><ele>203.0</ele><time>2026-04-11T14:21:17.936Z</time></trkpt><trkpt lat="45.613785" lon="9.038415"><ele>203.0</ele><time>2026-04-11T14:21:18.936Z</time></trkpt><trkpt lat="45.6137333" lon="9.03823"><ele>203.0</ele><time>2026-04-11T14:21:19.936Z</time></trkpt><trkpt lat="45.6136833" lon="9.0380417"><ele>203.0</ele><time>2026-04-11T14:21:20.936Z</time></trkpt><trkpt lat="45.6136383" lon="9.037855"><ele>203.0</ele><time>2026-04-11T14:21:21.936Z</time></trkpt><trkpt lat="45.6135983" lon="9.0376933"><ele>203.0</ele><time>2026-04-11T14:21:22.936Z</time></trkpt><trkpt lat="45.6135617" lon="9.037525"><ele>203.0</ele><time>2026-04-11T14:21:23.935Z</time></trkpt><trkpt lat="45.6135183" lon="9.0373467"><ele>203.0</ele><time>2026-04-11T14:21:24.936Z</time></trkpt><trkpt lat="45.6134733" lon="9.03716"><ele>203.0</ele><time>2026-04-11T14:21:25.936Z</time></trkpt><trkpt lat="45.61343" lon="9.03699"><ele>203.0</ele><time>2026-04-11T14:21:26.936Z</time></trkpt><trkpt lat="45.6133833" lon="9.036815"><ele>203.0</ele><time>2026-04-11T14:21:27.936Z</time></trkpt><trkpt lat="45.6133367" lon="9.0366533"><ele>203.0</ele><time>2026-04-11T14:21:28.936Z</time></trkpt><trkpt lat="45.613305" lon="9.0365133"><ele>203.0</ele><time>2026-04-11T14:21:29.936Z</time></trkpt><trkpt lat="45.61327" lon="9.036385"><ele>203.0</ele><time>2026-04-11T14:21:30.935Z</time></trkpt><trkpt lat="45.613235" lon="9.03624"><ele>203.0</ele><time>2026-04-11T14:21:31.936Z</time></trkpt><trkpt lat="45.6132033" lon="9.0361067"><ele>203.0</ele><time>2026-04-11T14:21:32.936Z</time></trkpt><trkpt lat="45.6131667" lon="9.0359783"><ele>203.0</ele><time>2026-04-11T14:21:33.936Z</time></trkpt><trkpt lat="45.6131417" lon="9.035845"><ele>203.0</ele><time>2026-04-11T14:21:34.936Z</time></trkpt><trkpt lat="45.6131133" lon="9.0357183"><ele>203.0</ele><time>2026-04-11T14:21:35.936Z</time></trkpt><trkpt lat="45.6130817" lon="9.03558"><ele>203.0</ele><time>2026-04-11T14:21:36.936Z</time></trkpt><trkpt lat="45.6130533" lon="9.0354583"><ele>203.16666666666669</ele><time>2026-04-11T14:21:37.936Z</time></trkpt><trkpt lat="45.6130367" lon="9.0353467"><ele>203.33333333333334</ele><time>2026-04-11T14:21:38.936Z</time></trkpt><trkpt lat="45.613025" lon="9.0352567"><ele>203.5</ele><time>2026-04-11T14:21:39.936Z</time></trkpt><trkpt lat="45.61304" lon="9.0351033"><ele>203.66666666666669</ele><time>2026-04-11T14:21:41.936Z</time></trkpt><trkpt lat="45.613055" lon="9.0349783"><ele>203.83333333333334</ele><time>2026-04-11T14:21:47.936Z</time></trkpt><trkpt lat="45.6130783" lon="9.03484"><ele>204.0</ele><time>2026-04-11T14:21:49.936Z</time></trkpt><trkpt lat="45.613095" lon="9.03475"><ele>203.6</ele><time>2026-04-11T14:21:50.936Z</time></trkpt><trkpt lat="45.6131" lon="9.0345717"><ele>203.2</ele><time>2026-04-11T14:21:52.936Z</time></trkpt><trkpt lat="45.6130367" lon="9.034425"><ele>202.79999999999998</ele><time>2026-04-11T14:21:54.936Z</time></trkpt><trkpt lat="45.612985" lon="9.0343583"><ele>202.39999999999998</ele><time>2026-04-11T14:21:55.936Z</time></trkpt><trkpt lat="45.6129317" lon="9.0342917"><ele>202.0</ele><time>2026-04-11T14:21:56.936Z</time></trkpt><trkpt lat="45.61288" lon="9.0342133"><ele>202.2</ele><time>2026-04-11T14:21:57.936Z</time></trkpt><trkpt lat="45.6128267" lon="9.0341183"><ele>202.39999999999998</ele><time>2026-04-11T14:21:58.936Z</time></trkpt><trkpt lat="45.6127783" lon="9.03401"><ele>202.60000000000002</ele><time>2026-04-11T14:21:59.935Z</time></trkpt><trkpt lat="45.612735" lon="9.0338817"><ele>202.8</ele><time>2026-04-11T14:22:00.936Z</time></trkpt><trkpt lat="45.6126867" lon="9.0337467"><ele>203.0</ele><time>2026-04-11T14:22:01.936Z</time></trkpt><trkpt lat="45.6126433" lon="9.033615"><ele>203.0</ele><time>2026-04-11T14:22:02.936Z</time></trkpt><trkpt lat="45.6126067" lon="9.0334733"><ele>203.0</ele><time>2026-04-11T14:22:03.936Z</time></trkpt><trkpt lat="45.61257" lon="9.033325"><ele>203.0</ele><time>2026-04-11T14:22:04.936Z</time></trkpt><trkpt lat="45.61253" lon="9.0331583"><ele>203.0</ele><time>2026-04-11T14:22:05.936Z</time></trkpt><trkpt lat="45.6124933" lon="9.03298"><ele>203.0</ele><time>2026-04-11T14:22:06.936Z</time></trkpt><trkpt lat="45.6124533" lon="9.032795"><ele>203.0</ele><time>2026-04-11T14:22:07.936Z</time></trkpt><trkpt lat="45.6124217" lon="9.0326067"><ele>203.0</ele><time>2026-04-11T14:22:08.936Z</time></trkpt><trkpt lat="45.6124017" lon="9.032415"><ele>203.0</ele><time>2026-04-11T14:22:09.936Z</time></trkpt><trkpt lat="45.61239" lon="9.03223"><ele>202.5</ele><time>2026-04-11T14:22:10.936Z</time></trkpt><trkpt lat="45.61237" lon="9.0320467"><ele>202.0</ele><time>2026-04-11T14:22:11.936Z</time></trkpt><trkpt lat="45.61235" lon="9.0318633"><ele>201.5</ele><time>2026-04-11T14:22:12.936Z</time></trkpt><trkpt lat="45.61233" lon="9.0316833"><ele>201.0</ele><time>2026-04-11T14:22:13.936Z</time></trkpt><trkpt lat="45.6123" lon="9.0315183"><ele>200.75</ele><time>2026-04-11T14:22:14.936Z</time></trkpt><trkpt lat="45.6122767" lon="9.0313583"><ele>200.5</ele><time>2026-04-11T14:22:15.936Z</time></trkpt><trkpt lat="45.6122433" lon="9.03119"><ele>200.25</ele><time>2026-04-11T14:22:16.936Z</time></trkpt><trkpt lat="45.6122133" lon="9.0310183"><ele>200.0</ele><time>2026-04-11T14:22:17.936Z</time></trkpt><trkpt lat="45.6121767" lon="9.0308433"><ele>199.75</ele><time>2026-04-11T14:22:18.936Z</time></trkpt><trkpt lat="45.6121383" lon="9.0306683"><ele>199.5</ele><time>2026-04-11T14:22:19.936Z</time></trkpt><trkpt lat="45.6121" lon="9.030495"><ele>199.25</ele><time>2026-04-11T14:22:20.936Z</time></trkpt><trkpt lat="45.61206" lon="9.030315"><ele>199.0</ele><time>2026-04-11T14:22:21.935Z</time></trkpt><trkpt lat="45.6120117" lon="9.0301017"><ele>199.0</ele><time>2026-04-11T14:22:22.935Z</time></trkpt><trkpt lat="45.6119667" lon="9.0298583"><ele>199.0</ele><time>2026-04-11T14:22:23.936Z</time></trkpt><trkpt lat="45.6119283" lon="9.0295967"><ele>199.0</ele><time>2026-04-11T14:22:24.935Z</time></trkpt><trkpt lat="45.611895" lon="9.0293383"><ele>198.66666666666666</ele><time>2026-04-11T14:22:25.936Z</time></trkpt><trkpt lat="45.6118717" lon="9.0291"><ele>198.33333333333331</ele><time>2026-04-11T14:22:26.936Z</time></trkpt><trkpt lat="45.6118467" lon="9.028875"><ele>198.0</ele><time>2026-04-11T14:22:27.935Z</time></trkpt><trkpt lat="45.611825" lon="9.02867"><ele>198.0</ele><time>2026-04-11T14:22:28.936Z</time></trkpt><trkpt lat="45.6118067" lon="9.0284733"><ele>198.0</ele><time>2026-04-11T14:22:29.936Z</time></trkpt><trkpt lat="45.6118017" lon="9.02829"><ele>198.0</ele><time>2026-04-11T14:22:30.936Z</time></trkpt><trkpt lat="45.6118033" lon="9.028105"><ele>198.0</ele><time>2026-04-11T14:22:31.936Z</time></trkpt><trkpt lat="45.6118117" lon="9.0279317"><ele>197.8</ele><time>2026-04-11T14:22:32.936Z</time></trkpt><trkpt lat="45.6118267" lon="9.02777"><ele>197.60000000000002</ele><time>2026-04-11T14:22:33.936Z</time></trkpt><trkpt lat="45.61184" lon="9.0276217"><ele>197.39999999999998</ele><time>2026-04-11T14:22:34.936Z</time></trkpt><trkpt lat="45.6118483" lon="9.02748"><ele>197.2</ele><time>2026-04-11T14:22:35.936Z</time></trkpt><trkpt lat="45.6118533" lon="9.0273533"><ele>197.0</ele><time>2026-04-11T14:22:36.936Z</time></trkpt><trkpt lat="45.611855" lon="9.0272233"><ele>197.00000000000003</ele><time>2026-04-11T14:22:37.936Z</time></trkpt><trkpt lat="45.6118617" lon="9.0270983"><ele>197.0</ele><time>2026-04-11T14:22:38.935Z</time></trkpt><trkpt lat="45.6118667" lon="9.026975"><ele>197.0</ele><time>2026-04-11T14:22:39.936Z</time></trkpt><trkpt lat="45.6118717" lon="9.0268583"><ele>197.0</ele><time>2026-04-11T14:22:40.936Z</time></trkpt><trkpt lat="45.6118683" lon="9.0267483"><ele>197.00000000000003</ele><time>2026-04-11T14:22:41.936Z</time></trkpt><trkpt lat="45.61187" lon="9.0266417"><ele>197.0</ele><time>2026-04-11T14:22:42.936Z</time></trkpt><trkpt lat="45.6118733" lon="9.02655"><ele>197.16666666666669</ele><time>2026-04-11T14:22:43.936Z</time></trkpt><trkpt lat="45.6118767" lon="9.0264017"><ele>197.33333333333334</ele><time>2026-04-11T14:22:45.936Z</time></trkpt><trkpt lat="45.6118883" lon="9.0263033"><ele>197.5</ele><time>2026-04-11T14:22:47.936Z</time></trkpt><trkpt lat="45.611885" lon="9.0262"><ele>197.66666666666669</ele><time>2026-04-11T14:22:54.936Z</time></trkpt><trkpt lat="45.6118967" lon="9.02609"><ele>197.83333333333334</ele><time>2026-04-11T14:22:58.936Z</time></trkpt><trkpt lat="45.6119017" lon="9.02598"><ele>198.0</ele><time>2026-04-11T14:23:01.936Z</time></trkpt><trkpt lat="45.6118983" lon="9.02585"><ele>198.2</ele><time>2026-04-11T14:23:04.936Z</time></trkpt><trkpt lat="45.6118917" lon="9.025685"><ele>198.4</ele><time>2026-04-11T14:23:06.935Z</time></trkpt><trkpt lat="45.6118983" lon="9.025585"><ele>198.6</ele><time>2026-04-11T14:23:07.936Z</time></trkpt><trkpt lat="45.6119117" lon="9.025425"><ele>198.79999999999998</ele><time>2026-04-11T14:23:09.936Z</time></trkpt><trkpt lat="45.611925" lon="9.0252917"><ele>199.0</ele><time>2026-04-11T14:23:15.936Z</time></trkpt><trkpt lat="45.6119317" lon="9.0251783"><ele>198.99999999999997</ele><time>2026-04-11T14:23:18.936Z</time></trkpt><trkpt lat="45.6119483" lon="9.0250783"><ele>199.0</ele><time>2026-04-11T14:23:21.936Z</time></trkpt><trkpt lat="45.61196" lon="9.024975"><ele>199.0</ele><time>2026-04-11T14:23:35.935Z</time></trkpt><trkpt lat="45.6119733" lon="9.0248517"><ele>199.0</ele><time>2026-04-11T14:23:38.936Z</time></trkpt><trkpt lat="45.611995" lon="9.0247333"><ele>198.99999999999997</ele><time>2026-04-11T14:24:39.935Z</time></trkpt><trkpt lat="45.6119917" lon="9.0246233"><ele>199.0</ele><time>2026-04-11T14:24:45.936Z</time></trkpt><trkpt lat="45.6119867" lon="9.0245167"><ele>198.99999999999997</ele><time>2026-04-11T14:24:48.936Z</time></trkpt><trkpt lat="45.6119783" lon="9.024425"><ele>199.0</ele><time>2026-04-11T14:24:51.936Z</time></trkpt><trkpt lat="45.6119717" lon="9.0243283"><ele>199.0</ele><time>2026-04-11T14:24:54.935Z</time></trkpt><trkpt lat="45.6119683" lon="9.0242383"><ele>199.0</ele><time>2026-04-11T14:24:57.934Z</time></trkpt><trkpt lat="45.6119733" lon="9.0241433"><ele>199.0</ele><time>2026-04-11T14:24:59.935Z</time></trkpt><trkpt lat="45.6119783" lon="9.0240417"><ele>198.99999999999997</ele><time>2026-04-11T14:25:01.935Z</time></trkpt><trkpt lat="45.611985" lon="9.02394"><ele>199.0</ele><time>2026-04-11T14:25:03.935Z</time></trkpt><trkpt lat="45.611995" lon="9.0238233"><ele>198.99999999999997</ele><time>2026-04-11T14:25:05.935Z</time></trkpt><trkpt lat="45.6120133" lon="9.02367"><ele>199.0</ele><time>2026-04-11T14:25:07.935Z</time></trkpt><trkpt lat="45.6120217" lon="9.02356"><ele>199.0</ele><time>2026-04-11T14:25:09.935Z</time></trkpt><trkpt lat="45.6120217" lon="9.0234667"><ele>199.0</ele><time>2026-04-11T14:25:13.935Z</time></trkpt><trkpt lat="45.612025" lon="9.0233533"><ele>198.99999999999997</ele><time>2026-04-11T14:25:22.935Z</time></trkpt><trkpt lat="45.6120167" lon="9.0232483"><ele>199.0</ele><time>2026-04-11T14:25:43.929Z</time></trkpt><trkpt lat="45.6120383" lon="9.0231083"><ele>198.79999999999998</ele><time>2026-04-11T14:25:45.934Z</time></trkpt><trkpt lat="45.612065" lon="9.0229517"><ele>198.6</ele><time>2026-04-11T14:25:47.935Z</time></trkpt><trkpt lat="45.6120717" lon="9.0228233"><ele>198.4</ele><time>2026-04-11T14:25:49.935Z</time></trkpt><trkpt lat="45.612055" lon="9.0227"><ele>198.2</ele><time>2026-04-11T14:25:51.935Z</time></trkpt><trkpt lat="45.61204" lon="9.0225633"><ele>198.0</ele><time>2026-04-11T14:25:53.935Z</time></trkpt><trkpt lat="45.6120283" lon="9.022405"><ele>197.60000000000002</ele><time>2026-04-11T14:25:55.935Z</time></trkpt><trkpt lat="45.6120333" lon="9.0222217"><ele>197.20000000000002</ele><time>2026-04-11T14:25:57.935Z</time></trkpt><trkpt lat="45.61205" lon="9.022065"><ele>196.8</ele><time>2026-04-11T14:25:59.935Z</time></trkpt><trkpt lat="45.6120633" lon="9.021955"><ele>196.4</ele><time>2026-04-11T14:26:01.935Z</time></trkpt><trkpt lat="45.6120733" lon="9.021865"><ele>196.0</ele><time>2026-04-11T14:26:04.935Z</time></trkpt><trkpt lat="45.61207" lon="9.0217483"><ele>195.99999999999997</ele><time>2026-04-11T14:26:09.935Z</time></trkpt><trkpt lat="45.61208" lon="9.021655"><ele>196.0</ele><time>2026-04-11T14:26:12.935Z</time></trkpt><trkpt lat="45.612085" lon="9.0215483"><ele>196.0</ele><time>2026-04-11T14:26:16.935Z</time></trkpt><trkpt lat="45.6120883" lon="9.02142"><ele>196.0</ele><time>2026-04-11T14:26:20.935Z</time></trkpt><trkpt lat="45.612095" lon="9.02132"><ele>195.99999999999997</ele><time>2026-04-11T14:26:22.935Z</time></trkpt><trkpt lat="45.6120983" lon="9.0212"><ele>196.0</ele><time>2026-04-11T14:26:25.935Z</time></trkpt><trkpt lat="45.61211" lon="9.0210783"><ele>196.4</ele><time>2026-04-11T14:26:29.935Z</time></trkpt><trkpt lat="45.6121317" lon="9.0209483"><ele>196.8</ele><time>2026-04-11T14:26:39.935Z</time></trkpt><trkpt lat="45.6121617" lon="9.020855"><ele>197.20000000000002</ele><time>2026-04-11T14:26:42.935Z</time></trkpt><trkpt lat="45.6122133" lon="9.0207767"><ele>197.60000000000002</ele><time>2026-04-11T14:26:45.935Z</time></trkpt><trkpt lat="45.6123283" lon="9.02064"><ele>198.0</ele><time>2026-04-11T14:26:47.935Z</time></trkpt><trkpt lat="45.6124267" lon="9.0205517"><ele>198.0</ele><time>2026-04-11T14:26:48.934Z</time></trkpt><trkpt lat="45.6125433" lon="9.02048"><ele>198.0</ele><time>2026-04-11T14:26:49.935Z</time></trkpt><trkpt lat="45.612675" lon="9.0204317"><ele>198.0</ele><time>2026-04-11T14:26:50.935Z</time></trkpt><trkpt lat="45.6128267" lon="9.0204067"><ele>198.0</ele><time>2026-04-11T14:26:51.935Z</time></trkpt><trkpt lat="45.6129867" lon="9.0203933"><ele>197.66666666666669</ele><time>2026-04-11T14:26:52.935Z</time></trkpt><trkpt lat="45.6131567" lon="9.0203767"><ele>197.33333333333334</ele><time>2026-04-11T14:26:53.935Z</time></trkpt><trkpt lat="45.61334" lon="9.0203433"><ele>197.0</ele><time>2026-04-11T14:26:54.935Z</time></trkpt><trkpt lat="45.6135267" lon="9.02032"><ele>198.0</ele><time>2026-04-11T14:26:55.934Z</time></trkpt><trkpt lat="45.6137217" lon="9.0202917"><ele>199.0</ele><time>2026-04-11T14:26:56.935Z</time></trkpt><trkpt lat="45.6139133" lon="9.0202683"><ele>200.0</ele><time>2026-04-11T14:26:57.935Z</time></trkpt><trkpt lat="45.6141" lon="9.0202317"><ele>200.0</ele><time>2026-04-11T14:26:58.935Z</time></trkpt><trkpt lat="45.61427" lon="9.0202033"><ele>200.0</ele><time>2026-04-11T14:26:59.935Z</time></trkpt><trkpt lat="45.6144233" lon="9.0201867"><ele>200.0</ele><time>2026-04-11T14:27:00.935Z</time></trkpt><trkpt lat="45.6145783" lon="9.0201717"><ele>200.5</ele><time>2026-04-11T14:27:01.935Z</time></trkpt><trkpt lat="45.6147283" lon="9.02016"><ele>201.0</ele><time>2026-04-11T14:27:02.934Z</time></trkpt><trkpt lat="45.614875" lon="9.020145"><ele>201.5</ele><time>2026-04-11T14:27:03.935Z</time></trkpt><trkpt lat="45.6150233" lon="9.020125"><ele>202.0</ele><time>2026-04-11T14:27:04.935Z</time></trkpt><trkpt lat="45.6151667" lon="9.0201067"><ele>202.0</ele><time>2026-04-11T14:27:05.934Z</time></trkpt><trkpt lat="45.6153133" lon="9.020085"><ele>202.0</ele><time>2026-04-11T14:27:06.935Z</time></trkpt><trkpt lat="45.6154517" lon="9.0200633"><ele>202.0</ele><time>2026-04-11T14:27:07.935Z</time></trkpt><trkpt lat="45.6155883" lon="9.0200517"><ele>202.0</ele><time>2026-04-11T14:27:08.935Z</time></trkpt><trkpt lat="45.6157283" lon="9.0200317"><ele>202.0</ele><time>2026-04-11T14:27:09.935Z</time></trkpt><trkpt lat="45.6158733" lon="9.0200117"><ele>202.0</ele><time>2026-04-11T14:27:10.935Z</time></trkpt><trkpt lat="45.6160083" lon="9.0199883"><ele>202.0</ele><time>2026-04-11T14:27:11.935Z</time></trkpt><trkpt lat="45.61615" lon="9.0199767"><ele>202.0</ele><time>2026-04-11T14:27:12.935Z</time></trkpt><trkpt lat="45.6162917" lon="9.0199583"><ele>202.0</ele><time>2026-04-11T14:27:13.935Z</time></trkpt><trkpt lat="45.6164317" lon="9.019945"><ele>202.0</ele><time>2026-04-11T14:27:14.935Z</time></trkpt><trkpt lat="45.6165683" lon="9.019925"><ele>202.0</ele><time>2026-04-11T14:27:15.935Z</time></trkpt><trkpt lat="45.6166983" lon="9.0199117"><ele>202.0</ele><time>2026-04-11T14:27:16.934Z</time></trkpt><trkpt lat="45.6168283" lon="9.0198883"><ele>202.0</ele><time>2026-04-11T14:27:17.935Z</time></trkpt><trkpt lat="45.6169583" lon="9.019875"><ele>202.0</ele><time>2026-04-11T14:27:18.935Z</time></trkpt><trkpt lat="45.6170883" lon="9.0198583"><ele>202.0</ele><time>2026-04-11T14:27:19.935Z</time></trkpt><trkpt lat="45.6172167" lon="9.0198367"><ele>202.0</ele><time>2026-04-11T14:27:20.935Z</time></trkpt><trkpt lat="45.617345" lon="9.0198133"><ele>202.25</ele><time>2026-04-11T14:27:21.935Z</time></trkpt><trkpt lat="45.6174817" lon="9.01979"><ele>202.5</ele><time>2026-04-11T14:27:22.934Z</time></trkpt><trkpt lat="45.617615" lon="9.0197817"><ele>202.75</ele><time>2026-04-11T14:27:23.935Z</time></trkpt><trkpt lat="45.6177517" lon="9.0197633"><ele>203.0</ele><time>2026-04-11T14:27:24.935Z</time></trkpt><trkpt lat="45.6178867" lon="9.01974"><ele>203.0</ele><time>2026-04-11T14:27:25.935Z</time></trkpt><trkpt lat="45.61802" lon="9.0197183"><ele>203.0</ele><time>2026-04-11T14:27:26.935Z</time></trkpt><trkpt lat="45.61815" lon="9.0196933"><ele>203.0</ele><time>2026-04-11T14:27:27.935Z</time></trkpt><trkpt lat="45.61828" lon="9.01968"><ele>203.0</ele><time>2026-04-11T14:27:28.935Z</time></trkpt><trkpt lat="45.61841" lon="9.0196667"><ele>203.0</ele><time>2026-04-11T14:27:29.935Z</time></trkpt><trkpt lat="45.618545" lon="9.0196567"><ele>203.0</ele><time>2026-04-11T14:27:30.934Z</time></trkpt><trkpt lat="45.618685" lon="9.0196483"><ele>203.0</ele><time>2026-04-11T14:27:31.935Z</time></trkpt><trkpt lat="45.6188417" lon="9.019645"><ele>203.0</ele><time>2026-04-11T14:27:32.935Z</time></trkpt><trkpt lat="45.619015" lon="9.0196367"><ele>203.66666666666669</ele><time>2026-04-11T14:27:33.935Z</time></trkpt><trkpt lat="45.6191917" lon="9.01962"><ele>204.33333333333331</ele><time>2026-04-11T14:27:34.935Z</time></trkpt><trkpt lat="45.6193483" lon="9.0196067"><ele>205.0</ele><time>2026-04-11T14:27:35.935Z</time></trkpt><trkpt lat="45.6194917" lon="9.0195967"><ele>205.49999999999997</ele><time>2026-04-11T14:27:36.935Z</time></trkpt><trkpt lat="45.619605" lon="9.0195967"><ele>206.0</ele><time>2026-04-11T14:27:37.934Z</time></trkpt><trkpt lat="45.619695" lon="9.0195883"><ele>206.5</ele><time>2026-04-11T14:27:38.935Z</time></trkpt><trkpt lat="45.61977" lon="9.01957"><ele>207.0</ele><time>2026-04-11T14:27:39.935Z</time></trkpt><trkpt lat="45.61985" lon="9.0195833"><ele>207.49999999999997</ele><time>2026-04-11T14:27:41.935Z</time></trkpt><trkpt lat="45.6199083" lon="9.01963"><ele>208.0</ele><time>2026-04-11T14:27:44.935Z</time></trkpt><trkpt lat="45.6200117" lon="9.01968"><ele>208.0</ele><time>2026-04-11T14:27:46.935Z</time></trkpt><trkpt lat="45.6201217" lon="9.0196567"><ele>208.0</ele><time>2026-04-11T14:27:48.935Z</time></trkpt><trkpt lat="45.62022" lon="9.0195267"><ele>208.0</ele><time>2026-04-11T14:27:50.935Z</time></trkpt><trkpt lat="45.6202833" lon="9.019465"><ele>208.0</ele><time>2026-04-11T14:27:51.935Z</time></trkpt><trkpt lat="45.6203617" lon="9.019425"><ele>208.0</ele><time>2026-04-11T14:27:52.935Z</time></trkpt><trkpt lat="45.6204483" lon="9.0193967"><ele>208.5</ele><time>2026-04-11T14:27:53.935Z</time></trkpt><trkpt lat="45.6205517" lon="9.019375"><ele>209.0</ele><time>2026-04-11T14:27:54.935Z</time></trkpt><trkpt lat="45.6206683" lon="9.0193483"><ele>209.5</ele><time>2026-04-11T14:27:55.935Z</time></trkpt><trkpt lat="45.6207967" lon="9.01931"><ele>210.0</ele><time>2026-04-11T14:27:56.935Z</time></trkpt><trkpt lat="45.6209233" lon="9.01927"><ele>210.0</ele><time>2026-04-11T14:27:57.935Z</time></trkpt><trkpt lat="45.6210483" lon="9.01923"><ele>210.0</ele><time>2026-04-11T14:27:58.935Z</time></trkpt><trkpt lat="45.62118" lon="9.01918"><ele>210.0</ele><time>2026-04-11T14:27:59.935Z</time></trkpt><trkpt lat="45.6213267" lon="9.0191367"><ele>210.0</ele><time>2026-04-11T14:28:00.935Z</time></trkpt><trkpt lat="45.62148" lon="9.019065"><ele>210.25</ele><time>2026-04-11T14:28:01.935Z</time></trkpt><trkpt lat="45.621615" lon="9.0189867"><ele>210.5</ele><time>2026-04-11T14:28:02.935Z</time></trkpt><trkpt lat="45.6217433" lon="9.0189183"><ele>210.75</ele><time>2026-04-11T14:28:03.935Z</time></trkpt><trkpt lat="45.62185" lon="9.0188683"><ele>211.0</ele><time>2026-04-11T14:28:04.935Z</time></trkpt><trkpt lat="45.62192" lon="9.01883"><ele>210.99999999999997</ele><time>2026-04-11T14:28:05.935Z</time></trkpt><trkpt lat="45.6219917" lon="9.01879"><ele>211.0</ele><time>2026-04-11T14:28:07.935Z</time></trkpt><trkpt lat="45.622055" lon="9.01878"><ele>211.0</ele><time>2026-04-11T14:28:11.935Z</time></trkpt><trkpt lat="45.6221583" lon="9.0187717"><ele>211.0</ele><time>2026-04-11T14:28:14.934Z</time></trkpt><trkpt lat="45.6222233" lon="9.018765"><ele>210.99999999999997</ele><time>2026-04-11T14:28:16.934Z</time></trkpt><trkpt lat="45.6223133" lon="9.0187783"><ele>211.0</ele><time>2026-04-11T14:28:20.934Z</time></trkpt><trkpt lat="45.6223867" lon="9.0187833"><ele>210.99999999999997</ele><time>2026-04-11T14:28:21.934Z</time></trkpt><trkpt lat="45.622465" lon="9.0187717"><ele>211.0</ele><time>2026-04-11T14:28:22.934Z</time></trkpt><trkpt lat="45.62253" lon="9.0187233"><ele>211.0</ele><time>2026-04-11T14:28:23.934Z</time></trkpt><trkpt lat="45.6225767" lon="9.018635"><ele>211.0</ele><time>2026-04-11T14:28:24.934Z</time></trkpt><trkpt lat="45.6225833" lon="9.0185283"><ele>210.99999999999997</ele><time>2026-04-11T14:28:25.934Z</time></trkpt><trkpt lat="45.62255" lon="9.018425"><ele>211.0</ele><time>2026-04-11T14:28:26.934Z</time></trkpt><trkpt lat="45.6224883" lon="9.01833"><ele>211.5</ele><time>2026-04-11T14:28:27.934Z</time></trkpt><trkpt lat="45.6223917" lon="9.0182383"><ele>212.0</ele><time>2026-04-11T14:28:28.934Z</time></trkpt><trkpt lat="45.6222867" lon="9.0181283"><ele>212.5</ele><time>2026-04-11T14:28:29.934Z</time></trkpt><trkpt lat="45.6221717" lon="9.018"><ele>213.0</ele><time>2026-04-11T14:28:30.933Z</time></trkpt><trkpt lat="45.6220633" lon="9.0178617"><ele>213.0</ele><time>2026-04-11T14:28:31.934Z</time></trkpt><trkpt lat="45.6219567" lon="9.0177183"><ele>213.0</ele><time>2026-04-11T14:28:32.934Z</time></trkpt><trkpt lat="45.6218733" lon="9.0175717"><ele>213.0</ele><time>2026-04-11T14:28:33.934Z</time></trkpt><trkpt lat="45.6218067" lon="9.01745"><ele>213.0</ele><time>2026-04-11T14:28:34.933Z</time></trkpt><trkpt lat="45.621765" lon="9.0173583"><ele>213.0</ele><time>2026-04-11T14:28:35.934Z</time></trkpt><trkpt lat="45.62173" lon="9.017245"><ele>213.0</ele><time>2026-04-11T14:28:37.934Z</time></trkpt><trkpt lat="45.621715" lon="9.0171367"><ele>213.0</ele><time>2026-04-11T14:28:39.934Z</time></trkpt><trkpt lat="45.62167" lon="9.017005"><ele>213.0</ele><time>2026-04-11T14:28:41.934Z</time></trkpt><trkpt lat="45.6216217" lon="9.0169433"><ele>213.0</ele><time>2026-04-11T14:28:42.934Z</time></trkpt><trkpt lat="45.6215467" lon="9.0168883"><ele>213.0</ele><time>2026-04-11T14:28:43.934Z</time></trkpt><trkpt lat="45.621465" lon="9.01683"><ele>213.0</ele><time>2026-04-11T14:28:44.933Z</time></trkpt><trkpt lat="45.621385" lon="9.016755"><ele>213.0</ele><time>2026-04-11T14:28:45.934Z</time></trkpt><trkpt lat="45.62131" lon="9.0166617"><ele>213.0</ele><time>2026-04-11T14:28:46.934Z</time></trkpt><trkpt lat="45.6212467" lon="9.0165517"><ele>213.0</ele><time>2026-04-11T14:28:47.934Z</time></trkpt><trkpt lat="45.6211817" lon="9.0164317"><ele>213.0</ele><time>2026-04-11T14:28:48.934Z</time></trkpt><trkpt lat="45.6211133" lon="9.0163117"><ele>213.5</ele><time>2026-04-11T14:28:49.934Z</time></trkpt><trkpt lat="45.6210383" lon="9.0161917"><ele>214.0</ele><time>2026-04-11T14:28:50.933Z</time></trkpt><trkpt lat="45.6209667" lon="9.016075"><ele>214.5</ele><time>2026-04-11T14:28:51.934Z</time></trkpt><trkpt lat="45.6208933" lon="9.0159467"><ele>215.0</ele><time>2026-04-11T14:28:52.934Z</time></trkpt><trkpt lat="45.6208217" lon="9.015805"><ele>215.0</ele><time>2026-04-11T14:28:53.934Z</time></trkpt><trkpt lat="45.6207483" lon="9.0156517"><ele>215.0</ele><time>2026-04-11T14:28:54.934Z</time></trkpt><trkpt lat="45.6206683" lon="9.0155133"><ele>215.0</ele><time>2026-04-11T14:28:55.934Z</time></trkpt><trkpt lat="45.6205933" lon="9.015365"><ele>215.0</ele><time>2026-04-11T14:28:56.933Z</time></trkpt><trkpt lat="45.6205017" lon="9.01522"><ele>215.0</ele><time>2026-04-11T14:28:57.934Z</time></trkpt><trkpt lat="45.62041" lon="9.0150717"><ele>215.0</ele><time>2026-04-11T14:28:58.933Z</time></trkpt><trkpt lat="45.620315" lon="9.0149167"><ele>215.0</ele><time>2026-04-11T14:28:59.934Z</time></trkpt><trkpt lat="45.6202183" lon="9.0147517"><ele>215.0</ele><time>2026-04-11T14:29:00.934Z</time></trkpt><trkpt lat="45.6201283" lon="9.0145933"><ele>213.75</ele><time>2026-04-11T14:29:01.933Z</time></trkpt><trkpt lat="45.62003" lon="9.0144467"><ele>212.5</ele><time>2026-04-11T14:29:02.934Z</time></trkpt><trkpt lat="45.619935" lon="9.0142917"><ele>211.25</ele><time>2026-04-11T14:29:03.934Z</time></trkpt><trkpt lat="45.61985" lon="9.0141417"><ele>210.0</ele><time>2026-04-11T14:29:04.934Z</time></trkpt><trkpt lat="45.6197683" lon="9.0140017"><ele>210.25</ele><time>2026-04-11T14:29:05.934Z</time></trkpt><trkpt lat="45.61969" lon="9.0138467"><ele>210.5</ele><time>2026-04-11T14:29:06.934Z</time></trkpt><trkpt lat="45.6196017" lon="9.01371"><ele>210.75</ele><time>2026-04-11T14:29:07.934Z</time></trkpt><trkpt lat="45.6195167" lon="9.0135667"><ele>211.0</ele><time>2026-04-11T14:29:08.934Z</time></trkpt><trkpt lat="45.619425" lon="9.0134267"><ele>211.25</ele><time>2026-04-11T14:29:09.934Z</time></trkpt><trkpt lat="45.6193367" lon="9.0132883"><ele>211.5</ele><time>2026-04-11T14:29:10.934Z</time></trkpt><trkpt lat="45.6192533" lon="9.0131483"><ele>211.75</ele><time>2026-04-11T14:29:11.934Z</time></trkpt><trkpt lat="45.61917" lon="9.0130083"><ele>212.0</ele><time>2026-04-11T14:29:12.934Z</time></trkpt><trkpt lat="45.6190767" lon="9.0128767"><ele>212.0</ele><time>2026-04-11T14:29:13.934Z</time></trkpt><trkpt lat="45.6189883" lon="9.0127283"><ele>212.0</ele><time>2026-04-11T14:29:14.934Z</time></trkpt><trkpt lat="45.6188967" lon="9.01257"><ele>212.0</ele><time>2026-04-11T14:29:15.934Z</time></trkpt><trkpt lat="45.618805" lon="9.0124033"><ele>212.0</ele><time>2026-04-11T14:29:16.934Z</time></trkpt><trkpt lat="45.6187283" lon="9.012245"><ele>212.25</ele><time>2026-04-11T14:29:17.934Z</time></trkpt><trkpt lat="45.6186417" lon="9.0120967"><ele>212.5</ele><time>2026-04-11T14:29:18.933Z</time></trkpt><trkpt lat="45.61856" lon="9.0119367"><ele>212.75</ele><time>2026-04-11T14:29:19.934Z</time></trkpt><trkpt lat="45.61847" lon="9.011795"><ele>213.0</ele><time>2026-04-11T14:29:20.933Z</time></trkpt><trkpt lat="45.6183717" lon="9.0116667"><ele>212.5</ele><time>2026-04-11T14:29:21.934Z</time></trkpt><trkpt lat="45.618285" lon="9.0115183"><ele>212.0</ele><time>2026-04-11T14:29:22.933Z</time></trkpt><trkpt lat="45.618195" lon="9.01137"><ele>211.5</ele><time>2026-04-11T14:29:23.934Z</time></trkpt><trkpt lat="45.6181117" lon="9.0112217"><ele>211.0</ele><time>2026-04-11T14:29:24.934Z</time></trkpt><trkpt lat="45.6180283" lon="9.0110883"><ele>211.0</ele><time>2026-04-11T14:29:25.934Z</time></trkpt><trkpt lat="45.6179517" lon="9.0109633"><ele>211.0</ele><time>2026-04-11T14:29:26.934Z</time></trkpt><trkpt lat="45.617875" lon="9.0108283"><ele>211.0</ele><time>2026-04-11T14:29:27.934Z</time></trkpt><trkpt lat="45.617805" lon="9.0107017"><ele>211.0</ele><time>2026-04-11T14:29:28.934Z</time></trkpt><trkpt lat="45.6177333" lon="9.0105783"><ele>211.0</ele><time>2026-04-11T14:29:29.934Z</time></trkpt><trkpt lat="45.6176633" lon="9.0104583"><ele>211.0</ele><time>2026-04-11T14:29:30.934Z</time></trkpt><trkpt lat="45.6175917" lon="9.0103517"><ele>211.0</ele><time>2026-04-11T14:29:31.934Z</time></trkpt><trkpt lat="45.6175267" lon="9.0102317"><ele>211.0</ele><time>2026-04-11T14:29:32.934Z</time></trkpt><trkpt lat="45.6174567" lon="9.0101083"><ele>211.0</ele><time>2026-04-11T14:29:33.934Z</time></trkpt><trkpt lat="45.6173883" lon="9.0099867"><ele>211.0</ele><time>2026-04-11T14:29:34.934Z</time></trkpt><trkpt lat="45.6173133" lon="9.00986"><ele>211.0</ele><time>2026-04-11T14:29:35.934Z</time></trkpt><trkpt lat="45.6172383" lon="9.0097317"><ele>211.0</ele><time>2026-04-11T14:29:36.933Z</time></trkpt><trkpt lat="45.61716" lon="9.0095933"><ele>211.0</ele><time>2026-04-11T14:29:37.934Z</time></trkpt><trkpt lat="45.6170717" lon="9.0094517"><ele>211.0</ele><time>2026-04-11T14:29:38.934Z</time></trkpt><trkpt lat="45.6169967" lon="9.00932"><ele>211.0</ele><time>2026-04-11T14:29:39.934Z</time></trkpt><trkpt lat="45.6169217" lon="9.0091733"><ele>211.0</ele><time>2026-04-11T14:29:40.934Z</time></trkpt><trkpt lat="45.61683" lon="9.00903"><ele>211.0</ele><time>2026-04-11T14:29:41.934Z</time></trkpt><trkpt lat="45.6167433" lon="9.0088733"><ele>211.0</ele><time>2026-04-11T14:29:42.934Z</time></trkpt><trkpt lat="45.6166433" lon="9.0087333"><ele>211.0</ele><time>2026-04-11T14:29:43.934Z</time></trkpt><trkpt lat="45.616545" lon="9.0085717"><ele>211.0</ele><time>2026-04-11T14:29:44.934Z</time></trkpt><trkpt lat="45.6164433" lon="9.00842"><ele>211.0</ele><time>2026-04-11T14:29:45.934Z</time></trkpt><trkpt lat="45.61635" lon="9.0082583"><ele>210.33333333333331</ele><time>2026-04-11T14:29:46.933Z</time></trkpt><trkpt lat="45.6162567" lon="9.0080817"><ele>209.66666666666669</ele><time>2026-04-11T14:29:47.934Z</time></trkpt><trkpt lat="45.6161683" lon="9.007895"><ele>209.0</ele><time>2026-04-11T14:29:48.934Z</time></trkpt><trkpt lat="45.61607" lon="9.007745"><ele>208.5</ele><time>2026-04-11T14:29:49.934Z</time></trkpt><trkpt lat="45.6159733" lon="9.00759"><ele>208.0</ele><time>2026-04-11T14:29:50.934Z</time></trkpt><trkpt lat="45.61588" lon="9.0074233"><ele>207.5</ele><time>2026-04-11T14:29:51.933Z</time></trkpt><trkpt lat="45.6157733" lon="9.007275"><ele>207.0</ele><time>2026-04-11T14:29:52.934Z</time></trkpt><trkpt lat="45.6156867" lon="9.00712"><ele>207.0</ele><time>2026-04-11T14:29:53.934Z</time></trkpt><trkpt lat="45.6156" lon="9.0069583"><ele>207.0</ele><time>2026-04-11T14:29:54.934Z</time></trkpt><trkpt lat="45.6155117" lon="9.0068067"><ele>207.0</ele><time>2026-04-11T14:29:55.934Z</time></trkpt><trkpt lat="45.6154283" lon="9.0066717"><ele>207.0</ele><time>2026-04-11T14:29:56.934Z</time></trkpt><trkpt lat="45.6153483" lon="9.0065217"><ele>207.0</ele><time>2026-04-11T14:29:57.933Z</time></trkpt><trkpt lat="45.6152683" lon="9.0063883"><ele>207.0</ele><time>2026-04-11T14:29:58.934Z</time></trkpt><trkpt lat="45.6151967" lon="9.00626"><ele>207.0</ele><time>2026-04-11T14:29:59.934Z</time></trkpt><trkpt lat="45.6151167" lon="9.0061467"><ele>207.0</ele><time>2026-04-11T14:30:00.934Z</time></trkpt><trkpt lat="45.6150433" lon="9.0060167"><ele>207.0</ele><time>2026-04-11T14:30:01.934Z</time></trkpt><trkpt lat="45.614965" lon="9.0058883"><ele>207.0</ele><time>2026-04-11T14:30:02.934Z</time></trkpt><trkpt lat="45.6148983" lon="9.0057483"><ele>207.0</ele><time>2026-04-11T14:30:03.934Z</time></trkpt><trkpt lat="45.6148067" lon="9.0056117"><ele>207.0</ele><time>2026-04-11T14:30:04.934Z</time></trkpt><trkpt lat="45.6147383" lon="9.0054617"><ele>207.0</ele><time>2026-04-11T14:30:05.934Z</time></trkpt><trkpt lat="45.61467" lon="9.00532"><ele>207.0</ele><time>2026-04-11T14:30:06.934Z</time></trkpt><trkpt lat="45.61461" lon="9.005185"><ele>207.0</ele><time>2026-04-11T14:30:07.934Z</time></trkpt><trkpt lat="45.6145433" lon="9.00507"><ele>207.0</ele><time>2026-04-11T14:30:08.934Z</time></trkpt><trkpt lat="45.6144833" lon="9.004945"><ele>207.0</ele><time>2026-04-11T14:30:09.934Z</time></trkpt><trkpt lat="45.6144317" lon="9.0048117"><ele>207.0</ele><time>2026-04-11T14:30:10.934Z</time></trkpt><trkpt lat="45.6143817" lon="9.004685"><ele>207.0</ele><time>2026-04-11T14:30:11.934Z</time></trkpt><trkpt lat="45.6143217" lon="9.00456"><ele>207.0</ele><time>2026-04-11T14:30:12.934Z</time></trkpt><trkpt lat="45.6142783" lon="9.00443"><ele>207.0</ele><time>2026-04-11T14:30:13.934Z</time></trkpt><trkpt lat="45.6142283" lon="9.0042983"><ele>207.0</ele><time>2026-04-11T14:30:14.934Z</time></trkpt><trkpt lat="45.6141817" lon="9.00416"><ele>207.0</ele><time>2026-04-11T14:30:15.934Z</time></trkpt><trkpt lat="45.614145" lon="9.00401"><ele>207.0</ele><time>2026-04-11T14:30:16.934Z</time></trkpt><trkpt lat="45.614105" lon="9.0038667"><ele>207.0</ele><time>2026-04-11T14:30:17.934Z</time></trkpt><trkpt lat="45.614065" lon="9.0037183"><ele>207.0</ele><time>2026-04-11T14:30:18.934Z</time></trkpt><trkpt lat="45.61402" lon="9.0035717"><ele>207.0</ele><time>2026-04-11T14:30:19.934Z</time></trkpt><trkpt lat="45.6139967" lon="9.0034333"><ele>206.8</ele><time>2026-04-11T14:30:20.934Z</time></trkpt><trkpt lat="45.61396" lon="9.0032883"><ele>206.6</ele><time>2026-04-11T14:30:21.934Z</time></trkpt><trkpt lat="45.61393" lon="9.0031433"><ele>206.4</ele><time>2026-04-11T14:30:22.934Z</time></trkpt><trkpt lat="45.6138983" lon="9.0030267"><ele>206.20000000000002</ele><time>2026-04-11T14:30:23.934Z</time></trkpt><trkpt lat="45.613875" lon="9.0028983"><ele>206.0</ele><time>2026-04-11T14:30:24.934Z</time></trkpt><trkpt lat="45.613855" lon="9.00277"><ele>206.0</ele><time>2026-04-11T14:30:25.934Z</time></trkpt><trkpt lat="45.613835" lon="9.0026433"><ele>206.0</ele><time>2026-04-11T14:30:26.934Z</time></trkpt><trkpt lat="45.6138167" lon="9.0025017"><ele>206.0</ele><time>2026-04-11T14:30:27.934Z</time></trkpt><trkpt lat="45.613795" lon="9.00236"><ele>206.0</ele><time>2026-04-11T14:30:28.934Z</time></trkpt><trkpt lat="45.6137717" lon="9.00222"><ele>206.0</ele><time>2026-04-11T14:30:29.934Z</time></trkpt><trkpt lat="45.6137417" lon="9.0020817"><ele>206.0</ele><time>2026-04-11T14:30:30.934Z</time></trkpt><trkpt lat="45.613725" lon="9.0019433"><ele>206.0</ele><time>2026-04-11T14:30:31.934Z</time></trkpt><trkpt lat="45.6137017" lon="9.0018233"><ele>206.0</ele><time>2026-04-11T14:30:32.934Z</time></trkpt><trkpt lat="45.6136883" lon="9.0016967"><ele>206.0</ele><time>2026-04-11T14:30:33.933Z</time></trkpt><trkpt lat="45.6136817" lon="9.0015567"><ele>206.0</ele><time>2026-04-11T14:30:34.934Z</time></trkpt><trkpt lat="45.6136867" lon="9.0014067"><ele>206.0</ele><time>2026-04-11T14:30:35.934Z</time></trkpt><trkpt lat="45.613685" lon="9.0012567"><ele>206.0</ele><time>2026-04-11T14:30:36.934Z</time></trkpt><trkpt lat="45.6136817" lon="9.0011117"><ele>206.0</ele><time>2026-04-11T14:30:37.934Z</time></trkpt><trkpt lat="45.6136783" lon="9.000955"><ele>206.0</ele><time>2026-04-11T14:30:38.934Z</time></trkpt><trkpt lat="45.6136767" lon="9.00078"><ele>206.0</ele><time>2026-04-11T14:30:39.934Z</time></trkpt><trkpt lat="45.6136733" lon="9.0006033"><ele>206.5</ele><time>2026-04-11T14:30:40.934Z</time></trkpt><trkpt lat="45.6136683" lon="9.00042"><ele>207.0</ele><time>2026-04-11T14:30:41.934Z</time></trkpt><trkpt lat="45.6136717" lon="9.0002383"><ele>207.5</ele><time>2026-04-11T14:30:42.934Z</time></trkpt><trkpt lat="45.6136683" lon="9.00007"><ele>208.0</ele><time>2026-04-11T14:30:43.934Z</time></trkpt><trkpt lat="45.61366" lon="8.99991"><ele>208.0</ele><time>2026-04-11T14:30:44.934Z</time></trkpt><trkpt lat="45.6136517" lon="8.99975"><ele>208.0</ele><time>2026-04-11T14:30:45.934Z</time></trkpt><trkpt lat="45.6136417" lon="8.9996117"><ele>208.0</ele><time>2026-04-11T14:30:46.934Z</time></trkpt><trkpt lat="45.61364" lon="8.999495"><ele>208.0</ele><time>2026-04-11T14:30:47.934Z</time></trkpt><trkpt lat="45.6136333" lon="8.9993933"><ele>208.0</ele><time>2026-04-11T14:30:48.934Z</time></trkpt><trkpt lat="45.6136133" lon="8.9992433"><ele>208.0</ele><time>2026-04-11T14:30:50.934Z</time></trkpt><trkpt lat="45.6136083" lon="8.9990567"><ele>208.0</ele><time>2026-04-11T14:30:52.934Z</time></trkpt><trkpt lat="45.6136117" lon="8.998935"><ele>208.0</ele><time>2026-04-11T14:30:53.934Z</time></trkpt><trkpt lat="45.61361" lon="8.99879"><ele>208.0</ele><time>2026-04-11T14:30:54.934Z</time></trkpt><trkpt lat="45.6136033" lon="8.998635"><ele>208.0</ele><time>2026-04-11T14:30:55.934Z</time></trkpt><trkpt lat="45.6136017" lon="8.9984683"><ele>207.75</ele><time>2026-04-11T14:30:56.934Z</time></trkpt><trkpt lat="45.6135967" lon="8.9982967"><ele>207.5</ele><time>2026-04-11T14:30:57.934Z</time></trkpt><trkpt lat="45.61359" lon="8.99813"><ele>207.25</ele><time>2026-04-11T14:30:58.934Z</time></trkpt><trkpt lat="45.6135833" lon="8.9979583"><ele>207.0</ele><time>2026-04-11T14:30:59.934Z</time></trkpt><trkpt lat="45.6135733" lon="8.9977767"><ele>207.0</ele><time>2026-04-11T14:31:00.933Z</time></trkpt><trkpt lat="45.6135667" lon="8.9975883"><ele>207.0</ele><time>2026-04-11T14:31:01.934Z</time></trkpt><trkpt lat="45.61356" lon="8.997395"><ele>207.0</ele><time>2026-04-11T14:31:02.934Z</time></trkpt><trkpt lat="45.6135467" lon="8.9971933"><ele>207.0</ele><time>2026-04-11T14:31:03.934Z</time></trkpt><trkpt lat="45.613545" lon="8.9969867"><ele>207.0</ele><time>2026-04-11T14:31:04.934Z</time></trkpt><trkpt lat="45.61354" lon="8.9967883"><ele>207.0</ele><time>2026-04-11T14:31:05.934Z</time></trkpt><trkpt lat="45.6135467" lon="8.99661"><ele>207.0</ele><time>2026-04-11T14:31:06.934Z</time></trkpt><trkpt lat="45.6135367" lon="8.9964417"><ele>207.0</ele><time>2026-04-11T14:31:07.934Z</time></trkpt><trkpt lat="45.61353" lon="8.996285"><ele>207.0</ele><time>2026-04-11T14:31:08.934Z</time></trkpt><trkpt lat="45.6135267" lon="8.996135"><ele>207.0</ele><time>2026-04-11T14:31:09.934Z</time></trkpt><trkpt lat="45.613525" lon="8.995985"><ele>207.0</ele><time>2026-04-11T14:31:10.934Z</time></trkpt><trkpt lat="45.6135217" lon="8.9958317"><ele>207.0</ele><time>2026-04-11T14:31:11.934Z</time></trkpt><trkpt lat="45.6135167" lon="8.99568"><ele>207.0</ele><time>2026-04-11T14:31:12.934Z</time></trkpt><trkpt lat="45.6135067" lon="8.9955167"><ele>207.2</ele><time>2026-04-11T14:31:13.934Z</time></trkpt><trkpt lat="45.613495" lon="8.9953633"><ele>207.39999999999998</ele><time>2026-04-11T14:31:14.934Z</time></trkpt><trkpt lat="45.613485" lon="8.9952183"><ele>207.60000000000002</ele><time>2026-04-11T14:31:15.934Z</time></trkpt><trkpt lat="45.6134717" lon="8.9950567"><ele>207.8</ele><time>2026-04-11T14:31:16.934Z</time></trkpt><trkpt lat="45.61346" lon="8.9948783"><ele>208.0</ele><time>2026-04-11T14:31:17.934Z</time></trkpt><trkpt lat="45.61346" lon="8.99469"><ele>208.0</ele><time>2026-04-11T14:31:18.934Z</time></trkpt><trkpt lat="45.6134517" lon="8.9945017"><ele>208.0</ele><time>2026-04-11T14:31:19.934Z</time></trkpt><trkpt lat="45.6134467" lon="8.9943217"><ele>208.0</ele><time>2026-04-11T14:31:20.934Z</time></trkpt><trkpt lat="45.6134383" lon="8.994155"><ele>208.0</ele><time>2026-04-11T14:31:21.934Z</time></trkpt><trkpt lat="45.6134267" lon="8.9939917"><ele>208.0</ele><time>2026-04-11T14:31:22.934Z</time></trkpt><trkpt lat="45.6134233" lon="8.9938233"><ele>208.0</ele><time>2026-04-11T14:31:23.934Z</time></trkpt><trkpt lat="45.6134167" lon="8.9936567"><ele>208.0</ele><time>2026-04-11T14:31:24.934Z</time></trkpt><trkpt lat="45.6134183" lon="8.9934867"><ele>208.0</ele><time>2026-04-11T14:31:25.933Z</time></trkpt><trkpt lat="45.6134217" lon="8.99332"><ele>208.0</ele><time>2026-04-11T14:31:26.933Z</time></trkpt><trkpt lat="45.61341" lon="8.9931683"><ele>208.0</ele><time>2026-04-11T14:31:27.933Z</time></trkpt><trkpt lat="45.61341" lon="8.993005"><ele>208.0</ele><time>2026-04-11T14:31:28.933Z</time></trkpt><trkpt lat="45.6134017" lon="8.9928433"><ele>208.0</ele><time>2026-04-11T14:31:29.933Z</time></trkpt><trkpt lat="45.6134" lon="8.9926783"><ele>208.0</ele><time>2026-04-11T14:31:30.933Z</time></trkpt><trkpt lat="45.6133917" lon="8.9925083"><ele>208.0</ele><time>2026-04-11T14:31:31.933Z</time></trkpt><trkpt lat="45.6133867" lon="8.99236"><ele>208.0</ele><time>2026-04-11T14:31:32.933Z</time></trkpt><trkpt lat="45.6133867" lon="8.9922133"><ele>208.0</ele><time>2026-04-11T14:31:33.933Z</time></trkpt><trkpt lat="45.6133917" lon="8.9920717"><ele>208.0</ele><time>2026-04-11T14:31:34.933Z</time></trkpt><trkpt lat="45.613395" lon="8.9919583"><ele>207.8</ele><time>2026-04-11T14:31:35.933Z</time></trkpt><trkpt lat="45.6134083" lon="8.9917967"><ele>207.60000000000002</ele><time>2026-04-11T14:31:37.933Z</time></trkpt><trkpt lat="45.6134433" lon="8.991675"><ele>207.39999999999998</ele><time>2026-04-11T14:31:39.933Z</time></trkpt><trkpt lat="45.6134833" lon="8.991575"><ele>207.2</ele><time>2026-04-11T14:31:41.933Z</time></trkpt><trkpt lat="45.6135367" lon="8.99147"><ele>207.0</ele><time>2026-04-11T14:31:44.933Z</time></trkpt><trkpt lat="45.6136033" lon="8.9913283"><ele>207.0</ele><time>2026-04-11T14:31:46.932Z</time></trkpt><trkpt lat="45.6136317" lon="8.99124"><ele>207.0</ele><time>2026-04-11T14:31:47.933Z</time></trkpt><trkpt lat="45.6136533" lon="8.99115"><ele>207.0</ele><time>2026-04-11T14:31:48.933Z</time></trkpt><trkpt lat="45.6136383" lon="8.9909967"><ele>207.0</ele><time>2026-04-11T14:31:50.933Z</time></trkpt><trkpt lat="45.6135583" lon="8.99088"><ele>207.0</ele><time>2026-04-11T14:31:52.933Z</time></trkpt><trkpt lat="45.6134917" lon="8.9908183"><ele>207.0</ele><time>2026-04-11T14:31:53.933Z</time></trkpt><trkpt lat="45.6134133" lon="8.9907517"><ele>207.25</ele><time>2026-04-11T14:31:54.933Z</time></trkpt><trkpt lat="45.6133533" lon="8.990645"><ele>207.5</ele><time>2026-04-11T14:31:55.933Z</time></trkpt><trkpt lat="45.6133183" lon="8.9904967"><ele>207.75</ele><time>2026-04-11T14:31:56.933Z</time></trkpt><trkpt lat="45.6133033" lon="8.9903117"><ele>208.0</ele><time>2026-04-11T14:31:57.933Z</time></trkpt><trkpt lat="45.6133" lon="8.9901267"><ele>207.5</ele><time>2026-04-11T14:31:58.933Z</time></trkpt><trkpt lat="45.6132967" lon="8.9899417"><ele>207.0</ele><time>2026-04-11T14:31:59.933Z</time></trkpt><trkpt lat="45.61329" lon="8.9897633"><ele>206.5</ele><time>2026-04-11T14:32:00.933Z</time></trkpt><trkpt lat="45.6132867" lon="8.98957"><ele>206.0</ele><time>2026-04-11T14:32:01.933Z</time></trkpt><trkpt lat="45.613285" lon="8.9893833"><ele>206.0</ele><time>2026-04-11T14:32:02.933Z</time></trkpt><trkpt lat="45.613285" lon="8.9891883"><ele>206.0</ele><time>2026-04-11T14:32:03.933Z</time></trkpt><trkpt lat="45.6132783" lon="8.9889883"><ele>206.0</ele><time>2026-04-11T14:32:04.933Z</time></trkpt><trkpt lat="45.61326" lon="8.988765"><ele>206.0</ele><time>2026-04-11T14:32:05.932Z</time></trkpt><trkpt lat="45.6132483" lon="8.98851"><ele>207.33333333333334</ele><time>2026-04-11T14:32:06.933Z</time></trkpt><trkpt lat="45.6132333" lon="8.9882233"><ele>208.66666666666669</ele><time>2026-04-11T14:32:07.933Z</time></trkpt><trkpt lat="45.6132267" lon="8.9879317"><ele>210.0</ele><time>2026-04-11T14:32:08.932Z</time></trkpt><trkpt lat="45.613225" lon="8.9876667"><ele>210.33333333333331</ele><time>2026-04-11T14:32:09.933Z</time></trkpt><trkpt lat="45.613215" lon="8.9874217"><ele>210.66666666666666</ele><time>2026-04-11T14:32:10.933Z</time></trkpt><trkpt lat="45.6132067" lon="8.9872083"><ele>211.0</ele><time>2026-04-11T14:32:11.933Z</time></trkpt><trkpt lat="45.6132033" lon="8.98702"><ele>211.0</ele><time>2026-04-11T14:32:12.933Z</time></trkpt><trkpt lat="45.6132033" lon="8.9868667"><ele>211.0</ele><time>2026-04-11T14:32:13.933Z</time></trkpt><trkpt lat="45.6132067" lon="8.9867317"><ele>211.0</ele><time>2026-04-11T14:32:14.933Z</time></trkpt><trkpt lat="45.613205" lon="8.9865883"><ele>211.0</ele><time>2026-04-11T14:32:15.933Z</time></trkpt><trkpt lat="45.6132017" lon="8.9864267"><ele>211.0</ele><time>2026-04-11T14:32:16.933Z</time></trkpt><trkpt lat="45.6131917" lon="8.9862633"><ele>210.5</ele><time>2026-04-11T14:32:17.933Z</time></trkpt><trkpt lat="45.6131833" lon="8.9860817"><ele>210.0</ele><time>2026-04-11T14:32:18.933Z</time></trkpt><trkpt lat="45.6131717" lon="8.985895"><ele>209.5</ele><time>2026-04-11T14:32:19.933Z</time></trkpt><trkpt lat="45.6131667" lon="8.9857133"><ele>209.0</ele><time>2026-04-11T14:32:20.933Z</time></trkpt><trkpt lat="45.6131617" lon="8.9855267"><ele>209.0</ele><time>2026-04-11T14:32:21.933Z</time></trkpt><trkpt lat="45.6131617" lon="8.9853317"><ele>209.0</ele><time>2026-04-11T14:32:22.933Z</time></trkpt><trkpt lat="45.613165" lon="8.98514"><ele>209.0</ele><time>2026-04-11T14:32:23.932Z</time></trkpt><trkpt lat="45.6131533" lon="8.9849417"><ele>209.0</ele><time>2026-04-11T14:32:24.933Z</time></trkpt><trkpt lat="45.6131433" lon="8.9847367"><ele>209.0</ele><time>2026-04-11T14:32:25.933Z</time></trkpt><trkpt lat="45.613135" lon="8.9845183"><ele>209.0</ele><time>2026-04-11T14:32:26.933Z</time></trkpt><trkpt lat="45.6131217" lon="8.9843017"><ele>209.0</ele><time>2026-04-11T14:32:27.933Z</time></trkpt><trkpt lat="45.61311" lon="8.98408"><ele>209.33333333333334</ele><time>2026-04-11T14:32:28.933Z</time></trkpt><trkpt lat="45.61311" lon="8.9838517"><ele>209.66666666666669</ele><time>2026-04-11T14:32:29.933Z</time></trkpt><trkpt lat="45.6131017" lon="8.9836133"><ele>210.0</ele><time>2026-04-11T14:32:30.932Z</time></trkpt><trkpt lat="45.613085" lon="8.9833617"><ele>209.66666666666669</ele><time>2026-04-11T14:32:31.933Z</time></trkpt><trkpt lat="45.6130733" lon="8.983075"><ele>209.33333333333334</ele><time>2026-04-11T14:32:32.933Z</time></trkpt><trkpt lat="45.6130533" lon="8.9827617"><ele>209.0</ele><time>2026-04-11T14:32:33.932Z</time></trkpt><trkpt lat="45.6130383" lon="8.9824417"><ele>210.0</ele><time>2026-04-11T14:32:34.933Z</time></trkpt><trkpt lat="45.6130317" lon="8.9821183"><ele>211.0</ele><time>2026-04-11T14:32:35.932Z</time></trkpt><trkpt lat="45.6130233" lon="8.981795"><ele>209.0</ele><time>2026-04-11T14:32:36.933Z</time></trkpt><trkpt lat="45.613015" lon="8.9814533"><ele>207.0</ele><time>2026-04-11T14:32:37.933Z</time></trkpt><trkpt lat="45.6130033" lon="8.981115"><ele>207.5</ele><time>2026-04-11T14:32:38.933Z</time></trkpt><trkpt lat="45.6129917" lon="8.9807767"><ele>208.0</ele><time>2026-04-11T14:32:39.933Z</time></trkpt><trkpt lat="45.6129817" lon="8.9804667"><ele>208.0</ele><time>2026-04-11T14:32:40.933Z</time></trkpt><trkpt lat="45.6129633" lon="8.98018"><ele>208.0</ele><time>2026-04-11T14:32:41.933Z</time></trkpt><trkpt lat="45.6129533" lon="8.9798933"><ele>208.0</ele><time>2026-04-11T14:32:42.933Z</time></trkpt><trkpt lat="45.6129417" lon="8.9796083"><ele>207.66666666666666</ele><time>2026-04-11T14:32:43.933Z</time></trkpt><trkpt lat="45.6129317" lon="8.9793233"><ele>207.33333333333331</ele><time>2026-04-11T14:32:44.933Z</time></trkpt><trkpt lat="45.6129233" lon="8.9790317"><ele>207.0</ele><time>2026-04-11T14:32:45.933Z</time></trkpt><trkpt lat="45.612915" lon="8.97873"><ele>207.66666666666669</ele><time>2026-04-11T14:32:46.933Z</time></trkpt><trkpt lat="45.612905" lon="8.9784267"><ele>208.33333333333334</ele><time>2026-04-11T14:32:47.933Z</time></trkpt><trkpt lat="45.6128967" lon="8.97813"><ele>209.0</ele><time>2026-04-11T14:32:48.933Z</time></trkpt><trkpt lat="45.6128867" lon="8.9778367"><ele>209.66666666666669</ele><time>2026-04-11T14:32:49.933Z</time></trkpt><trkpt lat="45.6128767" lon="8.9775483"><ele>210.33333333333331</ele><time>2026-04-11T14:32:50.933Z</time></trkpt><trkpt lat="45.6128733" lon="8.9772867"><ele>211.0</ele><time>2026-04-11T14:32:51.933Z</time></trkpt><trkpt lat="45.61287" lon="8.9770667"><ele>211.0</ele><time>2026-04-11T14:32:52.933Z</time></trkpt><trkpt lat="45.6128633" lon="8.976875"><ele>211.0</ele><time>2026-04-11T14:32:53.932Z</time></trkpt><trkpt lat="45.6128583" lon="8.9767033"><ele>211.0</ele><time>2026-04-11T14:32:54.933Z</time></trkpt><trkpt lat="45.61285" lon="8.976535"><ele>211.0</ele><time>2026-04-11T14:32:55.933Z</time></trkpt><trkpt lat="45.6128417" lon="8.9763583"><ele>211.25</ele><time>2026-04-11T14:32:56.933Z</time></trkpt><trkpt lat="45.6128367" lon="8.9761583"><ele>211.5</ele><time>2026-04-11T14:32:57.933Z</time></trkpt><trkpt lat="45.6128183" lon="8.9759567"><ele>211.75</ele><time>2026-04-11T14:32:58.933Z</time></trkpt><trkpt lat="45.6128083" lon="8.97574"><ele>212.0</ele><time>2026-04-11T14:32:59.932Z</time></trkpt><trkpt lat="45.6128017" lon="8.9755083"><ele>212.0</ele><time>2026-04-11T14:33:00.933Z</time></trkpt><trkpt lat="45.6127917" lon="8.9752783"><ele>212.0</ele><time>2026-04-11T14:33:01.933Z</time></trkpt><trkpt lat="45.6127833" lon="8.975045"><ele>212.0</ele><time>2026-04-11T14:33:02.933Z</time></trkpt><trkpt lat="45.6127817" lon="8.97481"><ele>213.0</ele><time>2026-04-11T14:33:03.933Z</time></trkpt><trkpt lat="45.6127767" lon="8.9745783"><ele>214.0</ele><time>2026-04-11T14:33:04.933Z</time></trkpt><trkpt lat="45.612765" lon="8.974345"><ele>215.0</ele><time>2026-04-11T14:33:05.933Z</time></trkpt><trkpt lat="45.6127567" lon="8.97412"><ele>215.5</ele><time>2026-04-11T14:33:06.933Z</time></trkpt><trkpt lat="45.61275" lon="8.9739017"><ele>216.0</ele><time>2026-04-11T14:33:07.933Z</time></trkpt><trkpt lat="45.612745" lon="8.9736917"><ele>216.5</ele><time>2026-04-11T14:33:08.933Z</time></trkpt><trkpt lat="45.6127333" lon="8.9734817"><ele>217.0</ele><time>2026-04-11T14:33:09.933Z</time></trkpt><trkpt lat="45.6127267" lon="8.97326"><ele>215.33333333333331</ele><time>2026-04-11T14:33:10.932Z</time></trkpt><trkpt lat="45.6127167" lon="8.9730367"><ele>213.66666666666669</ele><time>2026-04-11T14:33:11.933Z</time></trkpt><trkpt lat="45.6127117" lon="8.9728217"><ele>212.0</ele><time>2026-04-11T14:33:12.933Z</time></trkpt><trkpt lat="45.61271" lon="8.9726133"><ele>211.75</ele><time>2026-04-11T14:33:13.933Z</time></trkpt><trkpt lat="45.6127017" lon="8.972405"><ele>211.5</ele><time>2026-04-11T14:33:14.933Z</time></trkpt><trkpt lat="45.6126933" lon="8.9722017"><ele>211.25</ele><time>2026-04-11T14:33:15.933Z</time></trkpt><trkpt lat="45.6126883" lon="8.9720083"><ele>211.0</ele><time>2026-04-11T14:33:16.933Z</time></trkpt><trkpt lat="45.6126817" lon="8.9718217"><ele>212.0</ele><time>2026-04-11T14:33:17.933Z</time></trkpt><trkpt lat="45.6126733" lon="8.9716283"><ele>213.0</ele><time>2026-04-11T14:33:18.933Z</time></trkpt><trkpt lat="45.612665" lon="8.9714167"><ele>214.0</ele><time>2026-04-11T14:33:19.933Z</time></trkpt><trkpt lat="45.6126533" lon="8.9712083"><ele>215.0</ele><time>2026-04-11T14:33:20.933Z</time></trkpt><trkpt lat="45.6126433" lon="8.9709783"><ele>215.0</ele><time>2026-04-11T14:33:21.933Z</time></trkpt><trkpt lat="45.612635" lon="8.9707383"><ele>215.0</ele><time>2026-04-11T14:33:22.933Z</time></trkpt><trkpt lat="45.6126233" lon="8.970485"><ele>215.0</ele><time>2026-04-11T14:33:23.933Z</time></trkpt><trkpt lat="45.612615" lon="8.9702333"><ele>214.33333333333334</ele><time>2026-04-11T14:33:24.932Z</time></trkpt><trkpt lat="45.6126067" lon="8.9699933"><ele>213.66666666666669</ele><time>2026-04-11T14:33:25.933Z</time></trkpt><trkpt lat="45.6126" lon="8.9697533"><ele>213.0</ele><time>2026-04-11T14:33:26.933Z</time></trkpt><trkpt lat="45.6126" lon="8.96952"><ele>213.0</ele><time>2026-04-11T14:33:27.933Z</time></trkpt><trkpt lat="45.6125967" lon="8.9693017"><ele>213.0</ele><time>2026-04-11T14:33:28.933Z</time></trkpt><trkpt lat="45.6125967" lon="8.9690867"><ele>213.0</ele><time>2026-04-11T14:33:29.932Z</time></trkpt><trkpt lat="45.6125917" lon="8.9688633"><ele>213.0</ele><time>2026-04-11T14:33:30.933Z</time></trkpt><trkpt lat="45.612585" lon="8.9686483"><ele>213.0</ele><time>2026-04-11T14:33:31.933Z</time></trkpt><trkpt lat="45.61257" lon="8.9684333"><ele>213.0</ele><time>2026-04-11T14:33:32.933Z</time></trkpt><trkpt lat="45.6125667" lon="8.9682083"><ele>213.0</ele><time>2026-04-11T14:33:33.933Z</time></trkpt><trkpt lat="45.6125617" lon="8.9679967"><ele>213.0</ele><time>2026-04-11T14:33:34.933Z</time></trkpt><trkpt lat="45.6125533" lon="8.9677983"><ele>213.0</ele><time>2026-04-11T14:33:35.933Z</time></trkpt><trkpt lat="45.6125367" lon="8.9676033"><ele>213.0</ele><time>2026-04-11T14:33:36.933Z</time></trkpt><trkpt lat="45.612525" lon="8.9674117"><ele>213.0</ele><time>2026-04-11T14:33:37.933Z</time></trkpt><trkpt lat="45.6125183" lon="8.9672133"><ele>213.0</ele><time>2026-04-11T14:33:38.933Z</time></trkpt><trkpt lat="45.6125083" lon="8.9670083"><ele>213.0</ele><time>2026-04-11T14:33:39.932Z</time></trkpt><trkpt lat="45.6125083" lon="8.9667917"><ele>213.0</ele><time>2026-04-11T14:33:40.933Z</time></trkpt><trkpt lat="45.6125067" lon="8.9665683"><ele>213.33333333333331</ele><time>2026-04-11T14:33:41.932Z</time></trkpt><trkpt lat="45.6125033" lon="8.9663417"><ele>213.66666666666666</ele><time>2026-04-11T14:33:42.933Z</time></trkpt><trkpt lat="45.6125067" lon="8.9660933"><ele>214.0</ele><time>2026-04-11T14:33:43.933Z</time></trkpt><trkpt lat="45.6125117" lon="8.9658467"><ele>214.33333333333331</ele><time>2026-04-11T14:33:44.933Z</time></trkpt><trkpt lat="45.6125117" lon="8.9655883"><ele>214.66666666666669</ele><time>2026-04-11T14:33:45.933Z</time></trkpt><trkpt lat="45.6125083" lon="8.9653283"><ele>215.0</ele><time>2026-04-11T14:33:46.933Z</time></trkpt><trkpt lat="45.6125033" lon="8.9650733"><ele>215.0</ele><time>2026-04-11T14:33:47.933Z</time></trkpt><trkpt lat="45.6124917" lon="8.964835"><ele>215.0</ele><time>2026-04-11T14:33:48.933Z</time></trkpt><trkpt lat="45.6124833" lon="8.9646267"><ele>215.0</ele><time>2026-04-11T14:33:49.932Z</time></trkpt><trkpt lat="45.6124767" lon="8.9644167"><ele>215.0</ele><time>2026-04-11T14:33:50.933Z</time></trkpt><trkpt lat="45.612465" lon="8.964225"><ele>215.0</ele><time>2026-04-11T14:33:51.933Z</time></trkpt><trkpt lat="45.6124583" lon="8.96403"><ele>215.0</ele><time>2026-04-11T14:33:52.932Z</time></trkpt><trkpt lat="45.61245" lon="8.9638467"><ele>215.0</ele><time>2026-04-11T14:33:53.933Z</time></trkpt><trkpt lat="45.6124483" lon="8.9636767"><ele>215.0</ele><time>2026-04-11T14:33:54.933Z</time></trkpt><trkpt lat="45.6124433" lon="8.9634917"><ele>215.0</ele><time>2026-04-11T14:33:55.933Z</time></trkpt><trkpt lat="45.612455" lon="8.963325"><ele>215.0</ele><time>2026-04-11T14:33:56.932Z</time></trkpt><trkpt lat="45.6124733" lon="8.9631683"><ele>215.0</ele><time>2026-04-11T14:33:57.933Z</time></trkpt><trkpt lat="45.612505" lon="8.9630167"><ele>215.0</ele><time>2026-04-11T14:33:58.933Z</time></trkpt><trkpt lat="45.612545" lon="8.9628967"><ele>215.0</ele><time>2026-04-11T14:33:59.933Z</time></trkpt><trkpt lat="45.6126033" lon="8.96278"><ele>215.0</ele><time>2026-04-11T14:34:00.933Z</time></trkpt><trkpt lat="45.6126817" lon="8.9626683"><ele>215.0</ele><time>2026-04-11T14:34:01.933Z</time></trkpt><trkpt lat="45.61278" lon="8.9625517"><ele>215.0</ele><time>2026-04-11T14:34:02.933Z</time></trkpt><trkpt lat="45.6128917" lon="8.9624117"><ele>216.0</ele><time>2026-04-11T14:34:03.933Z</time></trkpt><trkpt lat="45.6130067" lon="8.9622783"><ele>217.0</ele><time>2026-04-11T14:34:04.933Z</time></trkpt><trkpt lat="45.6131283" lon="8.9621333"><ele>218.0</ele><time>2026-04-11T14:34:05.933Z</time></trkpt><trkpt lat="45.6132567" lon="8.9619733"><ele>218.0</ele><time>2026-04-11T14:34:06.933Z</time></trkpt><trkpt lat="45.613395" lon="8.9618067"><ele>218.0</ele><time>2026-04-11T14:34:07.933Z</time></trkpt><trkpt lat="45.6135233" lon="8.9616533"><ele>218.0</ele><time>2026-04-11T14:34:08.933Z</time></trkpt><trkpt lat="45.6136583" lon="8.961495"><ele>217.66666666666669</ele><time>2026-04-11T14:34:09.933Z</time></trkpt><trkpt lat="45.6137967" lon="8.9613283"><ele>217.33333333333331</ele><time>2026-04-11T14:34:10.933Z</time></trkpt><trkpt lat="45.6139183" lon="8.9611767"><ele>217.0</ele><time>2026-04-11T14:34:11.933Z</time></trkpt><trkpt lat="45.6140267" lon="8.961045"><ele>217.0</ele><time>2026-04-11T14:34:12.933Z</time></trkpt><trkpt lat="45.614115" lon="8.960945"><ele>217.0</ele><time>2026-04-11T14:34:13.933Z</time></trkpt><trkpt lat="45.6141833" lon="8.9608633"><ele>217.0</ele><time>2026-04-11T14:34:14.933Z</time></trkpt><trkpt lat="45.6142467" lon="8.9607883"><ele>217.0</ele><time>2026-04-11T14:34:15.933Z</time></trkpt><trkpt lat="45.6142967" lon="8.9607267"><ele>217.0</ele><time>2026-04-11T14:34:16.933Z</time></trkpt><trkpt lat="45.6143967" lon="8.9606483"><ele>217.0</ele><time>2026-04-11T14:34:18.933Z</time></trkpt><trkpt lat="45.6144583" lon="8.9606033"><ele>217.0</ele><time>2026-04-11T14:34:19.933Z</time></trkpt><trkpt lat="45.6145217" lon="8.9605183"><ele>217.0</ele><time>2026-04-11T14:34:20.933Z</time></trkpt><trkpt lat="45.61459" lon="8.9603983"><ele>217.0</ele><time>2026-04-11T14:34:21.933Z</time></trkpt><trkpt lat="45.6146817" lon="8.9602483"><ele>217.0</ele><time>2026-04-11T14:34:22.933Z</time></trkpt><trkpt lat="45.61481" lon="8.9600833"><ele>217.0</ele><time>2026-04-11T14:34:23.932Z</time></trkpt><trkpt lat="45.6149433" lon="8.9599283"><ele>217.0</ele><time>2026-04-11T14:34:24.933Z</time></trkpt><trkpt lat="45.6150917" lon="8.95975"><ele>217.0</ele><time>2026-04-11T14:34:25.933Z</time></trkpt><trkpt lat="45.615245" lon="8.9595667"><ele>217.33333333333331</ele><time>2026-04-11T14:34:26.933Z</time></trkpt><trkpt lat="45.6154083" lon="8.9593817"><ele>217.66666666666669</ele><time>2026-04-11T14:34:27.933Z</time></trkpt><trkpt lat="45.615575" lon="8.959195"><ele>218.0</ele><time>2026-04-11T14:34:28.933Z</time></trkpt><trkpt lat="45.6157333" lon="8.958995"><ele>218.33333333333334</ele><time>2026-04-11T14:34:29.932Z</time></trkpt><trkpt lat="45.61591" lon="8.9587833"><ele>218.66666666666669</ele><time>2026-04-11T14:34:30.933Z</time></trkpt><trkpt lat="45.61607" lon="8.9585833"><ele>219.0</ele><time>2026-04-11T14:34:31.933Z</time></trkpt><trkpt lat="45.6162133" lon="8.9584033"><ele>218.66666666666669</ele><time>2026-04-11T14:34:32.933Z</time></trkpt><trkpt lat="45.6163533" lon="8.9582367"><ele>218.33333333333334</ele><time>2026-04-11T14:34:33.933Z</time></trkpt><trkpt lat="45.6164867" lon="8.95808"><ele>218.0</ele><time>2026-04-11T14:34:34.933Z</time></trkpt><trkpt lat="45.6166067" lon="8.9579333"><ele>218.0</ele><time>2026-04-11T14:34:35.933Z</time></trkpt><trkpt lat="45.6167083" lon="8.95781"><ele>218.0</ele><time>2026-04-11T14:34:36.933Z</time></trkpt><trkpt lat="45.6168017" lon="8.9576917"><ele>218.0</ele><time>2026-04-11T14:34:37.933Z</time></trkpt><trkpt lat="45.6169633" lon="8.9574517"><ele>218.60000000000002</ele><time>2026-04-11T14:34:39.933Z</time></trkpt><trkpt lat="45.617035" lon="8.9573417"><ele>219.20000000000002</ele><time>2026-04-11T14:34:40.933Z</time></trkpt><trkpt lat="45.6171033" lon="8.957255"><ele>219.8</ele><time>2026-04-11T14:34:41.933Z</time></trkpt><trkpt lat="45.6171783" lon="8.9571817"><ele>220.4</ele><time>2026-04-11T14:34:42.933Z</time></trkpt><trkpt lat="45.617255" lon="8.9571167"><ele>221.0</ele><time>2026-04-11T14:34:43.933Z</time></trkpt><trkpt lat="45.61733" lon="8.9570517"><ele>221.00000000000003</ele><time>2026-04-11T14:34:44.933Z</time></trkpt><trkpt lat="45.6173933" lon="8.9569767"><ele>221.0</ele><time>2026-04-11T14:34:45.933Z</time></trkpt><trkpt lat="45.6174517" lon="8.9569067"><ele>221.0</ele><time>2026-04-11T14:34:46.933Z</time></trkpt><trkpt lat="45.6175117" lon="8.956835"><ele>221.0</ele><time>2026-04-11T14:34:47.932Z</time></trkpt><trkpt lat="45.6175783" lon="8.9567483"><ele>221.00000000000003</ele><time>2026-04-11T14:34:48.932Z</time></trkpt><trkpt lat="45.61766" lon="8.956645"><ele>221.0</ele><time>2026-04-11T14:34:49.931Z</time></trkpt><trkpt lat="45.6177567" lon="8.9564983"><ele>220.66666666666669</ele><time>2026-04-11T14:34:50.932Z</time></trkpt><trkpt lat="45.6178717" lon="8.9563533"><ele>220.33333333333331</ele><time>2026-04-11T14:34:51.932Z</time></trkpt><trkpt lat="45.618" lon="8.9561967"><ele>220.0</ele><time>2026-04-11T14:34:52.932Z</time></trkpt><trkpt lat="45.61813" lon="8.9560467"><ele>220.0</ele><time>2026-04-11T14:34:53.932Z</time></trkpt><trkpt lat="45.6182533" lon="8.9559067"><ele>220.0</ele><time>2026-04-11T14:34:54.932Z</time></trkpt><trkpt lat="45.6183567" lon="8.95579"><ele>220.0</ele><time>2026-04-11T14:34:55.932Z</time></trkpt><trkpt lat="45.6184517" lon="8.9556717"><ele>220.0</ele><time>2026-04-11T14:34:56.931Z</time></trkpt><trkpt lat="45.618535" lon="8.9555767"><ele>219.99999999999997</ele><time>2026-04-11T14:34:57.932Z</time></trkpt><trkpt lat="45.6186067" lon="8.9554883"><ele>220.0</ele><time>2026-04-11T14:34:58.932Z</time></trkpt><trkpt lat="45.61866" lon="8.9554267"><ele>220.0</ele><time>2026-04-11T14:34:59.932Z</time></trkpt><trkpt lat="45.6187283" lon="8.9553533"><ele>220.0</ele><time>2026-04-11T14:35:01.932Z</time></trkpt><trkpt lat="45.61879" lon="8.9552567"><ele>219.99999999999997</ele><time>2026-04-11T14:35:04.932Z</time></trkpt><trkpt lat="45.61886" lon="8.9551583"><ele>220.0</ele><time>2026-04-11T14:35:06.932Z</time></trkpt><trkpt lat="45.6189133" lon="8.9550933"><ele>220.4</ele><time>2026-04-11T14:35:07.932Z</time></trkpt><trkpt lat="45.6189767" lon="8.9550167"><ele>220.8</ele><time>2026-04-11T14:35:08.932Z</time></trkpt><trkpt lat="45.619045" lon="8.9549283"><ele>221.2</ele><time>2026-04-11T14:35:09.932Z</time></trkpt><trkpt lat="45.619125" lon="8.9548333"><ele>221.6</ele><time>2026-04-11T14:35:10.932Z</time></trkpt><trkpt lat="45.6192217" lon="8.954725"><ele>222.0</ele><time>2026-04-11T14:35:11.932Z</time></trkpt><trkpt lat="45.6193167" lon="8.9545983"><ele>222.0</ele><time>2026-04-11T14:35:12.932Z</time></trkpt><trkpt lat="45.6194133" lon="8.9544833"><ele>222.0</ele><time>2026-04-11T14:35:13.932Z</time></trkpt><trkpt lat="45.6195083" lon="8.9543667"><ele>222.0</ele><time>2026-04-11T14:35:14.932Z</time></trkpt><trkpt lat="45.6196067" lon="8.9542567"><ele>222.0</ele><time>2026-04-11T14:35:15.932Z</time></trkpt><trkpt lat="45.6197067" lon="8.9541333"><ele>221.75</ele><time>2026-04-11T14:35:16.932Z</time></trkpt><trkpt lat="45.6198133" lon="8.9540067"><ele>221.5</ele><time>2026-04-11T14:35:17.932Z</time></trkpt><trkpt lat="45.6199133" lon="8.953885"><ele>221.25</ele><time>2026-04-11T14:35:18.932Z</time></trkpt><trkpt lat="45.6200117" lon="8.9537617"><ele>221.0</ele><time>2026-04-11T14:35:19.932Z</time></trkpt><trkpt lat="45.6201117" lon="8.9536367"><ele>221.0</ele><time>2026-04-11T14:35:20.932Z</time></trkpt><trkpt lat="45.62021" lon="8.953525"><ele>221.0</ele><time>2026-04-11T14:35:21.932Z</time></trkpt><trkpt lat="45.6203017" lon="8.95342"><ele>221.0</ele><time>2026-04-11T14:35:22.932Z</time></trkpt><trkpt lat="45.6203917" lon="8.9533167"><ele>221.0</ele><time>2026-04-11T14:35:23.932Z</time></trkpt><trkpt lat="45.62047" lon="8.9532233"><ele>221.60000000000002</ele><time>2026-04-11T14:35:24.932Z</time></trkpt><trkpt lat="45.6205333" lon="8.9531467"><ele>222.20000000000002</ele><time>2026-04-11T14:35:25.932Z</time></trkpt><trkpt lat="45.6206" lon="8.9530683"><ele>222.79999999999998</ele><time>2026-04-11T14:35:26.932Z</time></trkpt><trkpt lat="45.620665" lon="8.95298"><ele>223.39999999999998</ele><time>2026-04-11T14:35:27.932Z</time></trkpt><trkpt lat="45.620735" lon="8.952895"><ele>224.0</ele><time>2026-04-11T14:35:28.932Z</time></trkpt><trkpt lat="45.6208167" lon="8.9528083"><ele>224.0</ele><time>2026-04-11T14:35:29.932Z</time></trkpt><trkpt lat="45.6209" lon="8.9527133"><ele>224.0</ele><time>2026-04-11T14:35:30.932Z</time></trkpt><trkpt lat="45.6209883" lon="8.95261"><ele>224.0</ele><time>2026-04-11T14:35:31.932Z</time></trkpt><trkpt lat="45.6210767" lon="8.9525017"><ele>224.0</ele><time>2026-04-11T14:35:32.931Z</time></trkpt><trkpt lat="45.6211633" lon="8.95236"><ele>224.0</ele><time>2026-04-11T14:35:33.931Z</time></trkpt><trkpt lat="45.6212883" lon="8.9522117"><ele>224.0</ele><time>2026-04-11T14:35:34.931Z</time></trkpt><trkpt lat="45.62142" lon="8.9520333"><ele>224.0</ele><time>2026-04-11T14:35:35.932Z</time></trkpt><trkpt lat="45.62157" lon="8.9518467"><ele>224.0</ele><time>2026-04-11T14:35:36.932Z</time></trkpt><trkpt lat="45.62174" lon="8.9516483"><ele>224.0</ele><time>2026-04-11T14:35:37.932Z</time></trkpt><trkpt lat="45.6219117" lon="8.95146"><ele>224.0</ele><time>2026-04-11T14:35:38.932Z</time></trkpt><trkpt lat="45.62207" lon="8.95127"><ele>224.0</ele><time>2026-04-11T14:35:39.932Z</time></trkpt><trkpt lat="45.6222317" lon="8.9510783"><ele>224.0</ele><time>2026-04-11T14:35:40.932Z</time></trkpt><trkpt lat="45.62237" lon="8.9508983"><ele>224.0</ele><time>2026-04-11T14:35:41.932Z</time></trkpt><trkpt lat="45.6224867" lon="8.9507533"><ele>224.5</ele><time>2026-04-11T14:35:42.932Z</time></trkpt><trkpt lat="45.62259" lon="8.9506217"><ele>225.0</ele><time>2026-04-11T14:35:43.932Z</time></trkpt><trkpt lat="45.622695" lon="8.95048"><ele>225.5</ele><time>2026-04-11T14:35:44.932Z</time></trkpt><trkpt lat="45.6228183" lon="8.9503233"><ele>226.0</ele><time>2026-04-11T14:35:45.932Z</time></trkpt><trkpt lat="45.6229717" lon="8.9501367"><ele>227.33333333333331</ele><time>2026-04-11T14:35:46.932Z</time></trkpt><trkpt lat="45.6231317" lon="8.949965"><ele>228.66666666666669</ele><time>2026-04-11T14:35:47.931Z</time></trkpt><trkpt lat="45.623285" lon="8.949795"><ele>230.0</ele><time>2026-04-11T14:35:48.931Z</time></trkpt><trkpt lat="45.6234283" lon="8.9496183"><ele>230.0</ele><time>2026-04-11T14:35:49.932Z</time></trkpt><trkpt lat="45.623565" lon="8.9494483"><ele>230.0</ele><time>2026-04-11T14:35:50.931Z</time></trkpt><trkpt lat="45.6236917" lon="8.9492917"><ele>230.0</ele><time>2026-04-11T14:35:51.931Z</time></trkpt><trkpt lat="45.6238133" lon="8.9491433"><ele>229.25</ele><time>2026-04-11T14:35:52.932Z</time></trkpt><trkpt lat="45.6239217" lon="8.94901"><ele>228.5</ele><time>2026-04-11T14:35:53.932Z</time></trkpt><trkpt lat="45.62402" lon="8.94889"><ele>227.75</ele><time>2026-04-11T14:35:54.932Z</time></trkpt><trkpt lat="45.6241" lon="8.94878"><ele>227.0</ele><time>2026-04-11T14:35:55.932Z</time></trkpt><trkpt lat="45.6241767" lon="8.94868"><ele>227.0</ele><time>2026-04-11T14:35:56.932Z</time></trkpt><trkpt lat="45.6242617" lon="8.948565"><ele>227.0</ele><time>2026-04-11T14:35:57.932Z</time></trkpt><trkpt lat="45.62435" lon="8.948435"><ele>227.0</ele><time>2026-04-11T14:35:58.932Z</time></trkpt><trkpt lat="45.6244367" lon="8.9483083"><ele>227.0</ele><time>2026-04-11T14:35:59.932Z</time></trkpt><trkpt lat="45.6245183" lon="8.948185"><ele>227.39999999999998</ele><time>2026-04-11T14:36:00.932Z</time></trkpt><trkpt lat="45.6245933" lon="8.94808"><ele>227.79999999999998</ele><time>2026-04-11T14:36:01.932Z</time></trkpt><trkpt lat="45.6246717" lon="8.947975"><ele>228.2</ele><time>2026-04-11T14:36:02.932Z</time></trkpt><trkpt lat="45.6247517" lon="8.9478717"><ele>228.6</ele><time>2026-04-11T14:36:03.932Z</time></trkpt><trkpt lat="45.6248317" lon="8.9477417"><ele>229.0</ele><time>2026-04-11T14:36:04.932Z</time></trkpt><trkpt lat="45.624905" lon="8.9475883"><ele>229.0</ele><time>2026-04-11T14:36:05.932Z</time></trkpt><trkpt lat="45.625" lon="8.9474083"><ele>229.0</ele><time>2026-04-11T14:36:06.932Z</time></trkpt><trkpt lat="45.625095" lon="8.947215"><ele>229.0</ele><time>2026-04-11T14:36:07.932Z</time></trkpt><trkpt lat="45.6252067" lon="8.9470133"><ele>229.0</ele><time>2026-04-11T14:36:08.931Z</time></trkpt><trkpt lat="45.625325" lon="8.9468017"><ele>229.0</ele><time>2026-04-11T14:36:09.932Z</time></trkpt><trkpt lat="45.6255717" lon="8.9464083"><ele>229.0</ele><time>2026-04-11T14:36:11.932Z</time></trkpt><trkpt lat="45.6257" lon="8.94621"><ele>229.0</ele><time>2026-04-11T14:36:12.932Z</time></trkpt><trkpt lat="45.62583" lon="8.945995"><ele>229.0</ele><time>2026-04-11T14:36:13.932Z</time></trkpt><trkpt lat="45.6259667" lon="8.94579"><ele>229.0</ele><time>2026-04-11T14:36:14.931Z</time></trkpt><trkpt lat="45.626105" lon="8.94558"><ele>229.0</ele><time>2026-04-11T14:36:15.932Z</time></trkpt><trkpt lat="45.6262317" lon="8.9453817"><ele>229.0</ele><time>2026-04-11T14:36:16.931Z</time></trkpt><trkpt lat="45.626335" lon="8.9452183"><ele>229.0</ele><time>2026-04-11T14:36:17.932Z</time></trkpt><trkpt lat="45.626425" lon="8.9450717"><ele>229.0</ele><time>2026-04-11T14:36:18.931Z</time></trkpt><trkpt lat="45.62651" lon="8.9449383"><ele>229.0</ele><time>2026-04-11T14:36:19.932Z</time></trkpt><trkpt lat="45.6266067" lon="8.9447967"><ele>229.0</ele><time>2026-04-11T14:36:20.931Z</time></trkpt><trkpt lat="45.6267867" lon="8.9445167"><ele>229.0</ele><time>2026-04-11T14:36:22.931Z</time></trkpt><trkpt lat="45.6268867" lon="8.9443633"><ele>229.0</ele><time>2026-04-11T14:36:23.932Z</time></trkpt><trkpt lat="45.6269967" lon="8.9441967"><ele>229.0</ele><time>2026-04-11T14:36:24.932Z</time></trkpt><trkpt lat="45.6271033" lon="8.94404"><ele>229.33333333333331</ele><time>2026-04-11T14:36:25.932Z</time></trkpt><trkpt lat="45.6271967" lon="8.9438633"><ele>229.66666666666669</ele><time>2026-04-11T14:36:26.932Z</time></trkpt><trkpt lat="45.627315" lon="8.9436783"><ele>230.0</ele><time>2026-04-11T14:36:27.932Z</time></trkpt><trkpt lat="45.6274317" lon="8.9435117"><ele>230.0</ele><time>2026-04-11T14:36:28.932Z</time></trkpt><trkpt lat="45.6275483" lon="8.9433433"><ele>230.0</ele><time>2026-04-11T14:36:29.932Z</time></trkpt><trkpt lat="45.6276683" lon="8.94318"><ele>230.0</ele><time>2026-04-11T14:36:30.932Z</time></trkpt><trkpt lat="45.627785" lon="8.9430283"><ele>230.66666666666669</ele><time>2026-04-11T14:36:31.932Z</time></trkpt><trkpt lat="45.6279117" lon="8.9428583"><ele>231.33333333333331</ele><time>2026-04-11T14:36:32.932Z</time></trkpt><trkpt lat="45.6280467" lon="8.9427133"><ele>232.0</ele><time>2026-04-11T14:36:33.932Z</time></trkpt><trkpt lat="45.6281767" lon="8.94259"><ele>231.75</ele><time>2026-04-11T14:36:34.932Z</time></trkpt><trkpt lat="45.6282917" lon="8.9424783"><ele>231.5</ele><time>2026-04-11T14:36:35.932Z</time></trkpt><trkpt lat="45.628395" lon="8.9423867"><ele>231.25</ele><time>2026-04-11T14:36:36.932Z</time></trkpt><trkpt lat="45.628475" lon="8.9423083"><ele>231.0</ele><time>2026-04-11T14:36:37.932Z</time></trkpt><trkpt lat="45.6285583" lon="8.9422283"><ele>231.0</ele><time>2026-04-11T14:36:38.932Z</time></trkpt><trkpt lat="45.628645" lon="8.942135"><ele>231.0</ele><time>2026-04-11T14:36:39.932Z</time></trkpt><trkpt lat="45.628735" lon="8.9420367"><ele>231.0</ele><time>2026-04-11T14:36:40.932Z</time></trkpt><trkpt lat="45.6288333" lon="8.94193"><ele>231.0</ele><time>2026-04-11T14:36:41.932Z</time></trkpt><trkpt lat="45.6289433" lon="8.941815"><ele>231.25</ele><time>2026-04-11T14:36:42.932Z</time></trkpt><trkpt lat="45.6290467" lon="8.941685"><ele>231.5</ele><time>2026-04-11T14:36:43.932Z</time></trkpt><trkpt lat="45.6291733" lon="8.9415733"><ele>231.75</ele><time>2026-04-11T14:36:44.932Z</time></trkpt><trkpt lat="45.6292967" lon="8.9414433"><ele>232.0</ele><time>2026-04-11T14:36:45.932Z</time></trkpt><trkpt lat="45.629405" lon="8.9413267"><ele>232.0</ele><time>2026-04-11T14:36:46.932Z</time></trkpt><trkpt lat="45.6295017" lon="8.9412367"><ele>232.0</ele><time>2026-04-11T14:36:47.932Z</time></trkpt><trkpt lat="45.6295867" lon="8.941135"><ele>232.0</ele><time>2026-04-11T14:36:48.932Z</time></trkpt><trkpt lat="45.6296717" lon="8.9410517"><ele>232.0</ele><time>2026-04-11T14:36:49.932Z</time></trkpt><trkpt lat="45.6297567" lon="8.94097"><ele>232.0</ele><time>2026-04-11T14:36:50.932Z</time></trkpt><trkpt lat="45.62984" lon="8.9408917"><ele>232.16666666666666</ele><time>2026-04-11T14:36:51.932Z</time></trkpt><trkpt lat="45.6299217" lon="8.94082"><ele>232.33333333333331</ele><time>2026-04-11T14:36:52.932Z</time></trkpt><trkpt lat="45.630005" lon="8.9407533"><ele>232.5</ele><time>2026-04-11T14:36:53.932Z</time></trkpt><trkpt lat="45.6300817" lon="8.9406783"><ele>232.66666666666669</ele><time>2026-04-11T14:36:54.932Z</time></trkpt><trkpt lat="45.63015" lon="8.9406217"><ele>232.83333333333334</ele><time>2026-04-11T14:36:55.932Z</time></trkpt><trkpt lat="45.6302167" lon="8.9405633"><ele>233.0</ele><time>2026-04-11T14:36:56.932Z</time></trkpt><trkpt lat="45.6302833" lon="8.9405167"><ele>233.16666666666669</ele><time>2026-04-11T14:36:57.932Z</time></trkpt><trkpt lat="45.6303533" lon="8.9404617"><ele>233.33333333333334</ele><time>2026-04-11T14:36:58.931Z</time></trkpt><trkpt lat="45.6304233" lon="8.9404083"><ele>233.5</ele><time>2026-04-11T14:36:59.931Z</time></trkpt><trkpt lat="45.630495" lon="8.9403417"><ele>233.66666666666669</ele><time>2026-04-11T14:37:00.931Z</time></trkpt><trkpt lat="45.63057" lon="8.9402667"><ele>233.83333333333334</ele><time>2026-04-11T14:37:01.932Z</time></trkpt><trkpt lat="45.630645" lon="8.9402033"><ele>234.0</ele><time>2026-04-11T14:37:02.932Z</time></trkpt><trkpt lat="45.6307267" lon="8.94014"><ele>234.0</ele><time>2026-04-11T14:37:03.932Z</time></trkpt><trkpt lat="45.6308017" lon="8.94009"><ele>234.0</ele><time>2026-04-11T14:37:04.932Z</time></trkpt><trkpt lat="45.6308717" lon="8.940055"><ele>234.0</ele><time>2026-04-11T14:37:05.932Z</time></trkpt><trkpt lat="45.63094" lon="8.9400267"><ele>234.0</ele><time>2026-04-11T14:37:06.932Z</time></trkpt><trkpt lat="45.6310067" lon="8.9399867"><ele>234.0</ele><time>2026-04-11T14:37:07.932Z</time></trkpt><trkpt lat="45.6310733" lon="8.9399483"><ele>234.0</ele><time>2026-04-11T14:37:08.932Z</time></trkpt><trkpt lat="45.6311517" lon="8.9399133"><ele>234.16666666666666</ele><time>2026-04-11T14:37:09.932Z</time></trkpt><trkpt lat="45.6312317" lon="8.9398767"><ele>234.33333333333331</ele><time>2026-04-11T14:37:10.932Z</time></trkpt><trkpt lat="45.6313167" lon="8.9398367"><ele>234.5</ele><time>2026-04-11T14:37:11.931Z</time></trkpt><trkpt lat="45.6314017" lon="8.9398017"><ele>234.66666666666666</ele><time>2026-04-11T14:37:12.932Z</time></trkpt><trkpt lat="45.6314883" lon="8.9397667"><ele>234.83333333333331</ele><time>2026-04-11T14:37:13.932Z</time></trkpt><trkpt lat="45.6315833" lon="8.939735"><ele>235.0</ele><time>2026-04-11T14:37:14.932Z</time></trkpt><trkpt lat="45.631675" lon="8.9396967"><ele>234.99999999999997</ele><time>2026-04-11T14:37:15.932Z</time></trkpt><trkpt lat="45.6317683" lon="8.93966"><ele>235.0</ele><time>2026-04-11T14:37:16.932Z</time></trkpt><trkpt lat="45.6318517" lon="8.939635"><ele>235.0</ele><time>2026-04-11T14:37:17.932Z</time></trkpt><trkpt lat="45.6319267" lon="8.9396133"><ele>235.0</ele><time>2026-04-11T14:37:18.932Z</time></trkpt><trkpt lat="45.6319883" lon="8.9395883"><ele>234.99999999999997</ele><time>2026-04-11T14:37:19.932Z</time></trkpt><trkpt lat="45.6320667" lon="8.9395533"><ele>235.0</ele><time>2026-04-11T14:37:21.932Z</time></trkpt><trkpt lat="45.6321283" lon="8.9396367"><ele>235.16666666666666</ele><time>2026-04-11T14:37:32.932Z</time></trkpt><trkpt lat="45.6321467" lon="8.939725"><ele>235.33333333333331</ele><time>2026-04-11T14:37:33.932Z</time></trkpt><trkpt lat="45.6321767" lon="8.939845"><ele>235.5</ele><time>2026-04-11T14:37:34.932Z</time></trkpt><trkpt lat="45.6322033" lon="8.93996"><ele>235.66666666666669</ele><time>2026-04-11T14:37:35.932Z</time></trkpt><trkpt lat="45.6322283" lon="8.9400683"><ele>235.83333333333334</ele><time>2026-04-11T14:37:36.932Z</time></trkpt><trkpt lat="45.6322733" lon="8.9402083"><ele>236.0</ele><time>2026-04-11T14:37:37.932Z</time></trkpt><trkpt lat="45.63229" lon="8.9403483"><ele>236.0</ele><time>2026-04-11T14:37:38.932Z</time></trkpt><trkpt lat="45.6323217" lon="8.9404833"><ele>236.00000000000003</ele><time>2026-04-11T14:37:39.932Z</time></trkpt><trkpt lat="45.63233" lon="8.9406333"><ele>236.00000000000003</ele><time>2026-04-11T14:37:40.932Z</time></trkpt><trkpt lat="45.6323517" lon="8.9407883"><ele>236.0</ele><time>2026-04-11T14:37:41.932Z</time></trkpt><trkpt lat="45.63237" lon="8.9409467"><ele>236.0</ele><time>2026-04-11T14:37:42.932Z</time></trkpt><trkpt lat="45.6323783" lon="8.9411017"><ele>236.00000000000003</ele><time>2026-04-11T14:37:43.932Z</time></trkpt><trkpt lat="45.6323967" lon="8.9412417"><ele>236.0</ele><time>2026-04-11T14:37:44.931Z</time></trkpt><trkpt lat="45.6324117" lon="8.9413683"><ele>236.0</ele><time>2026-04-11T14:37:45.932Z</time></trkpt><trkpt lat="45.632425" lon="8.9414617"><ele>236.0</ele><time>2026-04-11T14:37:46.932Z</time></trkpt><trkpt lat="45.632455" lon="8.9415617"><ele>236.00000000000003</ele><time>2026-04-11T14:37:47.932Z</time></trkpt><trkpt lat="45.6324783" lon="8.9416583"><ele>236.0</ele><time>2026-04-11T14:37:48.932Z</time></trkpt><trkpt lat="45.6324933" lon="8.9417517"><ele>235.60000000000002</ele><time>2026-04-11T14:37:49.932Z</time></trkpt><trkpt lat="45.6325417" lon="8.9419067"><ele>235.20000000000002</ele><time>2026-04-11T14:37:51.932Z</time></trkpt><trkpt lat="45.6326033" lon="8.94201"><ele>234.79999999999998</ele><time>2026-04-11T14:37:53.932Z</time></trkpt><trkpt lat="45.63263" lon="8.9421383"><ele>234.39999999999998</ele><time>2026-04-11T14:37:55.932Z</time></trkpt><trkpt lat="45.6326383" lon="8.9422433"><ele>234.0</ele><time>2026-04-11T14:37:57.932Z</time></trkpt><trkpt lat="45.6326933" lon="8.942305"><ele>234.0</ele><time>2026-04-11T14:38:23.931Z</time></trkpt><trkpt lat="45.63276" lon="8.9422817"><ele>234.0</ele><time>2026-04-11T14:38:28.931Z</time></trkpt></trkseg></trk></gpx>